<?xml version="1.0" encoding="UTF-8" standalone="no" ?><gpx xmlns="http://www.topografix.com/GPX/1/1" xmlns:gpxx="http://www.garmin.com/xmlschemas/GpxExtensions/v3" xmlns:wptx1="http://www.garmin.com/xmlschemas/WaypointExtension/v1" xmlns:gpxtpx="http://www.garmin.com/xmlschemas/TrackPointExtension/v1" creator="GuideVTT.com" version="1.1" xmlns:xsi="http://www.w3.org/2001/XMLSchema-instance" xsi:schemaLocation="http://www.topografix.com/GPX/1/1 http://www.topografix.com/GPX/1/1/gpx.xsd http://www.garmin.com/xmlschemas/GpxExtensions/v3 http://www8.garmin.com/xmlschemas/GpxExtensionsv3.xsd http://www.garmin.com/xmlschemas/WaypointExtension/v1 http://www8.garmin.com/xmlschemas/WaypointExtensionv1.xsd http://www.garmin.com/xmlschemas/TrackPointExtension/v1 http://www.garmin.com/xmlschemas/TrackPointExtensionv1.xsd">
<metadata><link href="http://www.garmin.com"><text>Garmin International</text></link><time>2013-06-22T15:13:50Z</time></metadata>
<trk><name>22_08_09.gpx</name><extensions><gpxx:TrackExtension><gpxx:DisplayColor>Cyan</gpxx:DisplayColor></gpxx:TrackExtension></extensions><trkseg>
<trkpt lat="46.14841017" lon="5.97142347"><ele>366.399536</ele><time>2009-08-22T14:11:09Z</time></trkpt>
<trkpt lat="46.14844127" lon="5.97146857"><ele>366.880249</ele><time>2009-08-22T14:11:10Z</time></trkpt>
<trkpt lat="46.14847362" lon="5.97151182"><ele>367.360962</ele><time>2009-08-22T14:11:11Z</time></trkpt>
<trkpt lat="46.14850522" lon="5.97155289"><ele>367.360962</ele><time>2009-08-22T14:11:12Z</time></trkpt>
<trkpt lat="46.14853724" lon="5.97159538"><ele>367.360962</ele><time>2009-08-22T14:11:13Z</time></trkpt>
<trkpt lat="46.14856758" lon="5.97164274"><ele>367.360962</ele><time>2009-08-22T14:11:14Z</time></trkpt>
<trkpt lat="46.14859952" lon="5.97169085"><ele>367.360962</ele><time>2009-08-22T14:11:15Z</time></trkpt>
<trkpt lat="46.14863137" lon="5.97174165"><ele>367.841553</ele><time>2009-08-22T14:11:16Z</time></trkpt>
<trkpt lat="46.14866548" lon="5.97178884"><ele>367.841553</ele><time>2009-08-22T14:11:17Z</time></trkpt>
<trkpt lat="46.14870245" lon="5.97183335"><ele>367.841553</ele><time>2009-08-22T14:11:18Z</time></trkpt>
<trkpt lat="46.14874042" lon="5.97187609"><ele>368.322266</ele><time>2009-08-22T14:11:19Z</time></trkpt>
<trkpt lat="46.14877897" lon="5.97191842"><ele>368.322266</ele><time>2009-08-22T14:11:20Z</time></trkpt>
<trkpt lat="46.14881594" lon="5.97196260"><ele>368.322266</ele><time>2009-08-22T14:11:21Z</time></trkpt>
<trkpt lat="46.14885282" lon="5.97200610"><ele>368.802979</ele><time>2009-08-22T14:11:22Z</time></trkpt>
<trkpt lat="46.14889037" lon="5.97204776"><ele>368.802979</ele><time>2009-08-22T14:11:23Z</time></trkpt>
<trkpt lat="46.14892767" lon="5.97209025"><ele>368.802979</ele><time>2009-08-22T14:11:24Z</time></trkpt>
<trkpt lat="46.14896614" lon="5.97213375"><ele>368.802979</ele><time>2009-08-22T14:11:25Z</time></trkpt>
<trkpt lat="46.14901199" lon="5.97218648"><ele>369.283691</ele><time>2009-08-22T14:11:26Z</time></trkpt>
<trkpt lat="46.14906387" lon="5.97223492"><ele>369.283691</ele><time>2009-08-22T14:11:27Z</time></trkpt>
<trkpt lat="46.14910495" lon="5.97228446"><ele>369.764282</ele><time>2009-08-22T14:11:28Z</time></trkpt>
<trkpt lat="46.14914300" lon="5.97233349"><ele>369.764282</ele><time>2009-08-22T14:11:29Z</time></trkpt>
<trkpt lat="46.14917996" lon="5.97238035"><ele>369.764282</ele><time>2009-08-22T14:11:30Z</time></trkpt>
<trkpt lat="46.14921324" lon="5.97242586"><ele>369.764282</ele><time>2009-08-22T14:11:31Z</time></trkpt>
<trkpt lat="46.14924744" lon="5.97247012"><ele>370.244873</ele><time>2009-08-22T14:11:32Z</time></trkpt>
<trkpt lat="46.14928633" lon="5.97251312"><ele>370.244873</ele><time>2009-08-22T14:11:33Z</time></trkpt>
<trkpt lat="46.14932204" lon="5.97255369"><ele>370.244873</ele><time>2009-08-22T14:11:34Z</time></trkpt>
<trkpt lat="46.14935489" lon="5.97259518"><ele>370.725586</ele><time>2009-08-22T14:11:35Z</time></trkpt>
<trkpt lat="46.14938582" lon="5.97263893"><ele>370.725586</ele><time>2009-08-22T14:11:36Z</time></trkpt>
<trkpt lat="46.14941642" lon="5.97267900"><ele>370.725586</ele><time>2009-08-22T14:11:37Z</time></trkpt>
<trkpt lat="46.14944617" lon="5.97271579"><ele>371.206299</ele><time>2009-08-22T14:11:38Z</time></trkpt>
<trkpt lat="46.14947727" lon="5.97275049"><ele>371.68689</ele><time>2009-08-22T14:11:39Z</time></trkpt>
<trkpt lat="46.14950728" lon="5.97279307"><ele>371.68689</ele><time>2009-08-22T14:11:40Z</time></trkpt>
<trkpt lat="46.14953988" lon="5.97283859"><ele>372.16748</ele><time>2009-08-22T14:11:41Z</time></trkpt>
<trkpt lat="46.14957282" lon="5.97288620"><ele>372.16748</ele><time>2009-08-22T14:11:42Z</time></trkpt>
<trkpt lat="46.14960719" lon="5.97293666"><ele>372.648193</ele><time>2009-08-22T14:11:43Z</time></trkpt>
<trkpt lat="46.14963979" lon="5.97299365"><ele>372.648193</ele><time>2009-08-22T14:11:44Z</time></trkpt>
<trkpt lat="46.14967357" lon="5.97305182"><ele>372.648193</ele><time>2009-08-22T14:11:45Z</time></trkpt>
<trkpt lat="46.14971096" lon="5.97310857"><ele>372.648193</ele><time>2009-08-22T14:11:46Z</time></trkpt>
<trkpt lat="46.14974465" lon="5.97316942"><ele>372.648193</ele><time>2009-08-22T14:11:47Z</time></trkpt>
<trkpt lat="46.14978254" lon="5.97322768"><ele>372.648193</ele><time>2009-08-22T14:11:48Z</time></trkpt>
<trkpt lat="46.14982168" lon="5.97328107"><ele>372.648193</ele><time>2009-08-22T14:11:49Z</time></trkpt>
<trkpt lat="46.14986275" lon="5.97333387"><ele>372.648193</ele><time>2009-08-22T14:11:50Z</time></trkpt>
<trkpt lat="46.14990726" lon="5.97338366"><ele>372.16748</ele><time>2009-08-22T14:11:51Z</time></trkpt>
<trkpt lat="46.14995428" lon="5.97343236"><ele>372.648193</ele><time>2009-08-22T14:11:52Z</time></trkpt>
<trkpt lat="46.15000055" lon="5.97348165"><ele>372.648193</ele><time>2009-08-22T14:11:53Z</time></trkpt>
<trkpt lat="46.15004288" lon="5.97353848"><ele>372.648193</ele><time>2009-08-22T14:11:54Z</time></trkpt>
<trkpt lat="46.15008395" lon="5.97359782"><ele>372.648193</ele><time>2009-08-22T14:11:55Z</time></trkpt>
<trkpt lat="46.15012695" lon="5.97365624"><ele>372.648193</ele><time>2009-08-22T14:11:56Z</time></trkpt>
<trkpt lat="46.15016987" lon="5.97371726"><ele>372.648193</ele><time>2009-08-22T14:11:57Z</time></trkpt>
<trkpt lat="46.15021312" lon="5.97377627"><ele>372.648193</ele><time>2009-08-22T14:11:58Z</time></trkpt>
<trkpt lat="46.15025553" lon="5.97383729"><ele>372.648193</ele><time>2009-08-22T14:11:59Z</time></trkpt>
<trkpt lat="46.15029752" lon="5.97389714"><ele>372.648193</ele><time>2009-08-22T14:12:00Z</time></trkpt>
<trkpt lat="46.15033918" lon="5.97395548"><ele>372.648193</ele><time>2009-08-22T14:12:01Z</time></trkpt>
<trkpt lat="46.15037967" lon="5.97401289"><ele>372.648193</ele><time>2009-08-22T14:12:02Z</time></trkpt>
<trkpt lat="46.15041872" lon="5.97407140"><ele>372.648193</ele><time>2009-08-22T14:12:03Z</time></trkpt>
<trkpt lat="46.15045686" lon="5.97412915"><ele>372.648193</ele><time>2009-08-22T14:12:04Z</time></trkpt>
<trkpt lat="46.15049525" lon="5.97418682"><ele>373.128906</ele><time>2009-08-22T14:12:05Z</time></trkpt>
<trkpt lat="46.15053247" lon="5.97424163"><ele>373.128906</ele><time>2009-08-22T14:12:06Z</time></trkpt>
<trkpt lat="46.15056926" lon="5.97429419"><ele>373.128906</ele><time>2009-08-22T14:12:07Z</time></trkpt>
<trkpt lat="46.15060774" lon="5.97434532"><ele>373.128906</ele><time>2009-08-22T14:12:08Z</time></trkpt>
<trkpt lat="46.15064646" lon="5.97439704"><ele>373.128906</ele><time>2009-08-22T14:12:09Z</time></trkpt>
<trkpt lat="46.15068535" lon="5.97444615"><ele>373.128906</ele><time>2009-08-22T14:12:10Z</time></trkpt>
<trkpt lat="46.15072458" lon="5.97449737"><ele>373.128906</ele><time>2009-08-22T14:12:11Z</time></trkpt>
<trkpt lat="46.15076615" lon="5.97454456"><ele>373.609497</ele><time>2009-08-22T14:12:12Z</time></trkpt>
<trkpt lat="46.15081066" lon="5.97458445"><ele>373.609497</ele><time>2009-08-22T14:12:13Z</time></trkpt>
<trkpt lat="46.15085433" lon="5.97462016"><ele>373.609497</ele><time>2009-08-22T14:12:14Z</time></trkpt>
<trkpt lat="46.15089624" lon="5.97465587"><ele>373.609497</ele><time>2009-08-22T14:12:15Z</time></trkpt>
<trkpt lat="46.15094134" lon="5.97468303"><ele>373.609497</ele><time>2009-08-22T14:12:16Z</time></trkpt>
<trkpt lat="46.15099858" lon="5.97468797"><ele>374.090088</ele><time>2009-08-22T14:12:17Z</time></trkpt>
<trkpt lat="46.15104888" lon="5.97466165"><ele>374.570801</ele><time>2009-08-22T14:12:18Z</time></trkpt>
<trkpt lat="46.15109632" lon="5.97462477"><ele>375.051514</ele><time>2009-08-22T14:12:19Z</time></trkpt>
<trkpt lat="46.15113085" lon="5.97457968"><ele>375.051514</ele><time>2009-08-22T14:12:20Z</time></trkpt>
<trkpt lat="46.15116882" lon="5.97452519"><ele>375.051514</ele><time>2009-08-22T14:12:21Z</time></trkpt>
<trkpt lat="46.15121073" lon="5.97447918"><ele>375.051514</ele><time>2009-08-22T14:12:22Z</time></trkpt>
<trkpt lat="46.15125063" lon="5.97443023"><ele>375.532104</ele><time>2009-08-22T14:12:23Z</time></trkpt>
<trkpt lat="46.15129313" lon="5.97437952"><ele>375.532104</ele><time>2009-08-22T14:12:24Z</time></trkpt>
<trkpt lat="46.15133889" lon="5.97432923"><ele>375.051514</ele><time>2009-08-22T14:12:25Z</time></trkpt>
<trkpt lat="46.15138214" lon="5.97428463"><ele>375.532104</ele><time>2009-08-22T14:12:26Z</time></trkpt>
<trkpt lat="46.15142078" lon="5.97424784"><ele>375.532104</ele><time>2009-08-22T14:12:27Z</time></trkpt>
<trkpt lat="46.15146386" lon="5.97420735"><ele>375.532104</ele><time>2009-08-22T14:12:28Z</time></trkpt>
<trkpt lat="46.15150385" lon="5.97416620"><ele>375.532104</ele><time>2009-08-22T14:12:29Z</time></trkpt>
<trkpt lat="46.15154685" lon="5.97412948"><ele>375.532104</ele><time>2009-08-22T14:12:30Z</time></trkpt>
<trkpt lat="46.15159395" lon="5.97408925"><ele>375.532104</ele><time>2009-08-22T14:12:31Z</time></trkpt>
<trkpt lat="46.15163863" lon="5.97405639"><ele>376.012817</ele><time>2009-08-22T14:12:32Z</time></trkpt>
<trkpt lat="46.15168347" lon="5.97402932"><ele>376.012817</ele><time>2009-08-22T14:12:33Z</time></trkpt>
<trkpt lat="46.15173158" lon="5.97400359"><ele>376.012817</ele><time>2009-08-22T14:12:34Z</time></trkpt>
<trkpt lat="46.15177793" lon="5.97397517"><ele>376.012817</ele><time>2009-08-22T14:12:35Z</time></trkpt>
<trkpt lat="46.15182412" lon="5.97393855"><ele>376.012817</ele><time>2009-08-22T14:12:36Z</time></trkpt>
<trkpt lat="46.15187114" lon="5.97390125"><ele>376.012817</ele><time>2009-08-22T14:12:37Z</time></trkpt>
<trkpt lat="46.15191967" lon="5.97386546"><ele>376.012817</ele><time>2009-08-22T14:12:38Z</time></trkpt>
<trkpt lat="46.15196837" lon="5.97382916"><ele>375.532104</ele><time>2009-08-22T14:12:39Z</time></trkpt>
<trkpt lat="46.15201707" lon="5.97378993"><ele>375.532104</ele><time>2009-08-22T14:12:40Z</time></trkpt>
<trkpt lat="46.15206636" lon="5.97374953"><ele>375.532104</ele><time>2009-08-22T14:12:41Z</time></trkpt>
<trkpt lat="46.15211640" lon="5.97370905"><ele>375.051514</ele><time>2009-08-22T14:12:42Z</time></trkpt>
<trkpt lat="46.15216685" lon="5.97366865"><ele>375.051514</ele><time>2009-08-22T14:12:43Z</time></trkpt>
<trkpt lat="46.15221916" lon="5.97363235"><ele>374.570801</ele><time>2009-08-22T14:12:44Z</time></trkpt>
<trkpt lat="46.15227188" lon="5.97360117"><ele>374.090088</ele><time>2009-08-22T14:12:45Z</time></trkpt>
<trkpt lat="46.15232410" lon="5.97357117"><ele>374.090088</ele><time>2009-08-22T14:12:46Z</time></trkpt>
<trkpt lat="46.15237565" lon="5.97353814"><ele>373.609497</ele><time>2009-08-22T14:12:47Z</time></trkpt>
<trkpt lat="46.15242753" lon="5.97350336"><ele>373.609497</ele><time>2009-08-22T14:12:48Z</time></trkpt>
<trkpt lat="46.15247824" lon="5.97347050"><ele>373.609497</ele><time>2009-08-22T14:12:49Z</time></trkpt>
<trkpt lat="46.15252853" lon="5.97343697"><ele>373.128906</ele><time>2009-08-22T14:12:50Z</time></trkpt>
<trkpt lat="46.15257866" lon="5.97340353"><ele>373.609497</ele><time>2009-08-22T14:12:51Z</time></trkpt>
<trkpt lat="46.15262769" lon="5.97337134"><ele>373.128906</ele><time>2009-08-22T14:12:52Z</time></trkpt>
<trkpt lat="46.15267689" lon="5.97334016"><ele>373.128906</ele><time>2009-08-22T14:12:53Z</time></trkpt>
<trkpt lat="46.15272568" lon="5.97330957"><ele>373.128906</ele><time>2009-08-22T14:12:54Z</time></trkpt>
<trkpt lat="46.15277404" lon="5.97327864"><ele>373.128906</ele><time>2009-08-22T14:12:55Z</time></trkpt>
<trkpt lat="46.15282182" lon="5.97324779"><ele>373.128906</ele><time>2009-08-22T14:12:56Z</time></trkpt>
<trkpt lat="46.15286934" lon="5.97321619"><ele>373.128906</ele><time>2009-08-22T14:12:57Z</time></trkpt>
<trkpt lat="46.15291645" lon="5.97318107"><ele>373.128906</ele><time>2009-08-22T14:12:58Z</time></trkpt>
<trkpt lat="46.15296213" lon="5.97314092"><ele>372.648193</ele><time>2009-08-22T14:12:59Z</time></trkpt>
<trkpt lat="46.15300706" lon="5.97309650"><ele>372.648193</ele><time>2009-08-22T14:13:00Z</time></trkpt>
<trkpt lat="46.15305332" lon="5.97305182"><ele>372.16748</ele><time>2009-08-22T14:13:01Z</time></trkpt>
<trkpt lat="46.15309993" lon="5.97300648"><ele>372.16748</ele><time>2009-08-22T14:13:02Z</time></trkpt>
<trkpt lat="46.15314519" lon="5.97295560"><ele>371.68689</ele><time>2009-08-22T14:13:03Z</time></trkpt>
<trkpt lat="46.15318819" lon="5.97289894"><ele>371.68689</ele><time>2009-08-22T14:13:04Z</time></trkpt>
<trkpt lat="46.15322960" lon="5.97283649"><ele>371.206299</ele><time>2009-08-22T14:13:05Z</time></trkpt>
<trkpt lat="46.15326807" lon="5.97277145"><ele>371.206299</ele><time>2009-08-22T14:13:06Z</time></trkpt>
<trkpt lat="46.15330579" lon="5.97270716"><ele>371.206299</ele><time>2009-08-22T14:13:07Z</time></trkpt>
<trkpt lat="46.15334493" lon="5.97264622"><ele>370.725586</ele><time>2009-08-22T14:13:08Z</time></trkpt>
<trkpt lat="46.15338516" lon="5.97258805"><ele>370.244873</ele><time>2009-08-22T14:13:09Z</time></trkpt>
<trkpt lat="46.15342339" lon="5.97252955"><ele>370.244873</ele><time>2009-08-22T14:13:10Z</time></trkpt>
<trkpt lat="46.15345909" lon="5.97247255"><ele>369.764282</ele><time>2009-08-22T14:13:11Z</time></trkpt>
<trkpt lat="46.15349824" lon="5.97242947"><ele>369.764282</ele><time>2009-08-22T14:13:12Z</time></trkpt>
<trkpt lat="46.15354199" lon="5.97241245"><ele>369.764282</ele><time>2009-08-22T14:13:13Z</time></trkpt>
<trkpt lat="46.15358616" lon="5.97242570"><ele>369.764282</ele><time>2009-08-22T14:13:14Z</time></trkpt>
<trkpt lat="46.15362816" lon="5.97245847"><ele>369.764282</ele><time>2009-08-22T14:13:15Z</time></trkpt>
<trkpt lat="46.15366872" lon="5.97249853"><ele>369.764282</ele><time>2009-08-22T14:13:16Z</time></trkpt>
<trkpt lat="46.15371063" lon="5.97253944"><ele>370.244873</ele><time>2009-08-22T14:13:17Z</time></trkpt>
<trkpt lat="46.15375363" lon="5.97258219"><ele>370.244873</ele><time>2009-08-22T14:13:18Z</time></trkpt>
<trkpt lat="46.15379688" lon="5.97262770"><ele>370.244873</ele><time>2009-08-22T14:13:19Z</time></trkpt>
<trkpt lat="46.15383997" lon="5.97267338"><ele>370.725586</ele><time>2009-08-22T14:13:20Z</time></trkpt>
<trkpt lat="46.15388389" lon="5.97271755"><ele>370.725586</ele><time>2009-08-22T14:13:21Z</time></trkpt>
<trkpt lat="46.15392923" lon="5.97276106"><ele>371.206299</ele><time>2009-08-22T14:13:22Z</time></trkpt>
<trkpt lat="46.15397483" lon="5.97280540"><ele>371.206299</ele><time>2009-08-22T14:13:23Z</time></trkpt>
<trkpt lat="46.15402018" lon="5.97284965"><ele>371.68689</ele><time>2009-08-22T14:13:24Z</time></trkpt>
<trkpt lat="46.15406552" lon="5.97289315"><ele>371.68689</ele><time>2009-08-22T14:13:25Z</time></trkpt>
<trkpt lat="46.15411154" lon="5.97293615"><ele>371.68689</ele><time>2009-08-22T14:13:26Z</time></trkpt>
<trkpt lat="46.15415705" lon="5.97298108"><ele>371.68689</ele><time>2009-08-22T14:13:27Z</time></trkpt>
<trkpt lat="46.15420240" lon="5.97302592"><ele>372.16748</ele><time>2009-08-22T14:13:28Z</time></trkpt>
<trkpt lat="46.15424716" lon="5.97307186"><ele>372.16748</ele><time>2009-08-22T14:13:29Z</time></trkpt>
<trkpt lat="46.15429225" lon="5.97311762"><ele>372.16748</ele><time>2009-08-22T14:13:30Z</time></trkpt>
<trkpt lat="46.15433768" lon="5.97316163"><ele>372.648193</ele><time>2009-08-22T14:13:31Z</time></trkpt>
<trkpt lat="46.15438320" lon="5.97320387"><ele>372.648193</ele><time>2009-08-22T14:13:32Z</time></trkpt>
<trkpt lat="46.15442947" lon="5.97324260"><ele>372.648193</ele><time>2009-08-22T14:13:33Z</time></trkpt>
<trkpt lat="46.15447699" lon="5.97327822"><ele>373.128906</ele><time>2009-08-22T14:13:34Z</time></trkpt>
<trkpt lat="46.15452443" lon="5.97331225"><ele>373.128906</ele><time>2009-08-22T14:13:35Z</time></trkpt>
<trkpt lat="46.15457129" lon="5.97334368"><ele>373.609497</ele><time>2009-08-22T14:13:36Z</time></trkpt>
<trkpt lat="46.15461739" lon="5.97337352"><ele>373.609497</ele><time>2009-08-22T14:13:37Z</time></trkpt>
<trkpt lat="46.15466223" lon="5.97340378"><ele>373.609497</ele><time>2009-08-22T14:13:38Z</time></trkpt>
<trkpt lat="46.15470666" lon="5.97343379"><ele>374.090088</ele><time>2009-08-22T14:13:39Z</time></trkpt>
<trkpt lat="46.15475183" lon="5.97346346"><ele>374.090088</ele><time>2009-08-22T14:13:40Z</time></trkpt>
<trkpt lat="46.15479726" lon="5.97349539"><ele>374.090088</ele><time>2009-08-22T14:13:41Z</time></trkpt>
<trkpt lat="46.15484303" lon="5.97352842"><ele>374.090088</ele><time>2009-08-22T14:13:42Z</time></trkpt>
<trkpt lat="46.15488837" lon="5.97356387"><ele>374.570801</ele><time>2009-08-22T14:13:43Z</time></trkpt>
<trkpt lat="46.15493339" lon="5.97360117"><ele>374.570801</ele><time>2009-08-22T14:13:44Z</time></trkpt>
<trkpt lat="46.15497865" lon="5.97363747"><ele>374.570801</ele><time>2009-08-22T14:13:45Z</time></trkpt>
<trkpt lat="46.15502458" lon="5.97367208"><ele>374.570801</ele><time>2009-08-22T14:13:46Z</time></trkpt>
<trkpt lat="46.15507026" lon="5.97370528"><ele>374.570801</ele><time>2009-08-22T14:13:47Z</time></trkpt>
<trkpt lat="46.15511502" lon="5.97373847"><ele>374.570801</ele><time>2009-08-22T14:13:48Z</time></trkpt>
<trkpt lat="46.15515852" lon="5.97377334"><ele>374.570801</ele><time>2009-08-22T14:13:49Z</time></trkpt>
<trkpt lat="46.15520219" lon="5.97380586"><ele>374.570801</ele><time>2009-08-22T14:13:50Z</time></trkpt>
<trkpt lat="46.15524653" lon="5.97383520"><ele>374.570801</ele><time>2009-08-22T14:13:51Z</time></trkpt>
<trkpt lat="46.15529196" lon="5.97386554"><ele>374.570801</ele><time>2009-08-22T14:13:52Z</time></trkpt>
<trkpt lat="46.15533848" lon="5.97389664"><ele>375.051514</ele><time>2009-08-22T14:13:53Z</time></trkpt>
<trkpt lat="46.15538584" lon="5.97392740"><ele>375.051514</ele><time>2009-08-22T14:13:54Z</time></trkpt>
<trkpt lat="46.15543429" lon="5.97395590"><ele>375.051514</ele><time>2009-08-22T14:13:55Z</time></trkpt>
<trkpt lat="46.15548215" lon="5.97398238"><ele>375.051514</ele><time>2009-08-22T14:13:56Z</time></trkpt>
<trkpt lat="46.15553043" lon="5.97400736"><ele>375.051514</ele><time>2009-08-22T14:13:57Z</time></trkpt>
<trkpt lat="46.15557930" lon="5.97403142"><ele>375.051514</ele><time>2009-08-22T14:13:58Z</time></trkpt>
<trkpt lat="46.15562783" lon="5.97405723"><ele>375.051514</ele><time>2009-08-22T14:13:59Z</time></trkpt>
<trkpt lat="46.15567527" lon="5.97408749"><ele>375.051514</ele><time>2009-08-22T14:14:00Z</time></trkpt>
<trkpt lat="46.15572179" lon="5.97412043"><ele>375.051514</ele><time>2009-08-22T14:14:01Z</time></trkpt>
<trkpt lat="46.15576705" lon="5.97415555"><ele>375.051514</ele><time>2009-08-22T14:14:02Z</time></trkpt>
<trkpt lat="46.15581047" lon="5.97419394"><ele>375.051514</ele><time>2009-08-22T14:14:03Z</time></trkpt>
<trkpt lat="46.15585087" lon="5.97423728"><ele>375.051514</ele><time>2009-08-22T14:14:04Z</time></trkpt>
<trkpt lat="46.15588884" lon="5.97428430"><ele>375.051514</ele><time>2009-08-22T14:14:05Z</time></trkpt>
<trkpt lat="46.15592647" lon="5.97433216"><ele>375.051514</ele><time>2009-08-22T14:14:06Z</time></trkpt>
<trkpt lat="46.15596478" lon="5.97437834"><ele>375.051514</ele><time>2009-08-22T14:14:07Z</time></trkpt>
<trkpt lat="46.15600669" lon="5.97441405"><ele>375.051514</ele><time>2009-08-22T14:14:08Z</time></trkpt>
<trkpt lat="46.15605388" lon="5.97443886"><ele>374.570801</ele><time>2009-08-22T14:14:09Z</time></trkpt>
<trkpt lat="46.15610333" lon="5.97446484"><ele>374.570801</ele><time>2009-08-22T14:14:10Z</time></trkpt>
<trkpt lat="46.15615278" lon="5.97449485"><ele>374.570801</ele><time>2009-08-22T14:14:11Z</time></trkpt>
<trkpt lat="46.15620073" lon="5.97452394"><ele>374.570801</ele><time>2009-08-22T14:14:12Z</time></trkpt>
<trkpt lat="46.15624792" lon="5.97455277"><ele>374.570801</ele><time>2009-08-22T14:14:13Z</time></trkpt>
<trkpt lat="46.15629318" lon="5.97458554"><ele>374.570801</ele><time>2009-08-22T14:14:14Z</time></trkpt>
<trkpt lat="46.15633660" lon="5.97462284"><ele>374.570801</ele><time>2009-08-22T14:14:15Z</time></trkpt>
<trkpt lat="46.15637834" lon="5.97466316"><ele>374.570801</ele><time>2009-08-22T14:14:16Z</time></trkpt>
<trkpt lat="46.15641816" lon="5.97470339"><ele>375.051514</ele><time>2009-08-22T14:14:17Z</time></trkpt>
<trkpt lat="46.15645856" lon="5.97473918"><ele>375.051514</ele><time>2009-08-22T14:14:18Z</time></trkpt>
<trkpt lat="46.15649963" lon="5.97476793"><ele>375.532104</ele><time>2009-08-22T14:14:19Z</time></trkpt>
<trkpt lat="46.15654078" lon="5.97479350"><ele>376.012817</ele><time>2009-08-22T14:14:20Z</time></trkpt>
<trkpt lat="46.15658144" lon="5.97482057"><ele>376.012817</ele><time>2009-08-22T14:14:21Z</time></trkpt>
<trkpt lat="46.15662217" lon="5.97485108"><ele>376.012817</ele><time>2009-08-22T14:14:22Z</time></trkpt>
<trkpt lat="46.15666215" lon="5.97488578"><ele>376.49353</ele><time>2009-08-22T14:14:23Z</time></trkpt>
<trkpt lat="46.15669987" lon="5.97492266"><ele>376.49353</ele><time>2009-08-22T14:14:24Z</time></trkpt>
<trkpt lat="46.15673625" lon="5.97495988"><ele>376.49353</ele><time>2009-08-22T14:14:25Z</time></trkpt>
<trkpt lat="46.15677464" lon="5.97499207"><ele>376.49353</ele><time>2009-08-22T14:14:26Z</time></trkpt>
<trkpt lat="46.15681504" lon="5.97501998"><ele>376.49353</ele><time>2009-08-22T14:14:27Z</time></trkpt>
<trkpt lat="46.15685452" lon="5.97504538"><ele>376.974243</ele><time>2009-08-22T14:14:28Z</time></trkpt>
<trkpt lat="46.15689299" lon="5.97507664"><ele>376.974243</ele><time>2009-08-22T14:14:29Z</time></trkpt>
<trkpt lat="46.15693088" lon="5.97511319"><ele>376.974243</ele><time>2009-08-22T14:14:30Z</time></trkpt>
<trkpt lat="46.15697069" lon="5.97514847"><ele>376.974243</ele><time>2009-08-22T14:14:31Z</time></trkpt>
<trkpt lat="46.15701159" lon="5.97518368"><ele>377.454834</ele><time>2009-08-22T14:14:32Z</time></trkpt>
<trkpt lat="46.15705325" lon="5.97521813"><ele>377.454834</ele><time>2009-08-22T14:14:33Z</time></trkpt>
<trkpt lat="46.15709709" lon="5.97524503"><ele>377.454834</ele><time>2009-08-22T14:14:34Z</time></trkpt>
<trkpt lat="46.15714336" lon="5.97526372"><ele>377.454834</ele><time>2009-08-22T14:14:35Z</time></trkpt>
<trkpt lat="46.15718996" lon="5.97528493"><ele>377.454834</ele><time>2009-08-22T14:14:36Z</time></trkpt>
<trkpt lat="46.15723573" lon="5.97531075"><ele>377.454834</ele><time>2009-08-22T14:14:37Z</time></trkpt>
<trkpt lat="46.15728107" lon="5.97533723"><ele>377.454834</ele><time>2009-08-22T14:14:38Z</time></trkpt>
<trkpt lat="46.15732516" lon="5.97536598"><ele>377.454834</ele><time>2009-08-22T14:14:39Z</time></trkpt>
<trkpt lat="46.15736607" lon="5.97540169"><ele>377.454834</ele><time>2009-08-22T14:14:40Z</time></trkpt>
<trkpt lat="46.15740119" lon="5.97544829"><ele>377.454834</ele><time>2009-08-22T14:14:41Z</time></trkpt>
<trkpt lat="46.15743178" lon="5.97550152"><ele>377.454834</ele><time>2009-08-22T14:14:42Z</time></trkpt>
<trkpt lat="46.15746179" lon="5.97555357"><ele>377.454834</ele><time>2009-08-22T14:14:43Z</time></trkpt>
<trkpt lat="46.15749548" lon="5.97559883"><ele>377.454834</ele><time>2009-08-22T14:14:44Z</time></trkpt>
<trkpt lat="46.15753345" lon="5.97563278"><ele>377.454834</ele><time>2009-08-22T14:14:45Z</time></trkpt>
<trkpt lat="46.15757503" lon="5.97565684"><ele>377.454834</ele><time>2009-08-22T14:14:46Z</time></trkpt>
<trkpt lat="46.15762046" lon="5.97567695"><ele>377.935425</ele><time>2009-08-22T14:14:47Z</time></trkpt>
<trkpt lat="46.15766304" lon="5.97570185"><ele>377.454834</ele><time>2009-08-22T14:14:48Z</time></trkpt>
<trkpt lat="46.15770109" lon="5.97572909"><ele>377.935425</ele><time>2009-08-22T14:14:49Z</time></trkpt>
<trkpt lat="46.15773453" lon="5.97576463"><ele>378.416138</ele><time>2009-08-22T14:14:50Z</time></trkpt>
<trkpt lat="46.15776999" lon="5.97580419"><ele>378.416138</ele><time>2009-08-22T14:14:51Z</time></trkpt>
<trkpt lat="46.15780469" lon="5.97584677"><ele>378.416138</ele><time>2009-08-22T14:14:52Z</time></trkpt>
<trkpt lat="46.15784006" lon="5.97588725"><ele>378.896851</ele><time>2009-08-22T14:14:53Z</time></trkpt>
<trkpt lat="46.15787728" lon="5.97592145"><ele>379.377441</ele><time>2009-08-22T14:14:54Z</time></trkpt>
<trkpt lat="46.15791349" lon="5.97595716"><ele>379.377441</ele><time>2009-08-22T14:14:55Z</time></trkpt>
<trkpt lat="46.15794475" lon="5.97600259"><ele>379.858032</ele><time>2009-08-22T14:14:56Z</time></trkpt>
<trkpt lat="46.15797342" lon="5.97605238"><ele>379.858032</ele><time>2009-08-22T14:14:57Z</time></trkpt>
<trkpt lat="46.15800393" lon="5.97610057"><ele>379.858032</ele><time>2009-08-22T14:14:58Z</time></trkpt>
<trkpt lat="46.15803503" lon="5.97614852"><ele>379.858032</ele><time>2009-08-22T14:14:59Z</time></trkpt>
<trkpt lat="46.15806445" lon="5.97619990"><ele>380.338745</ele><time>2009-08-22T14:15:00Z</time></trkpt>
<trkpt lat="46.15809194" lon="5.97625346"><ele>380.338745</ele><time>2009-08-22T14:15:01Z</time></trkpt>
<trkpt lat="46.15811465" lon="5.97631004"><ele>380.338745</ele><time>2009-08-22T14:15:02Z</time></trkpt>
<trkpt lat="46.15812949" lon="5.97637114"><ele>379.858032</ele><time>2009-08-22T14:15:03Z</time></trkpt>
<trkpt lat="46.15813519" lon="5.97643585"><ele>379.858032</ele><time>2009-08-22T14:15:04Z</time></trkpt>
<trkpt lat="46.15814005" lon="5.97650366"><ele>379.858032</ele><time>2009-08-22T14:15:05Z</time></trkpt>
<trkpt lat="46.15815162" lon="5.97657189"><ele>379.858032</ele><time>2009-08-22T14:15:06Z</time></trkpt>
<trkpt lat="46.15816855" lon="5.97663919"><ele>379.858032</ele><time>2009-08-22T14:15:07Z</time></trkpt>
<trkpt lat="46.15818523" lon="5.97670742"><ele>379.377441</ele><time>2009-08-22T14:15:08Z</time></trkpt>
<trkpt lat="46.15819898" lon="5.97677632"><ele>379.377441</ele><time>2009-08-22T14:15:09Z</time></trkpt>
<trkpt lat="46.15820962" lon="5.97684614"><ele>379.377441</ele><time>2009-08-22T14:15:10Z</time></trkpt>
<trkpt lat="46.15821876" lon="5.97691479"><ele>379.377441</ele><time>2009-08-22T14:15:11Z</time></trkpt>
<trkpt lat="46.15822932" lon="5.97698109"><ele>379.377441</ele><time>2009-08-22T14:15:12Z</time></trkpt>
<trkpt lat="46.15824172" lon="5.97704555"><ele>379.377441</ele><time>2009-08-22T14:15:13Z</time></trkpt>
<trkpt lat="46.15825430" lon="5.97710917"><ele>379.858032</ele><time>2009-08-22T14:15:14Z</time></trkpt>
<trkpt lat="46.15826486" lon="5.97717253"><ele>379.858032</ele><time>2009-08-22T14:15:15Z</time></trkpt>
<trkpt lat="46.15827232" lon="5.97723515"><ele>379.858032</ele><time>2009-08-22T14:15:16Z</time></trkpt>
<trkpt lat="46.15827919" lon="5.97729575"><ele>380.338745</ele><time>2009-08-22T14:15:17Z</time></trkpt>
<trkpt lat="46.15828933" lon="5.97735677"><ele>380.338745</ele><time>2009-08-22T14:15:18Z</time></trkpt>
<trkpt lat="46.15830123" lon="5.97741846"><ele>380.338745</ele><time>2009-08-22T14:15:19Z</time></trkpt>
<trkpt lat="46.15831138" lon="5.97748183"><ele>380.338745</ele><time>2009-08-22T14:15:20Z</time></trkpt>
<trkpt lat="46.15831892" lon="5.97754746"><ele>380.338745</ele><time>2009-08-22T14:15:21Z</time></trkpt>
<trkpt lat="46.15832579" lon="5.97761510"><ele>380.819458</ele><time>2009-08-22T14:15:22Z</time></trkpt>
<trkpt lat="46.15833267" lon="5.97768199"><ele>380.819458</ele><time>2009-08-22T14:15:23Z</time></trkpt>
<trkpt lat="46.15834004" lon="5.97774753"><ele>380.819458</ele><time>2009-08-22T14:15:24Z</time></trkpt>
<trkpt lat="46.15834759" lon="5.97781233"><ele>380.819458</ele><time>2009-08-22T14:15:25Z</time></trkpt>
<trkpt lat="46.15835429" lon="5.97787603"><ele>380.819458</ele><time>2009-08-22T14:15:26Z</time></trkpt>
<trkpt lat="46.15835907" lon="5.97793872"><ele>381.300049</ele><time>2009-08-22T14:15:27Z</time></trkpt>
<trkpt lat="46.15836175" lon="5.97800067"><ele>381.300049</ele><time>2009-08-22T14:15:28Z</time></trkpt>
<trkpt lat="46.15836376" lon="5.97806169"><ele>381.300049</ele><time>2009-08-22T14:15:29Z</time></trkpt>
<trkpt lat="46.15836619" lon="5.97812162"><ele>381.300049</ele><time>2009-08-22T14:15:30Z</time></trkpt>
<trkpt lat="46.15836904" lon="5.97818079"><ele>381.78064</ele><time>2009-08-22T14:15:31Z</time></trkpt>
<trkpt lat="46.15837223" lon="5.97823855"><ele>381.78064</ele><time>2009-08-22T14:15:32Z</time></trkpt>
<trkpt lat="46.15837525" lon="5.97829588"><ele>381.78064</ele><time>2009-08-22T14:15:33Z</time></trkpt>
<trkpt lat="46.15837835" lon="5.97835355"><ele>382.261353</ele><time>2009-08-22T14:15:34Z</time></trkpt>
<trkpt lat="46.15838120" lon="5.97841272"><ele>382.261353</ele><time>2009-08-22T14:15:35Z</time></trkpt>
<trkpt lat="46.15838338" lon="5.97847357"><ele>382.261353</ele><time>2009-08-22T14:15:36Z</time></trkpt>
<trkpt lat="46.15838489" lon="5.97853418"><ele>382.261353</ele><time>2009-08-22T14:15:37Z</time></trkpt>
<trkpt lat="46.15838690" lon="5.97859335"><ele>382.742065</ele><time>2009-08-22T14:15:38Z</time></trkpt>
<trkpt lat="46.15839075" lon="5.97865018"><ele>382.742065</ele><time>2009-08-22T14:15:39Z</time></trkpt>
<trkpt lat="46.15839629" lon="5.97870450"><ele>382.742065</ele><time>2009-08-22T14:15:40Z</time></trkpt>
<trkpt lat="46.15840324" lon="5.97875697"><ele>382.742065</ele><time>2009-08-22T14:15:41Z</time></trkpt>
<trkpt lat="46.15841162" lon="5.97880919"><ele>383.222656</ele><time>2009-08-22T14:15:42Z</time></trkpt>
<trkpt lat="46.15842076" lon="5.97886006"><ele>383.222656</ele><time>2009-08-22T14:15:43Z</time></trkpt>
<trkpt lat="46.15842872" lon="5.97891128"><ele>383.222656</ele><time>2009-08-22T14:15:44Z</time></trkpt>
<trkpt lat="46.15843166" lon="5.97896383"><ele>383.222656</ele><time>2009-08-22T14:15:45Z</time></trkpt>
<trkpt lat="46.15842906" lon="5.97901639"><ele>382.742065</ele><time>2009-08-22T14:15:46Z</time></trkpt>
<trkpt lat="46.15842294" lon="5.97906919"><ele>382.742065</ele><time>2009-08-22T14:15:47Z</time></trkpt>
<trkpt lat="46.15841397" lon="5.97912032"><ele>382.742065</ele><time>2009-08-22T14:15:48Z</time></trkpt>
<trkpt lat="46.15840173" lon="5.97916810"><ele>382.742065</ele><time>2009-08-22T14:15:49Z</time></trkpt>
<trkpt lat="46.15838606" lon="5.97921579"><ele>382.742065</ele><time>2009-08-22T14:15:50Z</time></trkpt>
<trkpt lat="46.15837064" lon="5.97926256"><ele>382.742065</ele><time>2009-08-22T14:15:51Z</time></trkpt>
<trkpt lat="46.15835454" lon="5.97930757"><ele>383.222656</ele><time>2009-08-22T14:15:52Z</time></trkpt>
<trkpt lat="46.15833837" lon="5.97935393"><ele>383.222656</ele><time>2009-08-22T14:15:53Z</time></trkpt>
<trkpt lat="46.15832252" lon="5.97940019"><ele>383.222656</ele><time>2009-08-22T14:15:54Z</time></trkpt>
<trkpt lat="46.15830610" lon="5.97944378"><ele>383.222656</ele><time>2009-08-22T14:15:55Z</time></trkpt>
<trkpt lat="46.15828916" lon="5.97948913"><ele>383.703247</ele><time>2009-08-22T14:15:56Z</time></trkpt>
<trkpt lat="46.15827274" lon="5.97953414"><ele>383.703247</ele><time>2009-08-22T14:15:57Z</time></trkpt>
<trkpt lat="46.15825882" lon="5.97958233"><ele>383.222656</ele><time>2009-08-22T14:15:58Z</time></trkpt>
<trkpt lat="46.15824583" lon="5.97962843"><ele>383.222656</ele><time>2009-08-22T14:15:59Z</time></trkpt>
<trkpt lat="46.15823317" lon="5.97967302"><ele>383.703247</ele><time>2009-08-22T14:16:00Z</time></trkpt>
<trkpt lat="46.15822127" lon="5.97971334"><ele>383.703247</ele><time>2009-08-22T14:16:01Z</time></trkpt>
<trkpt lat="46.15820853" lon="5.97975659"><ele>384.184082</ele><time>2009-08-22T14:16:02Z</time></trkpt>
<trkpt lat="46.15819755" lon="5.97980294"><ele>384.184082</ele><time>2009-08-22T14:16:03Z</time></trkpt>
<trkpt lat="46.15818347" lon="5.97984930"><ele>383.703247</ele><time>2009-08-22T14:16:04Z</time></trkpt>
<trkpt lat="46.15816830" lon="5.97990009"><ele>383.703247</ele><time>2009-08-22T14:16:05Z</time></trkpt>
<trkpt lat="46.15815346" lon="5.97994938"><ele>383.703247</ele><time>2009-08-22T14:16:06Z</time></trkpt>
<trkpt lat="46.15813670" lon="5.98000025"><ele>383.222656</ele><time>2009-08-22T14:16:07Z</time></trkpt>
<trkpt lat="46.15811725" lon="5.98004426"><ele>383.222656</ele><time>2009-08-22T14:16:08Z</time></trkpt>
<trkpt lat="46.15809605" lon="5.98009036"><ele>383.703247</ele><time>2009-08-22T14:16:09Z</time></trkpt>
<trkpt lat="46.15808129" lon="5.98013964"><ele>383.703247</ele><time>2009-08-22T14:16:10Z</time></trkpt>
<trkpt lat="46.15806813" lon="5.98018616"><ele>383.222656</ele><time>2009-08-22T14:16:11Z</time></trkpt>
<trkpt lat="46.15805338" lon="5.98023495"><ele>383.703247</ele><time>2009-08-22T14:16:12Z</time></trkpt>
<trkpt lat="46.15803964" lon="5.98028423"><ele>384.184082</ele><time>2009-08-22T14:16:13Z</time></trkpt>
<trkpt lat="46.15802555" lon="5.98033067"><ele>384.184082</ele><time>2009-08-22T14:16:14Z</time></trkpt>
<trkpt lat="46.15800980" lon="5.98037719"><ele>384.664795</ele><time>2009-08-22T14:16:15Z</time></trkpt>
<trkpt lat="46.15799613" lon="5.98042714"><ele>384.664795</ele><time>2009-08-22T14:16:16Z</time></trkpt>
<trkpt lat="46.15798180" lon="5.98047693"><ele>384.664795</ele><time>2009-08-22T14:16:17Z</time></trkpt>
<trkpt lat="46.15796629" lon="5.98052303"><ele>385.145386</ele><time>2009-08-22T14:16:18Z</time></trkpt>
<trkpt lat="46.15795297" lon="5.98056276"><ele>385.145386</ele><time>2009-08-22T14:16:19Z</time></trkpt>
<trkpt lat="46.15794232" lon="5.98060216"><ele>385.625977</ele><time>2009-08-22T14:16:20Z</time></trkpt>
<trkpt lat="46.15793285" lon="5.98064885"><ele>385.625977</ele><time>2009-08-22T14:16:21Z</time></trkpt>
<trkpt lat="46.15791902" lon="5.98070006"><ele>386.587402</ele><time>2009-08-22T14:16:22Z</time></trkpt>
<trkpt lat="46.15790687" lon="5.98074926"><ele>386.587402</ele><time>2009-08-22T14:16:23Z</time></trkpt>
<trkpt lat="46.15789396" lon="5.98079519"><ele>386.587402</ele><time>2009-08-22T14:16:24Z</time></trkpt>
<trkpt lat="46.15787627" lon="5.98083652"><ele>386.587402</ele><time>2009-08-22T14:16:25Z</time></trkpt>
<trkpt lat="46.15785490" lon="5.98087524"><ele>386.106689</ele><time>2009-08-22T14:16:26Z</time></trkpt>
<trkpt lat="46.15783160" lon="5.98091070"><ele>385.625977</ele><time>2009-08-22T14:16:27Z</time></trkpt>
<trkpt lat="46.15780838" lon="5.98095059"><ele>385.145386</ele><time>2009-08-22T14:16:28Z</time></trkpt>
<trkpt lat="46.15778223" lon="5.98098915"><ele>384.664795</ele><time>2009-08-22T14:16:29Z</time></trkpt>
<trkpt lat="46.15774820" lon="5.98102427"><ele>384.664795</ele><time>2009-08-22T14:16:30Z</time></trkpt>
<trkpt lat="46.15771215" lon="5.98105126"><ele>384.664795</ele><time>2009-08-22T14:16:31Z</time></trkpt>
<trkpt lat="46.15767435" lon="5.98107356"><ele>384.664795</ele><time>2009-08-22T14:16:32Z</time></trkpt>
<trkpt lat="46.15763437" lon="5.98109225"><ele>384.664795</ele><time>2009-08-22T14:16:33Z</time></trkpt>
<trkpt lat="46.15759414" lon="5.98110423"><ele>384.664795</ele><time>2009-08-22T14:16:34Z</time></trkpt>
<trkpt lat="46.15755323" lon="5.98111069"><ele>384.184082</ele><time>2009-08-22T14:16:35Z</time></trkpt>
<trkpt lat="46.15751250" lon="5.98111454"><ele>384.184082</ele><time>2009-08-22T14:16:36Z</time></trkpt>
<trkpt lat="46.15747235" lon="5.98111563"><ele>384.184082</ele><time>2009-08-22T14:16:37Z</time></trkpt>
<trkpt lat="46.15743237" lon="5.98111345"><ele>384.184082</ele><time>2009-08-22T14:16:38Z</time></trkpt>
<trkpt lat="46.15739272" lon="5.98110868"><ele>384.184082</ele><time>2009-08-22T14:16:39Z</time></trkpt>
<trkpt lat="46.15735374" lon="5.98110088"><ele>383.703247</ele><time>2009-08-22T14:16:40Z</time></trkpt>
<trkpt lat="46.15731494" lon="5.98109124"><ele>383.703247</ele><time>2009-08-22T14:16:41Z</time></trkpt>
<trkpt lat="46.15727655" lon="5.98108009"><ele>383.703247</ele><time>2009-08-22T14:16:42Z</time></trkpt>
<trkpt lat="46.15723866" lon="5.98106677"><ele>383.703247</ele><time>2009-08-22T14:16:43Z</time></trkpt>
<trkpt lat="46.15720119" lon="5.98105243"><ele>383.703247</ele><time>2009-08-22T14:16:44Z</time></trkpt>
<trkpt lat="46.15716406" lon="5.98103768"><ele>383.703247</ele><time>2009-08-22T14:16:45Z</time></trkpt>
<trkpt lat="46.15712718" lon="5.98102067"><ele>383.703247</ele><time>2009-08-22T14:16:46Z</time></trkpt>
<trkpt lat="46.15709064" lon="5.98100055"><ele>383.703247</ele><time>2009-08-22T14:16:47Z</time></trkpt>
<trkpt lat="46.15705359" lon="5.98097985"><ele>383.222656</ele><time>2009-08-22T14:16:48Z</time></trkpt>
<trkpt lat="46.15701629" lon="5.98096107"><ele>383.222656</ele><time>2009-08-22T14:16:49Z</time></trkpt>
<trkpt lat="46.15697857" lon="5.98094473"><ele>383.222656</ele><time>2009-08-22T14:16:50Z</time></trkpt>
<trkpt lat="46.15694077" lon="5.98092696"><ele>383.222656</ele><time>2009-08-22T14:16:51Z</time></trkpt>
<trkpt lat="46.15690514" lon="5.98090625"><ele>383.222656</ele><time>2009-08-22T14:16:52Z</time></trkpt>
<trkpt lat="46.15686952" lon="5.98088496"><ele>383.222656</ele><time>2009-08-22T14:16:53Z</time></trkpt>
<trkpt lat="46.15683205" lon="5.98086627"><ele>383.222656</ele><time>2009-08-22T14:16:54Z</time></trkpt>
<trkpt lat="46.15679274" lon="5.98085269"><ele>383.222656</ele><time>2009-08-22T14:16:55Z</time></trkpt>
<trkpt lat="46.15675285" lon="5.98084926"><ele>383.222656</ele><time>2009-08-22T14:16:56Z</time></trkpt>
<trkpt lat="46.15671488" lon="5.98086049"><ele>383.222656</ele><time>2009-08-22T14:16:57Z</time></trkpt>
<trkpt lat="46.15668386" lon="5.98089016"><ele>383.703247</ele><time>2009-08-22T14:16:58Z</time></trkpt>
<trkpt lat="46.15666173" lon="5.98093509"><ele>383.703247</ele><time>2009-08-22T14:16:59Z</time></trkpt>
<trkpt lat="46.15664648" lon="5.98098764"><ele>384.184082</ele><time>2009-08-22T14:17:00Z</time></trkpt>
<trkpt lat="46.15663407" lon="5.98104238"><ele>384.184082</ele><time>2009-08-22T14:17:01Z</time></trkpt>
<trkpt lat="46.15662125" lon="5.98109778"><ele>384.184082</ele><time>2009-08-22T14:17:02Z</time></trkpt>
<trkpt lat="46.15661446" lon="5.98115595"><ele>384.664795</ele><time>2009-08-22T14:17:03Z</time></trkpt>
<trkpt lat="46.15661748" lon="5.98121638"><ele>384.664795</ele><time>2009-08-22T14:17:04Z</time></trkpt>
<trkpt lat="46.15662628" lon="5.98127497"><ele>384.664795</ele><time>2009-08-22T14:17:05Z</time></trkpt>
<trkpt lat="46.15663726" lon="5.98133105"><ele>385.145386</ele><time>2009-08-22T14:17:06Z</time></trkpt>
<trkpt lat="46.15664497" lon="5.98138813"><ele>385.145386</ele><time>2009-08-22T14:17:07Z</time></trkpt>
<trkpt lat="46.15664648" lon="5.98144655"><ele>385.145386</ele><time>2009-08-22T14:17:08Z</time></trkpt>
<trkpt lat="46.15664036" lon="5.98150673"><ele>385.145386</ele><time>2009-08-22T14:17:09Z</time></trkpt>
<trkpt lat="46.15663173" lon="5.98156700"><ele>385.145386</ele><time>2009-08-22T14:17:10Z</time></trkpt>
<trkpt lat="46.15662385" lon="5.98162659"><ele>385.625977</ele><time>2009-08-22T14:17:11Z</time></trkpt>
<trkpt lat="46.15661605" lon="5.98168527"><ele>385.625977</ele><time>2009-08-22T14:17:12Z</time></trkpt>
<trkpt lat="46.15660884" lon="5.98174285"><ele>385.625977</ele><time>2009-08-22T14:17:13Z</time></trkpt>
<trkpt lat="46.15660298" lon="5.98180035"><ele>386.106689</ele><time>2009-08-22T14:17:14Z</time></trkpt>
<trkpt lat="46.15659828" lon="5.98185726"><ele>386.587402</ele><time>2009-08-22T14:17:15Z</time></trkpt>
<trkpt lat="46.15659258" lon="5.98191108"><ele>386.587402</ele><time>2009-08-22T14:17:16Z</time></trkpt>
<trkpt lat="46.15658445" lon="5.98196304"><ele>387.067993</ele><time>2009-08-22T14:17:17Z</time></trkpt>
<trkpt lat="46.15657632" lon="5.98201443"><ele>387.548584</ele><time>2009-08-22T14:17:18Z</time></trkpt>
<trkpt lat="46.15656878" lon="5.98206430"><ele>387.548584</ele><time>2009-08-22T14:17:19Z</time></trkpt>
<trkpt lat="46.15656023" lon="5.98211274"><ele>388.029297</ele><time>2009-08-22T14:17:20Z</time></trkpt>
<trkpt lat="46.15655109" lon="5.98216044"><ele>388.51001</ele><time>2009-08-22T14:17:21Z</time></trkpt>
<trkpt lat="46.15654263" lon="5.98220830"><ele>388.990601</ele><time>2009-08-22T14:17:22Z</time></trkpt>
<trkpt lat="46.15653483" lon="5.98225616"><ele>389.471191</ele><time>2009-08-22T14:17:23Z</time></trkpt>
<trkpt lat="46.15652528" lon="5.98230125"><ele>389.951904</ele><time>2009-08-22T14:17:24Z</time></trkpt>
<trkpt lat="46.15651463" lon="5.98234777"><ele>389.951904</ele><time>2009-08-22T14:17:25Z</time></trkpt>
<trkpt lat="46.15650457" lon="5.98239572"><ele>390.432617</ele><time>2009-08-22T14:17:26Z</time></trkpt>
<trkpt lat="46.15649426" lon="5.98244358"><ele>390.913208</ele><time>2009-08-22T14:17:27Z</time></trkpt>
<trkpt lat="46.15648655" lon="5.98249236"><ele>391.393799</ele><time>2009-08-22T14:17:28Z</time></trkpt>
<trkpt lat="46.15648286" lon="5.98254274"><ele>391.874512</ele><time>2009-08-22T14:17:29Z</time></trkpt>
<trkpt lat="46.15648203" lon="5.98259403"><ele>392.355347</ele><time>2009-08-22T14:17:30Z</time></trkpt>
<trkpt lat="46.15648337" lon="5.98264525"><ele>392.355347</ele><time>2009-08-22T14:17:31Z</time></trkpt>
<trkpt lat="46.15648714" lon="5.98269646"><ele>392.835938</ele><time>2009-08-22T14:17:32Z</time></trkpt>
<trkpt lat="46.15649284" lon="5.98274809"><ele>393.316528</ele><time>2009-08-22T14:17:33Z</time></trkpt>
<trkpt lat="46.15649938" lon="5.98280023"><ele>393.797241</ele><time>2009-08-22T14:17:34Z</time></trkpt>
<trkpt lat="46.15650617" lon="5.98285270"><ele>394.277954</ele><time>2009-08-22T14:17:35Z</time></trkpt>
<trkpt lat="46.15651354" lon="5.98290626"><ele>394.758545</ele><time>2009-08-22T14:17:36Z</time></trkpt>
<trkpt lat="46.15652016" lon="5.98295982"><ele>394.758545</ele><time>2009-08-22T14:17:37Z</time></trkpt>
<trkpt lat="46.15652586" lon="5.98301380"><ele>395.239136</ele><time>2009-08-22T14:17:38Z</time></trkpt>
<trkpt lat="46.15652855" lon="5.98306744"><ele>395.719849</ele><time>2009-08-22T14:17:39Z</time></trkpt>
<trkpt lat="46.15652913" lon="5.98312033"><ele>396.200562</ele><time>2009-08-22T14:17:40Z</time></trkpt>
<trkpt lat="46.15652955" lon="5.98317347"><ele>396.681152</ele><time>2009-08-22T14:17:41Z</time></trkpt>
<trkpt lat="46.15653072" lon="5.98322687"><ele>397.161743</ele><time>2009-08-22T14:17:42Z</time></trkpt>
<trkpt lat="46.15653299" lon="5.98327976"><ele>397.642456</ele><time>2009-08-22T14:17:43Z</time></trkpt>
<trkpt lat="46.15653416" lon="5.98333315"><ele>397.642456</ele><time>2009-08-22T14:17:44Z</time></trkpt>
<trkpt lat="46.15653458" lon="5.98338746"><ele>398.123169</ele><time>2009-08-22T14:17:45Z</time></trkpt>
<trkpt lat="46.15653508" lon="5.98344245"><ele>398.60376</ele><time>2009-08-22T14:17:46Z</time></trkpt>
<trkpt lat="46.15653517" lon="5.98349819"><ele>399.084351</ele><time>2009-08-22T14:17:47Z</time></trkpt>
<trkpt lat="46.15653466" lon="5.98355477"><ele>399.084351</ele><time>2009-08-22T14:17:48Z</time></trkpt>
<trkpt lat="46.15653517" lon="5.98361210"><ele>399.565063</ele><time>2009-08-22T14:17:49Z</time></trkpt>
<trkpt lat="46.15653634" lon="5.98367002"><ele>400.045898</ele><time>2009-08-22T14:17:50Z</time></trkpt>
<trkpt lat="46.15653668" lon="5.98372852"><ele>400.045898</ele><time>2009-08-22T14:17:51Z</time></trkpt>
<trkpt lat="46.15653642" lon="5.98378745"><ele>400.526489</ele><time>2009-08-22T14:17:52Z</time></trkpt>
<trkpt lat="46.15653626" lon="5.98384663"><ele>401.00708</ele><time>2009-08-22T14:17:53Z</time></trkpt>
<trkpt lat="46.15653634" lon="5.98390614"><ele>401.00708</ele><time>2009-08-22T14:17:54Z</time></trkpt>
<trkpt lat="46.15653718" lon="5.98396573"><ele>401.487793</ele><time>2009-08-22T14:17:55Z</time></trkpt>
<trkpt lat="46.15653818" lon="5.98402550"><ele>401.487793</ele><time>2009-08-22T14:17:56Z</time></trkpt>
<trkpt lat="46.15653877" lon="5.98408517"><ele>401.968506</ele><time>2009-08-22T14:17:57Z</time></trkpt>
<trkpt lat="46.15653944" lon="5.98414494"><ele>401.968506</ele><time>2009-08-22T14:17:58Z</time></trkpt>
<trkpt lat="46.15654028" lon="5.98420478"><ele>402.449097</ele><time>2009-08-22T14:17:59Z</time></trkpt>
<trkpt lat="46.15654112" lon="5.98426404"><ele>402.449097</ele><time>2009-08-22T14:18:00Z</time></trkpt>
<trkpt lat="46.15654246" lon="5.98432263"><ele>402.449097</ele><time>2009-08-22T14:18:01Z</time></trkpt>
<trkpt lat="46.15654405" lon="5.98438089"><ele>402.929688</ele><time>2009-08-22T14:18:02Z</time></trkpt>
<trkpt lat="46.15654523" lon="5.98443914"><ele>402.929688</ele><time>2009-08-22T14:18:03Z</time></trkpt>
<trkpt lat="46.15654640" lon="5.98449748"><ele>402.929688</ele><time>2009-08-22T14:18:04Z</time></trkpt>
<trkpt lat="46.15654724" lon="5.98455565"><ele>402.929688</ele><time>2009-08-22T14:18:05Z</time></trkpt>
<trkpt lat="46.15654824" lon="5.98461382"><ele>402.929688</ele><time>2009-08-22T14:18:06Z</time></trkpt>
<trkpt lat="46.15654925" lon="5.98467208"><ele>403.4104</ele><time>2009-08-22T14:18:07Z</time></trkpt>
<trkpt lat="46.15655076" lon="5.98473058"><ele>403.4104</ele><time>2009-08-22T14:18:08Z</time></trkpt>
<trkpt lat="46.15655218" lon="5.98478925"><ele>403.4104</ele><time>2009-08-22T14:18:09Z</time></trkpt>
<trkpt lat="46.15655252" lon="5.98484826"><ele>403.4104</ele><time>2009-08-22T14:18:10Z</time></trkpt>
<trkpt lat="46.15655327" lon="5.98490736"><ele>403.4104</ele><time>2009-08-22T14:18:11Z</time></trkpt>
<trkpt lat="46.15655386" lon="5.98496670"><ele>403.891113</ele><time>2009-08-22T14:18:12Z</time></trkpt>
<trkpt lat="46.15655445" lon="5.98502613"><ele>403.891113</ele><time>2009-08-22T14:18:13Z</time></trkpt>
<trkpt lat="46.15655554" lon="5.98508572"><ele>403.891113</ele><time>2009-08-22T14:18:14Z</time></trkpt>
<trkpt lat="46.15655679" lon="5.98514557"><ele>403.891113</ele><time>2009-08-22T14:18:15Z</time></trkpt>
<trkpt lat="46.15655788" lon="5.98520525"><ele>403.891113</ele><time>2009-08-22T14:18:16Z</time></trkpt>
<trkpt lat="46.15655914" lon="5.98526484"><ele>404.371704</ele><time>2009-08-22T14:18:17Z</time></trkpt>
<trkpt lat="46.15656023" lon="5.98532427"><ele>404.371704</ele><time>2009-08-22T14:18:18Z</time></trkpt>
<trkpt lat="46.15656107" lon="5.98538328"><ele>404.371704</ele><time>2009-08-22T14:18:19Z</time></trkpt>
<trkpt lat="46.15656174" lon="5.98544187"><ele>404.371704</ele><time>2009-08-22T14:18:20Z</time></trkpt>
<trkpt lat="46.15656216" lon="5.98550004"><ele>404.852295</ele><time>2009-08-22T14:18:21Z</time></trkpt>
<trkpt lat="46.15656308" lon="5.98555796"><ele>404.852295</ele><time>2009-08-22T14:18:22Z</time></trkpt>
<trkpt lat="46.15656417" lon="5.98561596"><ele>404.852295</ele><time>2009-08-22T14:18:23Z</time></trkpt>
<trkpt lat="46.15656509" lon="5.98567430"><ele>404.852295</ele><time>2009-08-22T14:18:24Z</time></trkpt>
<trkpt lat="46.15656559" lon="5.98573272"><ele>405.333008</ele><time>2009-08-22T14:18:25Z</time></trkpt>
<trkpt lat="46.15656618" lon="5.98579190"><ele>405.333008</ele><time>2009-08-22T14:18:26Z</time></trkpt>
<trkpt lat="46.15656693" lon="5.98585149"><ele>405.333008</ele><time>2009-08-22T14:18:27Z</time></trkpt>
<trkpt lat="46.15656752" lon="5.98591167"><ele>405.333008</ele><time>2009-08-22T14:18:28Z</time></trkpt>
<trkpt lat="46.15656836" lon="5.98597219"><ele>405.813721</ele><time>2009-08-22T14:18:29Z</time></trkpt>
<trkpt lat="46.15656928" lon="5.98603263"><ele>405.813721</ele><time>2009-08-22T14:18:30Z</time></trkpt>
<trkpt lat="46.15656987" lon="5.98609289"><ele>405.813721</ele><time>2009-08-22T14:18:31Z</time></trkpt>
<trkpt lat="46.15657096" lon="5.98615232"><ele>405.813721</ele><time>2009-08-22T14:18:32Z</time></trkpt>
<trkpt lat="46.15657205" lon="5.98621150"><ele>406.294312</ele><time>2009-08-22T14:18:33Z</time></trkpt>
<trkpt lat="46.15657205" lon="5.98626992"><ele>406.294312</ele><time>2009-08-22T14:18:34Z</time></trkpt>
<trkpt lat="46.15657263" lon="5.98632867"><ele>406.294312</ele><time>2009-08-22T14:18:35Z</time></trkpt>
<trkpt lat="46.15657389" lon="5.98638785"><ele>406.294312</ele><time>2009-08-22T14:18:36Z</time></trkpt>
<trkpt lat="46.15657515" lon="5.98644736"><ele>406.774902</ele><time>2009-08-22T14:18:37Z</time></trkpt>
<trkpt lat="46.15657574" lon="5.98650729"><ele>406.774902</ele><time>2009-08-22T14:18:38Z</time></trkpt>
<trkpt lat="46.15657624" lon="5.98656689"><ele>406.774902</ele><time>2009-08-22T14:18:39Z</time></trkpt>
<trkpt lat="46.15657674" lon="5.98662657"><ele>407.255615</ele><time>2009-08-22T14:18:40Z</time></trkpt>
<trkpt lat="46.15657724" lon="5.98668650"><ele>407.255615</ele><time>2009-08-22T14:18:41Z</time></trkpt>
<trkpt lat="46.15657808" lon="5.98674643"><ele>407.736328</ele><time>2009-08-22T14:18:42Z</time></trkpt>
<trkpt lat="46.15657909" lon="5.98680628"><ele>407.736328</ele><time>2009-08-22T14:18:43Z</time></trkpt>
<trkpt lat="46.15657976" lon="5.98686554"><ele>407.736328</ele><time>2009-08-22T14:18:44Z</time></trkpt>
<trkpt lat="46.15658043" lon="5.98692429"><ele>408.217041</ele><time>2009-08-22T14:18:45Z</time></trkpt>
<trkpt lat="46.15658127" lon="5.98698246"><ele>408.217041</ele><time>2009-08-22T14:18:46Z</time></trkpt>
<trkpt lat="46.15658177" lon="5.98704055"><ele>408.217041</ele><time>2009-08-22T14:18:47Z</time></trkpt>
<trkpt lat="46.15658219" lon="5.98709897"><ele>408.697632</ele><time>2009-08-22T14:18:48Z</time></trkpt>
<trkpt lat="46.15658252" lon="5.98715723"><ele>408.697632</ele><time>2009-08-22T14:18:49Z</time></trkpt>
<trkpt lat="46.15658320" lon="5.98721540"><ele>408.697632</ele><time>2009-08-22T14:18:50Z</time></trkpt>
<trkpt lat="46.15658353" lon="5.98727357"><ele>409.178345</ele><time>2009-08-22T14:18:51Z</time></trkpt>
<trkpt lat="46.15658395" lon="5.98733165"><ele>409.178345</ele><time>2009-08-22T14:18:52Z</time></trkpt>
<trkpt lat="46.15658445" lon="5.98739007"><ele>409.178345</ele><time>2009-08-22T14:18:53Z</time></trkpt>
<trkpt lat="46.15658512" lon="5.98744825"><ele>409.178345</ele><time>2009-08-22T14:18:54Z</time></trkpt>
<trkpt lat="46.15658588" lon="5.98750650"><ele>409.659058</ele><time>2009-08-22T14:18:55Z</time></trkpt>
<trkpt lat="46.15658655" lon="5.98756442"><ele>409.659058</ele><time>2009-08-22T14:18:56Z</time></trkpt>
<trkpt lat="46.15658797" lon="5.98762276"><ele>409.659058</ele><time>2009-08-22T14:18:57Z</time></trkpt>
<trkpt lat="46.15658915" lon="5.98768143"><ele>410.139648</ele><time>2009-08-22T14:18:58Z</time></trkpt>
<trkpt lat="46.15658998" lon="5.98774027"><ele>410.139648</ele><time>2009-08-22T14:18:59Z</time></trkpt>
<trkpt lat="46.15659057" lon="5.98779920"><ele>410.139648</ele><time>2009-08-22T14:19:00Z</time></trkpt>
<trkpt lat="46.15659066" lon="5.98785812"><ele>410.620239</ele><time>2009-08-22T14:19:01Z</time></trkpt>
<trkpt lat="46.15659074" lon="5.98791738"><ele>410.620239</ele><time>2009-08-22T14:19:02Z</time></trkpt>
<trkpt lat="46.15659124" lon="5.98797672"><ele>410.620239</ele><time>2009-08-22T14:19:03Z</time></trkpt>
<trkpt lat="46.15659166" lon="5.98803665"><ele>410.620239</ele><time>2009-08-22T14:19:04Z</time></trkpt>
<trkpt lat="46.15659216" lon="5.98809709"><ele>411.100952</ele><time>2009-08-22T14:19:05Z</time></trkpt>
<trkpt lat="46.15659334" lon="5.98815744"><ele>411.100952</ele><time>2009-08-22T14:19:06Z</time></trkpt>
<trkpt lat="46.15659443" lon="5.98821779"><ele>411.100952</ele><time>2009-08-22T14:19:07Z</time></trkpt>
<trkpt lat="46.15659602" lon="5.98827797"><ele>411.100952</ele><time>2009-08-22T14:19:08Z</time></trkpt>
<trkpt lat="46.15659770" lon="5.98833815"><ele>411.581665</ele><time>2009-08-22T14:19:09Z</time></trkpt>
<trkpt lat="46.15659879" lon="5.98839842"><ele>411.581665</ele><time>2009-08-22T14:19:10Z</time></trkpt>
<trkpt lat="46.15660004" lon="5.98845826"><ele>411.581665</ele><time>2009-08-22T14:19:11Z</time></trkpt>
<trkpt lat="46.15660147" lon="5.98851752"><ele>411.581665</ele><time>2009-08-22T14:19:12Z</time></trkpt>
<trkpt lat="46.15660306" lon="5.98857653"><ele>412.062256</ele><time>2009-08-22T14:19:13Z</time></trkpt>
<trkpt lat="46.15660465" lon="5.98863563"><ele>412.062256</ele><time>2009-08-22T14:19:14Z</time></trkpt>
<trkpt lat="46.15660507" lon="5.98869388"><ele>412.542847</ele><time>2009-08-22T14:19:15Z</time></trkpt>
<trkpt lat="46.15660566" lon="5.98875197"><ele>413.02356</ele><time>2009-08-22T14:19:16Z</time></trkpt>
<trkpt lat="46.15660616" lon="5.98880997"><ele>413.02356</ele><time>2009-08-22T14:19:17Z</time></trkpt>
<trkpt lat="46.15660666" lon="5.98886789"><ele>413.504272</ele><time>2009-08-22T14:19:18Z</time></trkpt>
<trkpt lat="46.15660734" lon="5.98892665"><ele>413.504272</ele><time>2009-08-22T14:19:19Z</time></trkpt>
<trkpt lat="46.15660834" lon="5.98898565"><ele>413.984863</ele><time>2009-08-22T14:19:20Z</time></trkpt>
<trkpt lat="46.15661002" lon="5.98904483"><ele>413.984863</ele><time>2009-08-22T14:19:21Z</time></trkpt>
<trkpt lat="46.15661178" lon="5.98910375"><ele>414.465454</ele><time>2009-08-22T14:19:22Z</time></trkpt>
<trkpt lat="46.15661337" lon="5.98916167"><ele>414.465454</ele><time>2009-08-22T14:19:23Z</time></trkpt>
<trkpt lat="46.15661488" lon="5.98921926"><ele>414.465454</ele><time>2009-08-22T14:19:24Z</time></trkpt>
<trkpt lat="46.15661622" lon="5.98927793"><ele>414.465454</ele><time>2009-08-22T14:19:25Z</time></trkpt>
<trkpt lat="46.15661748" lon="5.98933719"><ele>414.946167</ele><time>2009-08-22T14:19:26Z</time></trkpt>
<trkpt lat="46.15661823" lon="5.98939595"><ele>414.946167</ele><time>2009-08-22T14:19:27Z</time></trkpt>
<trkpt lat="46.15661949" lon="5.98945395"><ele>415.42688</ele><time>2009-08-22T14:19:28Z</time></trkpt>
<trkpt lat="46.15662083" lon="5.98951212"><ele>415.42688</ele><time>2009-08-22T14:19:29Z</time></trkpt>
<trkpt lat="46.15662108" lon="5.98956887"><ele>415.907471</ele><time>2009-08-22T14:19:30Z</time></trkpt>
<trkpt lat="46.15662058" lon="5.98962628"><ele>416.388184</ele><time>2009-08-22T14:19:31Z</time></trkpt>
<trkpt lat="46.15661907" lon="5.98968529"><ele>417.349609</ele><time>2009-08-22T14:19:32Z</time></trkpt>
<trkpt lat="46.15661848" lon="5.98974422"><ele>417.8302</ele><time>2009-08-22T14:19:33Z</time></trkpt>
<trkpt lat="46.15661907" lon="5.98980264"><ele>418.310791</ele><time>2009-08-22T14:19:34Z</time></trkpt>
<trkpt lat="46.15661949" lon="5.98986148"><ele>418.791504</ele><time>2009-08-22T14:19:35Z</time></trkpt>
<trkpt lat="46.15661899" lon="5.98992074"><ele>419.272217</ele><time>2009-08-22T14:19:36Z</time></trkpt>
<trkpt lat="46.15661639" lon="5.98998017"><ele>419.752808</ele><time>2009-08-22T14:19:37Z</time></trkpt>
<trkpt lat="46.15661245" lon="5.99003909"><ele>420.233398</ele><time>2009-08-22T14:19:38Z</time></trkpt>
<trkpt lat="46.15660817" lon="5.99009768"><ele>420.714111</ele><time>2009-08-22T14:19:39Z</time></trkpt>
<trkpt lat="46.15660264" lon="5.99015669"><ele>420.714111</ele><time>2009-08-22T14:19:40Z</time></trkpt>
<trkpt lat="46.15659619" lon="5.99021528"><ele>421.194824</ele><time>2009-08-22T14:19:41Z</time></trkpt>
<trkpt lat="46.15658973" lon="5.99027412"><ele>421.194824</ele><time>2009-08-22T14:19:42Z</time></trkpt>
<trkpt lat="46.15658294" lon="5.99033313"><ele>421.675415</ele><time>2009-08-22T14:19:43Z</time></trkpt>
<trkpt lat="46.15657523" lon="5.99039197"><ele>421.675415</ele><time>2009-08-22T14:19:44Z</time></trkpt>
<trkpt lat="46.15656744" lon="5.99045006"><ele>422.156006</ele><time>2009-08-22T14:19:45Z</time></trkpt>
<trkpt lat="46.15655813" lon="5.99050948"><ele>422.156006</ele><time>2009-08-22T14:19:46Z</time></trkpt>
<trkpt lat="46.15654732" lon="5.99056858"><ele>422.156006</ele><time>2009-08-22T14:19:47Z</time></trkpt>
<trkpt lat="46.15653533" lon="5.99062717"><ele>422.156006</ele><time>2009-08-22T14:19:48Z</time></trkpt>
<trkpt lat="46.15652293" lon="5.99068584"><ele>422.156006</ele><time>2009-08-22T14:19:49Z</time></trkpt>
<trkpt lat="46.15651002" lon="5.99074342"><ele>422.156006</ele><time>2009-08-22T14:19:50Z</time></trkpt>
<trkpt lat="46.15649628" lon="5.99079992"><ele>422.156006</ele><time>2009-08-22T14:19:51Z</time></trkpt>
<trkpt lat="46.15648169" lon="5.99085599"><ele>422.156006</ele><time>2009-08-22T14:19:52Z</time></trkpt>
<trkpt lat="46.15646535" lon="5.99091140"><ele>422.156006</ele><time>2009-08-22T14:19:53Z</time></trkpt>
<trkpt lat="46.15644816" lon="5.99096688"><ele>422.156006</ele><time>2009-08-22T14:19:54Z</time></trkpt>
<trkpt lat="46.15642956" lon="5.99102044"><ele>421.675415</ele><time>2009-08-22T14:19:55Z</time></trkpt>
<trkpt lat="46.15641120" lon="5.99107426"><ele>421.675415</ele><time>2009-08-22T14:19:56Z</time></trkpt>
<trkpt lat="46.15639267" lon="5.99112740"><ele>421.675415</ele><time>2009-08-22T14:19:57Z</time></trkpt>
<trkpt lat="46.15637289" lon="5.99117744"><ele>421.675415</ele><time>2009-08-22T14:19:58Z</time></trkpt>
<trkpt lat="46.15635336" lon="5.99122823"><ele>421.675415</ele><time>2009-08-22T14:19:59Z</time></trkpt>
<trkpt lat="46.15633216" lon="5.99127609"><ele>421.675415</ele><time>2009-08-22T14:20:00Z</time></trkpt>
<trkpt lat="46.15631154" lon="5.99132714"><ele>421.675415</ele><time>2009-08-22T14:20:01Z</time></trkpt>
<trkpt lat="46.15628899" lon="5.99137777"><ele>422.156006</ele><time>2009-08-22T14:20:02Z</time></trkpt>
<trkpt lat="46.15626468" lon="5.99142353"><ele>422.156006</ele><time>2009-08-22T14:20:03Z</time></trkpt>
<trkpt lat="46.15623895" lon="5.99146846"><ele>422.156006</ele><time>2009-08-22T14:20:04Z</time></trkpt>
<trkpt lat="46.15621322" lon="5.99151439"><ele>422.156006</ele><time>2009-08-22T14:20:05Z</time></trkpt>
<trkpt lat="46.15618757" lon="5.99155898"><ele>422.156006</ele><time>2009-08-22T14:20:06Z</time></trkpt>
<trkpt lat="46.15616159" lon="5.99160282"><ele>422.156006</ele><time>2009-08-22T14:20:07Z</time></trkpt>
<trkpt lat="46.15613443" lon="5.99164884"><ele>422.156006</ele><time>2009-08-22T14:20:08Z</time></trkpt>
<trkpt lat="46.15610828" lon="5.99168966"><ele>422.156006</ele><time>2009-08-22T14:20:09Z</time></trkpt>
<trkpt lat="46.15608229" lon="5.99172947"><ele>422.156006</ele><time>2009-08-22T14:20:10Z</time></trkpt>
<trkpt lat="46.15605463" lon="5.99177297"><ele>422.156006</ele><time>2009-08-22T14:20:11Z</time></trkpt>
<trkpt lat="46.15602597" lon="5.99181756"><ele>422.156006</ele><time>2009-08-22T14:20:12Z</time></trkpt>
<trkpt lat="46.15599856" lon="5.99185897"><ele>422.156006</ele><time>2009-08-22T14:20:13Z</time></trkpt>
<trkpt lat="46.15597165" lon="5.99189945"><ele>421.675415</ele><time>2009-08-22T14:20:14Z</time></trkpt>
<trkpt lat="46.15594416" lon="5.99194053"><ele>421.675415</ele><time>2009-08-22T14:20:15Z</time></trkpt>
<trkpt lat="46.15591583" lon="5.99198327"><ele>421.194824</ele><time>2009-08-22T14:20:16Z</time></trkpt>
<trkpt lat="46.15588758" lon="5.99202334"><ele>421.194824</ele><time>2009-08-22T14:20:17Z</time></trkpt>
<trkpt lat="46.15585992" lon="5.99206139"><ele>420.714111</ele><time>2009-08-22T14:20:18Z</time></trkpt>
<trkpt lat="46.15583142" lon="5.99210582"><ele>420.714111</ele><time>2009-08-22T14:20:19Z</time></trkpt>
<trkpt lat="46.15580427" lon="5.99214857"><ele>420.233398</ele><time>2009-08-22T14:20:20Z</time></trkpt>
<trkpt lat="46.15577677" lon="5.99218947"><ele>420.714111</ele><time>2009-08-22T14:20:21Z</time></trkpt>
<trkpt lat="46.15574794" lon="5.99223088"><ele>420.714111</ele><time>2009-08-22T14:20:22Z</time></trkpt>
<trkpt lat="46.15571852" lon="5.99227413"><ele>420.233398</ele><time>2009-08-22T14:20:23Z</time></trkpt>
<trkpt lat="46.15568918" lon="5.99231763"><ele>420.233398</ele><time>2009-08-22T14:20:24Z</time></trkpt>
<trkpt lat="46.15566244" lon="5.99235518"><ele>420.233398</ele><time>2009-08-22T14:20:25Z</time></trkpt>
<trkpt lat="46.15563403" lon="5.99239717"><ele>419.752808</ele><time>2009-08-22T14:20:26Z</time></trkpt>
<trkpt lat="46.15560679" lon="5.99243673"><ele>419.752808</ele><time>2009-08-22T14:20:27Z</time></trkpt>
<trkpt lat="46.15557963" lon="5.99247605"><ele>419.752808</ele><time>2009-08-22T14:20:28Z</time></trkpt>
<trkpt lat="46.15555205" lon="5.99251628"><ele>419.752808</ele><time>2009-08-22T14:20:29Z</time></trkpt>
<trkpt lat="46.15552406" lon="5.99255584"><ele>419.752808</ele><time>2009-08-22T14:20:30Z</time></trkpt>
<trkpt lat="46.15549673" lon="5.99259599"><ele>419.752808</ele><time>2009-08-22T14:20:31Z</time></trkpt>
<trkpt lat="46.15546874" lon="5.99263664"><ele>419.272217</ele><time>2009-08-22T14:20:32Z</time></trkpt>
<trkpt lat="46.15544057" lon="5.99267813"><ele>419.272217</ele><time>2009-08-22T14:20:33Z</time></trkpt>
<trkpt lat="46.15541266" lon="5.99272080"><ele>419.272217</ele><time>2009-08-22T14:20:34Z</time></trkpt>
<trkpt lat="46.15538475" lon="5.99276464"><ele>419.272217</ele><time>2009-08-22T14:20:35Z</time></trkpt>
<trkpt lat="46.15535692" lon="5.99280822"><ele>419.272217</ele><time>2009-08-22T14:20:36Z</time></trkpt>
<trkpt lat="46.15532977" lon="5.99285206"><ele>419.272217</ele><time>2009-08-22T14:20:37Z</time></trkpt>
<trkpt lat="46.15530328" lon="5.99289564"><ele>419.752808</ele><time>2009-08-22T14:20:38Z</time></trkpt>
<trkpt lat="46.15527553" lon="5.99294174"><ele>419.752808</ele><time>2009-08-22T14:20:39Z</time></trkpt>
<trkpt lat="46.15524955" lon="5.99298893"><ele>419.752808</ele><time>2009-08-22T14:20:40Z</time></trkpt>
<trkpt lat="46.15522600" lon="5.99303738"><ele>419.752808</ele><time>2009-08-22T14:20:41Z</time></trkpt>
<trkpt lat="46.15520278" lon="5.99308633"><ele>420.233398</ele><time>2009-08-22T14:20:42Z</time></trkpt>
<trkpt lat="46.15518048" lon="5.99313545"><ele>420.714111</ele><time>2009-08-22T14:20:43Z</time></trkpt>
<trkpt lat="46.15515567" lon="5.99318876"><ele>420.714111</ele><time>2009-08-22T14:20:44Z</time></trkpt>
<trkpt lat="46.15513162" lon="5.99324333"><ele>420.714111</ele><time>2009-08-22T14:20:45Z</time></trkpt>
<trkpt lat="46.15510907" lon="5.99329848"><ele>421.194824</ele><time>2009-08-22T14:20:46Z</time></trkpt>
<trkpt lat="46.15508820" lon="5.99335464"><ele>421.194824</ele><time>2009-08-22T14:20:47Z</time></trkpt>
<trkpt lat="46.15506942" lon="5.99341172"><ele>421.194824</ele><time>2009-08-22T14:20:48Z</time></trkpt>
<trkpt lat="46.15505207" lon="5.99346905"><ele>421.675415</ele><time>2009-08-22T14:20:49Z</time></trkpt>
<trkpt lat="46.15503556" lon="5.99352588"><ele>421.675415</ele><time>2009-08-22T14:20:50Z</time></trkpt>
<trkpt lat="46.15501997" lon="5.99358304"><ele>422.156006</ele><time>2009-08-22T14:20:51Z</time></trkpt>
<trkpt lat="46.15500547" lon="5.99364113"><ele>422.156006</ele><time>2009-08-22T14:20:52Z</time></trkpt>
<trkpt lat="46.15499139" lon="5.99369746"><ele>422.636719</ele><time>2009-08-22T14:20:53Z</time></trkpt>
<trkpt lat="46.15497840" lon="5.99375395"><ele>422.636719</ele><time>2009-08-22T14:20:54Z</time></trkpt>
<trkpt lat="46.15496582" lon="5.99381045"><ele>422.636719</ele><time>2009-08-22T14:20:55Z</time></trkpt>
<trkpt lat="46.15495417" lon="5.99386652"><ele>423.117432</ele><time>2009-08-22T14:20:56Z</time></trkpt>
<trkpt lat="46.15494252" lon="5.99392310"><ele>423.117432</ele><time>2009-08-22T14:20:57Z</time></trkpt>
<trkpt lat="46.15493028" lon="5.99398026"><ele>423.598022</ele><time>2009-08-22T14:20:58Z</time></trkpt>
<trkpt lat="46.15491813" lon="5.99403558"><ele>423.598022</ele><time>2009-08-22T14:20:59Z</time></trkpt>
<trkpt lat="46.15490556" lon="5.99409300"><ele>423.598022</ele><time>2009-08-22T14:21:00Z</time></trkpt>
<trkpt lat="46.15489508" lon="5.99415134"><ele>423.598022</ele><time>2009-08-22T14:21:01Z</time></trkpt>
<trkpt lat="46.15488418" lon="5.99420984"><ele>424.078735</ele><time>2009-08-22T14:21:02Z</time></trkpt>
<trkpt lat="46.15487186" lon="5.99426843"><ele>424.078735</ele><time>2009-08-22T14:21:03Z</time></trkpt>
<trkpt lat="46.15485703" lon="5.99432803"><ele>424.559448</ele><time>2009-08-22T14:21:04Z</time></trkpt>
<trkpt lat="46.15484445" lon="5.99438645"><ele>424.559448</ele><time>2009-08-22T14:21:05Z</time></trkpt>
<trkpt lat="46.15483196" lon="5.99444496"><ele>425.040161</ele><time>2009-08-22T14:21:06Z</time></trkpt>
<trkpt lat="46.15481822" lon="5.99450245"><ele>425.040161</ele><time>2009-08-22T14:21:07Z</time></trkpt>
<trkpt lat="46.15480757" lon="5.99455954"><ele>425.520752</ele><time>2009-08-22T14:21:08Z</time></trkpt>
<trkpt lat="46.15479852" lon="5.99461653"><ele>426.001343</ele><time>2009-08-22T14:21:09Z</time></trkpt>
<trkpt lat="46.15478788" lon="5.99467135"><ele>426.001343</ele><time>2009-08-22T14:21:10Z</time></trkpt>
<trkpt lat="46.15477379" lon="5.99472793"><ele>426.482056</ele><time>2009-08-22T14:21:11Z</time></trkpt>
<trkpt lat="46.15476139" lon="5.99478333"><ele>426.962769</ele><time>2009-08-22T14:21:12Z</time></trkpt>
<trkpt lat="46.15474907" lon="5.99483874"><ele>426.962769</ele><time>2009-08-22T14:21:13Z</time></trkpt>
<trkpt lat="46.15473658" lon="5.99489523"><ele>427.443359</ele><time>2009-08-22T14:21:14Z</time></trkpt>
<trkpt lat="46.15472342" lon="5.99495097"><ele>427.443359</ele><time>2009-08-22T14:21:15Z</time></trkpt>
<trkpt lat="46.15470925" lon="5.99500780"><ele>427.443359</ele><time>2009-08-22T14:21:16Z</time></trkpt>
<trkpt lat="46.15469534" lon="5.99506480"><ele>427.443359</ele><time>2009-08-22T14:21:17Z</time></trkpt>
<trkpt lat="46.15468126" lon="5.99512112"><ele>427.92395</ele><time>2009-08-22T14:21:18Z</time></trkpt>
<trkpt lat="46.15466852" lon="5.99517854"><ele>427.92395</ele><time>2009-08-22T14:21:19Z</time></trkpt>
<trkpt lat="46.15465653" lon="5.99523688"><ele>428.404663</ele><time>2009-08-22T14:21:20Z</time></trkpt>
<trkpt lat="46.15464455" lon="5.99529488"><ele>428.885376</ele><time>2009-08-22T14:21:21Z</time></trkpt>
<trkpt lat="46.15463407" lon="5.99535339"><ele>429.365967</ele><time>2009-08-22T14:21:22Z</time></trkpt>
<trkpt lat="46.15462376" lon="5.99541223"><ele>429.365967</ele><time>2009-08-22T14:21:23Z</time></trkpt>
<trkpt lat="46.15461169" lon="5.99546914"><ele>429.846558</ele><time>2009-08-22T14:21:24Z</time></trkpt>
<trkpt lat="46.15459786" lon="5.99552589"><ele>430.327271</ele><time>2009-08-22T14:21:25Z</time></trkpt>
<trkpt lat="46.15458637" lon="5.99558238"><ele>430.327271</ele><time>2009-08-22T14:21:26Z</time></trkpt>
<trkpt lat="46.15457565" lon="5.99564038"><ele>430.807983</ele><time>2009-08-22T14:21:27Z</time></trkpt>
<trkpt lat="46.15456425" lon="5.99569939"><ele>430.807983</ele><time>2009-08-22T14:21:28Z</time></trkpt>
<trkpt lat="46.15455016" lon="5.99575790"><ele>431.288574</ele><time>2009-08-22T14:21:29Z</time></trkpt>
<trkpt lat="46.15453868" lon="5.99581447"><ele>431.769165</ele><time>2009-08-22T14:21:30Z</time></trkpt>
<trkpt lat="46.15452887" lon="5.99587298"><ele>431.769165</ele><time>2009-08-22T14:21:31Z</time></trkpt>
<trkpt lat="46.15451999" lon="5.99593123"><ele>432.25</ele><time>2009-08-22T14:21:32Z</time></trkpt>
<trkpt lat="46.15451194" lon="5.99598932"><ele>432.25</ele><time>2009-08-22T14:21:33Z</time></trkpt>
<trkpt lat="46.15450314" lon="5.99604774"><ele>432.730713</ele><time>2009-08-22T14:21:34Z</time></trkpt>
<trkpt lat="46.15449560" lon="5.99610600"><ele>432.730713</ele><time>2009-08-22T14:21:35Z</time></trkpt>
<trkpt lat="46.15448940" lon="5.99616484"><ele>433.211304</ele><time>2009-08-22T14:21:36Z</time></trkpt>
<trkpt lat="46.15448353" lon="5.99622334"><ele>433.211304</ele><time>2009-08-22T14:21:37Z</time></trkpt>
<trkpt lat="46.15447716" lon="5.99628252"><ele>433.211304</ele><time>2009-08-22T14:21:38Z</time></trkpt>
<trkpt lat="46.15447188" lon="5.99634178"><ele>433.691895</ele><time>2009-08-22T14:21:39Z</time></trkpt>
<trkpt lat="46.15446827" lon="5.99640104"><ele>433.691895</ele><time>2009-08-22T14:21:40Z</time></trkpt>
<trkpt lat="46.15446559" lon="5.99646047"><ele>434.172607</ele><time>2009-08-22T14:21:41Z</time></trkpt>
<trkpt lat="46.15446358" lon="5.99652015"><ele>434.172607</ele><time>2009-08-22T14:21:42Z</time></trkpt>
<trkpt lat="46.15446224" lon="5.99658075"><ele>434.65332</ele><time>2009-08-22T14:21:43Z</time></trkpt>
<trkpt lat="46.15446165" lon="5.99664143"><ele>434.65332</ele><time>2009-08-22T14:21:44Z</time></trkpt>
<trkpt lat="46.15446182" lon="5.99670245"><ele>435.133911</ele><time>2009-08-22T14:21:45Z</time></trkpt>
<trkpt lat="46.15446383" lon="5.99676389"><ele>435.133911</ele><time>2009-08-22T14:21:46Z</time></trkpt>
<trkpt lat="46.15446827" lon="5.99682525"><ele>435.614502</ele><time>2009-08-22T14:21:47Z</time></trkpt>
<trkpt lat="46.15447339" lon="5.99688585"><ele>435.614502</ele><time>2009-08-22T14:21:48Z</time></trkpt>
<trkpt lat="46.15447917" lon="5.99694586"><ele>435.614502</ele><time>2009-08-22T14:21:49Z</time></trkpt>
<trkpt lat="46.15448588" lon="5.99700588"><ele>436.095215</ele><time>2009-08-22T14:21:50Z</time></trkpt>
<trkpt lat="46.15449409" lon="5.99706640"><ele>436.095215</ele><time>2009-08-22T14:21:51Z</time></trkpt>
<trkpt lat="46.15450356" lon="5.99712725"><ele>436.095215</ele><time>2009-08-22T14:21:52Z</time></trkpt>
<trkpt lat="46.15451429" lon="5.99718869"><ele>436.575928</ele><time>2009-08-22T14:21:53Z</time></trkpt>
<trkpt lat="46.15452603" lon="5.99725113"><ele>436.575928</ele><time>2009-08-22T14:21:54Z</time></trkpt>
<trkpt lat="46.15453918" lon="5.99731450"><ele>436.575928</ele><time>2009-08-22T14:21:55Z</time></trkpt>
<trkpt lat="46.15455419" lon="5.99737703"><ele>436.575928</ele><time>2009-08-22T14:21:56Z</time></trkpt>
<trkpt lat="46.15457078" lon="5.99743889"><ele>437.056519</ele><time>2009-08-22T14:21:57Z</time></trkpt>
<trkpt lat="46.15458889" lon="5.99749999"><ele>437.056519</ele><time>2009-08-22T14:21:58Z</time></trkpt>
<trkpt lat="46.15460708" lon="5.99756110"><ele>437.056519</ele><time>2009-08-22T14:21:59Z</time></trkpt>
<trkpt lat="46.15462418" lon="5.99762262"><ele>437.537109</ele><time>2009-08-22T14:22:00Z</time></trkpt>
<trkpt lat="46.15464102" lon="5.99768439"><ele>437.537109</ele><time>2009-08-22T14:22:01Z</time></trkpt>
<trkpt lat="46.15465838" lon="5.99774516"><ele>437.537109</ele><time>2009-08-22T14:22:02Z</time></trkpt>
<trkpt lat="46.15467598" lon="5.99780568"><ele>437.537109</ele><time>2009-08-22T14:22:03Z</time></trkpt>
<trkpt lat="46.15469417" lon="5.99786695"><ele>438.017822</ele><time>2009-08-22T14:22:04Z</time></trkpt>
<trkpt lat="46.15471235" lon="5.99792940"><ele>438.017822</ele><time>2009-08-22T14:22:05Z</time></trkpt>
<trkpt lat="46.15473046" lon="5.99799276"><ele>438.017822</ele><time>2009-08-22T14:22:06Z</time></trkpt>
<trkpt lat="46.15474865" lon="5.99805697"><ele>438.017822</ele><time>2009-08-22T14:22:07Z</time></trkpt>
<trkpt lat="46.15476684" lon="5.99812126"><ele>438.017822</ele><time>2009-08-22T14:22:08Z</time></trkpt>
<trkpt lat="46.15478494" lon="5.99818555"><ele>438.498535</ele><time>2009-08-22T14:22:09Z</time></trkpt>
<trkpt lat="46.15480363" lon="5.99824917"><ele>438.498535</ele><time>2009-08-22T14:22:10Z</time></trkpt>
<trkpt lat="46.15482274" lon="5.99831253"><ele>438.498535</ele><time>2009-08-22T14:22:11Z</time></trkpt>
<trkpt lat="46.15484118" lon="5.99837624"><ele>438.498535</ele><time>2009-08-22T14:22:12Z</time></trkpt>
<trkpt lat="46.15485904" lon="5.99843985"><ele>438.979126</ele><time>2009-08-22T14:22:13Z</time></trkpt>
<trkpt lat="46.15487689" lon="5.99850305"><ele>438.979126</ele><time>2009-08-22T14:22:14Z</time></trkpt>
<trkpt lat="46.15489449" lon="5.99856592"><ele>438.979126</ele><time>2009-08-22T14:22:15Z</time></trkpt>
<trkpt lat="46.15491277" lon="5.99862836"><ele>438.979126</ele><time>2009-08-22T14:22:16Z</time></trkpt>
<trkpt lat="46.15493129" lon="5.99869072"><ele>438.979126</ele><time>2009-08-22T14:22:17Z</time></trkpt>
<trkpt lat="46.15494923" lon="5.99875376"><ele>438.979126</ele><time>2009-08-22T14:22:18Z</time></trkpt>
<trkpt lat="46.15496767" lon="5.99881696"><ele>438.979126</ele><time>2009-08-22T14:22:19Z</time></trkpt>
<trkpt lat="46.15498577" lon="5.99888024"><ele>439.459717</ele><time>2009-08-22T14:22:20Z</time></trkpt>
<trkpt lat="46.15500354" lon="5.99894436"><ele>439.459717</ele><time>2009-08-22T14:22:21Z</time></trkpt>
<trkpt lat="46.15502249" lon="5.99900899"><ele>439.459717</ele><time>2009-08-22T14:22:22Z</time></trkpt>
<trkpt lat="46.15504126" lon="5.99907428"><ele>439.459717</ele><time>2009-08-22T14:22:23Z</time></trkpt>
<trkpt lat="46.15505802" lon="5.99914075"><ele>439.459717</ele><time>2009-08-22T14:22:24Z</time></trkpt>
<trkpt lat="46.15507412" lon="5.99920789"><ele>439.459717</ele><time>2009-08-22T14:22:25Z</time></trkpt>
<trkpt lat="46.15509214" lon="5.99927436"><ele>439.459717</ele><time>2009-08-22T14:22:26Z</time></trkpt>
<trkpt lat="46.15511133" lon="5.99934049"><ele>439.459717</ele><time>2009-08-22T14:22:27Z</time></trkpt>
<trkpt lat="46.15513195" lon="5.99940646"><ele>439.94043</ele><time>2009-08-22T14:22:28Z</time></trkpt>
<trkpt lat="46.15515416" lon="5.99947116"><ele>439.94043</ele><time>2009-08-22T14:22:29Z</time></trkpt>
<trkpt lat="46.15517747" lon="5.99953436"><ele>439.94043</ele><time>2009-08-22T14:22:30Z</time></trkpt>
<trkpt lat="46.15519934" lon="5.99959798"><ele>439.94043</ele><time>2009-08-22T14:22:31Z</time></trkpt>
<trkpt lat="46.15521963" lon="5.99966252"><ele>439.94043</ele><time>2009-08-22T14:22:32Z</time></trkpt>
<trkpt lat="46.15523974" lon="5.99972748"><ele>439.94043</ele><time>2009-08-22T14:22:33Z</time></trkpt>
<trkpt lat="46.15525986" lon="5.99979244"><ele>439.94043</ele><time>2009-08-22T14:22:34Z</time></trkpt>
<trkpt lat="46.15528014" lon="5.99985732"><ele>440.421265</ele><time>2009-08-22T14:22:35Z</time></trkpt>
<trkpt lat="46.15530043" lon="5.99992228"><ele>440.421265</ele><time>2009-08-22T14:22:36Z</time></trkpt>
<trkpt lat="46.15532105" lon="5.99998732"><ele>440.421265</ele><time>2009-08-22T14:22:37Z</time></trkpt>
<trkpt lat="46.15534184" lon="6.00005304"><ele>440.421265</ele><time>2009-08-22T14:22:38Z</time></trkpt>
<trkpt lat="46.15536246" lon="6.00011959"><ele>440.421265</ele><time>2009-08-22T14:22:39Z</time></trkpt>
<trkpt lat="46.15538383" lon="6.00018606"><ele>440.421265</ele><time>2009-08-22T14:22:40Z</time></trkpt>
<trkpt lat="46.15540638" lon="6.00025244"><ele>440.901855</ele><time>2009-08-22T14:22:41Z</time></trkpt>
<trkpt lat="46.15542859" lon="6.00031933"><ele>440.901855</ele><time>2009-08-22T14:22:42Z</time></trkpt>
<trkpt lat="46.15545055" lon="6.00038638"><ele>440.901855</ele><time>2009-08-22T14:22:43Z</time></trkpt>
<trkpt lat="46.15547234" lon="6.00045335"><ele>440.901855</ele><time>2009-08-22T14:22:44Z</time></trkpt>
<trkpt lat="46.15549405" lon="6.00052007"><ele>440.901855</ele><time>2009-08-22T14:22:45Z</time></trkpt>
<trkpt lat="46.15551635" lon="6.00058629"><ele>441.382446</ele><time>2009-08-22T14:22:46Z</time></trkpt>
<trkpt lat="46.15553889" lon="6.00065276"><ele>441.382446</ele><time>2009-08-22T14:22:47Z</time></trkpt>
<trkpt lat="46.15556127" lon="6.00071965"><ele>441.382446</ele><time>2009-08-22T14:22:48Z</time></trkpt>
<trkpt lat="46.15558424" lon="6.00078654"><ele>441.382446</ele><time>2009-08-22T14:22:49Z</time></trkpt>
<trkpt lat="46.15560729" lon="6.00085393"><ele>441.382446</ele><time>2009-08-22T14:22:50Z</time></trkpt>
<trkpt lat="46.15563059" lon="6.00092123"><ele>441.863159</ele><time>2009-08-22T14:22:51Z</time></trkpt>
<trkpt lat="46.15565389" lon="6.00098829"><ele>441.863159</ele><time>2009-08-22T14:22:52Z</time></trkpt>
<trkpt lat="46.15567694" lon="6.00105509"><ele>441.863159</ele><time>2009-08-22T14:22:53Z</time></trkpt>
<trkpt lat="46.15570025" lon="6.00112164"><ele>441.863159</ele><time>2009-08-22T14:22:54Z</time></trkpt>
<trkpt lat="46.15572346" lon="6.00118786"><ele>441.863159</ele><time>2009-08-22T14:22:55Z</time></trkpt>
<trkpt lat="46.15574744" lon="6.00125349"><ele>442.343872</ele><time>2009-08-22T14:22:56Z</time></trkpt>
<trkpt lat="46.15577149" lon="6.00131820"><ele>442.343872</ele><time>2009-08-22T14:22:57Z</time></trkpt>
<trkpt lat="46.15579496" lon="6.00138299"><ele>442.343872</ele><time>2009-08-22T14:22:58Z</time></trkpt>
<trkpt lat="46.15581885" lon="6.00144787"><ele>442.343872</ele><time>2009-08-22T14:22:59Z</time></trkpt>
<trkpt lat="46.15584282" lon="6.00151308"><ele>442.343872</ele><time>2009-08-22T14:23:00Z</time></trkpt>
<trkpt lat="46.15586696" lon="6.00157846"><ele>442.824463</ele><time>2009-08-22T14:23:01Z</time></trkpt>
<trkpt lat="46.15589135" lon="6.00164375"><ele>442.824463</ele><time>2009-08-22T14:23:02Z</time></trkpt>
<trkpt lat="46.15591566" lon="6.00170930"><ele>442.824463</ele><time>2009-08-22T14:23:03Z</time></trkpt>
<trkpt lat="46.15593955" lon="6.00177468"><ele>442.824463</ele><time>2009-08-22T14:23:04Z</time></trkpt>
<trkpt lat="46.15596352" lon="6.00183964"><ele>442.824463</ele><time>2009-08-22T14:23:05Z</time></trkpt>
<trkpt lat="46.15598783" lon="6.00190426"><ele>443.305054</ele><time>2009-08-22T14:23:06Z</time></trkpt>
<trkpt lat="46.15601214" lon="6.00196838"><ele>443.305054</ele><time>2009-08-22T14:23:07Z</time></trkpt>
<trkpt lat="46.15603653" lon="6.00203150"><ele>443.305054</ele><time>2009-08-22T14:23:08Z</time></trkpt>
<trkpt lat="46.15606159" lon="6.00209369"><ele>443.305054</ele><time>2009-08-22T14:23:09Z</time></trkpt>
<trkpt lat="46.15608606" lon="6.00215597"><ele>443.785767</ele><time>2009-08-22T14:23:10Z</time></trkpt>
<trkpt lat="46.15611029" lon="6.00221816"><ele>443.785767</ele><time>2009-08-22T14:23:11Z</time></trkpt>
<trkpt lat="46.15613510" lon="6.00228002"><ele>443.785767</ele><time>2009-08-22T14:23:12Z</time></trkpt>
<trkpt lat="46.15615899" lon="6.00234247"><ele>443.785767</ele><time>2009-08-22T14:23:13Z</time></trkpt>
<trkpt lat="46.15618229" lon="6.00240299"><ele>443.785767</ele><time>2009-08-22T14:23:14Z</time></trkpt>
<trkpt lat="46.15620576" lon="6.00245990"><ele>444.266479</ele><time>2009-08-22T14:23:15Z</time></trkpt>
<trkpt lat="46.15622872" lon="6.00251396"><ele>444.266479</ele><time>2009-08-22T14:23:16Z</time></trkpt>
<trkpt lat="46.15625052" lon="6.00256618"><ele>444.266479</ele><time>2009-08-22T14:23:17Z</time></trkpt>
<trkpt lat="46.15627382" lon="6.00261932"><ele>444.266479</ele><time>2009-08-22T14:23:18Z</time></trkpt>
<trkpt lat="46.15630148" lon="6.00267204"><ele>444.266479</ele><time>2009-08-22T14:23:19Z</time></trkpt>
<trkpt lat="46.15633182" lon="6.00272326"><ele>444.266479</ele><time>2009-08-22T14:23:20Z</time></trkpt>
<trkpt lat="46.15636032" lon="6.00277849"><ele>444.266479</ele><time>2009-08-22T14:23:21Z</time></trkpt>
<trkpt lat="46.15638404" lon="6.00283968"><ele>444.266479</ele><time>2009-08-22T14:23:22Z</time></trkpt>
<trkpt lat="46.15640424" lon="6.00290456"><ele>444.266479</ele><time>2009-08-22T14:23:23Z</time></trkpt>
<trkpt lat="46.15642352" lon="6.00297036"><ele>444.266479</ele><time>2009-08-22T14:23:24Z</time></trkpt>
<trkpt lat="46.15644322" lon="6.00303565"><ele>444.266479</ele><time>2009-08-22T14:23:25Z</time></trkpt>
<trkpt lat="46.15646618" lon="6.00309835"><ele>444.266479</ele><time>2009-08-22T14:23:26Z</time></trkpt>
<trkpt lat="46.15649183" lon="6.00315895"><ele>444.266479</ele><time>2009-08-22T14:23:27Z</time></trkpt>
<trkpt lat="46.15651807" lon="6.00321989"><ele>444.266479</ele><time>2009-08-22T14:23:28Z</time></trkpt>
<trkpt lat="46.15654506" lon="6.00328166"><ele>444.266479</ele><time>2009-08-22T14:23:29Z</time></trkpt>
<trkpt lat="46.15657230" lon="6.00334452"><ele>444.266479</ele><time>2009-08-22T14:23:30Z</time></trkpt>
<trkpt lat="46.15659988" lon="6.00340764"><ele>444.266479</ele><time>2009-08-22T14:23:31Z</time></trkpt>
<trkpt lat="46.15662762" lon="6.00347034"><ele>444.266479</ele><time>2009-08-22T14:23:32Z</time></trkpt>
<trkpt lat="46.15665453" lon="6.00353329"><ele>444.74707</ele><time>2009-08-22T14:23:33Z</time></trkpt>
<trkpt lat="46.15668026" lon="6.00359632"><ele>444.74707</ele><time>2009-08-22T14:23:34Z</time></trkpt>
<trkpt lat="46.15670557" lon="6.00365943"><ele>444.74707</ele><time>2009-08-22T14:23:35Z</time></trkpt>
<trkpt lat="46.15673147" lon="6.00372146"><ele>444.74707</ele><time>2009-08-22T14:23:36Z</time></trkpt>
<trkpt lat="46.15675754" lon="6.00378290"><ele>444.74707</ele><time>2009-08-22T14:23:37Z</time></trkpt>
<trkpt lat="46.15678344" lon="6.00384459"><ele>444.74707</ele><time>2009-08-22T14:23:38Z</time></trkpt>
<trkpt lat="46.15680917" lon="6.00390628"><ele>444.74707</ele><time>2009-08-22T14:23:39Z</time></trkpt>
<trkpt lat="46.15683516" lon="6.00396814"><ele>444.74707</ele><time>2009-08-22T14:23:40Z</time></trkpt>
<trkpt lat="46.15686139" lon="6.00402983"><ele>444.74707</ele><time>2009-08-22T14:23:41Z</time></trkpt>
<trkpt lat="46.15688846" lon="6.00409077"><ele>444.74707</ele><time>2009-08-22T14:23:42Z</time></trkpt>
<trkpt lat="46.15691562" lon="6.00415120"><ele>444.74707</ele><time>2009-08-22T14:23:43Z</time></trkpt>
<trkpt lat="46.15694236" lon="6.00421306"><ele>444.74707</ele><time>2009-08-22T14:23:44Z</time></trkpt>
<trkpt lat="46.15696910" lon="6.00427659"><ele>444.74707</ele><time>2009-08-22T14:23:45Z</time></trkpt>
<trkpt lat="46.15699634" lon="6.00434138"><ele>444.74707</ele><time>2009-08-22T14:23:46Z</time></trkpt>
<trkpt lat="46.15702417" lon="6.00440676"><ele>445.227661</ele><time>2009-08-22T14:23:47Z</time></trkpt>
<trkpt lat="46.15705208" lon="6.00447147"><ele>445.227661</ele><time>2009-08-22T14:23:48Z</time></trkpt>
<trkpt lat="46.15707949" lon="6.00453593"><ele>445.227661</ele><time>2009-08-22T14:23:49Z</time></trkpt>
<trkpt lat="46.15710698" lon="6.00460039"><ele>445.227661</ele><time>2009-08-22T14:23:50Z</time></trkpt>
<trkpt lat="46.15713439" lon="6.00466476"><ele>445.227661</ele><time>2009-08-22T14:23:51Z</time></trkpt>
<trkpt lat="46.15716155" lon="6.00472938"><ele>445.227661</ele><time>2009-08-22T14:23:52Z</time></trkpt>
<trkpt lat="46.15718912" lon="6.00479367"><ele>445.227661</ele><time>2009-08-22T14:23:53Z</time></trkpt>
<trkpt lat="46.15721754" lon="6.00485788"><ele>445.227661</ele><time>2009-08-22T14:23:54Z</time></trkpt>
<trkpt lat="46.15724537" lon="6.00492200"><ele>445.227661</ele><time>2009-08-22T14:23:55Z</time></trkpt>
<trkpt lat="46.15727336" lon="6.00498696"><ele>445.227661</ele><time>2009-08-22T14:23:56Z</time></trkpt>
<trkpt lat="46.15730127" lon="6.00505284"><ele>445.227661</ele><time>2009-08-22T14:23:57Z</time></trkpt>
<trkpt lat="46.15732918" lon="6.00511956"><ele>445.708374</ele><time>2009-08-22T14:23:58Z</time></trkpt>
<trkpt lat="46.15735768" lon="6.00518695"><ele>445.708374</ele><time>2009-08-22T14:23:59Z</time></trkpt>
<trkpt lat="46.15738618" lon="6.00525409"><ele>445.708374</ele><time>2009-08-22T14:24:00Z</time></trkpt>
<trkpt lat="46.15741443" lon="6.00532106"><ele>445.708374</ele><time>2009-08-22T14:24:01Z</time></trkpt>
<trkpt lat="46.15744318" lon="6.00538812"><ele>445.708374</ele><time>2009-08-22T14:24:02Z</time></trkpt>
<trkpt lat="46.15747193" lon="6.00545517"><ele>445.708374</ele><time>2009-08-22T14:24:03Z</time></trkpt>
<trkpt lat="46.15750068" lon="6.00552198"><ele>445.708374</ele><time>2009-08-22T14:24:04Z</time></trkpt>
<trkpt lat="46.15752960" lon="6.00558853"><ele>445.708374</ele><time>2009-08-22T14:24:05Z</time></trkpt>
<trkpt lat="46.15755835" lon="6.00565500"><ele>445.708374</ele><time>2009-08-22T14:24:06Z</time></trkpt>
<trkpt lat="46.15758668" lon="6.00572163"><ele>445.708374</ele><time>2009-08-22T14:24:07Z</time></trkpt>
<trkpt lat="46.15761484" lon="6.00578827"><ele>445.227661</ele><time>2009-08-22T14:24:08Z</time></trkpt>
<trkpt lat="46.15764242" lon="6.00585289"><ele>445.708374</ele><time>2009-08-22T14:24:09Z</time></trkpt>
<trkpt lat="46.15767033" lon="6.00591676"><ele>445.708374</ele><time>2009-08-22T14:24:10Z</time></trkpt>
<trkpt lat="46.15769782" lon="6.00598088"><ele>445.708374</ele><time>2009-08-22T14:24:11Z</time></trkpt>
<trkpt lat="46.15772506" lon="6.00604492"><ele>445.708374</ele><time>2009-08-22T14:24:12Z</time></trkpt>
<trkpt lat="46.15775272" lon="6.00610997"><ele>445.708374</ele><time>2009-08-22T14:24:13Z</time></trkpt>
<trkpt lat="46.15778030" lon="6.00617467"><ele>445.708374</ele><time>2009-08-22T14:24:14Z</time></trkpt>
<trkpt lat="46.15780779" lon="6.00623938"><ele>445.708374</ele><time>2009-08-22T14:24:15Z</time></trkpt>
<trkpt lat="46.15783562" lon="6.00630384"><ele>445.708374</ele><time>2009-08-22T14:24:16Z</time></trkpt>
<trkpt lat="46.15786378" lon="6.00636880"><ele>445.708374</ele><time>2009-08-22T14:24:17Z</time></trkpt>
<trkpt lat="46.15789178" lon="6.00643426"><ele>445.708374</ele><time>2009-08-22T14:24:18Z</time></trkpt>
<trkpt lat="46.15791977" lon="6.00649998"><ele>445.708374</ele><time>2009-08-22T14:24:19Z</time></trkpt>
<trkpt lat="46.15794819" lon="6.00656619"><ele>445.708374</ele><time>2009-08-22T14:24:20Z</time></trkpt>
<trkpt lat="46.15797627" lon="6.00663249"><ele>445.708374</ele><time>2009-08-22T14:24:21Z</time></trkpt>
<trkpt lat="46.15800326" lon="6.00669695"><ele>445.708374</ele><time>2009-08-22T14:24:22Z</time></trkpt>
<trkpt lat="46.15803192" lon="6.00676250"><ele>445.708374</ele><time>2009-08-22T14:24:23Z</time></trkpt>
<trkpt lat="46.15806042" lon="6.00682754"><ele>445.708374</ele><time>2009-08-22T14:24:24Z</time></trkpt>
<trkpt lat="46.15808833" lon="6.00689292"><ele>445.708374</ele><time>2009-08-22T14:24:25Z</time></trkpt>
<trkpt lat="46.15811625" lon="6.00695847"><ele>445.708374</ele><time>2009-08-22T14:24:26Z</time></trkpt>
<trkpt lat="46.15814474" lon="6.00702368"><ele>445.708374</ele><time>2009-08-22T14:24:27Z</time></trkpt>
<trkpt lat="46.15817274" lon="6.00708813"><ele>445.708374</ele><time>2009-08-22T14:24:28Z</time></trkpt>
<trkpt lat="46.15820048" lon="6.00715309"><ele>446.189087</ele><time>2009-08-22T14:24:29Z</time></trkpt>
<trkpt lat="46.15822806" lon="6.00721864"><ele>446.189087</ele><time>2009-08-22T14:24:30Z</time></trkpt>
<trkpt lat="46.15825547" lon="6.00728486"><ele>446.189087</ele><time>2009-08-22T14:24:31Z</time></trkpt>
<trkpt lat="46.15828338" lon="6.00735149"><ele>446.189087</ele><time>2009-08-22T14:24:32Z</time></trkpt>
<trkpt lat="46.15831163" lon="6.00741754"><ele>446.189087</ele><time>2009-08-22T14:24:33Z</time></trkpt>
<trkpt lat="46.15833996" lon="6.00748292"><ele>446.189087</ele><time>2009-08-22T14:24:34Z</time></trkpt>
<trkpt lat="46.15836787" lon="6.00754805"><ele>446.189087</ele><time>2009-08-22T14:24:35Z</time></trkpt>
<trkpt lat="46.15839553" lon="6.00761309"><ele>446.189087</ele><time>2009-08-22T14:24:36Z</time></trkpt>
<trkpt lat="46.15842302" lon="6.00767763"><ele>446.189087</ele><time>2009-08-22T14:24:37Z</time></trkpt>
<trkpt lat="46.15845068" lon="6.00774234"><ele>446.189087</ele><time>2009-08-22T14:24:38Z</time></trkpt>
<trkpt lat="46.15847968" lon="6.00780772"><ele>446.189087</ele><time>2009-08-22T14:24:39Z</time></trkpt>
<trkpt lat="46.15850885" lon="6.00787318"><ele>446.189087</ele><time>2009-08-22T14:24:40Z</time></trkpt>
<trkpt lat="46.15853727" lon="6.00793932"><ele>446.189087</ele><time>2009-08-22T14:24:41Z</time></trkpt>
<trkpt lat="46.15856535" lon="6.00800587"><ele>446.189087</ele><time>2009-08-22T14:24:42Z</time></trkpt>
<trkpt lat="46.15859334" lon="6.00807234"><ele>446.189087</ele><time>2009-08-22T14:24:43Z</time></trkpt>
<trkpt lat="46.15862126" lon="6.00813914"><ele>446.189087</ele><time>2009-08-22T14:24:44Z</time></trkpt>
<trkpt lat="46.15864942" lon="6.00820569"><ele>446.189087</ele><time>2009-08-22T14:24:45Z</time></trkpt>
<trkpt lat="46.15867725" lon="6.00827057"><ele>446.189087</ele><time>2009-08-22T14:24:46Z</time></trkpt>
<trkpt lat="46.15870474" lon="6.00833586"><ele>446.189087</ele><time>2009-08-22T14:24:47Z</time></trkpt>
<trkpt lat="46.15873248" lon="6.00840124"><ele>446.189087</ele><time>2009-08-22T14:24:48Z</time></trkpt>
<trkpt lat="46.15876023" lon="6.00846637"><ele>446.669678</ele><time>2009-08-22T14:24:49Z</time></trkpt>
<trkpt lat="46.15878772" lon="6.00853116"><ele>446.669678</ele><time>2009-08-22T14:24:50Z</time></trkpt>
<trkpt lat="46.15881546" lon="6.00859562"><ele>446.669678</ele><time>2009-08-22T14:24:51Z</time></trkpt>
<trkpt lat="46.15884296" lon="6.00866058"><ele>446.669678</ele><time>2009-08-22T14:24:52Z</time></trkpt>
<trkpt lat="46.15887045" lon="6.00872629"><ele>446.669678</ele><time>2009-08-22T14:24:53Z</time></trkpt>
<trkpt lat="46.15889786" lon="6.00879134"><ele>446.669678</ele><time>2009-08-22T14:24:54Z</time></trkpt>
<trkpt lat="46.15892535" lon="6.00885579"><ele>446.669678</ele><time>2009-08-22T14:24:55Z</time></trkpt>
<trkpt lat="46.15895293" lon="6.00891975"><ele>446.669678</ele><time>2009-08-22T14:24:56Z</time></trkpt>
<trkpt lat="46.15898076" lon="6.00898337"><ele>447.150269</ele><time>2009-08-22T14:24:57Z</time></trkpt>
<trkpt lat="46.15900875" lon="6.00904682"><ele>447.150269</ele><time>2009-08-22T14:24:58Z</time></trkpt>
<trkpt lat="46.15903649" lon="6.00911127"><ele>447.150269</ele><time>2009-08-22T14:24:59Z</time></trkpt>
<trkpt lat="46.15906407" lon="6.00917548"><ele>447.150269</ele><time>2009-08-22T14:25:00Z</time></trkpt>
<trkpt lat="46.15909140" lon="6.00923943"><ele>447.150269</ele><time>2009-08-22T14:25:01Z</time></trkpt>
<trkpt lat="46.15911813" lon="6.00930347"><ele>447.150269</ele><time>2009-08-22T14:25:02Z</time></trkpt>
<trkpt lat="46.15914496" lon="6.00936709"><ele>447.150269</ele><time>2009-08-22T14:25:03Z</time></trkpt>
<trkpt lat="46.15917228" lon="6.00943062"><ele>447.150269</ele><time>2009-08-22T14:25:04Z</time></trkpt>
<trkpt lat="46.15919977" lon="6.00949483"><ele>447.150269</ele><time>2009-08-22T14:25:05Z</time></trkpt>
<trkpt lat="46.15922769" lon="6.00955937"><ele>447.150269</ele><time>2009-08-22T14:25:06Z</time></trkpt>
<trkpt lat="46.15925560" lon="6.00962332"><ele>447.150269</ele><time>2009-08-22T14:25:07Z</time></trkpt>
<trkpt lat="46.15928284" lon="6.00968694"><ele>447.150269</ele><time>2009-08-22T14:25:08Z</time></trkpt>
<trkpt lat="46.15931008" lon="6.00975039"><ele>447.150269</ele><time>2009-08-22T14:25:09Z</time></trkpt>
<trkpt lat="46.15933707" lon="6.00981410"><ele>447.150269</ele><time>2009-08-22T14:25:10Z</time></trkpt>
<trkpt lat="46.15936398" lon="6.00987713"><ele>447.150269</ele><time>2009-08-22T14:25:11Z</time></trkpt>
<trkpt lat="46.15939097" lon="6.00993966"><ele>447.150269</ele><time>2009-08-22T14:25:12Z</time></trkpt>
<trkpt lat="46.15941804" lon="6.01000277"><ele>447.150269</ele><time>2009-08-22T14:25:13Z</time></trkpt>
<trkpt lat="46.15944528" lon="6.01006606"><ele>447.150269</ele><time>2009-08-22T14:25:14Z</time></trkpt>
<trkpt lat="46.15947244" lon="6.01012976"><ele>447.150269</ele><time>2009-08-22T14:25:15Z</time></trkpt>
<trkpt lat="46.15949926" lon="6.01019355"><ele>447.150269</ele><time>2009-08-22T14:25:16Z</time></trkpt>
<trkpt lat="46.15952633" lon="6.01025708"><ele>447.150269</ele><time>2009-08-22T14:25:17Z</time></trkpt>
<trkpt lat="46.15955399" lon="6.01032070"><ele>447.150269</ele><time>2009-08-22T14:25:18Z</time></trkpt>
<trkpt lat="46.15958123" lon="6.01038415"><ele>447.150269</ele><time>2009-08-22T14:25:19Z</time></trkpt>
<trkpt lat="46.15960873" lon="6.01044743"><ele>447.630981</ele><time>2009-08-22T14:25:20Z</time></trkpt>
<trkpt lat="46.15963656" lon="6.01051105"><ele>447.630981</ele><time>2009-08-22T14:25:21Z</time></trkpt>
<trkpt lat="46.15966346" lon="6.01057517"><ele>447.630981</ele><time>2009-08-22T14:25:22Z</time></trkpt>
<trkpt lat="46.15969003" lon="6.01063896"><ele>447.630981</ele><time>2009-08-22T14:25:23Z</time></trkpt>
<trkpt lat="46.15971727" lon="6.01070233"><ele>447.630981</ele><time>2009-08-22T14:25:24Z</time></trkpt>
<trkpt lat="46.15974468" lon="6.01076603"><ele>447.630981</ele><time>2009-08-22T14:25:25Z</time></trkpt>
<trkpt lat="46.15977209" lon="6.01082990"><ele>447.630981</ele><time>2009-08-22T14:25:26Z</time></trkpt>
<trkpt lat="46.15979933" lon="6.01089369"><ele>447.630981</ele><time>2009-08-22T14:25:27Z</time></trkpt>
<trkpt lat="46.15982716" lon="6.01095722"><ele>447.630981</ele><time>2009-08-22T14:25:28Z</time></trkpt>
<trkpt lat="46.15985432" lon="6.01102042"><ele>447.630981</ele><time>2009-08-22T14:25:29Z</time></trkpt>
<trkpt lat="46.15988139" lon="6.01108404"><ele>447.630981</ele><time>2009-08-22T14:25:30Z</time></trkpt>
<trkpt lat="46.15990796" lon="6.01114724"><ele>447.630981</ele><time>2009-08-22T14:25:31Z</time></trkpt>
<trkpt lat="46.15993487" lon="6.01121027"><ele>447.630981</ele><time>2009-08-22T14:25:32Z</time></trkpt>
<trkpt lat="46.15996236" lon="6.01127422"><ele>447.630981</ele><time>2009-08-22T14:25:33Z</time></trkpt>
<trkpt lat="46.15998994" lon="6.01133868"><ele>447.630981</ele><time>2009-08-22T14:25:34Z</time></trkpt>
<trkpt lat="46.16001793" lon="6.01140347"><ele>447.630981</ele><time>2009-08-22T14:25:35Z</time></trkpt>
<trkpt lat="46.16004593" lon="6.01146902"><ele>447.630981</ele><time>2009-08-22T14:25:36Z</time></trkpt>
<trkpt lat="46.16007367" lon="6.01153465"><ele>447.630981</ele><time>2009-08-22T14:25:37Z</time></trkpt>
<trkpt lat="46.16010183" lon="6.01159927"><ele>447.630981</ele><time>2009-08-22T14:25:38Z</time></trkpt>
<trkpt lat="46.16013067" lon="6.01166340"><ele>447.630981</ele><time>2009-08-22T14:25:39Z</time></trkpt>
<trkpt lat="46.16015866" lon="6.01172836"><ele>447.630981</ele><time>2009-08-22T14:25:40Z</time></trkpt>
<trkpt lat="46.16018666" lon="6.01179399"><ele>447.630981</ele><time>2009-08-22T14:25:41Z</time></trkpt>
<trkpt lat="46.16021533" lon="6.01186012"><ele>447.630981</ele><time>2009-08-22T14:25:42Z</time></trkpt>
<trkpt lat="46.16024424" lon="6.01192717"><ele>447.630981</ele><time>2009-08-22T14:25:43Z</time></trkpt>
<trkpt lat="46.16027308" lon="6.01199448"><ele>447.630981</ele><time>2009-08-22T14:25:44Z</time></trkpt>
<trkpt lat="46.16030199" lon="6.01206145"><ele>447.630981</ele><time>2009-08-22T14:25:45Z</time></trkpt>
<trkpt lat="46.16033058" lon="6.01212834"><ele>447.630981</ele><time>2009-08-22T14:25:46Z</time></trkpt>
<trkpt lat="46.16035908" lon="6.01219556"><ele>447.630981</ele><time>2009-08-22T14:25:47Z</time></trkpt>
<trkpt lat="46.16038757" lon="6.01226253"><ele>447.630981</ele><time>2009-08-22T14:25:48Z</time></trkpt>
<trkpt lat="46.16041624" lon="6.01233009"><ele>447.630981</ele><time>2009-08-22T14:25:49Z</time></trkpt>
<trkpt lat="46.16044516" lon="6.01239807"><ele>448.111816</ele><time>2009-08-22T14:25:50Z</time></trkpt>
<trkpt lat="46.16047382" lon="6.01246580"><ele>448.111816</ele><time>2009-08-22T14:25:51Z</time></trkpt>
<trkpt lat="46.16050207" lon="6.01253344"><ele>448.111816</ele><time>2009-08-22T14:25:52Z</time></trkpt>
<trkpt lat="46.16053099" lon="6.01260133"><ele>448.111816</ele><time>2009-08-22T14:25:53Z</time></trkpt>
<trkpt lat="46.16056016" lon="6.01266914"><ele>448.111816</ele><time>2009-08-22T14:25:54Z</time></trkpt>
<trkpt lat="46.16058958" lon="6.01273779"><ele>448.111816</ele><time>2009-08-22T14:25:55Z</time></trkpt>
<trkpt lat="46.16061866" lon="6.01280702"><ele>448.592407</ele><time>2009-08-22T14:25:56Z</time></trkpt>
<trkpt lat="46.16064800" lon="6.01287676"><ele>448.592407</ele><time>2009-08-22T14:25:57Z</time></trkpt>
<trkpt lat="46.16067776" lon="6.01294675"><ele>448.592407</ele><time>2009-08-22T14:25:58Z</time></trkpt>
<trkpt lat="46.16070810" lon="6.01301674"><ele>448.592407</ele><time>2009-08-22T14:25:59Z</time></trkpt>
<trkpt lat="46.16073827" lon="6.01308689"><ele>449.072998</ele><time>2009-08-22T14:26:00Z</time></trkpt>
<trkpt lat="46.16076820" lon="6.01315722"><ele>449.072998</ele><time>2009-08-22T14:26:01Z</time></trkpt>
<trkpt lat="46.16079753" lon="6.01322763"><ele>449.072998</ele><time>2009-08-22T14:26:02Z</time></trkpt>
<trkpt lat="46.16082704" lon="6.01329795"><ele>449.072998</ele><time>2009-08-22T14:26:03Z</time></trkpt>
<trkpt lat="46.16085637" lon="6.01336702"><ele>449.072998</ele><time>2009-08-22T14:26:04Z</time></trkpt>
<trkpt lat="46.16088722" lon="6.01343499"><ele>448.592407</ele><time>2009-08-22T14:26:05Z</time></trkpt>
<trkpt lat="46.16091773" lon="6.01350146"><ele>448.592407</ele><time>2009-08-22T14:26:06Z</time></trkpt>
<trkpt lat="46.16094665" lon="6.01356894"><ele>448.592407</ele><time>2009-08-22T14:26:07Z</time></trkpt>
<trkpt lat="46.16097498" lon="6.01363566"><ele>448.592407</ele><time>2009-08-22T14:26:08Z</time></trkpt>
<trkpt lat="46.16100289" lon="6.01370255"><ele>448.592407</ele><time>2009-08-22T14:26:09Z</time></trkpt>
<trkpt lat="46.16103072" lon="6.01376818"><ele>448.592407</ele><time>2009-08-22T14:26:10Z</time></trkpt>
<trkpt lat="46.16105930" lon="6.01383305"><ele>448.592407</ele><time>2009-08-22T14:26:11Z</time></trkpt>
<trkpt lat="46.16108662" lon="6.01389818"><ele>448.592407</ele><time>2009-08-22T14:26:12Z</time></trkpt>
<trkpt lat="46.16111378" lon="6.01396255"><ele>448.592407</ele><time>2009-08-22T14:26:13Z</time></trkpt>
<trkpt lat="46.16114119" lon="6.01402558"><ele>448.592407</ele><time>2009-08-22T14:26:14Z</time></trkpt>
<trkpt lat="46.16116835" lon="6.01408887"><ele>448.592407</ele><time>2009-08-22T14:26:15Z</time></trkpt>
<trkpt lat="46.16119475" lon="6.01415316"><ele>448.592407</ele><time>2009-08-22T14:26:16Z</time></trkpt>
<trkpt lat="46.16122132" lon="6.01421753"><ele>449.072998</ele><time>2009-08-22T14:26:17Z</time></trkpt>
<trkpt lat="46.16124873" lon="6.01428157"><ele>449.072998</ele><time>2009-08-22T14:26:18Z</time></trkpt>
<trkpt lat="46.16127647" lon="6.01434502"><ele>449.072998</ele><time>2009-08-22T14:26:19Z</time></trkpt>
<trkpt lat="46.16130346" lon="6.01440914"><ele>449.072998</ele><time>2009-08-22T14:26:20Z</time></trkpt>
<trkpt lat="46.16133062" lon="6.01447360"><ele>449.072998</ele><time>2009-08-22T14:26:21Z</time></trkpt>
<trkpt lat="46.16135904" lon="6.01453763"><ele>449.072998</ele><time>2009-08-22T14:26:22Z</time></trkpt>
<trkpt lat="46.16138737" lon="6.01460226"><ele>449.072998</ele><time>2009-08-22T14:26:23Z</time></trkpt>
<trkpt lat="46.16141452" lon="6.01466722"><ele>449.072998</ele><time>2009-08-22T14:26:24Z</time></trkpt>
<trkpt lat="46.16144177" lon="6.01473184"><ele>449.072998</ele><time>2009-08-22T14:26:25Z</time></trkpt>
<trkpt lat="46.16146959" lon="6.01479588"><ele>449.072998</ele><time>2009-08-22T14:26:26Z</time></trkpt>
<trkpt lat="46.16149675" lon="6.01486017"><ele>449.072998</ele><time>2009-08-22T14:26:27Z</time></trkpt>
<trkpt lat="46.16152475" lon="6.01492429"><ele>449.072998</ele><time>2009-08-22T14:26:28Z</time></trkpt>
<trkpt lat="46.16155274" lon="6.01498883"><ele>449.072998</ele><time>2009-08-22T14:26:29Z</time></trkpt>
<trkpt lat="46.16158057" lon="6.01505354"><ele>449.072998</ele><time>2009-08-22T14:26:30Z</time></trkpt>
<trkpt lat="46.16160857" lon="6.01511758"><ele>449.072998</ele><time>2009-08-22T14:26:31Z</time></trkpt>
<trkpt lat="46.16163648" lon="6.01518120"><ele>449.072998</ele><time>2009-08-22T14:26:32Z</time></trkpt>
<trkpt lat="46.16166397" lon="6.01524549"><ele>449.072998</ele><time>2009-08-22T14:26:33Z</time></trkpt>
<trkpt lat="46.16169163" lon="6.01531003"><ele>449.072998</ele><time>2009-08-22T14:26:34Z</time></trkpt>
<trkpt lat="46.16171904" lon="6.01537507"><ele>449.072998</ele><time>2009-08-22T14:26:35Z</time></trkpt>
<trkpt lat="46.16174636" lon="6.01544129"><ele>449.072998</ele><time>2009-08-22T14:26:36Z</time></trkpt>
<trkpt lat="46.16177402" lon="6.01550415"><ele>449.072998</ele><time>2009-08-22T14:26:37Z</time></trkpt>
<trkpt lat="46.16180143" lon="6.01556668"><ele>449.072998</ele><time>2009-08-22T14:26:38Z</time></trkpt>
<trkpt lat="46.16182884" lon="6.01562929"><ele>449.072998</ele><time>2009-08-22T14:26:39Z</time></trkpt>
<trkpt lat="46.16185709" lon="6.01569107"><ele>449.072998</ele><time>2009-08-22T14:26:40Z</time></trkpt>
<trkpt lat="46.16188517" lon="6.01575326"><ele>448.592407</ele><time>2009-08-22T14:26:41Z</time></trkpt>
<trkpt lat="46.16191274" lon="6.01581587"><ele>448.592407</ele><time>2009-08-22T14:26:42Z</time></trkpt>
<trkpt lat="46.16193973" lon="6.01587874"><ele>448.592407</ele><time>2009-08-22T14:26:43Z</time></trkpt>
<trkpt lat="46.16196706" lon="6.01594043"><ele>448.592407</ele><time>2009-08-22T14:26:44Z</time></trkpt>
<trkpt lat="46.16199464" lon="6.01600204"><ele>448.592407</ele><time>2009-08-22T14:26:45Z</time></trkpt>
<trkpt lat="46.16202188" lon="6.01606390"><ele>448.592407</ele><time>2009-08-22T14:26:46Z</time></trkpt>
<trkpt lat="46.16204778" lon="6.01612894"><ele>448.592407</ele><time>2009-08-22T14:26:47Z</time></trkpt>
<trkpt lat="46.16207862" lon="6.01618476"><ele>448.111816</ele><time>2009-08-22T14:26:48Z</time></trkpt>
<trkpt lat="46.16210653" lon="6.01624612"><ele>448.111816</ele><time>2009-08-22T14:26:49Z</time></trkpt>
<trkpt lat="46.16213436" lon="6.01630948"><ele>448.111816</ele><time>2009-08-22T14:26:50Z</time></trkpt>
<trkpt lat="46.16216152" lon="6.01637428"><ele>448.111816</ele><time>2009-08-22T14:26:51Z</time></trkpt>
<trkpt lat="46.16218943" lon="6.01643798"><ele>448.111816</ele><time>2009-08-22T14:26:52Z</time></trkpt>
<trkpt lat="46.16221810" lon="6.01650059"><ele>448.111816</ele><time>2009-08-22T14:26:53Z</time></trkpt>
<trkpt lat="46.16224618" lon="6.01656488"><ele>448.111816</ele><time>2009-08-22T14:26:54Z</time></trkpt>
<trkpt lat="46.16227317" lon="6.01663118"><ele>448.111816</ele><time>2009-08-22T14:26:55Z</time></trkpt>
<trkpt lat="46.16230024" lon="6.01669706"><ele>448.111816</ele><time>2009-08-22T14:26:56Z</time></trkpt>
<trkpt lat="46.16232849" lon="6.01676253"><ele>448.111816</ele><time>2009-08-22T14:26:57Z</time></trkpt>
<trkpt lat="46.16235699" lon="6.01682774"><ele>448.111816</ele><time>2009-08-22T14:26:58Z</time></trkpt>
<trkpt lat="46.16238523" lon="6.01689278"><ele>448.111816</ele><time>2009-08-22T14:26:59Z</time></trkpt>
<trkpt lat="46.16241306" lon="6.01695774"><ele>448.111816</ele><time>2009-08-22T14:27:00Z</time></trkpt>
<trkpt lat="46.16244055" lon="6.01702245"><ele>448.111816</ele><time>2009-08-22T14:27:01Z</time></trkpt>
<trkpt lat="46.16246796" lon="6.01708707"><ele>448.111816</ele><time>2009-08-22T14:27:02Z</time></trkpt>
<trkpt lat="46.16249554" lon="6.01715128"><ele>448.111816</ele><time>2009-08-22T14:27:03Z</time></trkpt>
<trkpt lat="46.16252253" lon="6.01721548"><ele>448.592407</ele><time>2009-08-22T14:27:04Z</time></trkpt>
<trkpt lat="46.16255027" lon="6.01728246"><ele>448.592407</ele><time>2009-08-22T14:27:05Z</time></trkpt>
<trkpt lat="46.16257827" lon="6.01734725"><ele>448.592407</ele><time>2009-08-22T14:27:06Z</time></trkpt>
<trkpt lat="46.16260559" lon="6.01741145"><ele>449.072998</ele><time>2009-08-22T14:27:07Z</time></trkpt>
<trkpt lat="46.16263216" lon="6.01747474"><ele>449.072998</ele><time>2009-08-22T14:27:08Z</time></trkpt>
<trkpt lat="46.16265924" lon="6.01753584"><ele>449.072998</ele><time>2009-08-22T14:27:09Z</time></trkpt>
<trkpt lat="46.16268815" lon="6.01759057"><ele>449.072998</ele><time>2009-08-22T14:27:10Z</time></trkpt>
<trkpt lat="46.16272202" lon="6.01763718"><ele>448.592407</ele><time>2009-08-22T14:27:11Z</time></trkpt>
<trkpt lat="46.16276007" lon="6.01766953"><ele>448.592407</ele><time>2009-08-22T14:27:12Z</time></trkpt>
<trkpt lat="46.16279762" lon="6.01768873"><ele>448.592407</ele><time>2009-08-22T14:27:13Z</time></trkpt>
<trkpt lat="46.16282704" lon="6.01769904"><ele>448.592407</ele><time>2009-08-22T14:27:14Z</time></trkpt>
<trkpt lat="46.16284548" lon="6.01770826"><ele>449.072998</ele><time>2009-08-22T14:27:15Z</time></trkpt>
<trkpt lat="46.16285898" lon="6.01771806"><ele>448.592407</ele><time>2009-08-22T14:27:16Z</time></trkpt>
<trkpt lat="46.16287155" lon="6.01773508"><ele>448.592407</ele><time>2009-08-22T14:27:17Z</time></trkpt>
<trkpt lat="46.16288840" lon="6.01776349"><ele>448.592407</ele><time>2009-08-22T14:27:18Z</time></trkpt>
<trkpt lat="46.16290877" lon="6.01780146"><ele>448.592407</ele><time>2009-08-22T14:27:19Z</time></trkpt>
<trkpt lat="46.16292737" lon="6.01785276"><ele>448.592407</ele><time>2009-08-22T14:27:20Z</time></trkpt>
<trkpt lat="46.16293525" lon="6.01791663"><ele>448.592407</ele><time>2009-08-22T14:27:21Z</time></trkpt>
<trkpt lat="46.16293324" lon="6.01798746"><ele>448.592407</ele><time>2009-08-22T14:27:22Z</time></trkpt>
<trkpt lat="46.16293265" lon="6.01806063"><ele>448.592407</ele><time>2009-08-22T14:27:23Z</time></trkpt>
<trkpt lat="46.16294204" lon="6.01813423"><ele>449.072998</ele><time>2009-08-22T14:27:24Z</time></trkpt>
<trkpt lat="46.16296316" lon="6.01820379"><ele>449.072998</ele><time>2009-08-22T14:27:25Z</time></trkpt>
<trkpt lat="46.16299074" lon="6.01827043"><ele>449.072998</ele><time>2009-08-22T14:27:26Z</time></trkpt>
<trkpt lat="46.16301882" lon="6.01833598"><ele>449.072998</ele><time>2009-08-22T14:27:27Z</time></trkpt>
<trkpt lat="46.16304732" lon="6.01840270"><ele>449.072998</ele><time>2009-08-22T14:27:28Z</time></trkpt>
<trkpt lat="46.16307607" lon="6.01846967"><ele>449.072998</ele><time>2009-08-22T14:27:29Z</time></trkpt>
<trkpt lat="46.16310482" lon="6.01853689"><ele>448.592407</ele><time>2009-08-22T14:27:30Z</time></trkpt>
<trkpt lat="46.16313315" lon="6.01860604"><ele>448.592407</ele><time>2009-08-22T14:27:31Z</time></trkpt>
<trkpt lat="46.16316307" lon="6.01867712"><ele>448.592407</ele><time>2009-08-22T14:27:32Z</time></trkpt>
<trkpt lat="46.16319518" lon="6.01875155"><ele>448.592407</ele><time>2009-08-22T14:27:33Z</time></trkpt>
<trkpt lat="46.16322854" lon="6.01883126"><ele>448.592407</ele><time>2009-08-22T14:27:34Z</time></trkpt>
<trkpt lat="46.16326332" lon="6.01891483"><ele>448.111816</ele><time>2009-08-22T14:27:35Z</time></trkpt>
<trkpt lat="46.16329878" lon="6.01900209"><ele>448.111816</ele><time>2009-08-22T14:27:36Z</time></trkpt>
<trkpt lat="46.16333306" lon="6.01909286"><ele>448.111816</ele><time>2009-08-22T14:27:37Z</time></trkpt>
<trkpt lat="46.16336684" lon="6.01918548"><ele>448.111816</ele><time>2009-08-22T14:27:38Z</time></trkpt>
<trkpt lat="46.16340229" lon="6.01927735"><ele>448.111816</ele><time>2009-08-22T14:27:39Z</time></trkpt>
<trkpt lat="46.16344026" lon="6.01936729"><ele>448.111816</ele><time>2009-08-22T14:27:40Z</time></trkpt>
<trkpt lat="46.16347932" lon="6.01945672"><ele>447.630981</ele><time>2009-08-22T14:27:41Z</time></trkpt>
<trkpt lat="46.16351830" lon="6.01954674"><ele>447.630981</ele><time>2009-08-22T14:27:42Z</time></trkpt>
<trkpt lat="46.16355686" lon="6.01963727"><ele>447.630981</ele><time>2009-08-22T14:27:43Z</time></trkpt>
<trkpt lat="46.16359600" lon="6.01972712"><ele>447.150269</ele><time>2009-08-22T14:27:44Z</time></trkpt>
<trkpt lat="46.16363388" lon="6.01981865"><ele>447.150269</ele><time>2009-08-22T14:27:45Z</time></trkpt>
<trkpt lat="46.16367227" lon="6.01990817"><ele>447.150269</ele><time>2009-08-22T14:27:46Z</time></trkpt>
<trkpt lat="46.16371125" lon="6.01999543"><ele>446.669678</ele><time>2009-08-22T14:27:47Z</time></trkpt>
<trkpt lat="46.16375014" lon="6.02008218"><ele>446.669678</ele><time>2009-08-22T14:27:48Z</time></trkpt>
<trkpt lat="46.16378836" lon="6.02016944"><ele>446.669678</ele><time>2009-08-22T14:27:49Z</time></trkpt>
<trkpt lat="46.16382575" lon="6.02025753"><ele>446.189087</ele><time>2009-08-22T14:27:50Z</time></trkpt>
<trkpt lat="46.16386330" lon="6.02034445"><ele>446.189087</ele><time>2009-08-22T14:27:51Z</time></trkpt>
<trkpt lat="46.16390018" lon="6.02043020"><ele>446.189087</ele><time>2009-08-22T14:27:52Z</time></trkpt>
<trkpt lat="46.16393597" lon="6.02051427"><ele>445.708374</ele><time>2009-08-22T14:27:53Z</time></trkpt>
<trkpt lat="46.16397142" lon="6.02059658"><ele>445.708374</ele><time>2009-08-22T14:27:54Z</time></trkpt>
<trkpt lat="46.16400487" lon="6.02067755"><ele>445.708374</ele><time>2009-08-22T14:27:55Z</time></trkpt>
<trkpt lat="46.16403806" lon="6.02075416"><ele>445.708374</ele><time>2009-08-22T14:27:56Z</time></trkpt>
<trkpt lat="46.16406974" lon="6.02082943"><ele>445.708374</ele><time>2009-08-22T14:27:57Z</time></trkpt>
<trkpt lat="46.16409950" lon="6.02090386"><ele>445.708374</ele><time>2009-08-22T14:27:58Z</time></trkpt>
<trkpt lat="46.16412775" lon="6.02097653"><ele>445.708374</ele><time>2009-08-22T14:27:59Z</time></trkpt>
<trkpt lat="46.16415633" lon="6.02104694"><ele>445.708374</ele><time>2009-08-22T14:28:00Z</time></trkpt>
<trkpt lat="46.16418516" lon="6.02111734"><ele>445.227661</ele><time>2009-08-22T14:28:01Z</time></trkpt>
<trkpt lat="46.16421525" lon="6.02118893"><ele>445.227661</ele><time>2009-08-22T14:28:02Z</time></trkpt>
<trkpt lat="46.16424635" lon="6.02126135"><ele>445.227661</ele><time>2009-08-22T14:28:03Z</time></trkpt>
<trkpt lat="46.16427745" lon="6.02133536"><ele>445.227661</ele><time>2009-08-22T14:28:04Z</time></trkpt>
<trkpt lat="46.16430947" lon="6.02140945"><ele>445.227661</ele><time>2009-08-22T14:28:05Z</time></trkpt>
<trkpt lat="46.16434157" lon="6.02148472"><ele>445.227661</ele><time>2009-08-22T14:28:06Z</time></trkpt>
<trkpt lat="46.16437292" lon="6.02156108"><ele>445.227661</ele><time>2009-08-22T14:28:07Z</time></trkpt>
<trkpt lat="46.16440443" lon="6.02163685"><ele>445.227661</ele><time>2009-08-22T14:28:08Z</time></trkpt>
<trkpt lat="46.16443662" lon="6.02171279"><ele>445.708374</ele><time>2009-08-22T14:28:09Z</time></trkpt>
<trkpt lat="46.16446906" lon="6.02178957"><ele>445.708374</ele><time>2009-08-22T14:28:10Z</time></trkpt>
<trkpt lat="46.16450124" lon="6.02186702"><ele>445.708374</ele><time>2009-08-22T14:28:11Z</time></trkpt>
<trkpt lat="46.16453393" lon="6.02194464"><ele>446.189087</ele><time>2009-08-22T14:28:12Z</time></trkpt>
<trkpt lat="46.16456637" lon="6.02202217"><ele>446.189087</ele><time>2009-08-22T14:28:13Z</time></trkpt>
<trkpt lat="46.16459814" lon="6.02209937"><ele>446.189087</ele><time>2009-08-22T14:28:14Z</time></trkpt>
<trkpt lat="46.16462915" lon="6.02217598"><ele>446.189087</ele><time>2009-08-22T14:28:15Z</time></trkpt>
<trkpt lat="46.16465983" lon="6.02225116"><ele>446.669678</ele><time>2009-08-22T14:28:16Z</time></trkpt>
<trkpt lat="46.16469059" lon="6.02232509"><ele>446.669678</ele><time>2009-08-22T14:28:17Z</time></trkpt>
<trkpt lat="46.16472102" lon="6.02239827"><ele>446.669678</ele><time>2009-08-22T14:28:18Z</time></trkpt>
<trkpt lat="46.16475119" lon="6.02247027"><ele>447.150269</ele><time>2009-08-22T14:28:19Z</time></trkpt>
<trkpt lat="46.16478120" lon="6.02254126"><ele>447.150269</ele><time>2009-08-22T14:28:20Z</time></trkpt>
<trkpt lat="46.16481062" lon="6.02261242"><ele>447.150269</ele><time>2009-08-22T14:28:21Z</time></trkpt>
<trkpt lat="46.16483996" lon="6.02268283"><ele>447.630981</ele><time>2009-08-22T14:28:22Z</time></trkpt>
<trkpt lat="46.16486963" lon="6.02275056"><ele>447.630981</ele><time>2009-08-22T14:28:23Z</time></trkpt>
<trkpt lat="46.16489888" lon="6.02281719"><ele>447.630981</ele><time>2009-08-22T14:28:24Z</time></trkpt>
<trkpt lat="46.16492730" lon="6.02288333"><ele>447.630981</ele><time>2009-08-22T14:28:25Z</time></trkpt>
<trkpt lat="46.16495538" lon="6.02294904"><ele>447.630981</ele><time>2009-08-22T14:28:26Z</time></trkpt>
<trkpt lat="46.16498262" lon="6.02301492"><ele>447.630981</ele><time>2009-08-22T14:28:27Z</time></trkpt>
<trkpt lat="46.16500902" lon="6.02307980"><ele>448.111816</ele><time>2009-08-22T14:28:28Z</time></trkpt>
<trkpt lat="46.16503668" lon="6.02314535"><ele>448.111816</ele><time>2009-08-22T14:28:29Z</time></trkpt>
<trkpt lat="46.16506426" lon="6.02321106"><ele>448.111816</ele><time>2009-08-22T14:28:30Z</time></trkpt>
<trkpt lat="46.16510248" lon="6.02327225"><ele>448.111816</ele><time>2009-08-22T14:28:31Z</time></trkpt>
<trkpt lat="46.16513743" lon="6.02333494"><ele>447.630981</ele><time>2009-08-22T14:28:32Z</time></trkpt>
<trkpt lat="46.16516920" lon="6.02339974"><ele>447.630981</ele><time>2009-08-22T14:28:33Z</time></trkpt>
<trkpt lat="46.16519376" lon="6.02344927"><ele>447.630981</ele><time>2009-08-22T14:28:34Z</time></trkpt>
<trkpt lat="46.16521773" lon="6.02350443"><ele>447.630981</ele><time>2009-08-22T14:28:35Z</time></trkpt>
<trkpt lat="46.16523617" lon="6.02356059"><ele>447.630981</ele><time>2009-08-22T14:28:36Z</time></trkpt>
<trkpt lat="46.16525855" lon="6.02362278"><ele>448.111816</ele><time>2009-08-22T14:28:37Z</time></trkpt>
<trkpt lat="46.16528076" lon="6.02368958"><ele>448.111816</ele><time>2009-08-22T14:28:38Z</time></trkpt>
<trkpt lat="46.16530582" lon="6.02375614"><ele>448.111816</ele><time>2009-08-22T14:28:39Z</time></trkpt>
<trkpt lat="46.16533172" lon="6.02382135"><ele>448.111816</ele><time>2009-08-22T14:28:40Z</time></trkpt>
<trkpt lat="46.16535620" lon="6.02388354"><ele>448.592407</ele><time>2009-08-22T14:28:41Z</time></trkpt>
<trkpt lat="46.16537992" lon="6.02394666"><ele>448.592407</ele><time>2009-08-22T14:28:42Z</time></trkpt>
<trkpt lat="46.16540448" lon="6.02401229"><ele>448.592407</ele><time>2009-08-22T14:28:43Z</time></trkpt>
<trkpt lat="46.16542837" lon="6.02407507"><ele>449.072998</ele><time>2009-08-22T14:28:44Z</time></trkpt>
<trkpt lat="46.16545343" lon="6.02413986"><ele>449.553711</ele><time>2009-08-22T14:28:45Z</time></trkpt>
<trkpt lat="46.16547883" lon="6.02421127"><ele>449.553711</ele><time>2009-08-22T14:28:46Z</time></trkpt>
<trkpt lat="46.16550406" lon="6.02428210"><ele>450.034424</ele><time>2009-08-22T14:28:47Z</time></trkpt>
<trkpt lat="46.16552895" lon="6.02435318"><ele>450.034424</ele><time>2009-08-22T14:28:48Z</time></trkpt>
<trkpt lat="46.16555368" lon="6.02441923"><ele>450.515015</ele><time>2009-08-22T14:28:49Z</time></trkpt>
<trkpt lat="46.16557748" lon="6.02448519"><ele>450.995605</ele><time>2009-08-22T14:28:50Z</time></trkpt>
<trkpt lat="46.16560179" lon="6.02454940"><ele>450.995605</ele><time>2009-08-22T14:28:51Z</time></trkpt>
<trkpt lat="46.16562543" lon="6.02461335"><ele>450.995605</ele><time>2009-08-22T14:28:52Z</time></trkpt>
<trkpt lat="46.16564940" lon="6.02467722"><ele>450.995605</ele><time>2009-08-22T14:28:53Z</time></trkpt>
<trkpt lat="46.16567329" lon="6.02473933"><ele>451.476318</ele><time>2009-08-22T14:28:54Z</time></trkpt>
<trkpt lat="46.16569709" lon="6.02480245"><ele>451.476318</ele><time>2009-08-22T14:28:55Z</time></trkpt>
<trkpt lat="46.16572115" lon="6.02486615"><ele>451.476318</ele><time>2009-08-22T14:28:56Z</time></trkpt>
<trkpt lat="46.16574529" lon="6.02493027"><ele>451.476318</ele><time>2009-08-22T14:28:57Z</time></trkpt>
<trkpt lat="46.16576926" lon="6.02499356"><ele>451.476318</ele><time>2009-08-22T14:28:58Z</time></trkpt>
<trkpt lat="46.16579533" lon="6.02505382"><ele>451.476318</ele><time>2009-08-22T14:28:59Z</time></trkpt>
<trkpt lat="46.16582818" lon="6.02510084"><ele>451.957031</ele><time>2009-08-22T14:29:00Z</time></trkpt>
<trkpt lat="46.16586716" lon="6.02512700"><ele>451.957031</ele><time>2009-08-22T14:29:01Z</time></trkpt>
<trkpt lat="46.16590664" lon="6.02514284"><ele>451.957031</ele><time>2009-08-22T14:29:02Z</time></trkpt>
<trkpt lat="46.16594058" lon="6.02517033"><ele>451.957031</ele><time>2009-08-22T14:29:03Z</time></trkpt>
<trkpt lat="46.16596724" lon="6.02520696"><ele>451.957031</ele><time>2009-08-22T14:29:04Z</time></trkpt>
<trkpt lat="46.16599138" lon="6.02524962"><ele>451.476318</ele><time>2009-08-22T14:29:05Z</time></trkpt>
<trkpt lat="46.16600865" lon="6.02529832"><ele>451.476318</ele><time>2009-08-22T14:29:06Z</time></trkpt>
<trkpt lat="46.16601267" lon="6.02535029"><ele>451.476318</ele><time>2009-08-22T14:29:07Z</time></trkpt>
<trkpt lat="46.16600487" lon="6.02540527"><ele>451.476318</ele><time>2009-08-22T14:29:08Z</time></trkpt>
<trkpt lat="46.16599616" lon="6.02546168"><ele>451.476318</ele><time>2009-08-22T14:29:09Z</time></trkpt>
<trkpt lat="46.16599398" lon="6.02552203"><ele>451.476318</ele><time>2009-08-22T14:29:10Z</time></trkpt>
<trkpt lat="46.16600286" lon="6.02558364"><ele>450.995605</ele><time>2009-08-22T14:29:11Z</time></trkpt>
<trkpt lat="46.16602063" lon="6.02564567"><ele>450.995605</ele><time>2009-08-22T14:29:12Z</time></trkpt>
<trkpt lat="46.16604318" lon="6.02570828"><ele>450.995605</ele><time>2009-08-22T14:29:13Z</time></trkpt>
<trkpt lat="46.16606715" lon="6.02577198"><ele>451.476318</ele><time>2009-08-22T14:29:14Z</time></trkpt>
<trkpt lat="46.16609104" lon="6.02583719"><ele>451.476318</ele><time>2009-08-22T14:29:15Z</time></trkpt>
<trkpt lat="46.16611484" lon="6.02590358"><ele>451.476318</ele><time>2009-08-22T14:29:16Z</time></trkpt>
<trkpt lat="46.16613907" lon="6.02597047"><ele>451.476318</ele><time>2009-08-22T14:29:17Z</time></trkpt>
<trkpt lat="46.16616354" lon="6.02603844"><ele>451.476318</ele><time>2009-08-22T14:29:18Z</time></trkpt>
<trkpt lat="46.16618894" lon="6.02610676"><ele>451.476318</ele><time>2009-08-22T14:29:19Z</time></trkpt>
<trkpt lat="46.16621417" lon="6.02617482"><ele>451.476318</ele><time>2009-08-22T14:29:20Z</time></trkpt>
<trkpt lat="46.16623814" lon="6.02624439"><ele>451.957031</ele><time>2009-08-22T14:29:21Z</time></trkpt>
<trkpt lat="46.16626228" lon="6.02631513"><ele>451.957031</ele><time>2009-08-22T14:29:22Z</time></trkpt>
<trkpt lat="46.16628743" lon="6.02638495"><ele>451.957031</ele><time>2009-08-22T14:29:23Z</time></trkpt>
<trkpt lat="46.16631282" lon="6.02645452"><ele>451.957031</ele><time>2009-08-22T14:29:24Z</time></trkpt>
<trkpt lat="46.16633847" lon="6.02652275"><ele>451.957031</ele><time>2009-08-22T14:29:25Z</time></trkpt>
<trkpt lat="46.16636404" lon="6.02658972"><ele>451.476318</ele><time>2009-08-22T14:29:26Z</time></trkpt>
<trkpt lat="46.16638969" lon="6.02665912"><ele>451.476318</ele><time>2009-08-22T14:29:27Z</time></trkpt>
<trkpt lat="46.16641542" lon="6.02672878"><ele>451.476318</ele><time>2009-08-22T14:29:28Z</time></trkpt>
<trkpt lat="46.16644124" lon="6.02679835"><ele>451.476318</ele><time>2009-08-22T14:29:29Z</time></trkpt>
<trkpt lat="46.16646630" lon="6.02686934"><ele>451.476318</ele><time>2009-08-22T14:29:30Z</time></trkpt>
<trkpt lat="46.16649144" lon="6.02694008"><ele>451.476318</ele><time>2009-08-22T14:29:31Z</time></trkpt>
<trkpt lat="46.16651659" lon="6.02701133"><ele>451.476318</ele><time>2009-08-22T14:29:32Z</time></trkpt>
<trkpt lat="46.16654123" lon="6.02708367"><ele>451.476318</ele><time>2009-08-22T14:29:33Z</time></trkpt>
<trkpt lat="46.16656596" lon="6.02715625"><ele>451.476318</ele><time>2009-08-22T14:29:34Z</time></trkpt>
<trkpt lat="46.16659094" lon="6.02722867"><ele>451.476318</ele><time>2009-08-22T14:29:35Z</time></trkpt>
<trkpt lat="46.16661457" lon="6.02730302"><ele>451.476318</ele><time>2009-08-22T14:29:36Z</time></trkpt>
<trkpt lat="46.16663796" lon="6.02737779"><ele>451.957031</ele><time>2009-08-22T14:29:37Z</time></trkpt>
<trkpt lat="46.16666126" lon="6.02745222"><ele>451.957031</ele><time>2009-08-22T14:29:38Z</time></trkpt>
<trkpt lat="46.16668507" lon="6.02752590"><ele>451.957031</ele><time>2009-08-22T14:29:39Z</time></trkpt>
<trkpt lat="46.16670879" lon="6.02759957"><ele>452.437622</ele><time>2009-08-22T14:29:40Z</time></trkpt>
<trkpt lat="46.16673267" lon="6.02767250"><ele>452.437622</ele><time>2009-08-22T14:29:41Z</time></trkpt>
<trkpt lat="46.16675723" lon="6.02774332"><ele>452.437622</ele><time>2009-08-22T14:29:42Z</time></trkpt>
<trkpt lat="46.16678146" lon="6.02781340"><ele>452.437622</ele><time>2009-08-22T14:29:43Z</time></trkpt>
<trkpt lat="46.16680509" lon="6.02788204"><ele>452.437622</ele><time>2009-08-22T14:29:44Z</time></trkpt>
<trkpt lat="46.16682898" lon="6.02795002"><ele>452.437622</ele><time>2009-08-22T14:29:45Z</time></trkpt>
<trkpt lat="46.16685295" lon="6.02801766"><ele>452.437622</ele><time>2009-08-22T14:29:46Z</time></trkpt>
<trkpt lat="46.16687642" lon="6.02808522"><ele>452.437622</ele><time>2009-08-22T14:29:47Z</time></trkpt>
<trkpt lat="46.16689872" lon="6.02815496"><ele>452.437622</ele><time>2009-08-22T14:29:48Z</time></trkpt>
<trkpt lat="46.16692093" lon="6.02822444"><ele>452.437622</ele><time>2009-08-22T14:29:49Z</time></trkpt>
<trkpt lat="46.16694314" lon="6.02829468"><ele>452.918213</ele><time>2009-08-22T14:29:50Z</time></trkpt>
<trkpt lat="46.16696569" lon="6.02836518"><ele>452.918213</ele><time>2009-08-22T14:29:51Z</time></trkpt>
<trkpt lat="46.16698874" lon="6.02843575"><ele>452.918213</ele><time>2009-08-22T14:29:52Z</time></trkpt>
<trkpt lat="46.16701196" lon="6.02850675"><ele>452.918213</ele><time>2009-08-22T14:29:53Z</time></trkpt>
<trkpt lat="46.16703484" lon="6.02857816"><ele>452.918213</ele><time>2009-08-22T14:29:54Z</time></trkpt>
<trkpt lat="46.16705764" lon="6.02865117"><ele>453.398926</ele><time>2009-08-22T14:29:55Z</time></trkpt>
<trkpt lat="46.16708362" lon="6.02871847"><ele>452.918213</ele><time>2009-08-22T14:29:56Z</time></trkpt>
<trkpt lat="46.16710919" lon="6.02878762"><ele>452.918213</ele><time>2009-08-22T14:29:57Z</time></trkpt>
<trkpt lat="46.16713375" lon="6.02885803"><ele>452.918213</ele><time>2009-08-22T14:29:58Z</time></trkpt>
<trkpt lat="46.16715713" lon="6.02892894"><ele>452.918213</ele><time>2009-08-22T14:29:59Z</time></trkpt>
<trkpt lat="46.16718044" lon="6.02900002"><ele>452.918213</ele><time>2009-08-22T14:30:00Z</time></trkpt>
<trkpt lat="46.16720416" lon="6.02907085"><ele>452.918213</ele><time>2009-08-22T14:30:01Z</time></trkpt>
<trkpt lat="46.16722754" lon="6.02914176"><ele>452.918213</ele><time>2009-08-22T14:30:02Z</time></trkpt>
<trkpt lat="46.16725076" lon="6.02921259"><ele>452.918213</ele><time>2009-08-22T14:30:03Z</time></trkpt>
<trkpt lat="46.16727448" lon="6.02928274"><ele>452.918213</ele><time>2009-08-22T14:30:04Z</time></trkpt>
<trkpt lat="46.16729795" lon="6.02935315"><ele>452.918213</ele><time>2009-08-22T14:30:05Z</time></trkpt>
<trkpt lat="46.16732108" lon="6.02942373"><ele>452.918213</ele><time>2009-08-22T14:30:06Z</time></trkpt>
<trkpt lat="46.16734422" lon="6.02949413"><ele>452.918213</ele><time>2009-08-22T14:30:07Z</time></trkpt>
<trkpt lat="46.16736727" lon="6.02956446"><ele>452.918213</ele><time>2009-08-22T14:30:08Z</time></trkpt>
<trkpt lat="46.16739023" lon="6.02963529"><ele>452.918213</ele><time>2009-08-22T14:30:09Z</time></trkpt>
<trkpt lat="46.16741303" lon="6.02970653"><ele>452.918213</ele><time>2009-08-22T14:30:10Z</time></trkpt>
<trkpt lat="46.16743600" lon="6.02977837"><ele>453.398926</ele><time>2009-08-22T14:30:11Z</time></trkpt>
<trkpt lat="46.16745913" lon="6.02985037"><ele>453.398926</ele><time>2009-08-22T14:30:12Z</time></trkpt>
<trkpt lat="46.16748252" lon="6.02992253"><ele>453.398926</ele><time>2009-08-22T14:30:13Z</time></trkpt>
<trkpt lat="46.16750666" lon="6.02999445"><ele>453.398926</ele><time>2009-08-22T14:30:14Z</time></trkpt>
<trkpt lat="46.16753038" lon="6.03006620"><ele>452.918213</ele><time>2009-08-22T14:30:15Z</time></trkpt>
<trkpt lat="46.16755377" lon="6.03013862"><ele>452.918213</ele><time>2009-08-22T14:30:16Z</time></trkpt>
<trkpt lat="46.16757707" lon="6.03021129"><ele>452.918213</ele><time>2009-08-22T14:30:17Z</time></trkpt>
<trkpt lat="46.16760146" lon="6.03028237"><ele>452.918213</ele><time>2009-08-22T14:30:18Z</time></trkpt>
<trkpt lat="46.16762526" lon="6.03035462"><ele>452.918213</ele><time>2009-08-22T14:30:19Z</time></trkpt>
<trkpt lat="46.16764907" lon="6.03042779"><ele>452.918213</ele><time>2009-08-22T14:30:20Z</time></trkpt>
<trkpt lat="46.16767312" lon="6.03050072"><ele>452.918213</ele><time>2009-08-22T14:30:21Z</time></trkpt>
<trkpt lat="46.16769718" lon="6.03057347"><ele>452.918213</ele><time>2009-08-22T14:30:22Z</time></trkpt>
<trkpt lat="46.16772098" lon="6.03064598"><ele>452.918213</ele><time>2009-08-22T14:30:23Z</time></trkpt>
<trkpt lat="46.16774429" lon="6.03071848"><ele>452.918213</ele><time>2009-08-22T14:30:24Z</time></trkpt>
<trkpt lat="46.16776767" lon="6.03079149"><ele>452.918213</ele><time>2009-08-22T14:30:25Z</time></trkpt>
<trkpt lat="46.16779123" lon="6.03086416"><ele>452.918213</ele><time>2009-08-22T14:30:26Z</time></trkpt>
<trkpt lat="46.16781478" lon="6.03093683"><ele>452.918213</ele><time>2009-08-22T14:30:27Z</time></trkpt>
<trkpt lat="46.16783816" lon="6.03100983"><ele>452.918213</ele><time>2009-08-22T14:30:28Z</time></trkpt>
<trkpt lat="46.16786205" lon="6.03108360"><ele>452.918213</ele><time>2009-08-22T14:30:29Z</time></trkpt>
<trkpt lat="46.16788594" lon="6.03115627"><ele>452.918213</ele><time>2009-08-22T14:30:30Z</time></trkpt>
<trkpt lat="46.16790924" lon="6.03122969"><ele>452.918213</ele><time>2009-08-22T14:30:31Z</time></trkpt>
<trkpt lat="46.16793254" lon="6.03130412"><ele>452.918213</ele><time>2009-08-22T14:30:32Z</time></trkpt>
<trkpt lat="46.16795593" lon="6.03137906"><ele>453.398926</ele><time>2009-08-22T14:30:33Z</time></trkpt>
<trkpt lat="46.16797957" lon="6.03145315"><ele>453.398926</ele><time>2009-08-22T14:30:34Z</time></trkpt>
<trkpt lat="46.16800304" lon="6.03152675"><ele>453.398926</ele><time>2009-08-22T14:30:35Z</time></trkpt>
<trkpt lat="46.16802625" lon="6.03159908"><ele>453.398926</ele><time>2009-08-22T14:30:36Z</time></trkpt>
<trkpt lat="46.16804972" lon="6.03167008"><ele>453.398926</ele><time>2009-08-22T14:30:37Z</time></trkpt>
<trkpt lat="46.16807319" lon="6.03174258"><ele>453.398926</ele><time>2009-08-22T14:30:38Z</time></trkpt>
<trkpt lat="46.16809683" lon="6.03181525"><ele>453.398926</ele><time>2009-08-22T14:30:39Z</time></trkpt>
<trkpt lat="46.16812147" lon="6.03188742"><ele>453.398926</ele><time>2009-08-22T14:30:40Z</time></trkpt>
<trkpt lat="46.16814620" lon="6.03196110"><ele>453.398926</ele><time>2009-08-22T14:30:41Z</time></trkpt>
<trkpt lat="46.16817067" lon="6.03203553"><ele>453.398926</ele><time>2009-08-22T14:30:42Z</time></trkpt>
<trkpt lat="46.16819498" lon="6.03211046"><ele>453.398926</ele><time>2009-08-22T14:30:43Z</time></trkpt>
<trkpt lat="46.16822038" lon="6.03218464"><ele>453.398926</ele><time>2009-08-22T14:30:44Z</time></trkpt>
<trkpt lat="46.16824527" lon="6.03226050"><ele>453.398926</ele><time>2009-08-22T14:30:45Z</time></trkpt>
<trkpt lat="46.16826958" lon="6.03233635"><ele>453.398926</ele><time>2009-08-22T14:30:46Z</time></trkpt>
<trkpt lat="46.16829364" lon="6.03241280"><ele>453.398926</ele><time>2009-08-22T14:30:47Z</time></trkpt>
<trkpt lat="46.16831853" lon="6.03248882"><ele>453.398926</ele><time>2009-08-22T14:30:48Z</time></trkpt>
<trkpt lat="46.16834342" lon="6.03256560"><ele>453.398926</ele><time>2009-08-22T14:30:49Z</time></trkpt>
<trkpt lat="46.16836958" lon="6.03264037"><ele>453.398926</ele><time>2009-08-22T14:30:50Z</time></trkpt>
<trkpt lat="46.16839598" lon="6.03271480"><ele>452.918213</ele><time>2009-08-22T14:30:51Z</time></trkpt>
<trkpt lat="46.16842272" lon="6.03278873"><ele>452.918213</ele><time>2009-08-22T14:30:52Z</time></trkpt>
<trkpt lat="46.16844987" lon="6.03286299"><ele>452.918213</ele><time>2009-08-22T14:30:53Z</time></trkpt>
<trkpt lat="46.16847670" lon="6.03293792"><ele>452.918213</ele><time>2009-08-22T14:30:54Z</time></trkpt>
<trkpt lat="46.16850327" lon="6.03301294"><ele>452.437622</ele><time>2009-08-22T14:30:55Z</time></trkpt>
<trkpt lat="46.16853009" lon="6.03308704"><ele>452.437622</ele><time>2009-08-22T14:30:56Z</time></trkpt>
<trkpt lat="46.16855725" lon="6.03315937"><ele>452.437622</ele><time>2009-08-22T14:30:57Z</time></trkpt>
<trkpt lat="46.16858306" lon="6.03323364"><ele>452.437622</ele><time>2009-08-22T14:30:58Z</time></trkpt>
<trkpt lat="46.16860804" lon="6.03330765"><ele>452.437622</ele><time>2009-08-22T14:30:59Z</time></trkpt>
<trkpt lat="46.16863302" lon="6.03338166"><ele>452.437622</ele><time>2009-08-22T14:31:00Z</time></trkpt>
<trkpt lat="46.16865783" lon="6.03345593"><ele>452.437622</ele><time>2009-08-22T14:31:01Z</time></trkpt>
<trkpt lat="46.16868272" lon="6.03352927"><ele>452.437622</ele><time>2009-08-22T14:31:02Z</time></trkpt>
<trkpt lat="46.16870787" lon="6.03360194"><ele>452.437622</ele><time>2009-08-22T14:31:03Z</time></trkpt>
<trkpt lat="46.16873335" lon="6.03367528"><ele>452.437622</ele><time>2009-08-22T14:31:04Z</time></trkpt>
<trkpt lat="46.16875925" lon="6.03374929"><ele>452.918213</ele><time>2009-08-22T14:31:05Z</time></trkpt>
<trkpt lat="46.16878565" lon="6.03382314"><ele>452.918213</ele><time>2009-08-22T14:31:06Z</time></trkpt>
<trkpt lat="46.16881214" lon="6.03389765"><ele>452.918213</ele><time>2009-08-22T14:31:07Z</time></trkpt>
<trkpt lat="46.16883854" lon="6.03397032"><ele>452.918213</ele><time>2009-08-22T14:31:08Z</time></trkpt>
<trkpt lat="46.16886503" lon="6.03404467"><ele>452.918213</ele><time>2009-08-22T14:31:09Z</time></trkpt>
<trkpt lat="46.16889169" lon="6.03412027"><ele>452.918213</ele><time>2009-08-22T14:31:10Z</time></trkpt>
<trkpt lat="46.16891876" lon="6.03419588"><ele>452.918213</ele><time>2009-08-22T14:31:11Z</time></trkpt>
<trkpt lat="46.16894608" lon="6.03427224"><ele>452.918213</ele><time>2009-08-22T14:31:12Z</time></trkpt>
<trkpt lat="46.16897316" lon="6.03434918"><ele>452.918213</ele><time>2009-08-22T14:31:13Z</time></trkpt>
<trkpt lat="46.16900099" lon="6.03442554"><ele>452.918213</ele><time>2009-08-22T14:31:14Z</time></trkpt>
<trkpt lat="46.16902948" lon="6.03450140"><ele>452.918213</ele><time>2009-08-22T14:31:15Z</time></trkpt>
<trkpt lat="46.16905798" lon="6.03457818"><ele>452.918213</ele><time>2009-08-22T14:31:16Z</time></trkpt>
<trkpt lat="46.16908673" lon="6.03465454"><ele>452.918213</ele><time>2009-08-22T14:31:17Z</time></trkpt>
<trkpt lat="46.16911548" lon="6.03473098"><ele>452.918213</ele><time>2009-08-22T14:31:18Z</time></trkpt>
<trkpt lat="46.16914390" lon="6.03480952"><ele>453.398926</ele><time>2009-08-22T14:31:19Z</time></trkpt>
<trkpt lat="46.16917214" lon="6.03488755"><ele>453.398926</ele><time>2009-08-22T14:31:20Z</time></trkpt>
<trkpt lat="46.16920274" lon="6.03496157"><ele>452.918213</ele><time>2009-08-22T14:31:21Z</time></trkpt>
<trkpt lat="46.16923392" lon="6.03503223"><ele>452.918213</ele><time>2009-08-22T14:31:22Z</time></trkpt>
<trkpt lat="46.16926468" lon="6.03510322"><ele>452.918213</ele><time>2009-08-22T14:31:23Z</time></trkpt>
<trkpt lat="46.16929435" lon="6.03517489"><ele>452.918213</ele><time>2009-08-22T14:31:24Z</time></trkpt>
<trkpt lat="46.16932469" lon="6.03524647"><ele>452.437622</ele><time>2009-08-22T14:31:25Z</time></trkpt>
<trkpt lat="46.16935529" lon="6.03531813"><ele>452.437622</ele><time>2009-08-22T14:31:26Z</time></trkpt>
<trkpt lat="46.16938496" lon="6.03539240"><ele>452.437622</ele><time>2009-08-22T14:31:27Z</time></trkpt>
<trkpt lat="46.16941656" lon="6.03546406"><ele>452.437622</ele><time>2009-08-22T14:31:28Z</time></trkpt>
<trkpt lat="46.16944824" lon="6.03553548"><ele>451.957031</ele><time>2009-08-22T14:31:29Z</time></trkpt>
<trkpt lat="46.16947993" lon="6.03560714"><ele>451.957031</ele><time>2009-08-22T14:31:30Z</time></trkpt>
<trkpt lat="46.16951178" lon="6.03567990"><ele>451.476318</ele><time>2009-08-22T14:31:31Z</time></trkpt>
<trkpt lat="46.16954396" lon="6.03574879"><ele>451.476318</ele><time>2009-08-22T14:31:32Z</time></trkpt>
<trkpt lat="46.16957515" lon="6.03581887"><ele>450.995605</ele><time>2009-08-22T14:31:33Z</time></trkpt>
<trkpt lat="46.16960616" lon="6.03589145"><ele>450.995605</ele><time>2009-08-22T14:31:34Z</time></trkpt>
<trkpt lat="46.16963784" lon="6.03596329"><ele>450.995605</ele><time>2009-08-22T14:31:35Z</time></trkpt>
<trkpt lat="46.16966927" lon="6.03603420"><ele>450.995605</ele><time>2009-08-22T14:31:36Z</time></trkpt>
<trkpt lat="46.16970104" lon="6.03610603"><ele>450.995605</ele><time>2009-08-22T14:31:37Z</time></trkpt>
<trkpt lat="46.16973273" lon="6.03617853"><ele>450.995605</ele><time>2009-08-22T14:31:38Z</time></trkpt>
<trkpt lat="46.16976449" lon="6.03625137"><ele>450.995605</ele><time>2009-08-22T14:31:39Z</time></trkpt>
<trkpt lat="46.16979718" lon="6.03632396"><ele>450.995605</ele><time>2009-08-22T14:31:40Z</time></trkpt>
<trkpt lat="46.16983004" lon="6.03639705"><ele>450.995605</ele><time>2009-08-22T14:31:41Z</time></trkpt>
<trkpt lat="46.16986273" lon="6.03647023"><ele>450.995605</ele><time>2009-08-22T14:31:42Z</time></trkpt>
<trkpt lat="46.16989525" lon="6.03654348"><ele>450.995605</ele><time>2009-08-22T14:31:43Z</time></trkpt>
<trkpt lat="46.16992769" lon="6.03661699"><ele>450.995605</ele><time>2009-08-22T14:31:44Z</time></trkpt>
<trkpt lat="46.16996038" lon="6.03669067"><ele>450.995605</ele><time>2009-08-22T14:31:45Z</time></trkpt>
<trkpt lat="46.16999407" lon="6.03676384"><ele>450.995605</ele><time>2009-08-22T14:31:46Z</time></trkpt>
<trkpt lat="46.17002752" lon="6.03683844"><ele>450.995605</ele><time>2009-08-22T14:31:47Z</time></trkpt>
<trkpt lat="46.17006113" lon="6.03691254"><ele>450.995605</ele><time>2009-08-22T14:31:48Z</time></trkpt>
<trkpt lat="46.17009474" lon="6.03698630"><ele>450.995605</ele><time>2009-08-22T14:31:49Z</time></trkpt>
<trkpt lat="46.17012835" lon="6.03705947"><ele>450.995605</ele><time>2009-08-22T14:31:50Z</time></trkpt>
<trkpt lat="46.17016129" lon="6.03713206"><ele>450.995605</ele><time>2009-08-22T14:31:51Z</time></trkpt>
<trkpt lat="46.17019448" lon="6.03720465"><ele>450.995605</ele><time>2009-08-22T14:31:52Z</time></trkpt>
<trkpt lat="46.17022717" lon="6.03727573"><ele>450.995605</ele><time>2009-08-22T14:31:53Z</time></trkpt>
<trkpt lat="46.17025978" lon="6.03734689"><ele>450.995605</ele><time>2009-08-22T14:31:54Z</time></trkpt>
<trkpt lat="46.17029197" lon="6.03741864"><ele>451.476318</ele><time>2009-08-22T14:31:55Z</time></trkpt>
<trkpt lat="46.17032499" lon="6.03749072"><ele>451.476318</ele><time>2009-08-22T14:31:56Z</time></trkpt>
<trkpt lat="46.17035835" lon="6.03756222"><ele>451.476318</ele><time>2009-08-22T14:31:57Z</time></trkpt>
<trkpt lat="46.17039238" lon="6.03763338"><ele>451.476318</ele><time>2009-08-22T14:31:58Z</time></trkpt>
<trkpt lat="46.17042658" lon="6.03770429"><ele>451.476318</ele><time>2009-08-22T14:31:59Z</time></trkpt>
<trkpt lat="46.17045994" lon="6.03777554"><ele>451.476318</ele><time>2009-08-22T14:32:00Z</time></trkpt>
<trkpt lat="46.17049229" lon="6.03784712"><ele>451.476318</ele><time>2009-08-22T14:32:01Z</time></trkpt>
<trkpt lat="46.17052448" lon="6.03791778"><ele>451.476318</ele><time>2009-08-22T14:32:02Z</time></trkpt>
<trkpt lat="46.17055675" lon="6.03798735"><ele>451.476318</ele><time>2009-08-22T14:32:03Z</time></trkpt>
<trkpt lat="46.17058994" lon="6.03805415"><ele>451.476318</ele><time>2009-08-22T14:32:04Z</time></trkpt>
<trkpt lat="46.17062615" lon="6.03811543"><ele>451.476318</ele><time>2009-08-22T14:32:05Z</time></trkpt>
<trkpt lat="46.17066597" lon="6.03816848"><ele>451.476318</ele><time>2009-08-22T14:32:06Z</time></trkpt>
<trkpt lat="46.17071106" lon="6.03820888"><ele>451.476318</ele><time>2009-08-22T14:32:07Z</time></trkpt>
<trkpt lat="46.17076118" lon="6.03823663"><ele>450.995605</ele><time>2009-08-22T14:32:08Z</time></trkpt>
<trkpt lat="46.17081055" lon="6.03826705"><ele>450.995605</ele><time>2009-08-22T14:32:09Z</time></trkpt>
<trkpt lat="46.17085255" lon="6.03831274"><ele>450.995605</ele><time>2009-08-22T14:32:10Z</time></trkpt>
<trkpt lat="46.17087996" lon="6.03837577"><ele>450.995605</ele><time>2009-08-22T14:32:11Z</time></trkpt>
<trkpt lat="46.17089270" lon="6.03844509"><ele>450.995605</ele><time>2009-08-22T14:32:12Z</time></trkpt>
<trkpt lat="46.17089303" lon="6.03851859"><ele>450.995605</ele><time>2009-08-22T14:32:13Z</time></trkpt>
<trkpt lat="46.17089085" lon="6.03859537"><ele>451.476318</ele><time>2009-08-22T14:32:14Z</time></trkpt>
<trkpt lat="46.17089974" lon="6.03867400"><ele>451.476318</ele><time>2009-08-22T14:32:15Z</time></trkpt>
<trkpt lat="46.17092027" lon="6.03875195"><ele>450.995605</ele><time>2009-08-22T14:32:16Z</time></trkpt>
<trkpt lat="46.17094634" lon="6.03882638"><ele>451.476318</ele><time>2009-08-22T14:32:17Z</time></trkpt>
<trkpt lat="46.17097727" lon="6.03890098"><ele>451.476318</ele><time>2009-08-22T14:32:18Z</time></trkpt>
<trkpt lat="46.17101029" lon="6.03897206"><ele>451.476318</ele><time>2009-08-22T14:32:19Z</time></trkpt>
<trkpt lat="46.17104332" lon="6.03904364"><ele>451.476318</ele><time>2009-08-22T14:32:20Z</time></trkpt>
<trkpt lat="46.17107668" lon="6.03911513"><ele>451.476318</ele><time>2009-08-22T14:32:21Z</time></trkpt>
<trkpt lat="46.17110979" lon="6.03918596"><ele>451.476318</ele><time>2009-08-22T14:32:22Z</time></trkpt>
<trkpt lat="46.17114273" lon="6.03925687"><ele>451.476318</ele><time>2009-08-22T14:32:23Z</time></trkpt>
<trkpt lat="46.17117584" lon="6.03932787"><ele>451.476318</ele><time>2009-08-22T14:32:24Z</time></trkpt>
<trkpt lat="46.17120903" lon="6.03939903"><ele>451.476318</ele><time>2009-08-22T14:32:25Z</time></trkpt>
<trkpt lat="46.17124164" lon="6.03946885"><ele>451.476318</ele><time>2009-08-22T14:32:26Z</time></trkpt>
<trkpt lat="46.17127416" lon="6.03954077"><ele>451.476318</ele><time>2009-08-22T14:32:27Z</time></trkpt>
<trkpt lat="46.17130668" lon="6.03961319"><ele>451.476318</ele><time>2009-08-22T14:32:28Z</time></trkpt>
<trkpt lat="46.17133903" lon="6.03968536"><ele>451.476318</ele><time>2009-08-22T14:32:29Z</time></trkpt>
<trkpt lat="46.17137139" lon="6.03975669"><ele>451.476318</ele><time>2009-08-22T14:32:30Z</time></trkpt>
<trkpt lat="46.17140324" lon="6.03982810"><ele>451.476318</ele><time>2009-08-22T14:32:31Z</time></trkpt>
<trkpt lat="46.17143475" lon="6.03990010"><ele>451.476318</ele><time>2009-08-22T14:32:32Z</time></trkpt>
<trkpt lat="46.17146677" lon="6.03997193"><ele>451.476318</ele><time>2009-08-22T14:32:33Z</time></trkpt>
<trkpt lat="46.17149795" lon="6.04004318"><ele>451.476318</ele><time>2009-08-22T14:32:34Z</time></trkpt>
<trkpt lat="46.17152838" lon="6.04011484"><ele>451.476318</ele><time>2009-08-22T14:32:35Z</time></trkpt>
<trkpt lat="46.17155856" lon="6.04018693"><ele>451.476318</ele><time>2009-08-22T14:32:36Z</time></trkpt>
<trkpt lat="46.17158865" lon="6.04025876"><ele>451.476318</ele><time>2009-08-22T14:32:37Z</time></trkpt>
<trkpt lat="46.17161823" lon="6.04033093"><ele>451.476318</ele><time>2009-08-22T14:32:38Z</time></trkpt>
<trkpt lat="46.17164757" lon="6.04040385"><ele>451.957031</ele><time>2009-08-22T14:32:39Z</time></trkpt>
<trkpt lat="46.17167666" lon="6.04047778"><ele>451.957031</ele><time>2009-08-22T14:32:40Z</time></trkpt>
<trkpt lat="46.17170432" lon="6.04055104"><ele>451.957031</ele><time>2009-08-22T14:32:41Z</time></trkpt>
<trkpt lat="46.17173198" lon="6.04062522"><ele>451.957031</ele><time>2009-08-22T14:32:42Z</time></trkpt>
<trkpt lat="46.17176022" lon="6.04070032"><ele>451.957031</ele><time>2009-08-22T14:32:43Z</time></trkpt>
<trkpt lat="46.17178847" lon="6.04077618"><ele>451.957031</ele><time>2009-08-22T14:32:44Z</time></trkpt>
<trkpt lat="46.17181504" lon="6.04085103"><ele>451.957031</ele><time>2009-08-22T14:32:45Z</time></trkpt>
<trkpt lat="46.17184195" lon="6.04092596"><ele>451.957031</ele><time>2009-08-22T14:32:46Z</time></trkpt>
<trkpt lat="46.17186877" lon="6.04100123"><ele>452.437622</ele><time>2009-08-22T14:32:47Z</time></trkpt>
<trkpt lat="46.17189509" lon="6.04107709"><ele>452.437622</ele><time>2009-08-22T14:32:48Z</time></trkpt>
<trkpt lat="46.17192074" lon="6.04115227"><ele>452.437622</ele><time>2009-08-22T14:32:49Z</time></trkpt>
<trkpt lat="46.17194546" lon="6.04122687"><ele>452.437622</ele><time>2009-08-22T14:32:50Z</time></trkpt>
<trkpt lat="46.17197078" lon="6.04130214"><ele>452.437622</ele><time>2009-08-22T14:32:51Z</time></trkpt>
<trkpt lat="46.17199584" lon="6.04137825"><ele>452.437622</ele><time>2009-08-22T14:32:52Z</time></trkpt>
<trkpt lat="46.17202040" lon="6.04145595"><ele>452.437622</ele><time>2009-08-22T14:32:53Z</time></trkpt>
<trkpt lat="46.17204479" lon="6.04153482"><ele>451.957031</ele><time>2009-08-22T14:32:54Z</time></trkpt>
<trkpt lat="46.17206893" lon="6.04161462"><ele>451.957031</ele><time>2009-08-22T14:32:55Z</time></trkpt>
<trkpt lat="46.17209240" lon="6.04169542"><ele>451.957031</ele><time>2009-08-22T14:32:56Z</time></trkpt>
<trkpt lat="46.17211520" lon="6.04177765"><ele>451.957031</ele><time>2009-08-22T14:32:57Z</time></trkpt>
<trkpt lat="46.17213707" lon="6.04186054"><ele>451.957031</ele><time>2009-08-22T14:32:58Z</time></trkpt>
<trkpt lat="46.17215828" lon="6.04194302"><ele>451.957031</ele><time>2009-08-22T14:32:59Z</time></trkpt>
<trkpt lat="46.17217915" lon="6.04202558"><ele>451.476318</ele><time>2009-08-22T14:33:00Z</time></trkpt>
<trkpt lat="46.17219952" lon="6.04210789"><ele>451.476318</ele><time>2009-08-22T14:33:01Z</time></trkpt>
<trkpt lat="46.17221947" lon="6.04219037"><ele>451.476318</ele><time>2009-08-22T14:33:02Z</time></trkpt>
<trkpt lat="46.17223850" lon="6.04227344"><ele>450.995605</ele><time>2009-08-22T14:33:03Z</time></trkpt>
<trkpt lat="46.17225626" lon="6.04235709"><ele>450.995605</ele><time>2009-08-22T14:33:04Z</time></trkpt>
<trkpt lat="46.17227395" lon="6.04243940"><ele>450.995605</ele><time>2009-08-22T14:33:05Z</time></trkpt>
<trkpt lat="46.17229080" lon="6.04252062"><ele>450.995605</ele><time>2009-08-22T14:33:06Z</time></trkpt>
<trkpt lat="46.17230622" lon="6.04260217"><ele>450.995605</ele><time>2009-08-22T14:33:07Z</time></trkpt>
<trkpt lat="46.17232148" lon="6.04268256"><ele>450.995605</ele><time>2009-08-22T14:33:08Z</time></trkpt>
<trkpt lat="46.17233640" lon="6.04276135"><ele>450.995605</ele><time>2009-08-22T14:33:09Z</time></trkpt>
<trkpt lat="46.17235014" lon="6.04283896"><ele>450.515015</ele><time>2009-08-22T14:33:10Z</time></trkpt>
<trkpt lat="46.17236255" lon="6.04291549"><ele>450.515015</ele><time>2009-08-22T14:33:11Z</time></trkpt>
<trkpt lat="46.17237437" lon="6.04299034"><ele>450.515015</ele><time>2009-08-22T14:33:12Z</time></trkpt>
<trkpt lat="46.17238618" lon="6.04306368"><ele>450.515015</ele><time>2009-08-22T14:33:13Z</time></trkpt>
<trkpt lat="46.17239775" lon="6.04313484"><ele>450.515015</ele><time>2009-08-22T14:33:14Z</time></trkpt>
<trkpt lat="46.17240555" lon="6.04320324"><ele>450.515015</ele><time>2009-08-22T14:33:15Z</time></trkpt>
<trkpt lat="46.17241183" lon="6.04327164"><ele>450.515015</ele><time>2009-08-22T14:33:16Z</time></trkpt>
<trkpt lat="46.17241904" lon="6.04334263"><ele>450.515015</ele><time>2009-08-22T14:33:17Z</time></trkpt>
<trkpt lat="46.17242726" lon="6.04341606"><ele>450.515015</ele><time>2009-08-22T14:33:18Z</time></trkpt>
<trkpt lat="46.17243572" lon="6.04349066"><ele>450.515015</ele><time>2009-08-22T14:33:19Z</time></trkpt>
<trkpt lat="46.17244343" lon="6.04356609"><ele>450.515015</ele><time>2009-08-22T14:33:20Z</time></trkpt>
<trkpt lat="46.17245215" lon="6.04364304"><ele>450.515015</ele><time>2009-08-22T14:33:21Z</time></trkpt>
<trkpt lat="46.17246103" lon="6.04372174"><ele>450.515015</ele><time>2009-08-22T14:33:22Z</time></trkpt>
<trkpt lat="46.17246833" lon="6.04380188"><ele>450.515015</ele><time>2009-08-22T14:33:23Z</time></trkpt>
<trkpt lat="46.17247453" lon="6.04388259"><ele>450.995605</ele><time>2009-08-22T14:33:24Z</time></trkpt>
<trkpt lat="46.17247964" lon="6.04396415"><ele>450.995605</ele><time>2009-08-22T14:33:25Z</time></trkpt>
<trkpt lat="46.17248492" lon="6.04404713"><ele>450.995605</ele><time>2009-08-22T14:33:26Z</time></trkpt>
<trkpt lat="46.17249054" lon="6.04413078"><ele>450.995605</ele><time>2009-08-22T14:33:27Z</time></trkpt>
<trkpt lat="46.17249607" lon="6.04421494"><ele>450.995605</ele><time>2009-08-22T14:33:28Z</time></trkpt>
<trkpt lat="46.17250202" lon="6.04430026"><ele>450.995605</ele><time>2009-08-22T14:33:29Z</time></trkpt>
<trkpt lat="46.17250755" lon="6.04438660"><ele>450.995605</ele><time>2009-08-22T14:33:30Z</time></trkpt>
<trkpt lat="46.17251166" lon="6.04447343"><ele>450.995605</ele><time>2009-08-22T14:33:31Z</time></trkpt>
<trkpt lat="46.17251585" lon="6.04456027"><ele>450.995605</ele><time>2009-08-22T14:33:32Z</time></trkpt>
<trkpt lat="46.17252029" lon="6.04464736"><ele>450.995605</ele><time>2009-08-22T14:33:33Z</time></trkpt>
<trkpt lat="46.17252516" lon="6.04473604"><ele>450.995605</ele><time>2009-08-22T14:33:34Z</time></trkpt>
<trkpt lat="46.17253035" lon="6.04482505"><ele>450.995605</ele><time>2009-08-22T14:33:35Z</time></trkpt>
<trkpt lat="46.17253597" lon="6.04491482"><ele>450.995605</ele><time>2009-08-22T14:33:36Z</time></trkpt>
<trkpt lat="46.17254016" lon="6.04500434"><ele>450.515015</ele><time>2009-08-22T14:33:37Z</time></trkpt>
<trkpt lat="46.17254318" lon="6.04509428"><ele>450.515015</ele><time>2009-08-22T14:33:38Z</time></trkpt>
<trkpt lat="46.17254653" lon="6.04518724"><ele>450.515015</ele><time>2009-08-22T14:33:39Z</time></trkpt>
<trkpt lat="46.17255089" lon="6.04527919"><ele>450.515015</ele><time>2009-08-22T14:33:40Z</time></trkpt>
<trkpt lat="46.17255407" lon="6.04536829"><ele>450.515015</ele><time>2009-08-22T14:33:41Z</time></trkpt>
<trkpt lat="46.17255718" lon="6.04545848"><ele>450.515015</ele><time>2009-08-22T14:33:42Z</time></trkpt>
<trkpt lat="46.17255994" lon="6.04554959"><ele>450.515015</ele><time>2009-08-22T14:33:43Z</time></trkpt>
<trkpt lat="46.17256287" lon="6.04564145"><ele>450.515015</ele><time>2009-08-22T14:33:44Z</time></trkpt>
<trkpt lat="46.17256640" lon="6.04573349"><ele>450.515015</ele><time>2009-08-22T14:33:45Z</time></trkpt>
<trkpt lat="46.17257067" lon="6.04582669"><ele>450.515015</ele><time>2009-08-22T14:33:46Z</time></trkpt>
<trkpt lat="46.17257427" lon="6.04592166"><ele>450.034424</ele><time>2009-08-22T14:33:47Z</time></trkpt>
<trkpt lat="46.17257779" lon="6.04601864"><ele>450.034424</ele><time>2009-08-22T14:33:48Z</time></trkpt>
<trkpt lat="46.17258173" lon="6.04611687"><ele>450.034424</ele><time>2009-08-22T14:33:49Z</time></trkpt>
<trkpt lat="46.17258643" lon="6.04621595"><ele>450.034424</ele><time>2009-08-22T14:33:50Z</time></trkpt>
<trkpt lat="46.17259179" lon="6.04631552"><ele>449.553711</ele><time>2009-08-22T14:33:51Z</time></trkpt>
<trkpt lat="46.17259783" lon="6.04641502"><ele>449.553711</ele><time>2009-08-22T14:33:52Z</time></trkpt>
<trkpt lat="46.17260403" lon="6.04651459"><ele>449.553711</ele><time>2009-08-22T14:33:53Z</time></trkpt>
<trkpt lat="46.17261015" lon="6.04661467"><ele>449.072998</ele><time>2009-08-22T14:33:54Z</time></trkpt>
<trkpt lat="46.17261702" lon="6.04671509"><ele>449.072998</ele><time>2009-08-22T14:33:55Z</time></trkpt>
<trkpt lat="46.17262515" lon="6.04681492"><ele>448.592407</ele><time>2009-08-22T14:33:56Z</time></trkpt>
<trkpt lat="46.17263412" lon="6.04691483"><ele>448.592407</ele><time>2009-08-22T14:33:57Z</time></trkpt>
<trkpt lat="46.17264443" lon="6.04701768"><ele>448.111816</ele><time>2009-08-22T14:33:58Z</time></trkpt>
<trkpt lat="46.17265575" lon="6.04711927"><ele>448.111816</ele><time>2009-08-22T14:33:59Z</time></trkpt>
<trkpt lat="46.17266807" lon="6.04722010"><ele>448.111816</ele><time>2009-08-22T14:34:00Z</time></trkpt>
<trkpt lat="46.17267955" lon="6.04731775"><ele>448.111816</ele><time>2009-08-22T14:34:01Z</time></trkpt>
<trkpt lat="46.17269145" lon="6.04741783"><ele>447.630981</ele><time>2009-08-22T14:34:02Z</time></trkpt>
<trkpt lat="46.17270478" lon="6.04751606"><ele>447.630981</ele><time>2009-08-22T14:34:03Z</time></trkpt>
<trkpt lat="46.17271920" lon="6.04761288"><ele>447.630981</ele><time>2009-08-22T14:34:04Z</time></trkpt>
<trkpt lat="46.17273437" lon="6.04770868"><ele>447.150269</ele><time>2009-08-22T14:34:05Z</time></trkpt>
<trkpt lat="46.17274954" lon="6.04780474"><ele>447.150269</ele><time>2009-08-22T14:34:06Z</time></trkpt>
<trkpt lat="46.17276538" lon="6.04790046"><ele>447.150269</ele><time>2009-08-22T14:34:07Z</time></trkpt>
<trkpt lat="46.17278223" lon="6.04799543"><ele>446.669678</ele><time>2009-08-22T14:34:08Z</time></trkpt>
<trkpt lat="46.17280008" lon="6.04808964"><ele>446.669678</ele><time>2009-08-22T14:34:09Z</time></trkpt>
<trkpt lat="46.17281794" lon="6.04818293"><ele>446.669678</ele><time>2009-08-22T14:34:10Z</time></trkpt>
<trkpt lat="46.17283604" lon="6.04827463"><ele>446.189087</ele><time>2009-08-22T14:34:11Z</time></trkpt>
<trkpt lat="46.17285448" lon="6.04836507"><ele>446.189087</ele><time>2009-08-22T14:34:12Z</time></trkpt>
<trkpt lat="46.17287309" lon="6.04845425"><ele>446.189087</ele><time>2009-08-22T14:34:13Z</time></trkpt>
<trkpt lat="46.17289195" lon="6.04854268"><ele>446.189087</ele><time>2009-08-22T14:34:14Z</time></trkpt>
<trkpt lat="46.17291198" lon="6.04863077"><ele>445.708374</ele><time>2009-08-22T14:34:15Z</time></trkpt>
<trkpt lat="46.17293268" lon="6.04871845"><ele>445.708374</ele><time>2009-08-22T14:34:16Z</time></trkpt>
<trkpt lat="46.17295288" lon="6.04880587"><ele>445.708374</ele><time>2009-08-22T14:34:17Z</time></trkpt>
<trkpt lat="46.17297309" lon="6.04889262"><ele>445.708374</ele><time>2009-08-22T14:34:18Z</time></trkpt>
<trkpt lat="46.17299337" lon="6.04897913"><ele>445.708374</ele><time>2009-08-22T14:34:19Z</time></trkpt>
<trkpt lat="46.17301374" lon="6.04906529"><ele>445.708374</ele><time>2009-08-22T14:34:20Z</time></trkpt>
<trkpt lat="46.17303419" lon="6.04915146"><ele>445.708374</ele><time>2009-08-22T14:34:21Z</time></trkpt>
<trkpt lat="46.17305590" lon="6.04923888"><ele>445.708374</ele><time>2009-08-22T14:34:22Z</time></trkpt>
<trkpt lat="46.17307803" lon="6.04932656"><ele>445.227661</ele><time>2009-08-22T14:34:23Z</time></trkpt>
<trkpt lat="46.17310024" lon="6.04941423"><ele>445.227661</ele><time>2009-08-22T14:34:24Z</time></trkpt>
<trkpt lat="46.17312304" lon="6.04950123"><ele>444.74707</ele><time>2009-08-22T14:34:25Z</time></trkpt>
<trkpt lat="46.17314575" lon="6.04958816"><ele>444.74707</ele><time>2009-08-22T14:34:26Z</time></trkpt>
<trkpt lat="46.17316780" lon="6.04967616"><ele>444.74707</ele><time>2009-08-22T14:34:27Z</time></trkpt>
<trkpt lat="46.17318967" lon="6.04976493"><ele>444.266479</ele><time>2009-08-22T14:34:28Z</time></trkpt>
<trkpt lat="46.17321172" lon="6.04985403"><ele>444.266479</ele><time>2009-08-22T14:34:29Z</time></trkpt>
<trkpt lat="46.17323443" lon="6.04994355"><ele>443.785767</ele><time>2009-08-22T14:34:30Z</time></trkpt>
<trkpt lat="46.17325690" lon="6.05003315"><ele>443.785767</ele><time>2009-08-22T14:34:31Z</time></trkpt>
<trkpt lat="46.17327902" lon="6.05012233"><ele>443.785767</ele><time>2009-08-22T14:34:32Z</time></trkpt>
<trkpt lat="46.17330149" lon="6.05021143"><ele>443.305054</ele><time>2009-08-22T14:34:33Z</time></trkpt>
<trkpt lat="46.17332429" lon="6.05030045"><ele>443.305054</ele><time>2009-08-22T14:34:34Z</time></trkpt>
<trkpt lat="46.17334667" lon="6.05038946"><ele>443.305054</ele><time>2009-08-22T14:34:35Z</time></trkpt>
<trkpt lat="46.17336854" lon="6.05047848"><ele>442.824463</ele><time>2009-08-22T14:34:36Z</time></trkpt>
<trkpt lat="46.17339025" lon="6.05056708"><ele>442.824463</ele><time>2009-08-22T14:34:37Z</time></trkpt>
<trkpt lat="46.17341238" lon="6.05065442"><ele>442.824463</ele><time>2009-08-22T14:34:38Z</time></trkpt>
<trkpt lat="46.17343367" lon="6.05074067"><ele>442.343872</ele><time>2009-08-22T14:34:39Z</time></trkpt>
<trkpt lat="46.17345429" lon="6.05082658"><ele>442.343872</ele><time>2009-08-22T14:34:40Z</time></trkpt>
<trkpt lat="46.17347483" lon="6.05091216"><ele>442.343872</ele><time>2009-08-22T14:34:41Z</time></trkpt>
<trkpt lat="46.17349586" lon="6.05099715"><ele>441.863159</ele><time>2009-08-22T14:34:42Z</time></trkpt>
<trkpt lat="46.17351665" lon="6.05108156"><ele>441.863159</ele><time>2009-08-22T14:34:43Z</time></trkpt>
<trkpt lat="46.17353668" lon="6.05116504"><ele>441.863159</ele><time>2009-08-22T14:34:44Z</time></trkpt>
<trkpt lat="46.17355647" lon="6.05124727"><ele>441.382446</ele><time>2009-08-22T14:34:45Z</time></trkpt>
<trkpt lat="46.17357616" lon="6.05132866"><ele>441.382446</ele><time>2009-08-22T14:34:46Z</time></trkpt>
<trkpt lat="46.17359594" lon="6.05140963"><ele>441.382446</ele><time>2009-08-22T14:34:47Z</time></trkpt>
<trkpt lat="46.17361547" lon="6.05149018"><ele>441.382446</ele><time>2009-08-22T14:34:48Z</time></trkpt>
<trkpt lat="46.17363442" lon="6.05157022"><ele>441.382446</ele><time>2009-08-22T14:34:49Z</time></trkpt>
<trkpt lat="46.17365353" lon="6.05165069"><ele>440.901855</ele><time>2009-08-22T14:34:50Z</time></trkpt>
<trkpt lat="46.17367256" lon="6.05173065"><ele>440.901855</ele><time>2009-08-22T14:34:51Z</time></trkpt>
<trkpt lat="46.17369133" lon="6.05181045"><ele>440.901855</ele><time>2009-08-22T14:34:52Z</time></trkpt>
<trkpt lat="46.17370994" lon="6.05188999"><ele>440.901855</ele><time>2009-08-22T14:34:53Z</time></trkpt>
<trkpt lat="46.17372829" lon="6.05196945"><ele>440.901855</ele><time>2009-08-22T14:34:54Z</time></trkpt>
<trkpt lat="46.17374615" lon="6.05204900"><ele>440.901855</ele><time>2009-08-22T14:34:55Z</time></trkpt>
<trkpt lat="46.17376425" lon="6.05212779"><ele>440.421265</ele><time>2009-08-22T14:34:56Z</time></trkpt>
<trkpt lat="46.17378186" lon="6.05220624"><ele>440.421265</ele><time>2009-08-22T14:34:57Z</time></trkpt>
<trkpt lat="46.17379979" lon="6.05228528"><ele>440.421265</ele><time>2009-08-22T14:34:58Z</time></trkpt>
<trkpt lat="46.17381815" lon="6.05236500"><ele>440.421265</ele><time>2009-08-22T14:34:59Z</time></trkpt>
<trkpt lat="46.17383575" lon="6.05244437"><ele>440.421265</ele><time>2009-08-22T14:35:00Z</time></trkpt>
<trkpt lat="46.17385335" lon="6.05252375"><ele>440.421265</ele><time>2009-08-22T14:35:01Z</time></trkpt>
<trkpt lat="46.17387045" lon="6.05260246"><ele>440.421265</ele><time>2009-08-22T14:35:02Z</time></trkpt>
<trkpt lat="46.17388713" lon="6.05268066"><ele>439.94043</ele><time>2009-08-22T14:35:03Z</time></trkpt>
<trkpt lat="46.17390406" lon="6.05275886"><ele>439.94043</ele><time>2009-08-22T14:35:04Z</time></trkpt>
<trkpt lat="46.17392108" lon="6.05283723"><ele>439.94043</ele><time>2009-08-22T14:35:05Z</time></trkpt>
<trkpt lat="46.17393868" lon="6.05291627"><ele>439.94043</ele><time>2009-08-22T14:35:06Z</time></trkpt>
<trkpt lat="46.17395536" lon="6.05299582"><ele>439.94043</ele><time>2009-08-22T14:35:07Z</time></trkpt>
<trkpt lat="46.17396735" lon="6.05307293"><ele>440.421265</ele><time>2009-08-22T14:35:08Z</time></trkpt>
<trkpt lat="46.17398034" lon="6.05315038"><ele>440.901855</ele><time>2009-08-22T14:35:09Z</time></trkpt>
<trkpt lat="46.17399735" lon="6.05323085"><ele>440.901855</ele><time>2009-08-22T14:35:10Z</time></trkpt>
<trkpt lat="46.17401395" lon="6.05331148"><ele>440.901855</ele><time>2009-08-22T14:35:11Z</time></trkpt>
<trkpt lat="46.17403038" lon="6.05339170"><ele>440.901855</ele><time>2009-08-22T14:35:12Z</time></trkpt>
<trkpt lat="46.17404656" lon="6.05347174"><ele>440.421265</ele><time>2009-08-22T14:35:13Z</time></trkpt>
<trkpt lat="46.17406240" lon="6.05355129"><ele>440.421265</ele><time>2009-08-22T14:35:14Z</time></trkpt>
<trkpt lat="46.17407874" lon="6.05363016"><ele>440.421265</ele><time>2009-08-22T14:35:15Z</time></trkpt>
<trkpt lat="46.17409375" lon="6.05370912"><ele>440.421265</ele><time>2009-08-22T14:35:16Z</time></trkpt>
<trkpt lat="46.17410338" lon="6.05378472"><ele>440.901855</ele><time>2009-08-22T14:35:17Z</time></trkpt>
<trkpt lat="46.17411336" lon="6.05385957"><ele>441.382446</ele><time>2009-08-22T14:35:18Z</time></trkpt>
<trkpt lat="46.17412786" lon="6.05393694"><ele>441.382446</ele><time>2009-08-22T14:35:19Z</time></trkpt>
<trkpt lat="46.17414228" lon="6.05401506"><ele>441.382446</ele><time>2009-08-22T14:35:20Z</time></trkpt>
<trkpt lat="46.17415669" lon="6.05409376"><ele>440.901855</ele><time>2009-08-22T14:35:21Z</time></trkpt>
<trkpt lat="46.17417136" lon="6.05417247"><ele>440.901855</ele><time>2009-08-22T14:35:22Z</time></trkpt>
<trkpt lat="46.17418586" lon="6.05425109"><ele>440.901855</ele><time>2009-08-22T14:35:23Z</time></trkpt>
<trkpt lat="46.17419994" lon="6.05433013"><ele>440.901855</ele><time>2009-08-22T14:35:24Z</time></trkpt>
<trkpt lat="46.17421403" lon="6.05440934"><ele>440.901855</ele><time>2009-08-22T14:35:25Z</time></trkpt>
<trkpt lat="46.17422836" lon="6.05448813"><ele>440.901855</ele><time>2009-08-22T14:35:26Z</time></trkpt>
<trkpt lat="46.17424185" lon="6.05456675"><ele>440.421265</ele><time>2009-08-22T14:35:27Z</time></trkpt>
<trkpt lat="46.17425443" lon="6.05464512"><ele>440.421265</ele><time>2009-08-22T14:35:28Z</time></trkpt>
<trkpt lat="46.17426700" lon="6.05472308"><ele>440.421265</ele><time>2009-08-22T14:35:29Z</time></trkpt>
<trkpt lat="46.17428008" lon="6.05480044"><ele>440.421265</ele><time>2009-08-22T14:35:30Z</time></trkpt>
<trkpt lat="46.17429307" lon="6.05487772"><ele>440.421265</ele><time>2009-08-22T14:35:31Z</time></trkpt>
<trkpt lat="46.17430614" lon="6.05495509"><ele>440.421265</ele><time>2009-08-22T14:35:32Z</time></trkpt>
<trkpt lat="46.17431964" lon="6.05503187"><ele>440.421265</ele><time>2009-08-22T14:35:33Z</time></trkpt>
<trkpt lat="46.17433280" lon="6.05510848"><ele>440.421265</ele><time>2009-08-22T14:35:34Z</time></trkpt>
<trkpt lat="46.17434470" lon="6.05518525"><ele>440.421265</ele><time>2009-08-22T14:35:35Z</time></trkpt>
<trkpt lat="46.17435534" lon="6.05526145"><ele>440.421265</ele><time>2009-08-22T14:35:36Z</time></trkpt>
<trkpt lat="46.17436364" lon="6.05533512"><ele>440.901855</ele><time>2009-08-22T14:35:37Z</time></trkpt>
<trkpt lat="46.17437244" lon="6.05540888"><ele>441.382446</ele><time>2009-08-22T14:35:38Z</time></trkpt>
<trkpt lat="46.17438183" lon="6.05548290"><ele>441.382446</ele><time>2009-08-22T14:35:39Z</time></trkpt>
<trkpt lat="46.17439122" lon="6.05555649"><ele>441.863159</ele><time>2009-08-22T14:35:40Z</time></trkpt>
<trkpt lat="46.17440262" lon="6.05563109"><ele>441.863159</ele><time>2009-08-22T14:35:41Z</time></trkpt>
<trkpt lat="46.17441335" lon="6.05570468"><ele>442.343872</ele><time>2009-08-22T14:35:42Z</time></trkpt>
<trkpt lat="46.17442223" lon="6.05577702"><ele>442.824463</ele><time>2009-08-22T14:35:43Z</time></trkpt>
<trkpt lat="46.17443137" lon="6.05584986"><ele>442.824463</ele><time>2009-08-22T14:35:44Z</time></trkpt>
<trkpt lat="46.17443975" lon="6.05592144"><ele>443.305054</ele><time>2009-08-22T14:35:45Z</time></trkpt>
<trkpt lat="46.17444947" lon="6.05599302"><ele>443.305054</ele><time>2009-08-22T14:35:46Z</time></trkpt>
<trkpt lat="46.17445928" lon="6.05606452"><ele>443.785767</ele><time>2009-08-22T14:35:47Z</time></trkpt>
<trkpt lat="46.17446884" lon="6.05613635"><ele>443.785767</ele><time>2009-08-22T14:35:48Z</time></trkpt>
<trkpt lat="46.17447839" lon="6.05620835"><ele>444.266479</ele><time>2009-08-22T14:35:49Z</time></trkpt>
<trkpt lat="46.17448795" lon="6.05628052"><ele>444.266479</ele><time>2009-08-22T14:35:50Z</time></trkpt>
<trkpt lat="46.17449784" lon="6.05635285"><ele>444.74707</ele><time>2009-08-22T14:35:51Z</time></trkpt>
<trkpt lat="46.17450756" lon="6.05642477"><ele>445.227661</ele><time>2009-08-22T14:35:52Z</time></trkpt>
<trkpt lat="46.17451653" lon="6.05649585"><ele>445.227661</ele><time>2009-08-22T14:35:53Z</time></trkpt>
<trkpt lat="46.17452449" lon="6.05656559"><ele>445.708374</ele><time>2009-08-22T14:35:54Z</time></trkpt>
<trkpt lat="46.17453279" lon="6.05663365"><ele>446.189087</ele><time>2009-08-22T14:35:55Z</time></trkpt>
<trkpt lat="46.17454260" lon="6.05670062"><ele>446.189087</ele><time>2009-08-22T14:35:56Z</time></trkpt>
<trkpt lat="46.17455316" lon="6.05676759"><ele>446.669678</ele><time>2009-08-22T14:35:57Z</time></trkpt>
<trkpt lat="46.17456439" lon="6.05683406"><ele>447.150269</ele><time>2009-08-22T14:35:58Z</time></trkpt>
<trkpt lat="46.17457788" lon="6.05689935"><ele>447.150269</ele><time>2009-08-22T14:35:59Z</time></trkpt>
<trkpt lat="46.17459700" lon="6.05696146"><ele>447.630981</ele><time>2009-08-22T14:36:00Z</time></trkpt>
<trkpt lat="46.17462315" lon="6.05701804"><ele>447.630981</ele><time>2009-08-22T14:36:01Z</time></trkpt>
<trkpt lat="46.17465374" lon="6.05706959"><ele>448.111816</ele><time>2009-08-22T14:36:02Z</time></trkpt>
<trkpt lat="46.17468425" lon="6.05712097"><ele>448.111816</ele><time>2009-08-22T14:36:03Z</time></trkpt>
<trkpt lat="46.17470596" lon="6.05717948"><ele>448.111816</ele><time>2009-08-22T14:36:04Z</time></trkpt>
<trkpt lat="46.17471627" lon="6.05724494"><ele>448.111816</ele><time>2009-08-22T14:36:05Z</time></trkpt>
<trkpt lat="46.17471308" lon="6.05730973"><ele>448.592407</ele><time>2009-08-22T14:36:06Z</time></trkpt>
<trkpt lat="46.17469867" lon="6.05737058"><ele>448.592407</ele><time>2009-08-22T14:36:07Z</time></trkpt>
<trkpt lat="46.17467796" lon="6.05742725"><ele>449.072998</ele><time>2009-08-22T14:36:08Z</time></trkpt>
<trkpt lat="46.17465952" lon="6.05748517"><ele>449.553711</ele><time>2009-08-22T14:36:09Z</time></trkpt>
<trkpt lat="46.17464905" lon="6.05754786"><ele>449.553711</ele><time>2009-08-22T14:36:10Z</time></trkpt>
<trkpt lat="46.17464955" lon="6.05761282"><ele>450.034424</ele><time>2009-08-22T14:36:11Z</time></trkpt>
<trkpt lat="46.17465718" lon="6.05767946"><ele>450.034424</ele><time>2009-08-22T14:36:12Z</time></trkpt>
<trkpt lat="46.17466589" lon="6.05774635"><ele>450.515015</ele><time>2009-08-22T14:36:13Z</time></trkpt>
<trkpt lat="46.17467344" lon="6.05781332"><ele>450.995605</ele><time>2009-08-22T14:36:14Z</time></trkpt>
<trkpt lat="46.17468006" lon="6.05788012"><ele>450.995605</ele><time>2009-08-22T14:36:15Z</time></trkpt>
<trkpt lat="46.17468609" lon="6.05794684"><ele>451.476318</ele><time>2009-08-22T14:36:16Z</time></trkpt>
<trkpt lat="46.17469230" lon="6.05801356"><ele>451.476318</ele><time>2009-08-22T14:36:17Z</time></trkpt>
<trkpt lat="46.17469917" lon="6.05807986"><ele>451.957031</ele><time>2009-08-22T14:36:18Z</time></trkpt>
<trkpt lat="46.17470630" lon="6.05814633"><ele>452.437622</ele><time>2009-08-22T14:36:19Z</time></trkpt>
<trkpt lat="46.17471208" lon="6.05821263"><ele>452.437622</ele><time>2009-08-22T14:36:20Z</time></trkpt>
<trkpt lat="46.17471887" lon="6.05827918"><ele>452.918213</ele><time>2009-08-22T14:36:21Z</time></trkpt>
<trkpt lat="46.17472960" lon="6.05834724"><ele>452.918213</ele><time>2009-08-22T14:36:22Z</time></trkpt>
<trkpt lat="46.17474016" lon="6.05841598"><ele>452.918213</ele><time>2009-08-22T14:36:23Z</time></trkpt>
<trkpt lat="46.17474988" lon="6.05848563"><ele>452.918213</ele><time>2009-08-22T14:36:24Z</time></trkpt>
<trkpt lat="46.17475918" lon="6.05855646"><ele>452.918213</ele><time>2009-08-22T14:36:25Z</time></trkpt>
<trkpt lat="46.17476832" lon="6.05862812"><ele>452.918213</ele><time>2009-08-22T14:36:26Z</time></trkpt>
<trkpt lat="46.17477737" lon="6.05870037"><ele>452.437622</ele><time>2009-08-22T14:36:27Z</time></trkpt>
<trkpt lat="46.17478408" lon="6.05877112"><ele>452.918213</ele><time>2009-08-22T14:36:28Z</time></trkpt>
<trkpt lat="46.17479095" lon="6.05884194"><ele>453.398926</ele><time>2009-08-22T14:36:29Z</time></trkpt>
<trkpt lat="46.17479799" lon="6.05891277"><ele>453.879639</ele><time>2009-08-22T14:36:30Z</time></trkpt>
<trkpt lat="46.17480495" lon="6.05898402"><ele>454.360229</ele><time>2009-08-22T14:36:31Z</time></trkpt>
<trkpt lat="46.17481182" lon="6.05905577"><ele>454.360229</ele><time>2009-08-22T14:36:32Z</time></trkpt>
<trkpt lat="46.17481920" lon="6.05912793"><ele>454.84082</ele><time>2009-08-22T14:36:33Z</time></trkpt>
<trkpt lat="46.17482716" lon="6.05920102"><ele>455.321533</ele><time>2009-08-22T14:36:34Z</time></trkpt>
<trkpt lat="46.17483487" lon="6.05927462"><ele>455.321533</ele><time>2009-08-22T14:36:35Z</time></trkpt>
<trkpt lat="46.17484342" lon="6.05934855"><ele>455.802246</ele><time>2009-08-22T14:36:36Z</time></trkpt>
<trkpt lat="46.17485139" lon="6.05942206"><ele>455.802246</ele><time>2009-08-22T14:36:37Z</time></trkpt>
<trkpt lat="46.17485843" lon="6.05949565"><ele>456.282959</ele><time>2009-08-22T14:36:38Z</time></trkpt>
<trkpt lat="46.17486597" lon="6.05956899"><ele>456.76355</ele><time>2009-08-22T14:36:39Z</time></trkpt>
<trkpt lat="46.17487393" lon="6.05964258"><ele>456.76355</ele><time>2009-08-22T14:36:40Z</time></trkpt>
<trkpt lat="46.17488173" lon="6.05971685"><ele>457.244263</ele><time>2009-08-22T14:36:41Z</time></trkpt>
<trkpt lat="46.17488944" lon="6.05979178"><ele>457.244263</ele><time>2009-08-22T14:36:42Z</time></trkpt>
<trkpt lat="46.17489723" lon="6.05986646"><ele>457.244263</ele><time>2009-08-22T14:36:43Z</time></trkpt>
<trkpt lat="46.17490537" lon="6.05994098"><ele>457.724976</ele><time>2009-08-22T14:36:44Z</time></trkpt>
<trkpt lat="46.17491400" lon="6.06001533"><ele>457.724976</ele><time>2009-08-22T14:36:45Z</time></trkpt>
<trkpt lat="46.17492263" lon="6.06008976"><ele>457.724976</ele><time>2009-08-22T14:36:46Z</time></trkpt>
<trkpt lat="46.17493168" lon="6.06016419"><ele>458.205566</ele><time>2009-08-22T14:36:47Z</time></trkpt>
<trkpt lat="46.17494124" lon="6.06023862"><ele>458.205566</ele><time>2009-08-22T14:36:48Z</time></trkpt>
<trkpt lat="46.17495163" lon="6.06031364"><ele>458.205566</ele><time>2009-08-22T14:36:49Z</time></trkpt>
<trkpt lat="46.17496312" lon="6.06038908"><ele>458.205566</ele><time>2009-08-22T14:36:50Z</time></trkpt>
<trkpt lat="46.17497569" lon="6.06046485"><ele>458.205566</ele><time>2009-08-22T14:36:51Z</time></trkpt>
<trkpt lat="46.17498659" lon="6.06054213"><ele>458.686157</ele><time>2009-08-22T14:36:52Z</time></trkpt>
<trkpt lat="46.17499463" lon="6.06062125"><ele>458.686157</ele><time>2009-08-22T14:36:53Z</time></trkpt>
<trkpt lat="46.17500125" lon="6.06070147"><ele>458.686157</ele><time>2009-08-22T14:36:54Z</time></trkpt>
<trkpt lat="46.17500712" lon="6.06078202"><ele>458.686157</ele><time>2009-08-22T14:36:55Z</time></trkpt>
<trkpt lat="46.17501374" lon="6.06086399"><ele>459.16687</ele><time>2009-08-22T14:36:56Z</time></trkpt>
<trkpt lat="46.17502129" lon="6.06094706"><ele>459.16687</ele><time>2009-08-22T14:36:57Z</time></trkpt>
<trkpt lat="46.17503026" lon="6.06103088"><ele>459.16687</ele><time>2009-08-22T14:36:58Z</time></trkpt>
<trkpt lat="46.17504224" lon="6.06111646"><ele>459.16687</ele><time>2009-08-22T14:36:59Z</time></trkpt>
<trkpt lat="46.17505490" lon="6.06120229"><ele>458.686157</ele><time>2009-08-22T14:37:00Z</time></trkpt>
<trkpt lat="46.17506714" lon="6.06128837"><ele>458.686157</ele><time>2009-08-22T14:37:01Z</time></trkpt>
<trkpt lat="46.17507879" lon="6.06137495"><ele>458.686157</ele><time>2009-08-22T14:37:02Z</time></trkpt>
<trkpt lat="46.17509019" lon="6.06146162"><ele>458.205566</ele><time>2009-08-22T14:37:03Z</time></trkpt>
<trkpt lat="46.17510142" lon="6.06154838"><ele>458.205566</ele><time>2009-08-22T14:37:04Z</time></trkpt>
<trkpt lat="46.17511282" lon="6.06163513"><ele>457.724976</ele><time>2009-08-22T14:37:05Z</time></trkpt>
<trkpt lat="46.17512179" lon="6.06172012"><ele>458.205566</ele><time>2009-08-22T14:37:06Z</time></trkpt>
<trkpt lat="46.17513092" lon="6.06180528"><ele>458.686157</ele><time>2009-08-22T14:37:07Z</time></trkpt>
<trkpt lat="46.17514006" lon="6.06189027"><ele>459.16687</ele><time>2009-08-22T14:37:08Z</time></trkpt>
<trkpt lat="46.17514953" lon="6.06197527"><ele>459.16687</ele><time>2009-08-22T14:37:09Z</time></trkpt>
<trkpt lat="46.17515942" lon="6.06206026"><ele>459.647583</ele><time>2009-08-22T14:37:10Z</time></trkpt>
<trkpt lat="46.17516889" lon="6.06214559"><ele>459.647583</ele><time>2009-08-22T14:37:11Z</time></trkpt>
<trkpt lat="46.17517912" lon="6.06223125"><ele>459.647583</ele><time>2009-08-22T14:37:12Z</time></trkpt>
<trkpt lat="46.17518993" lon="6.06231675"><ele>460.128174</ele><time>2009-08-22T14:37:13Z</time></trkpt>
<trkpt lat="46.17520058" lon="6.06240258"><ele>460.128174</ele><time>2009-08-22T14:37:14Z</time></trkpt>
<trkpt lat="46.17521105" lon="6.06248824"><ele>460.608765</ele><time>2009-08-22T14:37:15Z</time></trkpt>
<trkpt lat="46.17522170" lon="6.06257424"><ele>460.608765</ele><time>2009-08-22T14:37:16Z</time></trkpt>
<trkpt lat="46.17523276" lon="6.06265998"><ele>460.608765</ele><time>2009-08-22T14:37:17Z</time></trkpt>
<trkpt lat="46.17524383" lon="6.06274548"><ele>461.089478</ele><time>2009-08-22T14:37:18Z</time></trkpt>
<trkpt lat="46.17525514" lon="6.06283114"><ele>461.089478</ele><time>2009-08-22T14:37:19Z</time></trkpt>
<trkpt lat="46.17526629" lon="6.06291689"><ele>461.089478</ele><time>2009-08-22T14:37:20Z</time></trkpt>
<trkpt lat="46.17527769" lon="6.06300264"><ele>461.57019</ele><time>2009-08-22T14:37:21Z</time></trkpt>
<trkpt lat="46.17528984" lon="6.06308863"><ele>461.57019</ele><time>2009-08-22T14:37:22Z</time></trkpt>
<trkpt lat="46.17530250" lon="6.06317514"><ele>461.57019</ele><time>2009-08-22T14:37:23Z</time></trkpt>
<trkpt lat="46.17531558" lon="6.06326172"><ele>461.57019</ele><time>2009-08-22T14:37:24Z</time></trkpt>
<trkpt lat="46.17532915" lon="6.06334839"><ele>461.57019</ele><time>2009-08-22T14:37:25Z</time></trkpt>
<trkpt lat="46.17534248" lon="6.06343514"><ele>461.57019</ele><time>2009-08-22T14:37:26Z</time></trkpt>
<trkpt lat="46.17535598" lon="6.06352240"><ele>462.050781</ele><time>2009-08-22T14:37:27Z</time></trkpt>
<trkpt lat="46.17537173" lon="6.06361058"><ele>461.57019</ele><time>2009-08-22T14:37:28Z</time></trkpt>
<trkpt lat="46.17538816" lon="6.06369859"><ele>461.57019</ele><time>2009-08-22T14:37:29Z</time></trkpt>
<trkpt lat="46.17540493" lon="6.06378660"><ele>461.089478</ele><time>2009-08-22T14:37:30Z</time></trkpt>
<trkpt lat="46.17542244" lon="6.06387486"><ele>461.089478</ele><time>2009-08-22T14:37:31Z</time></trkpt>
<trkpt lat="46.17543963" lon="6.06396337"><ele>460.608765</ele><time>2009-08-22T14:37:32Z</time></trkpt>
<trkpt lat="46.17545689" lon="6.06405247"><ele>460.608765</ele><time>2009-08-22T14:37:33Z</time></trkpt>
<trkpt lat="46.17547517" lon="6.06414199"><ele>460.128174</ele><time>2009-08-22T14:37:34Z</time></trkpt>
<trkpt lat="46.17549269" lon="6.06423000"><ele>460.608765</ele><time>2009-08-22T14:37:35Z</time></trkpt>
<trkpt lat="46.17551188" lon="6.06431885"><ele>460.128174</ele><time>2009-08-22T14:37:36Z</time></trkpt>
<trkpt lat="46.17553133" lon="6.06440744"><ele>460.128174</ele><time>2009-08-22T14:37:37Z</time></trkpt>
<trkpt lat="46.17555102" lon="6.06449596"><ele>459.647583</ele><time>2009-08-22T14:37:38Z</time></trkpt>
<trkpt lat="46.17557055" lon="6.06458447"><ele>459.647583</ele><time>2009-08-22T14:37:39Z</time></trkpt>
<trkpt lat="46.17559025" lon="6.06467265"><ele>459.16687</ele><time>2009-08-22T14:37:40Z</time></trkpt>
<trkpt lat="46.17561045" lon="6.06476015"><ele>459.16687</ele><time>2009-08-22T14:37:41Z</time></trkpt>
<trkpt lat="46.17563124" lon="6.06484674"><ele>458.686157</ele><time>2009-08-22T14:37:42Z</time></trkpt>
<trkpt lat="46.17565203" lon="6.06493282"><ele>458.686157</ele><time>2009-08-22T14:37:43Z</time></trkpt>
<trkpt lat="46.17567256" lon="6.06501899"><ele>458.205566</ele><time>2009-08-22T14:37:44Z</time></trkpt>
<trkpt lat="46.17569368" lon="6.06510457"><ele>458.205566</ele><time>2009-08-22T14:37:45Z</time></trkpt>
<trkpt lat="46.17571564" lon="6.06518897"><ele>458.205566</ele><time>2009-08-22T14:37:46Z</time></trkpt>
<trkpt lat="46.17573752" lon="6.06527162"><ele>457.724976</ele><time>2009-08-22T14:37:47Z</time></trkpt>
<trkpt lat="46.17575839" lon="6.06535359"><ele>457.724976</ele><time>2009-08-22T14:37:48Z</time></trkpt>
<trkpt lat="46.17577859" lon="6.06543448"><ele>457.724976</ele><time>2009-08-22T14:37:49Z</time></trkpt>
<trkpt lat="46.17579938" lon="6.06551402"><ele>457.724976</ele><time>2009-08-22T14:37:50Z</time></trkpt>
<trkpt lat="46.17582126" lon="6.06559315"><ele>457.244263</ele><time>2009-08-22T14:37:51Z</time></trkpt>
<trkpt lat="46.17584355" lon="6.06567185"><ele>457.244263</ele><time>2009-08-22T14:37:52Z</time></trkpt>
<trkpt lat="46.17586526" lon="6.06574989"><ele>457.244263</ele><time>2009-08-22T14:37:53Z</time></trkpt>
<trkpt lat="46.17588705" lon="6.06582692"><ele>457.244263</ele><time>2009-08-22T14:37:54Z</time></trkpt>
<trkpt lat="46.17590943" lon="6.06590328"><ele>457.244263</ele><time>2009-08-22T14:37:55Z</time></trkpt>
<trkpt lat="46.17593173" lon="6.06597888"><ele>457.244263</ele><time>2009-08-22T14:37:56Z</time></trkpt>
<trkpt lat="46.17595352" lon="6.06605407"><ele>457.244263</ele><time>2009-08-22T14:37:57Z</time></trkpt>
<trkpt lat="46.17597515" lon="6.06612858"><ele>457.244263</ele><time>2009-08-22T14:37:58Z</time></trkpt>
<trkpt lat="46.17599593" lon="6.06620109"><ele>457.244263</ele><time>2009-08-22T14:37:59Z</time></trkpt>
<trkpt lat="46.17601773" lon="6.06627426"><ele>457.244263</ele><time>2009-08-22T14:38:00Z</time></trkpt>
<trkpt lat="46.17603952" lon="6.06634752"><ele>457.244263</ele><time>2009-08-22T14:38:01Z</time></trkpt>
<trkpt lat="46.17606123" lon="6.06642069"><ele>457.244263</ele><time>2009-08-22T14:38:02Z</time></trkpt>
<trkpt lat="46.17608344" lon="6.06649336"><ele>457.244263</ele><time>2009-08-22T14:38:03Z</time></trkpt>
<trkpt lat="46.17610632" lon="6.06656604"><ele>457.244263</ele><time>2009-08-22T14:38:04Z</time></trkpt>
<trkpt lat="46.17612912" lon="6.06663904"><ele>457.244263</ele><time>2009-08-22T14:38:05Z</time></trkpt>
<trkpt lat="46.17615209" lon="6.06671196"><ele>457.244263</ele><time>2009-08-22T14:38:06Z</time></trkpt>
<trkpt lat="46.17617489" lon="6.06678522"><ele>457.244263</ele><time>2009-08-22T14:38:07Z</time></trkpt>
<trkpt lat="46.17619744" lon="6.06685898"><ele>457.244263</ele><time>2009-08-22T14:38:08Z</time></trkpt>
<trkpt lat="46.17622082" lon="6.06693258"><ele>457.244263</ele><time>2009-08-22T14:38:09Z</time></trkpt>
<trkpt lat="46.17624496" lon="6.06700625"><ele>457.244263</ele><time>2009-08-22T14:38:10Z</time></trkpt>
<trkpt lat="46.17626885" lon="6.06708026"><ele>457.244263</ele><time>2009-08-22T14:38:11Z</time></trkpt>
<trkpt lat="46.17629232" lon="6.06715503"><ele>457.244263</ele><time>2009-08-22T14:38:12Z</time></trkpt>
<trkpt lat="46.17631587" lon="6.06723038"><ele>457.244263</ele><time>2009-08-22T14:38:13Z</time></trkpt>
<trkpt lat="46.17633943" lon="6.06730632"><ele>457.244263</ele><time>2009-08-22T14:38:14Z</time></trkpt>
<trkpt lat="46.17636382" lon="6.06738285"><ele>456.76355</ele><time>2009-08-22T14:38:15Z</time></trkpt>
<trkpt lat="46.17638854" lon="6.06745980"><ele>456.76355</ele><time>2009-08-22T14:38:16Z</time></trkpt>
<trkpt lat="46.17641277" lon="6.06753716"><ele>456.76355</ele><time>2009-08-22T14:38:17Z</time></trkpt>
<trkpt lat="46.17643716" lon="6.06761453"><ele>456.76355</ele><time>2009-08-22T14:38:18Z</time></trkpt>
<trkpt lat="46.17646188" lon="6.06769298"><ele>456.76355</ele><time>2009-08-22T14:38:19Z</time></trkpt>
<trkpt lat="46.17648644" lon="6.06777202"><ele>456.76355</ele><time>2009-08-22T14:38:20Z</time></trkpt>
<trkpt lat="46.17651134" lon="6.06785098"><ele>456.282959</ele><time>2009-08-22T14:38:21Z</time></trkpt>
<trkpt lat="46.17653573" lon="6.06792759"><ele>456.76355</ele><time>2009-08-22T14:38:22Z</time></trkpt>
<trkpt lat="46.17656012" lon="6.06800454"><ele>456.76355</ele><time>2009-08-22T14:38:23Z</time></trkpt>
<trkpt lat="46.17658275" lon="6.06808224"><ele>456.76355</ele><time>2009-08-22T14:38:24Z</time></trkpt>
<trkpt lat="46.17660589" lon="6.06815994"><ele>456.76355</ele><time>2009-08-22T14:38:25Z</time></trkpt>
<trkpt lat="46.17663187" lon="6.06823906"><ele>456.76355</ele><time>2009-08-22T14:38:26Z</time></trkpt>
<trkpt lat="46.17665769" lon="6.06831836"><ele>456.76355</ele><time>2009-08-22T14:38:27Z</time></trkpt>
<trkpt lat="46.17668375" lon="6.06839782"><ele>456.282959</ele><time>2009-08-22T14:38:28Z</time></trkpt>
<trkpt lat="46.17670865" lon="6.06847627"><ele>456.282959</ele><time>2009-08-22T14:38:29Z</time></trkpt>
<trkpt lat="46.17673329" lon="6.06855489"><ele>456.282959</ele><time>2009-08-22T14:38:30Z</time></trkpt>
<trkpt lat="46.17675819" lon="6.06863293"><ele>456.76355</ele><time>2009-08-22T14:38:31Z</time></trkpt>
<trkpt lat="46.17678325" lon="6.06871205"><ele>456.282959</ele><time>2009-08-22T14:38:32Z</time></trkpt>
<trkpt lat="46.17680839" lon="6.06879235"><ele>456.282959</ele><time>2009-08-22T14:38:33Z</time></trkpt>
<trkpt lat="46.17683463" lon="6.06887332"><ele>456.282959</ele><time>2009-08-22T14:38:34Z</time></trkpt>
<trkpt lat="46.17686145" lon="6.06895488"><ele>456.282959</ele><time>2009-08-22T14:38:35Z</time></trkpt>
<trkpt lat="46.17688869" lon="6.06903677"><ele>456.282959</ele><time>2009-08-22T14:38:36Z</time></trkpt>
<trkpt lat="46.17691484" lon="6.06911983"><ele>455.802246</ele><time>2009-08-22T14:38:37Z</time></trkpt>
<trkpt lat="46.17694066" lon="6.06920382"><ele>455.802246</ele><time>2009-08-22T14:38:38Z</time></trkpt>
<trkpt lat="46.17696798" lon="6.06928806"><ele>455.802246</ele><time>2009-08-22T14:38:39Z</time></trkpt>
<trkpt lat="46.17699724" lon="6.06937288"><ele>455.321533</ele><time>2009-08-22T14:38:40Z</time></trkpt>
<trkpt lat="46.17702615" lon="6.06945746"><ele>455.321533</ele><time>2009-08-22T14:38:41Z</time></trkpt>
<trkpt lat="46.17705340" lon="6.06954128"><ele>455.321533</ele><time>2009-08-22T14:38:42Z</time></trkpt>
<trkpt lat="46.17708164" lon="6.06962577"><ele>455.321533</ele><time>2009-08-22T14:38:43Z</time></trkpt>
<trkpt lat="46.17711098" lon="6.06971009"><ele>454.84082</ele><time>2009-08-22T14:38:44Z</time></trkpt>
<trkpt lat="46.17714149" lon="6.06979575"><ele>454.84082</ele><time>2009-08-22T14:38:45Z</time></trkpt>
<trkpt lat="46.17717133" lon="6.06988225"><ele>454.360229</ele><time>2009-08-22T14:38:46Z</time></trkpt>
<trkpt lat="46.17719916" lon="6.06996716"><ele>454.360229</ele><time>2009-08-22T14:38:47Z</time></trkpt>
<trkpt lat="46.17722757" lon="6.07005140"><ele>454.360229</ele><time>2009-08-22T14:38:48Z</time></trkpt>
<trkpt lat="46.17725632" lon="6.07013463"><ele>454.360229</ele><time>2009-08-22T14:38:49Z</time></trkpt>
<trkpt lat="46.17728616" lon="6.07021837"><ele>454.360229</ele><time>2009-08-22T14:38:50Z</time></trkpt>
<trkpt lat="46.17731508" lon="6.07030185"><ele>453.879639</ele><time>2009-08-22T14:38:51Z</time></trkpt>
<trkpt lat="46.17734366" lon="6.07038508"><ele>453.879639</ele><time>2009-08-22T14:38:52Z</time></trkpt>
<trkpt lat="46.17737157" lon="6.07046714"><ele>453.879639</ele><time>2009-08-22T14:38:53Z</time></trkpt>
<trkpt lat="46.17740158" lon="6.07054953"><ele>453.398926</ele><time>2009-08-22T14:38:54Z</time></trkpt>
<trkpt lat="46.17743175" lon="6.07063184"><ele>453.398926</ele><time>2009-08-22T14:38:55Z</time></trkpt>
<trkpt lat="46.17745967" lon="6.07071315"><ele>453.398926</ele><time>2009-08-22T14:38:56Z</time></trkpt>
<trkpt lat="46.17748884" lon="6.07079613"><ele>453.398926</ele><time>2009-08-22T14:38:57Z</time></trkpt>
<trkpt lat="46.17752337" lon="6.07088179"><ele>453.398926</ele><time>2009-08-22T14:38:58Z</time></trkpt>
<trkpt lat="46.17755547" lon="6.07096486"><ele>452.918213</ele><time>2009-08-22T14:38:59Z</time></trkpt>
<trkpt lat="46.17758598" lon="6.07104717"><ele>452.918213</ele><time>2009-08-22T14:39:00Z</time></trkpt>
<trkpt lat="46.17761565" lon="6.07112847"><ele>452.918213</ele><time>2009-08-22T14:39:01Z</time></trkpt>
<trkpt lat="46.17764516" lon="6.07120818"><ele>452.437622</ele><time>2009-08-22T14:39:02Z</time></trkpt>
<trkpt lat="46.17767667" lon="6.07128798"><ele>452.437622</ele><time>2009-08-22T14:39:03Z</time></trkpt>
<trkpt lat="46.17770492" lon="6.07136459"><ele>452.437622</ele><time>2009-08-22T14:39:04Z</time></trkpt>
<trkpt lat="46.17773124" lon="6.07144028"><ele>451.957031</ele><time>2009-08-22T14:39:05Z</time></trkpt>
<trkpt lat="46.17775756" lon="6.07151563"><ele>451.957031</ele><time>2009-08-22T14:39:06Z</time></trkpt>
<trkpt lat="46.17778388" lon="6.07158964"><ele>451.957031</ele><time>2009-08-22T14:39:07Z</time></trkpt>
<trkpt lat="46.17781003" lon="6.07166240"><ele>451.957031</ele><time>2009-08-22T14:39:08Z</time></trkpt>
<trkpt lat="46.17783677" lon="6.07173365"><ele>451.957031</ele><time>2009-08-22T14:39:09Z</time></trkpt>
<trkpt lat="46.17786359" lon="6.07180355"><ele>451.957031</ele><time>2009-08-22T14:39:10Z</time></trkpt>
<trkpt lat="46.17789175" lon="6.07187538"><ele>451.476318</ele><time>2009-08-22T14:39:11Z</time></trkpt>
<trkpt lat="46.17791765" lon="6.07194495"><ele>451.476318</ele><time>2009-08-22T14:39:12Z</time></trkpt>
<trkpt lat="46.17794322" lon="6.07201058"><ele>451.476318</ele><time>2009-08-22T14:39:13Z</time></trkpt>
<trkpt lat="46.17796526" lon="6.07206725"><ele>451.476318</ele><time>2009-08-22T14:39:14Z</time></trkpt>
<trkpt lat="46.17799058" lon="6.07212022"><ele>451.476318</ele><time>2009-08-22T14:39:15Z</time></trkpt>
<trkpt lat="46.17801354" lon="6.07216615"><ele>451.476318</ele><time>2009-08-22T14:39:16Z</time></trkpt>
<trkpt lat="46.17803458" lon="6.07219717"><ele>450.995605</ele><time>2009-08-22T14:39:17Z</time></trkpt>
<trkpt lat="46.17805419" lon="6.07221108"><ele>450.515015</ele><time>2009-08-22T14:39:18Z</time></trkpt>
<trkpt lat="46.17807289" lon="6.07222122"><ele>450.034424</ele><time>2009-08-22T14:39:19Z</time></trkpt>
<trkpt lat="46.17808856" lon="6.07223799"><ele>449.553711</ele><time>2009-08-22T14:39:20Z</time></trkpt>
<trkpt lat="46.17809007" lon="6.07225659"><ele>449.553711</ele><time>2009-08-22T14:39:21Z</time></trkpt>
<trkpt lat="46.17808512" lon="6.07227503"><ele>449.072998</ele><time>2009-08-22T14:39:22Z</time></trkpt>
<trkpt lat="46.17808236" lon="6.07229029"><ele>449.072998</ele><time>2009-08-22T14:39:23Z</time></trkpt>
<trkpt lat="46.17808395" lon="6.07230437"><ele>449.553711</ele><time>2009-08-22T14:39:24Z</time></trkpt>
<trkpt lat="46.17808923" lon="6.07231518"><ele>449.553711</ele><time>2009-08-22T14:39:25Z</time></trkpt>
<trkpt lat="46.17809828" lon="6.07232373"><ele>449.553711</ele><time>2009-08-22T14:39:26Z</time></trkpt>
<trkpt lat="46.17810633" lon="6.07232608"><ele>449.072998</ele><time>2009-08-22T14:39:27Z</time></trkpt>
<trkpt lat="46.17810868" lon="6.07232373"><ele>448.592407</ele><time>2009-08-22T14:39:28Z</time></trkpt>
<trkpt lat="46.17810616" lon="6.07232097"><ele>448.592407</ele><time>2009-08-22T14:39:29Z</time></trkpt>
<trkpt lat="46.17810432" lon="6.07231904"><ele>448.592407</ele><time>2009-08-22T14:39:30Z</time></trkpt>
<trkpt lat="46.17810306" lon="6.07231644"><ele>448.592407</ele><time>2009-08-22T14:39:31Z</time></trkpt>
<trkpt lat="46.17810164" lon="6.07231409"><ele>448.111816</ele><time>2009-08-22T14:39:32Z</time></trkpt>
<trkpt lat="46.17810038" lon="6.07231200"><ele>448.111816</ele><time>2009-08-22T14:39:33Z</time></trkpt>
<trkpt lat="46.17809988" lon="6.07231024"><ele>448.111816</ele><time>2009-08-22T14:39:34Z</time></trkpt>
<trkpt lat="46.17809946" lon="6.07231049"><ele>448.111816</ele><time>2009-08-22T14:39:35Z</time></trkpt>
<trkpt lat="46.17810239" lon="6.07231569"><ele>448.111816</ele><time>2009-08-22T14:39:36Z</time></trkpt>
<trkpt lat="46.17811178" lon="6.07232843"><ele>448.111816</ele><time>2009-08-22T14:39:37Z</time></trkpt>
<trkpt lat="46.17812418" lon="6.07234494"><ele>448.111816</ele><time>2009-08-22T14:39:38Z</time></trkpt>
<trkpt lat="46.17814028" lon="6.07236262"><ele>448.111816</ele><time>2009-08-22T14:39:39Z</time></trkpt>
<trkpt lat="46.17816090" lon="6.07238308"><ele>448.111816</ele><time>2009-08-22T14:39:40Z</time></trkpt>
<trkpt lat="46.17818495" lon="6.07240998"><ele>447.630981</ele><time>2009-08-22T14:39:41Z</time></trkpt>
<trkpt lat="46.17820306" lon="6.07244904"><ele>447.630981</ele><time>2009-08-22T14:39:42Z</time></trkpt>
<trkpt lat="46.17820155" lon="6.07249866"><ele>447.630981</ele><time>2009-08-22T14:39:43Z</time></trkpt>
<trkpt lat="46.17819325" lon="6.07255113"><ele>447.630981</ele><time>2009-08-22T14:39:44Z</time></trkpt>
<trkpt lat="46.17818906" lon="6.07260729"><ele>447.630981</ele><time>2009-08-22T14:39:45Z</time></trkpt>
<trkpt lat="46.17819208" lon="6.07266622"><ele>447.150269</ele><time>2009-08-22T14:39:46Z</time></trkpt>
<trkpt lat="46.17820088" lon="6.07272749"><ele>447.150269</ele><time>2009-08-22T14:39:47Z</time></trkpt>
<trkpt lat="46.17821379" lon="6.07279044"><ele>447.150269</ele><time>2009-08-22T14:39:48Z</time></trkpt>
<trkpt lat="46.17823013" lon="6.07285514"><ele>447.630981</ele><time>2009-08-22T14:39:49Z</time></trkpt>
<trkpt lat="46.17824924" lon="6.07291985"><ele>447.150269</ele><time>2009-08-22T14:39:50Z</time></trkpt>
<trkpt lat="46.17827103" lon="6.07298423"><ele>447.150269</ele><time>2009-08-22T14:39:51Z</time></trkpt>
<trkpt lat="46.17829534" lon="6.07304818"><ele>447.150269</ele><time>2009-08-22T14:39:52Z</time></trkpt>
<trkpt lat="46.17832133" lon="6.07311264"><ele>447.150269</ele><time>2009-08-22T14:39:53Z</time></trkpt>
<trkpt lat="46.17834823" lon="6.07317810"><ele>447.150269</ele><time>2009-08-22T14:39:54Z</time></trkpt>
<trkpt lat="46.17837497" lon="6.07324390"><ele>447.150269</ele><time>2009-08-22T14:39:55Z</time></trkpt>
<trkpt lat="46.17840079" lon="6.07331112"><ele>447.150269</ele><time>2009-08-22T14:39:56Z</time></trkpt>
<trkpt lat="46.17842493" lon="6.07338044"><ele>447.150269</ele><time>2009-08-22T14:39:57Z</time></trkpt>
<trkpt lat="46.17844915" lon="6.07345068"><ele>447.150269</ele><time>2009-08-22T14:39:58Z</time></trkpt>
<trkpt lat="46.17847539" lon="6.07352109"><ele>446.669678</ele><time>2009-08-22T14:39:59Z</time></trkpt>
<trkpt lat="46.17850296" lon="6.07359233"><ele>446.669678</ele><time>2009-08-22T14:40:00Z</time></trkpt>
<trkpt lat="46.17853037" lon="6.07366442"><ele>446.669678</ele><time>2009-08-22T14:40:01Z</time></trkpt>
<trkpt lat="46.17855694" lon="6.07373826"><ele>446.669678</ele><time>2009-08-22T14:40:02Z</time></trkpt>
<trkpt lat="46.17858318" lon="6.07381395"><ele>446.669678</ele><time>2009-08-22T14:40:03Z</time></trkpt>
<trkpt lat="46.17860966" lon="6.07388989"><ele>446.669678</ele><time>2009-08-22T14:40:04Z</time></trkpt>
<trkpt lat="46.17863665" lon="6.07396533"><ele>446.669678</ele><time>2009-08-22T14:40:05Z</time></trkpt>
<trkpt lat="46.17866389" lon="6.07404118"><ele>446.669678</ele><time>2009-08-22T14:40:06Z</time></trkpt>
<trkpt lat="46.17869189" lon="6.07411712"><ele>446.669678</ele><time>2009-08-22T14:40:07Z</time></trkpt>
<trkpt lat="46.17872022" lon="6.07419323"><ele>446.669678</ele><time>2009-08-22T14:40:08Z</time></trkpt>
<trkpt lat="46.17874838" lon="6.07426967"><ele>446.669678</ele><time>2009-08-22T14:40:09Z</time></trkpt>
<trkpt lat="46.17877638" lon="6.07434545"><ele>446.669678</ele><time>2009-08-22T14:40:10Z</time></trkpt>
<trkpt lat="46.17880354" lon="6.07442088"><ele>446.669678</ele><time>2009-08-22T14:40:11Z</time></trkpt>
<trkpt lat="46.17883002" lon="6.07449599"><ele>446.669678</ele><time>2009-08-22T14:40:12Z</time></trkpt>
<trkpt lat="46.17885659" lon="6.07457067"><ele>446.669678</ele><time>2009-08-22T14:40:13Z</time></trkpt>
<trkpt lat="46.17888308" lon="6.07464476"><ele>446.669678</ele><time>2009-08-22T14:40:14Z</time></trkpt>
<trkpt lat="46.17890974" lon="6.07471894"><ele>446.669678</ele><time>2009-08-22T14:40:15Z</time></trkpt>
<trkpt lat="46.17893647" lon="6.07479363"><ele>446.669678</ele><time>2009-08-22T14:40:16Z</time></trkpt>
<trkpt lat="46.17896330" lon="6.07486873"><ele>446.669678</ele><time>2009-08-22T14:40:17Z</time></trkpt>
<trkpt lat="46.17899045" lon="6.07494433"><ele>446.669678</ele><time>2009-08-22T14:40:18Z</time></trkpt>
<trkpt lat="46.17901769" lon="6.07501994"><ele>446.669678</ele><time>2009-08-22T14:40:19Z</time></trkpt>
<trkpt lat="46.17904468" lon="6.07509580"><ele>446.669678</ele><time>2009-08-22T14:40:20Z</time></trkpt>
<trkpt lat="46.17907159" lon="6.07517090"><ele>446.669678</ele><time>2009-08-22T14:40:21Z</time></trkpt>
<trkpt lat="46.17909850" lon="6.07524524"><ele>446.669678</ele><time>2009-08-22T14:40:22Z</time></trkpt>
<trkpt lat="46.17912532" lon="6.07531909"><ele>446.669678</ele><time>2009-08-22T14:40:23Z</time></trkpt>
<trkpt lat="46.17915197" lon="6.07539260"><ele>447.150269</ele><time>2009-08-22T14:40:24Z</time></trkpt>
<trkpt lat="46.17917779" lon="6.07546594"><ele>446.669678</ele><time>2009-08-22T14:40:25Z</time></trkpt>
<trkpt lat="46.17920344" lon="6.07553928"><ele>446.669678</ele><time>2009-08-22T14:40:26Z</time></trkpt>
<trkpt lat="46.17922917" lon="6.07561254"><ele>447.150269</ele><time>2009-08-22T14:40:27Z</time></trkpt>
<trkpt lat="46.17925423" lon="6.07568596"><ele>447.150269</ele><time>2009-08-22T14:40:28Z</time></trkpt>
<trkpt lat="46.17927879" lon="6.07575973"><ele>446.669678</ele><time>2009-08-22T14:40:29Z</time></trkpt>
<trkpt lat="46.17930276" lon="6.07583424"><ele>446.669678</ele><time>2009-08-22T14:40:30Z</time></trkpt>
<trkpt lat="46.17932657" lon="6.07590917"><ele>446.669678</ele><time>2009-08-22T14:40:31Z</time></trkpt>
<trkpt lat="46.17934928" lon="6.07598495"><ele>446.669678</ele><time>2009-08-22T14:40:32Z</time></trkpt>
<trkpt lat="46.17937133" lon="6.07606114"><ele>446.669678</ele><time>2009-08-22T14:40:33Z</time></trkpt>
<trkpt lat="46.17939337" lon="6.07613649"><ele>447.150269</ele><time>2009-08-22T14:40:34Z</time></trkpt>
<trkpt lat="46.17941642" lon="6.07621210"><ele>446.669678</ele><time>2009-08-22T14:40:35Z</time></trkpt>
<trkpt lat="46.17943645" lon="6.07628846"><ele>446.669678</ele><time>2009-08-22T14:40:36Z</time></trkpt>
<trkpt lat="46.17945456" lon="6.07636599"><ele>446.669678</ele><time>2009-08-22T14:40:37Z</time></trkpt>
<trkpt lat="46.17947225" lon="6.07644377"><ele>446.669678</ele><time>2009-08-22T14:40:38Z</time></trkpt>
<trkpt lat="46.17948893" lon="6.07652198"><ele>446.669678</ele><time>2009-08-22T14:40:39Z</time></trkpt>
<trkpt lat="46.17950485" lon="6.07660060"><ele>446.189087</ele><time>2009-08-22T14:40:40Z</time></trkpt>
<trkpt lat="46.17952002" lon="6.07667956"><ele>446.189087</ele><time>2009-08-22T14:40:41Z</time></trkpt>
<trkpt lat="46.17953427" lon="6.07675843"><ele>446.189087</ele><time>2009-08-22T14:40:42Z</time></trkpt>
<trkpt lat="46.17954819" lon="6.07683714"><ele>446.189087</ele><time>2009-08-22T14:40:43Z</time></trkpt>
<trkpt lat="46.17956134" lon="6.07691534"><ele>446.189087</ele><time>2009-08-22T14:40:44Z</time></trkpt>
<trkpt lat="46.17957367" lon="6.07699363"><ele>446.189087</ele><time>2009-08-22T14:40:45Z</time></trkpt>
<trkpt lat="46.17958582" lon="6.07707208"><ele>446.189087</ele><time>2009-08-22T14:40:46Z</time></trkpt>
<trkpt lat="46.17959663" lon="6.07715003"><ele>446.189087</ele><time>2009-08-22T14:40:47Z</time></trkpt>
<trkpt lat="46.17960585" lon="6.07722656"><ele>446.189087</ele><time>2009-08-22T14:40:48Z</time></trkpt>
<trkpt lat="46.17961457" lon="6.07730116"><ele>446.189087</ele><time>2009-08-22T14:40:49Z</time></trkpt>
<trkpt lat="46.17962262" lon="6.07737316"><ele>446.189087</ele><time>2009-08-22T14:40:50Z</time></trkpt>
<trkpt lat="46.17963108" lon="6.07744306"><ele>446.189087</ele><time>2009-08-22T14:40:51Z</time></trkpt>
<trkpt lat="46.17963829" lon="6.07751179"><ele>446.189087</ele><time>2009-08-22T14:40:52Z</time></trkpt>
<trkpt lat="46.17964449" lon="6.07757902"><ele>446.189087</ele><time>2009-08-22T14:40:53Z</time></trkpt>
<trkpt lat="46.17965103" lon="6.07764440"><ele>446.189087</ele><time>2009-08-22T14:40:54Z</time></trkpt>
<trkpt lat="46.17965765" lon="6.07770760"><ele>445.708374</ele><time>2009-08-22T14:40:55Z</time></trkpt>
<trkpt lat="46.17966344" lon="6.07776904"><ele>445.708374</ele><time>2009-08-22T14:40:56Z</time></trkpt>
<trkpt lat="46.17966872" lon="6.07782855"><ele>445.708374</ele><time>2009-08-22T14:40:57Z</time></trkpt>
<trkpt lat="46.17967366" lon="6.07788588"><ele>445.708374</ele><time>2009-08-22T14:40:58Z</time></trkpt>
<trkpt lat="46.17967844" lon="6.07794137"><ele>445.708374</ele><time>2009-08-22T14:40:59Z</time></trkpt>
<trkpt lat="46.17968238" lon="6.07799417"><ele>445.708374</ele><time>2009-08-22T14:41:00Z</time></trkpt>
<trkpt lat="46.17968657" lon="6.07804597"><ele>445.708374</ele><time>2009-08-22T14:41:01Z</time></trkpt>
<trkpt lat="46.17969143" lon="6.07809585"><ele>445.708374</ele><time>2009-08-22T14:41:02Z</time></trkpt>
<trkpt lat="46.17969562" lon="6.07814413"><ele>445.708374</ele><time>2009-08-22T14:41:03Z</time></trkpt>
<trkpt lat="46.17969864" lon="6.07819073"><ele>445.708374</ele><time>2009-08-22T14:41:04Z</time></trkpt>
<trkpt lat="46.17970157" lon="6.07823532"><ele>445.708374</ele><time>2009-08-22T14:41:05Z</time></trkpt>
<trkpt lat="46.17970535" lon="6.07827757"><ele>445.708374</ele><time>2009-08-22T14:41:06Z</time></trkpt>
<trkpt lat="46.17970912" lon="6.07831788"><ele>445.708374</ele><time>2009-08-22T14:41:07Z</time></trkpt>
<trkpt lat="46.17971247" lon="6.07835795"><ele>445.708374</ele><time>2009-08-22T14:41:08Z</time></trkpt>
<trkpt lat="46.17971549" lon="6.07839843"><ele>445.227661</ele><time>2009-08-22T14:41:09Z</time></trkpt>
<trkpt lat="46.17971767" lon="6.07844185"><ele>445.708374</ele><time>2009-08-22T14:41:10Z</time></trkpt>
<trkpt lat="46.17972379" lon="6.07848460"><ele>445.708374</ele><time>2009-08-22T14:41:11Z</time></trkpt>
<trkpt lat="46.17973502" lon="6.07852424"><ele>445.227661</ele><time>2009-08-22T14:41:12Z</time></trkpt>
<trkpt lat="46.17975019" lon="6.07855836"><ele>444.74707</ele><time>2009-08-22T14:41:13Z</time></trkpt>
<trkpt lat="46.17976620" lon="6.07858644"><ele>444.74707</ele><time>2009-08-22T14:41:14Z</time></trkpt>
<trkpt lat="46.17978238" lon="6.07860672"><ele>444.74707</ele><time>2009-08-22T14:41:15Z</time></trkpt>
<trkpt lat="46.17979512" lon="6.07862424"><ele>444.266479</ele><time>2009-08-22T14:41:16Z</time></trkpt>
<trkpt lat="46.17979973" lon="6.07864243"><ele>444.266479</ele><time>2009-08-22T14:41:17Z</time></trkpt>
<trkpt lat="46.17979889" lon="6.07865257"><ele>444.74707</ele><time>2009-08-22T14:41:18Z</time></trkpt>
<trkpt lat="46.17979646" lon="6.07865282"><ele>444.74707</ele><time>2009-08-22T14:41:19Z</time></trkpt>
<trkpt lat="46.17979730" lon="6.07864989"><ele>444.266479</ele><time>2009-08-22T14:41:20Z</time></trkpt>
<trkpt lat="46.17979813" lon="6.07864679"><ele>444.266479</ele><time>2009-08-22T14:41:21Z</time></trkpt>
<trkpt lat="46.17979897" lon="6.07864243"><ele>443.785767</ele><time>2009-08-22T14:41:22Z</time></trkpt>
<trkpt lat="46.17979989" lon="6.07863832"><ele>443.305054</ele><time>2009-08-22T14:41:23Z</time></trkpt>
<trkpt lat="46.17980073" lon="6.07863463"><ele>442.824463</ele><time>2009-08-22T14:41:24Z</time></trkpt>
<trkpt lat="46.17980165" lon="6.07863145"><ele>442.343872</ele><time>2009-08-22T14:41:25Z</time></trkpt>
<trkpt lat="46.17979847" lon="6.07862634"><ele>442.824463</ele><time>2009-08-22T14:41:26Z</time></trkpt>
<trkpt lat="46.17979537" lon="6.07862122"><ele>442.824463</ele><time>2009-08-22T14:41:27Z</time></trkpt>
<trkpt lat="46.17979243" lon="6.07861636"><ele>443.305054</ele><time>2009-08-22T14:41:28Z</time></trkpt>
<trkpt lat="46.17978984" lon="6.07861158"><ele>443.305054</ele><time>2009-08-22T14:41:29Z</time></trkpt>
<trkpt lat="46.17978808" lon="6.07860723"><ele>443.785767</ele><time>2009-08-22T14:41:30Z</time></trkpt>
<trkpt lat="46.17978648" lon="6.07860303"><ele>443.785767</ele><time>2009-08-22T14:41:31Z</time></trkpt>
<trkpt lat="46.17978564" lon="6.07859910"><ele>443.785767</ele><time>2009-08-22T14:41:32Z</time></trkpt>
<trkpt lat="46.17978489" lon="6.07859549"><ele>443.785767</ele><time>2009-08-22T14:41:33Z</time></trkpt>
<trkpt lat="46.17978414" lon="6.07859247"><ele>443.785767</ele><time>2009-08-22T14:41:34Z</time></trkpt>
<trkpt lat="46.17978363" lon="6.07858962"><ele>443.785767</ele><time>2009-08-22T14:41:35Z</time></trkpt>
<trkpt lat="46.17978338" lon="6.07858719"><ele>443.785767</ele><time>2009-08-22T14:41:36Z</time></trkpt>
<trkpt lat="46.17978313" lon="6.07858384"><ele>443.785767</ele><time>2009-08-22T14:41:37Z</time></trkpt>
<trkpt lat="46.17978372" lon="6.07858133"><ele>443.305054</ele><time>2009-08-22T14:41:38Z</time></trkpt>
<trkpt lat="46.17978455" lon="6.07857923"><ele>443.305054</ele><time>2009-08-22T14:41:39Z</time></trkpt>
<trkpt lat="46.17978514" lon="6.07857713"><ele>442.824463</ele><time>2009-08-22T14:41:40Z</time></trkpt>
<trkpt lat="46.17978564" lon="6.07857537"><ele>442.343872</ele><time>2009-08-22T14:41:41Z</time></trkpt>
<trkpt lat="46.17978615" lon="6.07857370"><ele>442.343872</ele><time>2009-08-22T14:41:42Z</time></trkpt>
<trkpt lat="46.17978648" lon="6.07857202"><ele>442.343872</ele><time>2009-08-22T14:41:43Z</time></trkpt>
<trkpt lat="46.17978673" lon="6.07857060"><ele>441.863159</ele><time>2009-08-22T14:41:44Z</time></trkpt>
<trkpt lat="46.17978715" lon="6.07856917"><ele>441.863159</ele><time>2009-08-22T14:41:45Z</time></trkpt>
<trkpt lat="46.17978732" lon="6.07856783"><ele>441.863159</ele><time>2009-08-22T14:41:46Z</time></trkpt>
<trkpt lat="46.17978682" lon="6.07856657"><ele>441.382446</ele><time>2009-08-22T14:41:47Z</time></trkpt>
<trkpt lat="46.17978648" lon="6.07856523"><ele>441.382446</ele><time>2009-08-22T14:41:48Z</time></trkpt>
<trkpt lat="46.17978640" lon="6.07856414"><ele>441.382446</ele><time>2009-08-22T14:41:49Z</time></trkpt>
<trkpt lat="46.17978615" lon="6.07856322"><ele>441.863159</ele><time>2009-08-22T14:41:50Z</time></trkpt>
<trkpt lat="46.17978606" lon="6.07856238"><ele>441.863159</ele><time>2009-08-22T14:41:51Z</time></trkpt>
<trkpt lat="46.17978573" lon="6.07856180"><ele>441.863159</ele><time>2009-08-22T14:41:52Z</time></trkpt>
<trkpt lat="46.17978556" lon="6.07856104"><ele>441.863159</ele><time>2009-08-22T14:41:53Z</time></trkpt>
<trkpt lat="46.17978556" lon="6.07856045"><ele>441.863159</ele><time>2009-08-22T14:41:54Z</time></trkpt>
<trkpt lat="46.17978514" lon="6.07855987"><ele>441.863159</ele><time>2009-08-22T14:41:55Z</time></trkpt>
<trkpt lat="46.17978506" lon="6.07855878"><ele>441.863159</ele><time>2009-08-22T14:41:56Z</time></trkpt>
<trkpt lat="46.17978548" lon="6.07856188"><ele>441.863159</ele><time>2009-08-22T14:41:57Z</time></trkpt>
<trkpt lat="46.17978514" lon="6.07857630"><ele>441.863159</ele><time>2009-08-22T14:41:58Z</time></trkpt>
<trkpt lat="46.17978657" lon="6.07860153"><ele>442.343872</ele><time>2009-08-22T14:41:59Z</time></trkpt>
<trkpt lat="46.17979503" lon="6.07863472"><ele>442.343872</ele><time>2009-08-22T14:42:00Z</time></trkpt>
<trkpt lat="46.17981096" lon="6.07867277"><ele>442.343872</ele><time>2009-08-22T14:42:01Z</time></trkpt>
<trkpt lat="46.17983803" lon="6.07870806"><ele>442.343872</ele><time>2009-08-22T14:42:02Z</time></trkpt>
<trkpt lat="46.17987617" lon="6.07873765"><ele>442.343872</ele><time>2009-08-22T14:42:03Z</time></trkpt>
<trkpt lat="46.17992009" lon="6.07875927"><ele>442.343872</ele><time>2009-08-22T14:42:04Z</time></trkpt>
<trkpt lat="46.17996896" lon="6.07876975"><ele>442.343872</ele><time>2009-08-22T14:42:05Z</time></trkpt>
<trkpt lat="46.18002243" lon="6.07877662"><ele>442.343872</ele><time>2009-08-22T14:42:06Z</time></trkpt>
<trkpt lat="46.18008505" lon="6.07882499"><ele>441.382446</ele><time>2009-08-22T14:42:07Z</time></trkpt>
<trkpt lat="46.18015730" lon="6.07883563"><ele>440.901855</ele><time>2009-08-22T14:42:08Z</time></trkpt>
<trkpt lat="46.18022377" lon="6.07885055"><ele>440.421265</ele><time>2009-08-22T14:42:09Z</time></trkpt>
<trkpt lat="46.18028998" lon="6.07886556"><ele>439.94043</ele><time>2009-08-22T14:42:10Z</time></trkpt>
<trkpt lat="46.18035788" lon="6.07887310"><ele>439.459717</ele><time>2009-08-22T14:42:11Z</time></trkpt>
<trkpt lat="46.18042627" lon="6.07887444"><ele>438.979126</ele><time>2009-08-22T14:42:12Z</time></trkpt>
<trkpt lat="46.18049417" lon="6.07886824"><ele>438.979126</ele><time>2009-08-22T14:42:13Z</time></trkpt>
<trkpt lat="46.18056089" lon="6.07885676"><ele>438.498535</ele><time>2009-08-22T14:42:14Z</time></trkpt>
<trkpt lat="46.18062685" lon="6.07884645"><ele>438.017822</ele><time>2009-08-22T14:42:15Z</time></trkpt>
<trkpt lat="46.18069139" lon="6.07883974"><ele>438.017822</ele><time>2009-08-22T14:42:16Z</time></trkpt>
<trkpt lat="46.18075308" lon="6.07884158"><ele>437.537109</ele><time>2009-08-22T14:42:17Z</time></trkpt>
<trkpt lat="46.18080740" lon="6.07885667"><ele>437.056519</ele><time>2009-08-22T14:42:18Z</time></trkpt>
<trkpt lat="46.18085073" lon="6.07888584"><ele>437.056519</ele><time>2009-08-22T14:42:19Z</time></trkpt>
<trkpt lat="46.18088552" lon="6.07892767"><ele>436.575928</ele><time>2009-08-22T14:42:20Z</time></trkpt>
<trkpt lat="46.18092332" lon="6.07896932"><ele>436.575928</ele><time>2009-08-22T14:42:21Z</time></trkpt>
<trkpt lat="46.18096984" lon="6.07898265"><ele>436.095215</ele><time>2009-08-22T14:42:22Z</time></trkpt>
<trkpt lat="46.18102726" lon="6.07890998"><ele>436.095215</ele><time>2009-08-22T14:42:23Z</time></trkpt>
<trkpt lat="46.18106464" lon="6.07883337"><ele>435.614502</ele><time>2009-08-22T14:42:24Z</time></trkpt>
<trkpt lat="46.18108945" lon="6.07876363"><ele>435.614502</ele><time>2009-08-22T14:42:25Z</time></trkpt>
<trkpt lat="46.18112432" lon="6.07870907"><ele>435.133911</ele><time>2009-08-22T14:42:26Z</time></trkpt>
<trkpt lat="46.18117578" lon="6.07868526"><ele>435.133911</ele><time>2009-08-22T14:42:27Z</time></trkpt>
<trkpt lat="46.18123186" lon="6.07867353"><ele>434.65332</ele><time>2009-08-22T14:42:28Z</time></trkpt>
<trkpt lat="46.18128969" lon="6.07865978"><ele>434.172607</ele><time>2009-08-22T14:42:29Z</time></trkpt>
<trkpt lat="46.18134820" lon="6.07864184"><ele>433.691895</ele><time>2009-08-22T14:42:30Z</time></trkpt>
<trkpt lat="46.18140888" lon="6.07862198"><ele>433.211304</ele><time>2009-08-22T14:42:31Z</time></trkpt>
<trkpt lat="46.18147200" lon="6.07860245"><ele>432.730713</ele><time>2009-08-22T14:42:32Z</time></trkpt>
<trkpt lat="46.18153528" lon="6.07858459"><ele>432.730713</ele><time>2009-08-22T14:42:33Z</time></trkpt>
<trkpt lat="46.18159957" lon="6.07855744"><ele>432.25</ele><time>2009-08-22T14:42:34Z</time></trkpt>
<trkpt lat="46.18166185" lon="6.07852709"><ele>431.769165</ele><time>2009-08-22T14:42:35Z</time></trkpt>
<trkpt lat="46.18172430" lon="6.07849885"><ele>431.288574</ele><time>2009-08-22T14:42:36Z</time></trkpt>
<trkpt lat="46.18178984" lon="6.07847320"><ele>430.807983</ele><time>2009-08-22T14:42:37Z</time></trkpt>
<trkpt lat="46.18186000" lon="6.07844789"><ele>430.327271</ele><time>2009-08-22T14:42:38Z</time></trkpt>
<trkpt lat="46.18192898" lon="6.07842534"><ele>429.846558</ele><time>2009-08-22T14:42:39Z</time></trkpt>
<trkpt lat="46.18199956" lon="6.07839826"><ele>429.846558</ele><time>2009-08-22T14:42:40Z</time></trkpt>
<trkpt lat="46.18207005" lon="6.07836960"><ele>429.846558</ele><time>2009-08-22T14:42:41Z</time></trkpt>
<trkpt lat="46.18214205" lon="6.07834043"><ele>429.846558</ele><time>2009-08-22T14:42:42Z</time></trkpt>
<trkpt lat="46.18221447" lon="6.07831042"><ele>429.365967</ele><time>2009-08-22T14:42:43Z</time></trkpt>
<trkpt lat="46.18228915" lon="6.07827798"><ele>429.365967</ele><time>2009-08-22T14:42:44Z</time></trkpt>
<trkpt lat="46.18236476" lon="6.07824387"><ele>429.365967</ele><time>2009-08-22T14:42:45Z</time></trkpt>
<trkpt lat="46.18243936" lon="6.07821118"><ele>428.885376</ele><time>2009-08-22T14:42:46Z</time></trkpt>
<trkpt lat="46.18251387" lon="6.07817899"><ele>428.885376</ele><time>2009-08-22T14:42:47Z</time></trkpt>
<trkpt lat="46.18258914" lon="6.07814312"><ele>428.885376</ele><time>2009-08-22T14:42:48Z</time></trkpt>
<trkpt lat="46.18266399" lon="6.07810783"><ele>428.404663</ele><time>2009-08-22T14:42:49Z</time></trkpt>
<trkpt lat="46.18274077" lon="6.07807187"><ele>428.404663</ele><time>2009-08-22T14:42:50Z</time></trkpt>
<trkpt lat="46.18281763" lon="6.07803633"><ele>427.92395</ele><time>2009-08-22T14:42:51Z</time></trkpt>
<trkpt lat="46.18289374" lon="6.07800046"><ele>427.92395</ele><time>2009-08-22T14:42:52Z</time></trkpt>
<trkpt lat="46.18297035" lon="6.07796366"><ele>427.443359</ele><time>2009-08-22T14:42:53Z</time></trkpt>
<trkpt lat="46.18304855" lon="6.07792703"><ele>426.962769</ele><time>2009-08-22T14:42:54Z</time></trkpt>
<trkpt lat="46.18312474" lon="6.07789535"><ele>426.962769</ele><time>2009-08-22T14:42:55Z</time></trkpt>
<trkpt lat="46.18320504" lon="6.07786048"><ele>426.962769</ele><time>2009-08-22T14:42:56Z</time></trkpt>
<trkpt lat="46.18328777" lon="6.07782008"><ele>426.482056</ele><time>2009-08-22T14:42:57Z</time></trkpt>
<trkpt lat="46.18337033" lon="6.07778069"><ele>426.001343</ele><time>2009-08-22T14:42:58Z</time></trkpt>
<trkpt lat="46.18345398" lon="6.07774079"><ele>425.520752</ele><time>2009-08-22T14:42:59Z</time></trkpt>
<trkpt lat="46.18353403" lon="6.07770626"><ele>425.520752</ele><time>2009-08-22T14:43:00Z</time></trkpt>
<trkpt lat="46.18361534" lon="6.07766912"><ele>425.040161</ele><time>2009-08-22T14:43:01Z</time></trkpt>
<trkpt lat="46.18369605" lon="6.07763082"><ele>424.559448</ele><time>2009-08-22T14:43:02Z</time></trkpt>
<trkpt lat="46.18377585" lon="6.07759687"><ele>424.078735</ele><time>2009-08-22T14:43:03Z</time></trkpt>
<trkpt lat="46.18385598" lon="6.07756779"><ele>424.078735</ele><time>2009-08-22T14:43:04Z</time></trkpt>
<trkpt lat="46.18393837" lon="6.07754784"><ele>423.598022</ele><time>2009-08-22T14:43:05Z</time></trkpt>
<trkpt lat="46.18402077" lon="6.07754893"><ele>423.117432</ele><time>2009-08-22T14:43:06Z</time></trkpt>
<trkpt lat="46.18409989" lon="6.07757290"><ele>423.117432</ele><time>2009-08-22T14:43:07Z</time></trkpt>
<trkpt lat="46.18417357" lon="6.07761523"><ele>422.636719</ele><time>2009-08-22T14:43:08Z</time></trkpt>
<trkpt lat="46.18424465" lon="6.07766518"><ele>422.636719</ele><time>2009-08-22T14:43:09Z</time></trkpt>
<trkpt lat="46.18431548" lon="6.07771413"><ele>422.636719</ele><time>2009-08-22T14:43:10Z</time></trkpt>
<trkpt lat="46.18438689" lon="6.07776158"><ele>422.156006</ele><time>2009-08-22T14:43:11Z</time></trkpt>
<trkpt lat="46.18445738" lon="6.07780918"><ele>422.156006</ele><time>2009-08-22T14:43:12Z</time></trkpt>
<trkpt lat="46.18452502" lon="6.07785663"><ele>422.156006</ele><time>2009-08-22T14:43:13Z</time></trkpt>
<trkpt lat="46.18459057" lon="6.07790239"><ele>421.675415</ele><time>2009-08-22T14:43:14Z</time></trkpt>
<trkpt lat="46.18465520" lon="6.07794489"><ele>421.675415</ele><time>2009-08-22T14:43:15Z</time></trkpt>
<trkpt lat="46.18471839" lon="6.07798529"><ele>421.675415</ele><time>2009-08-22T14:43:16Z</time></trkpt>
<trkpt lat="46.18477916" lon="6.07802460"><ele>421.675415</ele><time>2009-08-22T14:43:17Z</time></trkpt>
<trkpt lat="46.18483817" lon="6.07806190"><ele>421.675415</ele><time>2009-08-22T14:43:18Z</time></trkpt>
<trkpt lat="46.18489693" lon="6.07809585"><ele>421.675415</ele><time>2009-08-22T14:43:19Z</time></trkpt>
<trkpt lat="46.18495678" lon="6.07812728"><ele>421.675415</ele><time>2009-08-22T14:43:20Z</time></trkpt>
<trkpt lat="46.18501830" lon="6.07815737"><ele>421.194824</ele><time>2009-08-22T14:43:21Z</time></trkpt>
<trkpt lat="46.18508033" lon="6.07818746"><ele>421.194824</ele><time>2009-08-22T14:43:22Z</time></trkpt>
<trkpt lat="46.18514386" lon="6.07821219"><ele>421.194824</ele><time>2009-08-22T14:43:23Z</time></trkpt>
<trkpt lat="46.18520790" lon="6.07823247"><ele>421.194824</ele><time>2009-08-22T14:43:24Z</time></trkpt>
<trkpt lat="46.18527177" lon="6.07825049"><ele>421.194824</ele><time>2009-08-22T14:43:25Z</time></trkpt>
<trkpt lat="46.18533698" lon="6.07825695"><ele>421.194824</ele><time>2009-08-22T14:43:26Z</time></trkpt>
<trkpt lat="46.18539959" lon="6.07826323"><ele>421.194824</ele><time>2009-08-22T14:43:27Z</time></trkpt>
<trkpt lat="46.18546774" lon="6.07826600"><ele>420.714111</ele><time>2009-08-22T14:43:28Z</time></trkpt>
<trkpt lat="46.18554393" lon="6.07826524"><ele>420.714111</ele><time>2009-08-22T14:43:29Z</time></trkpt>
<trkpt lat="46.18563177" lon="6.07825653"><ele>420.233398</ele><time>2009-08-22T14:43:30Z</time></trkpt>
<trkpt lat="46.18571668" lon="6.07824898"><ele>419.752808</ele><time>2009-08-22T14:43:31Z</time></trkpt>
<trkpt lat="46.18580142" lon="6.07824815"><ele>419.272217</ele><time>2009-08-22T14:43:32Z</time></trkpt>
<trkpt lat="46.18589044" lon="6.07825284"><ele>418.791504</ele><time>2009-08-22T14:43:33Z</time></trkpt>
<trkpt lat="46.18598507" lon="6.07825695"><ele>418.310791</ele><time>2009-08-22T14:43:34Z</time></trkpt>
<trkpt lat="46.18607844" lon="6.07826717"><ele>417.8302</ele><time>2009-08-22T14:43:35Z</time></trkpt>
<trkpt lat="46.18616939" lon="6.07828016"><ele>417.8302</ele><time>2009-08-22T14:43:36Z</time></trkpt>
<trkpt lat="46.18626016" lon="6.07829064"><ele>417.8302</ele><time>2009-08-22T14:43:37Z</time></trkpt>
<trkpt lat="46.18634842" lon="6.07830036"><ele>417.8302</ele><time>2009-08-22T14:43:38Z</time></trkpt>
<trkpt lat="46.18643459" lon="6.07830908"><ele>417.349609</ele><time>2009-08-22T14:43:39Z</time></trkpt>
<trkpt lat="46.18651908" lon="6.07831688"><ele>417.349609</ele><time>2009-08-22T14:43:40Z</time></trkpt>
<trkpt lat="46.18660315" lon="6.07832459"><ele>416.868896</ele><time>2009-08-22T14:43:41Z</time></trkpt>
<trkpt lat="46.18668688" lon="6.07833062"><ele>416.868896</ele><time>2009-08-22T14:43:42Z</time></trkpt>
<trkpt lat="46.18677003" lon="6.07833657"><ele>416.868896</ele><time>2009-08-22T14:43:43Z</time></trkpt>
<trkpt lat="46.18685285" lon="6.07834294"><ele>416.388184</ele><time>2009-08-22T14:43:44Z</time></trkpt>
<trkpt lat="46.18693499" lon="6.07834923"><ele>416.388184</ele><time>2009-08-22T14:43:45Z</time></trkpt>
<trkpt lat="46.18701604" lon="6.07835359"><ele>416.388184</ele><time>2009-08-22T14:43:46Z</time></trkpt>
<trkpt lat="46.18709626" lon="6.07835627"><ele>416.388184</ele><time>2009-08-22T14:43:47Z</time></trkpt>
<trkpt lat="46.18717505" lon="6.07835946"><ele>416.388184</ele><time>2009-08-22T14:43:48Z</time></trkpt>
<trkpt lat="46.18725208" lon="6.07836172"><ele>416.388184</ele><time>2009-08-22T14:43:49Z</time></trkpt>
<trkpt lat="46.18732743" lon="6.07836365"><ele>416.868896</ele><time>2009-08-22T14:43:50Z</time></trkpt>
<trkpt lat="46.18740153" lon="6.07836834"><ele>416.868896</ele><time>2009-08-22T14:43:51Z</time></trkpt>
<trkpt lat="46.18747378" lon="6.07837664"><ele>416.868896</ele><time>2009-08-22T14:43:52Z</time></trkpt>
<trkpt lat="46.18754444" lon="6.07839240"><ele>417.349609</ele><time>2009-08-22T14:43:53Z</time></trkpt>
<trkpt lat="46.18761384" lon="6.07841662"><ele>417.349609</ele><time>2009-08-22T14:43:54Z</time></trkpt>
<trkpt lat="46.18768022" lon="6.07844378"><ele>417.8302</ele><time>2009-08-22T14:43:55Z</time></trkpt>
<trkpt lat="46.18774384" lon="6.07847395"><ele>417.8302</ele><time>2009-08-22T14:43:56Z</time></trkpt>
<trkpt lat="46.18780595" lon="6.07850187"><ele>417.8302</ele><time>2009-08-22T14:43:57Z</time></trkpt>
<trkpt lat="46.18786924" lon="6.07852123"><ele>418.310791</ele><time>2009-08-22T14:43:58Z</time></trkpt>
<trkpt lat="46.18793512" lon="6.07853497"><ele>418.791504</ele><time>2009-08-22T14:43:59Z</time></trkpt>
<trkpt lat="46.18799639" lon="6.07854704"><ele>418.791504</ele><time>2009-08-22T14:44:00Z</time></trkpt>
<trkpt lat="46.18805347" lon="6.07855878"><ele>419.272217</ele><time>2009-08-22T14:44:01Z</time></trkpt>
<trkpt lat="46.18811382" lon="6.07856096"><ele>419.272217</ele><time>2009-08-22T14:44:02Z</time></trkpt>
<trkpt lat="46.18817182" lon="6.07856163"><ele>419.752808</ele><time>2009-08-22T14:44:03Z</time></trkpt>
<trkpt lat="46.18822765" lon="6.07856490"><ele>420.714111</ele><time>2009-08-22T14:44:04Z</time></trkpt>
<trkpt lat="46.18828297" lon="6.07856247"><ele>420.714111</ele><time>2009-08-22T14:44:05Z</time></trkpt>
<trkpt lat="46.18834223" lon="6.07855149"><ele>421.194824</ele><time>2009-08-22T14:44:06Z</time></trkpt>
<trkpt lat="46.18840149" lon="6.07853439"><ele>421.194824</ele><time>2009-08-22T14:44:07Z</time></trkpt>
<trkpt lat="46.18846854" lon="6.07849868"><ele>421.194824</ele><time>2009-08-22T14:44:08Z</time></trkpt>
<trkpt lat="46.18855404" lon="6.07843883"><ele>420.714111</ele><time>2009-08-22T14:44:09Z</time></trkpt>
<trkpt lat="46.18864515" lon="6.07837446"><ele>420.233398</ele><time>2009-08-22T14:44:10Z</time></trkpt>
<trkpt lat="46.18872754" lon="6.07831797"><ele>419.752808</ele><time>2009-08-22T14:44:11Z</time></trkpt>
<trkpt lat="46.18880692" lon="6.07826533"><ele>419.272217</ele><time>2009-08-22T14:44:12Z</time></trkpt>
<trkpt lat="46.18888319" lon="6.07821705"><ele>418.791504</ele><time>2009-08-22T14:44:13Z</time></trkpt>
<trkpt lat="46.18895696" lon="6.07816994"><ele>418.310791</ele><time>2009-08-22T14:44:14Z</time></trkpt>
<trkpt lat="46.18904036" lon="6.07811705"><ele>417.8302</ele><time>2009-08-22T14:44:15Z</time></trkpt>
<trkpt lat="46.18911286" lon="6.07806919"><ele>417.8302</ele><time>2009-08-22T14:44:16Z</time></trkpt>
<trkpt lat="46.18918343" lon="6.07802183"><ele>417.349609</ele><time>2009-08-22T14:44:17Z</time></trkpt>
<trkpt lat="46.18925275" lon="6.07797422"><ele>416.868896</ele><time>2009-08-22T14:44:18Z</time></trkpt>
<trkpt lat="46.18932132" lon="6.07792620"><ele>416.868896</ele><time>2009-08-22T14:44:19Z</time></trkpt>
<trkpt lat="46.18938745" lon="6.07787825"><ele>416.388184</ele><time>2009-08-22T14:44:20Z</time></trkpt>
<trkpt lat="46.18945258" lon="6.07783140"><ele>415.907471</ele><time>2009-08-22T14:44:21Z</time></trkpt>
<trkpt lat="46.18951955" lon="6.07778563"><ele>415.42688</ele><time>2009-08-22T14:44:22Z</time></trkpt>
<trkpt lat="46.18958652" lon="6.07774138"><ele>415.42688</ele><time>2009-08-22T14:44:23Z</time></trkpt>
<trkpt lat="46.18965249" lon="6.07769762"><ele>414.946167</ele><time>2009-08-22T14:44:24Z</time></trkpt>
<trkpt lat="46.18971786" lon="6.07765378"><ele>414.465454</ele><time>2009-08-22T14:44:25Z</time></trkpt>
<trkpt lat="46.18978366" lon="6.07761003"><ele>414.465454</ele><time>2009-08-22T14:44:26Z</time></trkpt>
<trkpt lat="46.18984938" lon="6.07756703"><ele>413.984863</ele><time>2009-08-22T14:44:27Z</time></trkpt>
<trkpt lat="46.18991425" lon="6.07752328"><ele>413.984863</ele><time>2009-08-22T14:44:28Z</time></trkpt>
<trkpt lat="46.18997846" lon="6.07747978"><ele>413.504272</ele><time>2009-08-22T14:44:29Z</time></trkpt>
<trkpt lat="46.19004224" lon="6.07743619"><ele>413.504272</ele><time>2009-08-22T14:44:30Z</time></trkpt>
<trkpt lat="46.19010586" lon="6.07739235"><ele>413.504272</ele><time>2009-08-22T14:44:31Z</time></trkpt>
<trkpt lat="46.19016889" lon="6.07734944"><ele>413.504272</ele><time>2009-08-22T14:44:32Z</time></trkpt>
<trkpt lat="46.19023084" lon="6.07730669"><ele>413.02356</ele><time>2009-08-22T14:44:33Z</time></trkpt>
<trkpt lat="46.19029253" lon="6.07726352"><ele>413.02356</ele><time>2009-08-22T14:44:34Z</time></trkpt>
<trkpt lat="46.19035522" lon="6.07722279"><ele>412.542847</ele><time>2009-08-22T14:44:35Z</time></trkpt>
<trkpt lat="46.19041943" lon="6.07718314"><ele>412.542847</ele><time>2009-08-22T14:44:36Z</time></trkpt>
<trkpt lat="46.19048472" lon="6.07714232"><ele>412.062256</ele><time>2009-08-22T14:44:37Z</time></trkpt>
<trkpt lat="46.19055103" lon="6.07710016"><ele>412.062256</ele><time>2009-08-22T14:44:38Z</time></trkpt>
<trkpt lat="46.19061825" lon="6.07705733"><ele>411.581665</ele><time>2009-08-22T14:44:39Z</time></trkpt>
<trkpt lat="46.19068706" lon="6.07701316"><ele>411.581665</ele><time>2009-08-22T14:44:40Z</time></trkpt>
<trkpt lat="46.19075739" lon="6.07696789"><ele>411.100952</ele><time>2009-08-22T14:44:41Z</time></trkpt>
<trkpt lat="46.19082855" lon="6.07692146"><ele>410.620239</ele><time>2009-08-22T14:44:42Z</time></trkpt>
<trkpt lat="46.19090072" lon="6.07687477"><ele>410.620239</ele><time>2009-08-22T14:44:43Z</time></trkpt>
<trkpt lat="46.19097440" lon="6.07682867"><ele>410.139648</ele><time>2009-08-22T14:44:44Z</time></trkpt>
<trkpt lat="46.19104866" lon="6.07678282"><ele>409.659058</ele><time>2009-08-22T14:44:45Z</time></trkpt>
<trkpt lat="46.19112519" lon="6.07673203"><ele>409.659058</ele><time>2009-08-22T14:44:46Z</time></trkpt>
<trkpt lat="46.19120012" lon="6.07667863"><ele>409.178345</ele><time>2009-08-22T14:44:47Z</time></trkpt>
<trkpt lat="46.19127179" lon="6.07662088"><ele>408.697632</ele><time>2009-08-22T14:44:48Z</time></trkpt>
<trkpt lat="46.19133918" lon="6.07655768"><ele>408.697632</ele><time>2009-08-22T14:44:49Z</time></trkpt>
<trkpt lat="46.19140313" lon="6.07649080"><ele>408.697632</ele><time>2009-08-22T14:44:50Z</time></trkpt>
<trkpt lat="46.19146583" lon="6.07642248"><ele>408.697632</ele><time>2009-08-22T14:44:51Z</time></trkpt>
<trkpt lat="46.19152634" lon="6.07635509"><ele>408.697632</ele><time>2009-08-22T14:44:52Z</time></trkpt>
<trkpt lat="46.19158468" lon="6.07628879"><ele>408.697632</ele><time>2009-08-22T14:44:53Z</time></trkpt>
<trkpt lat="46.19164025" lon="6.07622400"><ele>408.697632</ele><time>2009-08-22T14:44:54Z</time></trkpt>
<trkpt lat="46.19169398" lon="6.07616197"><ele>408.697632</ele><time>2009-08-22T14:44:55Z</time></trkpt>
<trkpt lat="46.19174679" lon="6.07610187"><ele>408.697632</ele><time>2009-08-22T14:44:56Z</time></trkpt>
<trkpt lat="46.19179892" lon="6.07604178"><ele>408.697632</ele><time>2009-08-22T14:44:57Z</time></trkpt>
<trkpt lat="46.19185114" lon="6.07598042"><ele>408.697632</ele><time>2009-08-22T14:44:58Z</time></trkpt>
<trkpt lat="46.19190479" lon="6.07591898"><ele>408.217041</ele><time>2009-08-22T14:44:59Z</time></trkpt>
<trkpt lat="46.19196002" lon="6.07585696"><ele>408.217041</ele><time>2009-08-22T14:45:00Z</time></trkpt>
<trkpt lat="46.19201677" lon="6.07579317"><ele>407.736328</ele><time>2009-08-22T14:45:01Z</time></trkpt>
<trkpt lat="46.19207368" lon="6.07572779"><ele>407.736328</ele><time>2009-08-22T14:45:02Z</time></trkpt>
<trkpt lat="46.19213060" lon="6.07566199"><ele>407.255615</ele><time>2009-08-22T14:45:03Z</time></trkpt>
<trkpt lat="46.19218768" lon="6.07559728"><ele>407.255615</ele><time>2009-08-22T14:45:04Z</time></trkpt>
<trkpt lat="46.19224367" lon="6.07553249"><ele>407.255615</ele><time>2009-08-22T14:45:05Z</time></trkpt>
<trkpt lat="46.19229832" lon="6.07546879"><ele>407.255615</ele><time>2009-08-22T14:45:06Z</time></trkpt>
<trkpt lat="46.19235263" lon="6.07540752"><ele>406.774902</ele><time>2009-08-22T14:45:07Z</time></trkpt>
<trkpt lat="46.19240703" lon="6.07534683"><ele>406.774902</ele><time>2009-08-22T14:45:08Z</time></trkpt>
<trkpt lat="46.19246009" lon="6.07528573"><ele>406.774902</ele><time>2009-08-22T14:45:09Z</time></trkpt>
<trkpt lat="46.19251197" lon="6.07522345"><ele>406.774902</ele><time>2009-08-22T14:45:10Z</time></trkpt>
<trkpt lat="46.19256344" lon="6.07516293"><ele>406.774902</ele><time>2009-08-22T14:45:11Z</time></trkpt>
<trkpt lat="46.19261306" lon="6.07510485"><ele>406.294312</ele><time>2009-08-22T14:45:12Z</time></trkpt>
<trkpt lat="46.19266125" lon="6.07504944"><ele>406.294312</ele><time>2009-08-22T14:45:13Z</time></trkpt>
<trkpt lat="46.19270870" lon="6.07499714"><ele>406.294312</ele><time>2009-08-22T14:45:14Z</time></trkpt>
<trkpt lat="46.19275555" lon="6.07494802"><ele>406.294312</ele><time>2009-08-22T14:45:15Z</time></trkpt>
<trkpt lat="46.19280090" lon="6.07489949"><ele>406.294312</ele><time>2009-08-22T14:45:16Z</time></trkpt>
<trkpt lat="46.19284406" lon="6.07484845"><ele>406.294312</ele><time>2009-08-22T14:45:17Z</time></trkpt>
<trkpt lat="46.19288480" lon="6.07479522"><ele>406.294312</ele><time>2009-08-22T14:45:18Z</time></trkpt>
<trkpt lat="46.19292319" lon="6.07474199"><ele>406.774902</ele><time>2009-08-22T14:45:19Z</time></trkpt>
<trkpt lat="46.19296133" lon="6.07468969"><ele>406.774902</ele><time>2009-08-22T14:45:20Z</time></trkpt>
<trkpt lat="46.19300089" lon="6.07463823"><ele>407.255615</ele><time>2009-08-22T14:45:21Z</time></trkpt>
<trkpt lat="46.19304338" lon="6.07458785"><ele>407.255615</ele><time>2009-08-22T14:45:22Z</time></trkpt>
<trkpt lat="46.19308580" lon="6.07453714"><ele>407.736328</ele><time>2009-08-22T14:45:23Z</time></trkpt>
<trkpt lat="46.19312913" lon="6.07448517"><ele>407.736328</ele><time>2009-08-22T14:45:24Z</time></trkpt>
<trkpt lat="46.19317247" lon="6.07443756"><ele>407.736328</ele><time>2009-08-22T14:45:25Z</time></trkpt>
<trkpt lat="46.19321806" lon="6.07438702"><ele>408.217041</ele><time>2009-08-22T14:45:26Z</time></trkpt>
<trkpt lat="46.19326743" lon="6.07433489"><ele>408.217041</ele><time>2009-08-22T14:45:27Z</time></trkpt>
<trkpt lat="46.19331747" lon="6.07428233"><ele>408.217041</ele><time>2009-08-22T14:45:28Z</time></trkpt>
<trkpt lat="46.19336559" lon="6.07422919"><ele>408.217041</ele><time>2009-08-22T14:45:29Z</time></trkpt>
<trkpt lat="46.19340909" lon="6.07417865"><ele>408.697632</ele><time>2009-08-22T14:45:30Z</time></trkpt>
<trkpt lat="46.19345225" lon="6.07412869"><ele>408.697632</ele><time>2009-08-22T14:45:31Z</time></trkpt>
<trkpt lat="46.19350020" lon="6.07407572"><ele>408.697632</ele><time>2009-08-22T14:45:32Z</time></trkpt>
<trkpt lat="46.19354613" lon="6.07402174"><ele>408.697632</ele><time>2009-08-22T14:45:33Z</time></trkpt>
<trkpt lat="46.19359156" lon="6.07397036"><ele>409.178345</ele><time>2009-08-22T14:45:34Z</time></trkpt>
<trkpt lat="46.19363942" lon="6.07392074"><ele>409.178345</ele><time>2009-08-22T14:45:35Z</time></trkpt>
<trkpt lat="46.19368728" lon="6.07386936"><ele>409.178345</ele><time>2009-08-22T14:45:36Z</time></trkpt>
<trkpt lat="46.19373397" lon="6.07381487"><ele>408.697632</ele><time>2009-08-22T14:45:37Z</time></trkpt>
<trkpt lat="46.19378208" lon="6.07376156"><ele>409.178345</ele><time>2009-08-22T14:45:38Z</time></trkpt>
<trkpt lat="46.19382952" lon="6.07370993"><ele>409.178345</ele><time>2009-08-22T14:45:39Z</time></trkpt>
<trkpt lat="46.19387529" lon="6.07366224"><ele>409.178345</ele><time>2009-08-22T14:45:40Z</time></trkpt>
<trkpt lat="46.19392323" lon="6.07361563"><ele>409.178345</ele><time>2009-08-22T14:45:41Z</time></trkpt>
<trkpt lat="46.19397319" lon="6.07356744"><ele>409.178345</ele><time>2009-08-22T14:45:42Z</time></trkpt>
<trkpt lat="46.19401988" lon="6.07351757"><ele>409.659058</ele><time>2009-08-22T14:45:43Z</time></trkpt>
<trkpt lat="46.19406698" lon="6.07346325"><ele>409.659058</ele><time>2009-08-22T14:45:44Z</time></trkpt>
<trkpt lat="46.19411694" lon="6.07340952"><ele>410.139648</ele><time>2009-08-22T14:45:45Z</time></trkpt>
<trkpt lat="46.19416589" lon="6.07335689"><ele>410.620239</ele><time>2009-08-22T14:45:46Z</time></trkpt>
<trkpt lat="46.19421308" lon="6.07330458"><ele>410.620239</ele><time>2009-08-22T14:45:47Z</time></trkpt>
<trkpt lat="46.19425859" lon="6.07325253"><ele>411.100952</ele><time>2009-08-22T14:45:48Z</time></trkpt>
<trkpt lat="46.19430318" lon="6.07319998"><ele>411.581665</ele><time>2009-08-22T14:45:49Z</time></trkpt>
<trkpt lat="46.19434685" lon="6.07314449"><ele>412.062256</ele><time>2009-08-22T14:45:50Z</time></trkpt>
<trkpt lat="46.19439002" lon="6.07309327"><ele>412.542847</ele><time>2009-08-22T14:45:51Z</time></trkpt>
<trkpt lat="46.19443998" lon="6.07304273"><ele>413.02356</ele><time>2009-08-22T14:45:52Z</time></trkpt>
<trkpt lat="46.19448943" lon="6.07299034"><ele>413.504272</ele><time>2009-08-22T14:45:53Z</time></trkpt>
<trkpt lat="46.19453830" lon="6.07294399"><ele>413.984863</ele><time>2009-08-22T14:45:54Z</time></trkpt>
<trkpt lat="46.19459219" lon="6.07289052"><ele>413.984863</ele><time>2009-08-22T14:45:55Z</time></trkpt>
<trkpt lat="46.19463645" lon="6.07283645"><ele>413.984863</ele><time>2009-08-22T14:45:56Z</time></trkpt>
<trkpt lat="46.19468423" lon="6.07278155"><ele>413.984863</ele><time>2009-08-22T14:45:57Z</time></trkpt>
<trkpt lat="46.19473259" lon="6.07272606"><ele>414.465454</ele><time>2009-08-22T14:45:58Z</time></trkpt>
<trkpt lat="46.19478523" lon="6.07266974"><ele>414.465454</ele><time>2009-08-22T14:45:59Z</time></trkpt>
<trkpt lat="46.19483217" lon="6.07261844"><ele>414.946167</ele><time>2009-08-22T14:46:00Z</time></trkpt>
<trkpt lat="46.19488237" lon="6.07256513"><ele>415.907471</ele><time>2009-08-22T14:46:01Z</time></trkpt>
<trkpt lat="46.19492579" lon="6.07251409"><ele>415.907471</ele><time>2009-08-22T14:46:02Z</time></trkpt>
<trkpt lat="46.19496762" lon="6.07246388"><ele>416.388184</ele><time>2009-08-22T14:46:03Z</time></trkpt>
<trkpt lat="46.19501087" lon="6.07241275"><ele>416.868896</ele><time>2009-08-22T14:46:04Z</time></trkpt>
<trkpt lat="46.19504440" lon="6.07236497"><ele>416.868896</ele><time>2009-08-22T14:46:05Z</time></trkpt>
<trkpt lat="46.19508346" lon="6.07233102"><ele>416.868896</ele><time>2009-08-22T14:46:06Z</time></trkpt>
<trkpt lat="46.19512327" lon="6.07234376"><ele>416.868896</ele><time>2009-08-22T14:46:07Z</time></trkpt>
<trkpt lat="46.19515956" lon="6.07238123"><ele>416.868896</ele><time>2009-08-22T14:46:08Z</time></trkpt>
<trkpt lat="46.19517826" lon="6.07244175"><ele>417.349609</ele><time>2009-08-22T14:46:09Z</time></trkpt>
<trkpt lat="46.19520072" lon="6.07250537"><ele>417.349609</ele><time>2009-08-22T14:46:10Z</time></trkpt>
<trkpt lat="46.19523014" lon="6.07257125"><ele>417.349609</ele><time>2009-08-22T14:46:11Z</time></trkpt>
<trkpt lat="46.19526308" lon="6.07264124"><ele>417.349609</ele><time>2009-08-22T14:46:12Z</time></trkpt>
<trkpt lat="46.19529753" lon="6.07271399"><ele>417.349609</ele><time>2009-08-22T14:46:13Z</time></trkpt>
<trkpt lat="46.19533215" lon="6.07278960"><ele>417.349609</ele><time>2009-08-22T14:46:14Z</time></trkpt>
<trkpt lat="46.19536609" lon="6.07286755"><ele>417.349609</ele><time>2009-08-22T14:46:15Z</time></trkpt>
<trkpt lat="46.19539753" lon="6.07294743"><ele>417.8302</ele><time>2009-08-22T14:46:16Z</time></trkpt>
<trkpt lat="46.19542804" lon="6.07302639"><ele>417.8302</ele><time>2009-08-22T14:46:17Z</time></trkpt>
<trkpt lat="46.19545897" lon="6.07310182"><ele>417.8302</ele><time>2009-08-22T14:46:18Z</time></trkpt>
<trkpt lat="46.19549048" lon="6.07317500"><ele>418.310791</ele><time>2009-08-22T14:46:19Z</time></trkpt>
<trkpt lat="46.19552275" lon="6.07324742"><ele>418.310791</ele><time>2009-08-22T14:46:20Z</time></trkpt>
<trkpt lat="46.19555628" lon="6.07331975"><ele>418.791504</ele><time>2009-08-22T14:46:21Z</time></trkpt>
<trkpt lat="46.19559299" lon="6.07338832"><ele>418.791504</ele><time>2009-08-22T14:46:22Z</time></trkpt>
<trkpt lat="46.19563172" lon="6.07345353"><ele>418.791504</ele><time>2009-08-22T14:46:23Z</time></trkpt>
<trkpt lat="46.19567027" lon="6.07351949"><ele>418.791504</ele><time>2009-08-22T14:46:24Z</time></trkpt>
<trkpt lat="46.19570933" lon="6.07358538"><ele>419.272217</ele><time>2009-08-22T14:46:25Z</time></trkpt>
<trkpt lat="46.19574915" lon="6.07365143"><ele>419.272217</ele><time>2009-08-22T14:46:26Z</time></trkpt>
<trkpt lat="46.19579022" lon="6.07371664"><ele>419.272217</ele><time>2009-08-22T14:46:27Z</time></trkpt>
<trkpt lat="46.19583288" lon="6.07378193"><ele>419.272217</ele><time>2009-08-22T14:46:28Z</time></trkpt>
<trkpt lat="46.19587714" lon="6.07384756"><ele>419.272217</ele><time>2009-08-22T14:46:29Z</time></trkpt>
<trkpt lat="46.19592198" lon="6.07391403"><ele>419.272217</ele><time>2009-08-22T14:46:30Z</time></trkpt>
<trkpt lat="46.19596758" lon="6.07397974"><ele>419.272217</ele><time>2009-08-22T14:46:31Z</time></trkpt>
<trkpt lat="46.19601343" lon="6.07404504"><ele>419.272217</ele><time>2009-08-22T14:46:32Z</time></trkpt>
<trkpt lat="46.19605986" lon="6.07411067"><ele>419.272217</ele><time>2009-08-22T14:46:33Z</time></trkpt>
<trkpt lat="46.19610747" lon="6.07417555"><ele>418.791504</ele><time>2009-08-22T14:46:34Z</time></trkpt>
<trkpt lat="46.19615533" lon="6.07424235"><ele>418.791504</ele><time>2009-08-22T14:46:35Z</time></trkpt>
<trkpt lat="46.19620353" lon="6.07430966"><ele>418.791504</ele><time>2009-08-22T14:46:36Z</time></trkpt>
<trkpt lat="46.19625206" lon="6.07437747"><ele>418.791504</ele><time>2009-08-22T14:46:37Z</time></trkpt>
<trkpt lat="46.19630177" lon="6.07444595"><ele>418.791504</ele><time>2009-08-22T14:46:38Z</time></trkpt>
<trkpt lat="46.19635256" lon="6.07451619"><ele>418.310791</ele><time>2009-08-22T14:46:39Z</time></trkpt>
<trkpt lat="46.19640537" lon="6.07458819"><ele>417.8302</ele><time>2009-08-22T14:46:40Z</time></trkpt>
<trkpt lat="46.19646052" lon="6.07466304"><ele>417.349609</ele><time>2009-08-22T14:46:41Z</time></trkpt>
<trkpt lat="46.19651693" lon="6.07474107"><ele>416.868896</ele><time>2009-08-22T14:46:42Z</time></trkpt>
<trkpt lat="46.19657376" lon="6.07481902"><ele>416.868896</ele><time>2009-08-22T14:46:43Z</time></trkpt>
<trkpt lat="46.19662983" lon="6.07489488"><ele>416.388184</ele><time>2009-08-22T14:46:44Z</time></trkpt>
<trkpt lat="46.19668482" lon="6.07496965"><ele>416.388184</ele><time>2009-08-22T14:46:45Z</time></trkpt>
<trkpt lat="46.19673922" lon="6.07504383"><ele>415.907471</ele><time>2009-08-22T14:46:46Z</time></trkpt>
<trkpt lat="46.19679387" lon="6.07511792"><ele>415.907471</ele><time>2009-08-22T14:46:47Z</time></trkpt>
<trkpt lat="46.19684877" lon="6.07519286"><ele>415.42688</ele><time>2009-08-22T14:46:48Z</time></trkpt>
<trkpt lat="46.19690417" lon="6.07526813"><ele>414.946167</ele><time>2009-08-22T14:46:49Z</time></trkpt>
<trkpt lat="46.19696016" lon="6.07534348"><ele>414.946167</ele><time>2009-08-22T14:46:50Z</time></trkpt>
<trkpt lat="46.19701666" lon="6.07541892"><ele>414.465454</ele><time>2009-08-22T14:46:51Z</time></trkpt>
<trkpt lat="46.19707273" lon="6.07549377"><ele>414.465454</ele><time>2009-08-22T14:46:52Z</time></trkpt>
<trkpt lat="46.19712772" lon="6.07556744"><ele>413.984863</ele><time>2009-08-22T14:46:53Z</time></trkpt>
<trkpt lat="46.19718120" lon="6.07564062"><ele>413.984863</ele><time>2009-08-22T14:46:54Z</time></trkpt>
<trkpt lat="46.19723333" lon="6.07571597"><ele>413.504272</ele><time>2009-08-22T14:46:55Z</time></trkpt>
<trkpt lat="46.19728588" lon="6.07579024"><ele>413.504272</ele><time>2009-08-22T14:46:56Z</time></trkpt>
<trkpt lat="46.19733844" lon="6.07586324"><ele>413.504272</ele><time>2009-08-22T14:46:57Z</time></trkpt>
<trkpt lat="46.19739074" lon="6.07593575"><ele>413.504272</ele><time>2009-08-22T14:46:58Z</time></trkpt>
<trkpt lat="46.19744296" lon="6.07600800"><ele>413.504272</ele><time>2009-08-22T14:46:59Z</time></trkpt>
<trkpt lat="46.19749468" lon="6.07608008"><ele>413.504272</ele><time>2009-08-22T14:47:00Z</time></trkpt>
<trkpt lat="46.19754564" lon="6.07615217"><ele>413.504272</ele><time>2009-08-22T14:47:01Z</time></trkpt>
<trkpt lat="46.19759610" lon="6.07622358"><ele>413.984863</ele><time>2009-08-22T14:47:02Z</time></trkpt>
<trkpt lat="46.19764622" lon="6.07629349"><ele>413.984863</ele><time>2009-08-22T14:47:03Z</time></trkpt>
<trkpt lat="46.19769618" lon="6.07636222"><ele>413.984863</ele><time>2009-08-22T14:47:04Z</time></trkpt>
<trkpt lat="46.19774546" lon="6.07643053"><ele>413.984863</ele><time>2009-08-22T14:47:05Z</time></trkpt>
<trkpt lat="46.19779416" lon="6.07649826"><ele>413.984863</ele><time>2009-08-22T14:47:06Z</time></trkpt>
<trkpt lat="46.19784202" lon="6.07656548"><ele>413.984863</ele><time>2009-08-22T14:47:07Z</time></trkpt>
<trkpt lat="46.19788880" lon="6.07663346"><ele>413.984863</ele><time>2009-08-22T14:47:08Z</time></trkpt>
<trkpt lat="46.19793339" lon="6.07670353"><ele>414.465454</ele><time>2009-08-22T14:47:09Z</time></trkpt>
<trkpt lat="46.19797789" lon="6.07677318"><ele>414.465454</ele><time>2009-08-22T14:47:10Z</time></trkpt>
<trkpt lat="46.19802383" lon="6.07683906"><ele>414.465454</ele><time>2009-08-22T14:47:11Z</time></trkpt>
<trkpt lat="46.19807010" lon="6.07690302"><ele>414.465454</ele><time>2009-08-22T14:47:12Z</time></trkpt>
<trkpt lat="46.19811502" lon="6.07696664"><ele>414.465454</ele><time>2009-08-22T14:47:13Z</time></trkpt>
<trkpt lat="46.19815995" lon="6.07702757"><ele>414.946167</ele><time>2009-08-22T14:47:14Z</time></trkpt>
<trkpt lat="46.19820412" lon="6.07708692"><ele>414.946167</ele><time>2009-08-22T14:47:15Z</time></trkpt>
<trkpt lat="46.19824679" lon="6.07714626"><ele>414.946167</ele><time>2009-08-22T14:47:16Z</time></trkpt>
<trkpt lat="46.19828853" lon="6.07720502"><ele>414.946167</ele><time>2009-08-22T14:47:17Z</time></trkpt>
<trkpt lat="46.19832767" lon="6.07726436"><ele>414.946167</ele><time>2009-08-22T14:47:18Z</time></trkpt>
<trkpt lat="46.19836162" lon="6.07732806"><ele>414.946167</ele><time>2009-08-22T14:47:19Z</time></trkpt>
<trkpt lat="46.19839003" lon="6.07739805"><ele>414.946167</ele><time>2009-08-22T14:47:20Z</time></trkpt>
<trkpt lat="46.19841308" lon="6.07747408"><ele>414.946167</ele><time>2009-08-22T14:47:21Z</time></trkpt>
<trkpt lat="46.19842985" lon="6.07755605"><ele>414.946167</ele><time>2009-08-22T14:47:22Z</time></trkpt>
<trkpt lat="46.19843815" lon="6.07764272"><ele>414.946167</ele><time>2009-08-22T14:47:23Z</time></trkpt>
<trkpt lat="46.19843672" lon="6.07773199"><ele>414.465454</ele><time>2009-08-22T14:47:24Z</time></trkpt>
<trkpt lat="46.19842792" lon="6.07782184"><ele>414.946167</ele><time>2009-08-22T14:47:25Z</time></trkpt>
<trkpt lat="46.19841644" lon="6.07791195"><ele>414.946167</ele><time>2009-08-22T14:47:26Z</time></trkpt>
<trkpt lat="46.19840554" lon="6.07800297"><ele>415.42688</ele><time>2009-08-22T14:47:27Z</time></trkpt>
<trkpt lat="46.19839515" lon="6.07809266"><ele>415.42688</ele><time>2009-08-22T14:47:28Z</time></trkpt>
<trkpt lat="46.19838433" lon="6.07818067"><ele>415.907471</ele><time>2009-08-22T14:47:29Z</time></trkpt>
<trkpt lat="46.19837402" lon="6.07826767"><ele>415.907471</ele><time>2009-08-22T14:47:30Z</time></trkpt>
<trkpt lat="46.19836388" lon="6.07835376"><ele>416.388184</ele><time>2009-08-22T14:47:31Z</time></trkpt>
<trkpt lat="46.19835332" lon="6.07843875"><ele>416.388184</ele><time>2009-08-22T14:47:32Z</time></trkpt>
<trkpt lat="46.19834309" lon="6.07852274"><ele>416.868896</ele><time>2009-08-22T14:47:33Z</time></trkpt>
<trkpt lat="46.19833354" lon="6.07860572"><ele>416.868896</ele><time>2009-08-22T14:47:34Z</time></trkpt>
<trkpt lat="46.19832407" lon="6.07868744"><ele>417.349609</ele><time>2009-08-22T14:47:35Z</time></trkpt>
<trkpt lat="46.19831418" lon="6.07876757"><ele>417.349609</ele><time>2009-08-22T14:47:36Z</time></trkpt>
<trkpt lat="46.19830437" lon="6.07884670"><ele>417.8302</ele><time>2009-08-22T14:47:37Z</time></trkpt>
<trkpt lat="46.19829456" lon="6.07892465"><ele>417.8302</ele><time>2009-08-22T14:47:38Z</time></trkpt>
<trkpt lat="46.19828476" lon="6.07900218"><ele>418.310791</ele><time>2009-08-22T14:47:39Z</time></trkpt>
<trkpt lat="46.19827528" lon="6.07907929"><ele>418.310791</ele><time>2009-08-22T14:47:40Z</time></trkpt>
<trkpt lat="46.19826606" lon="6.07915658"><ele>418.791504</ele><time>2009-08-22T14:47:41Z</time></trkpt>
<trkpt lat="46.19825793" lon="6.07923369"><ele>418.791504</ele><time>2009-08-22T14:47:42Z</time></trkpt>
<trkpt lat="46.19825014" lon="6.07931122"><ele>418.791504</ele><time>2009-08-22T14:47:43Z</time></trkpt>
<trkpt lat="46.19824234" lon="6.07938507"><ele>419.272217</ele><time>2009-08-22T14:47:44Z</time></trkpt>
<trkpt lat="46.19823237" lon="6.07945774"><ele>419.272217</ele><time>2009-08-22T14:47:45Z</time></trkpt>
<trkpt lat="46.19821904" lon="6.07952848"><ele>419.752808</ele><time>2009-08-22T14:47:46Z</time></trkpt>
<trkpt lat="46.19820404" lon="6.07959780"><ele>419.752808</ele><time>2009-08-22T14:47:47Z</time></trkpt>
<trkpt lat="46.19818929" lon="6.07966628"><ele>420.233398</ele><time>2009-08-22T14:47:48Z</time></trkpt>
<trkpt lat="46.19817596" lon="6.07973384"><ele>420.714111</ele><time>2009-08-22T14:47:49Z</time></trkpt>
<trkpt lat="46.19816389" lon="6.07980198"><ele>420.714111</ele><time>2009-08-22T14:47:50Z</time></trkpt>
<trkpt lat="46.19815316" lon="6.07987155"><ele>420.714111</ele><time>2009-08-22T14:47:51Z</time></trkpt>
<trkpt lat="46.19814704" lon="6.07994230"><ele>420.714111</ele><time>2009-08-22T14:47:52Z</time></trkpt>
<trkpt lat="46.19814788" lon="6.08001329"><ele>420.714111</ele><time>2009-08-22T14:47:53Z</time></trkpt>
<trkpt lat="46.19815039" lon="6.08008772"><ele>420.714111</ele><time>2009-08-22T14:47:54Z</time></trkpt>
<trkpt lat="46.19815266" lon="6.08016475"><ele>420.714111</ele><time>2009-08-22T14:47:55Z</time></trkpt>
<trkpt lat="46.19815484" lon="6.08024220"><ele>420.714111</ele><time>2009-08-22T14:47:56Z</time></trkpt>
<trkpt lat="46.19815660" lon="6.08031864"><ele>421.194824</ele><time>2009-08-22T14:47:57Z</time></trkpt>
<trkpt lat="46.19815903" lon="6.08039458"><ele>421.194824</ele><time>2009-08-22T14:47:58Z</time></trkpt>
<trkpt lat="46.19816179" lon="6.08046935"><ele>421.675415</ele><time>2009-08-22T14:47:59Z</time></trkpt>
<trkpt lat="46.19816582" lon="6.08054495"><ele>421.675415</ele><time>2009-08-22T14:48:00Z</time></trkpt>
<trkpt lat="46.19817085" lon="6.08062006"><ele>422.156006</ele><time>2009-08-22T14:48:01Z</time></trkpt>
<trkpt lat="46.19817579" lon="6.08069348"><ele>422.156006</ele><time>2009-08-22T14:48:02Z</time></trkpt>
<trkpt lat="46.19818057" lon="6.08076699"><ele>422.636719</ele><time>2009-08-22T14:48:03Z</time></trkpt>
<trkpt lat="46.19818686" lon="6.08084016"><ele>422.636719</ele><time>2009-08-22T14:48:04Z</time></trkpt>
<trkpt lat="46.19819314" lon="6.08091434"><ele>423.117432</ele><time>2009-08-22T14:48:05Z</time></trkpt>
<trkpt lat="46.19819834" lon="6.08099028"><ele>423.117432</ele><time>2009-08-22T14:48:06Z</time></trkpt>
<trkpt lat="46.19820395" lon="6.08106622"><ele>423.598022</ele><time>2009-08-22T14:48:07Z</time></trkpt>
<trkpt lat="46.19820865" lon="6.08114183"><ele>423.598022</ele><time>2009-08-22T14:48:08Z</time></trkpt>
<trkpt lat="46.19821343" lon="6.08121752"><ele>424.078735</ele><time>2009-08-22T14:48:09Z</time></trkpt>
<trkpt lat="46.19821628" lon="6.08129363"><ele>424.078735</ele><time>2009-08-22T14:48:10Z</time></trkpt>
<trkpt lat="46.19822156" lon="6.08136772"><ele>424.559448</ele><time>2009-08-22T14:48:11Z</time></trkpt>
<trkpt lat="46.19822483" lon="6.08144115"><ele>424.559448</ele><time>2009-08-22T14:48:12Z</time></trkpt>
<trkpt lat="46.19822918" lon="6.08151264"><ele>425.040161</ele><time>2009-08-22T14:48:13Z</time></trkpt>
<trkpt lat="46.19823472" lon="6.08158196"><ele>425.520752</ele><time>2009-08-22T14:48:14Z</time></trkpt>
<trkpt lat="46.19823849" lon="6.08165287"><ele>425.520752</ele><time>2009-08-22T14:48:15Z</time></trkpt>
<trkpt lat="46.19824260" lon="6.08172278"><ele>425.520752</ele><time>2009-08-22T14:48:16Z</time></trkpt>
<trkpt lat="46.19824628" lon="6.08179369"><ele>425.520752</ele><time>2009-08-22T14:48:17Z</time></trkpt>
<trkpt lat="46.19824938" lon="6.08186536"><ele>426.001343</ele><time>2009-08-22T14:48:18Z</time></trkpt>
<trkpt lat="46.19825475" lon="6.08193694"><ele>426.001343</ele><time>2009-08-22T14:48:19Z</time></trkpt>
<trkpt lat="46.19826439" lon="6.08200634"><ele>426.001343</ele><time>2009-08-22T14:48:20Z</time></trkpt>
<trkpt lat="46.19827847" lon="6.08207339"><ele>426.001343</ele><time>2009-08-22T14:48:21Z</time></trkpt>
<trkpt lat="46.19829808" lon="6.08213626"><ele>426.001343</ele><time>2009-08-22T14:48:22Z</time></trkpt>
<trkpt lat="46.19832298" lon="6.08219435"><ele>426.001343</ele><time>2009-08-22T14:48:23Z</time></trkpt>
<trkpt lat="46.19835089" lon="6.08224900"><ele>426.001343</ele><time>2009-08-22T14:48:24Z</time></trkpt>
<trkpt lat="46.19838006" lon="6.08230197"><ele>426.001343</ele><time>2009-08-22T14:48:25Z</time></trkpt>
<trkpt lat="46.19840940" lon="6.08235503"><ele>426.001343</ele><time>2009-08-22T14:48:26Z</time></trkpt>
<trkpt lat="46.19843789" lon="6.08240942"><ele>426.001343</ele><time>2009-08-22T14:48:27Z</time></trkpt>
<trkpt lat="46.19846715" lon="6.08246483"><ele>425.520752</ele><time>2009-08-22T14:48:28Z</time></trkpt>
<trkpt lat="46.19849824" lon="6.08252032"><ele>425.520752</ele><time>2009-08-22T14:48:29Z</time></trkpt>
<trkpt lat="46.19853035" lon="6.08257706"><ele>425.520752</ele><time>2009-08-22T14:48:30Z</time></trkpt>
<trkpt lat="46.19856228" lon="6.08263507"><ele>425.520752</ele><time>2009-08-22T14:48:31Z</time></trkpt>
<trkpt lat="46.19859438" lon="6.08269324"><ele>425.040161</ele><time>2009-08-22T14:48:32Z</time></trkpt>
<trkpt lat="46.19862732" lon="6.08275074"><ele>425.040161</ele><time>2009-08-22T14:48:33Z</time></trkpt>
<trkpt lat="46.19866094" lon="6.08280798"><ele>425.040161</ele><time>2009-08-22T14:48:34Z</time></trkpt>
<trkpt lat="46.19869413" lon="6.08286607"><ele>425.040161</ele><time>2009-08-22T14:48:35Z</time></trkpt>
<trkpt lat="46.19872699" lon="6.08292500"><ele>424.559448</ele><time>2009-08-22T14:48:36Z</time></trkpt>
<trkpt lat="46.19875976" lon="6.08298417"><ele>424.559448</ele><time>2009-08-22T14:48:37Z</time></trkpt>
<trkpt lat="46.19879253" lon="6.08304393"><ele>424.559448</ele><time>2009-08-22T14:48:38Z</time></trkpt>
<trkpt lat="46.19882564" lon="6.08310437"><ele>424.559448</ele><time>2009-08-22T14:48:39Z</time></trkpt>
<trkpt lat="46.19885875" lon="6.08316430"><ele>424.078735</ele><time>2009-08-22T14:48:40Z</time></trkpt>
<trkpt lat="46.19889186" lon="6.08322389"><ele>424.078735</ele><time>2009-08-22T14:48:41Z</time></trkpt>
<trkpt lat="46.19892606" lon="6.08328299"><ele>424.559448</ele><time>2009-08-22T14:48:42Z</time></trkpt>
<trkpt lat="46.19895933" lon="6.08334200"><ele>424.078735</ele><time>2009-08-22T14:48:43Z</time></trkpt>
<trkpt lat="46.19899328" lon="6.08339933"><ele>424.078735</ele><time>2009-08-22T14:48:44Z</time></trkpt>
<trkpt lat="46.19902764" lon="6.08345616"><ele>423.598022</ele><time>2009-08-22T14:48:45Z</time></trkpt>
<trkpt lat="46.19906235" lon="6.08351617"><ele>423.598022</ele><time>2009-08-22T14:48:46Z</time></trkpt>
<trkpt lat="46.19909529" lon="6.08357669"><ele>423.598022</ele><time>2009-08-22T14:48:47Z</time></trkpt>
<trkpt lat="46.19912806" lon="6.08363804"><ele>423.117432</ele><time>2009-08-22T14:48:48Z</time></trkpt>
<trkpt lat="46.19916175" lon="6.08369915"><ele>423.117432</ele><time>2009-08-22T14:48:49Z</time></trkpt>
<trkpt lat="46.19919453" lon="6.08376059"><ele>422.636719</ele><time>2009-08-22T14:48:50Z</time></trkpt>
<trkpt lat="46.19922764" lon="6.08382228"><ele>422.636719</ele><time>2009-08-22T14:48:51Z</time></trkpt>
<trkpt lat="46.19926133" lon="6.08388296"><ele>422.156006</ele><time>2009-08-22T14:48:52Z</time></trkpt>
<trkpt lat="46.19929545" lon="6.08394264"><ele>421.675415</ele><time>2009-08-22T14:48:53Z</time></trkpt>
<trkpt lat="46.19932956" lon="6.08400266"><ele>421.675415</ele><time>2009-08-22T14:48:54Z</time></trkpt>
<trkpt lat="46.19936443" lon="6.08406292"><ele>421.194824</ele><time>2009-08-22T14:48:55Z</time></trkpt>
<trkpt lat="46.19939930" lon="6.08412595"><ele>420.714111</ele><time>2009-08-22T14:48:56Z</time></trkpt>
<trkpt lat="46.19943249" lon="6.08419175"><ele>420.714111</ele><time>2009-08-22T14:48:57Z</time></trkpt>
<trkpt lat="46.19946619" lon="6.08425856"><ele>420.233398</ele><time>2009-08-22T14:48:58Z</time></trkpt>
<trkpt lat="46.19950122" lon="6.08432586"><ele>420.233398</ele><time>2009-08-22T14:48:59Z</time></trkpt>
<trkpt lat="46.19953743" lon="6.08439342"><ele>419.752808</ele><time>2009-08-22T14:49:00Z</time></trkpt>
<trkpt lat="46.19957448" lon="6.08446056"><ele>419.752808</ele><time>2009-08-22T14:49:01Z</time></trkpt>
<trkpt lat="46.19961312" lon="6.08452653"><ele>419.752808</ele><time>2009-08-22T14:49:02Z</time></trkpt>
<trkpt lat="46.19964866" lon="6.08459467"><ele>419.272217</ele><time>2009-08-22T14:49:03Z</time></trkpt>
<trkpt lat="46.19968135" lon="6.08466499"><ele>419.272217</ele><time>2009-08-22T14:49:04Z</time></trkpt>
<trkpt lat="46.19971488" lon="6.08473490"><ele>418.791504</ele><time>2009-08-22T14:49:05Z</time></trkpt>
<trkpt lat="46.19975016" lon="6.08480397"><ele>418.791504</ele><time>2009-08-22T14:49:06Z</time></trkpt>
<trkpt lat="46.19978696" lon="6.08487136"><ele>418.310791</ele><time>2009-08-22T14:49:07Z</time></trkpt>
<trkpt lat="46.19982543" lon="6.08493866"><ele>418.310791</ele><time>2009-08-22T14:49:08Z</time></trkpt>
<trkpt lat="46.19986475" lon="6.08500673"><ele>417.8302</ele><time>2009-08-22T14:49:09Z</time></trkpt>
<trkpt lat="46.19990414" lon="6.08507663"><ele>417.8302</ele><time>2009-08-22T14:49:10Z</time></trkpt>
<trkpt lat="46.19994253" lon="6.08514687"><ele>417.8302</ele><time>2009-08-22T14:49:11Z</time></trkpt>
<trkpt lat="46.19998092" lon="6.08521594"><ele>417.349609</ele><time>2009-08-22T14:49:12Z</time></trkpt>
<trkpt lat="46.20002006" lon="6.08528492"><ele>417.8302</ele><time>2009-08-22T14:49:13Z</time></trkpt>
<trkpt lat="46.20005954" lon="6.08535189"><ele>417.349609</ele><time>2009-08-22T14:49:14Z</time></trkpt>
<trkpt lat="46.20009868" lon="6.08541895"><ele>417.349609</ele><time>2009-08-22T14:49:15Z</time></trkpt>
<trkpt lat="46.20013732" lon="6.08548558"><ele>417.349609</ele><time>2009-08-22T14:49:16Z</time></trkpt>
<trkpt lat="46.20017647" lon="6.08555222"><ele>417.349609</ele><time>2009-08-22T14:49:17Z</time></trkpt>
<trkpt lat="46.20021578" lon="6.08561869"><ele>417.349609</ele><time>2009-08-22T14:49:18Z</time></trkpt>
<trkpt lat="46.20025610" lon="6.08568373"><ele>417.349609</ele><time>2009-08-22T14:49:19Z</time></trkpt>
<trkpt lat="46.20029759" lon="6.08574802"><ele>417.349609</ele><time>2009-08-22T14:49:20Z</time></trkpt>
<trkpt lat="46.20033983" lon="6.08581189"><ele>417.349609</ele><time>2009-08-22T14:49:21Z</time></trkpt>
<trkpt lat="46.20038266" lon="6.08587434"><ele>417.349609</ele><time>2009-08-22T14:49:22Z</time></trkpt>
<trkpt lat="46.20042633" lon="6.08593502"><ele>417.349609</ele><time>2009-08-22T14:49:23Z</time></trkpt>
<trkpt lat="46.20047176" lon="6.08599110"><ele>417.349609</ele><time>2009-08-22T14:49:24Z</time></trkpt>
<trkpt lat="46.20051996" lon="6.08604348"><ele>417.349609</ele><time>2009-08-22T14:49:25Z</time></trkpt>
<trkpt lat="46.20057059" lon="6.08609327"><ele>417.349609</ele><time>2009-08-22T14:49:26Z</time></trkpt>
<trkpt lat="46.20062146" lon="6.08614289"><ele>417.8302</ele><time>2009-08-22T14:49:27Z</time></trkpt>
<trkpt lat="46.20067318" lon="6.08618866"><ele>417.8302</ele><time>2009-08-22T14:49:28Z</time></trkpt>
<trkpt lat="46.20072758" lon="6.08622856"><ele>417.8302</ele><time>2009-08-22T14:49:29Z</time></trkpt>
<trkpt lat="46.20078206" lon="6.08626502"><ele>417.8302</ele><time>2009-08-22T14:49:30Z</time></trkpt>
<trkpt lat="46.20083679" lon="6.08629947"><ele>417.8302</ele><time>2009-08-22T14:49:31Z</time></trkpt>
<trkpt lat="46.20088994" lon="6.08633232"><ele>417.349609</ele><time>2009-08-22T14:49:32Z</time></trkpt>
<trkpt lat="46.20094408" lon="6.08636484"><ele>417.349609</ele><time>2009-08-22T14:49:33Z</time></trkpt>
<trkpt lat="46.20099949" lon="6.08639502"><ele>417.349609</ele><time>2009-08-22T14:49:34Z</time></trkpt>
<trkpt lat="46.20105464" lon="6.08642494"><ele>416.868896</ele><time>2009-08-22T14:49:35Z</time></trkpt>
<trkpt lat="46.20111113" lon="6.08644975"><ele>416.868896</ele><time>2009-08-22T14:49:36Z</time></trkpt>
<trkpt lat="46.20116972" lon="6.08646953"><ele>416.388184</ele><time>2009-08-22T14:49:37Z</time></trkpt>
<trkpt lat="46.20122932" lon="6.08648915"><ele>415.907471</ele><time>2009-08-22T14:49:38Z</time></trkpt>
<trkpt lat="46.20129093" lon="6.08651069"><ele>415.907471</ele><time>2009-08-22T14:49:39Z</time></trkpt>
<trkpt lat="46.20135396" lon="6.08653458"><ele>415.42688</ele><time>2009-08-22T14:49:40Z</time></trkpt>
<trkpt lat="46.20141883" lon="6.08655964"><ele>414.465454</ele><time>2009-08-22T14:49:41Z</time></trkpt>
<trkpt lat="46.20148455" lon="6.08658554"><ele>413.984863</ele><time>2009-08-22T14:49:42Z</time></trkpt>
<trkpt lat="46.20155085" lon="6.08661094"><ele>413.984863</ele><time>2009-08-22T14:49:43Z</time></trkpt>
<trkpt lat="46.20161765" lon="6.08663013"><ele>413.02356</ele><time>2009-08-22T14:49:44Z</time></trkpt>
<trkpt lat="46.20168597" lon="6.08663918"><ele>412.542847</ele><time>2009-08-22T14:49:45Z</time></trkpt>
<trkpt lat="46.20175654" lon="6.08663809"><ele>411.581665</ele><time>2009-08-22T14:49:46Z</time></trkpt>
<trkpt lat="46.20182955" lon="6.08662586"><ele>411.100952</ele><time>2009-08-22T14:49:47Z</time></trkpt>
<trkpt lat="46.20190440" lon="6.08660524"><ele>410.620239</ele><time>2009-08-22T14:49:48Z</time></trkpt>
<trkpt lat="46.20198025" lon="6.08658135"><ele>410.139648</ele><time>2009-08-22T14:49:49Z</time></trkpt>
<trkpt lat="46.20205745" lon="6.08655863"><ele>409.659058</ele><time>2009-08-22T14:49:50Z</time></trkpt>
<trkpt lat="46.20213549" lon="6.08653508"><ele>409.178345</ele><time>2009-08-22T14:49:51Z</time></trkpt>
<trkpt lat="46.20221302" lon="6.08650943"><ele>408.697632</ele><time>2009-08-22T14:49:52Z</time></trkpt>
<trkpt lat="46.20229072" lon="6.08648345"><ele>408.217041</ele><time>2009-08-22T14:49:53Z</time></trkpt>
<trkpt lat="46.20236917" lon="6.08645939"><ele>407.736328</ele><time>2009-08-22T14:49:54Z</time></trkpt>
<trkpt lat="46.20244754" lon="6.08643517"><ele>407.736328</ele><time>2009-08-22T14:49:55Z</time></trkpt>
<trkpt lat="46.20252558" lon="6.08640977"><ele>407.255615</ele><time>2009-08-22T14:49:56Z</time></trkpt>
<trkpt lat="46.20260429" lon="6.08638396"><ele>407.255615</ele><time>2009-08-22T14:49:57Z</time></trkpt>
<trkpt lat="46.20268299" lon="6.08635847"><ele>407.255615</ele><time>2009-08-22T14:49:58Z</time></trkpt>
<trkpt lat="46.20276086" lon="6.08633199"><ele>406.774902</ele><time>2009-08-22T14:49:59Z</time></trkpt>
<trkpt lat="46.20283353" lon="6.08631363"><ele>406.774902</ele><time>2009-08-22T14:50:00Z</time></trkpt>
<trkpt lat="46.20290855" lon="6.08629083"><ele>406.774902</ele><time>2009-08-22T14:50:01Z</time></trkpt>
<trkpt lat="46.20298499" lon="6.08626736"><ele>406.294312</ele><time>2009-08-22T14:50:02Z</time></trkpt>
<trkpt lat="46.20305859" lon="6.08624264"><ele>406.294312</ele><time>2009-08-22T14:50:03Z</time></trkpt>
<trkpt lat="46.20313209" lon="6.08621707"><ele>405.813721</ele><time>2009-08-22T14:50:04Z</time></trkpt>
<trkpt lat="46.20320460" lon="6.08619427"><ele>405.813721</ele><time>2009-08-22T14:50:05Z</time></trkpt>
<trkpt lat="46.20327677" lon="6.08617122"><ele>405.813721</ele><time>2009-08-22T14:50:06Z</time></trkpt>
<trkpt lat="46.20334684" lon="6.08614733"><ele>405.333008</ele><time>2009-08-22T14:50:07Z</time></trkpt>
<trkpt lat="46.20341239" lon="6.08612898"><ele>405.333008</ele><time>2009-08-22T14:50:08Z</time></trkpt>
<trkpt lat="46.20348020" lon="6.08610325"><ele>405.333008</ele><time>2009-08-22T14:50:09Z</time></trkpt>
<trkpt lat="46.20354448" lon="6.08607877"><ele>405.333008</ele><time>2009-08-22T14:50:10Z</time></trkpt>
<trkpt lat="46.20360944" lon="6.08604809"><ele>404.852295</ele><time>2009-08-22T14:50:11Z</time></trkpt>
<trkpt lat="46.20367533" lon="6.08602018"><ele>404.852295</ele><time>2009-08-22T14:50:12Z</time></trkpt>
<trkpt lat="46.20374213" lon="6.08599487"><ele>404.371704</ele><time>2009-08-22T14:50:13Z</time></trkpt>
<trkpt lat="46.20380516" lon="6.08598774"><ele>404.371704</ele><time>2009-08-22T14:50:14Z</time></trkpt>
<trkpt lat="46.20386903" lon="6.08599772"><ele>404.371704</ele><time>2009-08-22T14:50:15Z</time></trkpt>
<trkpt lat="46.20393106" lon="6.08602747"><ele>404.371704</ele><time>2009-08-22T14:50:16Z</time></trkpt>
<trkpt lat="46.20398177" lon="6.08608413"><ele>404.371704</ele><time>2009-08-22T14:50:17Z</time></trkpt>
<trkpt lat="46.20401949" lon="6.08615790"><ele>404.371704</ele><time>2009-08-22T14:50:18Z</time></trkpt>
<trkpt lat="46.20404933" lon="6.08623853"><ele>404.371704</ele><time>2009-08-22T14:50:19Z</time></trkpt>
<trkpt lat="46.20407498" lon="6.08632185"><ele>404.371704</ele><time>2009-08-22T14:50:20Z</time></trkpt>
<trkpt lat="46.20409844" lon="6.08640684"><ele>404.371704</ele><time>2009-08-22T14:50:21Z</time></trkpt>
<trkpt lat="46.20412149" lon="6.08649108"><ele>404.371704</ele><time>2009-08-22T14:50:22Z</time></trkpt>
<trkpt lat="46.20414429" lon="6.08657355"><ele>403.891113</ele><time>2009-08-22T14:50:23Z</time></trkpt>
<trkpt lat="46.20416785" lon="6.08665385"><ele>403.891113</ele><time>2009-08-22T14:50:24Z</time></trkpt>
<trkpt lat="46.20419207" lon="6.08673298"><ele>404.371704</ele><time>2009-08-22T14:50:25Z</time></trkpt>
<trkpt lat="46.20421764" lon="6.08681043"><ele>403.891113</ele><time>2009-08-22T14:50:26Z</time></trkpt>
<trkpt lat="46.20424605" lon="6.08688553"><ele>403.891113</ele><time>2009-08-22T14:50:27Z</time></trkpt>
<trkpt lat="46.20427933" lon="6.08695594"><ele>403.891113</ele><time>2009-08-22T14:50:28Z</time></trkpt>
<trkpt lat="46.20431763" lon="6.08701813"><ele>403.891113</ele><time>2009-08-22T14:50:29Z</time></trkpt>
<trkpt lat="46.20435853" lon="6.08707446"><ele>403.891113</ele><time>2009-08-22T14:50:30Z</time></trkpt>
<trkpt lat="46.20440044" lon="6.08712969"><ele>403.891113</ele><time>2009-08-22T14:50:31Z</time></trkpt>
<trkpt lat="46.20444076" lon="6.08718703"><ele>403.4104</ele><time>2009-08-22T14:50:32Z</time></trkpt>
<trkpt lat="46.20448150" lon="6.08724897"><ele>402.929688</ele><time>2009-08-22T14:50:33Z</time></trkpt>
<trkpt lat="46.20452106" lon="6.08731460"><ele>402.929688</ele><time>2009-08-22T14:50:34Z</time></trkpt>
<trkpt lat="46.20455978" lon="6.08738274"><ele>402.449097</ele><time>2009-08-22T14:50:35Z</time></trkpt>
<trkpt lat="46.20459826" lon="6.08745223"><ele>401.968506</ele><time>2009-08-22T14:50:36Z</time></trkpt>
<trkpt lat="46.20463447" lon="6.08752415"><ele>401.968506</ele><time>2009-08-22T14:50:37Z</time></trkpt>
<trkpt lat="46.20466875" lon="6.08759958"><ele>401.487793</ele><time>2009-08-22T14:50:38Z</time></trkpt>
<trkpt lat="46.20470228" lon="6.08768307"><ele>401.00708</ele><time>2009-08-22T14:50:39Z</time></trkpt>
<trkpt lat="46.20473958" lon="6.08777787"><ele>401.00708</ele><time>2009-08-22T14:50:40Z</time></trkpt>
<trkpt lat="46.20477956" lon="6.08788029"><ele>401.00708</ele><time>2009-08-22T14:50:41Z</time></trkpt>
<trkpt lat="46.20481937" lon="6.08798389"><ele>400.526489</ele><time>2009-08-22T14:50:42Z</time></trkpt>
<trkpt lat="46.20486044" lon="6.08808515"><ele>400.526489</ele><time>2009-08-22T14:50:43Z</time></trkpt>
<trkpt lat="46.20490738" lon="6.08818766"><ele>400.526489</ele><time>2009-08-22T14:50:44Z</time></trkpt>
<trkpt lat="46.20495977" lon="6.08828397"><ele>400.045898</ele><time>2009-08-22T14:50:45Z</time></trkpt>
<trkpt lat="46.20501886" lon="6.08836234"><ele>400.045898</ele><time>2009-08-22T14:50:46Z</time></trkpt>
<trkpt lat="46.20508768" lon="6.08841958"><ele>399.565063</ele><time>2009-08-22T14:50:47Z</time></trkpt>
<trkpt lat="46.20516035" lon="6.08845646"><ele>399.565063</ele><time>2009-08-22T14:50:48Z</time></trkpt>
<trkpt lat="46.20522858" lon="6.08849863"><ele>399.565063</ele><time>2009-08-22T14:50:49Z</time></trkpt>
<trkpt lat="46.20528784" lon="6.08856325"><ele>399.084351</ele><time>2009-08-22T14:50:50Z</time></trkpt>
<trkpt lat="46.20533176" lon="6.08863559"><ele>399.084351</ele><time>2009-08-22T14:50:51Z</time></trkpt>
<trkpt lat="46.20536294" lon="6.08871044"><ele>399.084351</ele><time>2009-08-22T14:50:52Z</time></trkpt>
<trkpt lat="46.20537870" lon="6.08878772"><ele>399.084351</ele><time>2009-08-22T14:50:53Z</time></trkpt>
<trkpt lat="46.20538088" lon="6.08887053"><ele>399.084351</ele><time>2009-08-22T14:50:54Z</time></trkpt>
<trkpt lat="46.20537484" lon="6.08895217"><ele>399.565063</ele><time>2009-08-22T14:50:55Z</time></trkpt>
<trkpt lat="46.20536453" lon="6.08903515"><ele>399.565063</ele><time>2009-08-22T14:50:56Z</time></trkpt>
<trkpt lat="46.20535615" lon="6.08912299"><ele>400.045898</ele><time>2009-08-22T14:50:57Z</time></trkpt>
<trkpt lat="46.20535204" lon="6.08921436"><ele>400.045898</ele><time>2009-08-22T14:50:58Z</time></trkpt>
<trkpt lat="46.20534659" lon="6.08930312"><ele>400.526489</ele><time>2009-08-22T14:50:59Z</time></trkpt>
<trkpt lat="46.20533947" lon="6.08938778"><ele>400.526489</ele><time>2009-08-22T14:51:00Z</time></trkpt>
<trkpt lat="46.20533503" lon="6.08946363"><ele>400.526489</ele><time>2009-08-22T14:51:01Z</time></trkpt>
<trkpt lat="46.20533310" lon="6.08953748"><ele>401.00708</ele><time>2009-08-22T14:51:02Z</time></trkpt>
<trkpt lat="46.20533117" lon="6.08961116"><ele>401.00708</ele><time>2009-08-22T14:51:03Z</time></trkpt>
<trkpt lat="46.20532857" lon="6.08968450"><ele>401.00708</ele><time>2009-08-22T14:51:04Z</time></trkpt>
<trkpt lat="46.20532363" lon="6.08975985"><ele>401.00708</ele><time>2009-08-22T14:51:05Z</time></trkpt>
<trkpt lat="46.20531818" lon="6.08983822"><ele>401.00708</ele><time>2009-08-22T14:51:06Z</time></trkpt>
<trkpt lat="46.20531298" lon="6.08991575"><ele>401.00708</ele><time>2009-08-22T14:51:07Z</time></trkpt>
<trkpt lat="46.20530779" lon="6.08999530"><ele>401.487793</ele><time>2009-08-22T14:51:08Z</time></trkpt>
<trkpt lat="46.20530074" lon="6.09007694"><ele>401.487793</ele><time>2009-08-22T14:51:09Z</time></trkpt>
<trkpt lat="46.20529295" lon="6.09015942"><ele>401.968506</ele><time>2009-08-22T14:51:10Z</time></trkpt>
<trkpt lat="46.20528717" lon="6.09024248"><ele>401.968506</ele><time>2009-08-22T14:51:11Z</time></trkpt>
<trkpt lat="46.20529010" lon="6.09032462"><ele>401.968506</ele><time>2009-08-22T14:51:12Z</time></trkpt>
<trkpt lat="46.20530795" lon="6.09039235"><ele>401.968506</ele><time>2009-08-22T14:51:13Z</time></trkpt>
<trkpt lat="46.20533813" lon="6.09044205"><ele>401.487793</ele><time>2009-08-22T14:51:14Z</time></trkpt>
<trkpt lat="46.20536805" lon="6.09048095"><ele>401.487793</ele><time>2009-08-22T14:51:15Z</time></trkpt>
<trkpt lat="46.20539152" lon="6.09052252"><ele>401.00708</ele><time>2009-08-22T14:51:16Z</time></trkpt>
<trkpt lat="46.20540024" lon="6.09056904"><ele>400.526489</ele><time>2009-08-22T14:51:17Z</time></trkpt>
<trkpt lat="46.20539856" lon="6.09062654"><ele>400.526489</ele><time>2009-08-22T14:51:18Z</time></trkpt>
<trkpt lat="46.20539135" lon="6.09069636"><ele>400.526489</ele><time>2009-08-22T14:51:19Z</time></trkpt>
<trkpt lat="46.20538163" lon="6.09077825"><ele>400.526489</ele><time>2009-08-22T14:51:20Z</time></trkpt>
<trkpt lat="46.20536679" lon="6.09086869"><ele>400.045898</ele><time>2009-08-22T14:51:21Z</time></trkpt>
<trkpt lat="46.20534609" lon="6.09096768"><ele>400.045898</ele><time>2009-08-22T14:51:22Z</time></trkpt>
<trkpt lat="46.20532044" lon="6.09106936"><ele>400.045898</ele><time>2009-08-22T14:51:23Z</time></trkpt>
<trkpt lat="46.20529848" lon="6.09117757"><ele>399.084351</ele><time>2009-08-22T14:51:24Z</time></trkpt>
<trkpt lat="46.20527493" lon="6.09129692"><ele>398.60376</ele><time>2009-08-22T14:51:25Z</time></trkpt>
<trkpt lat="46.20524769" lon="6.09142357"><ele>396.681152</ele><time>2009-08-22T14:51:26Z</time></trkpt>
<trkpt lat="46.20521810" lon="6.09155375"><ele>395.719849</ele><time>2009-08-22T14:51:27Z</time></trkpt>
<trkpt lat="46.20519220" lon="6.09167528"><ele>395.239136</ele><time>2009-08-22T14:51:28Z</time></trkpt>
<trkpt lat="46.20516999" lon="6.09177855"><ele>394.758545</ele><time>2009-08-22T14:51:29Z</time></trkpt>
<trkpt lat="46.20515222" lon="6.09186295"><ele>394.277954</ele><time>2009-08-22T14:51:30Z</time></trkpt>
<trkpt lat="46.20513596" lon="6.09193956"><ele>393.797241</ele><time>2009-08-22T14:51:31Z</time></trkpt>
<trkpt lat="46.20511718" lon="6.09201014"><ele>393.797241</ele><time>2009-08-22T14:51:32Z</time></trkpt>
<trkpt lat="46.20509522" lon="6.09207736"><ele>393.797241</ele><time>2009-08-22T14:51:33Z</time></trkpt>
<trkpt lat="46.20507678" lon="6.09215104"><ele>393.316528</ele><time>2009-08-22T14:51:34Z</time></trkpt>
<trkpt lat="46.20505993" lon="6.09222514"><ele>393.316528</ele><time>2009-08-22T14:51:35Z</time></trkpt>
<trkpt lat="46.20504367" lon="6.09229839"><ele>393.316528</ele><time>2009-08-22T14:51:36Z</time></trkpt>
<trkpt lat="46.20502758" lon="6.09237132"><ele>393.316528</ele><time>2009-08-22T14:51:37Z</time></trkpt>
<trkpt lat="46.20501040" lon="6.09244290"><ele>392.835938</ele><time>2009-08-22T14:51:38Z</time></trkpt>
<trkpt lat="46.20499439" lon="6.09251046"><ele>392.835938</ele><time>2009-08-22T14:51:39Z</time></trkpt>
<trkpt lat="46.20497972" lon="6.09257332"><ele>393.316528</ele><time>2009-08-22T14:51:40Z</time></trkpt>
<trkpt lat="46.20496656" lon="6.09263166"><ele>393.316528</ele><time>2009-08-22T14:51:41Z</time></trkpt>
<trkpt lat="46.20495507" lon="6.09268446"><ele>393.797241</ele><time>2009-08-22T14:51:42Z</time></trkpt>
<trkpt lat="46.20494493" lon="6.09273258"><ele>394.277954</ele><time>2009-08-22T14:51:43Z</time></trkpt>
<trkpt lat="46.20493714" lon="6.09276904"><ele>394.758545</ele><time>2009-08-22T14:51:44Z</time></trkpt>
<trkpt lat="46.20493127" lon="6.09280474"><ele>395.239136</ele><time>2009-08-22T14:51:45Z</time></trkpt>
<trkpt lat="46.20492976" lon="6.09284372"><ele>395.719849</ele><time>2009-08-22T14:51:46Z</time></trkpt>
<trkpt lat="46.20493362" lon="6.09288848"><ele>395.719849</ele><time>2009-08-22T14:51:47Z</time></trkpt>
<trkpt lat="46.20493957" lon="6.09293207"><ele>395.719849</ele><time>2009-08-22T14:51:48Z</time></trkpt>
<trkpt lat="46.20494678" lon="6.09297272"><ele>396.681152</ele><time>2009-08-22T14:51:49Z</time></trkpt>
<trkpt lat="46.20495499" lon="6.09301220"><ele>397.161743</ele><time>2009-08-22T14:51:50Z</time></trkpt>
<trkpt lat="46.20496195" lon="6.09304648"><ele>397.642456</ele><time>2009-08-22T14:51:51Z</time></trkpt>
<trkpt lat="46.20496832" lon="6.09308076"><ele>398.123169</ele><time>2009-08-22T14:51:52Z</time></trkpt>
<trkpt lat="46.20497075" lon="6.09311052"><ele>398.60376</ele><time>2009-08-22T14:51:53Z</time></trkpt>
<trkpt lat="46.20496899" lon="6.09313658"><ele>399.084351</ele><time>2009-08-22T14:51:54Z</time></trkpt>
<trkpt lat="46.20496689" lon="6.09316114"><ele>399.565063</ele><time>2009-08-22T14:51:55Z</time></trkpt>
<trkpt lat="46.20497259" lon="6.09319006"><ele>399.565063</ele><time>2009-08-22T14:51:56Z</time></trkpt>
<trkpt lat="46.20498408" lon="6.09322510"><ele>399.565063</ele><time>2009-08-22T14:51:57Z</time></trkpt>
<trkpt lat="46.20499916" lon="6.09326198"><ele>400.045898</ele><time>2009-08-22T14:51:58Z</time></trkpt>
<trkpt lat="46.20501333" lon="6.09329743"><ele>400.526489</ele><time>2009-08-22T14:51:59Z</time></trkpt>
<trkpt lat="46.20502808" lon="6.09333146"><ele>401.00708</ele><time>2009-08-22T14:52:00Z</time></trkpt>
<trkpt lat="46.20504166" lon="6.09336566"><ele>401.487793</ele><time>2009-08-22T14:52:01Z</time></trkpt>
<trkpt lat="46.20504862" lon="6.09339760"><ele>401.487793</ele><time>2009-08-22T14:52:02Z</time></trkpt>
<trkpt lat="46.20504652" lon="6.09342157"><ele>401.968506</ele><time>2009-08-22T14:52:03Z</time></trkpt>
<trkpt lat="46.20504409" lon="6.09344009"><ele>401.968506</ele><time>2009-08-22T14:52:04Z</time></trkpt>
<trkpt lat="46.20503764" lon="6.09345837"><ele>402.449097</ele><time>2009-08-22T14:52:05Z</time></trkpt>
<trkpt lat="46.20502607" lon="6.09347840"><ele>401.968506</ele><time>2009-08-22T14:52:06Z</time></trkpt>
<trkpt lat="46.20501090" lon="6.09349550"><ele>402.449097</ele><time>2009-08-22T14:52:07Z</time></trkpt>
<trkpt lat="46.20499816" lon="6.09350933"><ele>402.449097</ele><time>2009-08-22T14:52:08Z</time></trkpt>
<trkpt lat="46.20498240" lon="6.09352014"><ele>402.929688</ele><time>2009-08-22T14:52:09Z</time></trkpt>
<trkpt lat="46.20496656" lon="6.09352089"><ele>403.891113</ele><time>2009-08-22T14:52:10Z</time></trkpt>
<trkpt lat="46.20495005" lon="6.09351268"><ele>405.813721</ele><time>2009-08-22T14:52:11Z</time></trkpt>
<trkpt lat="46.20493437" lon="6.09350178"><ele>406.774902</ele><time>2009-08-22T14:52:12Z</time></trkpt>
<trkpt lat="46.20491828" lon="6.09348544"><ele>408.217041</ele><time>2009-08-22T14:52:13Z</time></trkpt>
<trkpt lat="46.20489724" lon="6.09346624"><ele>409.178345</ele><time>2009-08-22T14:52:14Z</time></trkpt>
<trkpt lat="46.20487922" lon="6.09344512"><ele>410.620239</ele><time>2009-08-22T14:52:15Z</time></trkpt>
<trkpt lat="46.20486095" lon="6.09342308"><ele>412.062256</ele><time>2009-08-22T14:52:16Z</time></trkpt>
<trkpt lat="46.20484225" lon="6.09339944"><ele>413.984863</ele><time>2009-08-22T14:52:17Z</time></trkpt>
<trkpt lat="46.20482599" lon="6.09337815"><ele>414.946167</ele><time>2009-08-22T14:52:18Z</time></trkpt>
<trkpt lat="46.20481518" lon="6.09335602"><ele>415.907471</ele><time>2009-08-22T14:52:19Z</time></trkpt>
<trkpt lat="46.20480462" lon="6.09333272"><ele>416.388184</ele><time>2009-08-22T14:52:20Z</time></trkpt>
<trkpt lat="46.20479112" lon="6.09331336"><ele>416.868896</ele><time>2009-08-22T14:52:21Z</time></trkpt>
<trkpt lat="46.20477612" lon="6.09329534"><ele>417.8302</ele><time>2009-08-22T14:52:22Z</time></trkpt>
<trkpt lat="46.20476355" lon="6.09327623"><ele>418.791504</ele><time>2009-08-22T14:52:23Z</time></trkpt>
<trkpt lat="46.20475349" lon="6.09325586"><ele>419.752808</ele><time>2009-08-22T14:52:24Z</time></trkpt>
<trkpt lat="46.20474494" lon="6.09323239"><ele>420.233398</ele><time>2009-08-22T14:52:25Z</time></trkpt>
<trkpt lat="46.20473430" lon="6.09321110"><ele>421.194824</ele><time>2009-08-22T14:52:26Z</time></trkpt>
<trkpt lat="46.20472658" lon="6.09320079"><ele>421.675415</ele><time>2009-08-22T14:52:27Z</time></trkpt>
<trkpt lat="46.20471368" lon="6.09320775"><ele>421.675415</ele><time>2009-08-22T14:52:28Z</time></trkpt>
<trkpt lat="46.20470068" lon="6.09323004"><ele>422.156006</ele><time>2009-08-22T14:52:29Z</time></trkpt>
<trkpt lat="46.20469574" lon="6.09325527"><ele>422.636719</ele><time>2009-08-22T14:52:30Z</time></trkpt>
<trkpt lat="46.20469616" lon="6.09328226"><ele>423.117432</ele><time>2009-08-22T14:52:31Z</time></trkpt>
<trkpt lat="46.20469666" lon="6.09330925"><ele>423.117432</ele><time>2009-08-22T14:52:32Z</time></trkpt>
<trkpt lat="46.20469389" lon="6.09333582"><ele>423.117432</ele><time>2009-08-22T14:52:33Z</time></trkpt>
<trkpt lat="46.20468778" lon="6.09336239"><ele>423.117432</ele><time>2009-08-22T14:52:34Z</time></trkpt>
<trkpt lat="46.20468560" lon="6.09339114"><ele>423.598022</ele><time>2009-08-22T14:52:35Z</time></trkpt>
<trkpt lat="46.20468434" lon="6.09342165"><ele>423.598022</ele><time>2009-08-22T14:52:36Z</time></trkpt>
<trkpt lat="46.20467789" lon="6.09344688"><ele>423.598022</ele><time>2009-08-22T14:52:37Z</time></trkpt>
<trkpt lat="46.20466984" lon="6.09347354"><ele>423.117432</ele><time>2009-08-22T14:52:38Z</time></trkpt>
<trkpt lat="46.20465894" lon="6.09350153"><ele>422.636719</ele><time>2009-08-22T14:52:39Z</time></trkpt>
<trkpt lat="46.20464427" lon="6.09352726"><ele>423.117432</ele><time>2009-08-22T14:52:40Z</time></trkpt>
<trkpt lat="46.20462726" lon="6.09355057"><ele>423.598022</ele><time>2009-08-22T14:52:41Z</time></trkpt>
<trkpt lat="46.20461024" lon="6.09357152"><ele>423.598022</ele><time>2009-08-22T14:52:42Z</time></trkpt>
<trkpt lat="46.20459264" lon="6.09359155"><ele>423.598022</ele><time>2009-08-22T14:52:43Z</time></trkpt>
<trkpt lat="46.20457663" lon="6.09361276"><ele>424.078735</ele><time>2009-08-22T14:52:44Z</time></trkpt>
<trkpt lat="46.20456875" lon="6.09362843"><ele>424.078735</ele><time>2009-08-22T14:52:45Z</time></trkpt>
<trkpt lat="46.20456238" lon="6.09364117"><ele>424.559448</ele><time>2009-08-22T14:52:46Z</time></trkpt>
<trkpt lat="46.20455559" lon="6.09364863"><ele>425.040161</ele><time>2009-08-22T14:52:47Z</time></trkpt>
<trkpt lat="46.20454838" lon="6.09365383"><ele>425.040161</ele><time>2009-08-22T14:52:48Z</time></trkpt>
<trkpt lat="46.20454906" lon="6.09365224"><ele>424.559448</ele><time>2009-08-22T14:52:49Z</time></trkpt>
<trkpt lat="46.20453975" lon="6.09365844"><ele>424.559448</ele><time>2009-08-22T14:52:50Z</time></trkpt>
<trkpt lat="46.20453187" lon="6.09367244"><ele>424.559448</ele><time>2009-08-22T14:52:51Z</time></trkpt>
<trkpt lat="46.20452140" lon="6.09368376"><ele>424.559448</ele><time>2009-08-22T14:52:52Z</time></trkpt>
<trkpt lat="46.20451058" lon="6.09369616"><ele>425.040161</ele><time>2009-08-22T14:52:53Z</time></trkpt>
<trkpt lat="46.20450228" lon="6.09371133"><ele>426.001343</ele><time>2009-08-22T14:52:54Z</time></trkpt>
<trkpt lat="46.20448946" lon="6.09372575"><ele>426.001343</ele><time>2009-08-22T14:52:55Z</time></trkpt>
<trkpt lat="46.20447999" lon="6.09374058"><ele>426.001343</ele><time>2009-08-22T14:52:56Z</time></trkpt>
<trkpt lat="46.20447194" lon="6.09375358"><ele>426.962769</ele><time>2009-08-22T14:52:57Z</time></trkpt>
<trkpt lat="46.20445895" lon="6.09376456"><ele>427.443359</ele><time>2009-08-22T14:52:58Z</time></trkpt>
<trkpt lat="46.20444763" lon="6.09377529"><ele>426.962769</ele><time>2009-08-22T14:52:59Z</time></trkpt>
<trkpt lat="46.20443808" lon="6.09379004"><ele>427.443359</ele><time>2009-08-22T14:53:00Z</time></trkpt>
<trkpt lat="46.20443045" lon="6.09380672"><ele>427.443359</ele><time>2009-08-22T14:53:01Z</time></trkpt>
<trkpt lat="46.20442534" lon="6.09382616"><ele>427.92395</ele><time>2009-08-22T14:53:02Z</time></trkpt>
<trkpt lat="46.20442366" lon="6.09384594"><ele>427.443359</ele><time>2009-08-22T14:53:03Z</time></trkpt>
<trkpt lat="46.20442090" lon="6.09386464"><ele>427.443359</ele><time>2009-08-22T14:53:04Z</time></trkpt>
<trkpt lat="46.20441478" lon="6.09388534"><ele>426.962769</ele><time>2009-08-22T14:53:05Z</time></trkpt>
<trkpt lat="46.20440866" lon="6.09390680"><ele>426.962769</ele><time>2009-08-22T14:53:06Z</time></trkpt>
<trkpt lat="46.20440338" lon="6.09393010"><ele>426.962769</ele><time>2009-08-22T14:53:07Z</time></trkpt>
<trkpt lat="46.20440690" lon="6.09395357"><ele>426.001343</ele><time>2009-08-22T14:53:08Z</time></trkpt>
<trkpt lat="46.20440849" lon="6.09397318"><ele>426.001343</ele><time>2009-08-22T14:53:09Z</time></trkpt>
<trkpt lat="46.20441243" lon="6.09399489"><ele>426.001343</ele><time>2009-08-22T14:53:10Z</time></trkpt>
<trkpt lat="46.20441520" lon="6.09401685"><ele>425.520752</ele><time>2009-08-22T14:53:11Z</time></trkpt>
<trkpt lat="46.20441109" lon="6.09404217"><ele>425.520752</ele><time>2009-08-22T14:53:12Z</time></trkpt>
<trkpt lat="46.20440925" lon="6.09406647"><ele>425.520752</ele><time>2009-08-22T14:53:13Z</time></trkpt>
<trkpt lat="46.20440723" lon="6.09409522"><ele>425.520752</ele><time>2009-08-22T14:53:14Z</time></trkpt>
<trkpt lat="46.20440715" lon="6.09412129"><ele>425.040161</ele><time>2009-08-22T14:53:15Z</time></trkpt>
<trkpt lat="46.20440388" lon="6.09414518"><ele>425.520752</ele><time>2009-08-22T14:53:16Z</time></trkpt>
<trkpt lat="46.20440296" lon="6.09417007"><ele>425.520752</ele><time>2009-08-22T14:53:17Z</time></trkpt>
<trkpt lat="46.20440195" lon="6.09419522"><ele>425.520752</ele><time>2009-08-22T14:53:18Z</time></trkpt>
<trkpt lat="46.20440128" lon="6.09421978"><ele>425.040161</ele><time>2009-08-22T14:53:19Z</time></trkpt>
<trkpt lat="46.20440095" lon="6.09424434"><ele>425.040161</ele><time>2009-08-22T14:53:20Z</time></trkpt>
<trkpt lat="46.20440262" lon="6.09426823"><ele>425.040161</ele><time>2009-08-22T14:53:21Z</time></trkpt>
<trkpt lat="46.20440489" lon="6.09428868"><ele>425.040161</ele><time>2009-08-22T14:53:22Z</time></trkpt>
<trkpt lat="46.20440640" lon="6.09430955"><ele>425.520752</ele><time>2009-08-22T14:53:23Z</time></trkpt>
<trkpt lat="46.20440673" lon="6.09433159"><ele>425.520752</ele><time>2009-08-22T14:53:24Z</time></trkpt>
<trkpt lat="46.20440707" lon="6.09435339"><ele>425.520752</ele><time>2009-08-22T14:53:25Z</time></trkpt>
<trkpt lat="46.20440857" lon="6.09437434"><ele>426.001343</ele><time>2009-08-22T14:53:26Z</time></trkpt>
<trkpt lat="46.20441025" lon="6.09439404"><ele>426.482056</ele><time>2009-08-22T14:53:27Z</time></trkpt>
<trkpt lat="46.20441268" lon="6.09441457"><ele>426.482056</ele><time>2009-08-22T14:53:28Z</time></trkpt>
<trkpt lat="46.20441469" lon="6.09443486"><ele>426.962769</ele><time>2009-08-22T14:53:29Z</time></trkpt>
<trkpt lat="46.20441679" lon="6.09445590"><ele>426.962769</ele><time>2009-08-22T14:53:30Z</time></trkpt>
<trkpt lat="46.20441939" lon="6.09447635"><ele>426.962769</ele><time>2009-08-22T14:53:31Z</time></trkpt>
<trkpt lat="46.20442282" lon="6.09449588"><ele>427.443359</ele><time>2009-08-22T14:53:32Z</time></trkpt>
<trkpt lat="46.20442626" lon="6.09451323"><ele>427.443359</ele><time>2009-08-22T14:53:33Z</time></trkpt>
<trkpt lat="46.20442819" lon="6.09452480"><ele>427.443359</ele><time>2009-08-22T14:53:34Z</time></trkpt>
<trkpt lat="46.20442886" lon="6.09452714"><ele>427.443359</ele><time>2009-08-22T14:53:35Z</time></trkpt>
<trkpt lat="46.20442953" lon="6.09452513"><ele>427.443359</ele><time>2009-08-22T14:53:36Z</time></trkpt>
<trkpt lat="46.20443037" lon="6.09452446"><ele>427.443359</ele><time>2009-08-22T14:53:37Z</time></trkpt>
<trkpt lat="46.20443095" lon="6.09452412"><ele>426.962769</ele><time>2009-08-22T14:53:38Z</time></trkpt>
<trkpt lat="46.20443196" lon="6.09452379"><ele>426.962769</ele><time>2009-08-22T14:53:39Z</time></trkpt>
<trkpt lat="46.20443313" lon="6.09452379"><ele>426.962769</ele><time>2009-08-22T14:53:40Z</time></trkpt>
<trkpt lat="46.20443439" lon="6.09452463"><ele>426.482056</ele><time>2009-08-22T14:53:41Z</time></trkpt>
<trkpt lat="46.20443540" lon="6.09452547"><ele>426.482056</ele><time>2009-08-22T14:53:42Z</time></trkpt>
<trkpt lat="46.20443615" lon="6.09452547"><ele>426.482056</ele><time>2009-08-22T14:53:43Z</time></trkpt>
<trkpt lat="46.20443699" lon="6.09452547"><ele>426.482056</ele><time>2009-08-22T14:53:44Z</time></trkpt>
<trkpt lat="46.20443766" lon="6.09452538"><ele>426.001343</ele><time>2009-08-22T14:53:45Z</time></trkpt>
<trkpt lat="46.20443816" lon="6.09452538"><ele>426.001343</ele><time>2009-08-22T14:53:46Z</time></trkpt>
<trkpt lat="46.20443850" lon="6.09452480"><ele>426.001343</ele><time>2009-08-22T14:53:47Z</time></trkpt>
<trkpt lat="46.20443917" lon="6.09452404"><ele>426.001343</ele><time>2009-08-22T14:53:48Z</time></trkpt>
<trkpt lat="46.20443976" lon="6.09452429"><ele>426.001343</ele><time>2009-08-22T14:53:49Z</time></trkpt>
<trkpt lat="46.20444009" lon="6.09452488"><ele>426.001343</ele><time>2009-08-22T14:53:50Z</time></trkpt>
<trkpt lat="46.20444076" lon="6.09452505"><ele>426.001343</ele><time>2009-08-22T14:53:51Z</time></trkpt>
<trkpt lat="46.20444160" lon="6.09452530"><ele>426.001343</ele><time>2009-08-22T14:53:52Z</time></trkpt>
<trkpt lat="46.20444202" lon="6.09452572"><ele>426.001343</ele><time>2009-08-22T14:53:53Z</time></trkpt>
<trkpt lat="46.20444252" lon="6.09452647"><ele>426.001343</ele><time>2009-08-22T14:53:54Z</time></trkpt>
<trkpt lat="46.20444302" lon="6.09452689"><ele>426.001343</ele><time>2009-08-22T14:53:55Z</time></trkpt>
<trkpt lat="46.20444353" lon="6.09452723"><ele>426.001343</ele><time>2009-08-22T14:53:56Z</time></trkpt>
<trkpt lat="46.20444386" lon="6.09452773"><ele>426.001343</ele><time>2009-08-22T14:53:57Z</time></trkpt>
<trkpt lat="46.20444437" lon="6.09452806"><ele>426.001343</ele><time>2009-08-22T14:53:58Z</time></trkpt>
<trkpt lat="46.20444445" lon="6.09452899"><ele>426.001343</ele><time>2009-08-22T14:53:59Z</time></trkpt>
<trkpt lat="46.20444478" lon="6.09452974"><ele>426.001343</ele><time>2009-08-22T14:54:00Z</time></trkpt>
<trkpt lat="46.20444512" lon="6.09453024"><ele>426.001343</ele><time>2009-08-22T14:54:01Z</time></trkpt>
<trkpt lat="46.20444587" lon="6.09452999"><ele>425.520752</ele><time>2009-08-22T14:54:02Z</time></trkpt>
<trkpt lat="46.20444654" lon="6.09452974"><ele>425.520752</ele><time>2009-08-22T14:54:03Z</time></trkpt>
<trkpt lat="46.20444730" lon="6.09452966"><ele>425.520752</ele><time>2009-08-22T14:54:04Z</time></trkpt>
<trkpt lat="46.20444797" lon="6.09452957"><ele>425.520752</ele><time>2009-08-22T14:54:05Z</time></trkpt>
<trkpt lat="46.20444856" lon="6.09452999"><ele>425.520752</ele><time>2009-08-22T14:54:06Z</time></trkpt>
<trkpt lat="46.20444898" lon="6.09453217"><ele>425.520752</ele><time>2009-08-22T14:54:07Z</time></trkpt>
<trkpt lat="46.20444906" lon="6.09453552"><ele>425.040161</ele><time>2009-08-22T14:54:08Z</time></trkpt>
<trkpt lat="46.20444923" lon="6.09453988"><ele>425.520752</ele><time>2009-08-22T14:54:09Z</time></trkpt>
<trkpt lat="46.20444872" lon="6.09454877"><ele>425.520752</ele><time>2009-08-22T14:54:10Z</time></trkpt>
<trkpt lat="46.20444956" lon="6.09456067"><ele>425.520752</ele><time>2009-08-22T14:54:11Z</time></trkpt>
<trkpt lat="46.20445149" lon="6.09456696"><ele>425.520752</ele><time>2009-08-22T14:54:12Z</time></trkpt>
<trkpt lat="46.20445325" lon="6.09456796"><ele>425.520752</ele><time>2009-08-22T14:54:13Z</time></trkpt>
<trkpt lat="46.20445333" lon="6.09457098"><ele>425.040161</ele><time>2009-08-22T14:54:14Z</time></trkpt>
<trkpt lat="46.20445157" lon="6.09458355"><ele>425.040161</ele><time>2009-08-22T14:54:15Z</time></trkpt>
<trkpt lat="46.20445057" lon="6.09460384"><ele>425.040161</ele><time>2009-08-22T14:54:16Z</time></trkpt>
<trkpt lat="46.20445023" lon="6.09462772"><ele>425.040161</ele><time>2009-08-22T14:54:17Z</time></trkpt>
<trkpt lat="46.20445233" lon="6.09465513"><ele>425.520752</ele><time>2009-08-22T14:54:18Z</time></trkpt>
<trkpt lat="46.20445669" lon="6.09468573"><ele>426.001343</ele><time>2009-08-22T14:54:19Z</time></trkpt>
<trkpt lat="46.20446633" lon="6.09472043"><ele>426.001343</ele><time>2009-08-22T14:54:20Z</time></trkpt>
<trkpt lat="46.20448066" lon="6.09475622"><ele>426.001343</ele><time>2009-08-22T14:54:21Z</time></trkpt>
<trkpt lat="46.20449969" lon="6.09479235"><ele>426.001343</ele><time>2009-08-22T14:54:22Z</time></trkpt>
<trkpt lat="46.20452123" lon="6.09482889"><ele>426.001343</ele><time>2009-08-22T14:54:23Z</time></trkpt>
<trkpt lat="46.20454277" lon="6.09486653"><ele>426.482056</ele><time>2009-08-22T14:54:24Z</time></trkpt>
<trkpt lat="46.20456372" lon="6.09490592"><ele>426.482056</ele><time>2009-08-22T14:54:25Z</time></trkpt>
<trkpt lat="46.20458434" lon="6.09494708"><ele>426.482056</ele><time>2009-08-22T14:54:26Z</time></trkpt>
<trkpt lat="46.20460505" lon="6.09498798"><ele>426.482056</ele><time>2009-08-22T14:54:27Z</time></trkpt>
<trkpt lat="46.20462617" lon="6.09502880"><ele>426.962769</ele><time>2009-08-22T14:54:28Z</time></trkpt>
<trkpt lat="46.20464746" lon="6.09507012"><ele>426.962769</ele><time>2009-08-22T14:54:29Z</time></trkpt>
<trkpt lat="46.20466892" lon="6.09511094"><ele>426.962769</ele><time>2009-08-22T14:54:30Z</time></trkpt>
<trkpt lat="46.20469063" lon="6.09515185"><ele>426.962769</ele><time>2009-08-22T14:54:31Z</time></trkpt>
<trkpt lat="46.20471242" lon="6.09519275"><ele>426.962769</ele><time>2009-08-22T14:54:32Z</time></trkpt>
<trkpt lat="46.20473505" lon="6.09523273"><ele>426.962769</ele><time>2009-08-22T14:54:33Z</time></trkpt>
<trkpt lat="46.20475785" lon="6.09527246"><ele>426.962769</ele><time>2009-08-22T14:54:34Z</time></trkpt>
<trkpt lat="46.20477998" lon="6.09531236"><ele>427.443359</ele><time>2009-08-22T14:54:35Z</time></trkpt>
<trkpt lat="46.20480118" lon="6.09535242"><ele>427.443359</ele><time>2009-08-22T14:54:36Z</time></trkpt>
<trkpt lat="46.20482298" lon="6.09539073"><ele>427.443359</ele><time>2009-08-22T14:54:37Z</time></trkpt>
<trkpt lat="46.20484636" lon="6.09542702"><ele>427.443359</ele><time>2009-08-22T14:54:38Z</time></trkpt>
<trkpt lat="46.20486799" lon="6.09546558"><ele>427.443359</ele><time>2009-08-22T14:54:39Z</time></trkpt>
<trkpt lat="46.20488157" lon="6.09551084"><ele>427.443359</ele><time>2009-08-22T14:54:40Z</time></trkpt>
<trkpt lat="46.20488316" lon="6.09556013"><ele>427.443359</ele><time>2009-08-22T14:54:41Z</time></trkpt>
<trkpt lat="46.20487394" lon="6.09560883"><ele>427.443359</ele><time>2009-08-22T14:54:42Z</time></trkpt>
<trkpt lat="46.20485676" lon="6.09565359"><ele>427.443359</ele><time>2009-08-22T14:54:43Z</time></trkpt>
<trkpt lat="46.20483513" lon="6.09569483"><ele>427.443359</ele><time>2009-08-22T14:54:44Z</time></trkpt>
<trkpt lat="46.20481116" lon="6.09573363"><ele>427.443359</ele><time>2009-08-22T14:54:45Z</time></trkpt>
<trkpt lat="46.20478660" lon="6.09577127"><ele>427.443359</ele><time>2009-08-22T14:54:46Z</time></trkpt>
<trkpt lat="46.20476296" lon="6.09580857"><ele>427.443359</ele><time>2009-08-22T14:54:47Z</time></trkpt>
<trkpt lat="46.20474159" lon="6.09584637"><ele>427.443359</ele><time>2009-08-22T14:54:48Z</time></trkpt>
<trkpt lat="46.20472114" lon="6.09588535"><ele>426.962769</ele><time>2009-08-22T14:54:49Z</time></trkpt>
<trkpt lat="46.20470479" lon="6.09592214"><ele>426.962769</ele><time>2009-08-22T14:54:50Z</time></trkpt>
<trkpt lat="46.20468685" lon="6.09595978"><ele>426.962769</ele><time>2009-08-22T14:54:51Z</time></trkpt>
<trkpt lat="46.20466540" lon="6.09599565"><ele>426.482056</ele><time>2009-08-22T14:54:52Z</time></trkpt>
<trkpt lat="46.20464377" lon="6.09603035"><ele>426.482056</ele><time>2009-08-22T14:54:53Z</time></trkpt>
<trkpt lat="46.20462307" lon="6.09606673"><ele>426.482056</ele><time>2009-08-22T14:54:54Z</time></trkpt>
<trkpt lat="46.20460312" lon="6.09610286"><ele>426.001343</ele><time>2009-08-22T14:54:55Z</time></trkpt>
<trkpt lat="46.20458267" lon="6.09613915"><ele>426.001343</ele><time>2009-08-22T14:54:56Z</time></trkpt>
<trkpt lat="46.20456213" lon="6.09617695"><ele>426.001343</ele><time>2009-08-22T14:54:57Z</time></trkpt>
<trkpt lat="46.20454235" lon="6.09621584"><ele>426.482056</ele><time>2009-08-22T14:54:58Z</time></trkpt>
<trkpt lat="46.20452056" lon="6.09625289"><ele>426.482056</ele><time>2009-08-22T14:54:59Z</time></trkpt>
<trkpt lat="46.20449608" lon="6.09628709"><ele>426.962769</ele><time>2009-08-22T14:55:00Z</time></trkpt>
<trkpt lat="46.20447102" lon="6.09632154"><ele>426.962769</ele><time>2009-08-22T14:55:01Z</time></trkpt>
<trkpt lat="46.20444680" lon="6.09635775"><ele>426.962769</ele><time>2009-08-22T14:55:02Z</time></trkpt>
<trkpt lat="46.20442534" lon="6.09639572"><ele>427.443359</ele><time>2009-08-22T14:55:03Z</time></trkpt>
<trkpt lat="46.20440380" lon="6.09643277"><ele>427.443359</ele><time>2009-08-22T14:55:04Z</time></trkpt>
<trkpt lat="46.20438804" lon="6.09647493"><ele>428.404663</ele><time>2009-08-22T14:55:05Z</time></trkpt>
<trkpt lat="46.20438519" lon="6.09652908"><ele>430.807983</ele><time>2009-08-22T14:55:06Z</time></trkpt>
<trkpt lat="46.20438167" lon="6.09658096"><ele>431.769165</ele><time>2009-08-22T14:55:07Z</time></trkpt>
<trkpt lat="46.20438829" lon="6.09663175"><ele>433.211304</ele><time>2009-08-22T14:55:08Z</time></trkpt>
<trkpt lat="46.20440497" lon="6.09667509"><ele>433.691895</ele><time>2009-08-22T14:55:09Z</time></trkpt>
<trkpt lat="46.20442718" lon="6.09671172"><ele>434.172607</ele><time>2009-08-22T14:55:10Z</time></trkpt>
<trkpt lat="46.20445166" lon="6.09673418"><ele>434.172607</ele><time>2009-08-22T14:55:11Z</time></trkpt>
<trkpt lat="46.20447513" lon="6.09675472"><ele>434.65332</ele><time>2009-08-22T14:55:12Z</time></trkpt>
<trkpt lat="46.20449826" lon="6.09678246"><ele>435.133911</ele><time>2009-08-22T14:55:13Z</time></trkpt>
<trkpt lat="46.20451813" lon="6.09681347"><ele>435.614502</ele><time>2009-08-22T14:55:14Z</time></trkpt>
<trkpt lat="46.20453682" lon="6.09684876"><ele>435.614502</ele><time>2009-08-22T14:55:15Z</time></trkpt>
<trkpt lat="46.20455576" lon="6.09688589"><ele>435.133911</ele><time>2009-08-22T14:55:16Z</time></trkpt>
<trkpt lat="46.20457579" lon="6.09692269"><ele>435.133911</ele><time>2009-08-22T14:55:17Z</time></trkpt>
<trkpt lat="46.20460086" lon="6.09695085"><ele>435.133911</ele><time>2009-08-22T14:55:18Z</time></trkpt>
<trkpt lat="46.20463195" lon="6.09695898"><ele>434.65332</ele><time>2009-08-22T14:55:19Z</time></trkpt>
<trkpt lat="46.20466305" lon="6.09695027"><ele>434.65332</ele><time>2009-08-22T14:55:20Z</time></trkpt>
<trkpt lat="46.20469373" lon="6.09693803"><ele>435.133911</ele><time>2009-08-22T14:55:21Z</time></trkpt>
<trkpt lat="46.20472617" lon="6.09692319"><ele>435.133911</ele><time>2009-08-22T14:55:22Z</time></trkpt>
<trkpt lat="46.20476263" lon="6.09690668"><ele>435.133911</ele><time>2009-08-22T14:55:23Z</time></trkpt>
<trkpt lat="46.20479607" lon="6.09689436"><ele>436.095215</ele><time>2009-08-22T14:55:24Z</time></trkpt>
<trkpt lat="46.20482859" lon="6.09688204"><ele>436.095215</ele><time>2009-08-22T14:55:25Z</time></trkpt>
<trkpt lat="46.20486430" lon="6.09686913"><ele>436.575928</ele><time>2009-08-22T14:55:26Z</time></trkpt>
<trkpt lat="46.20489565" lon="6.09685714"><ele>437.056519</ele><time>2009-08-22T14:55:27Z</time></trkpt>
<trkpt lat="46.20493186" lon="6.09683988"><ele>436.575928</ele><time>2009-08-22T14:55:28Z</time></trkpt>
<trkpt lat="46.20497226" lon="6.09682152"><ele>436.575928</ele><time>2009-08-22T14:55:29Z</time></trkpt>
<trkpt lat="46.20500905" lon="6.09680685"><ele>436.095215</ele><time>2009-08-22T14:55:30Z</time></trkpt>
<trkpt lat="46.20506345" lon="6.09681968"><ele>437.056519</ele><time>2009-08-22T14:55:31Z</time></trkpt>
<trkpt lat="46.20509757" lon="6.09682404"><ele>437.537109</ele><time>2009-08-22T14:55:32Z</time></trkpt>
<trkpt lat="46.20515322" lon="6.09679906"><ele>437.537109</ele><time>2009-08-22T14:55:33Z</time></trkpt>
<trkpt lat="46.20520444" lon="6.09677450"><ele>437.056519</ele><time>2009-08-22T14:55:34Z</time></trkpt>
<trkpt lat="46.20522439" lon="6.09677265"><ele>438.017822</ele><time>2009-08-22T14:55:35Z</time></trkpt>
<trkpt lat="46.20526512" lon="6.09675866"><ele>438.017822</ele><time>2009-08-22T14:55:36Z</time></trkpt>
<trkpt lat="46.20527468" lon="6.09676570"><ele>438.979126</ele><time>2009-08-22T14:55:37Z</time></trkpt>
<trkpt lat="46.20528717" lon="6.09676779"><ele>439.94043</ele><time>2009-08-22T14:55:38Z</time></trkpt>
<trkpt lat="46.20530695" lon="6.09676469"><ele>440.421265</ele><time>2009-08-22T14:55:39Z</time></trkpt>
<trkpt lat="46.20532078" lon="6.09676754"><ele>441.382446</ele><time>2009-08-22T14:55:40Z</time></trkpt>
<trkpt lat="46.20534844" lon="6.09677123"><ele>440.901855</ele><time>2009-08-22T14:55:41Z</time></trkpt>
<trkpt lat="46.20537057" lon="6.09679294"><ele>440.901855</ele><time>2009-08-22T14:55:42Z</time></trkpt>
<trkpt lat="46.20539496" lon="6.09681766"><ele>439.94043</ele><time>2009-08-22T14:55:43Z</time></trkpt>
<trkpt lat="46.20541767" lon="6.09684725"><ele>438.979126</ele><time>2009-08-22T14:55:44Z</time></trkpt>
<trkpt lat="46.20543955" lon="6.09687248"><ele>438.498535</ele><time>2009-08-22T14:55:45Z</time></trkpt>
<trkpt lat="46.20546838" lon="6.09688598"><ele>438.017822</ele><time>2009-08-22T14:55:46Z</time></trkpt>
<trkpt lat="46.20549386" lon="6.09687215"><ele>437.537109</ele><time>2009-08-22T14:55:47Z</time></trkpt>
<trkpt lat="46.20552504" lon="6.09684625"><ele>437.537109</ele><time>2009-08-22T14:55:48Z</time></trkpt>
<trkpt lat="46.20555262" lon="6.09682445"><ele>437.537109</ele><time>2009-08-22T14:55:49Z</time></trkpt>
<trkpt lat="46.20558942" lon="6.09680023"><ele>437.537109</ele><time>2009-08-22T14:55:50Z</time></trkpt>
<trkpt lat="46.20562395" lon="6.09677316"><ele>438.498535</ele><time>2009-08-22T14:55:51Z</time></trkpt>
<trkpt lat="46.20565589" lon="6.09673670"><ele>438.979126</ele><time>2009-08-22T14:55:52Z</time></trkpt>
<trkpt lat="46.20569226" lon="6.09670023"><ele>439.459717</ele><time>2009-08-22T14:55:53Z</time></trkpt>
<trkpt lat="46.20572587" lon="6.09667090"><ele>440.901855</ele><time>2009-08-22T14:55:54Z</time></trkpt>
<trkpt lat="46.20575840" lon="6.09664517"><ele>441.863159</ele><time>2009-08-22T14:55:55Z</time></trkpt>
<trkpt lat="46.20579192" lon="6.09661885"><ele>442.343872</ele><time>2009-08-22T14:55:56Z</time></trkpt>
<trkpt lat="46.20582713" lon="6.09660594"><ele>442.824463</ele><time>2009-08-22T14:55:57Z</time></trkpt>
<trkpt lat="46.20585898" lon="6.09658859"><ele>443.785767</ele><time>2009-08-22T14:55:58Z</time></trkpt>
<trkpt lat="46.20589418" lon="6.09656763"><ele>444.74707</ele><time>2009-08-22T14:55:59Z</time></trkpt>
<trkpt lat="46.20592955" lon="6.09654844"><ele>445.227661</ele><time>2009-08-22T14:56:00Z</time></trkpt>
<trkpt lat="46.20595646" lon="6.09650879"><ele>447.630981</ele><time>2009-08-22T14:56:01Z</time></trkpt>
<trkpt lat="46.20599150" lon="6.09648172"><ele>449.072998</ele><time>2009-08-22T14:56:02Z</time></trkpt>
<trkpt lat="46.20599954" lon="6.09649915"><ele>450.515015</ele><time>2009-08-22T14:56:03Z</time></trkpt>
<trkpt lat="46.20602896" lon="6.09655422"><ele>449.553711</ele><time>2009-08-22T14:56:04Z</time></trkpt>
<trkpt lat="46.20604497" lon="6.09658507"><ele>448.111816</ele><time>2009-08-22T14:56:05Z</time></trkpt>
<trkpt lat="46.20605847" lon="6.09662027"><ele>447.150269</ele><time>2009-08-22T14:56:06Z</time></trkpt>
<trkpt lat="46.20607045" lon="6.09664768"><ele>446.189087</ele><time>2009-08-22T14:56:07Z</time></trkpt>
<trkpt lat="46.20608680" lon="6.09669185"><ele>444.266479</ele><time>2009-08-22T14:56:08Z</time></trkpt>
<trkpt lat="46.20609468" lon="6.09672764"><ele>443.785767</ele><time>2009-08-22T14:56:09Z</time></trkpt>
<trkpt lat="46.20610029" lon="6.09676318"><ele>442.824463</ele><time>2009-08-22T14:56:10Z</time></trkpt>
<trkpt lat="46.20611094" lon="6.09679478"><ele>438.979126</ele><time>2009-08-22T14:56:11Z</time></trkpt>
<trkpt lat="46.20610373" lon="6.09682445"><ele>438.498535</ele><time>2009-08-22T14:56:12Z</time></trkpt>
<trkpt lat="46.20610096" lon="6.09683518"><ele>435.614502</ele><time>2009-08-22T14:56:13Z</time></trkpt>
<trkpt lat="46.20611513" lon="6.09685396"><ele>431.769165</ele><time>2009-08-22T14:56:14Z</time></trkpt>
<trkpt lat="46.20612837" lon="6.09686175"><ele>429.365967</ele><time>2009-08-22T14:56:15Z</time></trkpt>
<trkpt lat="46.20614405" lon="6.09687969"><ele>424.559448</ele><time>2009-08-22T14:56:16Z</time></trkpt>
<trkpt lat="46.20616148" lon="6.09688925"><ele>421.194824</ele><time>2009-08-22T14:56:17Z</time></trkpt>
<trkpt lat="46.20617238" lon="6.09690710"><ele>418.310791</ele><time>2009-08-22T14:56:18Z</time></trkpt>
<trkpt lat="46.20617397" lon="6.09692370"><ele>417.8302</ele><time>2009-08-22T14:56:19Z</time></trkpt>
<trkpt lat="46.20616467" lon="6.09693727"><ele>418.791504</ele><time>2009-08-22T14:56:20Z</time></trkpt>
<trkpt lat="46.20616408" lon="6.09693987"><ele>420.714111</ele><time>2009-08-22T14:56:21Z</time></trkpt>
<trkpt lat="46.20616375" lon="6.09694390"><ele>420.233398</ele><time>2009-08-22T14:56:22Z</time></trkpt>
<trkpt lat="46.20616274" lon="6.09694884"><ele>419.272217</ele><time>2009-08-22T14:56:23Z</time></trkpt>
<trkpt lat="46.20615578" lon="6.09696032"><ele>418.310791</ele><time>2009-08-22T14:56:24Z</time></trkpt>
<trkpt lat="46.20615344" lon="6.09697994"><ele>418.791504</ele><time>2009-08-22T14:56:25Z</time></trkpt>
<trkpt lat="46.20615536" lon="6.09700760"><ele>419.272217</ele><time>2009-08-22T14:56:26Z</time></trkpt>
<trkpt lat="46.20616458" lon="6.09705018"><ele>421.194824</ele><time>2009-08-22T14:56:27Z</time></trkpt>
<trkpt lat="46.20618453" lon="6.09707164"><ele>422.636719</ele><time>2009-08-22T14:56:28Z</time></trkpt>
<trkpt lat="46.20620322" lon="6.09712008"><ele>425.040161</ele><time>2009-08-22T14:56:29Z</time></trkpt>
<trkpt lat="46.20622125" lon="6.09716677"><ele>426.482056</ele><time>2009-08-22T14:56:30Z</time></trkpt>
<trkpt lat="46.20624153" lon="6.09719695"><ele>426.962769</ele><time>2009-08-22T14:56:31Z</time></trkpt>
<trkpt lat="46.20626433" lon="6.09723148"><ele>426.962769</ele><time>2009-08-22T14:56:32Z</time></trkpt>
<trkpt lat="46.20628989" lon="6.09726660"><ele>426.482056</ele><time>2009-08-22T14:56:33Z</time></trkpt>
<trkpt lat="46.20631244" lon="6.09730432"><ele>426.482056</ele><time>2009-08-22T14:56:34Z</time></trkpt>
<trkpt lat="46.20632594" lon="6.09734254"><ele>426.482056</ele><time>2009-08-22T14:56:35Z</time></trkpt>
<trkpt lat="46.20634295" lon="6.09737464"><ele>426.482056</ele><time>2009-08-22T14:56:36Z</time></trkpt>
<trkpt lat="46.20636458" lon="6.09739317"><ele>426.482056</ele><time>2009-08-22T14:56:37Z</time></trkpt>
<trkpt lat="46.20639148" lon="6.09739987"><ele>426.001343</ele><time>2009-08-22T14:56:38Z</time></trkpt>
<trkpt lat="46.20641897" lon="6.09739803"><ele>425.520752</ele><time>2009-08-22T14:56:39Z</time></trkpt>
<trkpt lat="46.20644789" lon="6.09739082"><ele>425.520752</ele><time>2009-08-22T14:56:40Z</time></trkpt>
<trkpt lat="46.20648050" lon="6.09737967"><ele>425.520752</ele><time>2009-08-22T14:56:41Z</time></trkpt>
<trkpt lat="46.20651528" lon="6.09737188"><ele>426.001343</ele><time>2009-08-22T14:56:42Z</time></trkpt>
<trkpt lat="46.20655149" lon="6.09736039"><ele>426.962769</ele><time>2009-08-22T14:56:43Z</time></trkpt>
<trkpt lat="46.20658452" lon="6.09734933"><ele>427.443359</ele><time>2009-08-22T14:56:44Z</time></trkpt>
<trkpt lat="46.20661855" lon="6.09733307"><ele>427.92395</ele><time>2009-08-22T14:56:45Z</time></trkpt>
<trkpt lat="46.20664923" lon="6.09731639"><ele>428.404663</ele><time>2009-08-22T14:56:46Z</time></trkpt>
<trkpt lat="46.20668208" lon="6.09730365"><ele>429.365967</ele><time>2009-08-22T14:56:47Z</time></trkpt>
<trkpt lat="46.20671494" lon="6.09729887"><ele>428.885376</ele><time>2009-08-22T14:56:48Z</time></trkpt>
<trkpt lat="46.20674654" lon="6.09731119"><ele>428.885376</ele><time>2009-08-22T14:56:49Z</time></trkpt>
<trkpt lat="46.20677319" lon="6.09733952"><ele>428.404663</ele><time>2009-08-22T14:56:50Z</time></trkpt>
<trkpt lat="46.20679130" lon="6.09737934"><ele>427.92395</ele><time>2009-08-22T14:56:51Z</time></trkpt>
<trkpt lat="46.20680412" lon="6.09742829"><ele>427.92395</ele><time>2009-08-22T14:56:52Z</time></trkpt>
<trkpt lat="46.20681100" lon="6.09747497"><ele>427.92395</ele><time>2009-08-22T14:56:53Z</time></trkpt>
<trkpt lat="46.20680957" lon="6.09751269"><ele>428.885376</ele><time>2009-08-22T14:56:54Z</time></trkpt>
<trkpt lat="46.20680965" lon="6.09753884"><ele>428.885376</ele><time>2009-08-22T14:56:55Z</time></trkpt>
<trkpt lat="46.20680857" lon="6.09755494"><ele>429.365967</ele><time>2009-08-22T14:56:56Z</time></trkpt>
<trkpt lat="46.20680932" lon="6.09756097"><ele>430.327271</ele><time>2009-08-22T14:56:57Z</time></trkpt>
<trkpt lat="46.20680823" lon="6.09755955"><ele>430.327271</ele><time>2009-08-22T14:56:58Z</time></trkpt>
<trkpt lat="46.20680613" lon="6.09756189"><ele>430.807983</ele><time>2009-08-22T14:56:59Z</time></trkpt>
<trkpt lat="46.20680898" lon="6.09756583"><ele>431.288574</ele><time>2009-08-22T14:57:00Z</time></trkpt>
<trkpt lat="46.20681292" lon="6.09757053"><ele>431.288574</ele><time>2009-08-22T14:57:01Z</time></trkpt>
<trkpt lat="46.20681544" lon="6.09757489"><ele>431.288574</ele><time>2009-08-22T14:57:02Z</time></trkpt>
<trkpt lat="46.20681670" lon="6.09757799"><ele>431.288574</ele><time>2009-08-22T14:57:03Z</time></trkpt>
<trkpt lat="46.20681519" lon="6.09757698"><ele>431.288574</ele><time>2009-08-22T14:57:04Z</time></trkpt>
<trkpt lat="46.20681468" lon="6.09757598"><ele>431.288574</ele><time>2009-08-22T14:57:05Z</time></trkpt>
<trkpt lat="46.20681946" lon="6.09757648"><ele>431.288574</ele><time>2009-08-22T14:57:06Z</time></trkpt>
<trkpt lat="46.20682818" lon="6.09757589"><ele>430.807983</ele><time>2009-08-22T14:57:07Z</time></trkpt>
<trkpt lat="46.20684016" lon="6.09756617"><ele>430.327271</ele><time>2009-08-22T14:57:08Z</time></trkpt>
<trkpt lat="46.20685676" lon="6.09754873"><ele>429.846558</ele><time>2009-08-22T14:57:09Z</time></trkpt>
<trkpt lat="46.20687763" lon="6.09753046"><ele>429.365967</ele><time>2009-08-22T14:57:10Z</time></trkpt>
<trkpt lat="46.20690286" lon="6.09751822"><ele>429.846558</ele><time>2009-08-22T14:57:11Z</time></trkpt>
<trkpt lat="46.20693178" lon="6.09750263"><ele>429.846558</ele><time>2009-08-22T14:57:12Z</time></trkpt>
<trkpt lat="46.20696723" lon="6.09749442"><ele>430.807983</ele><time>2009-08-22T14:57:13Z</time></trkpt>
<trkpt lat="46.20700445" lon="6.09748218"><ele>431.769165</ele><time>2009-08-22T14:57:14Z</time></trkpt>
<trkpt lat="46.20703647" lon="6.09746567"><ele>431.288574</ele><time>2009-08-22T14:57:15Z</time></trkpt>
<trkpt lat="46.20706757" lon="6.09745293"><ele>431.288574</ele><time>2009-08-22T14:57:16Z</time></trkpt>
<trkpt lat="46.20709648" lon="6.09744547"><ele>431.288574</ele><time>2009-08-22T14:57:17Z</time></trkpt>
<trkpt lat="46.20711752" lon="6.09743885"><ele>430.807983</ele><time>2009-08-22T14:57:18Z</time></trkpt>
<trkpt lat="46.20713890" lon="6.09743340"><ele>431.288574</ele><time>2009-08-22T14:57:19Z</time></trkpt>
<trkpt lat="46.20715013" lon="6.09742812"><ele>430.807983</ele><time>2009-08-22T14:57:20Z</time></trkpt>
<trkpt lat="46.20715633" lon="6.09742468"><ele>430.327271</ele><time>2009-08-22T14:57:21Z</time></trkpt>
<trkpt lat="46.20716069" lon="6.09742183"><ele>430.327271</ele><time>2009-08-22T14:57:22Z</time></trkpt>
<trkpt lat="46.20716312" lon="6.09741999"><ele>430.327271</ele><time>2009-08-22T14:57:23Z</time></trkpt>
<trkpt lat="46.20716698" lon="6.09741773"><ele>430.327271</ele><time>2009-08-22T14:57:24Z</time></trkpt>
<trkpt lat="46.20716790" lon="6.09741613"><ele>430.327271</ele><time>2009-08-22T14:57:25Z</time></trkpt>
<trkpt lat="46.20717058" lon="6.09741898"><ele>430.327271</ele><time>2009-08-22T14:57:26Z</time></trkpt>
<trkpt lat="46.20718055" lon="6.09743214"><ele>429.846558</ele><time>2009-08-22T14:57:27Z</time></trkpt>
<trkpt lat="46.20719707" lon="6.09744639"><ele>429.365967</ele><time>2009-08-22T14:57:28Z</time></trkpt>
<trkpt lat="46.20721735" lon="6.09745620"><ele>429.365967</ele><time>2009-08-22T14:57:29Z</time></trkpt>
<trkpt lat="46.20724300" lon="6.09746005"><ele>429.365967</ele><time>2009-08-22T14:57:30Z</time></trkpt>
<trkpt lat="46.20727460" lon="6.09745913"><ele>428.885376</ele><time>2009-08-22T14:57:31Z</time></trkpt>
<trkpt lat="46.20731257" lon="6.09746324"><ele>428.404663</ele><time>2009-08-22T14:57:32Z</time></trkpt>
<trkpt lat="46.20735649" lon="6.09747673"><ele>428.404663</ele><time>2009-08-22T14:57:33Z</time></trkpt>
<trkpt lat="46.20740544" lon="6.09749417"><ele>428.404663</ele><time>2009-08-22T14:57:34Z</time></trkpt>
<trkpt lat="46.20746093" lon="6.09750012"><ele>427.92395</ele><time>2009-08-22T14:57:35Z</time></trkpt>
<trkpt lat="46.20752052" lon="6.09749828"><ele>427.92395</ele><time>2009-08-22T14:57:36Z</time></trkpt>
<trkpt lat="46.20758238" lon="6.09749543"><ele>427.443359</ele><time>2009-08-22T14:57:37Z</time></trkpt>
<trkpt lat="46.20764533" lon="6.09749794"><ele>427.443359</ele><time>2009-08-22T14:57:38Z</time></trkpt>
<trkpt lat="46.20770853" lon="6.09750649"><ele>426.962769</ele><time>2009-08-22T14:57:39Z</time></trkpt>
<trkpt lat="46.20777156" lon="6.09751998"><ele>426.962769</ele><time>2009-08-22T14:57:40Z</time></trkpt>
<trkpt lat="46.20783359" lon="6.09753893"><ele>426.482056</ele><time>2009-08-22T14:57:41Z</time></trkpt>
<trkpt lat="46.20789402" lon="6.09756424"><ele>426.482056</ele><time>2009-08-22T14:57:42Z</time></trkpt>
<trkpt lat="46.20795387" lon="6.09759634"><ele>426.001343</ele><time>2009-08-22T14:57:43Z</time></trkpt>
<trkpt lat="46.20801388" lon="6.09764999"><ele>425.520752</ele><time>2009-08-22T14:57:44Z</time></trkpt>
<trkpt lat="46.20807063" lon="6.09769869"><ele>425.520752</ele><time>2009-08-22T14:57:45Z</time></trkpt>
<trkpt lat="46.20812000" lon="6.09774873"><ele>425.040161</ele><time>2009-08-22T14:57:46Z</time></trkpt>
<trkpt lat="46.20816853" lon="6.09780380"><ele>425.040161</ele><time>2009-08-22T14:57:47Z</time></trkpt>
<trkpt lat="46.20821639" lon="6.09786306"><ele>425.040161</ele><time>2009-08-22T14:57:48Z</time></trkpt>
<trkpt lat="46.20825947" lon="6.09792642"><ele>424.559448</ele><time>2009-08-22T14:57:49Z</time></trkpt>
<trkpt lat="46.20829962" lon="6.09799306"><ele>424.559448</ele><time>2009-08-22T14:57:50Z</time></trkpt>
<trkpt lat="46.20833617" lon="6.09806397"><ele>424.559448</ele><time>2009-08-22T14:57:51Z</time></trkpt>
<trkpt lat="46.20836894" lon="6.09813723"><ele>424.559448</ele><time>2009-08-22T14:57:52Z</time></trkpt>
<trkpt lat="46.20840004" lon="6.09821199"><ele>424.078735</ele><time>2009-08-22T14:57:53Z</time></trkpt>
<trkpt lat="46.20842937" lon="6.09828576"><ele>424.078735</ele><time>2009-08-22T14:57:54Z</time></trkpt>
<trkpt lat="46.20845955" lon="6.09836312"><ele>424.078735</ele><time>2009-08-22T14:57:55Z</time></trkpt>
<trkpt lat="46.20848126" lon="6.09843655"><ele>424.559448</ele><time>2009-08-22T14:57:56Z</time></trkpt>
<trkpt lat="46.20850322" lon="6.09850972"><ele>424.559448</ele><time>2009-08-22T14:57:57Z</time></trkpt>
<trkpt lat="46.20852669" lon="6.09858348"><ele>424.559448</ele><time>2009-08-22T14:57:58Z</time></trkpt>
<trkpt lat="46.20855007" lon="6.09865699"><ele>424.559448</ele><time>2009-08-22T14:57:59Z</time></trkpt>
<trkpt lat="46.20857312" lon="6.09873050"><ele>424.559448</ele><time>2009-08-22T14:58:00Z</time></trkpt>
<trkpt lat="46.20859475" lon="6.09880292"><ele>425.040161</ele><time>2009-08-22T14:58:01Z</time></trkpt>
<trkpt lat="46.20861797" lon="6.09887660"><ele>425.520752</ele><time>2009-08-22T14:58:02Z</time></trkpt>
<trkpt lat="46.20864353" lon="6.09895036"><ele>425.520752</ele><time>2009-08-22T14:58:03Z</time></trkpt>
<trkpt lat="46.20866859" lon="6.09902152"><ele>425.520752</ele><time>2009-08-22T14:58:04Z</time></trkpt>
<trkpt lat="46.20869248" lon="6.09909176"><ele>426.001343</ele><time>2009-08-22T14:58:05Z</time></trkpt>
<trkpt lat="46.20871503" lon="6.09916150"><ele>426.001343</ele><time>2009-08-22T14:58:06Z</time></trkpt>
<trkpt lat="46.20874017" lon="6.09923224"><ele>426.001343</ele><time>2009-08-22T14:58:07Z</time></trkpt>
<trkpt lat="46.20876507" lon="6.09930407"><ele>426.482056</ele><time>2009-08-22T14:58:08Z</time></trkpt>
<trkpt lat="46.20878946" lon="6.09937616"><ele>426.482056</ele><time>2009-08-22T14:58:09Z</time></trkpt>
<trkpt lat="46.20881553" lon="6.09944765"><ele>426.482056</ele><time>2009-08-22T14:58:10Z</time></trkpt>
<trkpt lat="46.20884160" lon="6.09951798"><ele>426.482056</ele><time>2009-08-22T14:58:11Z</time></trkpt>
<trkpt lat="46.20886683" lon="6.09958746"><ele>426.482056</ele><time>2009-08-22T14:58:12Z</time></trkpt>
<trkpt lat="46.20889205" lon="6.09965762"><ele>426.482056</ele><time>2009-08-22T14:58:13Z</time></trkpt>
<trkpt lat="46.20891754" lon="6.09972887"><ele>426.962769</ele><time>2009-08-22T14:58:14Z</time></trkpt>
<trkpt lat="46.20894033" lon="6.09979944"><ele>426.962769</ele><time>2009-08-22T14:58:15Z</time></trkpt>
<trkpt lat="46.20896062" lon="6.09986859"><ele>427.443359</ele><time>2009-08-22T14:58:16Z</time></trkpt>
<trkpt lat="46.20898048" lon="6.09993707"><ele>427.92395</ele><time>2009-08-22T14:58:17Z</time></trkpt>
<trkpt lat="46.20900228" lon="6.10000547"><ele>427.92395</ele><time>2009-08-22T14:58:18Z</time></trkpt>
<trkpt lat="46.20902642" lon="6.10007244"><ele>428.404663</ele><time>2009-08-22T14:58:19Z</time></trkpt>
<trkpt lat="46.20905072" lon="6.10013799"><ele>428.885376</ele><time>2009-08-22T14:58:20Z</time></trkpt>
<trkpt lat="46.20907453" lon="6.10020203"><ele>428.885376</ele><time>2009-08-22T14:58:21Z</time></trkpt>
<trkpt lat="46.20910068" lon="6.10026455"><ele>429.365967</ele><time>2009-08-22T14:58:22Z</time></trkpt>
<trkpt lat="46.20912625" lon="6.10032608"><ele>429.365967</ele><time>2009-08-22T14:58:23Z</time></trkpt>
<trkpt lat="46.20914988" lon="6.10038844"><ele>429.846558</ele><time>2009-08-22T14:58:24Z</time></trkpt>
<trkpt lat="46.20917159" lon="6.10045088"><ele>429.846558</ele><time>2009-08-22T14:58:25Z</time></trkpt>
<trkpt lat="46.20919204" lon="6.10051308"><ele>430.327271</ele><time>2009-08-22T14:58:26Z</time></trkpt>
<trkpt lat="46.20921308" lon="6.10057410"><ele>430.327271</ele><time>2009-08-22T14:58:27Z</time></trkpt>
<trkpt lat="46.20923462" lon="6.10063470"><ele>430.807983</ele><time>2009-08-22T14:58:28Z</time></trkpt>
<trkpt lat="46.20925583" lon="6.10069706"><ele>431.288574</ele><time>2009-08-22T14:58:29Z</time></trkpt>
<trkpt lat="46.20927678" lon="6.10076009"><ele>431.288574</ele><time>2009-08-22T14:58:30Z</time></trkpt>
<trkpt lat="46.20929883" lon="6.10082354"><ele>431.288574</ele><time>2009-08-22T14:58:31Z</time></trkpt>
<trkpt lat="46.20932079" lon="6.10088725"><ele>431.769165</ele><time>2009-08-22T14:58:32Z</time></trkpt>
<trkpt lat="46.20934309" lon="6.10095070"><ele>432.25</ele><time>2009-08-22T14:58:33Z</time></trkpt>
<trkpt lat="46.20936546" lon="6.10101390"><ele>432.730713</ele><time>2009-08-22T14:58:34Z</time></trkpt>
<trkpt lat="46.20938759" lon="6.10107760"><ele>432.730713</ele><time>2009-08-22T14:58:35Z</time></trkpt>
<trkpt lat="46.20940989" lon="6.10114164"><ele>433.211304</ele><time>2009-08-22T14:58:36Z</time></trkpt>
<trkpt lat="46.20943252" lon="6.10120567"><ele>433.691895</ele><time>2009-08-22T14:58:37Z</time></trkpt>
<trkpt lat="46.20945490" lon="6.10126988"><ele>433.691895</ele><time>2009-08-22T14:58:38Z</time></trkpt>
<trkpt lat="46.20947736" lon="6.10133325"><ele>434.172607</ele><time>2009-08-22T14:58:39Z</time></trkpt>
<trkpt lat="46.20949999" lon="6.10139703"><ele>434.172607</ele><time>2009-08-22T14:58:40Z</time></trkpt>
<trkpt lat="46.20952263" lon="6.10146116"><ele>434.65332</ele><time>2009-08-22T14:58:41Z</time></trkpt>
<trkpt lat="46.20954534" lon="6.10152419"><ele>435.133911</ele><time>2009-08-22T14:58:42Z</time></trkpt>
<trkpt lat="46.20956806" lon="6.10158538"><ele>435.133911</ele><time>2009-08-22T14:58:43Z</time></trkpt>
<trkpt lat="46.20958943" lon="6.10164598"><ele>435.614502</ele><time>2009-08-22T14:58:44Z</time></trkpt>
<trkpt lat="46.20961072" lon="6.10170708"><ele>435.614502</ele><time>2009-08-22T14:58:45Z</time></trkpt>
<trkpt lat="46.20963293" lon="6.10176877"><ele>436.095215</ele><time>2009-08-22T14:58:46Z</time></trkpt>
<trkpt lat="46.20965548" lon="6.10183105"><ele>436.095215</ele><time>2009-08-22T14:58:47Z</time></trkpt>
<trkpt lat="46.20967777" lon="6.10189400"><ele>436.575928</ele><time>2009-08-22T14:58:48Z</time></trkpt>
<trkpt lat="46.20969974" lon="6.10195694"><ele>436.575928</ele><time>2009-08-22T14:58:49Z</time></trkpt>
<trkpt lat="46.20972170" lon="6.10201864"><ele>437.056519</ele><time>2009-08-22T14:58:50Z</time></trkpt>
<trkpt lat="46.20974366" lon="6.10207924"><ele>437.056519</ele><time>2009-08-22T14:58:51Z</time></trkpt>
<trkpt lat="46.20976537" lon="6.10213925"><ele>437.056519</ele><time>2009-08-22T14:58:52Z</time></trkpt>
<trkpt lat="46.20978682" lon="6.10219860"><ele>437.056519</ele><time>2009-08-22T14:58:53Z</time></trkpt>
<trkpt lat="46.20980878" lon="6.10225735"><ele>437.056519</ele><time>2009-08-22T14:58:54Z</time></trkpt>
<trkpt lat="46.20982882" lon="6.10231519"><ele>437.056519</ele><time>2009-08-22T14:58:55Z</time></trkpt>
<trkpt lat="46.20984994" lon="6.10237445"><ele>437.056519</ele><time>2009-08-22T14:58:56Z</time></trkpt>
<trkpt lat="46.20987265" lon="6.10243547"><ele>436.575928</ele><time>2009-08-22T14:58:57Z</time></trkpt>
<trkpt lat="46.20989688" lon="6.10249892"><ele>436.575928</ele><time>2009-08-22T14:58:58Z</time></trkpt>
<trkpt lat="46.20992152" lon="6.10256539"><ele>436.575928</ele><time>2009-08-22T14:58:59Z</time></trkpt>
<trkpt lat="46.20994709" lon="6.10263429"><ele>436.575928</ele><time>2009-08-22T14:59:00Z</time></trkpt>
<trkpt lat="46.20997332" lon="6.10270486"><ele>436.095215</ele><time>2009-08-22T14:59:01Z</time></trkpt>
<trkpt lat="46.21000065" lon="6.10277628"><ele>436.095215</ele><time>2009-08-22T14:59:02Z</time></trkpt>
<trkpt lat="46.21002914" lon="6.10284895"><ele>435.614502</ele><time>2009-08-22T14:59:03Z</time></trkpt>
<trkpt lat="46.21005848" lon="6.10292338"><ele>435.133911</ele><time>2009-08-22T14:59:04Z</time></trkpt>
<trkpt lat="46.21008924" lon="6.10299873"><ele>434.65332</ele><time>2009-08-22T14:59:05Z</time></trkpt>
<trkpt lat="46.21012218" lon="6.10307492"><ele>434.172607</ele><time>2009-08-22T14:59:06Z</time></trkpt>
<trkpt lat="46.21015588" lon="6.10315145"><ele>434.172607</ele><time>2009-08-22T14:59:07Z</time></trkpt>
<trkpt lat="46.21019117" lon="6.10322798"><ele>433.691895</ele><time>2009-08-22T14:59:08Z</time></trkpt>
<trkpt lat="46.21022796" lon="6.10330333"><ele>433.211304</ele><time>2009-08-22T14:59:09Z</time></trkpt>
<trkpt lat="46.21026618" lon="6.10337818"><ele>433.211304</ele><time>2009-08-22T14:59:10Z</time></trkpt>
<trkpt lat="46.21030625" lon="6.10345144"><ele>432.730713</ele><time>2009-08-22T14:59:11Z</time></trkpt>
<trkpt lat="46.21034699" lon="6.10352252"><ele>432.730713</ele><time>2009-08-22T14:59:12Z</time></trkpt>
<trkpt lat="46.21038789" lon="6.10359058"><ele>432.25</ele><time>2009-08-22T14:59:13Z</time></trkpt>
<trkpt lat="46.21043013" lon="6.10365470"><ele>432.25</ele><time>2009-08-22T14:59:14Z</time></trkpt>
<trkpt lat="46.21047364" lon="6.10371547"><ele>432.25</ele><time>2009-08-22T14:59:15Z</time></trkpt>
<trkpt lat="46.21051756" lon="6.10377439"><ele>432.25</ele><time>2009-08-22T14:59:16Z</time></trkpt>
<trkpt lat="46.21056207" lon="6.10382946"><ele>432.25</ele><time>2009-08-22T14:59:17Z</time></trkpt>
<trkpt lat="46.21060674" lon="6.10388109"><ele>431.769165</ele><time>2009-08-22T14:59:18Z</time></trkpt>
<trkpt lat="46.21065276" lon="6.10393172"><ele>431.769165</ele><time>2009-08-22T14:59:19Z</time></trkpt>
<trkpt lat="46.21069978" lon="6.10398168"><ele>431.769165</ele><time>2009-08-22T14:59:20Z</time></trkpt>
<trkpt lat="46.21074747" lon="6.10403038"><ele>431.769165</ele><time>2009-08-22T14:59:21Z</time></trkpt>
<trkpt lat="46.21079617" lon="6.10407916"><ele>431.288574</ele><time>2009-08-22T14:59:22Z</time></trkpt>
<trkpt lat="46.21084403" lon="6.10412744"><ele>430.807983</ele><time>2009-08-22T14:59:23Z</time></trkpt>
<trkpt lat="46.21089139" lon="6.10417488"><ele>430.807983</ele><time>2009-08-22T14:59:24Z</time></trkpt>
<trkpt lat="46.21093808" lon="6.10422006"><ele>430.807983</ele><time>2009-08-22T14:59:25Z</time></trkpt>
<trkpt lat="46.21098443" lon="6.10426373"><ele>430.807983</ele><time>2009-08-22T14:59:26Z</time></trkpt>
<trkpt lat="46.21103028" lon="6.10430547"><ele>430.807983</ele><time>2009-08-22T14:59:27Z</time></trkpt>
<trkpt lat="46.21107588" lon="6.10434587"><ele>430.327271</ele><time>2009-08-22T14:59:28Z</time></trkpt>
<trkpt lat="46.21112122" lon="6.10438585"><ele>430.327271</ele><time>2009-08-22T14:59:29Z</time></trkpt>
<trkpt lat="46.21116665" lon="6.10442592"><ele>430.807983</ele><time>2009-08-22T14:59:30Z</time></trkpt>
<trkpt lat="46.21121275" lon="6.10446632"><ele>430.807983</ele><time>2009-08-22T14:59:31Z</time></trkpt>
<trkpt lat="46.21125818" lon="6.10450739"><ele>430.807983</ele><time>2009-08-22T14:59:32Z</time></trkpt>
<trkpt lat="46.21130328" lon="6.10455022"><ele>430.327271</ele><time>2009-08-22T14:59:33Z</time></trkpt>
<trkpt lat="46.21134946" lon="6.10459305"><ele>430.327271</ele><time>2009-08-22T14:59:34Z</time></trkpt>
<trkpt lat="46.21139615" lon="6.10463429"><ele>430.327271</ele><time>2009-08-22T14:59:35Z</time></trkpt>
<trkpt lat="46.21144292" lon="6.10467293"><ele>430.327271</ele><time>2009-08-22T14:59:36Z</time></trkpt>
<trkpt lat="46.21149003" lon="6.10471048"><ele>430.327271</ele><time>2009-08-22T14:59:37Z</time></trkpt>
<trkpt lat="46.21153395" lon="6.10474996"><ele>430.327271</ele><time>2009-08-22T14:59:38Z</time></trkpt>
<trkpt lat="46.21157602" lon="6.10478885"><ele>430.327271</ele><time>2009-08-22T14:59:39Z</time></trkpt>
<trkpt lat="46.21161726" lon="6.10482498"><ele>429.846558</ele><time>2009-08-22T14:59:40Z</time></trkpt>
<trkpt lat="46.21165842" lon="6.10485868"><ele>429.846558</ele><time>2009-08-22T14:59:41Z</time></trkpt>
<trkpt lat="46.21169874" lon="6.10489095"><ele>429.846558</ele><time>2009-08-22T14:59:42Z</time></trkpt>
<trkpt lat="46.21173738" lon="6.10492305"><ele>429.846558</ele><time>2009-08-22T14:59:43Z</time></trkpt>
<trkpt lat="46.21177426" lon="6.10495456"><ele>430.327271</ele><time>2009-08-22T14:59:44Z</time></trkpt>
<trkpt lat="46.21180912" lon="6.10498658"><ele>430.327271</ele><time>2009-08-22T14:59:45Z</time></trkpt>
<trkpt lat="46.21184257" lon="6.10501869"><ele>429.846558</ele><time>2009-08-22T14:59:46Z</time></trkpt>
<trkpt lat="46.21187509" lon="6.10505062"><ele>429.846558</ele><time>2009-08-22T14:59:47Z</time></trkpt>
<trkpt lat="46.21190644" lon="6.10508272"><ele>429.846558</ele><time>2009-08-22T14:59:48Z</time></trkpt>
<trkpt lat="46.21193695" lon="6.10511432"><ele>429.846558</ele><time>2009-08-22T14:59:49Z</time></trkpt>
<trkpt lat="46.21197039" lon="6.10514467"><ele>429.846558</ele><time>2009-08-22T14:59:50Z</time></trkpt>
<trkpt lat="46.21200342" lon="6.10517543"><ele>429.846558</ele><time>2009-08-22T14:59:51Z</time></trkpt>
<trkpt lat="46.21203577" lon="6.10520795"><ele>429.365967</ele><time>2009-08-22T14:59:52Z</time></trkpt>
<trkpt lat="46.21206754" lon="6.10524047"><ele>429.365967</ele><time>2009-08-22T14:59:53Z</time></trkpt>
<trkpt lat="46.21209629" lon="6.10526872"><ele>429.365967</ele><time>2009-08-22T14:59:54Z</time></trkpt>
<trkpt lat="46.21211565" lon="6.10528733"><ele>429.365967</ele><time>2009-08-22T14:59:55Z</time></trkpt>
<trkpt lat="46.21212278" lon="6.10529428"><ele>429.365967</ele><time>2009-08-22T14:59:56Z</time></trkpt>
<trkpt lat="46.21212395" lon="6.10529479"><ele>428.885376</ele><time>2009-08-22T14:59:57Z</time></trkpt>
<trkpt lat="46.21212537" lon="6.10529579"><ele>428.885376</ele><time>2009-08-22T14:59:58Z</time></trkpt>
<trkpt lat="46.21212479" lon="6.10529554"><ele>429.365967</ele><time>2009-08-22T14:59:59Z</time></trkpt>
<trkpt lat="46.21212512" lon="6.10529487"><ele>429.365967</ele><time>2009-08-22T15:00:00Z</time></trkpt>
<trkpt lat="46.21212537" lon="6.10529445"><ele>429.365967</ele><time>2009-08-22T15:00:01Z</time></trkpt>
<trkpt lat="46.21212588" lon="6.10529437"><ele>429.365967</ele><time>2009-08-22T15:00:02Z</time></trkpt>
<trkpt lat="46.21212613" lon="6.10529445"><ele>428.885376</ele><time>2009-08-22T15:00:03Z</time></trkpt>
<trkpt lat="46.21212613" lon="6.10529420"><ele>428.885376</ele><time>2009-08-22T15:00:04Z</time></trkpt>
<trkpt lat="46.21212630" lon="6.10529386"><ele>428.885376</ele><time>2009-08-22T15:00:05Z</time></trkpt>
<trkpt lat="46.21212680" lon="6.10529370"><ele>428.885376</ele><time>2009-08-22T15:00:06Z</time></trkpt>
<trkpt lat="46.21212722" lon="6.10529345"><ele>428.885376</ele><time>2009-08-22T15:00:07Z</time></trkpt>
<trkpt lat="46.21212722" lon="6.10529319"><ele>428.885376</ele><time>2009-08-22T15:00:08Z</time></trkpt>
<trkpt lat="46.21212713" lon="6.10529269"><ele>428.885376</ele><time>2009-08-22T15:00:09Z</time></trkpt>
<trkpt lat="46.21212755" lon="6.10529185"><ele>428.885376</ele><time>2009-08-22T15:00:10Z</time></trkpt>
<trkpt lat="46.21212898" lon="6.10529269"><ele>429.365967</ele><time>2009-08-22T15:00:11Z</time></trkpt>
<trkpt lat="46.21212864" lon="6.10529169"><ele>428.885376</ele><time>2009-08-22T15:00:12Z</time></trkpt>
<trkpt lat="46.21212848" lon="6.10529009"><ele>428.885376</ele><time>2009-08-22T15:00:13Z</time></trkpt>
<trkpt lat="46.21212856" lon="6.10528942"><ele>428.885376</ele><time>2009-08-22T15:00:14Z</time></trkpt>
<trkpt lat="46.21212873" lon="6.10528934"><ele>428.404663</ele><time>2009-08-22T15:00:15Z</time></trkpt>
<trkpt lat="46.21212864" lon="6.10528850"><ele>428.404663</ele><time>2009-08-22T15:00:16Z</time></trkpt>
<trkpt lat="46.21212856" lon="6.10528775"><ele>428.404663</ele><time>2009-08-22T15:00:17Z</time></trkpt>
<trkpt lat="46.21212864" lon="6.10528716"><ele>428.404663</ele><time>2009-08-22T15:00:18Z</time></trkpt>
<trkpt lat="46.21212864" lon="6.10528649"><ele>428.404663</ele><time>2009-08-22T15:00:19Z</time></trkpt>
<trkpt lat="46.21212848" lon="6.10528582"><ele>427.92395</ele><time>2009-08-22T15:00:20Z</time></trkpt>
<trkpt lat="46.21212822" lon="6.10528523"><ele>427.92395</ele><time>2009-08-22T15:00:21Z</time></trkpt>
<trkpt lat="46.21212814" lon="6.10528473"><ele>427.92395</ele><time>2009-08-22T15:00:22Z</time></trkpt>
<trkpt lat="46.21212789" lon="6.10528414"><ele>427.92395</ele><time>2009-08-22T15:00:23Z</time></trkpt>
<trkpt lat="46.21212764" lon="6.10528364"><ele>427.92395</ele><time>2009-08-22T15:00:24Z</time></trkpt>
<trkpt lat="46.21212747" lon="6.10528322"><ele>427.92395</ele><time>2009-08-22T15:00:25Z</time></trkpt>
<trkpt lat="46.21212722" lon="6.10528272"><ele>427.443359</ele><time>2009-08-22T15:00:26Z</time></trkpt>
<trkpt lat="46.21212462" lon="6.10528138"><ele>427.92395</ele><time>2009-08-22T15:00:27Z</time></trkpt>
<trkpt lat="46.21212219" lon="6.10528012"><ele>427.92395</ele><time>2009-08-22T15:00:28Z</time></trkpt>
<trkpt lat="46.21211967" lon="6.10527903"><ele>428.404663</ele><time>2009-08-22T15:00:29Z</time></trkpt>
<trkpt lat="46.21212194" lon="6.10528087"><ele>428.404663</ele><time>2009-08-22T15:00:30Z</time></trkpt>
<trkpt lat="46.21213635" lon="6.10529177"><ele>427.92395</ele><time>2009-08-22T15:00:31Z</time></trkpt>
<trkpt lat="46.21215505" lon="6.10530845"><ele>427.92395</ele><time>2009-08-22T15:00:32Z</time></trkpt>
<trkpt lat="46.21217634" lon="6.10532815"><ele>427.92395</ele><time>2009-08-22T15:00:33Z</time></trkpt>
<trkpt lat="46.21220316" lon="6.10535095"><ele>427.92395</ele><time>2009-08-22T15:00:34Z</time></trkpt>
<trkpt lat="46.21223903" lon="6.10536545"><ele>427.92395</ele><time>2009-08-22T15:00:35Z</time></trkpt>
<trkpt lat="46.21228077" lon="6.10535706"><ele>427.92395</ele><time>2009-08-22T15:00:36Z</time></trkpt>
<trkpt lat="46.21232478" lon="6.10532178"><ele>427.92395</ele><time>2009-08-22T15:00:37Z</time></trkpt>
<trkpt lat="46.21236158" lon="6.10526713"><ele>427.92395</ele><time>2009-08-22T15:00:38Z</time></trkpt>
<trkpt lat="46.21239812" lon="6.10520083"><ele>427.92395</ele><time>2009-08-22T15:00:39Z</time></trkpt>
<trkpt lat="46.21243609" lon="6.10513033"><ele>427.92395</ele><time>2009-08-22T15:00:40Z</time></trkpt>
<trkpt lat="46.21247708" lon="6.10505624"><ele>427.92395</ele><time>2009-08-22T15:00:41Z</time></trkpt>
<trkpt lat="46.21252008" lon="6.10497854"><ele>427.443359</ele><time>2009-08-22T15:00:42Z</time></trkpt>
<trkpt lat="46.21256400" lon="6.10490067"><ele>427.92395</ele><time>2009-08-22T15:00:43Z</time></trkpt>
<trkpt lat="46.21261077" lon="6.10482314"><ele>427.92395</ele><time>2009-08-22T15:00:44Z</time></trkpt>
<trkpt lat="46.21266123" lon="6.10474678"><ele>427.92395</ele><time>2009-08-22T15:00:45Z</time></trkpt>
<trkpt lat="46.21271320" lon="6.10467277"><ele>427.92395</ele><time>2009-08-22T15:00:46Z</time></trkpt>
<trkpt lat="46.21276466" lon="6.10460009"><ele>427.92395</ele><time>2009-08-22T15:00:47Z</time></trkpt>
<trkpt lat="46.21281135" lon="6.10452466"><ele>427.92395</ele><time>2009-08-22T15:00:48Z</time></trkpt>
<trkpt lat="46.21285493" lon="6.10446598"><ele>428.404663</ele><time>2009-08-22T15:00:49Z</time></trkpt>
<trkpt lat="46.21290749" lon="6.10438569"><ele>427.92395</ele><time>2009-08-22T15:00:50Z</time></trkpt>
<trkpt lat="46.21295845" lon="6.10431276"><ele>427.92395</ele><time>2009-08-22T15:00:51Z</time></trkpt>
<trkpt lat="46.21300405" lon="6.10424546"><ele>427.92395</ele><time>2009-08-22T15:00:52Z</time></trkpt>
<trkpt lat="46.21305132" lon="6.10417538"><ele>428.404663</ele><time>2009-08-22T15:00:53Z</time></trkpt>
<trkpt lat="46.21309893" lon="6.10410464"><ele>428.404663</ele><time>2009-08-22T15:00:54Z</time></trkpt>
<trkpt lat="46.21314470" lon="6.10403557"><ele>427.92395</ele><time>2009-08-22T15:00:55Z</time></trkpt>
<trkpt lat="46.21319147" lon="6.10396433"><ele>427.92395</ele><time>2009-08-22T15:00:56Z</time></trkpt>
<trkpt lat="46.21324285" lon="6.10388545"><ele>427.443359</ele><time>2009-08-22T15:00:57Z</time></trkpt>
<trkpt lat="46.21329146" lon="6.10381496"><ele>427.443359</ele><time>2009-08-22T15:00:58Z</time></trkpt>
<trkpt lat="46.21333949" lon="6.10374288"><ele>427.443359</ele><time>2009-08-22T15:00:59Z</time></trkpt>
<trkpt lat="46.21338769" lon="6.10367054"><ele>426.962769</ele><time>2009-08-22T15:01:00Z</time></trkpt>
<trkpt lat="46.21343656" lon="6.10359695"><ele>426.962769</ele><time>2009-08-22T15:01:01Z</time></trkpt>
<trkpt lat="46.21348458" lon="6.10352562"><ele>426.482056</ele><time>2009-08-22T15:01:02Z</time></trkpt>
<trkpt lat="46.21353437" lon="6.10345186"><ele>426.001343</ele><time>2009-08-22T15:01:03Z</time></trkpt>
<trkpt lat="46.21358609" lon="6.10337692"><ele>425.520752</ele><time>2009-08-22T15:01:04Z</time></trkpt>
<trkpt lat="46.21364183" lon="6.10332236"><ele>425.040161</ele><time>2009-08-22T15:01:05Z</time></trkpt>
<trkpt lat="46.21369782" lon="6.10333744"><ele>425.040161</ele><time>2009-08-22T15:01:06Z</time></trkpt>
<trkpt lat="46.21375347" lon="6.10337793"><ele>424.559448</ele><time>2009-08-22T15:01:07Z</time></trkpt>
<trkpt lat="46.21380846" lon="6.10343199"><ele>424.078735</ele><time>2009-08-22T15:01:08Z</time></trkpt>
<trkpt lat="46.21386462" lon="6.10348907"><ele>424.078735</ele><time>2009-08-22T15:01:09Z</time></trkpt>
<trkpt lat="46.21392279" lon="6.10354615"><ele>424.078735</ele><time>2009-08-22T15:01:10Z</time></trkpt>
<trkpt lat="46.21398130" lon="6.10360265"><ele>423.598022</ele><time>2009-08-22T15:01:11Z</time></trkpt>
<trkpt lat="46.21404056" lon="6.10365814"><ele>423.598022</ele><time>2009-08-22T15:01:12Z</time></trkpt>
<trkpt lat="46.21410116" lon="6.10371262"><ele>423.117432</ele><time>2009-08-22T15:01:13Z</time></trkpt>
<trkpt lat="46.21416335" lon="6.10376509"><ele>423.117432</ele><time>2009-08-22T15:01:14Z</time></trkpt>
<trkpt lat="46.21422345" lon="6.10382074"><ele>422.636719</ele><time>2009-08-22T15:01:15Z</time></trkpt>
<trkpt lat="46.21428757" lon="6.10387447"><ele>422.636719</ele><time>2009-08-22T15:01:16Z</time></trkpt>
<trkpt lat="46.21434817" lon="6.10392937"><ele>422.636719</ele><time>2009-08-22T15:01:17Z</time></trkpt>
<trkpt lat="46.21440844" lon="6.10398419"><ele>422.156006</ele><time>2009-08-22T15:01:18Z</time></trkpt>
<trkpt lat="46.21446854" lon="6.10403826"><ele>422.156006</ele><time>2009-08-22T15:01:19Z</time></trkpt>
<trkpt lat="46.21452788" lon="6.10409190"><ele>422.156006</ele><time>2009-08-22T15:01:20Z</time></trkpt>
<trkpt lat="46.21458647" lon="6.10414580"><ele>422.156006</ele><time>2009-08-22T15:01:21Z</time></trkpt>
<trkpt lat="46.21464506" lon="6.10419793"><ele>422.156006</ele><time>2009-08-22T15:01:22Z</time></trkpt>
<trkpt lat="46.21470499" lon="6.10424914"><ele>421.675415</ele><time>2009-08-22T15:01:23Z</time></trkpt>
<trkpt lat="46.21476534" lon="6.10430103"><ele>421.675415</ele><time>2009-08-22T15:01:24Z</time></trkpt>
<trkpt lat="46.21482569" lon="6.10435484"><ele>421.675415</ele><time>2009-08-22T15:01:25Z</time></trkpt>
<trkpt lat="46.21488562" lon="6.10441024"><ele>421.675415</ele><time>2009-08-22T15:01:26Z</time></trkpt>
<trkpt lat="46.21494706" lon="6.10446732"><ele>421.675415</ele><time>2009-08-22T15:01:27Z</time></trkpt>
<trkpt lat="46.21500464" lon="6.10452935"><ele>421.675415</ele><time>2009-08-22T15:01:28Z</time></trkpt>
<trkpt lat="46.21505929" lon="6.10459758"><ele>421.194824</ele><time>2009-08-22T15:01:29Z</time></trkpt>
<trkpt lat="46.21511176" lon="6.10466908"><ele>421.194824</ele><time>2009-08-22T15:01:30Z</time></trkpt>
<trkpt lat="46.21516214" lon="6.10474183"><ele>421.194824</ele><time>2009-08-22T15:01:31Z</time></trkpt>
<trkpt lat="46.21521042" lon="6.10481668"><ele>421.194824</ele><time>2009-08-22T15:01:32Z</time></trkpt>
<trkpt lat="46.21525769" lon="6.10489329"><ele>421.194824</ele><time>2009-08-22T15:01:33Z</time></trkpt>
<trkpt lat="46.21530689" lon="6.10497032"><ele>421.194824</ele><time>2009-08-22T15:01:34Z</time></trkpt>
<trkpt lat="46.21534260" lon="6.10505783"><ele>421.675415</ele><time>2009-08-22T15:01:35Z</time></trkpt>
<trkpt lat="46.21538166" lon="6.10513922"><ele>422.156006</ele><time>2009-08-22T15:01:36Z</time></trkpt>
<trkpt lat="46.21542483" lon="6.10520552"><ele>422.156006</ele><time>2009-08-22T15:01:37Z</time></trkpt>
<trkpt lat="46.21546020" lon="6.10529043"><ele>422.156006</ele><time>2009-08-22T15:01:38Z</time></trkpt>
<trkpt lat="46.21550035" lon="6.10536989"><ele>422.636719</ele><time>2009-08-22T15:01:39Z</time></trkpt>
<trkpt lat="46.21554209" lon="6.10544507"><ele>423.117432</ele><time>2009-08-22T15:01:40Z</time></trkpt>
<trkpt lat="46.21558794" lon="6.10551397"><ele>423.117432</ele><time>2009-08-22T15:01:41Z</time></trkpt>
<trkpt lat="46.21564519" lon="6.10555672"><ele>424.078735</ele><time>2009-08-22T15:01:42Z</time></trkpt>
<trkpt lat="46.21570855" lon="6.10554784"><ele>424.078735</ele><time>2009-08-22T15:01:43Z</time></trkpt>
<trkpt lat="46.21576454" lon="6.10550844"><ele>424.559448</ele><time>2009-08-22T15:01:44Z</time></trkpt>
<trkpt lat="46.21581970" lon="6.10544918"><ele>424.559448</ele><time>2009-08-22T15:01:45Z</time></trkpt>
<trkpt lat="46.21587586" lon="6.10538489"><ele>424.559448</ele><time>2009-08-22T15:01:46Z</time></trkpt>
<trkpt lat="46.21593604" lon="6.10531960"><ele>424.559448</ele><time>2009-08-22T15:01:47Z</time></trkpt>
<trkpt lat="46.21599865" lon="6.10525154"><ele>424.078735</ele><time>2009-08-22T15:01:48Z</time></trkpt>
<trkpt lat="46.21606026" lon="6.10518113"><ele>424.078735</ele><time>2009-08-22T15:01:49Z</time></trkpt>
<trkpt lat="46.21612228" lon="6.10511089"><ele>424.078735</ele><time>2009-08-22T15:01:50Z</time></trkpt>
<trkpt lat="46.21618414" lon="6.10503914"><ele>423.598022</ele><time>2009-08-22T15:01:51Z</time></trkpt>
<trkpt lat="46.21624550" lon="6.10496689"><ele>423.598022</ele><time>2009-08-22T15:01:52Z</time></trkpt>
<trkpt lat="46.21630568" lon="6.10489438"><ele>423.117432</ele><time>2009-08-22T15:01:53Z</time></trkpt>
<trkpt lat="46.21636469" lon="6.10482414"><ele>423.117432</ele><time>2009-08-22T15:01:54Z</time></trkpt>
<trkpt lat="46.21642345" lon="6.10475583"><ele>423.117432</ele><time>2009-08-22T15:01:55Z</time></trkpt>
<trkpt lat="46.21648086" lon="6.10468836"><ele>423.117432</ele><time>2009-08-22T15:01:56Z</time></trkpt>
<trkpt lat="46.21653945" lon="6.10462247"><ele>422.636719</ele><time>2009-08-22T15:01:57Z</time></trkpt>
<trkpt lat="46.21659787" lon="6.10455869"><ele>422.636719</ele><time>2009-08-22T15:01:58Z</time></trkpt>
<trkpt lat="46.21665713" lon="6.10449675"><ele>423.117432</ele><time>2009-08-22T15:01:59Z</time></trkpt>
<trkpt lat="46.21671363" lon="6.10443514"><ele>423.117432</ele><time>2009-08-22T15:02:00Z</time></trkpt>
<trkpt lat="46.21676979" lon="6.10437395"><ele>423.117432</ele><time>2009-08-22T15:02:01Z</time></trkpt>
<trkpt lat="46.21682419" lon="6.10431176"><ele>423.117432</ele><time>2009-08-22T15:02:02Z</time></trkpt>
<trkpt lat="46.21687909" lon="6.10424864"><ele>423.117432</ele><time>2009-08-22T15:02:03Z</time></trkpt>
<trkpt lat="46.21693449" lon="6.10418477"><ele>423.117432</ele><time>2009-08-22T15:02:04Z</time></trkpt>
<trkpt lat="46.21698688" lon="6.10412040"><ele>423.117432</ele><time>2009-08-22T15:02:05Z</time></trkpt>
<trkpt lat="46.21703776" lon="6.10405619"><ele>423.598022</ele><time>2009-08-22T15:02:06Z</time></trkpt>
<trkpt lat="46.21709333" lon="6.10399266"><ele>423.598022</ele><time>2009-08-22T15:02:07Z</time></trkpt>
<trkpt lat="46.21714764" lon="6.10392896"><ele>423.598022</ele><time>2009-08-22T15:02:08Z</time></trkpt>
<trkpt lat="46.21720313" lon="6.10386584"><ele>423.598022</ele><time>2009-08-22T15:02:09Z</time></trkpt>
<trkpt lat="46.21725904" lon="6.10380113"><ele>423.598022</ele><time>2009-08-22T15:02:10Z</time></trkpt>
<trkpt lat="46.21731352" lon="6.10373885"><ele>423.598022</ele><time>2009-08-22T15:02:11Z</time></trkpt>
<trkpt lat="46.21736742" lon="6.10367725"><ele>423.598022</ele><time>2009-08-22T15:02:12Z</time></trkpt>
<trkpt lat="46.21742156" lon="6.10361430"><ele>423.598022</ele><time>2009-08-22T15:02:13Z</time></trkpt>
<trkpt lat="46.21747739" lon="6.10355185"><ele>423.598022</ele><time>2009-08-22T15:02:14Z</time></trkpt>
<trkpt lat="46.21753405" lon="6.10349000"><ele>423.598022</ele><time>2009-08-22T15:02:15Z</time></trkpt>
<trkpt lat="46.21759968" lon="6.10343023"><ele>423.117432</ele><time>2009-08-22T15:02:16Z</time></trkpt>
<trkpt lat="46.21766053" lon="6.10336896"><ele>423.117432</ele><time>2009-08-22T15:02:17Z</time></trkpt>
<trkpt lat="46.21771518" lon="6.10330677"><ele>423.117432</ele><time>2009-08-22T15:02:18Z</time></trkpt>
<trkpt lat="46.21776765" lon="6.10324357"><ele>422.636719</ele><time>2009-08-22T15:02:19Z</time></trkpt>
<trkpt lat="46.21781836" lon="6.10317978"><ele>422.636719</ele><time>2009-08-22T15:02:20Z</time></trkpt>
<trkpt lat="46.21786882" lon="6.10311759"><ele>422.636719</ele><time>2009-08-22T15:02:21Z</time></trkpt>
<trkpt lat="46.21791777" lon="6.10305405"><ele>422.636719</ele><time>2009-08-22T15:02:22Z</time></trkpt>
<trkpt lat="46.21796865" lon="6.10299169"><ele>423.117432</ele><time>2009-08-22T15:02:23Z</time></trkpt>
<trkpt lat="46.21802079" lon="6.10293126"><ele>423.117432</ele><time>2009-08-22T15:02:24Z</time></trkpt>
<trkpt lat="46.21807275" lon="6.10287116"><ele>423.117432</ele><time>2009-08-22T15:02:25Z</time></trkpt>
<trkpt lat="46.21812657" lon="6.10281366"><ele>423.117432</ele><time>2009-08-22T15:02:26Z</time></trkpt>
<trkpt lat="46.21818147" lon="6.10275725"><ele>422.636719</ele><time>2009-08-22T15:02:27Z</time></trkpt>
<trkpt lat="46.21823888" lon="6.10270553"><ele>422.636719</ele><time>2009-08-22T15:02:28Z</time></trkpt>
<trkpt lat="46.21829764" lon="6.10266907"><ele>423.117432</ele><time>2009-08-22T15:02:29Z</time></trkpt>
<trkpt lat="46.21835908" lon="6.10264485"><ele>423.117432</ele><time>2009-08-22T15:02:30Z</time></trkpt>
<trkpt lat="46.21842236" lon="6.10262733"><ele>423.598022</ele><time>2009-08-22T15:02:31Z</time></trkpt>
<trkpt lat="46.21848824" lon="6.10262356"><ele>423.598022</ele><time>2009-08-22T15:02:32Z</time></trkpt>
<trkpt lat="46.21854675" lon="6.10266228"><ele>423.598022</ele><time>2009-08-22T15:02:33Z</time></trkpt>
<trkpt lat="46.21861146" lon="6.10268936"><ele>423.598022</ele><time>2009-08-22T15:02:34Z</time></trkpt>
<trkpt lat="46.21867566" lon="6.10271844"><ele>423.598022</ele><time>2009-08-22T15:02:35Z</time></trkpt>
<trkpt lat="46.21873828" lon="6.10275348"><ele>423.598022</ele><time>2009-08-22T15:02:36Z</time></trkpt>
<trkpt lat="46.21879737" lon="6.10279120"><ele>423.598022</ele><time>2009-08-22T15:02:37Z</time></trkpt>
<trkpt lat="46.21885587" lon="6.10283067"><ele>423.598022</ele><time>2009-08-22T15:02:38Z</time></trkpt>
<trkpt lat="46.21891589" lon="6.10287158"><ele>423.117432</ele><time>2009-08-22T15:02:39Z</time></trkpt>
<trkpt lat="46.21897624" lon="6.10291449"><ele>423.117432</ele><time>2009-08-22T15:02:40Z</time></trkpt>
<trkpt lat="46.21903609" lon="6.10295984"><ele>423.117432</ele><time>2009-08-22T15:02:41Z</time></trkpt>
<trkpt lat="46.21909493" lon="6.10300686"><ele>423.117432</ele><time>2009-08-22T15:02:42Z</time></trkpt>
<trkpt lat="46.21915368" lon="6.10305523"><ele>423.117432</ele><time>2009-08-22T15:02:43Z</time></trkpt>
<trkpt lat="46.21921143" lon="6.10310334"><ele>423.117432</ele><time>2009-08-22T15:02:44Z</time></trkpt>
<trkpt lat="46.21926868" lon="6.10315086"><ele>422.636719</ele><time>2009-08-22T15:02:45Z</time></trkpt>
<trkpt lat="46.21932652" lon="6.10319822"><ele>422.636719</ele><time>2009-08-22T15:02:46Z</time></trkpt>
<trkpt lat="46.21938494" lon="6.10324373"><ele>422.636719</ele><time>2009-08-22T15:02:47Z</time></trkpt>
<trkpt lat="46.21944336" lon="6.10328883"><ele>422.156006</ele><time>2009-08-22T15:02:48Z</time></trkpt>
<trkpt lat="46.21950153" lon="6.10333635"><ele>422.156006</ele><time>2009-08-22T15:02:49Z</time></trkpt>
<trkpt lat="46.21956037" lon="6.10338606"><ele>421.675415</ele><time>2009-08-22T15:02:50Z</time></trkpt>
<trkpt lat="46.21961989" lon="6.10343786"><ele>421.675415</ele><time>2009-08-22T15:02:51Z</time></trkpt>
<trkpt lat="46.21967940" lon="6.10349092"><ele>421.194824</ele><time>2009-08-22T15:02:52Z</time></trkpt>
<trkpt lat="46.21973908" lon="6.10354557"><ele>421.194824</ele><time>2009-08-22T15:02:53Z</time></trkpt>
<trkpt lat="46.21980119" lon="6.10360139"><ele>421.194824</ele><time>2009-08-22T15:02:54Z</time></trkpt>
<trkpt lat="46.21986439" lon="6.10365822"><ele>421.194824</ele><time>2009-08-22T15:02:55Z</time></trkpt>
<trkpt lat="46.21992608" lon="6.10371513"><ele>420.714111</ele><time>2009-08-22T15:02:56Z</time></trkpt>
<trkpt lat="46.21998919" lon="6.10377355"><ele>420.233398</ele><time>2009-08-22T15:02:57Z</time></trkpt>
<trkpt lat="46.22005164" lon="6.10383298"><ele>420.233398</ele><time>2009-08-22T15:02:58Z</time></trkpt>
<trkpt lat="46.22009958" lon="6.10386802"><ele>419.752808</ele><time>2009-08-22T15:02:59Z</time></trkpt>
<trkpt lat="46.22012892" lon="6.10388009"><ele>419.272217</ele><time>2009-08-22T15:03:00Z</time></trkpt>
<trkpt lat="46.22014099" lon="6.10393197"><ele>419.272217</ele><time>2009-08-22T15:03:01Z</time></trkpt>
<trkpt lat="46.22016672" lon="6.10395368"><ele>418.791504</ele><time>2009-08-22T15:03:02Z</time></trkpt>
<trkpt lat="46.22029295" lon="6.10404639"><ele>416.868896</ele><time>2009-08-22T15:03:03Z</time></trkpt>
<trkpt lat="46.22037618" lon="6.10413004"><ele>417.349609</ele><time>2009-08-22T15:03:04Z</time></trkpt>
<trkpt lat="46.22043536" lon="6.10419315"><ele>417.8302</ele><time>2009-08-22T15:03:05Z</time></trkpt>
<trkpt lat="46.22049085" lon="6.10423875"><ele>418.310791</ele><time>2009-08-22T15:03:06Z</time></trkpt>
<trkpt lat="46.22054558" lon="6.10426876"><ele>418.791504</ele><time>2009-08-22T15:03:07Z</time></trkpt>
<trkpt lat="46.22059789" lon="6.10428854"><ele>419.272217</ele><time>2009-08-22T15:03:08Z</time></trkpt>
<trkpt lat="46.22065413" lon="6.10427974"><ele>419.752808</ele><time>2009-08-22T15:03:09Z</time></trkpt>
<trkpt lat="46.22070978" lon="6.10425526"><ele>419.752808</ele><time>2009-08-22T15:03:10Z</time></trkpt>
<trkpt lat="46.22075245" lon="6.10423557"><ele>420.233398</ele><time>2009-08-22T15:03:11Z</time></trkpt>
<trkpt lat="46.22079578" lon="6.10419868"><ele>421.194824</ele><time>2009-08-22T15:03:12Z</time></trkpt>
<trkpt lat="46.22082369" lon="6.10415133"><ele>421.675415</ele><time>2009-08-22T15:03:13Z</time></trkpt>
<trkpt lat="46.22085697" lon="6.10408327"><ele>422.156006</ele><time>2009-08-22T15:03:14Z</time></trkpt>
<trkpt lat="46.22089217" lon="6.10402484"><ele>422.156006</ele><time>2009-08-22T15:03:15Z</time></trkpt>
<trkpt lat="46.22092662" lon="6.10396500"><ele>422.156006</ele><time>2009-08-22T15:03:16Z</time></trkpt>
<trkpt lat="46.22095747" lon="6.10391705"><ele>422.636719</ele><time>2009-08-22T15:03:17Z</time></trkpt>
<trkpt lat="46.22099209" lon="6.10388026"><ele>423.598022</ele><time>2009-08-22T15:03:18Z</time></trkpt>
<trkpt lat="46.22102746" lon="6.10384455"><ele>423.598022</ele><time>2009-08-22T15:03:19Z</time></trkpt>
<trkpt lat="46.22106199" lon="6.10380935"><ele>424.078735</ele><time>2009-08-22T15:03:20Z</time></trkpt>
<trkpt lat="46.22109468" lon="6.10376886"><ele>424.559448</ele><time>2009-08-22T15:03:21Z</time></trkpt>
<trkpt lat="46.22112276" lon="6.10372469"><ele>424.559448</ele><time>2009-08-22T15:03:22Z</time></trkpt>
<trkpt lat="46.22115218" lon="6.10367498"><ele>425.040161</ele><time>2009-08-22T15:03:23Z</time></trkpt>
<trkpt lat="46.22118462" lon="6.10362276"><ele>425.040161</ele><time>2009-08-22T15:03:24Z</time></trkpt>
<trkpt lat="46.22121789" lon="6.10357432"><ele>425.520752</ele><time>2009-08-22T15:03:25Z</time></trkpt>
<trkpt lat="46.22125125" lon="6.10352629"><ele>425.520752</ele><time>2009-08-22T15:03:26Z</time></trkpt>
<trkpt lat="46.22128529" lon="6.10347449"><ele>425.520752</ele><time>2009-08-22T15:03:27Z</time></trkpt>
<trkpt lat="46.22132049" lon="6.10342219"><ele>425.520752</ele><time>2009-08-22T15:03:28Z</time></trkpt>
<trkpt lat="46.22135687" lon="6.10337189"><ele>425.520752</ele><time>2009-08-22T15:03:29Z</time></trkpt>
<trkpt lat="46.22139676" lon="6.10331758"><ele>425.520752</ele><time>2009-08-22T15:03:30Z</time></trkpt>
<trkpt lat="46.22143323" lon="6.10326293"><ele>425.520752</ele><time>2009-08-22T15:03:31Z</time></trkpt>
<trkpt lat="46.22147153" lon="6.10321037"><ele>425.520752</ele><time>2009-08-22T15:03:32Z</time></trkpt>
<trkpt lat="46.22151285" lon="6.10316008"><ele>425.520752</ele><time>2009-08-22T15:03:33Z</time></trkpt>
<trkpt lat="46.22155518" lon="6.10310845"><ele>425.040161</ele><time>2009-08-22T15:03:34Z</time></trkpt>
<trkpt lat="46.22160003" lon="6.10305967"><ele>425.040161</ele><time>2009-08-22T15:03:35Z</time></trkpt>
<trkpt lat="46.22165032" lon="6.10302480"><ele>425.040161</ele><time>2009-08-22T15:03:36Z</time></trkpt>
<trkpt lat="46.22170614" lon="6.10301575"><ele>424.559448</ele><time>2009-08-22T15:03:37Z</time></trkpt>
<trkpt lat="46.22175853" lon="6.10303494"><ele>424.559448</ele><time>2009-08-22T15:03:38Z</time></trkpt>
<trkpt lat="46.22180295" lon="6.10307610"><ele>425.040161</ele><time>2009-08-22T15:03:39Z</time></trkpt>
<trkpt lat="46.22184469" lon="6.10312765"><ele>425.040161</ele><time>2009-08-22T15:03:40Z</time></trkpt>
<trkpt lat="46.22188250" lon="6.10317718"><ele>425.520752</ele><time>2009-08-22T15:03:41Z</time></trkpt>
<trkpt lat="46.22191669" lon="6.10322722"><ele>425.520752</ele><time>2009-08-22T15:03:42Z</time></trkpt>
<trkpt lat="46.22194880" lon="6.10327877"><ele>426.001343</ele><time>2009-08-22T15:03:43Z</time></trkpt>
<trkpt lat="46.22197973" lon="6.10332764"><ele>426.482056</ele><time>2009-08-22T15:03:44Z</time></trkpt>
<trkpt lat="46.22201283" lon="6.10337324"><ele>426.962769</ele><time>2009-08-22T15:03:45Z</time></trkpt>
<trkpt lat="46.22204527" lon="6.10341766"><ele>426.962769</ele><time>2009-08-22T15:03:46Z</time></trkpt>
<trkpt lat="46.22207696" lon="6.10346342"><ele>426.962769</ele><time>2009-08-22T15:03:47Z</time></trkpt>
<trkpt lat="46.22210814" lon="6.10351036"><ele>427.443359</ele><time>2009-08-22T15:03:48Z</time></trkpt>
<trkpt lat="46.22213915" lon="6.10355898"><ele>427.443359</ele><time>2009-08-22T15:03:49Z</time></trkpt>
<trkpt lat="46.22217000" lon="6.10360692"><ele>427.443359</ele><time>2009-08-22T15:03:50Z</time></trkpt>
<trkpt lat="46.22220210" lon="6.10365470"><ele>427.92395</ele><time>2009-08-22T15:03:51Z</time></trkpt>
<trkpt lat="46.22223554" lon="6.10370248"><ele>427.92395</ele><time>2009-08-22T15:03:52Z</time></trkpt>
<trkpt lat="46.22226957" lon="6.10375185"><ele>428.404663</ele><time>2009-08-22T15:03:53Z</time></trkpt>
<trkpt lat="46.22230268" lon="6.10380298"><ele>428.404663</ele><time>2009-08-22T15:03:54Z</time></trkpt>
<trkpt lat="46.22233554" lon="6.10385352"><ele>428.404663</ele><time>2009-08-22T15:03:55Z</time></trkpt>
<trkpt lat="46.22236865" lon="6.10390146"><ele>428.404663</ele><time>2009-08-22T15:03:56Z</time></trkpt>
<trkpt lat="46.22240083" lon="6.10394798"><ele>428.885376</ele><time>2009-08-22T15:03:57Z</time></trkpt>
<trkpt lat="46.22243126" lon="6.10399375"><ele>428.885376</ele><time>2009-08-22T15:03:58Z</time></trkpt>
<trkpt lat="46.22245976" lon="6.10403666"><ele>428.885376</ele><time>2009-08-22T15:03:59Z</time></trkpt>
<trkpt lat="46.22248826" lon="6.10407849"><ele>429.365967</ele><time>2009-08-22T15:04:00Z</time></trkpt>
<trkpt lat="46.22251675" lon="6.10412082"><ele>429.365967</ele><time>2009-08-22T15:04:01Z</time></trkpt>
<trkpt lat="46.22254467" lon="6.10416239"><ele>429.365967</ele><time>2009-08-22T15:04:02Z</time></trkpt>
<trkpt lat="46.22257249" lon="6.10420338"><ele>429.365967</ele><time>2009-08-22T15:04:03Z</time></trkpt>
<trkpt lat="46.22260083" lon="6.10424328"><ele>429.365967</ele><time>2009-08-22T15:04:04Z</time></trkpt>
<trkpt lat="46.22262949" lon="6.10428393"><ele>429.365967</ele><time>2009-08-22T15:04:05Z</time></trkpt>
<trkpt lat="46.22265715" lon="6.10432693"><ele>429.846558</ele><time>2009-08-22T15:04:06Z</time></trkpt>
<trkpt lat="46.22268423" lon="6.10437026"><ele>429.846558</ele><time>2009-08-22T15:04:07Z</time></trkpt>
<trkpt lat="46.22271155" lon="6.10441293"><ele>429.846558</ele><time>2009-08-22T15:04:08Z</time></trkpt>
<trkpt lat="46.22273904" lon="6.10445383"><ele>430.327271</ele><time>2009-08-22T15:04:09Z</time></trkpt>
<trkpt lat="46.22276570" lon="6.10449406"><ele>430.327271</ele><time>2009-08-22T15:04:10Z</time></trkpt>
<trkpt lat="46.22279336" lon="6.10453706"><ele>430.327271</ele><time>2009-08-22T15:04:11Z</time></trkpt>
<trkpt lat="46.22282370" lon="6.10458098"><ele>430.327271</ele><time>2009-08-22T15:04:12Z</time></trkpt>
<trkpt lat="46.22285463" lon="6.10462549"><ele>430.327271</ele><time>2009-08-22T15:04:13Z</time></trkpt>
<trkpt lat="46.22288707" lon="6.10467067"><ele>430.807983</ele><time>2009-08-22T15:04:14Z</time></trkpt>
<trkpt lat="46.22291800" lon="6.10471618"><ele>430.327271</ele><time>2009-08-22T15:04:15Z</time></trkpt>
<trkpt lat="46.22294876" lon="6.10476170"><ele>430.327271</ele><time>2009-08-22T15:04:16Z</time></trkpt>
<trkpt lat="46.22298094" lon="6.10480579"><ele>430.327271</ele><time>2009-08-22T15:04:17Z</time></trkpt>
<trkpt lat="46.22301514" lon="6.10484895"><ele>430.807983</ele><time>2009-08-22T15:04:18Z</time></trkpt>
<trkpt lat="46.22304917" lon="6.10489522"><ele>430.807983</ele><time>2009-08-22T15:04:19Z</time></trkpt>
<trkpt lat="46.22308086" lon="6.10494476"><ele>430.807983</ele><time>2009-08-22T15:04:20Z</time></trkpt>
<trkpt lat="46.22311204" lon="6.10499513"><ele>430.807983</ele><time>2009-08-22T15:04:21Z</time></trkpt>
<trkpt lat="46.22314406" lon="6.10504442"><ele>430.807983</ele><time>2009-08-22T15:04:22Z</time></trkpt>
<trkpt lat="46.22317524" lon="6.10509588"><ele>430.807983</ele><time>2009-08-22T15:04:23Z</time></trkpt>
<trkpt lat="46.22320323" lon="6.10515104"><ele>431.288574</ele><time>2009-08-22T15:04:24Z</time></trkpt>
<trkpt lat="46.22322905" lon="6.10520694"><ele>431.288574</ele><time>2009-08-22T15:04:25Z</time></trkpt>
<trkpt lat="46.22325713" lon="6.10525833"><ele>431.288574</ele><time>2009-08-22T15:04:26Z</time></trkpt>
<trkpt lat="46.22328856" lon="6.10530560"><ele>431.288574</ele><time>2009-08-22T15:04:27Z</time></trkpt>
<trkpt lat="46.22332033" lon="6.10535120"><ele>431.288574</ele><time>2009-08-22T15:04:28Z</time></trkpt>
<trkpt lat="46.22335126" lon="6.10539587"><ele>431.288574</ele><time>2009-08-22T15:04:29Z</time></trkpt>
<trkpt lat="46.22338135" lon="6.10544030"><ele>431.288574</ele><time>2009-08-22T15:04:30Z</time></trkpt>
<trkpt lat="46.22340943" lon="6.10548380"><ele>430.807983</ele><time>2009-08-22T15:04:31Z</time></trkpt>
<trkpt lat="46.22343608" lon="6.10552629"><ele>430.807983</ele><time>2009-08-22T15:04:32Z</time></trkpt>
<trkpt lat="46.22346165" lon="6.10556644"><ele>430.807983</ele><time>2009-08-22T15:04:33Z</time></trkpt>
<trkpt lat="46.22348554" lon="6.10560450"><ele>430.807983</ele><time>2009-08-22T15:04:34Z</time></trkpt>
<trkpt lat="46.22350875" lon="6.10564046"><ele>430.807983</ele><time>2009-08-22T15:04:35Z</time></trkpt>
<trkpt lat="46.22353423" lon="6.10567172"><ele>430.807983</ele><time>2009-08-22T15:04:36Z</time></trkpt>
<trkpt lat="46.22356265" lon="6.10570005"><ele>431.288574</ele><time>2009-08-22T15:04:37Z</time></trkpt>
<trkpt lat="46.22359433" lon="6.10573165"><ele>431.288574</ele><time>2009-08-22T15:04:38Z</time></trkpt>
<trkpt lat="46.22362702" lon="6.10577004"><ele>431.288574</ele><time>2009-08-22T15:04:39Z</time></trkpt>
<trkpt lat="46.22365896" lon="6.10581396"><ele>431.288574</ele><time>2009-08-22T15:04:40Z</time></trkpt>
<trkpt lat="46.22368938" lon="6.10586216"><ele>431.288574</ele><time>2009-08-22T15:04:41Z</time></trkpt>
<trkpt lat="46.22372040" lon="6.10591044"><ele>431.288574</ele><time>2009-08-22T15:04:42Z</time></trkpt>
<trkpt lat="46.22375250" lon="6.10595754"><ele>431.288574</ele><time>2009-08-22T15:04:43Z</time></trkpt>
<trkpt lat="46.22378393" lon="6.10600499"><ele>431.288574</ele><time>2009-08-22T15:04:44Z</time></trkpt>
<trkpt lat="46.22381595" lon="6.10605176"><ele>431.288574</ele><time>2009-08-22T15:04:45Z</time></trkpt>
<trkpt lat="46.22384805" lon="6.10609836"><ele>431.769165</ele><time>2009-08-22T15:04:46Z</time></trkpt>
<trkpt lat="46.22387814" lon="6.10614714"><ele>431.769165</ele><time>2009-08-22T15:04:47Z</time></trkpt>
<trkpt lat="46.22390606" lon="6.10619794"><ele>431.769165</ele><time>2009-08-22T15:04:48Z</time></trkpt>
<trkpt lat="46.22393506" lon="6.10624772"><ele>431.769165</ele><time>2009-08-22T15:04:49Z</time></trkpt>
<trkpt lat="46.22396699" lon="6.10629366"><ele>431.769165</ele><time>2009-08-22T15:04:50Z</time></trkpt>
<trkpt lat="46.22400077" lon="6.10633632"><ele>431.769165</ele><time>2009-08-22T15:04:51Z</time></trkpt>
<trkpt lat="46.22403312" lon="6.10637924"><ele>432.25</ele><time>2009-08-22T15:04:52Z</time></trkpt>
<trkpt lat="46.22406296" lon="6.10642400"><ele>432.25</ele><time>2009-08-22T15:04:53Z</time></trkpt>
<trkpt lat="46.22409205" lon="6.10646632"><ele>432.25</ele><time>2009-08-22T15:04:54Z</time></trkpt>
<trkpt lat="46.22412264" lon="6.10650698"><ele>432.730713</ele><time>2009-08-22T15:04:55Z</time></trkpt>
<trkpt lat="46.22415408" lon="6.10654905"><ele>432.730713</ele><time>2009-08-22T15:04:56Z</time></trkpt>
<trkpt lat="46.22418534" lon="6.10659423"><ele>433.211304</ele><time>2009-08-22T15:04:57Z</time></trkpt>
<trkpt lat="46.22421753" lon="6.10663958"><ele>433.211304</ele><time>2009-08-22T15:04:58Z</time></trkpt>
<trkpt lat="46.22424913" lon="6.10668384"><ele>433.691895</ele><time>2009-08-22T15:04:59Z</time></trkpt>
<trkpt lat="46.22428064" lon="6.10672868"><ele>433.691895</ele><time>2009-08-22T15:05:00Z</time></trkpt>
<trkpt lat="46.22431132" lon="6.10677394"><ele>433.691895</ele><time>2009-08-22T15:05:01Z</time></trkpt>
<trkpt lat="46.22434208" lon="6.10681929"><ele>433.691895</ele><time>2009-08-22T15:05:02Z</time></trkpt>
<trkpt lat="46.22437284" lon="6.10686522"><ele>433.691895</ele><time>2009-08-22T15:05:03Z</time></trkpt>
<trkpt lat="46.22440226" lon="6.10691040"><ele>433.691895</ele><time>2009-08-22T15:05:04Z</time></trkpt>
<trkpt lat="46.22443018" lon="6.10695482"><ele>433.691895</ele><time>2009-08-22T15:05:05Z</time></trkpt>
<trkpt lat="46.22445683" lon="6.10700067"><ele>433.691895</ele><time>2009-08-22T15:05:06Z</time></trkpt>
<trkpt lat="46.22448097" lon="6.10704702"><ele>433.211304</ele><time>2009-08-22T15:05:07Z</time></trkpt>
<trkpt lat="46.22450637" lon="6.10708684"><ele>433.691895</ele><time>2009-08-22T15:05:08Z</time></trkpt>
<trkpt lat="46.22453076" lon="6.10712464"><ele>434.172607</ele><time>2009-08-22T15:05:09Z</time></trkpt>
<trkpt lat="46.22455247" lon="6.10716445"><ele>434.65332</ele><time>2009-08-22T15:05:10Z</time></trkpt>
<trkpt lat="46.22457460" lon="6.10720117"><ele>434.65332</ele><time>2009-08-22T15:05:11Z</time></trkpt>
<trkpt lat="46.22459932" lon="6.10723369"><ele>435.133911</ele><time>2009-08-22T15:05:12Z</time></trkpt>
<trkpt lat="46.22462003" lon="6.10726453"><ele>435.133911</ele><time>2009-08-22T15:05:13Z</time></trkpt>
<trkpt lat="46.22463319" lon="6.10728742"><ele>435.133911</ele><time>2009-08-22T15:05:14Z</time></trkpt>
<trkpt lat="46.22463796" lon="6.10729446"><ele>435.133911</ele><time>2009-08-22T15:05:15Z</time></trkpt>
<trkpt lat="46.22463704" lon="6.10729613"><ele>435.133911</ele><time>2009-08-22T15:05:16Z</time></trkpt>
<trkpt lat="46.22463402" lon="6.10729957"><ele>435.614502</ele><time>2009-08-22T15:05:17Z</time></trkpt>
<trkpt lat="46.22462832" lon="6.10730695"><ele>435.614502</ele><time>2009-08-22T15:05:18Z</time></trkpt>
<trkpt lat="46.22462187" lon="6.10731457"><ele>435.614502</ele><time>2009-08-22T15:05:19Z</time></trkpt>
<trkpt lat="46.22461785" lon="6.10732346"><ele>435.614502</ele><time>2009-08-22T15:05:20Z</time></trkpt>
<trkpt lat="46.22461273" lon="6.10733477"><ele>436.095215</ele><time>2009-08-22T15:05:21Z</time></trkpt>
<trkpt lat="46.22460988" lon="6.10734307"><ele>436.575928</ele><time>2009-08-22T15:05:22Z</time></trkpt>
<trkpt lat="46.22460712" lon="6.10734927"><ele>437.056519</ele><time>2009-08-22T15:05:23Z</time></trkpt>
<trkpt lat="46.22460226" lon="6.10735573"><ele>437.537109</ele><time>2009-08-22T15:05:24Z</time></trkpt>
<trkpt lat="46.22459446" lon="6.10737132"><ele>438.017822</ele><time>2009-08-22T15:05:25Z</time></trkpt>
<trkpt lat="46.22458792" lon="6.10739496"><ele>438.498535</ele><time>2009-08-22T15:05:26Z</time></trkpt>
<trkpt lat="46.22458155" lon="6.10742186"><ele>438.979126</ele><time>2009-08-22T15:05:27Z</time></trkpt>
<trkpt lat="46.22457317" lon="6.10744718"><ele>439.459717</ele><time>2009-08-22T15:05:28Z</time></trkpt>
<trkpt lat="46.22456060" lon="6.10747090"><ele>439.94043</ele><time>2009-08-22T15:05:29Z</time></trkpt>
<trkpt lat="46.22454518" lon="6.10749613"><ele>440.421265</ele><time>2009-08-22T15:05:30Z</time></trkpt>
<trkpt lat="46.22453009" lon="6.10752328"><ele>440.901855</ele><time>2009-08-22T15:05:31Z</time></trkpt>
<trkpt lat="46.22451592" lon="6.10755337"><ele>441.382446</ele><time>2009-08-22T15:05:32Z</time></trkpt>
<trkpt lat="46.22450352" lon="6.10758296"><ele>441.863159</ele><time>2009-08-22T15:05:33Z</time></trkpt>
<trkpt lat="46.22448843" lon="6.10760735"><ele>441.863159</ele><time>2009-08-22T15:05:34Z</time></trkpt>
<trkpt lat="46.22447586" lon="6.10762898"><ele>442.343872</ele><time>2009-08-22T15:05:35Z</time></trkpt>
<trkpt lat="46.22447259" lon="6.10764348"><ele>442.343872</ele><time>2009-08-22T15:05:36Z</time></trkpt>
<trkpt lat="46.22447158" lon="6.10765379"><ele>442.824463</ele><time>2009-08-22T15:05:37Z</time></trkpt>
<trkpt lat="46.22447024" lon="6.10765689"><ele>442.824463</ele><time>2009-08-22T15:05:38Z</time></trkpt>
<trkpt lat="46.22447242" lon="6.10765924"><ele>443.305054</ele><time>2009-08-22T15:05:39Z</time></trkpt>
<trkpt lat="46.22447753" lon="6.10766133"><ele>443.305054</ele><time>2009-08-22T15:05:40Z</time></trkpt>
<trkpt lat="46.22448348" lon="6.10766158"><ele>443.785767</ele><time>2009-08-22T15:05:41Z</time></trkpt>
<trkpt lat="46.22448985" lon="6.10765823"><ele>442.824463</ele><time>2009-08-22T15:05:42Z</time></trkpt>
<trkpt lat="46.22449882" lon="6.10765547"><ele>443.305054</ele><time>2009-08-22T15:05:43Z</time></trkpt>
<trkpt lat="46.22450536" lon="6.10765236"><ele>443.305054</ele><time>2009-08-22T15:05:44Z</time></trkpt>
<trkpt lat="46.22450637" lon="6.10765052"><ele>441.863159</ele><time>2009-08-22T15:05:45Z</time></trkpt>
<trkpt lat="46.22451232" lon="6.10764809"><ele>441.863159</ele><time>2009-08-22T15:05:46Z</time></trkpt>
<trkpt lat="46.22451793" lon="6.10764323"><ele>440.421265</ele><time>2009-08-22T15:05:47Z</time></trkpt>
<trkpt lat="46.22452422" lon="6.10763988"><ele>439.94043</ele><time>2009-08-22T15:05:48Z</time></trkpt>
<trkpt lat="46.22453109" lon="6.10763786"><ele>439.459717</ele><time>2009-08-22T15:05:49Z</time></trkpt>
<trkpt lat="46.22453906" lon="6.10763283"><ele>438.017822</ele><time>2009-08-22T15:05:50Z</time></trkpt>
<trkpt lat="46.22454526" lon="6.10763107"><ele>438.017822</ele><time>2009-08-22T15:05:51Z</time></trkpt>
<trkpt lat="46.22455196" lon="6.10763309"><ele>438.979126</ele><time>2009-08-22T15:05:52Z</time></trkpt>
<trkpt lat="46.22455733" lon="6.10763158"><ele>439.94043</ele><time>2009-08-22T15:05:53Z</time></trkpt>
<trkpt lat="46.22456546" lon="6.10763124"><ele>440.421265</ele><time>2009-08-22T15:05:54Z</time></trkpt>
<trkpt lat="46.22456999" lon="6.10763174"><ele>441.863159</ele><time>2009-08-22T15:05:55Z</time></trkpt>
<trkpt lat="46.22456806" lon="6.10762948"><ele>441.863159</ele><time>2009-08-22T15:05:56Z</time></trkpt>
<trkpt lat="46.22456923" lon="6.10762613"><ele>441.863159</ele><time>2009-08-22T15:05:57Z</time></trkpt>
<trkpt lat="46.22457719" lon="6.10762487"><ele>441.863159</ele><time>2009-08-22T15:05:58Z</time></trkpt>
<trkpt lat="46.22458247" lon="6.10761892"><ele>440.421265</ele><time>2009-08-22T15:05:59Z</time></trkpt>
<trkpt lat="46.22459186" lon="6.10761305"><ele>438.979126</ele><time>2009-08-22T15:06:00Z</time></trkpt>
<trkpt lat="46.22459505" lon="6.10760517"><ele>436.575928</ele><time>2009-08-22T15:06:01Z</time></trkpt>
<trkpt lat="46.22459957" lon="6.10760048"><ele>435.614502</ele><time>2009-08-22T15:06:02Z</time></trkpt>
<trkpt lat="46.22459966" lon="6.10759897"><ele>435.614502</ele><time>2009-08-22T15:06:03Z</time></trkpt>
<trkpt lat="46.22460016" lon="6.10759562"><ele>435.133911</ele><time>2009-08-22T15:06:04Z</time></trkpt>
<trkpt lat="46.22460343" lon="6.10759235"><ele>434.65332</ele><time>2009-08-22T15:06:05Z</time></trkpt>
<trkpt lat="46.22460117" lon="6.10759134"><ele>434.65332</ele><time>2009-08-22T15:06:06Z</time></trkpt>
<trkpt lat="46.22460653" lon="6.10759160"><ele>435.133911</ele><time>2009-08-22T15:06:07Z</time></trkpt>
<trkpt lat="46.22460955" lon="6.10758782"><ele>434.65332</ele><time>2009-08-22T15:06:08Z</time></trkpt>
<trkpt lat="46.22461198" lon="6.10757743"><ele>431.769165</ele><time>2009-08-22T15:06:09Z</time></trkpt>
<trkpt lat="46.22461475" lon="6.10757424"><ele>431.288574</ele><time>2009-08-22T15:06:10Z</time></trkpt>
<trkpt lat="46.22461659" lon="6.10757072"><ele>430.807983</ele><time>2009-08-22T15:06:11Z</time></trkpt>
<trkpt lat="46.22462044" lon="6.10756972"><ele>430.327271</ele><time>2009-08-22T15:06:12Z</time></trkpt>
<trkpt lat="46.22462262" lon="6.10756653"><ele>429.846558</ele><time>2009-08-22T15:06:13Z</time></trkpt>
<trkpt lat="46.22462539" lon="6.10756477"><ele>429.365967</ele><time>2009-08-22T15:06:14Z</time></trkpt>
<trkpt lat="46.22462623" lon="6.10756134"><ele>428.404663</ele><time>2009-08-22T15:06:15Z</time></trkpt>
<trkpt lat="46.22462866" lon="6.10755949"><ele>427.92395</ele><time>2009-08-22T15:06:16Z</time></trkpt>
<trkpt lat="46.22462958" lon="6.10755606"><ele>427.443359</ele><time>2009-08-22T15:06:17Z</time></trkpt>
<trkpt lat="46.22463142" lon="6.10755396"><ele>426.962769</ele><time>2009-08-22T15:06:18Z</time></trkpt>
<trkpt lat="46.22463193" lon="6.10755052"><ele>426.001343</ele><time>2009-08-22T15:06:19Z</time></trkpt>
<trkpt lat="46.22463377" lon="6.10754834"><ele>425.520752</ele><time>2009-08-22T15:06:20Z</time></trkpt>
<trkpt lat="46.22463419" lon="6.10754466"><ele>424.559448</ele><time>2009-08-22T15:06:21Z</time></trkpt>
<trkpt lat="46.22463545" lon="6.10754265"><ele>424.078735</ele><time>2009-08-22T15:06:22Z</time></trkpt>
<trkpt lat="46.22463763" lon="6.10754114"><ele>423.598022</ele><time>2009-08-22T15:06:23Z</time></trkpt>
<trkpt lat="46.22463939" lon="6.10753963"><ele>423.117432</ele><time>2009-08-22T15:06:24Z</time></trkpt>
<trkpt lat="46.22464157" lon="6.10754047"><ele>423.598022</ele><time>2009-08-22T15:06:25Z</time></trkpt>
<trkpt lat="46.22464366" lon="6.10754047"><ele>423.598022</ele><time>2009-08-22T15:06:26Z</time></trkpt>
<trkpt lat="46.22464609" lon="6.10754147"><ele>424.078735</ele><time>2009-08-22T15:06:27Z</time></trkpt>
<trkpt lat="46.22464827" lon="6.10754239"><ele>424.078735</ele><time>2009-08-22T15:06:28Z</time></trkpt>
<trkpt lat="46.22464953" lon="6.10753896"><ele>423.117432</ele><time>2009-08-22T15:06:29Z</time></trkpt>
<trkpt lat="46.22465079" lon="6.10754072"><ele>424.078735</ele><time>2009-08-22T15:06:30Z</time></trkpt>
<trkpt lat="46.22464903" lon="6.10753619"><ele>422.636719</ele><time>2009-08-22T15:06:31Z</time></trkpt>
<trkpt lat="46.22464400" lon="6.10753242"><ele>422.156006</ele><time>2009-08-22T15:06:32Z</time></trkpt>
<trkpt lat="46.22464232" lon="6.10752689"><ele>420.714111</ele><time>2009-08-22T15:06:33Z</time></trkpt>
<trkpt lat="46.22464182" lon="6.10752697"><ele>420.714111</ele><time>2009-08-22T15:06:34Z</time></trkpt>
<trkpt lat="46.22464215" lon="6.10752395"><ele>420.233398</ele><time>2009-08-22T15:06:35Z</time></trkpt>
<trkpt lat="46.22464207" lon="6.10752479"><ele>420.233398</ele><time>2009-08-22T15:06:36Z</time></trkpt>
<trkpt lat="46.22464274" lon="6.10752295"><ele>420.233398</ele><time>2009-08-22T15:06:37Z</time></trkpt>
<trkpt lat="46.22464266" lon="6.10752404"><ele>420.233398</ele><time>2009-08-22T15:06:38Z</time></trkpt>
<trkpt lat="46.22464978" lon="6.10751666"><ele>418.310791</ele><time>2009-08-22T15:06:39Z</time></trkpt>
<trkpt lat="46.22465473" lon="6.10751063"><ele>416.868896</ele><time>2009-08-22T15:06:40Z</time></trkpt>
<trkpt lat="46.22465984" lon="6.10750065"><ele>413.504272</ele><time>2009-08-22T15:06:41Z</time></trkpt>
<trkpt lat="46.22466269" lon="6.10749168"><ele>410.620239</ele><time>2009-08-22T15:06:42Z</time></trkpt>
<trkpt lat="46.22466629" lon="6.10748464"><ele>408.217041</ele><time>2009-08-22T15:06:43Z</time></trkpt>
<trkpt lat="46.22466839" lon="6.10747844"><ele>406.294312</ele><time>2009-08-22T15:06:44Z</time></trkpt>
<trkpt lat="46.22467082" lon="6.10747316"><ele>404.371704</ele><time>2009-08-22T15:06:45Z</time></trkpt>
<trkpt lat="46.22467216" lon="6.10746888"><ele>402.929688</ele><time>2009-08-22T15:06:46Z</time></trkpt>
<trkpt lat="46.22467308" lon="6.10746268"><ele>401.00708</ele><time>2009-08-22T15:06:47Z</time></trkpt>
<trkpt lat="46.22467367" lon="6.10745966"><ele>400.045898</ele><time>2009-08-22T15:06:48Z</time></trkpt>
<trkpt lat="46.22467442" lon="6.10745749"><ele>399.565063</ele><time>2009-08-22T15:06:49Z</time></trkpt>
<trkpt lat="46.22467476" lon="6.10745556"><ele>398.60376</ele><time>2009-08-22T15:06:50Z</time></trkpt>
<trkpt lat="46.22467585" lon="6.10745782"><ele>400.045898</ele><time>2009-08-22T15:06:51Z</time></trkpt>
<trkpt lat="46.22467719" lon="6.10745966"><ele>400.526489</ele><time>2009-08-22T15:06:52Z</time></trkpt>
<trkpt lat="46.22467786" lon="6.10745966"><ele>400.526489</ele><time>2009-08-22T15:06:53Z</time></trkpt>
<trkpt lat="46.22467870" lon="6.10746017"><ele>401.00708</ele><time>2009-08-22T15:06:54Z</time></trkpt>
<trkpt lat="46.22467912" lon="6.10746109"><ele>401.00708</ele><time>2009-08-22T15:06:55Z</time></trkpt>
<trkpt lat="46.22467929" lon="6.10746210"><ele>401.487793</ele><time>2009-08-22T15:06:56Z</time></trkpt>
<trkpt lat="46.22467954" lon="6.10746419"><ele>401.968506</ele><time>2009-08-22T15:06:57Z</time></trkpt>
<trkpt lat="46.22467945" lon="6.10746352"><ele>401.968506</ele><time>2009-08-22T15:06:58Z</time></trkpt>
<trkpt lat="46.22467929" lon="6.10746335"><ele>402.449097</ele><time>2009-08-22T15:06:59Z</time></trkpt>
<trkpt lat="46.22467887" lon="6.10746260"><ele>402.929688</ele><time>2009-08-22T15:07:00Z</time></trkpt>
<trkpt lat="46.22467803" lon="6.10746210"><ele>403.4104</ele><time>2009-08-22T15:07:01Z</time></trkpt>
<trkpt lat="46.22467736" lon="6.10746159"><ele>403.891113</ele><time>2009-08-22T15:07:02Z</time></trkpt>
<trkpt lat="46.22467644" lon="6.10746025"><ele>403.891113</ele><time>2009-08-22T15:07:03Z</time></trkpt>
<trkpt lat="46.22467543" lon="6.10745983"><ele>404.371704</ele><time>2009-08-22T15:07:04Z</time></trkpt>
<trkpt lat="46.22467484" lon="6.10746042"><ele>404.852295</ele><time>2009-08-22T15:07:05Z</time></trkpt>
<trkpt lat="46.22467442" lon="6.10746126"><ele>405.333008</ele><time>2009-08-22T15:07:06Z</time></trkpt>
<trkpt lat="46.22467417" lon="6.10746218"><ele>406.294312</ele><time>2009-08-22T15:07:07Z</time></trkpt>
<trkpt lat="46.22467384" lon="6.10746293"><ele>406.774902</ele><time>2009-08-22T15:07:08Z</time></trkpt>
<trkpt lat="46.22467342" lon="6.10746344"><ele>407.255615</ele><time>2009-08-22T15:07:09Z</time></trkpt>
<trkpt lat="46.22467325" lon="6.10746520"><ele>408.217041</ele><time>2009-08-22T15:07:10Z</time></trkpt>
<trkpt lat="46.22467275" lon="6.10746645"><ele>408.697632</ele><time>2009-08-22T15:07:11Z</time></trkpt>
<trkpt lat="46.22467283" lon="6.10745673"><ele>406.774902</ele><time>2009-08-22T15:07:12Z</time></trkpt>
<trkpt lat="46.22467375" lon="6.10745187"><ele>406.774902</ele><time>2009-08-22T15:07:13Z</time></trkpt>
<trkpt lat="46.22467417" lon="6.10744852"><ele>406.774902</ele><time>2009-08-22T15:07:14Z</time></trkpt>
<trkpt lat="46.22467459" lon="6.10744609"><ele>407.255615</ele><time>2009-08-22T15:07:15Z</time></trkpt>
<trkpt lat="46.22467426" lon="6.10744349"><ele>407.255615</ele><time>2009-08-22T15:07:16Z</time></trkpt>
<trkpt lat="46.22467317" lon="6.10744265"><ele>407.736328</ele><time>2009-08-22T15:07:17Z</time></trkpt>
<trkpt lat="46.22467208" lon="6.10744240"><ele>407.736328</ele><time>2009-08-22T15:07:18Z</time></trkpt>
<trkpt lat="46.22467116" lon="6.10744257"><ele>408.217041</ele><time>2009-08-22T15:07:19Z</time></trkpt>
<trkpt lat="46.22467032" lon="6.10744349"><ele>408.697632</ele><time>2009-08-22T15:07:20Z</time></trkpt>
<trkpt lat="46.22466914" lon="6.10744508"><ele>409.659058</ele><time>2009-08-22T15:07:21Z</time></trkpt>
<trkpt lat="46.22466940" lon="6.10744089"><ele>408.217041</ele><time>2009-08-22T15:07:22Z</time></trkpt>
<trkpt lat="46.22467048" lon="6.10743603"><ele>406.774902</ele><time>2009-08-22T15:07:23Z</time></trkpt>
<trkpt lat="46.22467107" lon="6.10743234"><ele>405.813721</ele><time>2009-08-22T15:07:24Z</time></trkpt>
<trkpt lat="46.22467224" lon="6.10742798"><ele>404.852295</ele><time>2009-08-22T15:07:25Z</time></trkpt>
<trkpt lat="46.22467426" lon="6.10742245"><ele>403.4104</ele><time>2009-08-22T15:07:26Z</time></trkpt>
<trkpt lat="46.22467635" lon="6.10741683"><ele>401.487793</ele><time>2009-08-22T15:07:27Z</time></trkpt>
<trkpt lat="46.22467828" lon="6.10741055"><ele>400.045898</ele><time>2009-08-22T15:07:28Z</time></trkpt>
<trkpt lat="46.22468029" lon="6.10740527"><ele>398.123169</ele><time>2009-08-22T15:07:29Z</time></trkpt>
<trkpt lat="46.22468214" lon="6.10740376"><ele>398.123169</ele><time>2009-08-22T15:07:30Z</time></trkpt>
<trkpt lat="46.22468415" lon="6.10740275"><ele>398.123169</ele><time>2009-08-22T15:07:31Z</time></trkpt>
<trkpt lat="46.22468809" lon="6.10740258"><ele>397.642456</ele><time>2009-08-22T15:07:32Z</time></trkpt>
<trkpt lat="46.22469194" lon="6.10740887"><ele>399.084351</ele><time>2009-08-22T15:07:33Z</time></trkpt>
<trkpt lat="46.22469597" lon="6.10741273"><ele>399.565063</ele><time>2009-08-22T15:07:34Z</time></trkpt>
<trkpt lat="46.22469555" lon="6.10741457"><ele>400.526489</ele><time>2009-08-22T15:07:35Z</time></trkpt>
<trkpt lat="46.22469320" lon="6.10741407"><ele>401.00708</ele><time>2009-08-22T15:07:36Z</time></trkpt>
<trkpt lat="46.22469027" lon="6.10741197"><ele>401.487793</ele><time>2009-08-22T15:07:37Z</time></trkpt>
<trkpt lat="46.22468733" lon="6.10740937"><ele>401.487793</ele><time>2009-08-22T15:07:38Z</time></trkpt>
<trkpt lat="46.22468415" lon="6.10740627"><ele>401.487793</ele><time>2009-08-22T15:07:39Z</time></trkpt>
<trkpt lat="46.22468172" lon="6.10740334"><ele>401.487793</ele><time>2009-08-22T15:07:40Z</time></trkpt>
<trkpt lat="46.22468046" lon="6.10740074"><ele>401.487793</ele><time>2009-08-22T15:07:41Z</time></trkpt>
<trkpt lat="46.22467937" lon="6.10739822"><ele>401.00708</ele><time>2009-08-22T15:07:42Z</time></trkpt>
<trkpt lat="46.22467794" lon="6.10739529"><ele>401.00708</ele><time>2009-08-22T15:07:43Z</time></trkpt>
<trkpt lat="46.22467618" lon="6.10739135"><ele>400.526489</ele><time>2009-08-22T15:07:44Z</time></trkpt>
<trkpt lat="46.22467442" lon="6.10738708"><ele>400.045898</ele><time>2009-08-22T15:07:45Z</time></trkpt>
<trkpt lat="46.22467157" lon="6.10738305"><ele>399.565063</ele><time>2009-08-22T15:07:46Z</time></trkpt>
<trkpt lat="46.22466889" lon="6.10737928"><ele>399.084351</ele><time>2009-08-22T15:07:47Z</time></trkpt>
<trkpt lat="46.22466604" lon="6.10737610"><ele>398.60376</ele><time>2009-08-22T15:07:48Z</time></trkpt>
<trkpt lat="46.22466344" lon="6.10737333"><ele>398.123169</ele><time>2009-08-22T15:07:49Z</time></trkpt>
<trkpt lat="46.22466135" lon="6.10737124"><ele>398.123169</ele><time>2009-08-22T15:07:50Z</time></trkpt>
<trkpt lat="46.22465967" lon="6.10736948"><ele>398.123169</ele><time>2009-08-22T15:07:51Z</time></trkpt>
<trkpt lat="46.22465867" lon="6.10736763"><ele>397.642456</ele><time>2009-08-22T15:07:52Z</time></trkpt>
<trkpt lat="46.22465825" lon="6.10736528"><ele>397.642456</ele><time>2009-08-22T15:07:53Z</time></trkpt>
<trkpt lat="46.22465783" lon="6.10736227"><ele>397.161743</ele><time>2009-08-22T15:07:54Z</time></trkpt>
<trkpt lat="46.22465515" lon="6.10735715"><ele>395.719849</ele><time>2009-08-22T15:07:55Z</time></trkpt>
<trkpt lat="46.22465037" lon="6.10735590"><ele>396.200562</ele><time>2009-08-22T15:07:56Z</time></trkpt>
<trkpt lat="46.22465012" lon="6.10735774"><ele>396.681152</ele><time>2009-08-22T15:07:57Z</time></trkpt>
<trkpt lat="46.22464735" lon="6.10735942"><ele>397.642456</ele><time>2009-08-22T15:07:58Z</time></trkpt>
<trkpt lat="46.22465255" lon="6.10735824"><ele>397.161743</ele><time>2009-08-22T15:07:59Z</time></trkpt>
<trkpt lat="46.22465540" lon="6.10735673"><ele>396.200562</ele><time>2009-08-22T15:08:00Z</time></trkpt>
<trkpt lat="46.22465515" lon="6.10735464"><ele>395.719849</ele><time>2009-08-22T15:08:01Z</time></trkpt>
<trkpt lat="46.22465657" lon="6.10734902"><ele>394.277954</ele><time>2009-08-22T15:08:02Z</time></trkpt>
<trkpt lat="46.22465959" lon="6.10735296"><ele>395.239136</ele><time>2009-08-22T15:08:03Z</time></trkpt>
<trkpt lat="46.22466789" lon="6.10735053"><ele>393.316528</ele><time>2009-08-22T15:08:04Z</time></trkpt>
<trkpt lat="46.22467183" lon="6.10735162"><ele>392.355347</ele><time>2009-08-22T15:08:05Z</time></trkpt>
<trkpt lat="46.22467585" lon="6.10735003"><ele>390.432617</ele><time>2009-08-22T15:08:06Z</time></trkpt>
<trkpt lat="46.22467753" lon="6.10735053"><ele>390.432617</ele><time>2009-08-22T15:08:07Z</time></trkpt>
<trkpt lat="46.22468096" lon="6.10735196"><ele>389.951904</ele><time>2009-08-22T15:08:08Z</time></trkpt>
<trkpt lat="46.22468063" lon="6.10735388"><ele>390.432617</ele><time>2009-08-22T15:08:09Z</time></trkpt>
<trkpt lat="46.22467560" lon="6.10735388"><ele>389.951904</ele><time>2009-08-22T15:08:10Z</time></trkpt>
<trkpt lat="46.22466889" lon="6.10735523"><ele>389.951904</ele><time>2009-08-22T15:08:11Z</time></trkpt>
<trkpt lat="46.22466713" lon="6.10735640"><ele>389.951904</ele><time>2009-08-22T15:08:12Z</time></trkpt>
<trkpt lat="46.22466043" lon="6.10735699"><ele>389.951904</ele><time>2009-08-22T15:08:13Z</time></trkpt>
<trkpt lat="46.22465615" lon="6.10735824"><ele>389.951904</ele><time>2009-08-22T15:08:14Z</time></trkpt>
<trkpt lat="46.22465246" lon="6.10735942"><ele>389.951904</ele><time>2009-08-22T15:08:15Z</time></trkpt>
<trkpt lat="46.22464945" lon="6.10736118"><ele>390.432617</ele><time>2009-08-22T15:08:16Z</time></trkpt>
<trkpt lat="46.22464584" lon="6.10736646"><ele>391.393799</ele><time>2009-08-22T15:08:17Z</time></trkpt>
<trkpt lat="46.22463964" lon="6.10737023"><ele>390.913208</ele><time>2009-08-22T15:08:18Z</time></trkpt>
<trkpt lat="46.22463746" lon="6.10737727"><ele>391.393799</ele><time>2009-08-22T15:08:19Z</time></trkpt>
<trkpt lat="46.22463729" lon="6.10738356"><ele>391.874512</ele><time>2009-08-22T15:08:20Z</time></trkpt>
<trkpt lat="46.22462858" lon="6.10739848"><ele>392.355347</ele><time>2009-08-22T15:08:21Z</time></trkpt>
<trkpt lat="46.22461332" lon="6.10741817"><ele>392.835938</ele><time>2009-08-22T15:08:22Z</time></trkpt>
<trkpt lat="46.22459823" lon="6.10744407"><ele>395.239136</ele><time>2009-08-22T15:08:23Z</time></trkpt>
<trkpt lat="46.22457795" lon="6.10747559"><ele>396.200562</ele><time>2009-08-22T15:08:24Z</time></trkpt>
<trkpt lat="46.22455624" lon="6.10750602"><ele>398.123169</ele><time>2009-08-22T15:08:25Z</time></trkpt>
<trkpt lat="46.22453336" lon="6.10754348"><ele>399.565063</ele><time>2009-08-22T15:08:26Z</time></trkpt>
<trkpt lat="46.22451173" lon="6.10761565"><ele>403.4104</ele><time>2009-08-22T15:08:27Z</time></trkpt>
<trkpt lat="46.22448566" lon="6.10768455"><ele>405.813721</ele><time>2009-08-22T15:08:28Z</time></trkpt>
<trkpt lat="46.22446756" lon="6.10775270"><ele>406.774902</ele><time>2009-08-22T15:08:29Z</time></trkpt>
<trkpt lat="46.22443956" lon="6.10781573"><ele>408.697632</ele><time>2009-08-22T15:08:30Z</time></trkpt>
<trkpt lat="46.22440302" lon="6.10786853"><ele>409.178345</ele><time>2009-08-22T15:08:31Z</time></trkpt>
<trkpt lat="46.22436530" lon="6.10792000"><ele>410.139648</ele><time>2009-08-22T15:08:32Z</time></trkpt>
<trkpt lat="46.22432976" lon="6.10797306"><ele>411.100952</ele><time>2009-08-22T15:08:33Z</time></trkpt>
<trkpt lat="46.22429539" lon="6.10802737"><ele>412.062256</ele><time>2009-08-22T15:08:34Z</time></trkpt>
<trkpt lat="46.22425868" lon="6.10807800"><ele>412.542847</ele><time>2009-08-22T15:08:35Z</time></trkpt>
<trkpt lat="46.22422147" lon="6.10812175"><ele>413.02356</ele><time>2009-08-22T15:08:36Z</time></trkpt>
<trkpt lat="46.22418827" lon="6.10816148"><ele>413.504272</ele><time>2009-08-22T15:08:37Z</time></trkpt>
<trkpt lat="46.22415902" lon="6.10820842"><ele>414.946167</ele><time>2009-08-22T15:08:38Z</time></trkpt>
<trkpt lat="46.22413178" lon="6.10824622"><ele>416.868896</ele><time>2009-08-22T15:08:39Z</time></trkpt>
<trkpt lat="46.22411108" lon="6.10827933"><ele>417.8302</ele><time>2009-08-22T15:08:40Z</time></trkpt>
<trkpt lat="46.22408995" lon="6.10831303"><ele>419.272217</ele><time>2009-08-22T15:08:41Z</time></trkpt>
<trkpt lat="46.22407218" lon="6.10834488"><ele>420.233398</ele><time>2009-08-22T15:08:42Z</time></trkpt>
<trkpt lat="46.22405282" lon="6.10837405"><ele>421.675415</ele><time>2009-08-22T15:08:43Z</time></trkpt>
<trkpt lat="46.22403547" lon="6.10839693"><ele>422.636719</ele><time>2009-08-22T15:08:44Z</time></trkpt>
<trkpt lat="46.22402022" lon="6.10841797"><ele>423.598022</ele><time>2009-08-22T15:08:45Z</time></trkpt>
<trkpt lat="46.22401049" lon="6.10843146"><ele>424.559448</ele><time>2009-08-22T15:08:46Z</time></trkpt>
<trkpt lat="46.22400748" lon="6.10843616"><ele>425.040161</ele><time>2009-08-22T15:08:47Z</time></trkpt>
<trkpt lat="46.22400907" lon="6.10843649"><ele>425.520752</ele><time>2009-08-22T15:08:48Z</time></trkpt>
<trkpt lat="46.22400840" lon="6.10843892"><ele>425.520752</ele><time>2009-08-22T15:08:49Z</time></trkpt>
<trkpt lat="46.22400580" lon="6.10844202"><ele>426.001343</ele><time>2009-08-22T15:08:50Z</time></trkpt>
<trkpt lat="46.22400530" lon="6.10844370"><ele>426.962769</ele><time>2009-08-22T15:08:51Z</time></trkpt>
<trkpt lat="46.22400614" lon="6.10844244"><ele>426.962769</ele><time>2009-08-22T15:08:52Z</time></trkpt>
<trkpt lat="46.22400672" lon="6.10844135"><ele>427.443359</ele><time>2009-08-22T15:08:53Z</time></trkpt>
<trkpt lat="46.22400622" lon="6.10844169"><ele>427.92395</ele><time>2009-08-22T15:08:54Z</time></trkpt>
<trkpt lat="46.22400655" lon="6.10844219"><ele>428.404663</ele><time>2009-08-22T15:08:55Z</time></trkpt>
<trkpt lat="46.22400639" lon="6.10844328"><ele>428.885376</ele><time>2009-08-22T15:08:56Z</time></trkpt>
<trkpt lat="46.22400588" lon="6.10844370"><ele>429.365967</ele><time>2009-08-22T15:08:57Z</time></trkpt>
<trkpt lat="46.22400597" lon="6.10844278"><ele>429.846558</ele><time>2009-08-22T15:08:58Z</time></trkpt>
<trkpt lat="46.22400597" lon="6.10844169"><ele>430.327271</ele><time>2009-08-22T15:08:59Z</time></trkpt>
<trkpt lat="46.22400614" lon="6.10844068"><ele>430.327271</ele><time>2009-08-22T15:09:00Z</time></trkpt>
<trkpt lat="46.22400622" lon="6.10843984"><ele>430.807983</ele><time>2009-08-22T15:09:01Z</time></trkpt>
<trkpt lat="46.22400563" lon="6.10843775"><ele>430.807983</ele><time>2009-08-22T15:09:02Z</time></trkpt>
<trkpt lat="46.22400362" lon="6.10843582"><ele>430.807983</ele><time>2009-08-22T15:09:03Z</time></trkpt>
<trkpt lat="46.22400220" lon="6.10843448"><ele>430.807983</ele><time>2009-08-22T15:09:04Z</time></trkpt>
<trkpt lat="46.22400236" lon="6.10843322"><ele>431.288574</ele><time>2009-08-22T15:09:05Z</time></trkpt>
<trkpt lat="46.22400236" lon="6.10843247"><ele>431.288574</ele><time>2009-08-22T15:09:06Z</time></trkpt>
<trkpt lat="46.22400236" lon="6.10843163"><ele>431.288574</ele><time>2009-08-22T15:09:07Z</time></trkpt>
<trkpt lat="46.22400228" lon="6.10843104"><ele>431.769165</ele><time>2009-08-22T15:09:08Z</time></trkpt>
<trkpt lat="46.22400220" lon="6.10843104"><ele>431.769165</ele><time>2009-08-22T15:09:09Z</time></trkpt>
<trkpt lat="46.22400194" lon="6.10843113"><ele>432.25</ele><time>2009-08-22T15:09:10Z</time></trkpt>
<trkpt lat="46.22400253" lon="6.10843029"><ele>432.25</ele><time>2009-08-22T15:09:11Z</time></trkpt>
<trkpt lat="46.22400236" lon="6.10842928"><ele>432.25</ele><time>2009-08-22T15:09:12Z</time></trkpt>
<trkpt lat="46.22400127" lon="6.10843029"><ele>432.25</ele><time>2009-08-22T15:09:13Z</time></trkpt>
<trkpt lat="46.22400295" lon="6.10842853"><ele>432.25</ele><time>2009-08-22T15:09:14Z</time></trkpt>
<trkpt lat="46.22400454" lon="6.10842685"><ele>432.25</ele><time>2009-08-22T15:09:15Z</time></trkpt>
<trkpt lat="46.22400396" lon="6.10842627"><ele>432.730713</ele><time>2009-08-22T15:09:16Z</time></trkpt>
<trkpt lat="46.22400329" lon="6.10842618"><ele>432.730713</ele><time>2009-08-22T15:09:17Z</time></trkpt>
<trkpt lat="46.22400345" lon="6.10842786"><ele>432.730713</ele><time>2009-08-22T15:09:18Z</time></trkpt>
<trkpt lat="46.22400429" lon="6.10843037"><ele>432.730713</ele><time>2009-08-22T15:09:19Z</time></trkpt>
<trkpt lat="46.22400488" lon="6.10843104"><ele>432.730713</ele><time>2009-08-22T15:09:20Z</time></trkpt>
<trkpt lat="46.22400538" lon="6.10843213"><ele>432.25</ele><time>2009-08-22T15:09:21Z</time></trkpt>
<trkpt lat="46.22400563" lon="6.10843322"><ele>432.25</ele><time>2009-08-22T15:09:22Z</time></trkpt>
<trkpt lat="46.22400588" lon="6.10843440"><ele>432.25</ele><time>2009-08-22T15:09:23Z</time></trkpt>
<trkpt lat="46.22400563" lon="6.10843565"><ele>432.25</ele><time>2009-08-22T15:09:24Z</time></trkpt>
<trkpt lat="46.22400312" lon="6.10844018"><ele>432.25</ele><time>2009-08-22T15:09:25Z</time></trkpt>
<trkpt lat="46.22399515" lon="6.10844823"><ele>432.25</ele><time>2009-08-22T15:09:26Z</time></trkpt>
<trkpt lat="46.22398627" lon="6.10845770"><ele>431.769165</ele><time>2009-08-22T15:09:27Z</time></trkpt>
<trkpt lat="46.22397428" lon="6.10846943"><ele>431.769165</ele><time>2009-08-22T15:09:28Z</time></trkpt>
<trkpt lat="46.22395987" lon="6.10848553"><ele>431.769165</ele><time>2009-08-22T15:09:29Z</time></trkpt>
<trkpt lat="46.22394394" lon="6.10850522"><ele>432.25</ele><time>2009-08-22T15:09:30Z</time></trkpt>
<trkpt lat="46.22392408" lon="6.10852987"><ele>432.730713</ele><time>2009-08-22T15:09:31Z</time></trkpt>
<trkpt lat="46.22390287" lon="6.10855526"><ele>433.211304</ele><time>2009-08-22T15:09:32Z</time></trkpt>
<trkpt lat="46.22387798" lon="6.10858066"><ele>434.172607</ele><time>2009-08-22T15:09:33Z</time></trkpt>
<trkpt lat="46.22384763" lon="6.10860983"><ele>435.133911</ele><time>2009-08-22T15:09:34Z</time></trkpt>
<trkpt lat="46.22381905" lon="6.10864487"><ele>436.575928</ele><time>2009-08-22T15:09:35Z</time></trkpt>
<trkpt lat="46.22378418" lon="6.10867772"><ele>437.537109</ele><time>2009-08-22T15:09:36Z</time></trkpt>
<trkpt lat="46.22376155" lon="6.10871452"><ele>438.498535</ele><time>2009-08-22T15:09:37Z</time></trkpt>
<trkpt lat="46.22373029" lon="6.10875115"><ele>438.979126</ele><time>2009-08-22T15:09:38Z</time></trkpt>
<trkpt lat="46.22369936" lon="6.10879046"><ele>439.459717</ele><time>2009-08-22T15:09:39Z</time></trkpt>
<trkpt lat="46.22366566" lon="6.10882952"><ele>439.94043</ele><time>2009-08-22T15:09:40Z</time></trkpt>
<trkpt lat="46.22364102" lon="6.10887730"><ele>440.421265</ele><time>2009-08-22T15:09:41Z</time></trkpt>
<trkpt lat="46.22361696" lon="6.10892373"><ele>441.863159</ele><time>2009-08-22T15:09:42Z</time></trkpt>
<trkpt lat="46.22359467" lon="6.10896723"><ele>442.343872</ele><time>2009-08-22T15:09:43Z</time></trkpt>
<trkpt lat="46.22356466" lon="6.10900378"><ele>443.305054</ele><time>2009-08-22T15:09:44Z</time></trkpt>
<trkpt lat="46.22353524" lon="6.10903806"><ele>443.785767</ele><time>2009-08-22T15:09:45Z</time></trkpt>
<trkpt lat="46.22351529" lon="6.10907637"><ele>444.266479</ele><time>2009-08-22T15:09:46Z</time></trkpt>
<trkpt lat="46.22349123" lon="6.10911056"><ele>444.266479</ele><time>2009-08-22T15:09:47Z</time></trkpt>
<trkpt lat="46.22345997" lon="6.10914334"><ele>444.266479</ele><time>2009-08-22T15:09:48Z</time></trkpt>
<trkpt lat="46.22343323" lon="6.10917913"><ele>444.266479</ele><time>2009-08-22T15:09:49Z</time></trkpt>
<trkpt lat="46.22340943" lon="6.10921986"><ele>445.227661</ele><time>2009-08-22T15:09:50Z</time></trkpt>
<trkpt lat="46.22337992" lon="6.10925205"><ele>445.708374</ele><time>2009-08-22T15:09:51Z</time></trkpt>
<trkpt lat="46.22334572" lon="6.10927393"><ele>445.227661</ele><time>2009-08-22T15:09:52Z</time></trkpt>
<trkpt lat="46.22331932" lon="6.10927979"><ele>445.227661</ele><time>2009-08-22T15:09:53Z</time></trkpt>
<trkpt lat="46.22330113" lon="6.10927074"><ele>445.227661</ele><time>2009-08-22T15:09:54Z</time></trkpt>
<trkpt lat="46.22328244" lon="6.10924987"><ele>444.74707</ele><time>2009-08-22T15:09:55Z</time></trkpt>
<trkpt lat="46.22327155" lon="6.10923185"><ele>444.74707</ele><time>2009-08-22T15:09:56Z</time></trkpt>
<trkpt lat="46.22325646" lon="6.10921785"><ele>444.266479</ele><time>2009-08-22T15:09:57Z</time></trkpt>
<trkpt lat="46.22324715" lon="6.10921266"><ele>444.266479</ele><time>2009-08-22T15:09:58Z</time></trkpt>
<trkpt lat="46.22324145" lon="6.10921525"><ele>445.227661</ele><time>2009-08-22T15:09:59Z</time></trkpt>
<trkpt lat="46.22324045" lon="6.10922204"><ele>445.708374</ele><time>2009-08-22T15:10:00Z</time></trkpt>
<trkpt lat="46.22323056" lon="6.10922129"><ele>446.669678</ele><time>2009-08-22T15:10:01Z</time></trkpt>
<trkpt lat="46.22322427" lon="6.10922607"><ele>447.630981</ele><time>2009-08-22T15:10:02Z</time></trkpt>
<trkpt lat="46.22322452" lon="6.10922758"><ele>447.150269</ele><time>2009-08-22T15:10:03Z</time></trkpt>
<trkpt lat="46.22321765" lon="6.10922020"><ele>447.630981</ele><time>2009-08-22T15:10:04Z</time></trkpt>
<trkpt lat="46.22319787" lon="6.10921056"><ele>447.150269</ele><time>2009-08-22T15:10:05Z</time></trkpt>
<trkpt lat="46.22317440" lon="6.10921115"><ele>447.630981</ele><time>2009-08-22T15:10:06Z</time></trkpt>
<trkpt lat="46.22314355" lon="6.10922305"><ele>447.630981</ele><time>2009-08-22T15:10:07Z</time></trkpt>
<trkpt lat="46.22311539" lon="6.10924375"><ele>449.072998</ele><time>2009-08-22T15:10:08Z</time></trkpt>
<trkpt lat="46.22309108" lon="6.10924610"><ele>450.034424</ele><time>2009-08-22T15:10:09Z</time></trkpt>
<trkpt lat="46.22307885" lon="6.10923168"><ele>450.995605</ele><time>2009-08-22T15:10:10Z</time></trkpt>
<trkpt lat="46.22307583" lon="6.10920000"><ele>452.437622</ele><time>2009-08-22T15:10:11Z</time></trkpt>
<trkpt lat="46.22307348" lon="6.10916027"><ele>453.398926</ele><time>2009-08-22T15:10:12Z</time></trkpt>
<trkpt lat="46.22305864" lon="6.10912448"><ele>454.360229</ele><time>2009-08-22T15:10:13Z</time></trkpt>
<trkpt lat="46.22304347" lon="6.10908726"><ele>454.84082</ele><time>2009-08-22T15:10:14Z</time></trkpt>
<trkpt lat="46.22302713" lon="6.10904988"><ele>455.802246</ele><time>2009-08-22T15:10:15Z</time></trkpt>
<trkpt lat="46.22302084" lon="6.10903144"><ele>456.282959</ele><time>2009-08-22T15:10:16Z</time></trkpt>
<trkpt lat="46.22301162" lon="6.10901333"><ele>456.76355</ele><time>2009-08-22T15:10:17Z</time></trkpt>
<trkpt lat="46.22299679" lon="6.10899674"><ele>457.244263</ele><time>2009-08-22T15:10:18Z</time></trkpt>
<trkpt lat="46.22296636" lon="6.10897796"><ele>457.724976</ele><time>2009-08-22T15:10:19Z</time></trkpt>
<trkpt lat="46.22293786" lon="6.10894552"><ele>457.244263</ele><time>2009-08-22T15:10:20Z</time></trkpt>
<trkpt lat="46.22291313" lon="6.10891703"><ele>457.724976</ele><time>2009-08-22T15:10:21Z</time></trkpt>
<trkpt lat="46.22288774" lon="6.10889205"><ele>458.686157</ele><time>2009-08-22T15:10:22Z</time></trkpt>
<trkpt lat="46.22286418" lon="6.10887109"><ele>459.647583</ele><time>2009-08-22T15:10:23Z</time></trkpt>
<trkpt lat="46.22283694" lon="6.10885198"><ele>459.647583</ele><time>2009-08-22T15:10:24Z</time></trkpt>
<trkpt lat="46.22281884" lon="6.10882767"><ele>461.089478</ele><time>2009-08-22T15:10:25Z</time></trkpt>
<trkpt lat="46.22281062" lon="6.10880219"><ele>463.012085</ele><time>2009-08-22T15:10:26Z</time></trkpt>
<trkpt lat="46.22280157" lon="6.10878124"><ele>463.012085</ele><time>2009-08-22T15:10:27Z</time></trkpt>
<trkpt lat="46.22278858" lon="6.10875400"><ele>463.973389</ele><time>2009-08-22T15:10:28Z</time></trkpt>
<trkpt lat="46.22277299" lon="6.10873723"><ele>463.973389</ele><time>2009-08-22T15:10:29Z</time></trkpt>
<trkpt lat="46.22275187" lon="6.10871670"><ele>464.454102</ele><time>2009-08-22T15:10:30Z</time></trkpt>
<trkpt lat="46.22272873" lon="6.10868535"><ele>463.973389</ele><time>2009-08-22T15:10:31Z</time></trkpt>
<trkpt lat="46.22269722" lon="6.10864897"><ele>463.012085</ele><time>2009-08-22T15:10:32Z</time></trkpt>
<trkpt lat="46.22266696" lon="6.10860958"><ele>462.050781</ele><time>2009-08-22T15:10:33Z</time></trkpt>
<trkpt lat="46.22264265" lon="6.10856968"><ele>460.128174</ele><time>2009-08-22T15:10:34Z</time></trkpt>
<trkpt lat="46.22261885" lon="6.10852660"><ele>458.686157</ele><time>2009-08-22T15:10:35Z</time></trkpt>
<trkpt lat="46.22259244" lon="6.10848175"><ele>458.205566</ele><time>2009-08-22T15:10:36Z</time></trkpt>
<trkpt lat="46.22256403" lon="6.10843792"><ele>457.244263</ele><time>2009-08-22T15:10:37Z</time></trkpt>
<trkpt lat="46.22253352" lon="6.10839684"><ele>456.76355</ele><time>2009-08-22T15:10:38Z</time></trkpt>
<trkpt lat="46.22250594" lon="6.10835695"><ele>455.802246</ele><time>2009-08-22T15:10:39Z</time></trkpt>
<trkpt lat="46.22248298" lon="6.10831579"><ele>455.321533</ele><time>2009-08-22T15:10:40Z</time></trkpt>
<trkpt lat="46.22246194" lon="6.10827304"><ele>454.84082</ele><time>2009-08-22T15:10:41Z</time></trkpt>
<trkpt lat="46.22244350" lon="6.10822862"><ele>453.879639</ele><time>2009-08-22T15:10:42Z</time></trkpt>
<trkpt lat="46.22243394" lon="6.10817213"><ele>453.398926</ele><time>2009-08-22T15:10:43Z</time></trkpt>
<trkpt lat="46.22243553" lon="6.10811236"><ele>453.398926</ele><time>2009-08-22T15:10:44Z</time></trkpt>
<trkpt lat="46.22243813" lon="6.10806643"><ele>451.957031</ele><time>2009-08-22T15:10:45Z</time></trkpt>
<trkpt lat="46.22245733" lon="6.10803190"><ele>450.515015</ele><time>2009-08-22T15:10:46Z</time></trkpt>
<trkpt lat="46.22248189" lon="6.10799166"><ele>449.553711</ele><time>2009-08-22T15:10:47Z</time></trkpt>
<trkpt lat="46.22250410" lon="6.10795017"><ele>448.111816</ele><time>2009-08-22T15:10:48Z</time></trkpt>
<trkpt lat="46.22252455" lon="6.10791053"><ele>447.630981</ele><time>2009-08-22T15:10:49Z</time></trkpt>
<trkpt lat="46.22253830" lon="6.10786778"><ele>446.189087</ele><time>2009-08-22T15:10:50Z</time></trkpt>
<trkpt lat="46.22254349" lon="6.10781967"><ele>444.74707</ele><time>2009-08-22T15:10:51Z</time></trkpt>
<trkpt lat="46.22254525" lon="6.10777306"><ele>444.266479</ele><time>2009-08-22T15:10:52Z</time></trkpt>
<trkpt lat="46.22253972" lon="6.10772730"><ele>443.305054</ele><time>2009-08-22T15:10:53Z</time></trkpt>
<trkpt lat="46.22253696" lon="6.10767659"><ele>442.343872</ele><time>2009-08-22T15:10:54Z</time></trkpt>
<trkpt lat="46.22254098" lon="6.10762395"><ele>441.863159</ele><time>2009-08-22T15:10:55Z</time></trkpt>
<trkpt lat="46.22255288" lon="6.10756905"><ele>440.901855</ele><time>2009-08-22T15:10:56Z</time></trkpt>
<trkpt lat="46.22256629" lon="6.10751549"><ele>439.94043</ele><time>2009-08-22T15:10:57Z</time></trkpt>
<trkpt lat="46.22258079" lon="6.10745975"><ele>438.498535</ele><time>2009-08-22T15:10:58Z</time></trkpt>
<trkpt lat="46.22258993" lon="6.10739437"><ele>437.537109</ele><time>2009-08-22T15:10:59Z</time></trkpt>
<trkpt lat="46.22259144" lon="6.10732245"><ele>437.056519</ele><time>2009-08-22T15:11:00Z</time></trkpt>
<trkpt lat="46.22258775" lon="6.10725213"><ele>436.575928</ele><time>2009-08-22T15:11:01Z</time></trkpt>
<trkpt lat="46.22258088" lon="6.10718558"><ele>436.575928</ele><time>2009-08-22T15:11:02Z</time></trkpt>
<trkpt lat="46.22257015" lon="6.10712053"><ele>436.095215</ele><time>2009-08-22T15:11:03Z</time></trkpt>
<trkpt lat="46.22255674" lon="6.10706018"><ele>435.614502</ele><time>2009-08-22T15:11:04Z</time></trkpt>
<trkpt lat="46.22253788" lon="6.10700218"><ele>435.133911</ele><time>2009-08-22T15:11:05Z</time></trkpt>
<trkpt lat="46.22251256" lon="6.10695004"><ele>435.133911</ele><time>2009-08-22T15:11:06Z</time></trkpt>
<trkpt lat="46.22247912" lon="6.10691199"><ele>434.65332</ele><time>2009-08-22T15:11:07Z</time></trkpt>
<trkpt lat="46.22243746" lon="6.10689137"><ele>434.172607</ele><time>2009-08-22T15:11:08Z</time></trkpt>
<trkpt lat="46.22238952" lon="6.10689162"><ele>434.172607</ele><time>2009-08-22T15:11:09Z</time></trkpt>
<trkpt lat="46.22234216" lon="6.10691878"><ele>434.172607</ele><time>2009-08-22T15:11:10Z</time></trkpt>
<trkpt lat="46.22229053" lon="6.10695147"><ele>433.691895</ele><time>2009-08-22T15:11:11Z</time></trkpt>
<trkpt lat="46.22224342" lon="6.10699422"><ele>433.691895</ele><time>2009-08-22T15:11:12Z</time></trkpt>
<trkpt lat="46.22219489" lon="6.10704493"><ele>434.172607</ele><time>2009-08-22T15:11:13Z</time></trkpt>
<trkpt lat="46.22214636" lon="6.10710310"><ele>434.172607</ele><time>2009-08-22T15:11:14Z</time></trkpt>
<trkpt lat="46.22209112" lon="6.10715146"><ele>435.614502</ele><time>2009-08-22T15:11:15Z</time></trkpt>
<trkpt lat="46.22205885" lon="6.10719304"><ele>436.575928</ele><time>2009-08-22T15:11:16Z</time></trkpt>
<trkpt lat="46.22202742" lon="6.10721315"><ele>437.056519</ele><time>2009-08-22T15:11:17Z</time></trkpt>
<trkpt lat="46.22201158" lon="6.10721592"><ele>438.979126</ele><time>2009-08-22T15:11:18Z</time></trkpt>
<trkpt lat="46.22199607" lon="6.10723134"><ele>440.901855</ele><time>2009-08-22T15:11:19Z</time></trkpt>
<trkpt lat="46.22198786" lon="6.10726713"><ele>441.863159</ele><time>2009-08-22T15:11:20Z</time></trkpt>
<trkpt lat="46.22201904" lon="6.10732296"><ele>441.863159</ele><time>2009-08-22T15:11:21Z</time></trkpt>
<trkpt lat="46.22201409" lon="6.10738272"><ele>441.863159</ele><time>2009-08-22T15:11:22Z</time></trkpt>
<trkpt lat="46.22203974" lon="6.10740233"><ele>440.901855</ele><time>2009-08-22T15:11:23Z</time></trkpt>
<trkpt lat="46.22205106" lon="6.10743552"><ele>440.421265</ele><time>2009-08-22T15:11:24Z</time></trkpt>
<trkpt lat="46.22206715" lon="6.10744458"><ele>439.459717</ele><time>2009-08-22T15:11:25Z</time></trkpt>
<trkpt lat="46.22209422" lon="6.10745547"><ele>438.979126</ele><time>2009-08-22T15:11:26Z</time></trkpt>
<trkpt lat="46.22211459" lon="6.10747224"><ele>436.575928</ele><time>2009-08-22T15:11:27Z</time></trkpt>
<trkpt lat="46.22213337" lon="6.10747417"><ele>435.614502</ele><time>2009-08-22T15:11:28Z</time></trkpt>
<trkpt lat="46.22215047" lon="6.10747777"><ele>433.691895</ele><time>2009-08-22T15:11:29Z</time></trkpt>
<trkpt lat="46.22217184" lon="6.10745103"><ele>431.288574</ele><time>2009-08-22T15:11:30Z</time></trkpt>
<trkpt lat="46.22218668" lon="6.10743728"><ele>429.365967</ele><time>2009-08-22T15:11:31Z</time></trkpt>
<trkpt lat="46.22220009" lon="6.10741155"><ele>426.962769</ele><time>2009-08-22T15:11:32Z</time></trkpt>
<trkpt lat="46.22220604" lon="6.10740015"><ele>425.520752</ele><time>2009-08-22T15:11:33Z</time></trkpt>
<trkpt lat="46.22222515" lon="6.10739579"><ele>425.040161</ele><time>2009-08-22T15:11:34Z</time></trkpt>
<trkpt lat="46.22223856" lon="6.10738565"><ele>424.078735</ele><time>2009-08-22T15:11:35Z</time></trkpt>
<trkpt lat="46.22225256" lon="6.10736948"><ele>422.156006</ele><time>2009-08-22T15:11:36Z</time></trkpt>
<trkpt lat="46.22224837" lon="6.10737727"><ele>420.714111</ele><time>2009-08-22T15:11:37Z</time></trkpt>
<trkpt lat="46.22225323" lon="6.10737668"><ele>419.272217</ele><time>2009-08-22T15:11:38Z</time></trkpt>
<trkpt lat="46.22225507" lon="6.10738230"><ele>418.310791</ele><time>2009-08-22T15:11:39Z</time></trkpt>
<trkpt lat="46.22226345" lon="6.10738029"><ele>416.868896</ele><time>2009-08-22T15:11:40Z</time></trkpt>
<trkpt lat="46.22227058" lon="6.10738079"><ele>415.907471</ele><time>2009-08-22T15:11:41Z</time></trkpt>
<trkpt lat="46.22227577" lon="6.10739043"><ele>415.42688</ele><time>2009-08-22T15:11:42Z</time></trkpt>
<trkpt lat="46.22228416" lon="6.10739487"><ele>415.42688</ele><time>2009-08-22T15:11:43Z</time></trkpt>
<trkpt lat="46.22229589" lon="6.10739068"><ele>413.984863</ele><time>2009-08-22T15:11:44Z</time></trkpt>
<trkpt lat="46.22230880" lon="6.10739688"><ele>413.984863</ele><time>2009-08-22T15:11:45Z</time></trkpt>
<trkpt lat="46.22230913" lon="6.10739739"><ele>413.02356</ele><time>2009-08-22T15:11:46Z</time></trkpt>
<trkpt lat="46.22230855" lon="6.10739035"><ele>411.581665</ele><time>2009-08-22T15:11:47Z</time></trkpt>
<trkpt lat="46.22230335" lon="6.10738616"><ele>410.139648</ele><time>2009-08-22T15:11:48Z</time></trkpt>
<trkpt lat="46.22229145" lon="6.10739387"><ele>408.697632</ele><time>2009-08-22T15:11:49Z</time></trkpt>
<trkpt lat="46.22228206" lon="6.10740175"><ele>406.774902</ele><time>2009-08-22T15:11:50Z</time></trkpt>
<trkpt lat="46.22227427" lon="6.10740594"><ele>406.294312</ele><time>2009-08-22T15:11:51Z</time></trkpt>
<trkpt lat="46.22226815" lon="6.10740728"><ele>405.333008</ele><time>2009-08-22T15:11:52Z</time></trkpt>
<trkpt lat="46.22226806" lon="6.10740225"><ele>404.852295</ele><time>2009-08-22T15:11:53Z</time></trkpt>
<trkpt lat="46.22226697" lon="6.10740049"><ele>404.371704</ele><time>2009-08-22T15:11:54Z</time></trkpt>
<trkpt lat="46.22226555" lon="6.10739982"><ele>404.371704</ele><time>2009-08-22T15:11:55Z</time></trkpt>
<trkpt lat="46.22225767" lon="6.10739395"><ele>403.891113</ele><time>2009-08-22T15:11:56Z</time></trkpt>
<trkpt lat="46.22224828" lon="6.10739060"><ele>403.4104</ele><time>2009-08-22T15:11:57Z</time></trkpt>
<trkpt lat="46.22225096" lon="6.10739009"><ele>403.4104</ele><time>2009-08-22T15:11:58Z</time></trkpt>
<trkpt lat="46.22225113" lon="6.10738884"><ele>402.929688</ele><time>2009-08-22T15:11:59Z</time></trkpt>
<trkpt lat="46.22224845" lon="6.10738766"><ele>402.929688</ele><time>2009-08-22T15:12:00Z</time></trkpt>
<trkpt lat="46.22222858" lon="6.10738263"><ele>401.968506</ele><time>2009-08-22T15:12:01Z</time></trkpt>
<trkpt lat="46.22221425" lon="6.10739328"><ele>403.4104</ele><time>2009-08-22T15:12:02Z</time></trkpt>
<trkpt lat="46.22221333" lon="6.10740225"><ele>404.852295</ele><time>2009-08-22T15:12:03Z</time></trkpt>
<trkpt lat="46.22221777" lon="6.10740460"><ele>406.294312</ele><time>2009-08-22T15:12:04Z</time></trkpt>
<trkpt lat="46.22220444" lon="6.10740015"><ele>407.255615</ele><time>2009-08-22T15:12:05Z</time></trkpt>
<trkpt lat="46.22220805" lon="6.10740392"><ele>409.659058</ele><time>2009-08-22T15:12:06Z</time></trkpt>
<trkpt lat="46.22221853" lon="6.10741415"><ele>412.062256</ele><time>2009-08-22T15:12:07Z</time></trkpt>
<trkpt lat="46.22222783" lon="6.10742664"><ele>415.907471</ele><time>2009-08-22T15:12:08Z</time></trkpt>
<trkpt lat="46.22222682" lon="6.10742924"><ele>418.310791</ele><time>2009-08-22T15:12:09Z</time></trkpt>
<trkpt lat="46.22222557" lon="6.10742957"><ele>419.752808</ele><time>2009-08-22T15:12:10Z</time></trkpt>
<trkpt lat="46.22223454" lon="6.10744315"><ele>422.636719</ele><time>2009-08-22T15:12:11Z</time></trkpt>
<trkpt lat="46.22223479" lon="6.10745044"><ele>425.040161</ele><time>2009-08-22T15:12:12Z</time></trkpt>
<trkpt lat="46.22221853" lon="6.10744298"><ele>425.520752</ele><time>2009-08-22T15:12:13Z</time></trkpt>
<trkpt lat="46.22222037" lon="6.10744868"><ele>427.92395</ele><time>2009-08-22T15:12:14Z</time></trkpt>
<trkpt lat="46.22221584" lon="6.10745195"><ele>428.885376</ele><time>2009-08-22T15:12:15Z</time></trkpt>
<trkpt lat="46.22221643" lon="6.10746159"><ele>430.807983</ele><time>2009-08-22T15:12:16Z</time></trkpt>
<trkpt lat="46.22221593" lon="6.10747056"><ele>433.691895</ele><time>2009-08-22T15:12:17Z</time></trkpt>
<trkpt lat="46.22221258" lon="6.10747567"><ele>435.133911</ele><time>2009-08-22T15:12:18Z</time></trkpt>
<trkpt lat="46.22221098" lon="6.10748422"><ele>437.056519</ele><time>2009-08-22T15:12:19Z</time></trkpt>
<trkpt lat="46.22220956" lon="6.10749160"><ele>438.017822</ele><time>2009-08-22T15:12:20Z</time></trkpt>
<trkpt lat="46.22220428" lon="6.10749143"><ele>438.017822</ele><time>2009-08-22T15:12:21Z</time></trkpt>
<trkpt lat="46.22219782" lon="6.10749177"><ele>438.979126</ele><time>2009-08-22T15:12:22Z</time></trkpt>
<trkpt lat="46.22218776" lon="6.10748774"><ele>439.459717</ele><time>2009-08-22T15:12:23Z</time></trkpt>
<trkpt lat="46.22218215" lon="6.10749118"><ele>440.901855</ele><time>2009-08-22T15:12:24Z</time></trkpt>
<trkpt lat="46.22217335" lon="6.10748992"><ele>441.382446</ele><time>2009-08-22T15:12:25Z</time></trkpt>
<trkpt lat="46.22216564" lon="6.10749085"><ele>442.824463</ele><time>2009-08-22T15:12:26Z</time></trkpt>
<trkpt lat="46.22215918" lon="6.10749177"><ele>445.227661</ele><time>2009-08-22T15:12:27Z</time></trkpt>
<trkpt lat="46.22214653" lon="6.10748414"><ele>446.189087</ele><time>2009-08-22T15:12:28Z</time></trkpt>
<trkpt lat="46.22213152" lon="6.10747492"><ele>446.669678</ele><time>2009-08-22T15:12:29Z</time></trkpt>
<trkpt lat="46.22212054" lon="6.10746897"><ele>447.150269</ele><time>2009-08-22T15:12:30Z</time></trkpt>
<trkpt lat="46.22210872" lon="6.10746260"><ele>447.630981</ele><time>2009-08-22T15:12:31Z</time></trkpt>
<trkpt lat="46.22209565" lon="6.10745447"><ele>447.150269</ele><time>2009-08-22T15:12:32Z</time></trkpt>
<trkpt lat="46.22209623" lon="6.10745749"><ele>448.111816</ele><time>2009-08-22T15:12:33Z</time></trkpt>
<trkpt lat="46.22209565" lon="6.10745925"><ele>449.072998</ele><time>2009-08-22T15:12:34Z</time></trkpt>
<trkpt lat="46.22208928" lon="6.10745640"><ele>449.553711</ele><time>2009-08-22T15:12:35Z</time></trkpt>
<trkpt lat="46.22208039" lon="6.10745162"><ele>449.553711</ele><time>2009-08-22T15:12:36Z</time></trkpt>
<trkpt lat="46.22207344" lon="6.10744818"><ele>450.034424</ele><time>2009-08-22T15:12:37Z</time></trkpt>
<trkpt lat="46.22206002" lon="6.10744055"><ele>450.034424</ele><time>2009-08-22T15:12:38Z</time></trkpt>
<trkpt lat="46.22205717" lon="6.10743997"><ele>450.034424</ele><time>2009-08-22T15:12:39Z</time></trkpt>
<trkpt lat="46.22205483" lon="6.10743938"><ele>450.034424</ele><time>2009-08-22T15:12:40Z</time></trkpt>
<trkpt lat="46.22205215" lon="6.10743812"><ele>450.515015</ele><time>2009-08-22T15:12:41Z</time></trkpt>
<trkpt lat="46.22204343" lon="6.10743259"><ele>450.515015</ele><time>2009-08-22T15:12:42Z</time></trkpt>
<trkpt lat="46.22202977" lon="6.10742362"><ele>450.995605</ele><time>2009-08-22T15:12:43Z</time></trkpt>
<trkpt lat="46.22202205" lon="6.10741826"><ele>450.034424</ele><time>2009-08-22T15:12:44Z</time></trkpt>
<trkpt lat="46.22201719" lon="6.10741423"><ele>449.072998</ele><time>2009-08-22T15:12:45Z</time></trkpt>
<trkpt lat="46.22202256" lon="6.10741524"><ele>448.592407</ele><time>2009-08-22T15:12:46Z</time></trkpt>
<trkpt lat="46.22201258" lon="6.10740686"><ele>448.592407</ele><time>2009-08-22T15:12:47Z</time></trkpt>
<trkpt lat="46.22200546" lon="6.10740024"><ele>449.072998</ele><time>2009-08-22T15:12:48Z</time></trkpt>
<trkpt lat="46.22199909" lon="6.10739412"><ele>449.553711</ele><time>2009-08-22T15:12:49Z</time></trkpt>
<trkpt lat="46.22199087" lon="6.10738699"><ele>450.034424</ele><time>2009-08-22T15:12:50Z</time></trkpt>
<trkpt lat="46.22198492" lon="6.10738146"><ele>450.034424</ele><time>2009-08-22T15:12:51Z</time></trkpt>
<trkpt lat="46.22197679" lon="6.10737274"><ele>450.034424</ele><time>2009-08-22T15:12:52Z</time></trkpt>
<trkpt lat="46.22197243" lon="6.10736872"><ele>450.034424</ele><time>2009-08-22T15:12:53Z</time></trkpt>
<trkpt lat="46.22197579" lon="6.10737258"><ele>449.553711</ele><time>2009-08-22T15:12:54Z</time></trkpt>
<trkpt lat="46.22197428" lon="6.10737266"><ele>450.034424</ele><time>2009-08-22T15:12:55Z</time></trkpt>
<trkpt lat="46.22197922" lon="6.10737442"><ele>450.515015</ele><time>2009-08-22T15:12:56Z</time></trkpt>
<trkpt lat="46.22198216" lon="6.10737543"><ele>451.476318</ele><time>2009-08-22T15:12:57Z</time></trkpt>
<trkpt lat="46.22197805" lon="6.10737476"><ele>452.437622</ele><time>2009-08-22T15:12:58Z</time></trkpt>
<trkpt lat="46.22198132" lon="6.10737635"><ele>452.437622</ele><time>2009-08-22T15:12:59Z</time></trkpt>
<trkpt lat="46.22198375" lon="6.10737794"><ele>452.437622</ele><time>2009-08-22T15:13:00Z</time></trkpt>
<trkpt lat="46.22199322" lon="6.10738892"><ele>452.918213</ele><time>2009-08-22T15:13:01Z</time></trkpt>
<trkpt lat="46.22200378" lon="6.10740057"><ele>453.879639</ele><time>2009-08-22T15:13:02Z</time></trkpt>
<trkpt lat="46.22201149" lon="6.10740895"><ele>454.360229</ele><time>2009-08-22T15:13:03Z</time></trkpt>
<trkpt lat="46.22202415" lon="6.10742035"><ele>455.321533</ele><time>2009-08-22T15:13:04Z</time></trkpt>
<trkpt lat="46.22203345" lon="6.10742865"><ele>455.802246</ele><time>2009-08-22T15:13:05Z</time></trkpt>
<trkpt lat="46.22203605" lon="6.10743066"><ele>454.84082</ele><time>2009-08-22T15:13:06Z</time></trkpt>
<trkpt lat="46.22203563" lon="6.10743569"><ele>453.879639</ele><time>2009-08-22T15:13:07Z</time></trkpt>
<trkpt lat="46.22203857" lon="6.10743904"><ele>453.398926</ele><time>2009-08-22T15:13:08Z</time></trkpt>
<trkpt lat="46.22203966" lon="6.10744198"><ele>453.398926</ele><time>2009-08-22T15:13:09Z</time></trkpt>
<trkpt lat="46.22204083" lon="6.10744592"><ele>453.879639</ele><time>2009-08-22T15:13:10Z</time></trkpt>
<trkpt lat="46.22204569" lon="6.10744902"><ele>454.360229</ele><time>2009-08-22T15:13:11Z</time></trkpt>
<trkpt lat="46.22205575" lon="6.10745355"><ele>454.84082</ele><time>2009-08-22T15:13:12Z</time></trkpt>
<trkpt lat="46.22205885" lon="6.10746092"><ele>455.802246</ele><time>2009-08-22T15:13:13Z</time></trkpt>
<trkpt lat="46.22206908" lon="6.10747090"><ele>456.282959</ele><time>2009-08-22T15:13:14Z</time></trkpt>
<trkpt lat="46.22207369" lon="6.10747978"><ele>456.76355</ele><time>2009-08-22T15:13:15Z</time></trkpt>
<trkpt lat="46.22207897" lon="6.10748699"><ele>457.244263</ele><time>2009-08-22T15:13:16Z</time></trkpt>
<trkpt lat="46.22208307" lon="6.10749168"><ele>457.724976</ele><time>2009-08-22T15:13:17Z</time></trkpt>
<trkpt lat="46.22208475" lon="6.10749428"><ele>457.244263</ele><time>2009-08-22T15:13:18Z</time></trkpt>
<trkpt lat="46.22208383" lon="6.10749369"><ele>456.282959</ele><time>2009-08-22T15:13:19Z</time></trkpt>
<trkpt lat="46.22208819" lon="6.10749504"><ele>456.282959</ele><time>2009-08-22T15:13:20Z</time></trkpt>
<trkpt lat="46.22209045" lon="6.10749755"><ele>456.282959</ele><time>2009-08-22T15:13:21Z</time></trkpt>
<trkpt lat="46.22209473" lon="6.10750224"><ele>456.282959</ele><time>2009-08-22T15:13:22Z</time></trkpt>
<trkpt lat="46.22209590" lon="6.10750174"><ele>456.282959</ele><time>2009-08-22T15:13:23Z</time></trkpt>
<trkpt lat="46.22210110" lon="6.10751012"><ele>457.724976</ele><time>2009-08-22T15:13:24Z</time></trkpt>
<trkpt lat="46.22210772" lon="6.10751473"><ele>458.205566</ele><time>2009-08-22T15:13:25Z</time></trkpt>
<trkpt lat="46.22211853" lon="6.10752412"><ele>457.724976</ele><time>2009-08-22T15:13:26Z</time></trkpt>
<trkpt lat="46.22212348" lon="6.10752580"><ele>456.76355</ele><time>2009-08-22T15:13:27Z</time></trkpt>
<trkpt lat="46.22212700" lon="6.10753175"><ele>457.724976</ele><time>2009-08-22T15:13:28Z</time></trkpt>
<trkpt lat="46.22213328" lon="6.10754164"><ele>458.205566</ele><time>2009-08-22T15:13:29Z</time></trkpt>
<trkpt lat="46.22214108" lon="6.10755329"><ele>458.686157</ele><time>2009-08-22T15:13:30Z</time></trkpt>
<trkpt lat="46.22214879" lon="6.10755832"><ele>457.724976</ele><time>2009-08-22T15:13:31Z</time></trkpt>
<trkpt lat="46.22215566" lon="6.10756360"><ele>458.205566</ele><time>2009-08-22T15:13:32Z</time></trkpt>
<trkpt lat="46.22215843" lon="6.10756829"><ele>458.686157</ele><time>2009-08-22T15:13:33Z</time></trkpt>
<trkpt lat="46.22215675" lon="6.10756947"><ele>457.244263</ele><time>2009-08-22T15:13:34Z</time></trkpt>
<trkpt lat="46.22215415" lon="6.10755899"><ele>455.802246</ele><time>2009-08-22T15:13:35Z</time></trkpt>
<trkpt lat="46.22214535" lon="6.10754415"><ele>455.321533</ele><time>2009-08-22T15:13:36Z</time></trkpt>
<trkpt lat="46.22214678" lon="6.10753695"><ele>454.360229</ele><time>2009-08-22T15:13:37Z</time></trkpt>
<trkpt lat="46.22214753" lon="6.10752974"><ele>453.879639</ele><time>2009-08-22T15:13:38Z</time></trkpt>
<trkpt lat="46.22214435" lon="6.10752320"><ele>453.398926</ele><time>2009-08-22T15:13:39Z</time></trkpt>
<trkpt lat="46.22214108" lon="6.10751566"><ele>453.398926</ele><time>2009-08-22T15:13:40Z</time></trkpt>
<trkpt lat="46.22214829" lon="6.10752018"><ele>452.918213</ele><time>2009-08-22T15:13:41Z</time></trkpt>
<trkpt lat="46.22214812" lon="6.10751675"><ele>453.398926</ele><time>2009-08-22T15:13:42Z</time></trkpt>
<trkpt lat="46.22214175" lon="6.10750786"><ele>453.398926</ele><time>2009-08-22T15:13:43Z</time></trkpt>
<trkpt lat="46.22214242" lon="6.10750744"><ele>453.879639</ele><time>2009-08-22T15:13:44Z</time></trkpt>
<trkpt lat="46.22215474" lon="6.10751255"><ele>453.879639</ele><time>2009-08-22T15:13:45Z</time></trkpt>
<trkpt lat="46.22216262" lon="6.10751482"><ele>453.879639</ele><time>2009-08-22T15:13:46Z</time></trkpt>
<trkpt lat="46.22216513" lon="6.10751725"><ele>452.918213</ele><time>2009-08-22T15:13:47Z</time></trkpt>
<trkpt lat="46.22217125" lon="6.10752278"><ele>451.957031</ele><time>2009-08-22T15:13:48Z</time></trkpt>
<trkpt lat="46.22217217" lon="6.10752077"><ele>450.515015</ele><time>2009-08-22T15:13:49Z</time></trkpt>
<trkpt lat="46.22217243" lon="6.10751968"><ele>450.034424</ele><time>2009-08-22T15:13:50Z</time></trkpt>
<trkpt lat="46.22217243" lon="6.10751758"><ele>448.592407</ele><time>2009-08-22T15:13:51Z</time></trkpt>
<trkpt lat="46.22216329" lon="6.10751163"><ele>447.630981</ele><time>2009-08-22T15:13:52Z</time></trkpt>
<trkpt lat="46.22215935" lon="6.10750769"><ele>446.669678</ele><time>2009-08-22T15:13:53Z</time></trkpt>
<trkpt lat="46.22216136" lon="6.10750895"><ele>445.708374</ele><time>2009-08-22T15:13:54Z</time></trkpt>
<trkpt lat="46.22215449" lon="6.10750174"><ele>444.266479</ele><time>2009-08-22T15:13:55Z</time></trkpt>
<trkpt lat="46.22214795" lon="6.10749587"><ele>443.785767</ele><time>2009-08-22T15:13:56Z</time></trkpt>
<trkpt lat="46.22212959" lon="6.10747844"><ele>442.824463</ele><time>2009-08-22T15:13:57Z</time></trkpt>
<trkpt lat="46.22214007" lon="6.10748783"><ele>441.863159</ele><time>2009-08-22T15:13:58Z</time></trkpt>
<trkpt lat="46.22214787" lon="6.10749235"><ele>441.863159</ele><time>2009-08-22T15:13:59Z</time></trkpt>
<trkpt lat="46.22215457" lon="6.10749378"><ele>441.382446</ele><time>2009-08-22T15:14:00Z</time></trkpt>
<trkpt lat="46.22214594" lon="6.10748682"><ele>442.343872</ele><time>2009-08-22T15:14:01Z</time></trkpt>
<trkpt lat="46.22214376" lon="6.10748246"><ele>440.421265</ele><time>2009-08-22T15:14:02Z</time></trkpt>
<trkpt lat="46.22214586" lon="6.10748297"><ele>440.421265</ele><time>2009-08-22T15:14:03Z</time></trkpt>
<trkpt lat="46.22215457" lon="6.10748825"><ele>440.901855</ele><time>2009-08-22T15:14:04Z</time></trkpt>
<trkpt lat="46.22215834" lon="6.10749428"><ele>439.94043</ele><time>2009-08-22T15:14:05Z</time></trkpt>
<trkpt lat="46.22215918" lon="6.10749403"><ele>438.498535</ele><time>2009-08-22T15:14:06Z</time></trkpt>
<trkpt lat="46.22217075" lon="6.10750224"><ele>438.979126</ele><time>2009-08-22T15:14:07Z</time></trkpt>
<trkpt lat="46.22218165" lon="6.10750769"><ele>438.498535</ele><time>2009-08-22T15:14:08Z</time></trkpt>
<trkpt lat="46.22219053" lon="6.10751222"><ele>437.537109</ele><time>2009-08-22T15:14:09Z</time></trkpt>
<trkpt lat="46.22219573" lon="6.10751683"><ele>436.575928</ele><time>2009-08-22T15:14:10Z</time></trkpt>
<trkpt lat="46.22219296" lon="6.10751314"><ele>436.095215</ele><time>2009-08-22T15:14:11Z</time></trkpt>
<trkpt lat="46.22218936" lon="6.10751088"><ele>436.575928</ele><time>2009-08-22T15:14:12Z</time></trkpt>
<trkpt lat="46.22218718" lon="6.10750895"><ele>436.095215</ele><time>2009-08-22T15:14:13Z</time></trkpt>
<trkpt lat="46.22219422" lon="6.10751683"><ele>435.614502</ele><time>2009-08-22T15:14:14Z</time></trkpt>
<trkpt lat="46.22219363" lon="6.10751289"><ele>434.65332</ele><time>2009-08-22T15:14:15Z</time></trkpt>
<trkpt lat="46.22219422" lon="6.10751465"><ele>435.133911</ele><time>2009-08-22T15:14:16Z</time></trkpt>
<trkpt lat="46.22218659" lon="6.10750442"><ele>435.614502</ele><time>2009-08-22T15:14:17Z</time></trkpt>
<trkpt lat="46.22218969" lon="6.10750593"><ele>437.056519</ele><time>2009-08-22T15:14:18Z</time></trkpt>
<trkpt lat="46.22219087" lon="6.10750493"><ele>437.537109</ele><time>2009-08-22T15:14:19Z</time></trkpt>
<trkpt lat="46.22218307" lon="6.10749889"><ele>438.498535</ele><time>2009-08-22T15:14:20Z</time></trkpt>
<trkpt lat="46.22218383" lon="6.10750518"><ele>438.979126</ele><time>2009-08-22T15:14:21Z</time></trkpt>
<trkpt lat="46.22218148" lon="6.10751096"><ele>440.421265</ele><time>2009-08-22T15:14:22Z</time></trkpt>
<trkpt lat="46.22217804" lon="6.10750987"><ele>440.901855</ele><time>2009-08-22T15:14:23Z</time></trkpt>
<trkpt lat="46.22217779" lon="6.10751716"><ele>443.305054</ele><time>2009-08-22T15:14:24Z</time></trkpt>
<trkpt lat="46.22217762" lon="6.10752362"><ele>444.266479</ele><time>2009-08-22T15:14:25Z</time></trkpt>
<trkpt lat="46.22218257" lon="6.10752873"><ele>445.708374</ele><time>2009-08-22T15:14:26Z</time></trkpt>
<trkpt lat="46.22218282" lon="6.10752840"><ele>446.189087</ele><time>2009-08-22T15:14:27Z</time></trkpt>
<trkpt lat="46.22218626" lon="6.10752798"><ele>446.189087</ele><time>2009-08-22T15:14:28Z</time></trkpt>
<trkpt lat="46.22218257" lon="6.10752647"><ele>448.111816</ele><time>2009-08-22T15:14:29Z</time></trkpt>
<trkpt lat="46.22219246" lon="6.10753544"><ele>451.476318</ele><time>2009-08-22T15:14:30Z</time></trkpt>
<trkpt lat="46.22220319" lon="6.10754323"><ele>453.879639</ele><time>2009-08-22T15:14:31Z</time></trkpt>
<trkpt lat="46.22221367" lon="6.10754977"><ele>455.321533</ele><time>2009-08-22T15:14:32Z</time></trkpt>
<trkpt lat="46.22220763" lon="6.10754407"><ele>456.282959</ele><time>2009-08-22T15:14:33Z</time></trkpt>
<trkpt lat="46.22219900" lon="6.10753502"><ele>456.76355</ele><time>2009-08-22T15:14:34Z</time></trkpt>
<trkpt lat="46.22218466" lon="6.10752605"><ele>456.76355</ele><time>2009-08-22T15:14:35Z</time></trkpt>
<trkpt lat="46.22217662" lon="6.10752102"><ele>456.282959</ele><time>2009-08-22T15:14:36Z</time></trkpt>
<trkpt lat="46.22215114" lon="6.10749914"><ele>455.321533</ele><time>2009-08-22T15:14:37Z</time></trkpt>
<trkpt lat="46.22214552" lon="6.10749864"><ele>455.321533</ele><time>2009-08-22T15:14:38Z</time></trkpt>
<trkpt lat="46.22214946" lon="6.10750602"><ele>455.321533</ele><time>2009-08-22T15:14:39Z</time></trkpt>
<trkpt lat="46.22214938" lon="6.10751079"><ele>454.360229</ele><time>2009-08-22T15:14:40Z</time></trkpt>
<trkpt lat="46.22214979" lon="6.10751029"><ele>454.84082</ele><time>2009-08-22T15:14:41Z</time></trkpt>
<trkpt lat="46.22215206" lon="6.10751146"><ele>455.321533</ele><time>2009-08-22T15:14:42Z</time></trkpt>
<trkpt lat="46.22214594" lon="6.10750509"><ele>455.321533</ele><time>2009-08-22T15:14:43Z</time></trkpt>
<trkpt lat="46.22214979" lon="6.10750669"><ele>453.879639</ele><time>2009-08-22T15:14:44Z</time></trkpt>
<trkpt lat="46.22215323" lon="6.10750568"><ele>454.360229</ele><time>2009-08-22T15:14:45Z</time></trkpt>
<trkpt lat="46.22215977" lon="6.10751079"><ele>452.918213</ele><time>2009-08-22T15:14:46Z</time></trkpt>
<trkpt lat="46.22215290" lon="6.10750048"><ele>452.437622</ele><time>2009-08-22T15:14:47Z</time></trkpt>
<trkpt lat="46.22214443" lon="6.10749244"><ele>452.437622</ele><time>2009-08-22T15:14:48Z</time></trkpt>
<trkpt lat="46.22214309" lon="6.10749378"><ele>451.957031</ele><time>2009-08-22T15:14:49Z</time></trkpt>
<trkpt lat="46.22214803" lon="6.10749445"><ele>452.437622</ele><time>2009-08-22T15:14:50Z</time></trkpt>
<trkpt lat="46.22215139" lon="6.10749763"><ele>452.437622</ele><time>2009-08-22T15:14:51Z</time></trkpt>
<trkpt lat="46.22215834" lon="6.10750895"><ele>452.437622</ele><time>2009-08-22T15:14:52Z</time></trkpt>
<trkpt lat="46.22215793" lon="6.10750945"><ele>450.995605</ele><time>2009-08-22T15:14:53Z</time></trkpt>
<trkpt lat="46.22215642" lon="6.10750669"><ele>449.553711</ele><time>2009-08-22T15:14:54Z</time></trkpt>
<trkpt lat="46.22216002" lon="6.10751180"><ele>447.150269</ele><time>2009-08-22T15:14:55Z</time></trkpt>
<trkpt lat="46.22215549" lon="6.10750543"><ele>445.708374</ele><time>2009-08-22T15:14:56Z</time></trkpt>
<trkpt lat="46.22214862" lon="6.10749596"><ele>444.266479</ele><time>2009-08-22T15:14:57Z</time></trkpt>
<trkpt lat="46.22215005" lon="6.10749629"><ele>444.266479</ele><time>2009-08-22T15:14:58Z</time></trkpt>
<trkpt lat="46.22214787" lon="6.10749126"><ele>443.305054</ele><time>2009-08-22T15:14:59Z</time></trkpt>
<trkpt lat="46.22214317" lon="6.10748548"><ele>441.863159</ele><time>2009-08-22T15:15:00Z</time></trkpt>
<trkpt lat="46.22214527" lon="6.10748858"><ele>440.901855</ele><time>2009-08-22T15:15:01Z</time></trkpt>
<trkpt lat="46.22214175" lon="6.10748439"><ele>439.94043</ele><time>2009-08-22T15:15:02Z</time></trkpt>
<trkpt lat="46.22213270" lon="6.10747224"><ele>437.537109</ele><time>2009-08-22T15:15:03Z</time></trkpt>
<trkpt lat="46.22213555" lon="6.10747517"><ele>436.095215</ele><time>2009-08-22T15:15:04Z</time></trkpt>
<trkpt lat="46.22213865" lon="6.10747802"><ele>435.133911</ele><time>2009-08-22T15:15:05Z</time></trkpt>
<trkpt lat="46.22213345" lon="6.10747207"><ele>434.172607</ele><time>2009-08-22T15:15:06Z</time></trkpt>
<trkpt lat="46.22212867" lon="6.10746503"><ele>433.691895</ele><time>2009-08-22T15:15:07Z</time></trkpt>
<trkpt lat="46.22212716" lon="6.10745749"><ele>432.730713</ele><time>2009-08-22T15:15:08Z</time></trkpt>
<trkpt lat="46.22213186" lon="6.10745447"><ele>432.25</ele><time>2009-08-22T15:15:09Z</time></trkpt>
<trkpt lat="46.22214695" lon="6.10746738"><ele>433.691895</ele><time>2009-08-22T15:15:10Z</time></trkpt>
<trkpt lat="46.22215055" lon="6.10747056"><ele>434.172607</ele><time>2009-08-22T15:15:11Z</time></trkpt>
<trkpt lat="46.22214619" lon="6.10746184"><ele>434.65332</ele><time>2009-08-22T15:15:12Z</time></trkpt>
<trkpt lat="46.22214594" lon="6.10746008"><ele>434.65332</ele><time>2009-08-22T15:15:13Z</time></trkpt>
<trkpt lat="46.22215239" lon="6.10746712"><ele>433.211304</ele><time>2009-08-22T15:15:14Z</time></trkpt>
<trkpt lat="46.22215893" lon="6.10747333"><ele>432.730713</ele><time>2009-08-22T15:15:15Z</time></trkpt>
<trkpt lat="46.22216505" lon="6.10747693"><ele>431.769165</ele><time>2009-08-22T15:15:16Z</time></trkpt>
<trkpt lat="46.22217880" lon="6.10748883"><ele>430.327271</ele><time>2009-08-22T15:15:17Z</time></trkpt>
<trkpt lat="46.22219623" lon="6.10750342"><ele>430.327271</ele><time>2009-08-22T15:15:18Z</time></trkpt>
<trkpt lat="46.22221534" lon="6.10751549"><ele>429.846558</ele><time>2009-08-22T15:15:19Z</time></trkpt>
<trkpt lat="46.22222188" lon="6.10751968"><ele>430.327271</ele><time>2009-08-22T15:15:20Z</time></trkpt>
<trkpt lat="46.22222967" lon="6.10752496"><ele>429.846558</ele><time>2009-08-22T15:15:21Z</time></trkpt>
<trkpt lat="46.22223563" lon="6.10752873"><ele>430.327271</ele><time>2009-08-22T15:15:22Z</time></trkpt>
<trkpt lat="46.22224116" lon="6.10753234"><ele>430.327271</ele><time>2009-08-22T15:15:23Z</time></trkpt>
<trkpt lat="46.22224200" lon="6.10753317"><ele>429.846558</ele><time>2009-08-22T15:15:24Z</time></trkpt>
<trkpt lat="46.22223923" lon="6.10753083"><ele>428.885376</ele><time>2009-08-22T15:15:25Z</time></trkpt>
<trkpt lat="46.22223009" lon="6.10752387"><ele>429.365967</ele><time>2009-08-22T15:15:26Z</time></trkpt>
<trkpt lat="46.22222289" lon="6.10751783"><ele>429.365967</ele><time>2009-08-22T15:15:27Z</time></trkpt>
<trkpt lat="46.22221425" lon="6.10751079"><ele>430.327271</ele><time>2009-08-22T15:15:28Z</time></trkpt>
<trkpt lat="46.22221098" lon="6.10750996"><ele>429.846558</ele><time>2009-08-22T15:15:29Z</time></trkpt>
<trkpt lat="46.22221408" lon="6.10751306"><ele>430.807983</ele><time>2009-08-22T15:15:30Z</time></trkpt>
<trkpt lat="46.22220788" lon="6.10751214"><ele>431.288574</ele><time>2009-08-22T15:15:31Z</time></trkpt>
<trkpt lat="46.22220344" lon="6.10750945"><ele>431.769165</ele><time>2009-08-22T15:15:32Z</time></trkpt>
<trkpt lat="46.22218609" lon="6.10749696"><ele>432.730713</ele><time>2009-08-22T15:15:33Z</time></trkpt>
<trkpt lat="46.22217603" lon="6.10749294"><ele>433.691895</ele><time>2009-08-22T15:15:34Z</time></trkpt>
<trkpt lat="46.22217595" lon="6.10749906"><ele>434.65332</ele><time>2009-08-22T15:15:35Z</time></trkpt>
<trkpt lat="46.22216974" lon="6.10749939"><ele>434.172607</ele><time>2009-08-22T15:15:36Z</time></trkpt>
<trkpt lat="46.22217025" lon="6.10750317"><ele>433.211304</ele><time>2009-08-22T15:15:37Z</time></trkpt>
<trkpt lat="46.22217000" lon="6.10750794"><ele>433.691895</ele><time>2009-08-22T15:15:38Z</time></trkpt>
<trkpt lat="46.22217469" lon="6.10751415"><ele>433.211304</ele><time>2009-08-22T15:15:39Z</time></trkpt>
<trkpt lat="46.22217972" lon="6.10752077"><ele>433.211304</ele><time>2009-08-22T15:15:40Z</time></trkpt>
<trkpt lat="46.22217695" lon="6.10752035"><ele>432.730713</ele><time>2009-08-22T15:15:41Z</time></trkpt>
<trkpt lat="46.22218257" lon="6.10752504"><ele>432.730713</ele><time>2009-08-22T15:15:42Z</time></trkpt>
<trkpt lat="46.22218567" lon="6.10752655"><ele>432.730713</ele><time>2009-08-22T15:15:43Z</time></trkpt>
<trkpt lat="46.22218416" lon="6.10752404"><ele>432.25</ele><time>2009-08-22T15:15:44Z</time></trkpt>
<trkpt lat="46.22218232" lon="6.10752244"><ele>432.25</ele><time>2009-08-22T15:15:45Z</time></trkpt>
<trkpt lat="46.22218114" lon="6.10752186"><ele>432.730713</ele><time>2009-08-22T15:15:46Z</time></trkpt>
<trkpt lat="46.22218416" lon="6.10752446"><ele>432.730713</ele><time>2009-08-22T15:15:47Z</time></trkpt>
<trkpt lat="46.22218894" lon="6.10752898"><ele>433.211304</ele><time>2009-08-22T15:15:48Z</time></trkpt>
<trkpt lat="46.22219254" lon="6.10753343"><ele>433.211304</ele><time>2009-08-22T15:15:49Z</time></trkpt>
<trkpt lat="46.22219254" lon="6.10753502"><ele>433.691895</ele><time>2009-08-22T15:15:50Z</time></trkpt>
<trkpt lat="46.22219992" lon="6.10754223"><ele>431.769165</ele><time>2009-08-22T15:15:51Z</time></trkpt>
<trkpt lat="46.22220403" lon="6.10754558"><ele>431.288574</ele><time>2009-08-22T15:15:52Z</time></trkpt>
<trkpt lat="46.22221283" lon="6.10755312"><ele>428.885376</ele><time>2009-08-22T15:15:53Z</time></trkpt>
<trkpt lat="46.22221543" lon="6.10755648"><ele>427.92395</ele><time>2009-08-22T15:15:54Z</time></trkpt>
<trkpt lat="46.22221492" lon="6.10755715"><ele>427.92395</ele><time>2009-08-22T15:15:55Z</time></trkpt>
<trkpt lat="46.22221123" lon="6.10755438"><ele>428.404663</ele><time>2009-08-22T15:15:56Z</time></trkpt>
<trkpt lat="46.22221199" lon="6.10755455"><ele>428.404663</ele><time>2009-08-22T15:15:57Z</time></trkpt>
<trkpt lat="46.22221232" lon="6.10755438"><ele>428.885376</ele><time>2009-08-22T15:15:58Z</time></trkpt>
<trkpt lat="46.22221316" lon="6.10755379"><ele>430.327271</ele><time>2009-08-22T15:15:59Z</time></trkpt>
<trkpt lat="46.22221509" lon="6.10755354"><ele>431.288574</ele><time>2009-08-22T15:16:00Z</time></trkpt>
<trkpt lat="46.22222263" lon="6.10755807"><ele>431.769165</ele><time>2009-08-22T15:16:01Z</time></trkpt>
<trkpt lat="46.22223110" lon="6.10756243"><ele>431.769165</ele><time>2009-08-22T15:16:02Z</time></trkpt>
<trkpt lat="46.22224099" lon="6.10756746"><ele>431.769165</ele><time>2009-08-22T15:16:03Z</time></trkpt>
<trkpt lat="46.22225256" lon="6.10757450"><ele>432.25</ele><time>2009-08-22T15:16:04Z</time></trkpt>
<trkpt lat="46.22226714" lon="6.10758455"><ele>432.25</ele><time>2009-08-22T15:16:05Z</time></trkpt>
<trkpt lat="46.22227435" lon="6.10758958"><ele>433.691895</ele><time>2009-08-22T15:16:06Z</time></trkpt>
<trkpt lat="46.22228240" lon="6.10759545"><ele>434.172607</ele><time>2009-08-22T15:16:07Z</time></trkpt>
<trkpt lat="46.22228298" lon="6.10759629"><ele>435.614502</ele><time>2009-08-22T15:16:08Z</time></trkpt>
<trkpt lat="46.22228248" lon="6.10759738"><ele>436.575928</ele><time>2009-08-22T15:16:09Z</time></trkpt>
<trkpt lat="46.22227879" lon="6.10759562"><ele>438.017822</ele><time>2009-08-22T15:16:10Z</time></trkpt>
<trkpt lat="46.22227385" lon="6.10759160"><ele>439.94043</ele><time>2009-08-22T15:16:11Z</time></trkpt>
<trkpt lat="46.22226823" lon="6.10758715"><ele>442.343872</ele><time>2009-08-22T15:16:12Z</time></trkpt>
<trkpt lat="46.22226144" lon="6.10758279"><ele>444.74707</ele><time>2009-08-22T15:16:13Z</time></trkpt>
<trkpt lat="46.22225625" lon="6.10758129"><ele>446.669678</ele><time>2009-08-22T15:16:14Z</time></trkpt>
<trkpt lat="46.22225256" lon="6.10758020"><ele>448.592407</ele><time>2009-08-22T15:16:15Z</time></trkpt>
<trkpt lat="46.22225080" lon="6.10757927"><ele>451.476318</ele><time>2009-08-22T15:16:16Z</time></trkpt>
<trkpt lat="46.22225130" lon="6.10757969"><ele>453.398926</ele><time>2009-08-22T15:16:17Z</time></trkpt>
<trkpt lat="46.22225314" lon="6.10758154"><ele>455.802246</ele><time>2009-08-22T15:16:18Z</time></trkpt>
<trkpt lat="46.22225826" lon="6.10758640"><ele>457.244263</ele><time>2009-08-22T15:16:19Z</time></trkpt>
<trkpt lat="46.22226345" lon="6.10759109"><ele>458.686157</ele><time>2009-08-22T15:16:20Z</time></trkpt>
<trkpt lat="46.22226588" lon="6.10759470"><ele>459.16687</ele><time>2009-08-22T15:16:21Z</time></trkpt>
<trkpt lat="46.22226329" lon="6.10759453"><ele>461.089478</ele><time>2009-08-22T15:16:22Z</time></trkpt>
<trkpt lat="46.22226203" lon="6.10759503"><ele>463.012085</ele><time>2009-08-22T15:16:23Z</time></trkpt>
<trkpt lat="46.22226379" lon="6.10759797"><ele>463.012085</ele><time>2009-08-22T15:16:24Z</time></trkpt>
<trkpt lat="46.22226312" lon="6.10759956"><ele>463.492798</ele><time>2009-08-22T15:16:25Z</time></trkpt>
<trkpt lat="46.22226144" lon="6.10760065"><ele>463.492798</ele><time>2009-08-22T15:16:26Z</time></trkpt>
<trkpt lat="46.22225868" lon="6.10759989"><ele>463.492798</ele><time>2009-08-22T15:16:27Z</time></trkpt>
<trkpt lat="46.22225625" lon="6.10759763"><ele>463.973389</ele><time>2009-08-22T15:16:28Z</time></trkpt>
<trkpt lat="46.22225448" lon="6.10759537"><ele>464.454102</ele><time>2009-08-22T15:16:29Z</time></trkpt>
<trkpt lat="46.22225398" lon="6.10759419"><ele>464.934814</ele><time>2009-08-22T15:16:30Z</time></trkpt>
<trkpt lat="46.22225340" lon="6.10759394"><ele>464.934814</ele><time>2009-08-22T15:16:31Z</time></trkpt>
<trkpt lat="46.22225063" lon="6.10759277"><ele>465.415527</ele><time>2009-08-22T15:16:32Z</time></trkpt>
<trkpt lat="46.22224568" lon="6.10758866"><ele>464.934814</ele><time>2009-08-22T15:16:33Z</time></trkpt>
<trkpt lat="46.22224225" lon="6.10758707"><ele>465.415527</ele><time>2009-08-22T15:16:34Z</time></trkpt>
<trkpt lat="46.22223923" lon="6.10758615"><ele>465.896118</ele><time>2009-08-22T15:16:35Z</time></trkpt>
<trkpt lat="46.22223462" lon="6.10758405"><ele>466.857422</ele><time>2009-08-22T15:16:36Z</time></trkpt>
<trkpt lat="46.22223965" lon="6.10759235"><ele>468.780029</ele><time>2009-08-22T15:16:37Z</time></trkpt>
<trkpt lat="46.22224409" lon="6.10759964"><ele>469.741333</ele><time>2009-08-22T15:16:38Z</time></trkpt>
<trkpt lat="46.22224133" lon="6.10759897"><ele>470.702637</ele><time>2009-08-22T15:16:39Z</time></trkpt>
<trkpt lat="46.22224485" lon="6.10760216"><ele>470.221924</ele><time>2009-08-22T15:16:40Z</time></trkpt>
<trkpt lat="46.22224585" lon="6.10760299"><ele>469.260742</ele><time>2009-08-22T15:16:41Z</time></trkpt>
<trkpt lat="46.22224862" lon="6.10760417"><ele>467.818726</ele><time>2009-08-22T15:16:42Z</time></trkpt>
<trkpt lat="46.22224568" lon="6.10760207"><ele>468.299316</ele><time>2009-08-22T15:16:43Z</time></trkpt>
<trkpt lat="46.22224468" lon="6.10760006"><ele>467.818726</ele><time>2009-08-22T15:16:44Z</time></trkpt>
<trkpt lat="46.22225499" lon="6.10760962"><ele>467.338135</ele><time>2009-08-22T15:16:45Z</time></trkpt>
<trkpt lat="46.22227418" lon="6.10762613"><ele>466.376709</ele><time>2009-08-22T15:16:46Z</time></trkpt>
<trkpt lat="46.22228466" lon="6.10763426"><ele>464.934814</ele><time>2009-08-22T15:16:47Z</time></trkpt>
<trkpt lat="46.22228919" lon="6.10763912"><ele>465.896118</ele><time>2009-08-22T15:16:48Z</time></trkpt>
<trkpt lat="46.22229648" lon="6.10764390"><ele>464.454102</ele><time>2009-08-22T15:16:49Z</time></trkpt>
<trkpt lat="46.22230184" lon="6.10764809"><ele>463.973389</ele><time>2009-08-22T15:16:50Z</time></trkpt>
<trkpt lat="46.22229572" lon="6.10764247"><ele>463.973389</ele><time>2009-08-22T15:16:51Z</time></trkpt>
<trkpt lat="46.22229715" lon="6.10764348"><ele>464.454102</ele><time>2009-08-22T15:16:52Z</time></trkpt>
<trkpt lat="46.22229807" lon="6.10764432"><ele>463.492798</ele><time>2009-08-22T15:16:53Z</time></trkpt>
<trkpt lat="46.22230243" lon="6.10765228"><ele>464.934814</ele><time>2009-08-22T15:16:54Z</time></trkpt>
<trkpt lat="46.22230704" lon="6.10765706"><ele>465.415527</ele><time>2009-08-22T15:16:55Z</time></trkpt>
<trkpt lat="46.22231802" lon="6.10766628"><ele>464.454102</ele><time>2009-08-22T15:16:56Z</time></trkpt>
<trkpt lat="46.22232942" lon="6.10767592"><ele>462.531372</ele><time>2009-08-22T15:16:57Z</time></trkpt>
<trkpt lat="46.22233252" lon="6.10767927"><ele>461.089478</ele><time>2009-08-22T15:16:58Z</time></trkpt>
<trkpt lat="46.22233327" lon="6.10768178"><ele>461.57019</ele><time>2009-08-22T15:16:59Z</time></trkpt>
<trkpt lat="46.22232682" lon="6.10767332"><ele>461.089478</ele><time>2009-08-22T15:17:00Z</time></trkpt>
<trkpt lat="46.22232263" lon="6.10766544"><ele>458.686157</ele><time>2009-08-22T15:17:01Z</time></trkpt>
<trkpt lat="46.22232154" lon="6.10766385"><ele>458.205566</ele><time>2009-08-22T15:17:02Z</time></trkpt>
<trkpt lat="46.22231886" lon="6.10766117"><ele>458.205566</ele><time>2009-08-22T15:17:03Z</time></trkpt>
<trkpt lat="46.22231936" lon="6.10766083"><ele>457.724976</ele><time>2009-08-22T15:17:04Z</time></trkpt>
<trkpt lat="46.22232037" lon="6.10766058"><ele>457.244263</ele><time>2009-08-22T15:17:05Z</time></trkpt>
<trkpt lat="46.22231727" lon="6.10765723"><ele>455.802246</ele><time>2009-08-22T15:17:06Z</time></trkpt>
<trkpt lat="46.22231835" lon="6.10765848"><ele>455.802246</ele><time>2009-08-22T15:17:07Z</time></trkpt>
<trkpt lat="46.22232288" lon="6.10766125"><ele>454.84082</ele><time>2009-08-22T15:17:08Z</time></trkpt>
<trkpt lat="46.22232389" lon="6.10766033"><ele>453.879639</ele><time>2009-08-22T15:17:09Z</time></trkpt>
<trkpt lat="46.22233302" lon="6.10767005"><ele>453.879639</ele><time>2009-08-22T15:17:10Z</time></trkpt>
<trkpt lat="46.22234132" lon="6.10767986"><ele>453.398926</ele><time>2009-08-22T15:17:11Z</time></trkpt>
<trkpt lat="46.22234258" lon="6.10768103"><ele>453.879639</ele><time>2009-08-22T15:17:12Z</time></trkpt>
<trkpt lat="46.22234995" lon="6.10768933"><ele>453.879639</ele><time>2009-08-22T15:17:13Z</time></trkpt>
<trkpt lat="46.22235666" lon="6.10769738"><ele>453.879639</ele><time>2009-08-22T15:17:14Z</time></trkpt>
<trkpt lat="46.22235909" lon="6.10769838"><ele>453.398926</ele><time>2009-08-22T15:17:15Z</time></trkpt>
<trkpt lat="46.22235498" lon="6.10769268"><ele>452.918213</ele><time>2009-08-22T15:17:16Z</time></trkpt>
<trkpt lat="46.22235859" lon="6.10769570"><ele>452.918213</ele><time>2009-08-22T15:17:17Z</time></trkpt>
<trkpt lat="46.22235968" lon="6.10769545"><ele>451.476318</ele><time>2009-08-22T15:17:18Z</time></trkpt>
<trkpt lat="46.22235884" lon="6.10769268"><ele>449.072998</ele><time>2009-08-22T15:17:19Z</time></trkpt>
<trkpt lat="46.22235104" lon="6.10768782"><ele>447.630981</ele><time>2009-08-22T15:17:20Z</time></trkpt>
<trkpt lat="46.22235063" lon="6.10769226"><ele>446.669678</ele><time>2009-08-22T15:17:21Z</time></trkpt>
<trkpt lat="46.22234442" lon="6.10768732"><ele>444.74707</ele><time>2009-08-22T15:17:22Z</time></trkpt>
<trkpt lat="46.22233344" lon="6.10767432"><ele>442.343872</ele><time>2009-08-22T15:17:23Z</time></trkpt>
<trkpt lat="46.22234216" lon="6.10768354"><ele>441.382446</ele><time>2009-08-22T15:17:24Z</time></trkpt>
<trkpt lat="46.22235213" lon="6.10769352"><ele>441.382446</ele><time>2009-08-22T15:17:25Z</time></trkpt>
<trkpt lat="46.22236513" lon="6.10769972"><ele>440.901855</ele><time>2009-08-22T15:17:26Z</time></trkpt>
<trkpt lat="46.22237083" lon="6.10770458"><ele>439.459717</ele><time>2009-08-22T15:17:27Z</time></trkpt>
<trkpt lat="46.22237393" lon="6.10770416"><ele>439.94043</ele><time>2009-08-22T15:17:28Z</time></trkpt>
<trkpt lat="46.22237468" lon="6.10770006"><ele>440.421265</ele><time>2009-08-22T15:17:29Z</time></trkpt>
<trkpt lat="46.22237334" lon="6.10769369"><ele>440.901855</ele><time>2009-08-22T15:17:30Z</time></trkpt>
<trkpt lat="46.22237292" lon="6.10768950"><ele>440.901855</ele><time>2009-08-22T15:17:31Z</time></trkpt>
<trkpt lat="46.22236462" lon="6.10767935"><ele>439.94043</ele><time>2009-08-22T15:17:32Z</time></trkpt>
<trkpt lat="46.22235565" lon="6.10766938"><ele>439.94043</ele><time>2009-08-22T15:17:33Z</time></trkpt>
<trkpt lat="46.22234635" lon="6.10765865"><ele>438.498535</ele><time>2009-08-22T15:17:34Z</time></trkpt>
<trkpt lat="46.22234384" lon="6.10765354"><ele>437.537109</ele><time>2009-08-22T15:17:35Z</time></trkpt>
<trkpt lat="46.22234224" lon="6.10764884"><ele>437.056519</ele><time>2009-08-22T15:17:36Z</time></trkpt>
<trkpt lat="46.22234434" lon="6.10764775"><ele>437.056519</ele><time>2009-08-22T15:17:37Z</time></trkpt>
<trkpt lat="46.22234685" lon="6.10765035"><ele>437.537109</ele><time>2009-08-22T15:17:38Z</time></trkpt>
<trkpt lat="46.22233646" lon="6.10764046"><ele>436.095215</ele><time>2009-08-22T15:17:39Z</time></trkpt>
<trkpt lat="46.22233403" lon="6.10763795"><ele>435.614502</ele><time>2009-08-22T15:17:40Z</time></trkpt>
<trkpt lat="46.22232028" lon="6.10762336"><ele>435.133911</ele><time>2009-08-22T15:17:41Z</time></trkpt>
<trkpt lat="46.22231232" lon="6.10761917"><ele>436.095215</ele><time>2009-08-22T15:17:42Z</time></trkpt>
<trkpt lat="46.22230997" lon="6.10761398"><ele>437.056519</ele><time>2009-08-22T15:17:43Z</time></trkpt>
<trkpt lat="46.22230075" lon="6.10760660"><ele>437.056519</ele><time>2009-08-22T15:17:44Z</time></trkpt>
<trkpt lat="46.22229639" lon="6.10760165"><ele>438.017822</ele><time>2009-08-22T15:17:45Z</time></trkpt>
<trkpt lat="46.22229212" lon="6.10759704"><ele>438.017822</ele><time>2009-08-22T15:17:46Z</time></trkpt>
<trkpt lat="46.22228776" lon="6.10759553"><ele>438.017822</ele><time>2009-08-22T15:17:47Z</time></trkpt>
<trkpt lat="46.22228173" lon="6.10758916"><ele>437.537109</ele><time>2009-08-22T15:17:48Z</time></trkpt>
<trkpt lat="46.22227720" lon="6.10758347"><ele>437.537109</ele><time>2009-08-22T15:17:49Z</time></trkpt>
<trkpt lat="46.22226882" lon="6.10757433"><ele>437.537109</ele><time>2009-08-22T15:17:50Z</time></trkpt>
<trkpt lat="46.22227066" lon="6.10757274"><ele>437.537109</ele><time>2009-08-22T15:17:51Z</time></trkpt>
<trkpt lat="46.22227980" lon="6.10757852"><ele>437.537109</ele><time>2009-08-22T15:17:52Z</time></trkpt>
<trkpt lat="46.22228223" lon="6.10757869"><ele>437.056519</ele><time>2009-08-22T15:17:53Z</time></trkpt>
<trkpt lat="46.22228885" lon="6.10758238"><ele>437.537109</ele><time>2009-08-22T15:17:54Z</time></trkpt>
<trkpt lat="46.22228625" lon="6.10757944"><ele>437.056519</ele><time>2009-08-22T15:17:55Z</time></trkpt>
<trkpt lat="46.22228877" lon="6.10758497"><ele>437.537109</ele><time>2009-08-22T15:17:56Z</time></trkpt>
<trkpt lat="46.22228256" lon="6.10757986"><ele>437.056519</ele><time>2009-08-22T15:17:57Z</time></trkpt>
<trkpt lat="46.22227787" lon="6.10757927"><ele>437.537109</ele><time>2009-08-22T15:17:58Z</time></trkpt>
<trkpt lat="46.22227862" lon="6.10758028"><ele>438.498535</ele><time>2009-08-22T15:17:59Z</time></trkpt>
<trkpt lat="46.22228114" lon="6.10758162"><ele>439.459717</ele><time>2009-08-22T15:18:00Z</time></trkpt>
<trkpt lat="46.22228265" lon="6.10758238"><ele>439.94043</ele><time>2009-08-22T15:18:01Z</time></trkpt>
<trkpt lat="46.22228508" lon="6.10758196"><ele>440.421265</ele><time>2009-08-22T15:18:02Z</time></trkpt>
<trkpt lat="46.22228826" lon="6.10758397"><ele>441.382446</ele><time>2009-08-22T15:18:03Z</time></trkpt>
<trkpt lat="46.22229145" lon="6.10758900"><ele>442.343872</ele><time>2009-08-22T15:18:04Z</time></trkpt>
<trkpt lat="46.22229296" lon="6.10759403"><ele>443.785767</ele><time>2009-08-22T15:18:05Z</time></trkpt>
<trkpt lat="46.22229463" lon="6.10759989"><ele>444.74707</ele><time>2009-08-22T15:18:06Z</time></trkpt>
<trkpt lat="46.22229237" lon="6.10759486"><ele>444.74707</ele><time>2009-08-22T15:18:07Z</time></trkpt>
<trkpt lat="46.22228516" lon="6.10758967"><ele>444.74707</ele><time>2009-08-22T15:18:08Z</time></trkpt>
<trkpt lat="46.22227033" lon="6.10757869"><ele>443.785767</ele><time>2009-08-22T15:18:09Z</time></trkpt>
<trkpt lat="46.22226899" lon="6.10757768"><ele>444.74707</ele><time>2009-08-22T15:18:10Z</time></trkpt>
<trkpt lat="46.22227024" lon="6.10757785"><ele>445.227661</ele><time>2009-08-22T15:18:11Z</time></trkpt>
<trkpt lat="46.22227293" lon="6.10757760"><ele>445.708374</ele><time>2009-08-22T15:18:12Z</time></trkpt>
<trkpt lat="46.22227653" lon="6.10758162"><ele>446.669678</ele><time>2009-08-22T15:18:13Z</time></trkpt>
<trkpt lat="46.22227946" lon="6.10758397"><ele>447.150269</ele><time>2009-08-22T15:18:14Z</time></trkpt>
<trkpt lat="46.22228139" lon="6.10758933"><ele>448.111816</ele><time>2009-08-22T15:18:15Z</time></trkpt>
<trkpt lat="46.22226840" lon="6.10757886"><ele>447.150269</ele><time>2009-08-22T15:18:16Z</time></trkpt>
<trkpt lat="46.22226915" lon="6.10757978"><ele>447.150269</ele><time>2009-08-22T15:18:17Z</time></trkpt>
<trkpt lat="46.22225842" lon="6.10756888"><ele>446.189087</ele><time>2009-08-22T15:18:18Z</time></trkpt>
<trkpt lat="46.22226287" lon="6.10757299"><ele>446.669678</ele><time>2009-08-22T15:18:19Z</time></trkpt>
<trkpt lat="46.22225708" lon="6.10756754"><ele>446.189087</ele><time>2009-08-22T15:18:20Z</time></trkpt>
<trkpt lat="46.22225398" lon="6.10756544"><ele>445.708374</ele><time>2009-08-22T15:18:21Z</time></trkpt>
<trkpt lat="46.22224770" lon="6.10756184"><ele>445.708374</ele><time>2009-08-22T15:18:22Z</time></trkpt>
<trkpt lat="46.22224686" lon="6.10755874"><ele>445.227661</ele><time>2009-08-22T15:18:23Z</time></trkpt>
<trkpt lat="46.22224376" lon="6.10755622"><ele>445.227661</ele><time>2009-08-22T15:18:24Z</time></trkpt>
<trkpt lat="46.22224116" lon="6.10755128"><ele>444.74707</ele><time>2009-08-22T15:18:25Z</time></trkpt>
<trkpt lat="46.22224275" lon="6.10755245"><ele>444.74707</ele><time>2009-08-22T15:18:26Z</time></trkpt>
<trkpt lat="46.22224493" lon="6.10755488"><ele>445.227661</ele><time>2009-08-22T15:18:27Z</time></trkpt>
<trkpt lat="46.22224644" lon="6.10755438"><ele>445.227661</ele><time>2009-08-22T15:18:28Z</time></trkpt>
<trkpt lat="46.22223898" lon="6.10754575"><ele>443.785767</ele><time>2009-08-22T15:18:29Z</time></trkpt>
<trkpt lat="46.22223806" lon="6.10754348"><ele>443.785767</ele><time>2009-08-22T15:18:30Z</time></trkpt>
<trkpt lat="46.22223093" lon="6.10753887"><ele>443.305054</ele><time>2009-08-22T15:18:31Z</time></trkpt>
<trkpt lat="46.22222506" lon="6.10753359"><ele>442.343872</ele><time>2009-08-22T15:18:32Z</time></trkpt>
<trkpt lat="46.22221869" lon="6.10753099"><ele>442.343872</ele><time>2009-08-22T15:18:33Z</time></trkpt>
<trkpt lat="46.22221475" lon="6.10752923"><ele>441.863159</ele><time>2009-08-22T15:18:34Z</time></trkpt>
<trkpt lat="46.22220964" lon="6.10752320"><ele>441.382446</ele><time>2009-08-22T15:18:35Z</time></trkpt>
<trkpt lat="46.22220579" lon="6.10751993"><ele>440.901855</ele><time>2009-08-22T15:18:36Z</time></trkpt>
<trkpt lat="46.22220780" lon="6.10751767"><ele>440.421265</ele><time>2009-08-22T15:18:37Z</time></trkpt>
<trkpt lat="46.22221232" lon="6.10752328"><ele>441.382446</ele><time>2009-08-22T15:18:38Z</time></trkpt>
<trkpt lat="46.22220679" lon="6.10752152"><ele>440.901855</ele><time>2009-08-22T15:18:39Z</time></trkpt>
<trkpt lat="46.22220352" lon="6.10752270"><ele>440.901855</ele><time>2009-08-22T15:18:40Z</time></trkpt>
<trkpt lat="46.22219782" lon="6.10751943"><ele>439.94043</ele><time>2009-08-22T15:18:41Z</time></trkpt>
<trkpt lat="46.22219833" lon="6.10752169"><ele>440.421265</ele><time>2009-08-22T15:18:42Z</time></trkpt>
<trkpt lat="46.22220386" lon="6.10752504"><ele>440.901855</ele><time>2009-08-22T15:18:43Z</time></trkpt>
<trkpt lat="46.22220939" lon="6.10752580"><ele>441.382446</ele><time>2009-08-22T15:18:44Z</time></trkpt>
<trkpt lat="46.22220679" lon="6.10753058"><ele>442.343872</ele><time>2009-08-22T15:18:45Z</time></trkpt>
<trkpt lat="46.22220092" lon="6.10752429"><ele>441.863159</ele><time>2009-08-22T15:18:46Z</time></trkpt>
<trkpt lat="46.22220218" lon="6.10752915"><ele>442.343872</ele><time>2009-08-22T15:18:47Z</time></trkpt>
<trkpt lat="46.22220595" lon="6.10753736"><ele>443.305054</ele><time>2009-08-22T15:18:48Z</time></trkpt>
<trkpt lat="46.22220553" lon="6.10753787"><ele>443.305054</ele><time>2009-08-22T15:18:49Z</time></trkpt>
<trkpt lat="46.22221174" lon="6.10754575"><ele>444.74707</ele><time>2009-08-22T15:18:50Z</time></trkpt>
<trkpt lat="46.22221459" lon="6.10754432"><ele>445.227661</ele><time>2009-08-22T15:18:51Z</time></trkpt>
<trkpt lat="46.22221802" lon="6.10754893"><ele>446.189087</ele><time>2009-08-22T15:18:52Z</time></trkpt>
<trkpt lat="46.22221802" lon="6.10755027"><ele>446.189087</ele><time>2009-08-22T15:18:53Z</time></trkpt>
<trkpt lat="46.22221719" lon="6.10755069"><ele>446.189087</ele><time>2009-08-22T15:18:54Z</time></trkpt>
<trkpt lat="46.22221559" lon="6.10754893"><ele>446.189087</ele><time>2009-08-22T15:18:55Z</time></trkpt>
<trkpt lat="46.22221014" lon="6.10753644"><ele>445.227661</ele><time>2009-08-22T15:18:56Z</time></trkpt>
<trkpt lat="46.22220780" lon="6.10752068"><ele>443.785767</ele><time>2009-08-22T15:18:57Z</time></trkpt>
<trkpt lat="46.22220855" lon="6.10751163"><ele>442.824463</ele><time>2009-08-22T15:18:58Z</time></trkpt>
<trkpt lat="46.22220646" lon="6.10751297"><ele>442.824463</ele><time>2009-08-22T15:18:59Z</time></trkpt>
<trkpt lat="46.22220805" lon="6.10752949"><ele>443.305054</ele><time>2009-08-22T15:19:00Z</time></trkpt>
<trkpt lat="46.22221065" lon="6.10753929"><ele>443.305054</ele><time>2009-08-22T15:19:01Z</time></trkpt>
<trkpt lat="46.22221836" lon="6.10753963"><ele>442.343872</ele><time>2009-08-22T15:19:02Z</time></trkpt>
<trkpt lat="46.22222984" lon="6.10754675"><ele>443.305054</ele><time>2009-08-22T15:19:03Z</time></trkpt>
<trkpt lat="46.22222599" lon="6.10754365"><ele>441.863159</ele><time>2009-08-22T15:19:04Z</time></trkpt>
<trkpt lat="46.22221509" lon="6.10753695"><ele>440.421265</ele><time>2009-08-22T15:19:05Z</time></trkpt>
<trkpt lat="46.22221786" lon="6.10752337"><ele>438.498535</ele><time>2009-08-22T15:19:06Z</time></trkpt>
<trkpt lat="46.22222188" lon="6.10750845"><ele>436.575928</ele><time>2009-08-22T15:19:07Z</time></trkpt>
<trkpt lat="46.22222339" lon="6.10749353"><ele>433.691895</ele><time>2009-08-22T15:19:08Z</time></trkpt>
<trkpt lat="46.22221953" lon="6.10747525"><ele>431.769165</ele><time>2009-08-22T15:19:09Z</time></trkpt>
<trkpt lat="46.22222180" lon="6.10746126"><ele>430.327271</ele><time>2009-08-22T15:19:10Z</time></trkpt>
<trkpt lat="46.22222004" lon="6.10744298"><ele>428.885376</ele><time>2009-08-22T15:19:11Z</time></trkpt>
<trkpt lat="46.22220646" lon="6.10743938"><ele>428.885376</ele><time>2009-08-22T15:19:12Z</time></trkpt>
<trkpt lat="46.22219849" lon="6.10743779"><ele>428.885376</ele><time>2009-08-22T15:19:13Z</time></trkpt>
<trkpt lat="46.22219807" lon="6.10743904"><ele>427.443359</ele><time>2009-08-22T15:19:14Z</time></trkpt>
<trkpt lat="46.22220612" lon="6.10744324"><ele>427.443359</ele><time>2009-08-22T15:19:15Z</time></trkpt>
<trkpt lat="46.22220805" lon="6.10744500"><ele>427.443359</ele><time>2009-08-22T15:19:16Z</time></trkpt>
<trkpt lat="46.22220520" lon="6.10744676"><ele>428.404663</ele><time>2009-08-22T15:19:17Z</time></trkpt>
<trkpt lat="46.22220302" lon="6.10745514"><ele>429.846558</ele><time>2009-08-22T15:19:18Z</time></trkpt>
<trkpt lat="46.22220210" lon="6.10745799"><ele>430.807983</ele><time>2009-08-22T15:19:19Z</time></trkpt>
<trkpt lat="46.22219707" lon="6.10746218"><ele>431.769165</ele><time>2009-08-22T15:19:20Z</time></trkpt>
<trkpt lat="46.22219782" lon="6.10745329"><ele>432.730713</ele><time>2009-08-22T15:19:21Z</time></trkpt>
<trkpt lat="46.22220185" lon="6.10746042"><ele>435.133911</ele><time>2009-08-22T15:19:22Z</time></trkpt>
<trkpt lat="46.22220042" lon="6.10746402"><ele>434.172607</ele><time>2009-08-22T15:19:23Z</time></trkpt>
<trkpt lat="46.22220126" lon="6.10746847"><ele>433.211304</ele><time>2009-08-22T15:19:24Z</time></trkpt>
<trkpt lat="46.22220889" lon="6.10749110"><ele>434.172607</ele><time>2009-08-22T15:19:25Z</time></trkpt>
<trkpt lat="46.22221626" lon="6.10750878"><ele>435.614502</ele><time>2009-08-22T15:19:26Z</time></trkpt>
<trkpt lat="46.22221123" lon="6.10752504"><ele>436.575928</ele><time>2009-08-22T15:19:27Z</time></trkpt>
<trkpt lat="46.22220453" lon="6.10753267"><ele>437.537109</ele><time>2009-08-22T15:19:28Z</time></trkpt>
<trkpt lat="46.22220218" lon="6.10753980"><ele>438.498535</ele><time>2009-08-22T15:19:29Z</time></trkpt>
<trkpt lat="46.22220168" lon="6.10757165"><ele>440.901855</ele><time>2009-08-22T15:19:30Z</time></trkpt>
<trkpt lat="46.22219749" lon="6.10760526"><ele>442.824463</ele><time>2009-08-22T15:19:31Z</time></trkpt>
<trkpt lat="46.22220160" lon="6.10760434"><ele>443.305054</ele><time>2009-08-22T15:19:32Z</time></trkpt>
<trkpt lat="46.22220562" lon="6.10759738"><ele>442.824463</ele><time>2009-08-22T15:19:33Z</time></trkpt>
<trkpt lat="46.22219849" lon="6.10757936"><ele>440.901855</ele><time>2009-08-22T15:19:34Z</time></trkpt>
<trkpt lat="46.22219640" lon="6.10757567"><ele>438.979126</ele><time>2009-08-22T15:19:35Z</time></trkpt>
<trkpt lat="46.22219774" lon="6.10757056"><ele>437.537109</ele><time>2009-08-22T15:19:36Z</time></trkpt>
<trkpt lat="46.22219179" lon="6.10755078"><ele>437.056519</ele><time>2009-08-22T15:19:37Z</time></trkpt>
<trkpt lat="46.22219506" lon="6.10751306"><ele>436.095215</ele><time>2009-08-22T15:19:38Z</time></trkpt>
<trkpt lat="46.22220336" lon="6.10749420"><ele>436.095215</ele><time>2009-08-22T15:19:39Z</time></trkpt>
<trkpt lat="46.22219757" lon="6.10746025"><ele>434.172607</ele><time>2009-08-22T15:19:40Z</time></trkpt>
<trkpt lat="46.22220017" lon="6.10742999"><ele>431.769165</ele><time>2009-08-22T15:19:41Z</time></trkpt>
<trkpt lat="46.22219782" lon="6.10740602"><ele>426.962769</ele><time>2009-08-22T15:19:42Z</time></trkpt>
<trkpt lat="46.22219757" lon="6.10739328"><ele>423.598022</ele><time>2009-08-22T15:19:43Z</time></trkpt>
<trkpt lat="46.22219833" lon="6.10738817"><ele>421.194824</ele><time>2009-08-22T15:19:44Z</time></trkpt>
<trkpt lat="46.22219145" lon="6.10736688"><ele>421.194824</ele><time>2009-08-22T15:19:45Z</time></trkpt>
<trkpt lat="46.22218198" lon="6.10734114"><ele>421.675415</ele><time>2009-08-22T15:19:46Z</time></trkpt>
<trkpt lat="46.22215692" lon="6.10731357"><ele>421.675415</ele><time>2009-08-22T15:19:47Z</time></trkpt>
<trkpt lat="46.22212708" lon="6.10728197"><ele>422.636719</ele><time>2009-08-22T15:19:48Z</time></trkpt>
<trkpt lat="46.22209816" lon="6.10724593"><ele>424.078735</ele><time>2009-08-22T15:19:49Z</time></trkpt>
<trkpt lat="46.22206028" lon="6.10720008"><ele>426.001343</ele><time>2009-08-22T15:19:50Z</time></trkpt>
<trkpt lat="46.22203035" lon="6.10715146"><ele>426.962769</ele><time>2009-08-22T15:19:51Z</time></trkpt>
<trkpt lat="46.22201107" lon="6.10710628"><ele>426.962769</ele><time>2009-08-22T15:19:52Z</time></trkpt>
<trkpt lat="46.22195458" lon="6.10705758"><ele>430.807983</ele><time>2009-08-22T15:19:53Z</time></trkpt>
<trkpt lat="46.22192726" lon="6.10701936"><ele>431.769165</ele><time>2009-08-22T15:19:54Z</time></trkpt>
<trkpt lat="46.22189825" lon="6.10697896"><ele>432.25</ele><time>2009-08-22T15:19:55Z</time></trkpt>
<trkpt lat="46.22186732" lon="6.10694233"><ele>433.211304</ele><time>2009-08-22T15:19:56Z</time></trkpt>
<trkpt lat="46.22184168" lon="6.10691065"><ele>434.65332</ele><time>2009-08-22T15:19:57Z</time></trkpt>
<trkpt lat="46.22181762" lon="6.10688508"><ele>435.614502</ele><time>2009-08-22T15:19:58Z</time></trkpt>
<trkpt lat="46.22180329" lon="6.10686966"><ele>436.575928</ele><time>2009-08-22T15:19:59Z</time></trkpt>
<trkpt lat="46.22179105" lon="6.10685533"><ele>437.056519</ele><time>2009-08-22T15:20:00Z</time></trkpt>
<trkpt lat="46.22177236" lon="6.10684108"><ele>437.537109</ele><time>2009-08-22T15:20:01Z</time></trkpt>
<trkpt lat="46.22174822" lon="6.10681979"><ele>438.017822</ele><time>2009-08-22T15:20:02Z</time></trkpt>
<trkpt lat="46.22172483" lon="6.10678886"><ele>438.498535</ele><time>2009-08-22T15:20:03Z</time></trkpt>
<trkpt lat="46.22170555" lon="6.10675424"><ele>438.498535</ele><time>2009-08-22T15:20:04Z</time></trkpt>
<trkpt lat="46.22168535" lon="6.10672155"><ele>438.498535</ele><time>2009-08-22T15:20:05Z</time></trkpt>
<trkpt lat="46.22166188" lon="6.10669222"><ele>438.979126</ele><time>2009-08-22T15:20:06Z</time></trkpt>
<trkpt lat="46.22164034" lon="6.10667386"><ele>439.459717</ele><time>2009-08-22T15:20:07Z</time></trkpt>
<trkpt lat="46.22162157" lon="6.10667638"><ele>439.459717</ele><time>2009-08-22T15:20:08Z</time></trkpt>
<trkpt lat="46.22159768" lon="6.10669415"><ele>438.979126</ele><time>2009-08-22T15:20:09Z</time></trkpt>
<trkpt lat="46.22157304" lon="6.10671460"><ele>438.979126</ele><time>2009-08-22T15:20:10Z</time></trkpt>
<trkpt lat="46.22155644" lon="6.10674175"><ele>438.979126</ele><time>2009-08-22T15:20:11Z</time></trkpt>
<trkpt lat="46.22154085" lon="6.10676908"><ele>438.498535</ele><time>2009-08-22T15:20:12Z</time></trkpt>
<trkpt lat="46.22152325" lon="6.10679188"><ele>438.979126</ele><time>2009-08-22T15:20:13Z</time></trkpt>
<trkpt lat="46.22150908" lon="6.10681325"><ele>439.459717</ele><time>2009-08-22T15:20:14Z</time></trkpt>
<trkpt lat="46.22149425" lon="6.10683253"><ele>439.459717</ele><time>2009-08-22T15:20:15Z</time></trkpt>
<trkpt lat="46.22148385" lon="6.10685273"><ele>439.459717</ele><time>2009-08-22T15:20:16Z</time></trkpt>
<trkpt lat="46.22147446" lon="6.10687369"><ele>438.979126</ele><time>2009-08-22T15:20:17Z</time></trkpt>
<trkpt lat="46.22146499" lon="6.10689598"><ele>438.979126</ele><time>2009-08-22T15:20:18Z</time></trkpt>
<trkpt lat="46.22145385" lon="6.10692037"><ele>438.498535</ele><time>2009-08-22T15:20:19Z</time></trkpt>
<trkpt lat="46.22144287" lon="6.10695013"><ele>438.017822</ele><time>2009-08-22T15:20:20Z</time></trkpt>
<trkpt lat="46.22142929" lon="6.10698533"><ele>438.017822</ele><time>2009-08-22T15:20:21Z</time></trkpt>
<trkpt lat="46.22141596" lon="6.10702498"><ele>437.537109</ele><time>2009-08-22T15:20:22Z</time></trkpt>
<trkpt lat="46.22139878" lon="6.10706563"><ele>437.537109</ele><time>2009-08-22T15:20:23Z</time></trkpt>
<trkpt lat="46.22138243" lon="6.10710754"><ele>437.056519</ele><time>2009-08-22T15:20:24Z</time></trkpt>
<trkpt lat="46.22136634" lon="6.10714685"><ele>436.575928</ele><time>2009-08-22T15:20:25Z</time></trkpt>
<trkpt lat="46.22134966" lon="6.10718323"><ele>436.095215</ele><time>2009-08-22T15:20:26Z</time></trkpt>
<trkpt lat="46.22133357" lon="6.10721936"><ele>436.095215</ele><time>2009-08-22T15:20:27Z</time></trkpt>
<trkpt lat="46.22131890" lon="6.10725649"><ele>436.095215</ele><time>2009-08-22T15:20:28Z</time></trkpt>
<trkpt lat="46.22130440" lon="6.10729337"><ele>435.614502</ele><time>2009-08-22T15:20:29Z</time></trkpt>
<trkpt lat="46.22128797" lon="6.10733268"><ele>435.133911</ele><time>2009-08-22T15:20:30Z</time></trkpt>
<trkpt lat="46.22127280" lon="6.10738356"><ele>435.133911</ele><time>2009-08-22T15:20:31Z</time></trkpt>
<trkpt lat="46.22125218" lon="6.10744265"><ele>434.65332</ele><time>2009-08-22T15:20:32Z</time></trkpt>
<trkpt lat="46.22122108" lon="6.10750912"><ele>435.133911</ele><time>2009-08-22T15:20:33Z</time></trkpt>
<trkpt lat="46.22118479" lon="6.10757953"><ele>435.133911</ele><time>2009-08-22T15:20:34Z</time></trkpt>
<trkpt lat="46.22114313" lon="6.10765404"><ele>434.65332</ele><time>2009-08-22T15:20:35Z</time></trkpt>
<trkpt lat="46.22110114" lon="6.10773954"><ele>435.133911</ele><time>2009-08-22T15:20:36Z</time></trkpt>
<trkpt lat="46.22105042" lon="6.10781807"><ele>434.65332</ele><time>2009-08-22T15:20:37Z</time></trkpt>
<trkpt lat="46.22099494" lon="6.10788815"><ele>434.65332</ele><time>2009-08-22T15:20:38Z</time></trkpt>
<trkpt lat="46.22093375" lon="6.10794053"><ele>435.133911</ele><time>2009-08-22T15:20:39Z</time></trkpt>
<trkpt lat="46.22089385" lon="6.10799787"><ele>437.537109</ele><time>2009-08-22T15:20:40Z</time></trkpt>
<trkpt lat="46.22087834" lon="6.10805788"><ele>439.94043</ele><time>2009-08-22T15:20:41Z</time></trkpt>
<trkpt lat="46.22086996" lon="6.10811002"><ele>442.343872</ele><time>2009-08-22T15:20:42Z</time></trkpt>
<trkpt lat="46.22091489" lon="6.10809962"><ele>444.266479</ele><time>2009-08-22T15:20:43Z</time></trkpt>
<trkpt lat="46.22095873" lon="6.10799585"><ele>445.227661</ele><time>2009-08-22T15:20:44Z</time></trkpt>
<trkpt lat="46.22089905" lon="6.10780617"><ele>446.189087</ele><time>2009-08-22T15:20:45Z</time></trkpt>
<trkpt lat="46.22080467" lon="6.10761523"><ele>446.669678</ele><time>2009-08-22T15:20:46Z</time></trkpt>
<trkpt lat="46.22074214" lon="6.10749453"><ele>447.630981</ele><time>2009-08-22T15:20:47Z</time></trkpt>
<trkpt lat="46.22070325" lon="6.10736805"><ele>447.630981</ele><time>2009-08-22T15:20:48Z</time></trkpt>
<trkpt lat="46.22062798" lon="6.10719706"><ele>450.515015</ele><time>2009-08-22T15:20:49Z</time></trkpt>
<trkpt lat="46.22061138" lon="6.10707644"><ele>452.437622</ele><time>2009-08-22T15:20:50Z</time></trkpt>
<trkpt lat="46.22062379" lon="6.10696798"><ele>452.918213</ele><time>2009-08-22T15:20:51Z</time></trkpt>
<trkpt lat="46.22059395" lon="6.10687603"><ele>452.437622</ele><time>2009-08-22T15:20:52Z</time></trkpt>
<trkpt lat="46.22063460" lon="6.10682247"><ele>450.515015</ele><time>2009-08-22T15:20:53Z</time></trkpt>
<trkpt lat="46.22057986" lon="6.10676313"><ele>448.111816</ele><time>2009-08-22T15:20:54Z</time></trkpt>
<trkpt lat="46.22051046" lon="6.10670982"><ele>447.150269</ele><time>2009-08-22T15:20:55Z</time></trkpt>
<trkpt lat="46.22044374" lon="6.10667353"><ele>445.227661</ele><time>2009-08-22T15:20:56Z</time></trkpt>
<trkpt lat="46.22039454" lon="6.10664788"><ele>442.824463</ele><time>2009-08-22T15:20:57Z</time></trkpt>
<trkpt lat="46.22033402" lon="6.10661670"><ele>442.824463</ele><time>2009-08-22T15:20:58Z</time></trkpt>
<trkpt lat="46.22026546" lon="6.10658132"><ele>442.824463</ele><time>2009-08-22T15:20:59Z</time></trkpt>
<trkpt lat="46.22020092" lon="6.10654805"><ele>442.343872</ele><time>2009-08-22T15:21:00Z</time></trkpt>
<trkpt lat="46.22014040" lon="6.10651687"><ele>442.343872</ele><time>2009-08-22T15:21:01Z</time></trkpt>
<trkpt lat="46.22010277" lon="6.10662458"><ele>442.824463</ele><time>2009-08-22T15:21:02Z</time></trkpt>
<trkpt lat="46.22009573" lon="6.10653028"><ele>443.305054</ele><time>2009-08-22T15:21:03Z</time></trkpt>
<trkpt lat="46.22001735" lon="6.10642182"><ele>443.785767</ele><time>2009-08-22T15:21:04Z</time></trkpt>
<trkpt lat="46.21995105" lon="6.10634546"><ele>443.305054</ele><time>2009-08-22T15:21:05Z</time></trkpt>
<trkpt lat="46.21988735" lon="6.10628637"><ele>442.824463</ele><time>2009-08-22T15:21:06Z</time></trkpt>
<trkpt lat="46.21988098" lon="6.10622928"><ele>441.382446</ele><time>2009-08-22T15:21:07Z</time></trkpt>
<trkpt lat="46.21988408" lon="6.10619073"><ele>440.901855</ele><time>2009-08-22T15:21:08Z</time></trkpt>
<trkpt lat="46.21988953" lon="6.10616433"><ele>441.863159</ele><time>2009-08-22T15:21:09Z</time></trkpt>
<trkpt lat="46.21991392" lon="6.10612954"><ele>440.901855</ele><time>2009-08-22T15:21:10Z</time></trkpt>
<trkpt lat="46.21995566" lon="6.10608654"><ele>439.459717</ele><time>2009-08-22T15:21:11Z</time></trkpt>
<trkpt lat="46.21998902" lon="6.10605469"><ele>439.94043</ele><time>2009-08-22T15:21:12Z</time></trkpt>
<trkpt lat="46.22002113" lon="6.10601546"><ele>439.94043</ele><time>2009-08-22T15:21:13Z</time></trkpt>
<trkpt lat="46.22006178" lon="6.10597632"><ele>439.94043</ele><time>2009-08-22T15:21:14Z</time></trkpt>
<trkpt lat="46.22009564" lon="6.10593827"><ele>440.421265</ele><time>2009-08-22T15:21:15Z</time></trkpt>
<trkpt lat="46.22013990" lon="6.10590977"><ele>440.901855</ele><time>2009-08-22T15:21:16Z</time></trkpt>
<trkpt lat="46.22017544" lon="6.10588286"><ele>441.382446</ele><time>2009-08-22T15:21:17Z</time></trkpt>
<trkpt lat="46.22021232" lon="6.10584539"><ele>440.901855</ele><time>2009-08-22T15:21:18Z</time></trkpt>
<trkpt lat="46.22025699" lon="6.10580566"><ele>439.94043</ele><time>2009-08-22T15:21:19Z</time></trkpt>
<trkpt lat="46.22030427" lon="6.10576250"><ele>439.459717</ele><time>2009-08-22T15:21:20Z</time></trkpt>
<trkpt lat="46.22035448" lon="6.10569796"><ele>438.498535</ele><time>2009-08-22T15:21:21Z</time></trkpt>
<trkpt lat="46.22039714" lon="6.10562420"><ele>437.537109</ele><time>2009-08-22T15:21:22Z</time></trkpt>
<trkpt lat="46.22044357" lon="6.10555270"><ele>436.095215</ele><time>2009-08-22T15:21:23Z</time></trkpt>
<trkpt lat="46.22047626" lon="6.10547064"><ele>435.614502</ele><time>2009-08-22T15:21:24Z</time></trkpt>
<trkpt lat="46.22051507" lon="6.10540526"><ele>435.614502</ele><time>2009-08-22T15:21:25Z</time></trkpt>
<trkpt lat="46.22057308" lon="6.10531038"><ele>434.65332</ele><time>2009-08-22T15:21:26Z</time></trkpt>
<trkpt lat="46.22062068" lon="6.10523812"><ele>434.65332</ele><time>2009-08-22T15:21:27Z</time></trkpt>
<trkpt lat="46.22066519" lon="6.10515875"><ele>435.614502</ele><time>2009-08-22T15:21:28Z</time></trkpt>
<trkpt lat="46.22071364" lon="6.10509102"><ele>436.095215</ele><time>2009-08-22T15:21:29Z</time></trkpt>
<trkpt lat="46.22076678" lon="6.10501844"><ele>436.095215</ele><time>2009-08-22T15:21:30Z</time></trkpt>
<trkpt lat="46.22081682" lon="6.10493168"><ele>435.133911</ele><time>2009-08-22T15:21:31Z</time></trkpt>
<trkpt lat="46.22084213" lon="6.10482926"><ele>436.095215</ele><time>2009-08-22T15:21:32Z</time></trkpt>
<trkpt lat="46.22087105" lon="6.10473848"><ele>434.65332</ele><time>2009-08-22T15:21:33Z</time></trkpt>
<trkpt lat="46.22084012" lon="6.10464184"><ele>433.691895</ele><time>2009-08-22T15:21:34Z</time></trkpt>
<trkpt lat="46.22079469" lon="6.10455433"><ele>433.691895</ele><time>2009-08-22T15:21:35Z</time></trkpt>
<trkpt lat="46.22075706" lon="6.10447495"><ele>432.730713</ele><time>2009-08-22T15:21:36Z</time></trkpt>
<trkpt lat="46.22072982" lon="6.10440597"><ele>430.807983</ele><time>2009-08-22T15:21:37Z</time></trkpt>
<trkpt lat="46.22071825" lon="6.10434470"><ele>429.365967</ele><time>2009-08-22T15:21:38Z</time></trkpt>
<trkpt lat="46.22070677" lon="6.10429516"><ele>427.92395</ele><time>2009-08-22T15:21:39Z</time></trkpt>
<trkpt lat="46.22070040" lon="6.10424378"><ele>426.962769</ele><time>2009-08-22T15:21:40Z</time></trkpt>
<trkpt lat="46.22070132" lon="6.10419508"><ele>426.482056</ele><time>2009-08-22T15:21:41Z</time></trkpt>
<trkpt lat="46.22069989" lon="6.10414596"><ele>425.520752</ele><time>2009-08-22T15:21:42Z</time></trkpt>
<trkpt lat="46.22067408" lon="6.10410422"><ele>424.559448</ele><time>2009-08-22T15:21:43Z</time></trkpt>
<trkpt lat="46.22063158" lon="6.10407664"><ele>423.598022</ele><time>2009-08-22T15:21:44Z</time></trkpt>
<trkpt lat="46.22057207" lon="6.10405443"><ele>423.598022</ele><time>2009-08-22T15:21:45Z</time></trkpt>
<trkpt lat="46.22054759" lon="6.10404513"><ele>424.078735</ele><time>2009-08-22T15:21:46Z</time></trkpt>
<trkpt lat="46.22049269" lon="6.10400883"><ele>424.559448</ele><time>2009-08-22T15:21:47Z</time></trkpt>
<trkpt lat="46.22042983" lon="6.10395603"><ele>424.559448</ele><time>2009-08-22T15:21:48Z</time></trkpt>
<trkpt lat="46.22037618" lon="6.10390238"><ele>424.078735</ele><time>2009-08-22T15:21:49Z</time></trkpt>
<trkpt lat="46.22031910" lon="6.10384497"><ele>424.078735</ele><time>2009-08-22T15:21:50Z</time></trkpt>
<trkpt lat="46.22026873" lon="6.10379434"><ele>423.598022</ele><time>2009-08-22T15:21:51Z</time></trkpt>
<trkpt lat="46.22020829" lon="6.10373366"><ele>423.598022</ele><time>2009-08-22T15:21:52Z</time></trkpt>
<trkpt lat="46.22015800" lon="6.10368303"><ele>423.117432</ele><time>2009-08-22T15:21:53Z</time></trkpt>
<trkpt lat="46.22013135" lon="6.10369158"><ele>422.156006</ele><time>2009-08-22T15:21:54Z</time></trkpt>
<trkpt lat="46.22009858" lon="6.10363274"><ele>423.117432</ele><time>2009-08-22T15:21:55Z</time></trkpt>
<trkpt lat="46.22005013" lon="6.10358127"><ele>423.117432</ele><time>2009-08-22T15:21:56Z</time></trkpt>
<trkpt lat="46.21999606" lon="6.10353014"><ele>423.598022</ele><time>2009-08-22T15:21:57Z</time></trkpt>
<trkpt lat="46.21994083" lon="6.10348195"><ele>424.078735</ele><time>2009-08-22T15:21:58Z</time></trkpt>
<trkpt lat="46.21989079" lon="6.10343903"><ele>425.040161</ele><time>2009-08-22T15:21:59Z</time></trkpt>
<trkpt lat="46.21983605" lon="6.10339955"><ele>426.001343</ele><time>2009-08-22T15:22:00Z</time></trkpt>
<trkpt lat="46.21977864" lon="6.10335907"><ele>426.482056</ele><time>2009-08-22T15:22:01Z</time></trkpt>
<trkpt lat="46.21972466" lon="6.10332185"><ele>427.443359</ele><time>2009-08-22T15:22:02Z</time></trkpt>
<trkpt lat="46.21966808" lon="6.10328564"><ele>427.92395</ele><time>2009-08-22T15:22:03Z</time></trkpt>
<trkpt lat="46.21961620" lon="6.10325078"><ele>428.885376</ele><time>2009-08-22T15:22:04Z</time></trkpt>
<trkpt lat="46.21956272" lon="6.10321255"><ele>429.846558</ele><time>2009-08-22T15:22:05Z</time></trkpt>
<trkpt lat="46.21950782" lon="6.10317023"><ele>430.327271</ele><time>2009-08-22T15:22:06Z</time></trkpt>
<trkpt lat="46.21945376" lon="6.10312069"><ele>430.807983</ele><time>2009-08-22T15:22:07Z</time></trkpt>
<trkpt lat="46.21940405" lon="6.10306118"><ele>430.807983</ele><time>2009-08-22T15:22:08Z</time></trkpt>
<trkpt lat="46.21935518" lon="6.10299697"><ele>430.807983</ele><time>2009-08-22T15:22:09Z</time></trkpt>
<trkpt lat="46.21930255" lon="6.10294073"><ele>430.327271</ele><time>2009-08-22T15:22:10Z</time></trkpt>
<trkpt lat="46.21924396" lon="6.10289304"><ele>430.327271</ele><time>2009-08-22T15:22:11Z</time></trkpt>
<trkpt lat="46.21918218" lon="6.10284794"><ele>429.846558</ele><time>2009-08-22T15:22:12Z</time></trkpt>
<trkpt lat="46.21911932" lon="6.10280318"><ele>429.846558</ele><time>2009-08-22T15:22:13Z</time></trkpt>
<trkpt lat="46.21905595" lon="6.10275825"><ele>429.365967</ele><time>2009-08-22T15:22:14Z</time></trkpt>
<trkpt lat="46.21899133" lon="6.10271207"><ele>429.365967</ele><time>2009-08-22T15:22:15Z</time></trkpt>
<trkpt lat="46.21892494" lon="6.10266563"><ele>428.885376</ele><time>2009-08-22T15:22:16Z</time></trkpt>
<trkpt lat="46.21885663" lon="6.10262155"><ele>428.885376</ele><time>2009-08-22T15:22:17Z</time></trkpt>
<trkpt lat="46.21878396" lon="6.10258173"><ele>428.885376</ele><time>2009-08-22T15:22:18Z</time></trkpt>
<trkpt lat="46.21870869" lon="6.10255064"><ele>429.365967</ele><time>2009-08-22T15:22:19Z</time></trkpt>
<trkpt lat="46.21863082" lon="6.10253094"><ele>429.365967</ele><time>2009-08-22T15:22:20Z</time></trkpt>
<trkpt lat="46.21855094" lon="6.10252457"><ele>429.846558</ele><time>2009-08-22T15:22:21Z</time></trkpt>
<trkpt lat="46.21847014" lon="6.10252976"><ele>429.365967</ele><time>2009-08-22T15:22:22Z</time></trkpt>
<trkpt lat="46.21838925" lon="6.10255307"><ele>429.365967</ele><time>2009-08-22T15:22:23Z</time></trkpt>
<trkpt lat="46.21831373" lon="6.10259648"><ele>429.365967</ele><time>2009-08-22T15:22:24Z</time></trkpt>
<trkpt lat="46.21824316" lon="6.10265088"><ele>429.846558</ele><time>2009-08-22T15:22:25Z</time></trkpt>
<trkpt lat="46.21817778" lon="6.10270922"><ele>429.365967</ele><time>2009-08-22T15:22:26Z</time></trkpt>
<trkpt lat="46.21811450" lon="6.10277116"><ele>429.365967</ele><time>2009-08-22T15:22:27Z</time></trkpt>
<trkpt lat="46.21805314" lon="6.10283763"><ele>429.365967</ele><time>2009-08-22T15:22:28Z</time></trkpt>
<trkpt lat="46.21799296" lon="6.10290527"><ele>429.365967</ele><time>2009-08-22T15:22:29Z</time></trkpt>
<trkpt lat="46.21793428" lon="6.10297208"><ele>428.885376</ele><time>2009-08-22T15:22:30Z</time></trkpt>
<trkpt lat="46.21787553" lon="6.10303477"><ele>428.885376</ele><time>2009-08-22T15:22:31Z</time></trkpt>
<trkpt lat="46.21781727" lon="6.10309529"><ele>428.885376</ele><time>2009-08-22T15:22:32Z</time></trkpt>
<trkpt lat="46.21776070" lon="6.10315707"><ele>428.404663</ele><time>2009-08-22T15:22:33Z</time></trkpt>
<trkpt lat="46.21770462" lon="6.10321918"><ele>428.404663</ele><time>2009-08-22T15:22:34Z</time></trkpt>
<trkpt lat="46.21764855" lon="6.10328129"><ele>427.92395</ele><time>2009-08-22T15:22:35Z</time></trkpt>
<trkpt lat="46.21759239" lon="6.10334356"><ele>427.92395</ele><time>2009-08-22T15:22:36Z</time></trkpt>
<trkpt lat="46.21753539" lon="6.10340483"><ele>427.92395</ele><time>2009-08-22T15:22:37Z</time></trkpt>
<trkpt lat="46.21747755" lon="6.10346527"><ele>427.443359</ele><time>2009-08-22T15:22:38Z</time></trkpt>
<trkpt lat="46.21742056" lon="6.10352763"><ele>427.443359</ele><time>2009-08-22T15:22:39Z</time></trkpt>
<trkpt lat="46.21736473" lon="6.10358907"><ele>427.443359</ele><time>2009-08-22T15:22:40Z</time></trkpt>
<trkpt lat="46.21730849" lon="6.10364900"><ele>426.962769</ele><time>2009-08-22T15:22:41Z</time></trkpt>
<trkpt lat="46.21725225" lon="6.10370868"><ele>426.962769</ele><time>2009-08-22T15:22:42Z</time></trkpt>
<trkpt lat="46.21719575" lon="6.10376752"><ele>426.962769</ele><time>2009-08-22T15:22:43Z</time></trkpt>
<trkpt lat="46.21713934" lon="6.10382795"><ele>426.962769</ele><time>2009-08-22T15:22:44Z</time></trkpt>
<trkpt lat="46.21708067" lon="6.10388587"><ele>426.482056</ele><time>2009-08-22T15:22:45Z</time></trkpt>
<trkpt lat="46.21702074" lon="6.10394220"><ele>426.001343</ele><time>2009-08-22T15:22:46Z</time></trkpt>
<trkpt lat="46.21696140" lon="6.10400112"><ele>426.001343</ele><time>2009-08-22T15:22:47Z</time></trkpt>
<trkpt lat="46.21690557" lon="6.10406147"><ele>426.001343</ele><time>2009-08-22T15:22:48Z</time></trkpt>
<trkpt lat="46.21685503" lon="6.10412107"><ele>425.040161</ele><time>2009-08-22T15:22:49Z</time></trkpt>
<trkpt lat="46.21680256" lon="6.10418368"><ele>425.520752</ele><time>2009-08-22T15:22:50Z</time></trkpt>
<trkpt lat="46.21674665" lon="6.10424688"><ele>425.520752</ele><time>2009-08-22T15:22:51Z</time></trkpt>
<trkpt lat="46.21669267" lon="6.10430958"><ele>426.001343</ele><time>2009-08-22T15:22:52Z</time></trkpt>
<trkpt lat="46.21663777" lon="6.10436892"><ele>426.001343</ele><time>2009-08-22T15:22:53Z</time></trkpt>
<trkpt lat="46.21658304" lon="6.10442827"><ele>426.001343</ele><time>2009-08-22T15:22:54Z</time></trkpt>
<trkpt lat="46.21652923" lon="6.10448694"><ele>426.001343</ele><time>2009-08-22T15:22:55Z</time></trkpt>
<trkpt lat="46.21647877" lon="6.10454796"><ele>426.482056</ele><time>2009-08-22T15:22:56Z</time></trkpt>
<trkpt lat="46.21642604" lon="6.10460546"><ele>426.482056</ele><time>2009-08-22T15:22:57Z</time></trkpt>
<trkpt lat="46.21637207" lon="6.10466195"><ele>426.482056</ele><time>2009-08-22T15:22:58Z</time></trkpt>
<trkpt lat="46.21631758" lon="6.10471912"><ele>426.482056</ele><time>2009-08-22T15:22:59Z</time></trkpt>
<trkpt lat="46.21626385" lon="6.10477880"><ele>426.962769</ele><time>2009-08-22T15:23:00Z</time></trkpt>
<trkpt lat="46.21619998" lon="6.10481744"><ele>426.482056</ele><time>2009-08-22T15:23:01Z</time></trkpt>
<trkpt lat="46.21617023" lon="6.10487209"><ele>427.443359</ele><time>2009-08-22T15:23:02Z</time></trkpt>
<trkpt lat="46.21611348" lon="6.10492045"><ele>427.443359</ele><time>2009-08-22T15:23:03Z</time></trkpt>
<trkpt lat="46.21605288" lon="6.10496823"><ele>427.443359</ele><time>2009-08-22T15:23:04Z</time></trkpt>
<trkpt lat="46.21599605" lon="6.10501584"><ele>427.443359</ele><time>2009-08-22T15:23:05Z</time></trkpt>
<trkpt lat="46.21594492" lon="6.10506286"><ele>426.962769</ele><time>2009-08-22T15:23:06Z</time></trkpt>
<trkpt lat="46.21589857" lon="6.10511097"><ele>426.962769</ele><time>2009-08-22T15:23:07Z</time></trkpt>
<trkpt lat="46.21585398" lon="6.10515900"><ele>426.962769</ele><time>2009-08-22T15:23:08Z</time></trkpt>
<trkpt lat="46.21581056" lon="6.10520686"><ele>426.962769</ele><time>2009-08-22T15:23:09Z</time></trkpt>
<trkpt lat="46.21576807" lon="6.10525187"><ele>426.962769</ele><time>2009-08-22T15:23:10Z</time></trkpt>
<trkpt lat="46.21572515" lon="6.10529445"><ele>426.482056</ele><time>2009-08-22T15:23:11Z</time></trkpt>
<trkpt lat="46.21568919" lon="6.10533779"><ele>426.001343</ele><time>2009-08-22T15:23:12Z</time></trkpt>
<trkpt lat="46.21565407" lon="6.10536352"><ele>425.520752</ele><time>2009-08-22T15:23:13Z</time></trkpt>
<trkpt lat="46.21561929" lon="6.10537928"><ele>426.001343</ele><time>2009-08-22T15:23:14Z</time></trkpt>
<trkpt lat="46.21559079" lon="6.10537165"><ele>426.001343</ele><time>2009-08-22T15:23:15Z</time></trkpt>
<trkpt lat="46.21556313" lon="6.10533678"><ele>426.482056</ele><time>2009-08-22T15:23:16Z</time></trkpt>
<trkpt lat="46.21553178" lon="6.10528246"><ele>426.001343</ele><time>2009-08-22T15:23:17Z</time></trkpt>
<trkpt lat="46.21549976" lon="6.10521994"><ele>425.520752</ele><time>2009-08-22T15:23:18Z</time></trkpt>
<trkpt lat="46.21546372" lon="6.10515154"><ele>425.040161</ele><time>2009-08-22T15:23:19Z</time></trkpt>
<trkpt lat="46.21542382" lon="6.10507912"><ele>425.040161</ele><time>2009-08-22T15:23:20Z</time></trkpt>
<trkpt lat="46.21538308" lon="6.10500452"><ele>424.559448</ele><time>2009-08-22T15:23:21Z</time></trkpt>
<trkpt lat="46.21533967" lon="6.10492632"><ele>424.078735</ele><time>2009-08-22T15:23:22Z</time></trkpt>
<trkpt lat="46.21529449" lon="6.10484845"><ele>423.598022</ele><time>2009-08-22T15:23:23Z</time></trkpt>
<trkpt lat="46.21525375" lon="6.10478265"><ele>423.598022</ele><time>2009-08-22T15:23:24Z</time></trkpt>
<trkpt lat="46.21522970" lon="6.10471275"><ele>423.598022</ele><time>2009-08-22T15:23:25Z</time></trkpt>
<trkpt lat="46.21519005" lon="6.10463622"><ele>423.598022</ele><time>2009-08-22T15:23:26Z</time></trkpt>
<trkpt lat="46.21514655" lon="6.10455249"><ele>423.598022</ele><time>2009-08-22T15:23:27Z</time></trkpt>
<trkpt lat="46.21509072" lon="6.10448208"><ele>424.078735</ele><time>2009-08-22T15:23:28Z</time></trkpt>
<trkpt lat="46.21504705" lon="6.10442324"><ele>424.559448</ele><time>2009-08-22T15:23:29Z</time></trkpt>
<trkpt lat="46.21500095" lon="6.10437102"><ele>424.559448</ele><time>2009-08-22T15:23:30Z</time></trkpt>
<trkpt lat="46.21495360" lon="6.10432274"><ele>425.520752</ele><time>2009-08-22T15:23:31Z</time></trkpt>
<trkpt lat="46.21490817" lon="6.10427739"><ele>426.482056</ele><time>2009-08-22T15:23:32Z</time></trkpt>
<trkpt lat="46.21485318" lon="6.10422794"><ele>426.962769</ele><time>2009-08-22T15:23:33Z</time></trkpt>
<trkpt lat="46.21479727" lon="6.10417907"><ele>427.443359</ele><time>2009-08-22T15:23:34Z</time></trkpt>
<trkpt lat="46.21474137" lon="6.10413062"><ele>427.92395</ele><time>2009-08-22T15:23:35Z</time></trkpt>
<trkpt lat="46.21468772" lon="6.10408234"><ele>427.92395</ele><time>2009-08-22T15:23:36Z</time></trkpt>
<trkpt lat="46.21463399" lon="6.10403465"><ele>428.404663</ele><time>2009-08-22T15:23:37Z</time></trkpt>
<trkpt lat="46.21458127" lon="6.10398922"><ele>428.404663</ele><time>2009-08-22T15:23:38Z</time></trkpt>
<trkpt lat="46.21452997" lon="6.10394714"><ele>428.404663</ele><time>2009-08-22T15:23:39Z</time></trkpt>
<trkpt lat="46.21447667" lon="6.10389962"><ele>428.404663</ele><time>2009-08-22T15:23:40Z</time></trkpt>
<trkpt lat="46.21442453" lon="6.10385042"><ele>428.885376</ele><time>2009-08-22T15:23:41Z</time></trkpt>
<trkpt lat="46.21437457" lon="6.10379895"><ele>428.885376</ele><time>2009-08-22T15:23:42Z</time></trkpt>
<trkpt lat="46.21432805" lon="6.10374346"><ele>429.365967</ele><time>2009-08-22T15:23:43Z</time></trkpt>
<trkpt lat="46.21428279" lon="6.10368932"><ele>429.365967</ele><time>2009-08-22T15:23:44Z</time></trkpt>
<trkpt lat="46.21423569" lon="6.10364162"><ele>429.846558</ele><time>2009-08-22T15:23:45Z</time></trkpt>
<trkpt lat="46.21418824" lon="6.10359904"><ele>429.846558</ele><time>2009-08-22T15:23:46Z</time></trkpt>
<trkpt lat="46.21414265" lon="6.10355864"><ele>429.846558</ele><time>2009-08-22T15:23:47Z</time></trkpt>
<trkpt lat="46.21409873" lon="6.10351933"><ele>429.846558</ele><time>2009-08-22T15:23:48Z</time></trkpt>
<trkpt lat="46.21405782" lon="6.10348153"><ele>430.327271</ele><time>2009-08-22T15:23:49Z</time></trkpt>
<trkpt lat="46.21401415" lon="6.10344264"><ele>430.327271</ele><time>2009-08-22T15:23:50Z</time></trkpt>
<trkpt lat="46.21397593" lon="6.10340609"><ele>430.327271</ele><time>2009-08-22T15:23:51Z</time></trkpt>
<trkpt lat="46.21393628" lon="6.10336888"><ele>430.327271</ele><time>2009-08-22T15:23:52Z</time></trkpt>
<trkpt lat="46.21389672" lon="6.10333392"><ele>430.807983</ele><time>2009-08-22T15:23:53Z</time></trkpt>
<trkpt lat="46.21385917" lon="6.10330274"><ele>430.807983</ele><time>2009-08-22T15:23:54Z</time></trkpt>
<trkpt lat="46.21382816" lon="6.10327760"><ele>430.807983</ele><time>2009-08-22T15:23:55Z</time></trkpt>
<trkpt lat="46.21381114" lon="6.10326502"><ele>431.288574</ele><time>2009-08-22T15:23:56Z</time></trkpt>
<trkpt lat="46.21380578" lon="6.10326192"><ele>431.288574</ele><time>2009-08-22T15:23:57Z</time></trkpt>
<trkpt lat="46.21380645" lon="6.10326142"><ele>431.288574</ele><time>2009-08-22T15:23:58Z</time></trkpt>
<trkpt lat="46.21380444" lon="6.10325983"><ele>431.288574</ele><time>2009-08-22T15:23:59Z</time></trkpt>
<trkpt lat="46.21380544" lon="6.10326033"><ele>431.769165</ele><time>2009-08-22T15:24:00Z</time></trkpt>
<trkpt lat="46.21380745" lon="6.10326083"><ele>431.288574</ele><time>2009-08-22T15:24:01Z</time></trkpt>
<trkpt lat="46.21380972" lon="6.10326209"><ele>431.288574</ele><time>2009-08-22T15:24:02Z</time></trkpt>
<trkpt lat="46.21381139" lon="6.10326318"><ele>431.288574</ele><time>2009-08-22T15:24:03Z</time></trkpt>
<trkpt lat="46.21381248" lon="6.10326368"><ele>430.807983</ele><time>2009-08-22T15:24:04Z</time></trkpt>
<trkpt lat="46.21381307" lon="6.10326419"><ele>430.807983</ele><time>2009-08-22T15:24:05Z</time></trkpt>
<trkpt lat="46.21381324" lon="6.10326452"><ele>430.807983</ele><time>2009-08-22T15:24:06Z</time></trkpt>
<trkpt lat="46.21381324" lon="6.10326477"><ele>430.807983</ele><time>2009-08-22T15:24:07Z</time></trkpt>
<trkpt lat="46.21381299" lon="6.10326553"><ele>430.327271</ele><time>2009-08-22T15:24:08Z</time></trkpt>
<trkpt lat="46.21381265" lon="6.10326687"><ele>430.327271</ele><time>2009-08-22T15:24:09Z</time></trkpt>
<trkpt lat="46.21381114" lon="6.10326704"><ele>430.327271</ele><time>2009-08-22T15:24:10Z</time></trkpt>
<trkpt lat="46.21380955" lon="6.10326729"><ele>430.807983</ele><time>2009-08-22T15:24:11Z</time></trkpt>
<trkpt lat="46.21380754" lon="6.10326829"><ele>430.807983</ele><time>2009-08-22T15:24:12Z</time></trkpt>
<trkpt lat="46.21380653" lon="6.10326813"><ele>430.807983</ele><time>2009-08-22T15:24:13Z</time></trkpt>
<trkpt lat="46.21380578" lon="6.10326737"><ele>430.807983</ele><time>2009-08-22T15:24:14Z</time></trkpt>
<trkpt lat="46.21380419" lon="6.10326704"><ele>430.807983</ele><time>2009-08-22T15:24:15Z</time></trkpt>
<trkpt lat="46.21380167" lon="6.10326335"><ele>430.807983</ele><time>2009-08-22T15:24:16Z</time></trkpt>
<trkpt lat="46.21379916" lon="6.10325958"><ele>430.327271</ele><time>2009-08-22T15:24:17Z</time></trkpt>
<trkpt lat="46.21379689" lon="6.10325715"><ele>429.365967</ele><time>2009-08-22T15:24:18Z</time></trkpt>
<trkpt lat="46.21379497" lon="6.10325505"><ele>429.365967</ele><time>2009-08-22T15:24:19Z</time></trkpt>
<trkpt lat="46.21379312" lon="6.10325304"><ele>428.885376</ele><time>2009-08-22T15:24:20Z</time></trkpt>
<trkpt lat="46.21379153" lon="6.10325136"><ele>428.404663</ele><time>2009-08-22T15:24:21Z</time></trkpt>
<trkpt lat="46.21379002" lon="6.10324977"><ele>427.92395</ele><time>2009-08-22T15:24:22Z</time></trkpt>
<trkpt lat="46.21378868" lon="6.10324818"><ele>427.92395</ele><time>2009-08-22T15:24:23Z</time></trkpt>
<trkpt lat="46.21378725" lon="6.10324667"><ele>427.443359</ele><time>2009-08-22T15:24:24Z</time></trkpt>
<trkpt lat="46.21378583" lon="6.10324524"><ele>426.962769</ele><time>2009-08-22T15:24:25Z</time></trkpt>
<trkpt lat="46.21378457" lon="6.10324399"><ele>426.962769</ele><time>2009-08-22T15:24:26Z</time></trkpt>
<trkpt lat="46.21378357" lon="6.10324273"><ele>426.482056</ele><time>2009-08-22T15:24:27Z</time></trkpt>
<trkpt lat="46.21378214" lon="6.10324298"><ele>426.001343</ele><time>2009-08-22T15:24:28Z</time></trkpt>
<trkpt lat="46.21377720" lon="6.10324105"><ele>426.001343</ele><time>2009-08-22T15:24:29Z</time></trkpt>
<trkpt lat="46.21376077" lon="6.10322982"><ele>426.482056</ele><time>2009-08-22T15:24:30Z</time></trkpt>
<trkpt lat="46.21374249" lon="6.10321239"><ele>426.482056</ele><time>2009-08-22T15:24:31Z</time></trkpt>
<trkpt lat="46.21372229" lon="6.10319428"><ele>426.482056</ele><time>2009-08-22T15:24:32Z</time></trkpt>
<trkpt lat="46.21370000" lon="6.10317903"><ele>426.962769</ele><time>2009-08-22T15:24:33Z</time></trkpt>
<trkpt lat="46.21367678" lon="6.10316436"><ele>426.962769</ele><time>2009-08-22T15:24:34Z</time></trkpt>
<trkpt lat="46.21365155" lon="6.10315413"><ele>426.962769</ele><time>2009-08-22T15:24:35Z</time></trkpt>
<trkpt lat="46.21362247" lon="6.10315204"><ele>426.482056</ele><time>2009-08-22T15:24:36Z</time></trkpt>
<trkpt lat="46.21358626" lon="6.10316268"><ele>426.962769</ele><time>2009-08-22T15:24:37Z</time></trkpt>
<trkpt lat="46.21354694" lon="6.10318867"><ele>426.962769</ele><time>2009-08-22T15:24:38Z</time></trkpt>
<trkpt lat="46.21350688" lon="6.10322689"><ele>426.962769</ele><time>2009-08-22T15:24:39Z</time></trkpt>
<trkpt lat="46.21346639" lon="6.10327349"><ele>426.962769</ele><time>2009-08-22T15:24:40Z</time></trkpt>
<trkpt lat="46.21342583" lon="6.10332588"><ele>427.443359</ele><time>2009-08-22T15:24:41Z</time></trkpt>
<trkpt lat="46.21338408" lon="6.10338128"><ele>427.92395</ele><time>2009-08-22T15:24:42Z</time></trkpt>
<trkpt lat="46.21333832" lon="6.10342906"><ele>427.92395</ele><time>2009-08-22T15:24:43Z</time></trkpt>
<trkpt lat="46.21329079" lon="6.10347642"><ele>428.404663</ele><time>2009-08-22T15:24:44Z</time></trkpt>
<trkpt lat="46.21324629" lon="6.10353316"><ele>428.885376</ele><time>2009-08-22T15:24:45Z</time></trkpt>
<trkpt lat="46.21320589" lon="6.10359452"><ele>428.885376</ele><time>2009-08-22T15:24:46Z</time></trkpt>
<trkpt lat="46.21316532" lon="6.10365269"><ele>428.404663</ele><time>2009-08-22T15:24:47Z</time></trkpt>
<trkpt lat="46.21312173" lon="6.10371094"><ele>428.404663</ele><time>2009-08-22T15:24:48Z</time></trkpt>
<trkpt lat="46.21307865" lon="6.10376920"><ele>428.404663</ele><time>2009-08-22T15:24:49Z</time></trkpt>
<trkpt lat="46.21303506" lon="6.10382636"><ele>427.92395</ele><time>2009-08-22T15:24:50Z</time></trkpt>
<trkpt lat="46.21298913" lon="6.10388177"><ele>427.92395</ele><time>2009-08-22T15:24:51Z</time></trkpt>
<trkpt lat="46.21294135" lon="6.10394077"><ele>428.404663</ele><time>2009-08-22T15:24:52Z</time></trkpt>
<trkpt lat="46.21289399" lon="6.10399844"><ele>428.404663</ele><time>2009-08-22T15:24:53Z</time></trkpt>
<trkpt lat="46.21284915" lon="6.10406248"><ele>428.885376</ele><time>2009-08-22T15:24:54Z</time></trkpt>
<trkpt lat="46.21280515" lon="6.10412903"><ele>428.885376</ele><time>2009-08-22T15:24:55Z</time></trkpt>
<trkpt lat="46.21275997" lon="6.10419692"><ele>429.365967</ele><time>2009-08-22T15:24:56Z</time></trkpt>
<trkpt lat="46.21271554" lon="6.10426272"><ele>429.365967</ele><time>2009-08-22T15:24:57Z</time></trkpt>
<trkpt lat="46.21266877" lon="6.10433028"><ele>429.846558</ele><time>2009-08-22T15:24:58Z</time></trkpt>
<trkpt lat="46.21262326" lon="6.10439315"><ele>429.846558</ele><time>2009-08-22T15:24:59Z</time></trkpt>
<trkpt lat="46.21257657" lon="6.10445609"><ele>429.365967</ele><time>2009-08-22T15:25:00Z</time></trkpt>
<trkpt lat="46.21252762" lon="6.10452206"><ele>429.846558</ele><time>2009-08-22T15:25:01Z</time></trkpt>
<trkpt lat="46.21247842" lon="6.10458995"><ele>429.846558</ele><time>2009-08-22T15:25:02Z</time></trkpt>
<trkpt lat="46.21242964" lon="6.10465977"><ele>430.327271</ele><time>2009-08-22T15:25:03Z</time></trkpt>
<trkpt lat="46.21238287" lon="6.10473135"><ele>430.327271</ele><time>2009-08-22T15:25:04Z</time></trkpt>
<trkpt lat="46.21233802" lon="6.10480503"><ele>430.807983</ele><time>2009-08-22T15:25:05Z</time></trkpt>
<trkpt lat="46.21229402" lon="6.10487930"><ele>431.288574</ele><time>2009-08-22T15:25:06Z</time></trkpt>
<trkpt lat="46.21225177" lon="6.10495465"><ele>431.769165</ele><time>2009-08-22T15:25:07Z</time></trkpt>
<trkpt lat="46.21221246" lon="6.10503369"><ele>432.25</ele><time>2009-08-22T15:25:08Z</time></trkpt>
<trkpt lat="46.21217449" lon="6.10511533"><ele>432.730713</ele><time>2009-08-22T15:25:09Z</time></trkpt>
<trkpt lat="46.21213895" lon="6.10519823"><ele>433.211304</ele><time>2009-08-22T15:25:10Z</time></trkpt>
<trkpt lat="46.21210375" lon="6.10528322"><ele>433.691895</ele><time>2009-08-22T15:25:11Z</time></trkpt>
<trkpt lat="46.21207064" lon="6.10536662"><ele>433.691895</ele><time>2009-08-22T15:25:12Z</time></trkpt>
<trkpt lat="46.21203669" lon="6.10544818"><ele>433.691895</ele><time>2009-08-22T15:25:13Z</time></trkpt>
<trkpt lat="46.21200484" lon="6.10553049"><ele>434.172607</ele><time>2009-08-22T15:25:14Z</time></trkpt>
<trkpt lat="46.21197802" lon="6.10560827"><ele>434.172607</ele><time>2009-08-22T15:25:15Z</time></trkpt>
<trkpt lat="46.21195120" lon="6.10568480"><ele>434.172607</ele><time>2009-08-22T15:25:16Z</time></trkpt>
<trkpt lat="46.21192748" lon="6.10576484"><ele>434.172607</ele><time>2009-08-22T15:25:17Z</time></trkpt>
<trkpt lat="46.21191172" lon="6.10584565"><ele>434.172607</ele><time>2009-08-22T15:25:18Z</time></trkpt>
<trkpt lat="46.21189663" lon="6.10592502"><ele>434.65332</ele><time>2009-08-22T15:25:19Z</time></trkpt>
<trkpt lat="46.21188180" lon="6.10600314"><ele>434.65332</ele><time>2009-08-22T15:25:20Z</time></trkpt>
<trkpt lat="46.21186537" lon="6.10607967"><ele>434.65332</ele><time>2009-08-22T15:25:21Z</time></trkpt>
<trkpt lat="46.21184634" lon="6.10615636"><ele>434.65332</ele><time>2009-08-22T15:25:22Z</time></trkpt>
<trkpt lat="46.21182689" lon="6.10623406"><ele>434.172607</ele><time>2009-08-22T15:25:23Z</time></trkpt>
<trkpt lat="46.21180410" lon="6.10631160"><ele>434.65332</ele><time>2009-08-22T15:25:24Z</time></trkpt>
<trkpt lat="46.21177929" lon="6.10638795"><ele>435.133911</ele><time>2009-08-22T15:25:25Z</time></trkpt>
<trkpt lat="46.21175473" lon="6.10646406"><ele>435.614502</ele><time>2009-08-22T15:25:26Z</time></trkpt>
<trkpt lat="46.21173176" lon="6.10654118"><ele>436.095215</ele><time>2009-08-22T15:25:27Z</time></trkpt>
<trkpt lat="46.21171114" lon="6.10661636"><ele>436.095215</ele><time>2009-08-22T15:25:28Z</time></trkpt>
<trkpt lat="46.21168926" lon="6.10669138"><ele>435.614502</ele><time>2009-08-22T15:25:29Z</time></trkpt>
<trkpt lat="46.21166714" lon="6.10676858"><ele>436.095215</ele><time>2009-08-22T15:25:30Z</time></trkpt>
<trkpt lat="46.21164534" lon="6.10684443"><ele>436.095215</ele><time>2009-08-22T15:25:31Z</time></trkpt>
<trkpt lat="46.21162330" lon="6.10691836"><ele>435.614502</ele><time>2009-08-22T15:25:32Z</time></trkpt>
<trkpt lat="46.21160058" lon="6.10699489"><ele>436.095215</ele><time>2009-08-22T15:25:33Z</time></trkpt>
<trkpt lat="46.21157787" lon="6.10707167"><ele>436.575928</ele><time>2009-08-22T15:25:34Z</time></trkpt>
<trkpt lat="46.21155700" lon="6.10714878"><ele>436.575928</ele><time>2009-08-22T15:25:35Z</time></trkpt>
<trkpt lat="46.21153445" lon="6.10722338"><ele>436.575928</ele><time>2009-08-22T15:25:36Z</time></trkpt>
<trkpt lat="46.21151182" lon="6.10729488"><ele>436.575928</ele><time>2009-08-22T15:25:37Z</time></trkpt>
<trkpt lat="46.21148936" lon="6.10736562"><ele>436.575928</ele><time>2009-08-22T15:25:38Z</time></trkpt>
<trkpt lat="46.21146748" lon="6.10744039"><ele>436.575928</ele><time>2009-08-22T15:25:39Z</time></trkpt>
<trkpt lat="46.21144434" lon="6.10751624"><ele>436.575928</ele><time>2009-08-22T15:25:40Z</time></trkpt>
<trkpt lat="46.21142037" lon="6.10758766"><ele>437.056519</ele><time>2009-08-22T15:25:41Z</time></trkpt>
<trkpt lat="46.21139648" lon="6.10765857"><ele>437.056519</ele><time>2009-08-22T15:25:42Z</time></trkpt>
<trkpt lat="46.21137477" lon="6.10773166"><ele>437.056519</ele><time>2009-08-22T15:25:43Z</time></trkpt>
<trkpt lat="46.21135172" lon="6.10780776"><ele>437.056519</ele><time>2009-08-22T15:25:44Z</time></trkpt>
<trkpt lat="46.21133035" lon="6.10788178"><ele>437.537109</ele><time>2009-08-22T15:25:45Z</time></trkpt>
<trkpt lat="46.21131183" lon="6.10795805"><ele>437.537109</ele><time>2009-08-22T15:25:46Z</time></trkpt>
<trkpt lat="46.21129557" lon="6.10803718"><ele>437.537109</ele><time>2009-08-22T15:25:47Z</time></trkpt>
<trkpt lat="46.21127922" lon="6.10811622"><ele>437.537109</ele><time>2009-08-22T15:25:48Z</time></trkpt>
<trkpt lat="46.21125885" lon="6.10819375"><ele>437.537109</ele><time>2009-08-22T15:25:49Z</time></trkpt>
<trkpt lat="46.21123957" lon="6.10827304"><ele>437.537109</ele><time>2009-08-22T15:25:50Z</time></trkpt>
<trkpt lat="46.21122465" lon="6.10835477"><ele>437.537109</ele><time>2009-08-22T15:25:51Z</time></trkpt>
<trkpt lat="46.21122876" lon="6.10844328"><ele>438.017822</ele><time>2009-08-22T15:25:52Z</time></trkpt>
<trkpt lat="46.21121217" lon="6.10852459"><ele>438.017822</ele><time>2009-08-22T15:25:53Z</time></trkpt>
<trkpt lat="46.21118878" lon="6.10859524"><ele>437.537109</ele><time>2009-08-22T15:25:54Z</time></trkpt>
<trkpt lat="46.21115198" lon="6.10865484"><ele>436.575928</ele><time>2009-08-22T15:25:55Z</time></trkpt>
<trkpt lat="46.21110446" lon="6.10869943"><ele>436.575928</ele><time>2009-08-22T15:25:56Z</time></trkpt>
<trkpt lat="46.21105475" lon="6.10872936"><ele>437.056519</ele><time>2009-08-22T15:25:57Z</time></trkpt>
<trkpt lat="46.21099776" lon="6.10875098"><ele>436.575928</ele><time>2009-08-22T15:25:58Z</time></trkpt>
<trkpt lat="46.21093724" lon="6.10876934"><ele>436.575928</ele><time>2009-08-22T15:25:59Z</time></trkpt>
<trkpt lat="46.21087605" lon="6.10878820"><ele>436.575928</ele><time>2009-08-22T15:26:00Z</time></trkpt>
<trkpt lat="46.21081453" lon="6.10880345"><ele>436.575928</ele><time>2009-08-22T15:26:01Z</time></trkpt>
<trkpt lat="46.21075200" lon="6.10881669"><ele>436.095215</ele><time>2009-08-22T15:26:02Z</time></trkpt>
<trkpt lat="46.21069106" lon="6.10882784"><ele>436.095215</ele><time>2009-08-22T15:26:03Z</time></trkpt>
<trkpt lat="46.21062652" lon="6.10881762"><ele>435.614502</ele><time>2009-08-22T15:26:04Z</time></trkpt>
<trkpt lat="46.21056357" lon="6.10882265"><ele>435.614502</ele><time>2009-08-22T15:26:05Z</time></trkpt>
<trkpt lat="46.21050373" lon="6.10884117"><ele>436.095215</ele><time>2009-08-22T15:26:06Z</time></trkpt>
<trkpt lat="46.21044162" lon="6.10886103"><ele>435.614502</ele><time>2009-08-22T15:26:07Z</time></trkpt>
<trkpt lat="46.21037347" lon="6.10888124"><ele>434.65332</ele><time>2009-08-22T15:26:08Z</time></trkpt>
<trkpt lat="46.21030265" lon="6.10890269"><ele>434.172607</ele><time>2009-08-22T15:26:09Z</time></trkpt>
<trkpt lat="46.21023433" lon="6.10892122"><ele>433.691895</ele><time>2009-08-22T15:26:10Z</time></trkpt>
<trkpt lat="46.21017046" lon="6.10894024"><ele>432.25</ele><time>2009-08-22T15:26:11Z</time></trkpt>
<trkpt lat="46.21010307" lon="6.10895994"><ele>432.25</ele><time>2009-08-22T15:26:12Z</time></trkpt>
<trkpt lat="46.21003526" lon="6.10898014"><ele>431.288574</ele><time>2009-08-22T15:26:13Z</time></trkpt>
<trkpt lat="46.20996645" lon="6.10900118"><ele>430.807983</ele><time>2009-08-22T15:26:14Z</time></trkpt>
<trkpt lat="46.20989646" lon="6.10901635"><ele>430.327271</ele><time>2009-08-22T15:26:15Z</time></trkpt>
<trkpt lat="46.20982613" lon="6.10903186"><ele>429.846558</ele><time>2009-08-22T15:26:16Z</time></trkpt>
<trkpt lat="46.20975782" lon="6.10905248"><ele>429.365967</ele><time>2009-08-22T15:26:17Z</time></trkpt>
<trkpt lat="46.20968976" lon="6.10907125"><ele>428.885376</ele><time>2009-08-22T15:26:18Z</time></trkpt>
<trkpt lat="46.20962153" lon="6.10909020"><ele>428.885376</ele><time>2009-08-22T15:26:19Z</time></trkpt>
<trkpt lat="46.20955439" lon="6.10911006"><ele>427.92395</ele><time>2009-08-22T15:26:20Z</time></trkpt>
<trkpt lat="46.20948558" lon="6.10912750"><ele>427.443359</ele><time>2009-08-22T15:26:21Z</time></trkpt>
<trkpt lat="46.20941718" lon="6.10914066"><ele>426.962769</ele><time>2009-08-22T15:26:22Z</time></trkpt>
<trkpt lat="46.20934644" lon="6.10915465"><ele>426.962769</ele><time>2009-08-22T15:26:23Z</time></trkpt>
<trkpt lat="46.20927586" lon="6.10917108"><ele>426.962769</ele><time>2009-08-22T15:26:24Z</time></trkpt>
<trkpt lat="46.20920487" lon="6.10918709"><ele>426.482056</ele><time>2009-08-22T15:26:25Z</time></trkpt>
<trkpt lat="46.20913312" lon="6.10920235"><ele>426.482056</ele><time>2009-08-22T15:26:26Z</time></trkpt>
<trkpt lat="46.20906162" lon="6.10921660"><ele>426.482056</ele><time>2009-08-22T15:26:27Z</time></trkpt>
<trkpt lat="46.20899088" lon="6.10923160"><ele>426.001343</ele><time>2009-08-22T15:26:28Z</time></trkpt>
<trkpt lat="46.20892013" lon="6.10924786"><ele>426.001343</ele><time>2009-08-22T15:26:29Z</time></trkpt>
<trkpt lat="46.20884922" lon="6.10926169"><ele>425.520752</ele><time>2009-08-22T15:26:30Z</time></trkpt>
<trkpt lat="46.20877856" lon="6.10927225"><ele>425.520752</ele><time>2009-08-22T15:26:31Z</time></trkpt>
<trkpt lat="46.20870757" lon="6.10928499"><ele>425.520752</ele><time>2009-08-22T15:26:32Z</time></trkpt>
<trkpt lat="46.20863557" lon="6.10930050"><ele>425.040161</ele><time>2009-08-22T15:26:33Z</time></trkpt>
<trkpt lat="46.20856214" lon="6.10931466"><ele>425.040161</ele><time>2009-08-22T15:26:34Z</time></trkpt>
<trkpt lat="46.20848754" lon="6.10932883"><ele>425.040161</ele><time>2009-08-22T15:26:35Z</time></trkpt>
<trkpt lat="46.20841186" lon="6.10934425"><ele>424.559448</ele><time>2009-08-22T15:26:36Z</time></trkpt>
<trkpt lat="46.20833466" lon="6.10935993"><ele>424.559448</ele><time>2009-08-22T15:26:37Z</time></trkpt>
<trkpt lat="46.20825646" lon="6.10937585"><ele>424.559448</ele><time>2009-08-22T15:26:38Z</time></trkpt>
<trkpt lat="46.20817767" lon="6.10939119"><ele>424.559448</ele><time>2009-08-22T15:26:39Z</time></trkpt>
<trkpt lat="46.20809938" lon="6.10940577"><ele>424.559448</ele><time>2009-08-22T15:26:40Z</time></trkpt>
<trkpt lat="46.20802159" lon="6.10942019"><ele>424.559448</ele><time>2009-08-22T15:26:41Z</time></trkpt>
<trkpt lat="46.20794406" lon="6.10943469"><ele>424.559448</ele><time>2009-08-22T15:26:42Z</time></trkpt>
<trkpt lat="46.20786678" lon="6.10944978"><ele>424.559448</ele><time>2009-08-22T15:26:43Z</time></trkpt>
<trkpt lat="46.20778933" lon="6.10946663"><ele>424.078735</ele><time>2009-08-22T15:26:44Z</time></trkpt>
<trkpt lat="46.20770903" lon="6.10948306"><ele>424.559448</ele><time>2009-08-22T15:26:45Z</time></trkpt>
<trkpt lat="46.20762873" lon="6.10949974"><ele>424.559448</ele><time>2009-08-22T15:26:46Z</time></trkpt>
<trkpt lat="46.20754978" lon="6.10951734"><ele>425.040161</ele><time>2009-08-22T15:26:47Z</time></trkpt>
<trkpt lat="46.20747082" lon="6.10953502"><ele>426.001343</ele><time>2009-08-22T15:26:48Z</time></trkpt>
<trkpt lat="46.20739119" lon="6.10955204"><ele>426.001343</ele><time>2009-08-22T15:26:49Z</time></trkpt>
<trkpt lat="46.20731249" lon="6.10956972"><ele>426.962769</ele><time>2009-08-22T15:26:50Z</time></trkpt>
<trkpt lat="46.20723453" lon="6.10958632"><ele>427.443359</ele><time>2009-08-22T15:26:51Z</time></trkpt>
<trkpt lat="46.20715524" lon="6.10960082"><ele>427.92395</ele><time>2009-08-22T15:26:52Z</time></trkpt>
<trkpt lat="46.20708215" lon="6.10961515"><ele>427.92395</ele><time>2009-08-22T15:26:53Z</time></trkpt>
<trkpt lat="46.20700504" lon="6.10962739"><ele>429.365967</ele><time>2009-08-22T15:26:54Z</time></trkpt>
<trkpt lat="46.20693153" lon="6.10964022"><ele>429.846558</ele><time>2009-08-22T15:26:55Z</time></trkpt>
<trkpt lat="46.20685986" lon="6.10965304"><ele>430.807983</ele><time>2009-08-22T15:26:56Z</time></trkpt>
<trkpt lat="46.20678979" lon="6.10966436"><ele>431.288574</ele><time>2009-08-22T15:26:57Z</time></trkpt>
<trkpt lat="46.20672315" lon="6.10967735"><ele>430.807983</ele><time>2009-08-22T15:26:58Z</time></trkpt>
<trkpt lat="46.20665769" lon="6.10969126"><ele>430.807983</ele><time>2009-08-22T15:26:59Z</time></trkpt>
<trkpt lat="46.20659374" lon="6.10970434"><ele>430.327271</ele><time>2009-08-22T15:27:00Z</time></trkpt>
<trkpt lat="46.20653129" lon="6.10971758"><ele>430.327271</ele><time>2009-08-22T15:27:01Z</time></trkpt>
<trkpt lat="46.20646792" lon="6.10972856"><ele>429.846558</ele><time>2009-08-22T15:27:02Z</time></trkpt>
<trkpt lat="46.20640238" lon="6.10973393"><ele>429.365967</ele><time>2009-08-22T15:27:03Z</time></trkpt>
<trkpt lat="46.20633658" lon="6.10973426"><ele>429.365967</ele><time>2009-08-22T15:27:04Z</time></trkpt>
<trkpt lat="46.20626978" lon="6.10973275"><ele>429.365967</ele><time>2009-08-22T15:27:05Z</time></trkpt>
<trkpt lat="46.20620515" lon="6.10973007"><ele>429.365967</ele><time>2009-08-22T15:27:06Z</time></trkpt>
<trkpt lat="46.20614388" lon="6.10973225"><ele>429.365967</ele><time>2009-08-22T15:27:07Z</time></trkpt>
<trkpt lat="46.20608412" lon="6.10974004"><ele>429.365967</ele><time>2009-08-22T15:27:08Z</time></trkpt>
<trkpt lat="46.20602595" lon="6.10975119"><ele>429.365967</ele><time>2009-08-22T15:27:09Z</time></trkpt>
<trkpt lat="46.20596836" lon="6.10976209"><ele>429.365967</ele><time>2009-08-22T15:27:10Z</time></trkpt>
<trkpt lat="46.20591128" lon="6.10977257"><ele>428.885376</ele><time>2009-08-22T15:27:11Z</time></trkpt>
<trkpt lat="46.20585546" lon="6.10978506"><ele>428.885376</ele><time>2009-08-22T15:27:12Z</time></trkpt>
<trkpt lat="46.20579972" lon="6.10980257"><ele>428.885376</ele><time>2009-08-22T15:27:13Z</time></trkpt>
<trkpt lat="46.20574482" lon="6.10981992"><ele>428.885376</ele><time>2009-08-22T15:27:14Z</time></trkpt>
<trkpt lat="46.20568874" lon="6.10983208"><ele>429.365967</ele><time>2009-08-22T15:27:15Z</time></trkpt>
<trkpt lat="46.20563217" lon="6.10983912"><ele>429.365967</ele><time>2009-08-22T15:27:16Z</time></trkpt>
<trkpt lat="46.20557643" lon="6.10984482"><ele>429.365967</ele><time>2009-08-22T15:27:17Z</time></trkpt>
<trkpt lat="46.20551767" lon="6.10985337"><ele>429.846558</ele><time>2009-08-22T15:27:18Z</time></trkpt>
<trkpt lat="46.20545883" lon="6.10986535"><ele>429.846558</ele><time>2009-08-22T15:27:19Z</time></trkpt>
<trkpt lat="46.20540275" lon="6.10988086"><ele>430.327271</ele><time>2009-08-22T15:27:20Z</time></trkpt>
<trkpt lat="46.20534400" lon="6.10989570"><ele>430.327271</ele><time>2009-08-22T15:27:21Z</time></trkpt>
<trkpt lat="46.20528239" lon="6.10990835"><ele>429.846558</ele><time>2009-08-22T15:27:22Z</time></trkpt>
<trkpt lat="46.20522455" lon="6.10991942"><ele>429.365967</ele><time>2009-08-22T15:27:23Z</time></trkpt>
<trkpt lat="46.20517887" lon="6.10992847"><ele>429.365967</ele><time>2009-08-22T15:27:24Z</time></trkpt>
<trkpt lat="46.20514199" lon="6.10992990"><ele>429.365967</ele><time>2009-08-22T15:27:25Z</time></trkpt>
<trkpt lat="46.20511232" lon="6.10991665"><ele>428.885376</ele><time>2009-08-22T15:27:26Z</time></trkpt>
<trkpt lat="46.20508047" lon="6.10989654"><ele>428.404663</ele><time>2009-08-22T15:27:27Z</time></trkpt>
<trkpt lat="46.20503839" lon="6.10989754"><ele>427.92395</ele><time>2009-08-22T15:27:28Z</time></trkpt>
<trkpt lat="46.20498869" lon="6.10992579"><ele>427.92395</ele><time>2009-08-22T15:27:29Z</time></trkpt>
<trkpt lat="46.20493647" lon="6.10996108"><ele>427.92395</ele><time>2009-08-22T15:27:30Z</time></trkpt>
<trkpt lat="46.20487486" lon="6.10999485"><ele>427.92395</ele><time>2009-08-22T15:27:31Z</time></trkpt>
<trkpt lat="46.20480378" lon="6.11002159"><ele>426.482056</ele><time>2009-08-22T15:27:32Z</time></trkpt>
<trkpt lat="46.20473103" lon="6.11004129"><ele>426.001343</ele><time>2009-08-22T15:27:33Z</time></trkpt>
<trkpt lat="46.20465324" lon="6.11006082"><ele>425.520752</ele><time>2009-08-22T15:27:34Z</time></trkpt>
<trkpt lat="46.20457060" lon="6.11007968"><ele>425.520752</ele><time>2009-08-22T15:27:35Z</time></trkpt>
<trkpt lat="46.20448317" lon="6.11009552"><ele>425.040161</ele><time>2009-08-22T15:27:36Z</time></trkpt>
<trkpt lat="46.20438796" lon="6.11011706"><ele>424.559448</ele><time>2009-08-22T15:27:37Z</time></trkpt>
<trkpt lat="46.20428913" lon="6.11013819"><ele>424.559448</ele><time>2009-08-22T15:27:38Z</time></trkpt>
<trkpt lat="46.20418796" lon="6.11015612"><ele>424.078735</ele><time>2009-08-22T15:27:39Z</time></trkpt>
<trkpt lat="46.20408537" lon="6.11017507"><ele>424.078735</ele><time>2009-08-22T15:27:40Z</time></trkpt>
<trkpt lat="46.20398336" lon="6.11018772"><ele>423.598022</ele><time>2009-08-22T15:27:41Z</time></trkpt>
<trkpt lat="46.20388119" lon="6.11020105"><ele>423.117432</ele><time>2009-08-22T15:27:42Z</time></trkpt>
<trkpt lat="46.20377893" lon="6.11021664"><ele>422.636719</ele><time>2009-08-22T15:27:43Z</time></trkpt>
<trkpt lat="46.20367692" lon="6.11023315"><ele>421.675415</ele><time>2009-08-22T15:27:44Z</time></trkpt>
<trkpt lat="46.20357416" lon="6.11025000"><ele>421.675415</ele><time>2009-08-22T15:27:45Z</time></trkpt>
<trkpt lat="46.20347072" lon="6.11026626"><ele>421.194824</ele><time>2009-08-22T15:27:46Z</time></trkpt>
<trkpt lat="46.20336813" lon="6.11028294"><ele>421.194824</ele><time>2009-08-22T15:27:47Z</time></trkpt>
<trkpt lat="46.20326453" lon="6.11030063"><ele>421.194824</ele><time>2009-08-22T15:27:48Z</time></trkpt>
<trkpt lat="46.20316135" lon="6.11031747"><ele>420.714111</ele><time>2009-08-22T15:27:49Z</time></trkpt>
<trkpt lat="46.20305926" lon="6.11033348"><ele>420.714111</ele><time>2009-08-22T15:27:50Z</time></trkpt>
<trkpt lat="46.20295859" lon="6.11035016"><ele>420.714111</ele><time>2009-08-22T15:27:51Z</time></trkpt>
<trkpt lat="46.20285977" lon="6.11036743"><ele>420.714111</ele><time>2009-08-22T15:27:52Z</time></trkpt>
<trkpt lat="46.20276296" lon="6.11038352"><ele>420.233398</ele><time>2009-08-22T15:27:53Z</time></trkpt>
<trkpt lat="46.20266799" lon="6.11039878"><ele>420.233398</ele><time>2009-08-22T15:27:54Z</time></trkpt>
<trkpt lat="46.20257478" lon="6.11041462"><ele>420.233398</ele><time>2009-08-22T15:27:55Z</time></trkpt>
<trkpt lat="46.20248325" lon="6.11043063"><ele>420.233398</ele><time>2009-08-22T15:27:56Z</time></trkpt>
<trkpt lat="46.20239298" lon="6.11044656"><ele>420.233398</ele><time>2009-08-22T15:27:57Z</time></trkpt>
<trkpt lat="46.20230329" lon="6.11046148"><ele>419.752808</ele><time>2009-08-22T15:27:58Z</time></trkpt>
<trkpt lat="46.20221294" lon="6.11047857"><ele>420.233398</ele><time>2009-08-22T15:27:59Z</time></trkpt>
<trkpt lat="46.20212358" lon="6.11049425"><ele>420.233398</ele><time>2009-08-22T15:28:00Z</time></trkpt>
<trkpt lat="46.20203289" lon="6.11051168"><ele>420.233398</ele><time>2009-08-22T15:28:01Z</time></trkpt>
<trkpt lat="46.20194145" lon="6.11052962"><ele>420.233398</ele><time>2009-08-22T15:28:02Z</time></trkpt>
<trkpt lat="46.20184958" lon="6.11054689"><ele>420.233398</ele><time>2009-08-22T15:28:03Z</time></trkpt>
<trkpt lat="46.20175763" lon="6.11056508"><ele>420.233398</ele><time>2009-08-22T15:28:04Z</time></trkpt>
<trkpt lat="46.20166576" lon="6.11058293"><ele>420.233398</ele><time>2009-08-22T15:28:05Z</time></trkpt>
<trkpt lat="46.20157365" lon="6.11059969"><ele>420.233398</ele><time>2009-08-22T15:28:06Z</time></trkpt>
<trkpt lat="46.20148170" lon="6.11061503"><ele>420.233398</ele><time>2009-08-22T15:28:07Z</time></trkpt>
<trkpt lat="46.20139042" lon="6.11062945"><ele>420.233398</ele><time>2009-08-22T15:28:08Z</time></trkpt>
<trkpt lat="46.20129897" lon="6.11064496"><ele>420.233398</ele><time>2009-08-22T15:28:09Z</time></trkpt>
<trkpt lat="46.20120736" lon="6.11066063"><ele>420.233398</ele><time>2009-08-22T15:28:10Z</time></trkpt>
<trkpt lat="46.20111600" lon="6.11067723"><ele>419.752808</ele><time>2009-08-22T15:28:11Z</time></trkpt>
<trkpt lat="46.20102438" lon="6.11069382"><ele>419.752808</ele><time>2009-08-22T15:28:12Z</time></trkpt>
<trkpt lat="46.20093344" lon="6.11071067"><ele>419.752808</ele><time>2009-08-22T15:28:13Z</time></trkpt>
<trkpt lat="46.20084300" lon="6.11072727"><ele>419.272217</ele><time>2009-08-22T15:28:14Z</time></trkpt>
<trkpt lat="46.20075163" lon="6.11074504"><ele>419.272217</ele><time>2009-08-22T15:28:15Z</time></trkpt>
<trkpt lat="46.20066069" lon="6.11076272"><ele>419.272217</ele><time>2009-08-22T15:28:16Z</time></trkpt>
<trkpt lat="46.20057025" lon="6.11077974"><ele>419.272217</ele><time>2009-08-22T15:28:17Z</time></trkpt>
<trkpt lat="46.20048098" lon="6.11079524"><ele>419.272217</ele><time>2009-08-22T15:28:18Z</time></trkpt>
<trkpt lat="46.20039264" lon="6.11081033"><ele>419.272217</ele><time>2009-08-22T15:28:19Z</time></trkpt>
<trkpt lat="46.20030463" lon="6.11082584"><ele>419.272217</ele><time>2009-08-22T15:28:20Z</time></trkpt>
<trkpt lat="46.20021662" lon="6.11084185"><ele>418.791504</ele><time>2009-08-22T15:28:21Z</time></trkpt>
<trkpt lat="46.20012844" lon="6.11085869"><ele>418.791504</ele><time>2009-08-22T15:28:22Z</time></trkpt>
<trkpt lat="46.20004035" lon="6.11087395"><ele>418.791504</ele><time>2009-08-22T15:28:23Z</time></trkpt>
<trkpt lat="46.19995292" lon="6.11088895"><ele>418.310791</ele><time>2009-08-22T15:28:24Z</time></trkpt>
<trkpt lat="46.19986609" lon="6.11090404"><ele>418.310791</ele><time>2009-08-22T15:28:25Z</time></trkpt>
<trkpt lat="46.19977984" lon="6.11091745"><ele>418.310791</ele><time>2009-08-22T15:28:26Z</time></trkpt>
<trkpt lat="46.19969342" lon="6.11093212"><ele>418.310791</ele><time>2009-08-22T15:28:27Z</time></trkpt>
<trkpt lat="46.19960784" lon="6.11094846"><ele>418.310791</ele><time>2009-08-22T15:28:28Z</time></trkpt>
<trkpt lat="46.19952293" lon="6.11096665"><ele>418.310791</ele><time>2009-08-22T15:28:29Z</time></trkpt>
<trkpt lat="46.19943836" lon="6.11098509"><ele>418.310791</ele><time>2009-08-22T15:28:30Z</time></trkpt>
<trkpt lat="46.19935437" lon="6.11100177"><ele>418.310791</ele><time>2009-08-22T15:28:31Z</time></trkpt>
<trkpt lat="46.19927064" lon="6.11101753"><ele>418.310791</ele><time>2009-08-22T15:28:32Z</time></trkpt>
<trkpt lat="46.19918732" lon="6.11103354"><ele>418.310791</ele><time>2009-08-22T15:28:33Z</time></trkpt>
<trkpt lat="46.19910417" lon="6.11104812"><ele>418.310791</ele><time>2009-08-22T15:28:34Z</time></trkpt>
<trkpt lat="46.19902220" lon="6.11105986"><ele>418.310791</ele><time>2009-08-22T15:28:35Z</time></trkpt>
<trkpt lat="46.19894072" lon="6.11107394"><ele>418.310791</ele><time>2009-08-22T15:28:36Z</time></trkpt>
<trkpt lat="46.19885959" lon="6.11108886"><ele>417.8302</ele><time>2009-08-22T15:28:37Z</time></trkpt>
<trkpt lat="46.19877895" lon="6.11110286"><ele>417.8302</ele><time>2009-08-22T15:28:38Z</time></trkpt>
<trkpt lat="46.19869907" lon="6.11111518"><ele>417.8302</ele><time>2009-08-22T15:28:39Z</time></trkpt>
<trkpt lat="46.19862045" lon="6.11112666"><ele>417.349609</ele><time>2009-08-22T15:28:40Z</time></trkpt>
<trkpt lat="46.19854258" lon="6.11113882"><ele>417.349609</ele><time>2009-08-22T15:28:41Z</time></trkpt>
<trkpt lat="46.19846555" lon="6.11115164"><ele>417.349609</ele><time>2009-08-22T15:28:42Z</time></trkpt>
<trkpt lat="46.19838945" lon="6.11116363"><ele>417.349609</ele><time>2009-08-22T15:28:43Z</time></trkpt>
<trkpt lat="46.19831426" lon="6.11117494"><ele>417.349609</ele><time>2009-08-22T15:28:44Z</time></trkpt>
<trkpt lat="46.19823983" lon="6.11118743"><ele>416.868896</ele><time>2009-08-22T15:28:45Z</time></trkpt>
<trkpt lat="46.19816615" lon="6.11120076"><ele>416.868896</ele><time>2009-08-22T15:28:46Z</time></trkpt>
<trkpt lat="46.19809264" lon="6.11121375"><ele>416.868896</ele><time>2009-08-22T15:28:47Z</time></trkpt>
<trkpt lat="46.19801964" lon="6.11122607"><ele>416.388184</ele><time>2009-08-22T15:28:48Z</time></trkpt>
<trkpt lat="46.19794697" lon="6.11123865"><ele>416.388184</ele><time>2009-08-22T15:28:49Z</time></trkpt>
<trkpt lat="46.19787438" lon="6.11125063"><ele>416.388184</ele><time>2009-08-22T15:28:50Z</time></trkpt>
<trkpt lat="46.19780187" lon="6.11126245"><ele>416.388184</ele><time>2009-08-22T15:28:51Z</time></trkpt>
<trkpt lat="46.19772979" lon="6.11127519"><ele>416.388184</ele><time>2009-08-22T15:28:52Z</time></trkpt>
<trkpt lat="46.19765787" lon="6.11128852"><ele>416.388184</ele><time>2009-08-22T15:28:53Z</time></trkpt>
<trkpt lat="46.19758680" lon="6.11130235"><ele>415.907471</ele><time>2009-08-22T15:28:54Z</time></trkpt>
<trkpt lat="46.19751714" lon="6.11131676"><ele>415.907471</ele><time>2009-08-22T15:28:55Z</time></trkpt>
<trkpt lat="46.19744883" lon="6.11133319"><ele>415.907471</ele><time>2009-08-22T15:28:56Z</time></trkpt>
<trkpt lat="46.19738186" lon="6.11135373"><ele>415.907471</ele><time>2009-08-22T15:28:57Z</time></trkpt>
<trkpt lat="46.19731489" lon="6.11137670"><ele>416.388184</ele><time>2009-08-22T15:28:58Z</time></trkpt>
<trkpt lat="46.19724817" lon="6.11140243"><ele>416.388184</ele><time>2009-08-22T15:28:59Z</time></trkpt>
<trkpt lat="46.19718153" lon="6.11142967"><ele>416.388184</ele><time>2009-08-22T15:29:00Z</time></trkpt>
<trkpt lat="46.19711657" lon="6.11146026"><ele>416.868896</ele><time>2009-08-22T15:29:01Z</time></trkpt>
<trkpt lat="46.19705094" lon="6.11149287"><ele>416.868896</ele><time>2009-08-22T15:29:02Z</time></trkpt>
<trkpt lat="46.19698673" lon="6.11152832"><ele>416.868896</ele><time>2009-08-22T15:29:03Z</time></trkpt>
<trkpt lat="46.19692337" lon="6.11156713"><ele>416.868896</ele><time>2009-08-22T15:29:04Z</time></trkpt>
<trkpt lat="46.19686017" lon="6.11160862"><ele>416.868896</ele><time>2009-08-22T15:29:05Z</time></trkpt>
<trkpt lat="46.19679563" lon="6.11165053"><ele>416.868896</ele><time>2009-08-22T15:29:06Z</time></trkpt>
<trkpt lat="46.19673067" lon="6.11169370"><ele>416.868896</ele><time>2009-08-22T15:29:07Z</time></trkpt>
<trkpt lat="46.19666613" lon="6.11173737"><ele>416.868896</ele><time>2009-08-22T15:29:08Z</time></trkpt>
<trkpt lat="46.19659957" lon="6.11177970"><ele>416.868896</ele><time>2009-08-22T15:29:09Z</time></trkpt>
<trkpt lat="46.19653109" lon="6.11182169"><ele>416.868896</ele><time>2009-08-22T15:29:10Z</time></trkpt>
<trkpt lat="46.19646404" lon="6.11186243"><ele>416.868896</ele><time>2009-08-22T15:29:11Z</time></trkpt>
<trkpt lat="46.19639975" lon="6.11189998"><ele>416.868896</ele><time>2009-08-22T15:29:12Z</time></trkpt>
<trkpt lat="46.19633588" lon="6.11193443"><ele>417.349609</ele><time>2009-08-22T15:29:13Z</time></trkpt>
<trkpt lat="46.19627260" lon="6.11196452"><ele>417.349609</ele><time>2009-08-22T15:29:14Z</time></trkpt>
<trkpt lat="46.19620856" lon="6.11199226"><ele>417.349609</ele><time>2009-08-22T15:29:15Z</time></trkpt>
<trkpt lat="46.19614452" lon="6.11201514"><ele>416.868896</ele><time>2009-08-22T15:29:16Z</time></trkpt>
<trkpt lat="46.19608082" lon="6.11203442"><ele>416.868896</ele><time>2009-08-22T15:29:17Z</time></trkpt>
<trkpt lat="46.19601854" lon="6.11205337"><ele>417.349609</ele><time>2009-08-22T15:29:18Z</time></trkpt>
<trkpt lat="46.19595685" lon="6.11207047"><ele>417.349609</ele><time>2009-08-22T15:29:19Z</time></trkpt>
<trkpt lat="46.19589575" lon="6.11208363"><ele>417.349609</ele><time>2009-08-22T15:29:20Z</time></trkpt>
<trkpt lat="46.19583473" lon="6.11209402"><ele>416.868896</ele><time>2009-08-22T15:29:21Z</time></trkpt>
<trkpt lat="46.19577354" lon="6.11210483"><ele>417.349609</ele><time>2009-08-22T15:29:22Z</time></trkpt>
<trkpt lat="46.19571126" lon="6.11211397"><ele>417.349609</ele><time>2009-08-22T15:29:23Z</time></trkpt>
<trkpt lat="46.19564706" lon="6.11211900"><ele>417.349609</ele><time>2009-08-22T15:29:24Z</time></trkpt>
<trkpt lat="46.19558176" lon="6.11212403"><ele>417.349609</ele><time>2009-08-22T15:29:25Z</time></trkpt>
<trkpt lat="46.19551697" lon="6.11212822"><ele>416.868896</ele><time>2009-08-22T15:29:26Z</time></trkpt>
<trkpt lat="46.19545109" lon="6.11213149"><ele>416.868896</ele><time>2009-08-22T15:29:27Z</time></trkpt>
<trkpt lat="46.19538462" lon="6.11213408"><ele>417.349609</ele><time>2009-08-22T15:29:28Z</time></trkpt>
<trkpt lat="46.19532008" lon="6.11213408"><ele>417.349609</ele><time>2009-08-22T15:29:29Z</time></trkpt>
<trkpt lat="46.19525906" lon="6.11213040"><ele>417.349609</ele><time>2009-08-22T15:29:30Z</time></trkpt>
<trkpt lat="46.19519904" lon="6.11212729"><ele>417.349609</ele><time>2009-08-22T15:29:31Z</time></trkpt>
<trkpt lat="46.19514037" lon="6.11212545"><ele>417.8302</ele><time>2009-08-22T15:29:32Z</time></trkpt>
<trkpt lat="46.19508312" lon="6.11212419"><ele>417.8302</ele><time>2009-08-22T15:29:33Z</time></trkpt>
<trkpt lat="46.19502629" lon="6.11212042"><ele>417.8302</ele><time>2009-08-22T15:29:34Z</time></trkpt>
<trkpt lat="46.19496904" lon="6.11210542"><ele>417.8302</ele><time>2009-08-22T15:29:35Z</time></trkpt>
<trkpt lat="46.19491624" lon="6.11206594"><ele>417.8302</ele><time>2009-08-22T15:29:36Z</time></trkpt>
<trkpt lat="46.19487617" lon="6.11199738"><ele>418.310791</ele><time>2009-08-22T15:29:37Z</time></trkpt>
<trkpt lat="46.19485337" lon="6.11190886"><ele>418.310791</ele><time>2009-08-22T15:29:38Z</time></trkpt>
<trkpt lat="46.19484239" lon="6.11181063"><ele>417.8302</ele><time>2009-08-22T15:29:39Z</time></trkpt>
<trkpt lat="46.19483485" lon="6.11170879"><ele>417.8302</ele><time>2009-08-22T15:29:40Z</time></trkpt>
<trkpt lat="46.19482756" lon="6.11160276"><ele>417.8302</ele><time>2009-08-22T15:29:41Z</time></trkpt>
<trkpt lat="46.19482035" lon="6.11149589"><ele>417.8302</ele><time>2009-08-22T15:29:42Z</time></trkpt>
<trkpt lat="46.19481733" lon="6.11139153"><ele>417.349609</ele><time>2009-08-22T15:29:43Z</time></trkpt>
<trkpt lat="46.19481146" lon="6.11128449"><ele>416.868896</ele><time>2009-08-22T15:29:44Z</time></trkpt>
<trkpt lat="46.19481616" lon="6.11118567"><ele>416.868896</ele><time>2009-08-22T15:29:45Z</time></trkpt>
<trkpt lat="46.19481716" lon="6.11108467"><ele>416.388184</ele><time>2009-08-22T15:29:46Z</time></trkpt>
<trkpt lat="46.19481683" lon="6.11098199"><ele>415.42688</ele><time>2009-08-22T15:29:47Z</time></trkpt>
<trkpt lat="46.19481817" lon="6.11087889"><ele>414.946167</ele><time>2009-08-22T15:29:48Z</time></trkpt>
<trkpt lat="46.19480752" lon="6.11076163"><ele>414.946167</ele><time>2009-08-22T15:29:49Z</time></trkpt>
<trkpt lat="46.19479529" lon="6.11064278"><ele>414.465454</ele><time>2009-08-22T15:29:50Z</time></trkpt>
<trkpt lat="46.19478129" lon="6.11052107"><ele>414.465454</ele><time>2009-08-22T15:29:51Z</time></trkpt>
<trkpt lat="46.19477173" lon="6.11040674"><ele>413.984863</ele><time>2009-08-22T15:29:52Z</time></trkpt>
<trkpt lat="46.19472639" lon="6.11026995"><ele>414.465454</ele><time>2009-08-22T15:29:53Z</time></trkpt>
<trkpt lat="46.19470065" lon="6.11017129"><ele>414.946167</ele><time>2009-08-22T15:29:54Z</time></trkpt>
<trkpt lat="46.19467903" lon="6.11009896"><ele>414.946167</ele><time>2009-08-22T15:29:55Z</time></trkpt>
<trkpt lat="46.19465112" lon="6.11003257"><ele>415.907471</ele><time>2009-08-22T15:29:56Z</time></trkpt>
<trkpt lat="46.19462689" lon="6.10996434"><ele>416.388184</ele><time>2009-08-22T15:29:57Z</time></trkpt>
<trkpt lat="46.19460074" lon="6.10989637"><ele>416.868896</ele><time>2009-08-22T15:29:58Z</time></trkpt>
<trkpt lat="46.19457568" lon="6.10982839"><ele>416.868896</ele><time>2009-08-22T15:29:59Z</time></trkpt>
<trkpt lat="46.19455313" lon="6.10976025"><ele>417.349609</ele><time>2009-08-22T15:30:00Z</time></trkpt>
<trkpt lat="46.19453318" lon="6.10969436"><ele>417.349609</ele><time>2009-08-22T15:30:01Z</time></trkpt>
<trkpt lat="46.19451458" lon="6.10963385"><ele>417.349609</ele><time>2009-08-22T15:30:02Z</time></trkpt>
<trkpt lat="46.19449396" lon="6.10957366"><ele>417.349609</ele><time>2009-08-22T15:30:03Z</time></trkpt>
<trkpt lat="46.19446462" lon="6.10951080"><ele>418.310791</ele><time>2009-08-22T15:30:04Z</time></trkpt>
<trkpt lat="46.19443713" lon="6.10944978"><ele>418.791504</ele><time>2009-08-22T15:30:05Z</time></trkpt>
<trkpt lat="46.19438927" lon="6.10938214"><ele>420.233398</ele><time>2009-08-22T15:30:06Z</time></trkpt>
<trkpt lat="46.19437343" lon="6.10932975"><ele>420.714111</ele><time>2009-08-22T15:30:07Z</time></trkpt>
<trkpt lat="46.19435842" lon="6.10927393"><ele>420.714111</ele><time>2009-08-22T15:30:08Z</time></trkpt>
<trkpt lat="46.19434308" lon="6.10921919"><ele>420.714111</ele><time>2009-08-22T15:30:09Z</time></trkpt>
<trkpt lat="46.19432724" lon="6.10916186"><ele>421.194824</ele><time>2009-08-22T15:30:10Z</time></trkpt>
<trkpt lat="46.19431383" lon="6.10910838"><ele>421.194824</ele><time>2009-08-22T15:30:11Z</time></trkpt>
<trkpt lat="46.19430696" lon="6.10906782"><ele>421.675415</ele><time>2009-08-22T15:30:12Z</time></trkpt>
<trkpt lat="46.19430545" lon="6.10904259"><ele>422.156006</ele><time>2009-08-22T15:30:13Z</time></trkpt>
<trkpt lat="46.19430989" lon="6.10903278"><ele>422.636719</ele><time>2009-08-22T15:30:14Z</time></trkpt>
<trkpt lat="46.19431752" lon="6.10903136"><ele>423.117432</ele><time>2009-08-22T15:30:15Z</time></trkpt>
<trkpt lat="46.19432682" lon="6.10903513"><ele>423.598022</ele><time>2009-08-22T15:30:16Z</time></trkpt>
<trkpt lat="46.19433604" lon="6.10904217"><ele>424.559448</ele><time>2009-08-22T15:30:17Z</time></trkpt>
<trkpt lat="46.19434359" lon="6.10904980"><ele>425.040161</ele><time>2009-08-22T15:30:18Z</time></trkpt>
<trkpt lat="46.19434878" lon="6.10905549"><ele>425.520752</ele><time>2009-08-22T15:30:19Z</time></trkpt>
<trkpt lat="46.19435214" lon="6.10905893"><ele>426.001343</ele><time>2009-08-22T15:30:20Z</time></trkpt>
<trkpt lat="46.19435498" lon="6.10906245"><ele>426.482056</ele><time>2009-08-22T15:30:21Z</time></trkpt>
<trkpt lat="46.19435666" lon="6.10906614"><ele>426.962769</ele><time>2009-08-22T15:30:22Z</time></trkpt>
<trkpt lat="46.19435733" lon="6.10906882"><ele>427.443359</ele><time>2009-08-22T15:30:23Z</time></trkpt>
<trkpt lat="46.19435582" lon="6.10906933"><ele>427.443359</ele><time>2009-08-22T15:30:24Z</time></trkpt>
<trkpt lat="46.19435406" lon="6.10906966"><ele>427.443359</ele><time>2009-08-22T15:30:25Z</time></trkpt>
<trkpt lat="46.19435255" lon="6.10907025"><ele>427.92395</ele><time>2009-08-22T15:30:26Z</time></trkpt>
<trkpt lat="46.19435138" lon="6.10907176"><ele>427.92395</ele><time>2009-08-22T15:30:27Z</time></trkpt>
<trkpt lat="46.19435113" lon="6.10907259"><ele>428.885376</ele><time>2009-08-22T15:30:28Z</time></trkpt>
<trkpt lat="46.19434836" lon="6.10906597"><ele>429.365967</ele><time>2009-08-22T15:30:29Z</time></trkpt>
<trkpt lat="46.19434275" lon="6.10905256"><ele>429.846558</ele><time>2009-08-22T15:30:30Z</time></trkpt>
<trkpt lat="46.19433193" lon="6.10903177"><ele>429.846558</ele><time>2009-08-22T15:30:31Z</time></trkpt>
<trkpt lat="46.19431710" lon="6.10900302"><ele>430.327271</ele><time>2009-08-22T15:30:32Z</time></trkpt>
<trkpt lat="46.19429237" lon="6.10895902"><ele>429.846558</ele><time>2009-08-22T15:30:33Z</time></trkpt>
<trkpt lat="46.19426387" lon="6.10890244"><ele>429.365967</ele><time>2009-08-22T15:30:34Z</time></trkpt>
<trkpt lat="46.19423454" lon="6.10883564"><ele>428.404663</ele><time>2009-08-22T15:30:35Z</time></trkpt>
<trkpt lat="46.19420378" lon="6.10876012"><ele>427.92395</ele><time>2009-08-22T15:30:36Z</time></trkpt>
<trkpt lat="46.19417327" lon="6.10867848"><ele>427.443359</ele><time>2009-08-22T15:30:37Z</time></trkpt>
<trkpt lat="46.19414276" lon="6.10859172"><ele>426.962769</ele><time>2009-08-22T15:30:38Z</time></trkpt>
<trkpt lat="46.19411183" lon="6.10849877"><ele>426.482056</ele><time>2009-08-22T15:30:39Z</time></trkpt>
<trkpt lat="46.19407956" lon="6.10839986"><ele>425.520752</ele><time>2009-08-22T15:30:40Z</time></trkpt>
<trkpt lat="46.19404745" lon="6.10829785"><ele>425.520752</ele><time>2009-08-22T15:30:41Z</time></trkpt>
<trkpt lat="46.19401569" lon="6.10819157"><ele>425.040161</ele><time>2009-08-22T15:30:42Z</time></trkpt>
<trkpt lat="46.19395634" lon="6.10806777"><ele>424.559448</ele><time>2009-08-22T15:30:43Z</time></trkpt>
<trkpt lat="46.19390345" lon="6.10794665"><ele>424.078735</ele><time>2009-08-22T15:30:44Z</time></trkpt>
<trkpt lat="46.19385157" lon="6.10782729"><ele>423.598022</ele><time>2009-08-22T15:30:45Z</time></trkpt>
<trkpt lat="46.19379843" lon="6.10770534"><ele>423.117432</ele><time>2009-08-22T15:30:46Z</time></trkpt>
<trkpt lat="46.19372793" lon="6.10757919"><ele>424.559448</ele><time>2009-08-22T15:30:47Z</time></trkpt>
<trkpt lat="46.19367739" lon="6.10745874"><ele>424.078735</ele><time>2009-08-22T15:30:48Z</time></trkpt>
<trkpt lat="46.19362735" lon="6.10733586"><ele>423.598022</ele><time>2009-08-22T15:30:49Z</time></trkpt>
<trkpt lat="46.19357823" lon="6.10721114"><ele>423.117432</ele><time>2009-08-22T15:30:50Z</time></trkpt>
<trkpt lat="46.19352610" lon="6.10708659"><ele>422.636719</ele><time>2009-08-22T15:30:51Z</time></trkpt>
<trkpt lat="46.19347665" lon="6.10695935"><ele>422.156006</ele><time>2009-08-22T15:30:52Z</time></trkpt>
<trkpt lat="46.19342887" lon="6.10683312"><ele>421.675415</ele><time>2009-08-22T15:30:53Z</time></trkpt>
<trkpt lat="46.19337749" lon="6.10670638"><ele>421.675415</ele><time>2009-08-22T15:30:54Z</time></trkpt>
<trkpt lat="46.19333114" lon="6.10658166"><ele>421.675415</ele><time>2009-08-22T15:30:55Z</time></trkpt>
<trkpt lat="46.19328562" lon="6.10645987"><ele>421.194824</ele><time>2009-08-22T15:30:56Z</time></trkpt>
<trkpt lat="46.19324069" lon="6.10633473"><ele>421.194824</ele><time>2009-08-22T15:30:57Z</time></trkpt>
<trkpt lat="46.19319946" lon="6.10621269"><ele>420.714111</ele><time>2009-08-22T15:30:58Z</time></trkpt>
<trkpt lat="46.19315629" lon="6.10609174"><ele>420.714111</ele><time>2009-08-22T15:30:59Z</time></trkpt>
<trkpt lat="46.19311463" lon="6.10597297"><ele>420.714111</ele><time>2009-08-22T15:31:00Z</time></trkpt>
<trkpt lat="46.19307155" lon="6.10585394"><ele>420.714111</ele><time>2009-08-22T15:31:01Z</time></trkpt>
<trkpt lat="46.19302830" lon="6.10573366"><ele>420.233398</ele><time>2009-08-22T15:31:02Z</time></trkpt>
<trkpt lat="46.19298597" lon="6.10561347"><ele>420.233398</ele><time>2009-08-22T15:31:03Z</time></trkpt>
<trkpt lat="46.19294439" lon="6.10549469"><ele>419.752808</ele><time>2009-08-22T15:31:04Z</time></trkpt>
<trkpt lat="46.19290156" lon="6.10537592"><ele>419.752808</ele><time>2009-08-22T15:31:05Z</time></trkpt>
<trkpt lat="46.19286016" lon="6.10525883"><ele>419.272217</ele><time>2009-08-22T15:31:06Z</time></trkpt>
<trkpt lat="46.19282017" lon="6.10514458"><ele>419.272217</ele><time>2009-08-22T15:31:07Z</time></trkpt>
<trkpt lat="46.19278447" lon="6.10503227"><ele>419.272217</ele><time>2009-08-22T15:31:08Z</time></trkpt>
<trkpt lat="46.19274884" lon="6.10492053"><ele>419.272217</ele><time>2009-08-22T15:31:09Z</time></trkpt>
<trkpt lat="46.19270082" lon="6.10480528"><ele>420.714111</ele><time>2009-08-22T15:31:10Z</time></trkpt>
<trkpt lat="46.19267274" lon="6.10469590"><ele>420.714111</ele><time>2009-08-22T15:31:11Z</time></trkpt>
<trkpt lat="46.19264256" lon="6.10458677"><ele>420.714111</ele><time>2009-08-22T15:31:12Z</time></trkpt>
<trkpt lat="46.19259730" lon="6.10447529"><ele>422.156006</ele><time>2009-08-22T15:31:13Z</time></trkpt>
<trkpt lat="46.19255656" lon="6.10435819"><ele>422.636719</ele><time>2009-08-22T15:31:14Z</time></trkpt>
<trkpt lat="46.19250183" lon="6.10424805"><ele>423.117432</ele><time>2009-08-22T15:31:15Z</time></trkpt>
<trkpt lat="46.19246403" lon="6.10410925"><ele>424.559448</ele><time>2009-08-22T15:31:16Z</time></trkpt>
<trkpt lat="46.19241918" lon="6.10399358"><ele>426.001343</ele><time>2009-08-22T15:31:17Z</time></trkpt>
<trkpt lat="46.19236873" lon="6.10388302"><ele>427.443359</ele><time>2009-08-22T15:31:18Z</time></trkpt>
<trkpt lat="46.19233578" lon="6.10378630"><ele>427.92395</ele><time>2009-08-22T15:31:19Z</time></trkpt>
<trkpt lat="46.19229656" lon="6.10367834"><ele>427.92395</ele><time>2009-08-22T15:31:20Z</time></trkpt>
<trkpt lat="46.19226336" lon="6.10357633"><ele>427.443359</ele><time>2009-08-22T15:31:21Z</time></trkpt>
<trkpt lat="46.19222305" lon="6.10346837"><ele>427.443359</ele><time>2009-08-22T15:31:22Z</time></trkpt>
<trkpt lat="46.19218784" lon="6.10335974"><ele>426.962769</ele><time>2009-08-22T15:31:23Z</time></trkpt>
<trkpt lat="46.19215147" lon="6.10324935"><ele>426.962769</ele><time>2009-08-22T15:31:24Z</time></trkpt>
<trkpt lat="46.19211534" lon="6.10314164"><ele>426.482056</ele><time>2009-08-22T15:31:25Z</time></trkpt>
<trkpt lat="46.19204594" lon="6.10302153"><ele>429.846558</ele><time>2009-08-22T15:31:26Z</time></trkpt>
<trkpt lat="46.19201576" lon="6.10291516"><ele>429.846558</ele><time>2009-08-22T15:31:27Z</time></trkpt>
<trkpt lat="46.19195743" lon="6.10280184"><ele>434.172607</ele><time>2009-08-22T15:31:28Z</time></trkpt>
<trkpt lat="46.19198785" lon="6.10273386"><ele>434.65332</ele><time>2009-08-22T15:31:29Z</time></trkpt>
<trkpt lat="46.19195198" lon="6.10264158"><ele>433.211304</ele><time>2009-08-22T15:31:30Z</time></trkpt>
<trkpt lat="46.19192004" lon="6.10254686"><ele>431.769165</ele><time>2009-08-22T15:31:31Z</time></trkpt>
<trkpt lat="46.19189012" lon="6.10245315"><ele>430.807983</ele><time>2009-08-22T15:31:32Z</time></trkpt>
<trkpt lat="46.19186078" lon="6.10236347"><ele>430.327271</ele><time>2009-08-22T15:31:33Z</time></trkpt>
<trkpt lat="46.19183547" lon="6.10227378"><ele>429.365967</ele><time>2009-08-22T15:31:34Z</time></trkpt>
<trkpt lat="46.19181795" lon="6.10217739"><ele>427.92395</ele><time>2009-08-22T15:31:35Z</time></trkpt>
<trkpt lat="46.19180077" lon="6.10208527"><ele>427.443359</ele><time>2009-08-22T15:31:36Z</time></trkpt>
<trkpt lat="46.19178124" lon="6.10200908"><ele>426.962769</ele><time>2009-08-22T15:31:37Z</time></trkpt>
<trkpt lat="46.19174645" lon="6.10193012"><ele>426.001343</ele><time>2009-08-22T15:31:38Z</time></trkpt>
<trkpt lat="46.19171142" lon="6.10185167"><ele>426.482056</ele><time>2009-08-22T15:31:39Z</time></trkpt>
<trkpt lat="46.19168200" lon="6.10176517"><ele>426.001343</ele><time>2009-08-22T15:31:40Z</time></trkpt>
<trkpt lat="46.19165040" lon="6.10167565"><ele>425.520752</ele><time>2009-08-22T15:31:41Z</time></trkpt>
<trkpt lat="46.19161854" lon="6.10158429"><ele>425.040161</ele><time>2009-08-22T15:31:42Z</time></trkpt>
<trkpt lat="46.19158803" lon="6.10149158"><ele>424.078735</ele><time>2009-08-22T15:31:43Z</time></trkpt>
<trkpt lat="46.19155962" lon="6.10139712"><ele>423.598022</ele><time>2009-08-22T15:31:44Z</time></trkpt>
<trkpt lat="46.19152877" lon="6.10129897"><ele>423.598022</ele><time>2009-08-22T15:31:45Z</time></trkpt>
<trkpt lat="46.19148083" lon="6.10120609"><ele>423.598022</ele><time>2009-08-22T15:31:46Z</time></trkpt>
<trkpt lat="46.19144822" lon="6.10110434"><ele>423.598022</ele><time>2009-08-22T15:31:47Z</time></trkpt>
<trkpt lat="46.19139475" lon="6.10099655"><ele>426.482056</ele><time>2009-08-22T15:31:48Z</time></trkpt>
<trkpt lat="46.19137966" lon="6.10090074"><ele>426.962769</ele><time>2009-08-22T15:31:49Z</time></trkpt>
<trkpt lat="46.19139383" lon="6.10082489"><ele>427.443359</ele><time>2009-08-22T15:31:50Z</time></trkpt>
<trkpt lat="46.19136667" lon="6.10073403"><ele>426.962769</ele><time>2009-08-22T15:31:51Z</time></trkpt>
<trkpt lat="46.19133188" lon="6.10064300"><ele>427.443359</ele><time>2009-08-22T15:31:52Z</time></trkpt>
<trkpt lat="46.19130917" lon="6.10055859"><ele>426.962769</ele><time>2009-08-22T15:31:53Z</time></trkpt>
<trkpt lat="46.19128235" lon="6.10047243"><ele>426.482056</ele><time>2009-08-22T15:31:54Z</time></trkpt>
<trkpt lat="46.19126148" lon="6.10038718"><ele>426.001343</ele><time>2009-08-22T15:31:55Z</time></trkpt>
<trkpt lat="46.19123449" lon="6.10030068"><ele>426.001343</ele><time>2009-08-22T15:31:56Z</time></trkpt>
<trkpt lat="46.19120054" lon="6.10020798"><ele>426.482056</ele><time>2009-08-22T15:31:57Z</time></trkpt>
<trkpt lat="46.19116777" lon="6.10011335"><ele>426.482056</ele><time>2009-08-22T15:31:58Z</time></trkpt>
<trkpt lat="46.19113516" lon="6.10001679"><ele>426.962769</ele><time>2009-08-22T15:31:59Z</time></trkpt>
<trkpt lat="46.19110524" lon="6.09992366"><ele>426.482056</ele><time>2009-08-22T15:32:00Z</time></trkpt>
<trkpt lat="46.19107573" lon="6.09983414"><ele>425.520752</ele><time>2009-08-22T15:32:01Z</time></trkpt>
<trkpt lat="46.19104514" lon="6.09974563"><ele>425.040161</ele><time>2009-08-22T15:32:02Z</time></trkpt>
<trkpt lat="46.19101404" lon="6.09965695"><ele>424.559448</ele><time>2009-08-22T15:32:03Z</time></trkpt>
<trkpt lat="46.19098973" lon="6.09956492"><ele>423.598022</ele><time>2009-08-22T15:32:04Z</time></trkpt>
<trkpt lat="46.19096576" lon="6.09946995"><ele>423.117432</ele><time>2009-08-22T15:32:05Z</time></trkpt>
<trkpt lat="46.19093936" lon="6.09937565"><ele>422.636719</ele><time>2009-08-22T15:32:06Z</time></trkpt>
<trkpt lat="46.19090935" lon="6.09928345"><ele>421.675415</ele><time>2009-08-22T15:32:07Z</time></trkpt>
<trkpt lat="46.19087834" lon="6.09919335"><ele>421.675415</ele><time>2009-08-22T15:32:08Z</time></trkpt>
<trkpt lat="46.19084615" lon="6.09909972"><ele>420.714111</ele><time>2009-08-22T15:32:09Z</time></trkpt>
<trkpt lat="46.19081363" lon="6.09900693"><ele>420.233398</ele><time>2009-08-22T15:32:10Z</time></trkpt>
<trkpt lat="46.19078144" lon="6.09891348"><ele>419.752808</ele><time>2009-08-22T15:32:11Z</time></trkpt>
<trkpt lat="46.19074909" lon="6.09882178"><ele>418.791504</ele><time>2009-08-22T15:32:12Z</time></trkpt>
<trkpt lat="46.19071213" lon="6.09873167"><ele>418.310791</ele><time>2009-08-22T15:32:13Z</time></trkpt>
<trkpt lat="46.19067407" lon="6.09865540"><ele>416.868896</ele><time>2009-08-22T15:32:14Z</time></trkpt>
<trkpt lat="46.19062512" lon="6.09860728"><ele>416.388184</ele><time>2009-08-22T15:32:15Z</time></trkpt>
<trkpt lat="46.19056310" lon="6.09856957"><ele>416.388184</ele><time>2009-08-22T15:32:16Z</time></trkpt>
<trkpt lat="46.19046737" lon="6.09855565"><ele>417.8302</ele><time>2009-08-22T15:32:17Z</time></trkpt>
<trkpt lat="46.19039437" lon="6.09857166"><ele>417.8302</ele><time>2009-08-22T15:32:18Z</time></trkpt>
<trkpt lat="46.19031943" lon="6.09858943"><ele>418.791504</ele><time>2009-08-22T15:32:19Z</time></trkpt>
<trkpt lat="46.19024618" lon="6.09860226"><ele>420.233398</ele><time>2009-08-22T15:32:20Z</time></trkpt>
<trkpt lat="46.19017837" lon="6.09858725"><ele>419.272217</ele><time>2009-08-22T15:32:21Z</time></trkpt>
<trkpt lat="46.19010226" lon="6.09861332"><ele>418.791504</ele><time>2009-08-22T15:32:22Z</time></trkpt>
<trkpt lat="46.19004468" lon="6.09865154"><ele>418.310791</ele><time>2009-08-22T15:32:23Z</time></trkpt>
<trkpt lat="46.18999287" lon="6.09869345"><ele>417.8302</ele><time>2009-08-22T15:32:24Z</time></trkpt>
<trkpt lat="46.18993898" lon="6.09872555"><ele>416.868896</ele><time>2009-08-22T15:32:25Z</time></trkpt>
<trkpt lat="46.18987788" lon="6.09874978"><ele>416.388184</ele><time>2009-08-22T15:32:26Z</time></trkpt>
<trkpt lat="46.18981535" lon="6.09878766"><ele>417.8302</ele><time>2009-08-22T15:32:27Z</time></trkpt>
<trkpt lat="46.18975818" lon="6.09882396"><ele>418.310791</ele><time>2009-08-22T15:32:28Z</time></trkpt>
<trkpt lat="46.18970194" lon="6.09886453"><ele>418.791504</ele><time>2009-08-22T15:32:29Z</time></trkpt>
<trkpt lat="46.18964343" lon="6.09890618"><ele>419.752808</ele><time>2009-08-22T15:32:30Z</time></trkpt>
<trkpt lat="46.18958409" lon="6.09893938"><ele>421.675415</ele><time>2009-08-22T15:32:31Z</time></trkpt>
<trkpt lat="46.18952852" lon="6.09897466"><ele>422.156006</ele><time>2009-08-22T15:32:32Z</time></trkpt>
<trkpt lat="46.18947948" lon="6.09901490"><ele>421.675415</ele><time>2009-08-22T15:32:33Z</time></trkpt>
<trkpt lat="46.18942944" lon="6.09905907"><ele>421.675415</ele><time>2009-08-22T15:32:34Z</time></trkpt>
<trkpt lat="46.18937714" lon="6.09909478"><ele>422.156006</ele><time>2009-08-22T15:32:35Z</time></trkpt>
<trkpt lat="46.18931830" lon="6.09912545"><ele>423.598022</ele><time>2009-08-22T15:32:36Z</time></trkpt>
<trkpt lat="46.18926323" lon="6.09915655"><ele>424.078735</ele><time>2009-08-22T15:32:37Z</time></trkpt>
<trkpt lat="46.18920883" lon="6.09918656"><ele>425.040161</ele><time>2009-08-22T15:32:38Z</time></trkpt>
<trkpt lat="46.18915276" lon="6.09921506"><ele>426.482056</ele><time>2009-08-22T15:32:39Z</time></trkpt>
<trkpt lat="46.18909718" lon="6.09924314"><ele>427.443359</ele><time>2009-08-22T15:32:40Z</time></trkpt>
<trkpt lat="46.18904237" lon="6.09926929"><ele>428.404663</ele><time>2009-08-22T15:32:41Z</time></trkpt>
<trkpt lat="46.18898663" lon="6.09929955"><ele>428.885376</ele><time>2009-08-22T15:32:42Z</time></trkpt>
<trkpt lat="46.18893902" lon="6.09933207"><ele>427.92395</ele><time>2009-08-22T15:32:43Z</time></trkpt>
<trkpt lat="46.18889024" lon="6.09936836"><ele>427.92395</ele><time>2009-08-22T15:32:44Z</time></trkpt>
<trkpt lat="46.18884313" lon="6.09940742"><ele>426.962769</ele><time>2009-08-22T15:32:45Z</time></trkpt>
<trkpt lat="46.18879669" lon="6.09944548"><ele>426.482056</ele><time>2009-08-22T15:32:46Z</time></trkpt>
<trkpt lat="46.18875043" lon="6.09948579"><ele>426.001343</ele><time>2009-08-22T15:32:47Z</time></trkpt>
<trkpt lat="46.18870634" lon="6.09952837"><ele>425.520752</ele><time>2009-08-22T15:32:48Z</time></trkpt>
<trkpt lat="46.18866116" lon="6.09957179"><ele>425.520752</ele><time>2009-08-22T15:32:49Z</time></trkpt>
<trkpt lat="46.18861942" lon="6.09961596"><ele>425.040161</ele><time>2009-08-22T15:32:50Z</time></trkpt>
<trkpt lat="46.18856929" lon="6.09966064"><ele>425.520752</ele><time>2009-08-22T15:32:51Z</time></trkpt>
<trkpt lat="46.18851917" lon="6.09969836"><ele>425.520752</ele><time>2009-08-22T15:32:52Z</time></trkpt>
<trkpt lat="46.18846913" lon="6.09973390"><ele>425.040161</ele><time>2009-08-22T15:32:53Z</time></trkpt>
<trkpt lat="46.18841683" lon="6.09976902"><ele>425.040161</ele><time>2009-08-22T15:32:54Z</time></trkpt>
<trkpt lat="46.18836452" lon="6.09980179"><ele>425.520752</ele><time>2009-08-22T15:32:55Z</time></trkpt>
<trkpt lat="46.18831205" lon="6.09983238"><ele>425.520752</ele><time>2009-08-22T15:32:56Z</time></trkpt>
<trkpt lat="46.18825933" lon="6.09985845"><ele>425.040161</ele><time>2009-08-22T15:32:57Z</time></trkpt>
<trkpt lat="46.18820736" lon="6.09988544"><ele>425.040161</ele><time>2009-08-22T15:32:58Z</time></trkpt>
<trkpt lat="46.18815699" lon="6.09991184"><ele>425.040161</ele><time>2009-08-22T15:32:59Z</time></trkpt>
<trkpt lat="46.18810628" lon="6.09994009"><ele>425.520752</ele><time>2009-08-22T15:33:00Z</time></trkpt>
<trkpt lat="46.18805984" lon="6.09997429"><ele>425.040161</ele><time>2009-08-22T15:33:01Z</time></trkpt>
<trkpt lat="46.18801089" lon="6.10000899"><ele>425.520752</ele><time>2009-08-22T15:33:02Z</time></trkpt>
<trkpt lat="46.18796093" lon="6.10004277"><ele>426.001343</ele><time>2009-08-22T15:33:03Z</time></trkpt>
<trkpt lat="46.18790578" lon="6.10008099"><ele>427.443359</ele><time>2009-08-22T15:33:04Z</time></trkpt>
<trkpt lat="46.18785423" lon="6.10011896"><ele>428.404663</ele><time>2009-08-22T15:33:05Z</time></trkpt>
<trkpt lat="46.18779874" lon="6.10015475"><ele>429.365967</ele><time>2009-08-22T15:33:06Z</time></trkpt>
<trkpt lat="46.18774376" lon="6.10018526"><ele>429.846558</ele><time>2009-08-22T15:33:07Z</time></trkpt>
<trkpt lat="46.18768492" lon="6.10020798"><ele>431.288574</ele><time>2009-08-22T15:33:08Z</time></trkpt>
<trkpt lat="46.18763136" lon="6.10022005"><ele>430.327271</ele><time>2009-08-22T15:33:09Z</time></trkpt>
<trkpt lat="46.18757595" lon="6.10022156"><ele>430.327271</ele><time>2009-08-22T15:33:10Z</time></trkpt>
<trkpt lat="46.18751996" lon="6.10021393"><ele>429.846558</ele><time>2009-08-22T15:33:11Z</time></trkpt>
<trkpt lat="46.18746405" lon="6.10020052"><ele>429.846558</ele><time>2009-08-22T15:33:12Z</time></trkpt>
<trkpt lat="46.18740848" lon="6.10018635"><ele>429.365967</ele><time>2009-08-22T15:33:13Z</time></trkpt>
<trkpt lat="46.18735207" lon="6.10017445"><ele>429.365967</ele><time>2009-08-22T15:33:14Z</time></trkpt>
<trkpt lat="46.18729675" lon="6.10016615"><ele>429.365967</ele><time>2009-08-22T15:33:15Z</time></trkpt>
<trkpt lat="46.18723942" lon="6.10016280"><ele>429.365967</ele><time>2009-08-22T15:33:16Z</time></trkpt>
<trkpt lat="46.18718259" lon="6.10016339"><ele>429.365967</ele><time>2009-08-22T15:33:17Z</time></trkpt>
<trkpt lat="46.18712593" lon="6.10016858"><ele>429.365967</ele><time>2009-08-22T15:33:18Z</time></trkpt>
<trkpt lat="46.18706625" lon="6.10017680"><ele>429.846558</ele><time>2009-08-22T15:33:19Z</time></trkpt>
<trkpt lat="46.18700833" lon="6.10018602"><ele>429.846558</ele><time>2009-08-22T15:33:20Z</time></trkpt>
<trkpt lat="46.18695335" lon="6.10019247"><ele>429.365967</ele><time>2009-08-22T15:33:21Z</time></trkpt>
<trkpt lat="46.18689828" lon="6.10019867"><ele>428.885376</ele><time>2009-08-22T15:33:22Z</time></trkpt>
<trkpt lat="46.18684455" lon="6.10020504"><ele>428.404663</ele><time>2009-08-22T15:33:23Z</time></trkpt>
<trkpt lat="46.18678898" lon="6.10021418"><ele>428.404663</ele><time>2009-08-22T15:33:24Z</time></trkpt>
<trkpt lat="46.18673575" lon="6.10022273"><ele>427.92395</ele><time>2009-08-22T15:33:25Z</time></trkpt>
<trkpt lat="46.18668010" lon="6.10023455"><ele>427.92395</ele><time>2009-08-22T15:33:26Z</time></trkpt>
<trkpt lat="46.18662545" lon="6.10024603"><ele>427.92395</ele><time>2009-08-22T15:33:27Z</time></trkpt>
<trkpt lat="46.18656937" lon="6.10025743"><ele>427.92395</ele><time>2009-08-22T15:33:28Z</time></trkpt>
<trkpt lat="46.18651128" lon="6.10026699"><ele>428.885376</ele><time>2009-08-22T15:33:29Z</time></trkpt>
<trkpt lat="46.18645269" lon="6.10027956"><ele>429.365967</ele><time>2009-08-22T15:33:30Z</time></trkpt>
<trkpt lat="46.18639654" lon="6.10029289"><ele>429.846558</ele><time>2009-08-22T15:33:31Z</time></trkpt>
<trkpt lat="46.18633937" lon="6.10030537"><ele>430.807983</ele><time>2009-08-22T15:33:32Z</time></trkpt>
<trkpt lat="46.18628137" lon="6.10031476"><ele>431.288574</ele><time>2009-08-22T15:33:33Z</time></trkpt>
<trkpt lat="46.18622454" lon="6.10032708"><ele>432.25</ele><time>2009-08-22T15:33:34Z</time></trkpt>
<trkpt lat="46.18616888" lon="6.10034058"><ele>432.730713</ele><time>2009-08-22T15:33:35Z</time></trkpt>
<trkpt lat="46.18611214" lon="6.10035776"><ele>433.691895</ele><time>2009-08-22T15:33:36Z</time></trkpt>
<trkpt lat="46.18605967" lon="6.10037905"><ele>433.211304</ele><time>2009-08-22T15:33:37Z</time></trkpt>
<trkpt lat="46.18600619" lon="6.10039850"><ele>433.211304</ele><time>2009-08-22T15:33:38Z</time></trkpt>
<trkpt lat="46.18595162" lon="6.10041954"><ele>433.211304</ele><time>2009-08-22T15:33:39Z</time></trkpt>
<trkpt lat="46.18589806" lon="6.10043999"><ele>433.211304</ele><time>2009-08-22T15:33:40Z</time></trkpt>
<trkpt lat="46.18584677" lon="6.10046203"><ele>432.730713</ele><time>2009-08-22T15:33:41Z</time></trkpt>
<trkpt lat="46.18579396" lon="6.10048684"><ele>432.730713</ele><time>2009-08-22T15:33:42Z</time></trkpt>
<trkpt lat="46.18574124" lon="6.10050998"><ele>432.25</ele><time>2009-08-22T15:33:43Z</time></trkpt>
<trkpt lat="46.18568944" lon="6.10053043"><ele>431.288574</ele><time>2009-08-22T15:33:44Z</time></trkpt>
<trkpt lat="46.18563655" lon="6.10054820"><ele>430.807983</ele><time>2009-08-22T15:33:45Z</time></trkpt>
<trkpt lat="46.18558299" lon="6.10056505"><ele>430.327271</ele><time>2009-08-22T15:33:46Z</time></trkpt>
<trkpt lat="46.18553085" lon="6.10058399"><ele>429.365967</ele><time>2009-08-22T15:33:47Z</time></trkpt>
<trkpt lat="46.18547042" lon="6.10060352"><ele>430.807983</ele><time>2009-08-22T15:33:48Z</time></trkpt>
<trkpt lat="46.18541334" lon="6.10062565"><ele>431.769165</ele><time>2009-08-22T15:33:49Z</time></trkpt>
<trkpt lat="46.18536296" lon="6.10064945"><ele>430.807983</ele><time>2009-08-22T15:33:50Z</time></trkpt>
<trkpt lat="46.18530924" lon="6.10067150"><ele>431.288574</ele><time>2009-08-22T15:33:51Z</time></trkpt>
<trkpt lat="46.18526045" lon="6.10069245"><ele>430.807983</ele><time>2009-08-22T15:33:52Z</time></trkpt>
<trkpt lat="46.18521569" lon="6.10071450"><ele>429.846558</ele><time>2009-08-22T15:33:53Z</time></trkpt>
<trkpt lat="46.18517336" lon="6.10073579"><ele>428.404663</ele><time>2009-08-22T15:33:54Z</time></trkpt>
<trkpt lat="46.18512768" lon="6.10075104"><ele>428.885376</ele><time>2009-08-22T15:33:55Z</time></trkpt>
<trkpt lat="46.18508485" lon="6.10075523"><ele>428.885376</ele><time>2009-08-22T15:33:56Z</time></trkpt>
<trkpt lat="46.18503967" lon="6.10073436"><ele>430.327271</ele><time>2009-08-22T15:33:57Z</time></trkpt>
<trkpt lat="46.18498812" lon="6.10069538"><ele>433.691895</ele><time>2009-08-22T15:33:58Z</time></trkpt>
<trkpt lat="46.18494144" lon="6.10065046"><ele>436.095215</ele><time>2009-08-22T15:33:59Z</time></trkpt>
<trkpt lat="46.18489374" lon="6.10060209"><ele>438.979126</ele><time>2009-08-22T15:34:00Z</time></trkpt>
<trkpt lat="46.18483876" lon="6.10055046"><ele>442.824463</ele><time>2009-08-22T15:34:01Z</time></trkpt>
<trkpt lat="46.18479442" lon="6.10050084"><ele>442.824463</ele><time>2009-08-22T15:34:02Z</time></trkpt>
<trkpt lat="46.18474958" lon="6.10045340"><ele>442.824463</ele><time>2009-08-22T15:34:03Z</time></trkpt>
<trkpt lat="46.18470297" lon="6.10040747"><ele>442.824463</ele><time>2009-08-22T15:34:04Z</time></trkpt>
<trkpt lat="46.18465804" lon="6.10036363"><ele>443.305054</ele><time>2009-08-22T15:34:05Z</time></trkpt>
<trkpt lat="46.18460583" lon="6.10031803"><ele>444.266479</ele><time>2009-08-22T15:34:06Z</time></trkpt>
<trkpt lat="46.18456098" lon="6.10027344"><ele>443.785767</ele><time>2009-08-22T15:34:07Z</time></trkpt>
<trkpt lat="46.18451932" lon="6.10023027"><ele>442.824463</ele><time>2009-08-22T15:34:08Z</time></trkpt>
<trkpt lat="46.18447750" lon="6.10018685"><ele>442.343872</ele><time>2009-08-22T15:34:09Z</time></trkpt>
<trkpt lat="46.18443375" lon="6.10014335"><ele>441.382446</ele><time>2009-08-22T15:34:10Z</time></trkpt>
<trkpt lat="46.18438614" lon="6.10010119"><ele>441.382446</ele><time>2009-08-22T15:34:11Z</time></trkpt>
<trkpt lat="46.18433735" lon="6.10006389"><ele>440.901855</ele><time>2009-08-22T15:34:12Z</time></trkpt>
<trkpt lat="46.18428773" lon="6.10003003"><ele>440.901855</ele><time>2009-08-22T15:34:13Z</time></trkpt>
<trkpt lat="46.18423996" lon="6.09999944"><ele>439.94043</ele><time>2009-08-22T15:34:14Z</time></trkpt>
<trkpt lat="46.18419084" lon="6.09997035"><ele>439.459717</ele><time>2009-08-22T15:34:15Z</time></trkpt>
<trkpt lat="46.18414172" lon="6.09994085"><ele>439.459717</ele><time>2009-08-22T15:34:16Z</time></trkpt>
<trkpt lat="46.18409378" lon="6.09991084"><ele>438.979126</ele><time>2009-08-22T15:34:17Z</time></trkpt>
<trkpt lat="46.18404818" lon="6.09987614"><ele>438.979126</ele><time>2009-08-22T15:34:18Z</time></trkpt>
<trkpt lat="46.18400820" lon="6.09983029"><ele>438.979126</ele><time>2009-08-22T15:34:19Z</time></trkpt>
<trkpt lat="46.18397567" lon="6.09979089"><ele>438.979126</ele><time>2009-08-22T15:34:20Z</time></trkpt>
<trkpt lat="46.18392429" lon="6.09974035"><ele>439.459717</ele><time>2009-08-22T15:34:21Z</time></trkpt>
<trkpt lat="46.18389705" lon="6.09969006"><ele>439.459717</ele><time>2009-08-22T15:34:22Z</time></trkpt>
<trkpt lat="46.18387375" lon="6.09962552"><ele>439.459717</ele><time>2009-08-22T15:34:23Z</time></trkpt>
<trkpt lat="46.18384936" lon="6.09955427"><ele>438.979126</ele><time>2009-08-22T15:34:24Z</time></trkpt>
<trkpt lat="46.18382304" lon="6.09948076"><ele>438.498535</ele><time>2009-08-22T15:34:25Z</time></trkpt>
<trkpt lat="46.18379253" lon="6.09940474"><ele>438.498535</ele><time>2009-08-22T15:34:26Z</time></trkpt>
<trkpt lat="46.18375523" lon="6.09932335"><ele>438.979126</ele><time>2009-08-22T15:34:27Z</time></trkpt>
<trkpt lat="46.18372522" lon="6.09924439"><ele>438.979126</ele><time>2009-08-22T15:34:28Z</time></trkpt>
<trkpt lat="46.18369077" lon="6.09916292"><ele>438.498535</ele><time>2009-08-22T15:34:29Z</time></trkpt>
<trkpt lat="46.18365775" lon="6.09907986"><ele>438.498535</ele><time>2009-08-22T15:34:30Z</time></trkpt>
<trkpt lat="46.18362296" lon="6.09899713"><ele>438.017822</ele><time>2009-08-22T15:34:31Z</time></trkpt>
<trkpt lat="46.18358189" lon="6.09891146"><ele>438.017822</ele><time>2009-08-22T15:34:32Z</time></trkpt>
<trkpt lat="46.18354183" lon="6.09881373"><ele>438.017822</ele><time>2009-08-22T15:34:33Z</time></trkpt>
<trkpt lat="46.18351014" lon="6.09872924"><ele>437.537109</ele><time>2009-08-22T15:34:34Z</time></trkpt>
<trkpt lat="46.18347687" lon="6.09863277"><ele>437.537109</ele><time>2009-08-22T15:34:35Z</time></trkpt>
<trkpt lat="46.18344845" lon="6.09855113"><ele>437.056519</ele><time>2009-08-22T15:34:36Z</time></trkpt>
<trkpt lat="46.18343135" lon="6.09845742"><ele>436.575928</ele><time>2009-08-22T15:34:37Z</time></trkpt>
<trkpt lat="46.18340763" lon="6.09836689"><ele>436.095215</ele><time>2009-08-22T15:34:38Z</time></trkpt>
<trkpt lat="46.18338106" lon="6.09827796"><ele>436.095215</ele><time>2009-08-22T15:34:39Z</time></trkpt>
<trkpt lat="46.18333513" lon="6.09818459"><ele>437.537109</ele><time>2009-08-22T15:34:40Z</time></trkpt>
<trkpt lat="46.18330998" lon="6.09808543"><ele>438.017822</ele><time>2009-08-22T15:34:41Z</time></trkpt>
<trkpt lat="46.18327947" lon="6.09798728"><ele>438.979126</ele><time>2009-08-22T15:34:42Z</time></trkpt>
<trkpt lat="46.18324695" lon="6.09789784"><ele>439.94043</ele><time>2009-08-22T15:34:43Z</time></trkpt>
<trkpt lat="46.18321225" lon="6.09782425"><ele>440.421265</ele><time>2009-08-22T15:34:44Z</time></trkpt>
<trkpt lat="46.18314235" lon="6.09774579"><ele>443.305054</ele><time>2009-08-22T15:34:45Z</time></trkpt>
<trkpt lat="46.18309767" lon="6.09767463"><ele>446.669678</ele><time>2009-08-22T15:34:46Z</time></trkpt>
<trkpt lat="46.18307504" lon="6.09761059"><ele>448.592407</ele><time>2009-08-22T15:34:47Z</time></trkpt>
<trkpt lat="46.18307747" lon="6.09758788"><ele>448.111816</ele><time>2009-08-22T15:34:48Z</time></trkpt>
<trkpt lat="46.18308879" lon="6.09755544"><ele>448.111816</ele><time>2009-08-22T15:34:49Z</time></trkpt>
<trkpt lat="46.18309448" lon="6.09750833"><ele>447.630981</ele><time>2009-08-22T15:34:50Z</time></trkpt>
<trkpt lat="46.18308208" lon="6.09746123"><ele>447.150269</ele><time>2009-08-22T15:34:51Z</time></trkpt>
<trkpt lat="46.18305467" lon="6.09742544"><ele>446.669678</ele><time>2009-08-22T15:34:52Z</time></trkpt>
<trkpt lat="46.18302098" lon="6.09738487"><ele>446.189087</ele><time>2009-08-22T15:34:53Z</time></trkpt>
<trkpt lat="46.18298946" lon="6.09733265"><ele>445.708374</ele><time>2009-08-22T15:34:54Z</time></trkpt>
<trkpt lat="46.18296985" lon="6.09726484"><ele>445.227661</ele><time>2009-08-22T15:34:55Z</time></trkpt>
<trkpt lat="46.18295392" lon="6.09718605"><ele>444.74707</ele><time>2009-08-22T15:34:56Z</time></trkpt>
<trkpt lat="46.18294076" lon="6.09710609"><ele>444.74707</ele><time>2009-08-22T15:34:57Z</time></trkpt>
<trkpt lat="46.18292249" lon="6.09702327"><ele>444.266479</ele><time>2009-08-22T15:34:58Z</time></trkpt>
<trkpt lat="46.18290304" lon="6.09694054"><ele>443.785767</ele><time>2009-08-22T15:34:59Z</time></trkpt>
<trkpt lat="46.18288175" lon="6.09685765"><ele>444.266479</ele><time>2009-08-22T15:35:00Z</time></trkpt>
<trkpt lat="46.18286147" lon="6.09677383"><ele>443.305054</ele><time>2009-08-22T15:35:01Z</time></trkpt>
<trkpt lat="46.18284093" lon="6.09669294"><ele>443.305054</ele><time>2009-08-22T15:35:02Z</time></trkpt>
<trkpt lat="46.18282283" lon="6.09661038"><ele>443.305054</ele><time>2009-08-22T15:35:03Z</time></trkpt>
<trkpt lat="46.18280506" lon="6.09653000"><ele>442.824463</ele><time>2009-08-22T15:35:04Z</time></trkpt>
<trkpt lat="46.18278502" lon="6.09645322"><ele>442.343872</ele><time>2009-08-22T15:35:05Z</time></trkpt>
<trkpt lat="46.18276298" lon="6.09638114"><ele>441.863159</ele><time>2009-08-22T15:35:06Z</time></trkpt>
<trkpt lat="46.18274504" lon="6.09630939"><ele>441.382446</ele><time>2009-08-22T15:35:07Z</time></trkpt>
<trkpt lat="46.18273180" lon="6.09622372"><ele>440.901855</ele><time>2009-08-22T15:35:08Z</time></trkpt>
<trkpt lat="46.18271294" lon="6.09614326"><ele>439.94043</ele><time>2009-08-22T15:35:09Z</time></trkpt>
<trkpt lat="46.18269475" lon="6.09606556"><ele>439.94043</ele><time>2009-08-22T15:35:10Z</time></trkpt>
<trkpt lat="46.18267715" lon="6.09598744"><ele>439.459717</ele><time>2009-08-22T15:35:11Z</time></trkpt>
<trkpt lat="46.18266416" lon="6.09590974"><ele>438.979126</ele><time>2009-08-22T15:35:12Z</time></trkpt>
<trkpt lat="46.18265192" lon="6.09583246"><ele>438.979126</ele><time>2009-08-22T15:35:13Z</time></trkpt>
<trkpt lat="46.18264236" lon="6.09575492"><ele>438.498535</ele><time>2009-08-22T15:35:14Z</time></trkpt>
<trkpt lat="46.18263843" lon="6.09567773"><ele>438.979126</ele><time>2009-08-22T15:35:15Z</time></trkpt>
<trkpt lat="46.18262728" lon="6.09560095"><ele>438.498535</ele><time>2009-08-22T15:35:16Z</time></trkpt>
<trkpt lat="46.18260867" lon="6.09552409"><ele>438.979126</ele><time>2009-08-22T15:35:17Z</time></trkpt>
<trkpt lat="46.18259886" lon="6.09544563"><ele>438.979126</ele><time>2009-08-22T15:35:18Z</time></trkpt>
<trkpt lat="46.18259585" lon="6.09536709"><ele>438.979126</ele><time>2009-08-22T15:35:19Z</time></trkpt>
<trkpt lat="46.18259819" lon="6.09528327"><ele>438.498535</ele><time>2009-08-22T15:35:20Z</time></trkpt>
<trkpt lat="46.18259618" lon="6.09520088"><ele>438.017822</ele><time>2009-08-22T15:35:21Z</time></trkpt>
<trkpt lat="46.18258897" lon="6.09511740"><ele>438.017822</ele><time>2009-08-22T15:35:22Z</time></trkpt>
<trkpt lat="46.18258025" lon="6.09503316"><ele>437.537109</ele><time>2009-08-22T15:35:23Z</time></trkpt>
<trkpt lat="46.18256886" lon="6.09494766"><ele>437.537109</ele><time>2009-08-22T15:35:24Z</time></trkpt>
<trkpt lat="46.18255352" lon="6.09486208"><ele>437.056519</ele><time>2009-08-22T15:35:25Z</time></trkpt>
<trkpt lat="46.18253709" lon="6.09477617"><ele>437.056519</ele><time>2009-08-22T15:35:26Z</time></trkpt>
<trkpt lat="46.18252217" lon="6.09468749"><ele>437.056519</ele><time>2009-08-22T15:35:27Z</time></trkpt>
<trkpt lat="46.18250700" lon="6.09459445"><ele>436.575928</ele><time>2009-08-22T15:35:28Z</time></trkpt>
<trkpt lat="46.18249820" lon="6.09450007"><ele>436.095215</ele><time>2009-08-22T15:35:29Z</time></trkpt>
<trkpt lat="46.18249367" lon="6.09440376"><ele>436.095215</ele><time>2009-08-22T15:35:30Z</time></trkpt>
<trkpt lat="46.18249149" lon="6.09430703"><ele>435.614502</ele><time>2009-08-22T15:35:31Z</time></trkpt>
<trkpt lat="46.18248772" lon="6.09421014"><ele>435.133911</ele><time>2009-08-22T15:35:32Z</time></trkpt>
<trkpt lat="46.18248143" lon="6.09411400"><ele>434.65332</ele><time>2009-08-22T15:35:33Z</time></trkpt>
<trkpt lat="46.18247238" lon="6.09401786"><ele>434.172607</ele><time>2009-08-22T15:35:34Z</time></trkpt>
<trkpt lat="46.18246282" lon="6.09392130"><ele>433.691895</ele><time>2009-08-22T15:35:35Z</time></trkpt>
<trkpt lat="46.18245319" lon="6.09382482"><ele>432.730713</ele><time>2009-08-22T15:35:36Z</time></trkpt>
<trkpt lat="46.18244246" lon="6.09372927"><ele>432.25</ele><time>2009-08-22T15:35:37Z</time></trkpt>
<trkpt lat="46.18242896" lon="6.09363212"><ele>431.769165</ele><time>2009-08-22T15:35:38Z</time></trkpt>
<trkpt lat="46.18241278" lon="6.09353498"><ele>431.288574</ele><time>2009-08-22T15:35:39Z</time></trkpt>
<trkpt lat="46.18239837" lon="6.09343624"><ele>430.807983</ele><time>2009-08-22T15:35:40Z</time></trkpt>
<trkpt lat="46.18238940" lon="6.09333683"><ele>429.846558</ele><time>2009-08-22T15:35:41Z</time></trkpt>
<trkpt lat="46.18237808" lon="6.09323625"><ele>429.846558</ele><time>2009-08-22T15:35:42Z</time></trkpt>
<trkpt lat="46.18236870" lon="6.09313566"><ele>429.365967</ele><time>2009-08-22T15:35:43Z</time></trkpt>
<trkpt lat="46.18235864" lon="6.09303525"><ele>428.404663</ele><time>2009-08-22T15:35:44Z</time></trkpt>
<trkpt lat="46.18234875" lon="6.09294045"><ele>428.404663</ele><time>2009-08-22T15:35:45Z</time></trkpt>
<trkpt lat="46.18233894" lon="6.09284808"><ele>427.92395</ele><time>2009-08-22T15:35:46Z</time></trkpt>
<trkpt lat="46.18232888" lon="6.09275714"><ele>426.962769</ele><time>2009-08-22T15:35:47Z</time></trkpt>
<trkpt lat="46.18231916" lon="6.09267223"><ele>426.482056</ele><time>2009-08-22T15:35:48Z</time></trkpt>
<trkpt lat="46.18229854" lon="6.09259604"><ele>426.001343</ele><time>2009-08-22T15:35:49Z</time></trkpt>
<trkpt lat="46.18226887" lon="6.09253284"><ele>426.482056</ele><time>2009-08-22T15:35:50Z</time></trkpt>
<trkpt lat="46.18222168" lon="6.09248104"><ele>426.962769</ele><time>2009-08-22T15:35:51Z</time></trkpt>
<trkpt lat="46.18217574" lon="6.09243594"><ele>426.962769</ele><time>2009-08-22T15:35:52Z</time></trkpt>
<trkpt lat="46.18215202" lon="6.09240384"><ele>427.92395</ele><time>2009-08-22T15:35:53Z</time></trkpt>
<trkpt lat="46.18210383" lon="6.09236285"><ele>428.885376</ele><time>2009-08-22T15:35:54Z</time></trkpt>
<trkpt lat="46.18206083" lon="6.09232170"><ele>429.365967</ele><time>2009-08-22T15:35:55Z</time></trkpt>
<trkpt lat="46.18201473" lon="6.09227928"><ele>430.327271</ele><time>2009-08-22T15:35:56Z</time></trkpt>
<trkpt lat="46.18196863" lon="6.09223343"><ele>430.807983</ele><time>2009-08-22T15:35:57Z</time></trkpt>
<trkpt lat="46.18192328" lon="6.09218365"><ele>431.288574</ele><time>2009-08-22T15:35:58Z</time></trkpt>
<trkpt lat="46.18188028" lon="6.09213218"><ele>431.769165</ele><time>2009-08-22T15:35:59Z</time></trkpt>
<trkpt lat="46.18183653" lon="6.09207393"><ele>432.25</ele><time>2009-08-22T15:36:00Z</time></trkpt>
<trkpt lat="46.18180049" lon="6.09200838"><ele>432.730713</ele><time>2009-08-22T15:36:01Z</time></trkpt>
<trkpt lat="46.18176704" lon="6.09194024"><ele>433.211304</ele><time>2009-08-22T15:36:02Z</time></trkpt>
<trkpt lat="46.18173586" lon="6.09186949"><ele>433.211304</ele><time>2009-08-22T15:36:03Z</time></trkpt>
<trkpt lat="46.18170728" lon="6.09179607"><ele>433.691895</ele><time>2009-08-22T15:36:04Z</time></trkpt>
<trkpt lat="46.18168306" lon="6.09172264"><ele>434.172607</ele><time>2009-08-22T15:36:05Z</time></trkpt>
<trkpt lat="46.18165866" lon="6.09164402"><ele>434.172607</ele><time>2009-08-22T15:36:06Z</time></trkpt>
<trkpt lat="46.18163754" lon="6.09156196"><ele>434.172607</ele><time>2009-08-22T15:36:07Z</time></trkpt>
<trkpt lat="46.18161013" lon="6.09147848"><ele>434.65332</ele><time>2009-08-22T15:36:08Z</time></trkpt>
<trkpt lat="46.18158859" lon="6.09140044"><ele>435.133911</ele><time>2009-08-22T15:36:09Z</time></trkpt>
<trkpt lat="46.18157107" lon="6.09132752"><ele>435.133911</ele><time>2009-08-22T15:36:10Z</time></trkpt>
<trkpt lat="46.18155465" lon="6.09126667"><ele>435.614502</ele><time>2009-08-22T15:36:11Z</time></trkpt>
<trkpt lat="46.18153252" lon="6.09120330"><ele>436.095215</ele><time>2009-08-22T15:36:12Z</time></trkpt>
<trkpt lat="46.18150544" lon="6.09113742"><ele>436.095215</ele><time>2009-08-22T15:36:13Z</time></trkpt>
<trkpt lat="46.18148239" lon="6.09107975"><ele>436.575928</ele><time>2009-08-22T15:36:14Z</time></trkpt>
<trkpt lat="46.18144736" lon="6.09102627"><ele>437.056519</ele><time>2009-08-22T15:36:15Z</time></trkpt>
<trkpt lat="46.18141006" lon="6.09097967"><ele>437.056519</ele><time>2009-08-22T15:36:16Z</time></trkpt>
<trkpt lat="46.18136865" lon="6.09093198"><ele>436.575928</ele><time>2009-08-22T15:36:17Z</time></trkpt>
<trkpt lat="46.18133085" lon="6.09088604"><ele>437.056519</ele><time>2009-08-22T15:36:18Z</time></trkpt>
<trkpt lat="46.18129145" lon="6.09084137"><ele>437.056519</ele><time>2009-08-22T15:36:19Z</time></trkpt>
<trkpt lat="46.18124376" lon="6.09079275"><ele>437.056519</ele><time>2009-08-22T15:36:20Z</time></trkpt>
<trkpt lat="46.18119464" lon="6.09074657"><ele>437.056519</ele><time>2009-08-22T15:36:21Z</time></trkpt>
<trkpt lat="46.18114033" lon="6.09070273"><ele>438.017822</ele><time>2009-08-22T15:36:22Z</time></trkpt>
<trkpt lat="46.18108962" lon="6.09065386"><ele>438.498535</ele><time>2009-08-22T15:36:23Z</time></trkpt>
<trkpt lat="46.18104142" lon="6.09060047"><ele>438.979126</ele><time>2009-08-22T15:36:24Z</time></trkpt>
<trkpt lat="46.18099515" lon="6.09054959"><ele>439.459717</ele><time>2009-08-22T15:36:25Z</time></trkpt>
<trkpt lat="46.18094838" lon="6.09050224"><ele>439.94043</ele><time>2009-08-22T15:36:26Z</time></trkpt>
<trkpt lat="46.18090312" lon="6.09045614"><ele>440.421265</ele><time>2009-08-22T15:36:27Z</time></trkpt>
<trkpt lat="46.18085543" lon="6.09041163"><ele>440.421265</ele><time>2009-08-22T15:36:28Z</time></trkpt>
<trkpt lat="46.18080866" lon="6.09037039"><ele>440.901855</ele><time>2009-08-22T15:36:29Z</time></trkpt>
<trkpt lat="46.18076054" lon="6.09032672"><ele>441.382446</ele><time>2009-08-22T15:36:30Z</time></trkpt>
<trkpt lat="46.18071419" lon="6.09028196"><ele>441.863159</ele><time>2009-08-22T15:36:31Z</time></trkpt>
<trkpt lat="46.18066826" lon="6.09023896"><ele>442.343872</ele><time>2009-08-22T15:36:32Z</time></trkpt>
<trkpt lat="46.18062392" lon="6.09019219"><ele>442.343872</ele><time>2009-08-22T15:36:33Z</time></trkpt>
<trkpt lat="46.18058092" lon="6.09013787"><ele>442.824463</ele><time>2009-08-22T15:36:34Z</time></trkpt>
<trkpt lat="46.18053742" lon="6.09008272"><ele>442.824463</ele><time>2009-08-22T15:36:35Z</time></trkpt>
<trkpt lat="46.18049249" lon="6.09003285"><ele>442.824463</ele><time>2009-08-22T15:36:36Z</time></trkpt>
<trkpt lat="46.18044513" lon="6.08998558"><ele>442.824463</ele><time>2009-08-22T15:36:37Z</time></trkpt>
<trkpt lat="46.18039618" lon="6.08993612"><ele>442.824463</ele><time>2009-08-22T15:36:38Z</time></trkpt>
<trkpt lat="46.18034673" lon="6.08988533"><ele>442.824463</ele><time>2009-08-22T15:36:39Z</time></trkpt>
<trkpt lat="46.18029786" lon="6.08983286"><ele>442.824463</ele><time>2009-08-22T15:36:40Z</time></trkpt>
<trkpt lat="46.18024992" lon="6.08977603"><ele>442.824463</ele><time>2009-08-22T15:36:41Z</time></trkpt>
<trkpt lat="46.18020315" lon="6.08971484"><ele>442.824463</ele><time>2009-08-22T15:36:42Z</time></trkpt>
<trkpt lat="46.18015654" lon="6.08965156"><ele>442.343872</ele><time>2009-08-22T15:36:43Z</time></trkpt>
<trkpt lat="46.18010826" lon="6.08958668"><ele>441.863159</ele><time>2009-08-22T15:36:44Z</time></trkpt>
<trkpt lat="46.18006409" lon="6.08952465"><ele>441.382446</ele><time>2009-08-22T15:36:45Z</time></trkpt>
<trkpt lat="46.18001875" lon="6.08946523"><ele>441.382446</ele><time>2009-08-22T15:36:46Z</time></trkpt>
<trkpt lat="46.17997156" lon="6.08940857"><ele>441.382446</ele><time>2009-08-22T15:36:47Z</time></trkpt>
<trkpt lat="46.17992244" lon="6.08935199"><ele>441.382446</ele><time>2009-08-22T15:36:48Z</time></trkpt>
<trkpt lat="46.17987349" lon="6.08929256"><ele>441.382446</ele><time>2009-08-22T15:36:49Z</time></trkpt>
<trkpt lat="46.17982269" lon="6.08922693"><ele>440.901855</ele><time>2009-08-22T15:36:50Z</time></trkpt>
<trkpt lat="46.17977760" lon="6.08915744"><ele>440.901855</ele><time>2009-08-22T15:36:51Z</time></trkpt>
<trkpt lat="46.17973410" lon="6.08908796"><ele>440.421265</ele><time>2009-08-22T15:36:52Z</time></trkpt>
<trkpt lat="46.17969009" lon="6.08902099"><ele>439.94043</ele><time>2009-08-22T15:36:53Z</time></trkpt>
<trkpt lat="46.17964776" lon="6.08895452"><ele>438.979126</ele><time>2009-08-22T15:36:54Z</time></trkpt>
<trkpt lat="46.17960510" lon="6.08889165"><ele>438.498535</ele><time>2009-08-22T15:36:55Z</time></trkpt>
<trkpt lat="46.17956738" lon="6.08883508"><ele>438.498535</ele><time>2009-08-22T15:36:56Z</time></trkpt>
<trkpt lat="46.17953167" lon="6.08877917"><ele>438.017822</ele><time>2009-08-22T15:36:57Z</time></trkpt>
<trkpt lat="46.17950276" lon="6.08872837"><ele>437.537109</ele><time>2009-08-22T15:36:58Z</time></trkpt>
<trkpt lat="46.17946428" lon="6.08868697"><ele>437.056519</ele><time>2009-08-22T15:36:59Z</time></trkpt>
<trkpt lat="46.17941776" lon="6.08866593"><ele>437.056519</ele><time>2009-08-22T15:37:00Z</time></trkpt>
<trkpt lat="46.17936202" lon="6.08866484"><ele>436.575928</ele><time>2009-08-22T15:37:01Z</time></trkpt>
<trkpt lat="46.17929849" lon="6.08867180"><ele>436.095215</ele><time>2009-08-22T15:37:02Z</time></trkpt>
<trkpt lat="46.17922917" lon="6.08867515"><ele>436.095215</ele><time>2009-08-22T15:37:03Z</time></trkpt>
<trkpt lat="46.17915876" lon="6.08867196"><ele>435.614502</ele><time>2009-08-22T15:37:04Z</time></trkpt>
<trkpt lat="46.17909539" lon="6.08866098"><ele>434.65332</ele><time>2009-08-22T15:37:05Z</time></trkpt>
<trkpt lat="46.17903898" lon="6.08864648"><ele>434.65332</ele><time>2009-08-22T15:37:06Z</time></trkpt>
<trkpt lat="46.17899112" lon="6.08863818"><ele>434.172607</ele><time>2009-08-22T15:37:07Z</time></trkpt>
<trkpt lat="46.17894435" lon="6.08863684"><ele>433.691895</ele><time>2009-08-22T15:37:08Z</time></trkpt>
<trkpt lat="46.17889842" lon="6.08863684"><ele>433.211304</ele><time>2009-08-22T15:37:09Z</time></trkpt>
<trkpt lat="46.17885869" lon="6.08863458"><ele>432.730713</ele><time>2009-08-22T15:37:10Z</time></trkpt>
<trkpt lat="46.17883069" lon="6.08863114"><ele>432.25</ele><time>2009-08-22T15:37:11Z</time></trkpt>
<trkpt lat="46.17881360" lon="6.08862662"><ele>431.769165</ele><time>2009-08-22T15:37:12Z</time></trkpt>
<trkpt lat="46.17880605" lon="6.08862326"><ele>431.769165</ele><time>2009-08-22T15:37:13Z</time></trkpt>
<trkpt lat="46.17880404" lon="6.08862159"><ele>431.769165</ele><time>2009-08-22T15:37:14Z</time></trkpt>
<trkpt lat="46.17881007" lon="6.08862318"><ele>432.25</ele><time>2009-08-22T15:37:15Z</time></trkpt>
<trkpt lat="46.17881343" lon="6.08862486"><ele>432.730713</ele><time>2009-08-22T15:37:16Z</time></trkpt>
<trkpt lat="46.17881150" lon="6.08862477"><ele>433.211304</ele><time>2009-08-22T15:37:17Z</time></trkpt>
<trkpt lat="46.17880932" lon="6.08862477"><ele>433.691895</ele><time>2009-08-22T15:37:18Z</time></trkpt>
<trkpt lat="46.17880748" lon="6.08862477"><ele>434.172607</ele><time>2009-08-22T15:37:19Z</time></trkpt>
<trkpt lat="46.17880546" lon="6.08862444"><ele>434.65332</ele><time>2009-08-22T15:37:20Z</time></trkpt>
<trkpt lat="46.17880337" lon="6.08862469"><ele>435.133911</ele><time>2009-08-22T15:37:21Z</time></trkpt>
<trkpt lat="46.17880127" lon="6.08862477"><ele>435.133911</ele><time>2009-08-22T15:37:22Z</time></trkpt>
<trkpt lat="46.17879968" lon="6.08862486"><ele>435.614502</ele><time>2009-08-22T15:37:23Z</time></trkpt>
<trkpt lat="46.17879834" lon="6.08862603"><ele>436.095215</ele><time>2009-08-22T15:37:24Z</time></trkpt>
<trkpt lat="46.17879239" lon="6.08862595"><ele>437.056519</ele><time>2009-08-22T15:37:25Z</time></trkpt>
<trkpt lat="46.17878719" lon="6.08862570"><ele>437.537109</ele><time>2009-08-22T15:37:26Z</time></trkpt>
<trkpt lat="46.17878702" lon="6.08863064"><ele>437.537109</ele><time>2009-08-22T15:37:27Z</time></trkpt>
<trkpt lat="46.17877495" lon="6.08863265"><ele>438.017822</ele><time>2009-08-22T15:37:28Z</time></trkpt>
<trkpt lat="46.17876213" lon="6.08862913"><ele>438.017822</ele><time>2009-08-22T15:37:29Z</time></trkpt>
<trkpt lat="46.17874319" lon="6.08860985"><ele>438.498535</ele><time>2009-08-22T15:37:30Z</time></trkpt>
<trkpt lat="46.17872232" lon="6.08857993"><ele>438.498535</ele><time>2009-08-22T15:37:31Z</time></trkpt>
<trkpt lat="46.17870815" lon="6.08853953"><ele>438.498535</ele><time>2009-08-22T15:37:32Z</time></trkpt>
<trkpt lat="46.17870203" lon="6.08848882"><ele>438.498535</ele><time>2009-08-22T15:37:33Z</time></trkpt>
<trkpt lat="46.17870128" lon="6.08842914"><ele>438.498535</ele><time>2009-08-22T15:37:34Z</time></trkpt>
<trkpt lat="46.17869893" lon="6.08836150"><ele>438.017822</ele><time>2009-08-22T15:37:35Z</time></trkpt>
<trkpt lat="46.17869667" lon="6.08828413"><ele>438.017822</ele><time>2009-08-22T15:37:36Z</time></trkpt>
<trkpt lat="46.17869382" lon="6.08820057"><ele>438.017822</ele><time>2009-08-22T15:37:37Z</time></trkpt>
<trkpt lat="46.17868954" lon="6.08811306"><ele>437.537109</ele><time>2009-08-22T15:37:38Z</time></trkpt>
<trkpt lat="46.17868342" lon="6.08802220"><ele>437.537109</ele><time>2009-08-22T15:37:39Z</time></trkpt>
<trkpt lat="46.17867546" lon="6.08792782"><ele>437.537109</ele><time>2009-08-22T15:37:40Z</time></trkpt>
<trkpt lat="46.17866976" lon="6.08782858"><ele>437.056519</ele><time>2009-08-22T15:37:41Z</time></trkpt>
<trkpt lat="46.17866809" lon="6.08772716"><ele>437.056519</ele><time>2009-08-22T15:37:42Z</time></trkpt>
<trkpt lat="46.17867043" lon="6.08762238"><ele>436.575928</ele><time>2009-08-22T15:37:43Z</time></trkpt>
<trkpt lat="46.17867437" lon="6.08751618"><ele>436.095215</ele><time>2009-08-22T15:37:44Z</time></trkpt>
<trkpt lat="46.17867739" lon="6.08741015"><ele>435.614502</ele><time>2009-08-22T15:37:45Z</time></trkpt>
<trkpt lat="46.17867865" lon="6.08731083"><ele>435.614502</ele><time>2009-08-22T15:37:46Z</time></trkpt>
<trkpt lat="46.17868418" lon="6.08720622"><ele>434.65332</ele><time>2009-08-22T15:37:47Z</time></trkpt>
<trkpt lat="46.17868586" lon="6.08711544"><ele>435.133911</ele><time>2009-08-22T15:37:48Z</time></trkpt>
<trkpt lat="46.17869273" lon="6.08702249"><ele>435.614502</ele><time>2009-08-22T15:37:49Z</time></trkpt>
<trkpt lat="46.17870555" lon="6.08692358"><ele>435.133911</ele><time>2009-08-22T15:37:50Z</time></trkpt>
<trkpt lat="46.17871662" lon="6.08682719"><ele>434.65332</ele><time>2009-08-22T15:37:51Z</time></trkpt>
<trkpt lat="46.17872533" lon="6.08673600"><ele>434.65332</ele><time>2009-08-22T15:37:52Z</time></trkpt>
<trkpt lat="46.17873522" lon="6.08664782"><ele>434.65332</ele><time>2009-08-22T15:37:53Z</time></trkpt>
<trkpt lat="46.17874486" lon="6.08655998"><ele>434.65332</ele><time>2009-08-22T15:37:54Z</time></trkpt>
<trkpt lat="46.17875216" lon="6.08647364"><ele>435.133911</ele><time>2009-08-22T15:37:55Z</time></trkpt>
<trkpt lat="46.17875936" lon="6.08638756"><ele>435.133911</ele><time>2009-08-22T15:37:56Z</time></trkpt>
<trkpt lat="46.17876867" lon="6.08630240"><ele>435.133911</ele><time>2009-08-22T15:37:57Z</time></trkpt>
<trkpt lat="46.17877906" lon="6.08621774"><ele>435.133911</ele><time>2009-08-22T15:37:58Z</time></trkpt>
<trkpt lat="46.17879063" lon="6.08613417"><ele>435.614502</ele><time>2009-08-22T15:37:59Z</time></trkpt>
<trkpt lat="46.17880538" lon="6.08605245"><ele>435.614502</ele><time>2009-08-22T15:38:00Z</time></trkpt>
<trkpt lat="46.17881955" lon="6.08598649"><ele>436.095215</ele><time>2009-08-22T15:38:01Z</time></trkpt>
<trkpt lat="46.17882835" lon="6.08590895"><ele>436.095215</ele><time>2009-08-22T15:38:02Z</time></trkpt>
<trkpt lat="46.17883950" lon="6.08583662"><ele>436.095215</ele><time>2009-08-22T15:38:03Z</time></trkpt>
<trkpt lat="46.17885207" lon="6.08576504"><ele>436.575928</ele><time>2009-08-22T15:38:04Z</time></trkpt>
<trkpt lat="46.17886623" lon="6.08568968"><ele>436.575928</ele><time>2009-08-22T15:38:05Z</time></trkpt>
<trkpt lat="46.17888073" lon="6.08561022"><ele>436.575928</ele><time>2009-08-22T15:38:06Z</time></trkpt>
<trkpt lat="46.17889599" lon="6.08552716"><ele>436.095215</ele><time>2009-08-22T15:38:07Z</time></trkpt>
<trkpt lat="46.17891887" lon="6.08541174"><ele>435.614502</ele><time>2009-08-22T15:38:08Z</time></trkpt>
<trkpt lat="46.17893849" lon="6.08531409"><ele>435.614502</ele><time>2009-08-22T15:38:09Z</time></trkpt>
<trkpt lat="46.17895734" lon="6.08521937"><ele>435.614502</ele><time>2009-08-22T15:38:10Z</time></trkpt>
<trkpt lat="46.17897612" lon="6.08512089"><ele>435.133911</ele><time>2009-08-22T15:38:11Z</time></trkpt>
<trkpt lat="46.17899582" lon="6.08502198"><ele>435.133911</ele><time>2009-08-22T15:38:12Z</time></trkpt>
<trkpt lat="46.17901518" lon="6.08492525"><ele>434.172607</ele><time>2009-08-22T15:38:13Z</time></trkpt>
<trkpt lat="46.17904527" lon="6.08483708"><ele>434.172607</ele><time>2009-08-22T15:38:14Z</time></trkpt>
<trkpt lat="46.17908584" lon="6.08475896"><ele>434.172607</ele><time>2009-08-22T15:38:15Z</time></trkpt>
<trkpt lat="46.17913362" lon="6.08469106"><ele>434.65332</ele><time>2009-08-22T15:38:16Z</time></trkpt>
<trkpt lat="46.17918265" lon="6.08462736"><ele>435.133911</ele><time>2009-08-22T15:38:17Z</time></trkpt>
<trkpt lat="46.17923135" lon="6.08456609"><ele>435.614502</ele><time>2009-08-22T15:38:18Z</time></trkpt>
<trkpt lat="46.17927376" lon="6.08449099"><ele>435.614502</ele><time>2009-08-22T15:38:19Z</time></trkpt>
<trkpt lat="46.17931165" lon="6.08433953"><ele>435.133911</ele><time>2009-08-22T15:38:20Z</time></trkpt>
<trkpt lat="46.17933076" lon="6.08425143"><ele>435.133911</ele><time>2009-08-22T15:38:21Z</time></trkpt>
<trkpt lat="46.17935507" lon="6.08414565"><ele>435.133911</ele><time>2009-08-22T15:38:22Z</time></trkpt>
<trkpt lat="46.17935557" lon="6.08405286"><ele>434.172607</ele><time>2009-08-22T15:38:23Z</time></trkpt>
<trkpt lat="46.17934333" lon="6.08393736"><ele>433.691895</ele><time>2009-08-22T15:38:24Z</time></trkpt>
<trkpt lat="46.17934484" lon="6.08383720"><ele>432.730713</ele><time>2009-08-22T15:38:25Z</time></trkpt>
<trkpt lat="46.17933302" lon="6.08374349"><ele>433.211304</ele><time>2009-08-22T15:38:26Z</time></trkpt>
<trkpt lat="46.17931936" lon="6.08365146"><ele>433.691895</ele><time>2009-08-22T15:38:27Z</time></trkpt>
<trkpt lat="46.17931525" lon="6.08355959"><ele>433.691895</ele><time>2009-08-22T15:38:28Z</time></trkpt>
<trkpt lat="46.17931274" lon="6.08348876"><ele>434.172607</ele><time>2009-08-22T15:38:29Z</time></trkpt>
<trkpt lat="46.17932112" lon="6.08340947"><ele>434.65332</ele><time>2009-08-22T15:38:30Z</time></trkpt>
<trkpt lat="46.17932883" lon="6.08334635"><ele>434.65332</ele><time>2009-08-22T15:38:31Z</time></trkpt>
<trkpt lat="46.17933763" lon="6.08328450"><ele>435.133911</ele><time>2009-08-22T15:38:32Z</time></trkpt>
<trkpt lat="46.17934769" lon="6.08321249"><ele>435.614502</ele><time>2009-08-22T15:38:33Z</time></trkpt>
<trkpt lat="46.17935834" lon="6.08314100"><ele>435.614502</ele><time>2009-08-22T15:38:34Z</time></trkpt>
<trkpt lat="46.17936655" lon="6.08305869"><ele>436.095215</ele><time>2009-08-22T15:38:35Z</time></trkpt>
<trkpt lat="46.17937359" lon="6.08298132"><ele>436.575928</ele><time>2009-08-22T15:38:36Z</time></trkpt>
<trkpt lat="46.17938055" lon="6.08290689"><ele>437.056519</ele><time>2009-08-22T15:38:37Z</time></trkpt>
<trkpt lat="46.17938432" lon="6.08285006"><ele>438.017822</ele><time>2009-08-22T15:38:38Z</time></trkpt>
<trkpt lat="46.17939438" lon="6.08275996"><ele>438.498535</ele><time>2009-08-22T15:38:39Z</time></trkpt>
<trkpt lat="46.17940226" lon="6.08268427"><ele>438.498535</ele><time>2009-08-22T15:38:40Z</time></trkpt>
<trkpt lat="46.17941106" lon="6.08260942"><ele>438.979126</ele><time>2009-08-22T15:38:41Z</time></trkpt>
<trkpt lat="46.17942028" lon="6.08253532"><ele>439.459717</ele><time>2009-08-22T15:38:42Z</time></trkpt>
<trkpt lat="46.17942916" lon="6.08246014"><ele>439.459717</ele><time>2009-08-22T15:38:43Z</time></trkpt>
<trkpt lat="46.17943830" lon="6.08238713"><ele>439.94043</ele><time>2009-08-22T15:38:44Z</time></trkpt>
<trkpt lat="46.17944844" lon="6.08231052"><ele>439.94043</ele><time>2009-08-22T15:38:45Z</time></trkpt>
<trkpt lat="46.17945984" lon="6.08223416"><ele>439.94043</ele><time>2009-08-22T15:38:46Z</time></trkpt>
<trkpt lat="46.17947225" lon="6.08215612"><ele>439.94043</ele><time>2009-08-22T15:38:47Z</time></trkpt>
<trkpt lat="46.17948633" lon="6.08207717"><ele>439.94043</ele><time>2009-08-22T15:38:48Z</time></trkpt>
<trkpt lat="46.17950049" lon="6.08199963"><ele>440.421265</ele><time>2009-08-22T15:38:49Z</time></trkpt>
<trkpt lat="46.17951164" lon="6.08192872"><ele>440.421265</ele><time>2009-08-22T15:38:50Z</time></trkpt>
<trkpt lat="46.17952379" lon="6.08185220"><ele>440.421265</ele><time>2009-08-22T15:38:51Z</time></trkpt>
<trkpt lat="46.17953637" lon="6.08177307"><ele>440.901855</ele><time>2009-08-22T15:38:52Z</time></trkpt>
<trkpt lat="46.17954886" lon="6.08169219"><ele>440.901855</ele><time>2009-08-22T15:38:53Z</time></trkpt>
<trkpt lat="46.17956109" lon="6.08160987"><ele>440.901855</ele><time>2009-08-22T15:38:54Z</time></trkpt>
<trkpt lat="46.17957333" lon="6.08152689"><ele>440.901855</ele><time>2009-08-22T15:38:55Z</time></trkpt>
<trkpt lat="46.17958632" lon="6.08144433"><ele>440.901855</ele><time>2009-08-22T15:38:56Z</time></trkpt>
<trkpt lat="46.17959789" lon="6.08136244"><ele>440.901855</ele><time>2009-08-22T15:38:57Z</time></trkpt>
<trkpt lat="46.17960778" lon="6.08128072"><ele>440.901855</ele><time>2009-08-22T15:38:58Z</time></trkpt>
<trkpt lat="46.17961859" lon="6.08119849"><ele>440.901855</ele><time>2009-08-22T15:38:59Z</time></trkpt>
<trkpt lat="46.17962899" lon="6.08111492"><ele>440.901855</ele><time>2009-08-22T15:39:00Z</time></trkpt>
<trkpt lat="46.17963804" lon="6.08103203"><ele>440.901855</ele><time>2009-08-22T15:39:01Z</time></trkpt>
<trkpt lat="46.17964743" lon="6.08094754"><ele>440.901855</ele><time>2009-08-22T15:39:02Z</time></trkpt>
<trkpt lat="46.17965925" lon="6.08085265"><ele>440.901855</ele><time>2009-08-22T15:39:03Z</time></trkpt>
<trkpt lat="46.17967064" lon="6.08076037"><ele>440.421265</ele><time>2009-08-22T15:39:04Z</time></trkpt>
<trkpt lat="46.17968037" lon="6.08067454"><ele>440.421265</ele><time>2009-08-22T15:39:05Z</time></trkpt>
<trkpt lat="46.17968892" lon="6.08058745"><ele>440.421265</ele><time>2009-08-22T15:39:06Z</time></trkpt>
<trkpt lat="46.17969713" lon="6.08049919"><ele>440.421265</ele><time>2009-08-22T15:39:07Z</time></trkpt>
<trkpt lat="46.17970535" lon="6.08041126"><ele>440.421265</ele><time>2009-08-22T15:39:08Z</time></trkpt>
<trkpt lat="46.17971297" lon="6.08032325"><ele>439.94043</ele><time>2009-08-22T15:39:09Z</time></trkpt>
<trkpt lat="46.17971943" lon="6.08023407"><ele>439.94043</ele><time>2009-08-22T15:39:10Z</time></trkpt>
<trkpt lat="46.17972546" lon="6.08014430"><ele>439.94043</ele><time>2009-08-22T15:39:11Z</time></trkpt>
<trkpt lat="46.17972722" lon="6.08007029"><ele>440.901855</ele><time>2009-08-22T15:39:12Z</time></trkpt>
<trkpt lat="46.17973032" lon="6.07998974"><ele>441.382446</ele><time>2009-08-22T15:39:13Z</time></trkpt>
<trkpt lat="46.17973669" lon="6.07990248"><ele>441.382446</ele><time>2009-08-22T15:39:14Z</time></trkpt>
<trkpt lat="46.17974248" lon="6.07980525"><ele>441.382446</ele><time>2009-08-22T15:39:15Z</time></trkpt>
<trkpt lat="46.17975128" lon="6.07971095"><ele>441.382446</ele><time>2009-08-22T15:39:16Z</time></trkpt>
<trkpt lat="46.17976016" lon="6.07962035"><ele>441.382446</ele><time>2009-08-22T15:39:17Z</time></trkpt>
<trkpt lat="46.17976746" lon="6.07953276"><ele>440.901855</ele><time>2009-08-22T15:39:18Z</time></trkpt>
<trkpt lat="46.17977165" lon="6.07944969"><ele>440.901855</ele><time>2009-08-22T15:39:19Z</time></trkpt>
<trkpt lat="46.17977022" lon="6.07938574"><ele>440.901855</ele><time>2009-08-22T15:39:20Z</time></trkpt>
<trkpt lat="46.17977089" lon="6.07930996"><ele>440.901855</ele><time>2009-08-22T15:39:21Z</time></trkpt>
<trkpt lat="46.17977148" lon="6.07923662"><ele>440.901855</ele><time>2009-08-22T15:39:22Z</time></trkpt>
<trkpt lat="46.17977274" lon="6.07916496"><ele>440.421265</ele><time>2009-08-22T15:39:23Z</time></trkpt>
<trkpt lat="46.17977609" lon="6.07908919"><ele>439.94043</ele><time>2009-08-22T15:39:24Z</time></trkpt>
<trkpt lat="46.17977902" lon="6.07902029"><ele>439.94043</ele><time>2009-08-22T15:39:25Z</time></trkpt>
<trkpt lat="46.17978615" lon="6.07895792"><ele>439.459717</ele><time>2009-08-22T15:39:26Z</time></trkpt>
<trkpt lat="46.17979495" lon="6.07891937"><ele>440.421265</ele><time>2009-08-22T15:39:27Z</time></trkpt>
<trkpt lat="46.17980819" lon="6.07889355"><ele>440.421265</ele><time>2009-08-22T15:39:28Z</time></trkpt>
<trkpt lat="46.17982253" lon="6.07886237"><ele>439.94043</ele><time>2009-08-22T15:39:29Z</time></trkpt>
<trkpt lat="46.17982906" lon="6.07884376"><ele>439.459717</ele><time>2009-08-22T15:39:30Z</time></trkpt>
<trkpt lat="46.17983275" lon="6.07882884"><ele>438.979126</ele><time>2009-08-22T15:39:31Z</time></trkpt>
<trkpt lat="46.17983133" lon="6.07882163"><ele>438.979126</ele><time>2009-08-22T15:39:32Z</time></trkpt>
<trkpt lat="46.17983024" lon="6.07881744"><ele>438.979126</ele><time>2009-08-22T15:39:33Z</time></trkpt>
<trkpt lat="46.17983057" lon="6.07880143"><ele>438.979126</ele><time>2009-08-22T15:39:34Z</time></trkpt>
<trkpt lat="46.17983082" lon="6.07877587"><ele>438.979126</ele><time>2009-08-22T15:39:35Z</time></trkpt>
<trkpt lat="46.17983367" lon="6.07874486"><ele>438.979126</ele><time>2009-08-22T15:39:36Z</time></trkpt>
<trkpt lat="46.17983267" lon="6.07870496"><ele>438.979126</ele><time>2009-08-22T15:39:37Z</time></trkpt>
<trkpt lat="46.17982722" lon="6.07865785"><ele>438.979126</ele><time>2009-08-22T15:39:38Z</time></trkpt>
<trkpt lat="46.17981934" lon="6.07860572"><ele>438.979126</ele><time>2009-08-22T15:39:39Z</time></trkpt>
<trkpt lat="46.17980719" lon="6.07855543"><ele>438.979126</ele><time>2009-08-22T15:39:40Z</time></trkpt>
<trkpt lat="46.17978849" lon="6.07850815"><ele>438.498535</ele><time>2009-08-22T15:39:41Z</time></trkpt>
<trkpt lat="46.17976637" lon="6.07846054"><ele>438.498535</ele><time>2009-08-22T15:39:42Z</time></trkpt>
<trkpt lat="46.17974692" lon="6.07840547"><ele>438.498535</ele><time>2009-08-22T15:39:43Z</time></trkpt>
<trkpt lat="46.17973502" lon="6.07834646"><ele>438.498535</ele><time>2009-08-22T15:39:44Z</time></trkpt>
<trkpt lat="46.17973234" lon="6.07827924"><ele>438.017822</ele><time>2009-08-22T15:39:45Z</time></trkpt>
<trkpt lat="46.17972898" lon="6.07820984"><ele>438.017822</ele><time>2009-08-22T15:39:46Z</time></trkpt>
<trkpt lat="46.17972647" lon="6.07813423"><ele>437.537109</ele><time>2009-08-22T15:39:47Z</time></trkpt>
<trkpt lat="46.17972320" lon="6.07805662"><ele>437.056519</ele><time>2009-08-22T15:39:48Z</time></trkpt>
<trkpt lat="46.17972052" lon="6.07797909"><ele>436.575928</ele><time>2009-08-22T15:39:49Z</time></trkpt>
<trkpt lat="46.17971398" lon="6.07789845"><ele>436.575928</ele><time>2009-08-22T15:39:50Z</time></trkpt>
<trkpt lat="46.17970694" lon="6.07781983"><ele>436.095215</ele><time>2009-08-22T15:39:51Z</time></trkpt>
<trkpt lat="46.17969856" lon="6.07774397"><ele>436.575928</ele><time>2009-08-22T15:39:52Z</time></trkpt>
<trkpt lat="46.17969017" lon="6.07766116"><ele>437.537109</ele><time>2009-08-22T15:39:53Z</time></trkpt>
<trkpt lat="46.17968230" lon="6.07757558"><ele>437.537109</ele><time>2009-08-22T15:39:54Z</time></trkpt>
<trkpt lat="46.17967257" lon="6.07749042"><ele>438.017822</ele><time>2009-08-22T15:39:55Z</time></trkpt>
<trkpt lat="46.17966117" lon="6.07740467"><ele>438.017822</ele><time>2009-08-22T15:39:56Z</time></trkpt>
<trkpt lat="46.17964986" lon="6.07731759"><ele>438.498535</ele><time>2009-08-22T15:39:57Z</time></trkpt>
<trkpt lat="46.17963913" lon="6.07722849"><ele>438.498535</ele><time>2009-08-22T15:39:58Z</time></trkpt>
<trkpt lat="46.17962806" lon="6.07713679"><ele>438.979126</ele><time>2009-08-22T15:39:59Z</time></trkpt>
<trkpt lat="46.17961474" lon="6.07704375"><ele>439.459717</ele><time>2009-08-22T15:40:00Z</time></trkpt>
<trkpt lat="46.17960082" lon="6.07695289"><ele>439.94043</ele><time>2009-08-22T15:40:01Z</time></trkpt>
<trkpt lat="46.17958666" lon="6.07686086"><ele>439.94043</ele><time>2009-08-22T15:40:02Z</time></trkpt>
<trkpt lat="46.17957174" lon="6.07676899"><ele>440.421265</ele><time>2009-08-22T15:40:03Z</time></trkpt>
<trkpt lat="46.17955623" lon="6.07667738"><ele>440.421265</ele><time>2009-08-22T15:40:04Z</time></trkpt>
<trkpt lat="46.17953913" lon="6.07658618"><ele>440.901855</ele><time>2009-08-22T15:40:05Z</time></trkpt>
<trkpt lat="46.17952136" lon="6.07649524"><ele>440.901855</ele><time>2009-08-22T15:40:06Z</time></trkpt>
<trkpt lat="46.17950259" lon="6.07640170"><ele>441.382446</ele><time>2009-08-22T15:40:07Z</time></trkpt>
<trkpt lat="46.17948130" lon="6.07630949"><ele>441.382446</ele><time>2009-08-22T15:40:08Z</time></trkpt>
<trkpt lat="46.17945917" lon="6.07621780"><ele>441.863159</ele><time>2009-08-22T15:40:09Z</time></trkpt>
<trkpt lat="46.17943679" lon="6.07612669"><ele>442.343872</ele><time>2009-08-22T15:40:10Z</time></trkpt>
<trkpt lat="46.17941206" lon="6.07603658"><ele>442.343872</ele><time>2009-08-22T15:40:11Z</time></trkpt>
<trkpt lat="46.17938600" lon="6.07594689"><ele>442.343872</ele><time>2009-08-22T15:40:12Z</time></trkpt>
<trkpt lat="46.17935867" lon="6.07585696"><ele>442.824463</ele><time>2009-08-22T15:40:13Z</time></trkpt>
<trkpt lat="46.17933076" lon="6.07576777"><ele>442.824463</ele><time>2009-08-22T15:40:14Z</time></trkpt>
<trkpt lat="46.17930226" lon="6.07567943"><ele>442.824463</ele><time>2009-08-22T15:40:15Z</time></trkpt>
<trkpt lat="46.17927343" lon="6.07559142"><ele>442.824463</ele><time>2009-08-22T15:40:16Z</time></trkpt>
<trkpt lat="46.17924392" lon="6.07550458"><ele>442.824463</ele><time>2009-08-22T15:40:17Z</time></trkpt>
<trkpt lat="46.17921408" lon="6.07541808"><ele>442.824463</ele><time>2009-08-22T15:40:18Z</time></trkpt>
<trkpt lat="46.17918449" lon="6.07533158"><ele>442.824463</ele><time>2009-08-22T15:40:19Z</time></trkpt>
<trkpt lat="46.17915482" lon="6.07524600"><ele>442.824463</ele><time>2009-08-22T15:40:20Z</time></trkpt>
<trkpt lat="46.17912406" lon="6.07516034"><ele>442.824463</ele><time>2009-08-22T15:40:21Z</time></trkpt>
<trkpt lat="46.17909213" lon="6.07507425"><ele>442.824463</ele><time>2009-08-22T15:40:22Z</time></trkpt>
<trkpt lat="46.17906036" lon="6.07498683"><ele>442.824463</ele><time>2009-08-22T15:40:23Z</time></trkpt>
<trkpt lat="46.17902909" lon="6.07489672"><ele>442.824463</ele><time>2009-08-22T15:40:24Z</time></trkpt>
<trkpt lat="46.17899733" lon="6.07480704"><ele>443.305054</ele><time>2009-08-22T15:40:25Z</time></trkpt>
<trkpt lat="46.17896489" lon="6.07471903"><ele>442.824463</ele><time>2009-08-22T15:40:26Z</time></trkpt>
<trkpt lat="46.17893237" lon="6.07463026"><ele>442.824463</ele><time>2009-08-22T15:40:27Z</time></trkpt>
<trkpt lat="46.17890077" lon="6.07454033"><ele>442.824463</ele><time>2009-08-22T15:40:28Z</time></trkpt>
<trkpt lat="46.17886917" lon="6.07445039"><ele>442.824463</ele><time>2009-08-22T15:40:29Z</time></trkpt>
<trkpt lat="46.17883606" lon="6.07436062"><ele>442.824463</ele><time>2009-08-22T15:40:30Z</time></trkpt>
<trkpt lat="46.17880312" lon="6.07427018"><ele>443.305054</ele><time>2009-08-22T15:40:31Z</time></trkpt>
<trkpt lat="46.17877043" lon="6.07417974"><ele>443.305054</ele><time>2009-08-22T15:40:32Z</time></trkpt>
<trkpt lat="46.17873698" lon="6.07409055"><ele>443.305054</ele><time>2009-08-22T15:40:33Z</time></trkpt>
<trkpt lat="46.17870404" lon="6.07400154"><ele>443.305054</ele><time>2009-08-22T15:40:34Z</time></trkpt>
<trkpt lat="46.17867169" lon="6.07391235"><ele>442.824463</ele><time>2009-08-22T15:40:35Z</time></trkpt>
<trkpt lat="46.17863942" lon="6.07382317"><ele>442.824463</ele><time>2009-08-22T15:40:36Z</time></trkpt>
<trkpt lat="46.17860757" lon="6.07373407"><ele>443.305054</ele><time>2009-08-22T15:40:37Z</time></trkpt>
<trkpt lat="46.17857144" lon="6.07363265"><ele>443.305054</ele><time>2009-08-22T15:40:38Z</time></trkpt>
<trkpt lat="46.17853389" lon="6.07354590"><ele>443.305054</ele><time>2009-08-22T15:40:39Z</time></trkpt>
<trkpt lat="46.17850196" lon="6.07345185"><ele>443.305054</ele><time>2009-08-22T15:40:40Z</time></trkpt>
<trkpt lat="46.17846399" lon="6.07336242"><ele>443.305054</ele><time>2009-08-22T15:40:41Z</time></trkpt>
<trkpt lat="46.17843063" lon="6.07327105"><ele>443.305054</ele><time>2009-08-22T15:40:42Z</time></trkpt>
<trkpt lat="46.17839819" lon="6.07318439"><ele>443.305054</ele><time>2009-08-22T15:40:43Z</time></trkpt>
<trkpt lat="46.17836516" lon="6.07310073"><ele>443.785767</ele><time>2009-08-22T15:40:44Z</time></trkpt>
<trkpt lat="46.17833046" lon="6.07301742"><ele>443.785767</ele><time>2009-08-22T15:40:45Z</time></trkpt>
<trkpt lat="46.17829693" lon="6.07293427"><ele>443.785767</ele><time>2009-08-22T15:40:46Z</time></trkpt>
<trkpt lat="46.17826575" lon="6.07285347"><ele>443.785767</ele><time>2009-08-22T15:40:47Z</time></trkpt>
<trkpt lat="46.17824036" lon="6.07277317"><ele>443.785767</ele><time>2009-08-22T15:40:48Z</time></trkpt>
<trkpt lat="46.17822133" lon="6.07269614"><ele>443.785767</ele><time>2009-08-22T15:40:49Z</time></trkpt>
<trkpt lat="46.17820767" lon="6.07262246"><ele>443.785767</ele><time>2009-08-22T15:40:50Z</time></trkpt>
<trkpt lat="46.17820054" lon="6.07255122"><ele>443.785767</ele><time>2009-08-22T15:40:51Z</time></trkpt>
<trkpt lat="46.17820306" lon="6.07248819"><ele>443.785767</ele><time>2009-08-22T15:40:52Z</time></trkpt>
<trkpt lat="46.17821127" lon="6.07243530"><ele>443.785767</ele><time>2009-08-22T15:40:53Z</time></trkpt>
<trkpt lat="46.17821823" lon="6.07239045"><ele>443.785767</ele><time>2009-08-22T15:40:54Z</time></trkpt>
<trkpt lat="46.17821982" lon="6.07235064"><ele>443.785767</ele><time>2009-08-22T15:40:55Z</time></trkpt>
<trkpt lat="46.17821027" lon="6.07232063"><ele>443.785767</ele><time>2009-08-22T15:40:56Z</time></trkpt>
<trkpt lat="46.17819157" lon="6.07230093"><ele>443.785767</ele><time>2009-08-22T15:40:57Z</time></trkpt>
<trkpt lat="46.17816928" lon="6.07228367"><ele>444.266479</ele><time>2009-08-22T15:40:58Z</time></trkpt>
<trkpt lat="46.17814438" lon="6.07226062"><ele>444.266479</ele><time>2009-08-22T15:40:59Z</time></trkpt>
<trkpt lat="46.17811957" lon="6.07222726"><ele>444.74707</ele><time>2009-08-22T15:41:00Z</time></trkpt>
<trkpt lat="46.17810859" lon="6.07218300"><ele>444.74707</ele><time>2009-08-22T15:41:01Z</time></trkpt>
<trkpt lat="46.17809594" lon="6.07213070"><ele>444.74707</ele><time>2009-08-22T15:41:02Z</time></trkpt>
<trkpt lat="46.17807062" lon="6.07208879"><ele>445.227661</ele><time>2009-08-22T15:41:03Z</time></trkpt>
<trkpt lat="46.17803995" lon="6.07204897"><ele>445.227661</ele><time>2009-08-22T15:41:04Z</time></trkpt>
<trkpt lat="46.17801229" lon="6.07199759"><ele>445.227661</ele><time>2009-08-22T15:41:05Z</time></trkpt>
<trkpt lat="46.17798597" lon="6.07193657"><ele>445.227661</ele><time>2009-08-22T15:41:06Z</time></trkpt>
<trkpt lat="46.17795998" lon="6.07186876"><ele>445.227661</ele><time>2009-08-22T15:41:07Z</time></trkpt>
<trkpt lat="46.17793308" lon="6.07179567"><ele>445.227661</ele><time>2009-08-22T15:41:08Z</time></trkpt>
<trkpt lat="46.17790458" lon="6.07171705"><ele>445.227661</ele><time>2009-08-22T15:41:09Z</time></trkpt>
<trkpt lat="46.17787558" lon="6.07163457"><ele>445.227661</ele><time>2009-08-22T15:41:10Z</time></trkpt>
<trkpt lat="46.17784565" lon="6.07154975"><ele>444.74707</ele><time>2009-08-22T15:41:11Z</time></trkpt>
<trkpt lat="46.17781472" lon="6.07146358"><ele>444.74707</ele><time>2009-08-22T15:41:12Z</time></trkpt>
<trkpt lat="46.17778338" lon="6.07137700"><ele>444.74707</ele><time>2009-08-22T15:41:13Z</time></trkpt>
<trkpt lat="46.17775152" lon="6.07128974"><ele>444.74707</ele><time>2009-08-22T15:41:14Z</time></trkpt>
<trkpt lat="46.17772018" lon="6.07120198"><ele>444.74707</ele><time>2009-08-22T15:41:15Z</time></trkpt>
<trkpt lat="46.17768900" lon="6.07111389"><ele>444.74707</ele><time>2009-08-22T15:41:16Z</time></trkpt>
<trkpt lat="46.17765673" lon="6.07102630"><ele>444.74707</ele><time>2009-08-22T15:41:17Z</time></trkpt>
<trkpt lat="46.17762353" lon="6.07093904"><ele>444.74707</ele><time>2009-08-22T15:41:18Z</time></trkpt>
<trkpt lat="46.17759076" lon="6.07085095"><ele>444.74707</ele><time>2009-08-22T15:41:19Z</time></trkpt>
<trkpt lat="46.17755983" lon="6.07076126"><ele>444.74707</ele><time>2009-08-22T15:41:20Z</time></trkpt>
<trkpt lat="46.17752966" lon="6.07067216"><ele>444.74707</ele><time>2009-08-22T15:41:21Z</time></trkpt>
<trkpt lat="46.17749906" lon="6.07058449"><ele>444.74707</ele><time>2009-08-22T15:41:22Z</time></trkpt>
<trkpt lat="46.17746763" lon="6.07049664"><ele>444.74707</ele><time>2009-08-22T15:41:23Z</time></trkpt>
<trkpt lat="46.17743569" lon="6.07040805"><ele>444.74707</ele><time>2009-08-22T15:41:24Z</time></trkpt>
<trkpt lat="46.17740376" lon="6.07031786"><ele>444.74707</ele><time>2009-08-22T15:41:25Z</time></trkpt>
<trkpt lat="46.17737174" lon="6.07022608"><ele>444.74707</ele><time>2009-08-22T15:41:26Z</time></trkpt>
<trkpt lat="46.17733989" lon="6.07013304"><ele>444.74707</ele><time>2009-08-22T15:41:27Z</time></trkpt>
<trkpt lat="46.17730745" lon="6.07003983"><ele>445.227661</ele><time>2009-08-22T15:41:28Z</time></trkpt>
<trkpt lat="46.17727459" lon="6.06994654"><ele>445.227661</ele><time>2009-08-22T15:41:29Z</time></trkpt>
<trkpt lat="46.17724149" lon="6.06985384"><ele>445.227661</ele><time>2009-08-22T15:41:30Z</time></trkpt>
<trkpt lat="46.17720846" lon="6.06976247"><ele>445.227661</ele><time>2009-08-22T15:41:31Z</time></trkpt>
<trkpt lat="46.17717653" lon="6.06967128"><ele>445.227661</ele><time>2009-08-22T15:41:32Z</time></trkpt>
<trkpt lat="46.17714526" lon="6.06958067"><ele>445.227661</ele><time>2009-08-22T15:41:33Z</time></trkpt>
<trkpt lat="46.17711450" lon="6.06949023"><ele>445.708374</ele><time>2009-08-22T15:41:34Z</time></trkpt>
<trkpt lat="46.17708332" lon="6.06940239"><ele>445.708374</ele><time>2009-08-22T15:41:35Z</time></trkpt>
<trkpt lat="46.17705273" lon="6.06931245"><ele>445.708374</ele><time>2009-08-22T15:41:36Z</time></trkpt>
<trkpt lat="46.17702263" lon="6.06922335"><ele>445.708374</ele><time>2009-08-22T15:41:37Z</time></trkpt>
<trkpt lat="46.17699347" lon="6.06913383"><ele>445.708374</ele><time>2009-08-22T15:41:38Z</time></trkpt>
<trkpt lat="46.17696555" lon="6.06904255"><ele>445.708374</ele><time>2009-08-22T15:41:39Z</time></trkpt>
<trkpt lat="46.17693823" lon="6.06894926"><ele>445.708374</ele><time>2009-08-22T15:41:40Z</time></trkpt>
<trkpt lat="46.17690923" lon="6.06885572"><ele>446.189087</ele><time>2009-08-22T15:41:41Z</time></trkpt>
<trkpt lat="46.17687838" lon="6.06876260"><ele>446.189087</ele><time>2009-08-22T15:41:42Z</time></trkpt>
<trkpt lat="46.17684712" lon="6.06866864"><ele>446.189087</ele><time>2009-08-22T15:41:43Z</time></trkpt>
<trkpt lat="46.17681677" lon="6.06857384"><ele>446.669678</ele><time>2009-08-22T15:41:44Z</time></trkpt>
<trkpt lat="46.17678668" lon="6.06847879"><ele>446.669678</ele><time>2009-08-22T15:41:45Z</time></trkpt>
<trkpt lat="46.17675642" lon="6.06838399"><ele>446.669678</ele><time>2009-08-22T15:41:46Z</time></trkpt>
<trkpt lat="46.17672633" lon="6.06828952"><ele>446.669678</ele><time>2009-08-22T15:41:47Z</time></trkpt>
<trkpt lat="46.17669675" lon="6.06819506"><ele>447.150269</ele><time>2009-08-22T15:41:48Z</time></trkpt>
<trkpt lat="46.17666758" lon="6.06810068"><ele>447.150269</ele><time>2009-08-22T15:41:49Z</time></trkpt>
<trkpt lat="46.17663765" lon="6.06800655"><ele>447.150269</ele><time>2009-08-22T15:41:50Z</time></trkpt>
<trkpt lat="46.17660765" lon="6.06791267"><ele>447.150269</ele><time>2009-08-22T15:41:51Z</time></trkpt>
<trkpt lat="46.17657806" lon="6.06781846"><ele>447.150269</ele><time>2009-08-22T15:41:52Z</time></trkpt>
<trkpt lat="46.17654839" lon="6.06772400"><ele>447.150269</ele><time>2009-08-22T15:41:53Z</time></trkpt>
<trkpt lat="46.17651888" lon="6.06762928"><ele>447.150269</ele><time>2009-08-22T15:41:54Z</time></trkpt>
<trkpt lat="46.17648938" lon="6.06753406"><ele>447.630981</ele><time>2009-08-22T15:41:55Z</time></trkpt>
<trkpt lat="46.17645979" lon="6.06743842"><ele>447.630981</ele><time>2009-08-22T15:41:56Z</time></trkpt>
<trkpt lat="46.17642945" lon="6.06734253"><ele>447.630981</ele><time>2009-08-22T15:41:57Z</time></trkpt>
<trkpt lat="46.17639827" lon="6.06724589"><ele>447.630981</ele><time>2009-08-22T15:41:58Z</time></trkpt>
<trkpt lat="46.17636742" lon="6.06714849"><ele>447.630981</ele><time>2009-08-22T15:41:59Z</time></trkpt>
<trkpt lat="46.17633766" lon="6.06705034"><ele>447.630981</ele><time>2009-08-22T15:42:00Z</time></trkpt>
<trkpt lat="46.17630783" lon="6.06695144"><ele>447.630981</ele><time>2009-08-22T15:42:01Z</time></trkpt>
<trkpt lat="46.17627773" lon="6.06685152"><ele>447.630981</ele><time>2009-08-22T15:42:02Z</time></trkpt>
<trkpt lat="46.17624739" lon="6.06675019"><ele>447.630981</ele><time>2009-08-22T15:42:03Z</time></trkpt>
<trkpt lat="46.17621629" lon="6.06664793"><ele>447.150269</ele><time>2009-08-22T15:42:04Z</time></trkpt>
<trkpt lat="46.17618520" lon="6.06654433"><ele>447.150269</ele><time>2009-08-22T15:42:05Z</time></trkpt>
<trkpt lat="46.17615402" lon="6.06643905"><ele>447.150269</ele><time>2009-08-22T15:42:06Z</time></trkpt>
<trkpt lat="46.17612217" lon="6.06633243"><ele>447.150269</ele><time>2009-08-22T15:42:07Z</time></trkpt>
<trkpt lat="46.17609023" lon="6.06622397"><ele>446.669678</ele><time>2009-08-22T15:42:08Z</time></trkpt>
<trkpt lat="46.17605804" lon="6.06611283"><ele>446.669678</ele><time>2009-08-22T15:42:09Z</time></trkpt>
<trkpt lat="46.17602544" lon="6.06600009"><ele>446.669678</ele><time>2009-08-22T15:42:10Z</time></trkpt>
<trkpt lat="46.17599292" lon="6.06588593"><ele>446.669678</ele><time>2009-08-22T15:42:11Z</time></trkpt>
<trkpt lat="46.17596090" lon="6.06577042"><ele>446.189087</ele><time>2009-08-22T15:42:12Z</time></trkpt>
<trkpt lat="46.17592947" lon="6.06565316"><ele>446.189087</ele><time>2009-08-22T15:42:13Z</time></trkpt>
<trkpt lat="46.17589896" lon="6.06553447"><ele>446.189087</ele><time>2009-08-22T15:42:14Z</time></trkpt>
<trkpt lat="46.17586803" lon="6.06541587"><ele>446.189087</ele><time>2009-08-22T15:42:15Z</time></trkpt>
<trkpt lat="46.17583676" lon="6.06529710"><ele>446.189087</ele><time>2009-08-22T15:42:16Z</time></trkpt>
<trkpt lat="46.17580676" lon="6.06517799"><ele>446.189087</ele><time>2009-08-22T15:42:17Z</time></trkpt>
<trkpt lat="46.17577767" lon="6.06505897"><ele>446.189087</ele><time>2009-08-22T15:42:18Z</time></trkpt>
<trkpt lat="46.17574917" lon="6.06494020"><ele>446.189087</ele><time>2009-08-22T15:42:19Z</time></trkpt>
<trkpt lat="46.17572210" lon="6.06482159"><ele>446.189087</ele><time>2009-08-22T15:42:20Z</time></trkpt>
<trkpt lat="46.17569620" lon="6.06470383"><ele>446.189087</ele><time>2009-08-22T15:42:21Z</time></trkpt>
<trkpt lat="46.17567105" lon="6.06458757"><ele>446.189087</ele><time>2009-08-22T15:42:22Z</time></trkpt>
<trkpt lat="46.17564633" lon="6.06447198"><ele>446.189087</ele><time>2009-08-22T15:42:23Z</time></trkpt>
<trkpt lat="46.17562202" lon="6.06435640"><ele>446.669678</ele><time>2009-08-22T15:42:24Z</time></trkpt>
<trkpt lat="46.17559863" lon="6.06424073"><ele>446.669678</ele><time>2009-08-22T15:42:25Z</time></trkpt>
<trkpt lat="46.17557617" lon="6.06412447"><ele>446.669678</ele><time>2009-08-22T15:42:26Z</time></trkpt>
<trkpt lat="46.17555362" lon="6.06400779"><ele>446.669678</ele><time>2009-08-22T15:42:27Z</time></trkpt>
<trkpt lat="46.17553183" lon="6.06389145"><ele>446.669678</ele><time>2009-08-22T15:42:28Z</time></trkpt>
<trkpt lat="46.17551045" lon="6.06377603"><ele>446.669678</ele><time>2009-08-22T15:42:29Z</time></trkpt>
<trkpt lat="46.17548908" lon="6.06366104"><ele>446.669678</ele><time>2009-08-22T15:42:30Z</time></trkpt>
<trkpt lat="46.17546829" lon="6.06354436"><ele>446.669678</ele><time>2009-08-22T15:42:31Z</time></trkpt>
<trkpt lat="46.17544893" lon="6.06342609"><ele>446.669678</ele><time>2009-08-22T15:42:32Z</time></trkpt>
<trkpt lat="46.17543074" lon="6.06330749"><ele>446.669678</ele><time>2009-08-22T15:42:33Z</time></trkpt>
<trkpt lat="46.17541364" lon="6.06318897"><ele>446.189087</ele><time>2009-08-22T15:42:34Z</time></trkpt>
<trkpt lat="46.17539713" lon="6.06307095"><ele>446.189087</ele><time>2009-08-22T15:42:35Z</time></trkpt>
<trkpt lat="46.17538037" lon="6.06295268"><ele>446.189087</ele><time>2009-08-22T15:42:36Z</time></trkpt>
<trkpt lat="46.17536318" lon="6.06283475"><ele>446.189087</ele><time>2009-08-22T15:42:37Z</time></trkpt>
<trkpt lat="46.17534692" lon="6.06271732"><ele>446.189087</ele><time>2009-08-22T15:42:38Z</time></trkpt>
<trkpt lat="46.17533125" lon="6.06260014"><ele>445.708374</ele><time>2009-08-22T15:42:39Z</time></trkpt>
<trkpt lat="46.17531574" lon="6.06248229"><ele>445.708374</ele><time>2009-08-22T15:42:40Z</time></trkpt>
<trkpt lat="46.17530049" lon="6.06236352"><ele>445.708374</ele><time>2009-08-22T15:42:41Z</time></trkpt>
<trkpt lat="46.17528507" lon="6.06224458"><ele>445.708374</ele><time>2009-08-22T15:42:42Z</time></trkpt>
<trkpt lat="46.17527015" lon="6.06212539"><ele>445.708374</ele><time>2009-08-22T15:42:43Z</time></trkpt>
<trkpt lat="46.17525489" lon="6.06200586"><ele>445.227661</ele><time>2009-08-22T15:42:44Z</time></trkpt>
<trkpt lat="46.17523863" lon="6.06188633"><ele>445.227661</ele><time>2009-08-22T15:42:45Z</time></trkpt>
<trkpt lat="46.17522245" lon="6.06176656"><ele>445.227661</ele><time>2009-08-22T15:42:46Z</time></trkpt>
<trkpt lat="46.17520795" lon="6.06164569"><ele>445.227661</ele><time>2009-08-22T15:42:47Z</time></trkpt>
<trkpt lat="46.17519496" lon="6.06152432"><ele>444.74707</ele><time>2009-08-22T15:42:48Z</time></trkpt>
<trkpt lat="46.17518130" lon="6.06140354"><ele>444.74707</ele><time>2009-08-22T15:42:49Z</time></trkpt>
<trkpt lat="46.17516655" lon="6.06128309"><ele>444.74707</ele><time>2009-08-22T15:42:50Z</time></trkpt>
<trkpt lat="46.17515146" lon="6.06116214"><ele>444.74707</ele><time>2009-08-22T15:42:51Z</time></trkpt>
<trkpt lat="46.17513662" lon="6.06104136"><ele>444.74707</ele><time>2009-08-22T15:42:52Z</time></trkpt>
<trkpt lat="46.17512179" lon="6.06092032"><ele>444.266479</ele><time>2009-08-22T15:42:53Z</time></trkpt>
<trkpt lat="46.17510687" lon="6.06079895"><ele>444.266479</ele><time>2009-08-22T15:42:54Z</time></trkpt>
<trkpt lat="46.17509228" lon="6.06067766"><ele>444.266479</ele><time>2009-08-22T15:42:55Z</time></trkpt>
<trkpt lat="46.17507778" lon="6.06055655"><ele>444.266479</ele><time>2009-08-22T15:42:56Z</time></trkpt>
<trkpt lat="46.17506345" lon="6.06043559"><ele>444.266479</ele><time>2009-08-22T15:42:57Z</time></trkpt>
<trkpt lat="46.17504886" lon="6.06031515"><ele>444.266479</ele><time>2009-08-22T15:42:58Z</time></trkpt>
<trkpt lat="46.17503512" lon="6.06019705"><ele>444.266479</ele><time>2009-08-22T15:42:59Z</time></trkpt>
<trkpt lat="46.17502179" lon="6.06007987"><ele>444.266479</ele><time>2009-08-22T15:43:00Z</time></trkpt>
<trkpt lat="46.17500695" lon="6.05996269"><ele>444.266479</ele><time>2009-08-22T15:43:01Z</time></trkpt>
<trkpt lat="46.17499195" lon="6.05984568"><ele>444.266479</ele><time>2009-08-22T15:43:02Z</time></trkpt>
<trkpt lat="46.17497745" lon="6.05972858"><ele>444.266479</ele><time>2009-08-22T15:43:03Z</time></trkpt>
<trkpt lat="46.17496337" lon="6.05961123"><ele>444.266479</ele><time>2009-08-22T15:43:04Z</time></trkpt>
<trkpt lat="46.17494954" lon="6.05949406"><ele>444.266479</ele><time>2009-08-22T15:43:05Z</time></trkpt>
<trkpt lat="46.17493554" lon="6.05937654"><ele>444.266479</ele><time>2009-08-22T15:43:06Z</time></trkpt>
<trkpt lat="46.17492154" lon="6.05925903"><ele>444.266479</ele><time>2009-08-22T15:43:07Z</time></trkpt>
<trkpt lat="46.17490662" lon="6.05914135"><ele>443.785767</ele><time>2009-08-22T15:43:08Z</time></trkpt>
<trkpt lat="46.17489078" lon="6.05902274"><ele>443.785767</ele><time>2009-08-22T15:43:09Z</time></trkpt>
<trkpt lat="46.17487527" lon="6.05890397"><ele>443.785767</ele><time>2009-08-22T15:43:10Z</time></trkpt>
<trkpt lat="46.17486094" lon="6.05878520"><ele>443.785767</ele><time>2009-08-22T15:43:11Z</time></trkpt>
<trkpt lat="46.17484694" lon="6.05866425"><ele>443.785767</ele><time>2009-08-22T15:43:12Z</time></trkpt>
<trkpt lat="46.17483269" lon="6.05854254"><ele>443.305054</ele><time>2009-08-22T15:43:13Z</time></trkpt>
<trkpt lat="46.17481719" lon="6.05841983"><ele>443.305054</ele><time>2009-08-22T15:43:14Z</time></trkpt>
<trkpt lat="46.17480193" lon="6.05829578"><ele>443.305054</ele><time>2009-08-22T15:43:15Z</time></trkpt>
<trkpt lat="46.17478760" lon="6.05817047"><ele>443.305054</ele><time>2009-08-22T15:43:16Z</time></trkpt>
<trkpt lat="46.17477218" lon="6.05804357"><ele>442.824463</ele><time>2009-08-22T15:43:17Z</time></trkpt>
<trkpt lat="46.17475533" lon="6.05791499"><ele>442.824463</ele><time>2009-08-22T15:43:18Z</time></trkpt>
<trkpt lat="46.17473823" lon="6.05778465"><ele>442.824463</ele><time>2009-08-22T15:43:19Z</time></trkpt>
<trkpt lat="46.17472130" lon="6.05765272"><ele>442.343872</ele><time>2009-08-22T15:43:20Z</time></trkpt>
<trkpt lat="46.17470554" lon="6.05751894"><ele>442.343872</ele><time>2009-08-22T15:43:21Z</time></trkpt>
<trkpt lat="46.17470680" lon="6.05738400"><ele>441.863159</ele><time>2009-08-22T15:43:22Z</time></trkpt>
<trkpt lat="46.17472918" lon="6.05725215"><ele>441.382446</ele><time>2009-08-22T15:43:23Z</time></trkpt>
<trkpt lat="46.17474443" lon="6.05711955"><ele>441.382446</ele><time>2009-08-22T15:43:24Z</time></trkpt>
<trkpt lat="46.17472842" lon="6.05699273"><ele>440.901855</ele><time>2009-08-22T15:43:25Z</time></trkpt>
<trkpt lat="46.17467470" lon="6.05687815"><ele>440.901855</ele><time>2009-08-22T15:43:26Z</time></trkpt>
<trkpt lat="46.17462122" lon="6.05675795"><ele>440.421265</ele><time>2009-08-22T15:43:27Z</time></trkpt>
<trkpt lat="46.17458442" lon="6.05662485"><ele>439.94043</ele><time>2009-08-22T15:43:28Z</time></trkpt>
<trkpt lat="46.17455986" lon="6.05648244"><ele>439.459717</ele><time>2009-08-22T15:43:29Z</time></trkpt>
<trkpt lat="46.17453740" lon="6.05633634"><ele>438.979126</ele><time>2009-08-22T15:43:30Z</time></trkpt>
<trkpt lat="46.17451544" lon="6.05618756"><ele>438.498535</ele><time>2009-08-22T15:43:31Z</time></trkpt>
<trkpt lat="46.17449407" lon="6.05603769"><ele>438.017822</ele><time>2009-08-22T15:43:32Z</time></trkpt>
<trkpt lat="46.17447194" lon="6.05588774"><ele>438.017822</ele><time>2009-08-22T15:43:33Z</time></trkpt>
<trkpt lat="46.17445132" lon="6.05573779"><ele>437.537109</ele><time>2009-08-22T15:43:34Z</time></trkpt>
<trkpt lat="46.17443087" lon="6.05558767"><ele>437.537109</ele><time>2009-08-22T15:43:35Z</time></trkpt>
<trkpt lat="46.17440949" lon="6.05543864"><ele>437.056519</ele><time>2009-08-22T15:43:36Z</time></trkpt>
<trkpt lat="46.17438795" lon="6.05529095"><ele>437.056519</ele><time>2009-08-22T15:43:37Z</time></trkpt>
<trkpt lat="46.17436658" lon="6.05514552"><ele>436.575928</ele><time>2009-08-22T15:43:38Z</time></trkpt>
<trkpt lat="46.17434529" lon="6.05500203"><ele>436.575928</ele><time>2009-08-22T15:43:39Z</time></trkpt>
<trkpt lat="46.17432366" lon="6.05486004"><ele>436.575928</ele><time>2009-08-22T15:43:40Z</time></trkpt>
<trkpt lat="46.17430128" lon="6.05471939"><ele>436.575928</ele><time>2009-08-22T15:43:41Z</time></trkpt>
<trkpt lat="46.17427857" lon="6.05457849"><ele>436.575928</ele><time>2009-08-22T15:43:42Z</time></trkpt>
<trkpt lat="46.17425577" lon="6.05443826"><ele>436.575928</ele><time>2009-08-22T15:43:43Z</time></trkpt>
<trkpt lat="46.17423230" lon="6.05429929"><ele>436.575928</ele><time>2009-08-22T15:43:44Z</time></trkpt>
<trkpt lat="46.17420816" lon="6.05416124"><ele>436.575928</ele><time>2009-08-22T15:43:45Z</time></trkpt>
<trkpt lat="46.17418477" lon="6.05402369"><ele>436.095215</ele><time>2009-08-22T15:43:46Z</time></trkpt>
<trkpt lat="46.17416189" lon="6.05388698"><ele>436.095215</ele><time>2009-08-22T15:43:47Z</time></trkpt>
<trkpt lat="46.17413859" lon="6.05375128"><ele>436.095215</ele><time>2009-08-22T15:43:48Z</time></trkpt>
<trkpt lat="46.17411420" lon="6.05361658"><ele>436.095215</ele><time>2009-08-22T15:43:49Z</time></trkpt>
<trkpt lat="46.17408897" lon="6.05348255"><ele>436.095215</ele><time>2009-08-22T15:43:50Z</time></trkpt>
<trkpt lat="46.17406349" lon="6.05334903"><ele>436.095215</ele><time>2009-08-22T15:43:51Z</time></trkpt>
<trkpt lat="46.17403675" lon="6.05321635"><ele>436.095215</ele><time>2009-08-22T15:43:52Z</time></trkpt>
<trkpt lat="46.17400984" lon="6.05308383"><ele>436.095215</ele><time>2009-08-22T15:43:53Z</time></trkpt>
<trkpt lat="46.17398369" lon="6.05295072"><ele>436.095215</ele><time>2009-08-22T15:43:54Z</time></trkpt>
<trkpt lat="46.17395779" lon="6.05281753"><ele>436.095215</ele><time>2009-08-22T15:43:55Z</time></trkpt>
<trkpt lat="46.17393122" lon="6.05268485"><ele>436.095215</ele><time>2009-08-22T15:43:56Z</time></trkpt>
<trkpt lat="46.17390373" lon="6.05255283"><ele>436.095215</ele><time>2009-08-22T15:43:57Z</time></trkpt>
<trkpt lat="46.17387515" lon="6.05242174"><ele>436.095215</ele><time>2009-08-22T15:43:58Z</time></trkpt>
<trkpt lat="46.17384640" lon="6.05229132"><ele>436.095215</ele><time>2009-08-22T15:43:59Z</time></trkpt>
<trkpt lat="46.17381790" lon="6.05216073"><ele>436.095215</ele><time>2009-08-22T15:44:00Z</time></trkpt>
<trkpt lat="46.17378915" lon="6.05203047"><ele>436.095215</ele><time>2009-08-22T15:44:01Z</time></trkpt>
<trkpt lat="46.17375998" lon="6.05190039"><ele>436.095215</ele><time>2009-08-22T15:44:02Z</time></trkpt>
<trkpt lat="46.17373156" lon="6.05176955"><ele>436.095215</ele><time>2009-08-22T15:44:03Z</time></trkpt>
<trkpt lat="46.17370307" lon="6.05163896"><ele>436.095215</ele><time>2009-08-22T15:44:04Z</time></trkpt>
<trkpt lat="46.17367390" lon="6.05150912"><ele>436.095215</ele><time>2009-08-22T15:44:05Z</time></trkpt>
<trkpt lat="46.17364456" lon="6.05137987"><ele>436.095215</ele><time>2009-08-22T15:44:06Z</time></trkpt>
<trkpt lat="46.17361464" lon="6.05125163"><ele>436.095215</ele><time>2009-08-22T15:44:07Z</time></trkpt>
<trkpt lat="46.17358438" lon="6.05112456"><ele>436.095215</ele><time>2009-08-22T15:44:08Z</time></trkpt>
<trkpt lat="46.17355437" lon="6.05099774"><ele>436.095215</ele><time>2009-08-22T15:44:09Z</time></trkpt>
<trkpt lat="46.17352420" lon="6.05087176"><ele>436.095215</ele><time>2009-08-22T15:44:10Z</time></trkpt>
<trkpt lat="46.17349427" lon="6.05074653"><ele>436.095215</ele><time>2009-08-22T15:44:11Z</time></trkpt>
<trkpt lat="46.17346527" lon="6.05062156"><ele>436.095215</ele><time>2009-08-22T15:44:12Z</time></trkpt>
<trkpt lat="46.17343593" lon="6.05049717"><ele>436.575928</ele><time>2009-08-22T15:44:13Z</time></trkpt>
<trkpt lat="46.17340626" lon="6.05037387"><ele>436.575928</ele><time>2009-08-22T15:44:14Z</time></trkpt>
<trkpt lat="46.17337642" lon="6.05025158"><ele>436.575928</ele><time>2009-08-22T15:44:15Z</time></trkpt>
<trkpt lat="46.17334633" lon="6.05012887"><ele>436.575928</ele><time>2009-08-22T15:44:16Z</time></trkpt>
<trkpt lat="46.17331725" lon="6.05000557"><ele>436.575928</ele><time>2009-08-22T15:44:17Z</time></trkpt>
<trkpt lat="46.17328833" lon="6.04988236"><ele>437.056519</ele><time>2009-08-22T15:44:18Z</time></trkpt>
<trkpt lat="46.17325866" lon="6.04976032"><ele>437.056519</ele><time>2009-08-22T15:44:19Z</time></trkpt>
<trkpt lat="46.17322865" lon="6.04963954"><ele>437.056519</ele><time>2009-08-22T15:44:20Z</time></trkpt>
<trkpt lat="46.17319898" lon="6.04951967"><ele>437.056519</ele><time>2009-08-22T15:44:21Z</time></trkpt>
<trkpt lat="46.17317014" lon="6.04939965"><ele>437.537109</ele><time>2009-08-22T15:44:22Z</time></trkpt>
<trkpt lat="46.17314173" lon="6.04927987"><ele>437.537109</ele><time>2009-08-22T15:44:23Z</time></trkpt>
<trkpt lat="46.17311256" lon="6.04916076"><ele>437.537109</ele><time>2009-08-22T15:44:24Z</time></trkpt>
<trkpt lat="46.17308364" lon="6.04904199"><ele>437.537109</ele><time>2009-08-22T15:44:25Z</time></trkpt>
<trkpt lat="46.17305548" lon="6.04892322"><ele>437.537109</ele><time>2009-08-22T15:44:26Z</time></trkpt>
<trkpt lat="46.17302723" lon="6.04880495"><ele>438.017822</ele><time>2009-08-22T15:44:27Z</time></trkpt>
<trkpt lat="46.17299966" lon="6.04868727"><ele>438.017822</ele><time>2009-08-22T15:44:28Z</time></trkpt>
<trkpt lat="46.17297342" lon="6.04857026"><ele>438.017822</ele><time>2009-08-22T15:44:29Z</time></trkpt>
<trkpt lat="46.17294794" lon="6.04845425"><ele>438.017822</ele><time>2009-08-22T15:44:30Z</time></trkpt>
<trkpt lat="46.17292296" lon="6.04833967"><ele>438.498535</ele><time>2009-08-22T15:44:31Z</time></trkpt>
<trkpt lat="46.17289882" lon="6.04822593"><ele>438.498535</ele><time>2009-08-22T15:44:32Z</time></trkpt>
<trkpt lat="46.17287535" lon="6.04811294"><ele>438.498535</ele><time>2009-08-22T15:44:33Z</time></trkpt>
<trkpt lat="46.17285205" lon="6.04800096"><ele>438.498535</ele><time>2009-08-22T15:44:34Z</time></trkpt>
<trkpt lat="46.17283034" lon="6.04788898"><ele>438.498535</ele><time>2009-08-22T15:44:35Z</time></trkpt>
<trkpt lat="46.17281215" lon="6.04777674"><ele>438.979126</ele><time>2009-08-22T15:44:36Z</time></trkpt>
<trkpt lat="46.17279539" lon="6.04766468"><ele>438.979126</ele><time>2009-08-22T15:44:37Z</time></trkpt>
<trkpt lat="46.17277846" lon="6.04755387"><ele>438.979126</ele><time>2009-08-22T15:44:38Z</time></trkpt>
<trkpt lat="46.17276195" lon="6.04744423"><ele>439.459717</ele><time>2009-08-22T15:44:39Z</time></trkpt>
<trkpt lat="46.17274652" lon="6.04733535"><ele>439.459717</ele><time>2009-08-22T15:44:40Z</time></trkpt>
<trkpt lat="46.17273252" lon="6.04722689"><ele>439.459717</ele><time>2009-08-22T15:44:41Z</time></trkpt>
<trkpt lat="46.17272037" lon="6.04711834"><ele>439.459717</ele><time>2009-08-22T15:44:42Z</time></trkpt>
<trkpt lat="46.17270889" lon="6.04700980"><ele>439.94043</ele><time>2009-08-22T15:44:43Z</time></trkpt>
<trkpt lat="46.17269699" lon="6.04690142"><ele>439.94043</ele><time>2009-08-22T15:44:44Z</time></trkpt>
<trkpt lat="46.17268575" lon="6.04679413"><ele>439.94043</ele><time>2009-08-22T15:44:45Z</time></trkpt>
<trkpt lat="46.17267653" lon="6.04668735"><ele>439.94043</ele><time>2009-08-22T15:44:46Z</time></trkpt>
<trkpt lat="46.17266933" lon="6.04658157"><ele>440.421265</ele><time>2009-08-22T15:44:47Z</time></trkpt>
<trkpt lat="46.17266212" lon="6.04647738"><ele>440.421265</ele><time>2009-08-22T15:44:48Z</time></trkpt>
<trkpt lat="46.17265482" lon="6.04637386"><ele>440.421265</ele><time>2009-08-22T15:44:49Z</time></trkpt>
<trkpt lat="46.17264854" lon="6.04627093"><ele>440.421265</ele><time>2009-08-22T15:44:50Z</time></trkpt>
<trkpt lat="46.17264309" lon="6.04616876"><ele>440.901855</ele><time>2009-08-22T15:44:51Z</time></trkpt>
<trkpt lat="46.17263890" lon="6.04606734"><ele>440.901855</ele><time>2009-08-22T15:44:52Z</time></trkpt>
<trkpt lat="46.17263529" lon="6.04596717"><ele>440.901855</ele><time>2009-08-22T15:44:53Z</time></trkpt>
<trkpt lat="46.17263144" lon="6.04586818"><ele>440.901855</ele><time>2009-08-22T15:44:54Z</time></trkpt>
<trkpt lat="46.17262725" lon="6.04576995"><ele>441.382446</ele><time>2009-08-22T15:44:55Z</time></trkpt>
<trkpt lat="46.17262314" lon="6.04567230"><ele>441.382446</ele><time>2009-08-22T15:44:56Z</time></trkpt>
<trkpt lat="46.17261929" lon="6.04557549"><ele>441.382446</ele><time>2009-08-22T15:44:57Z</time></trkpt>
<trkpt lat="46.17261535" lon="6.04548044"><ele>441.382446</ele><time>2009-08-22T15:44:58Z</time></trkpt>
<trkpt lat="46.17261174" lon="6.04538538"><ele>441.863159</ele><time>2009-08-22T15:44:59Z</time></trkpt>
<trkpt lat="46.17260797" lon="6.04529025"><ele>441.863159</ele><time>2009-08-22T15:45:00Z</time></trkpt>
<trkpt lat="46.17260428" lon="6.04519520"><ele>442.343872</ele><time>2009-08-22T15:45:01Z</time></trkpt>
<trkpt lat="46.17259959" lon="6.04510283"><ele>442.343872</ele><time>2009-08-22T15:45:02Z</time></trkpt>
<trkpt lat="46.17259406" lon="6.04501289"><ele>442.343872</ele><time>2009-08-22T15:45:03Z</time></trkpt>
<trkpt lat="46.17258936" lon="6.04492145"><ele>442.824463</ele><time>2009-08-22T15:45:04Z</time></trkpt>
<trkpt lat="46.17258559" lon="6.04482983"><ele>442.824463</ele><time>2009-08-22T15:45:05Z</time></trkpt>
<trkpt lat="46.17258215" lon="6.04473604"><ele>442.824463</ele><time>2009-08-22T15:45:06Z</time></trkpt>
<trkpt lat="46.17257712" lon="6.04464459"><ele>442.824463</ele><time>2009-08-22T15:45:07Z</time></trkpt>
<trkpt lat="46.17257193" lon="6.04455172"><ele>442.343872</ele><time>2009-08-22T15:45:08Z</time></trkpt>
<trkpt lat="46.17256824" lon="6.04445927"><ele>442.343872</ele><time>2009-08-22T15:45:09Z</time></trkpt>
<trkpt lat="46.17256464" lon="6.04436522"><ele>442.343872</ele><time>2009-08-22T15:45:10Z</time></trkpt>
<trkpt lat="46.17256028" lon="6.04427076"><ele>442.343872</ele><time>2009-08-22T15:45:11Z</time></trkpt>
<trkpt lat="46.17255533" lon="6.04417755"><ele>442.343872</ele><time>2009-08-22T15:45:12Z</time></trkpt>
<trkpt lat="46.17254997" lon="6.04408368"><ele>442.343872</ele><time>2009-08-22T15:45:13Z</time></trkpt>
<trkpt lat="46.17254477" lon="6.04399516"><ele>442.343872</ele><time>2009-08-22T15:45:14Z</time></trkpt>
<trkpt lat="46.17253899" lon="6.04390824"><ele>442.343872</ele><time>2009-08-22T15:45:15Z</time></trkpt>
<trkpt lat="46.17253153" lon="6.04382333"><ele>442.343872</ele><time>2009-08-22T15:45:16Z</time></trkpt>
<trkpt lat="46.17252390" lon="6.04373968"><ele>442.343872</ele><time>2009-08-22T15:45:17Z</time></trkpt>
<trkpt lat="46.17251535" lon="6.04365880"><ele>442.343872</ele><time>2009-08-22T15:45:18Z</time></trkpt>
<trkpt lat="46.17250755" lon="6.04358084"><ele>442.343872</ele><time>2009-08-22T15:45:19Z</time></trkpt>
<trkpt lat="46.17250906" lon="6.04350675"><ele>442.343872</ele><time>2009-08-22T15:45:20Z</time></trkpt>
<trkpt lat="46.17252817" lon="6.04344053"><ele>442.343872</ele><time>2009-08-22T15:45:21Z</time></trkpt>
<trkpt lat="46.17255785" lon="6.04338907"><ele>442.343872</ele><time>2009-08-22T15:45:22Z</time></trkpt>
<trkpt lat="46.17259095" lon="6.04333878"><ele>441.863159</ele><time>2009-08-22T15:45:23Z</time></trkpt>
<trkpt lat="46.17262415" lon="6.04328790"><ele>441.863159</ele><time>2009-08-22T15:45:24Z</time></trkpt>
<trkpt lat="46.17265918" lon="6.04323618"><ele>441.863159</ele><time>2009-08-22T15:45:25Z</time></trkpt>
<trkpt lat="46.17269539" lon="6.04318287"><ele>441.863159</ele><time>2009-08-22T15:45:26Z</time></trkpt>
<trkpt lat="46.17273244" lon="6.04312797"><ele>441.863159</ele><time>2009-08-22T15:45:27Z</time></trkpt>
<trkpt lat="46.17276999" lon="6.04307173"><ele>441.863159</ele><time>2009-08-22T15:45:28Z</time></trkpt>
<trkpt lat="46.17280763" lon="6.04301440"><ele>441.863159</ele><time>2009-08-22T15:45:29Z</time></trkpt>
<trkpt lat="46.17284543" lon="6.04295597"><ele>441.863159</ele><time>2009-08-22T15:45:30Z</time></trkpt>
<trkpt lat="46.17288273" lon="6.04289596"><ele>441.863159</ele><time>2009-08-22T15:45:31Z</time></trkpt>
<trkpt lat="46.17292028" lon="6.04283678"><ele>441.382446</ele><time>2009-08-22T15:45:32Z</time></trkpt>
<trkpt lat="46.17295842" lon="6.04277987"><ele>441.382446</ele><time>2009-08-22T15:45:33Z</time></trkpt>
<trkpt lat="46.17299697" lon="6.04272514"><ele>441.382446</ele><time>2009-08-22T15:45:34Z</time></trkpt>
<trkpt lat="46.17303494" lon="6.04267065"><ele>440.901855</ele><time>2009-08-22T15:45:35Z</time></trkpt>
<trkpt lat="46.17307099" lon="6.04261265"><ele>441.382446</ele><time>2009-08-22T15:45:36Z</time></trkpt>
<trkpt lat="46.17310544" lon="6.04255775"><ele>441.382446</ele><time>2009-08-22T15:45:37Z</time></trkpt>
<trkpt lat="46.17313804" lon="6.04250494"><ele>441.382446</ele><time>2009-08-22T15:45:38Z</time></trkpt>
<trkpt lat="46.17316947" lon="6.04245205"><ele>441.382446</ele><time>2009-08-22T15:45:39Z</time></trkpt>
<trkpt lat="46.17320174" lon="6.04239975"><ele>441.382446</ele><time>2009-08-22T15:45:40Z</time></trkpt>
<trkpt lat="46.17323468" lon="6.04234678"><ele>441.382446</ele><time>2009-08-22T15:45:41Z</time></trkpt>
<trkpt lat="46.17326763" lon="6.04229439"><ele>440.901855</ele><time>2009-08-22T15:45:42Z</time></trkpt>
<trkpt lat="46.17329864" lon="6.04223848"><ele>440.421265</ele><time>2009-08-22T15:45:43Z</time></trkpt>
<trkpt lat="46.17332756" lon="6.04217956"><ele>440.421265</ele><time>2009-08-22T15:45:44Z</time></trkpt>
<trkpt lat="46.17335564" lon="6.04211703"><ele>440.421265</ele><time>2009-08-22T15:45:45Z</time></trkpt>
<trkpt lat="46.17338187" lon="6.04205308"><ele>440.421265</ele><time>2009-08-22T15:45:46Z</time></trkpt>
<trkpt lat="46.17340576" lon="6.04198795"><ele>440.421265</ele><time>2009-08-22T15:45:47Z</time></trkpt>
<trkpt lat="46.17342814" lon="6.04192232"><ele>439.94043</ele><time>2009-08-22T15:45:48Z</time></trkpt>
<trkpt lat="46.17344784" lon="6.04185493"><ele>439.94043</ele><time>2009-08-22T15:45:49Z</time></trkpt>
<trkpt lat="46.17346779" lon="6.04178553"><ele>439.94043</ele><time>2009-08-22T15:45:50Z</time></trkpt>
<trkpt lat="46.17349176" lon="6.04171847"><ele>439.94043</ele><time>2009-08-22T15:45:51Z</time></trkpt>
<trkpt lat="46.17351757" lon="6.04165359"><ele>439.94043</ele><time>2009-08-22T15:45:52Z</time></trkpt>
<trkpt lat="46.17354247" lon="6.04158830"><ele>439.94043</ele><time>2009-08-22T15:45:53Z</time></trkpt>
<trkpt lat="46.17356678" lon="6.04152208"><ele>439.94043</ele><time>2009-08-22T15:45:54Z</time></trkpt>
<trkpt lat="46.17359133" lon="6.04145628"><ele>439.94043</ele><time>2009-08-22T15:45:55Z</time></trkpt>
<trkpt lat="46.17361489" lon="6.04139099"><ele>439.94043</ele><time>2009-08-22T15:45:56Z</time></trkpt>
<trkpt lat="46.17363199" lon="6.04131773"><ele>440.901855</ele><time>2009-08-22T15:45:57Z</time></trkpt>
<trkpt lat="46.17364313" lon="6.04124422"><ele>441.382446</ele><time>2009-08-22T15:45:58Z</time></trkpt>
<trkpt lat="46.17365244" lon="6.04117608"><ele>441.863159</ele><time>2009-08-22T15:45:59Z</time></trkpt>
<trkpt lat="46.17366317" lon="6.04111397"><ele>441.863159</ele><time>2009-08-22T15:46:00Z</time></trkpt>
<trkpt lat="46.17366694" lon="6.04105186"><ele>442.343872</ele><time>2009-08-22T15:46:01Z</time></trkpt>
<trkpt lat="46.17366216" lon="6.04099603"><ele>442.824463</ele><time>2009-08-22T15:46:02Z</time></trkpt>
<trkpt lat="46.17366585" lon="6.04095622"><ele>442.824463</ele><time>2009-08-22T15:46:03Z</time></trkpt>
<trkpt lat="46.17367247" lon="6.04093493"><ele>443.305054</ele><time>2009-08-22T15:46:04Z</time></trkpt>
<trkpt lat="46.17367373" lon="6.04093074"><ele>443.305054</ele><time>2009-08-22T15:46:05Z</time></trkpt>
<trkpt lat="46.17367817" lon="6.04093493"><ele>443.785767</ele><time>2009-08-22T15:46:06Z</time></trkpt>
<trkpt lat="46.17367943" lon="6.04093703"><ele>443.785767</ele><time>2009-08-22T15:46:07Z</time></trkpt>
<trkpt lat="46.17367658" lon="6.04093543"><ele>444.74707</ele><time>2009-08-22T15:46:08Z</time></trkpt>
<trkpt lat="46.17367440" lon="6.04093577"><ele>444.74707</ele><time>2009-08-22T15:46:09Z</time></trkpt>
<trkpt lat="46.17367440" lon="6.04093384"><ele>444.74707</ele><time>2009-08-22T15:46:10Z</time></trkpt>
<trkpt lat="46.17367616" lon="6.04093032"><ele>444.74707</ele><time>2009-08-22T15:46:11Z</time></trkpt>
<trkpt lat="46.17367876" lon="6.04092906"><ele>444.74707</ele><time>2009-08-22T15:46:12Z</time></trkpt>
<trkpt lat="46.17367960" lon="6.04092915"><ele>444.74707</ele><time>2009-08-22T15:46:13Z</time></trkpt>
<trkpt lat="46.17368035" lon="6.04092915"><ele>445.227661</ele><time>2009-08-22T15:46:14Z</time></trkpt>
<trkpt lat="46.17368102" lon="6.04092889"><ele>445.227661</ele><time>2009-08-22T15:46:15Z</time></trkpt>
<trkpt lat="46.17368127" lon="6.04092814"><ele>445.227661</ele><time>2009-08-22T15:46:16Z</time></trkpt>
<trkpt lat="46.17368245" lon="6.04092713"><ele>445.227661</ele><time>2009-08-22T15:46:17Z</time></trkpt>
<trkpt lat="46.17368303" lon="6.04092613"><ele>445.708374</ele><time>2009-08-22T15:46:18Z</time></trkpt>
<trkpt lat="46.17368337" lon="6.04092512"><ele>445.708374</ele><time>2009-08-22T15:46:19Z</time></trkpt>
<trkpt lat="46.17368362" lon="6.04092437"><ele>445.708374</ele><time>2009-08-22T15:46:20Z</time></trkpt>
<trkpt lat="46.17368412" lon="6.04092370"><ele>445.708374</ele><time>2009-08-22T15:46:21Z</time></trkpt>
<trkpt lat="46.17368454" lon="6.04092303"><ele>445.708374</ele><time>2009-08-22T15:46:22Z</time></trkpt>
<trkpt lat="46.17368488" lon="6.04092227"><ele>446.189087</ele><time>2009-08-22T15:46:23Z</time></trkpt>
<trkpt lat="46.17368504" lon="6.04092143"><ele>446.189087</ele><time>2009-08-22T15:46:24Z</time></trkpt>
<trkpt lat="46.17368538" lon="6.04092076"><ele>446.189087</ele><time>2009-08-22T15:46:25Z</time></trkpt>
<trkpt lat="46.17368563" lon="6.04092009"><ele>446.189087</ele><time>2009-08-22T15:46:26Z</time></trkpt>
<trkpt lat="46.17368622" lon="6.04091909"><ele>446.189087</ele><time>2009-08-22T15:46:27Z</time></trkpt>
<trkpt lat="46.17368689" lon="6.04091817"><ele>446.189087</ele><time>2009-08-22T15:46:28Z</time></trkpt>
<trkpt lat="46.17368739" lon="6.04091750"><ele>445.708374</ele><time>2009-08-22T15:46:29Z</time></trkpt>
<trkpt lat="46.17368789" lon="6.04091674"><ele>445.708374</ele><time>2009-08-22T15:46:30Z</time></trkpt>
<trkpt lat="46.17368815" lon="6.04091607"><ele>445.708374</ele><time>2009-08-22T15:46:31Z</time></trkpt>
<trkpt lat="46.17368840" lon="6.04091548"><ele>445.708374</ele><time>2009-08-22T15:46:32Z</time></trkpt>
<trkpt lat="46.17368865" lon="6.04091490"><ele>445.708374</ele><time>2009-08-22T15:46:33Z</time></trkpt>
<trkpt lat="46.17368907" lon="6.04091439"><ele>445.708374</ele><time>2009-08-22T15:46:34Z</time></trkpt>
<trkpt lat="46.17368924" lon="6.04091389"><ele>445.708374</ele><time>2009-08-22T15:46:35Z</time></trkpt>
<trkpt lat="46.17368932" lon="6.04091339"><ele>445.708374</ele><time>2009-08-22T15:46:36Z</time></trkpt>
<trkpt lat="46.17368949" lon="6.04091297"><ele>445.708374</ele><time>2009-08-22T15:46:37Z</time></trkpt>
<trkpt lat="46.17368957" lon="6.04091247"><ele>445.708374</ele><time>2009-08-22T15:46:38Z</time></trkpt>
<trkpt lat="46.17368965" lon="6.04091205"><ele>445.708374</ele><time>2009-08-22T15:46:39Z</time></trkpt>
<trkpt lat="46.17368965" lon="6.04091163"><ele>445.708374</ele><time>2009-08-22T15:46:40Z</time></trkpt>
<trkpt lat="46.17368965" lon="6.04091129"><ele>445.708374</ele><time>2009-08-22T15:46:41Z</time></trkpt>
<trkpt lat="46.17368965" lon="6.04091087"><ele>445.708374</ele><time>2009-08-22T15:46:42Z</time></trkpt>
<trkpt lat="46.17368957" lon="6.04091054"><ele>445.708374</ele><time>2009-08-22T15:46:43Z</time></trkpt>
<trkpt lat="46.17368949" lon="6.04091012"><ele>445.708374</ele><time>2009-08-22T15:46:44Z</time></trkpt>
<trkpt lat="46.17368932" lon="6.04090987"><ele>445.708374</ele><time>2009-08-22T15:46:45Z</time></trkpt>
<trkpt lat="46.17368924" lon="6.04090953"><ele>445.708374</ele><time>2009-08-22T15:46:46Z</time></trkpt>
<trkpt lat="46.17368907" lon="6.04090920"><ele>445.708374</ele><time>2009-08-22T15:46:47Z</time></trkpt>
<trkpt lat="46.17368898" lon="6.04090886"><ele>445.708374</ele><time>2009-08-22T15:46:48Z</time></trkpt>
<trkpt lat="46.17368873" lon="6.04090844"><ele>445.708374</ele><time>2009-08-22T15:46:49Z</time></trkpt>
<trkpt lat="46.17368865" lon="6.04090819"><ele>445.708374</ele><time>2009-08-22T15:46:50Z</time></trkpt>
<trkpt lat="46.17368840" lon="6.04090777"><ele>445.708374</ele><time>2009-08-22T15:46:51Z</time></trkpt>
<trkpt lat="46.17368815" lon="6.04090735"><ele>445.708374</ele><time>2009-08-22T15:46:52Z</time></trkpt>
<trkpt lat="46.17368798" lon="6.04090693"><ele>445.708374</ele><time>2009-08-22T15:46:53Z</time></trkpt>
<trkpt lat="46.17368789" lon="6.04090668"><ele>445.708374</ele><time>2009-08-22T15:46:54Z</time></trkpt>
<trkpt lat="46.17368773" lon="6.04090626"><ele>445.708374</ele><time>2009-08-22T15:46:55Z</time></trkpt>
<trkpt lat="46.17368756" lon="6.04090593"><ele>445.708374</ele><time>2009-08-22T15:46:56Z</time></trkpt>
<trkpt lat="46.17368722" lon="6.04090543"><ele>445.708374</ele><time>2009-08-22T15:46:57Z</time></trkpt>
<trkpt lat="46.17368706" lon="6.04090517"><ele>445.708374</ele><time>2009-08-22T15:46:58Z</time></trkpt>
<trkpt lat="46.17368697" lon="6.04090475"><ele>445.708374</ele><time>2009-08-22T15:46:59Z</time></trkpt>
<trkpt lat="46.17368689" lon="6.04090442"><ele>445.708374</ele><time>2009-08-22T15:47:00Z</time></trkpt>
<trkpt lat="46.17368672" lon="6.04090417"><ele>445.708374</ele><time>2009-08-22T15:47:01Z</time></trkpt>
<trkpt lat="46.17368655" lon="6.04090375"><ele>445.708374</ele><time>2009-08-22T15:47:02Z</time></trkpt>
<trkpt lat="46.17368655" lon="6.04090333"><ele>445.227661</ele><time>2009-08-22T15:47:03Z</time></trkpt>
<trkpt lat="46.17368639" lon="6.04090308"><ele>445.227661</ele><time>2009-08-22T15:47:04Z</time></trkpt>
<trkpt lat="46.17368639" lon="6.04090274"><ele>445.227661</ele><time>2009-08-22T15:47:05Z</time></trkpt>
<trkpt lat="46.17368639" lon="6.04090232"><ele>445.227661</ele><time>2009-08-22T15:47:06Z</time></trkpt>
<trkpt lat="46.17368639" lon="6.04090207"><ele>445.227661</ele><time>2009-08-22T15:47:07Z</time></trkpt>
<trkpt lat="46.17368622" lon="6.04090174"><ele>445.227661</ele><time>2009-08-22T15:47:08Z</time></trkpt>
<trkpt lat="46.17368613" lon="6.04090149"><ele>445.227661</ele><time>2009-08-22T15:47:09Z</time></trkpt>
<trkpt lat="46.17368605" lon="6.04090115"><ele>445.227661</ele><time>2009-08-22T15:47:10Z</time></trkpt>
<trkpt lat="46.17368613" lon="6.04090090"><ele>445.227661</ele><time>2009-08-22T15:47:11Z</time></trkpt>
<trkpt lat="46.17368639" lon="6.04090065"><ele>445.227661</ele><time>2009-08-22T15:47:12Z</time></trkpt>
<trkpt lat="46.17368639" lon="6.04090056"><ele>445.227661</ele><time>2009-08-22T15:47:13Z</time></trkpt>
<trkpt lat="46.17368647" lon="6.04090023"><ele>445.227661</ele><time>2009-08-22T15:47:14Z</time></trkpt>
<trkpt lat="46.17368639" lon="6.04090006"><ele>445.227661</ele><time>2009-08-22T15:47:15Z</time></trkpt>
<trkpt lat="46.17368647" lon="6.04089989"><ele>445.227661</ele><time>2009-08-22T15:47:16Z</time></trkpt>
<trkpt lat="46.17368664" lon="6.04089964"><ele>445.227661</ele><time>2009-08-22T15:47:17Z</time></trkpt>
<trkpt lat="46.17368689" lon="6.04089956"><ele>445.227661</ele><time>2009-08-22T15:47:18Z</time></trkpt>
<trkpt lat="46.17368689" lon="6.04089939"><ele>445.227661</ele><time>2009-08-22T15:47:19Z</time></trkpt>
<trkpt lat="46.17368689" lon="6.04089914"><ele>445.227661</ele><time>2009-08-22T15:47:20Z</time></trkpt>
<trkpt lat="46.17368714" lon="6.04089906"><ele>445.227661</ele><time>2009-08-22T15:47:21Z</time></trkpt>
<trkpt lat="46.17368739" lon="6.04089906"><ele>445.227661</ele><time>2009-08-22T15:47:22Z</time></trkpt>
<trkpt lat="46.17368739" lon="6.04089872"><ele>445.227661</ele><time>2009-08-22T15:47:23Z</time></trkpt>
<trkpt lat="46.17368697" lon="6.04089847"><ele>445.227661</ele><time>2009-08-22T15:47:24Z</time></trkpt>
<trkpt lat="46.17368488" lon="6.04090207"><ele>444.74707</ele><time>2009-08-22T15:47:25Z</time></trkpt>
<trkpt lat="46.17367876" lon="6.04090635"><ele>444.74707</ele><time>2009-08-22T15:47:26Z</time></trkpt>
<trkpt lat="46.17367297" lon="6.04090509"><ele>444.266479</ele><time>2009-08-22T15:47:27Z</time></trkpt>
<trkpt lat="46.17367172" lon="6.04090333"><ele>444.266479</ele><time>2009-08-22T15:47:28Z</time></trkpt>
<trkpt lat="46.17367130" lon="6.04090484"><ele>444.266479</ele><time>2009-08-22T15:47:29Z</time></trkpt>
<trkpt lat="46.17367079" lon="6.04090584"><ele>444.266479</ele><time>2009-08-22T15:47:30Z</time></trkpt>
<trkpt lat="46.17366744" lon="6.04090090"><ele>444.266479</ele><time>2009-08-22T15:47:31Z</time></trkpt>
<trkpt lat="46.17366333" lon="6.04088749"><ele>444.74707</ele><time>2009-08-22T15:47:32Z</time></trkpt>
<trkpt lat="46.17365797" lon="6.04086779"><ele>444.74707</ele><time>2009-08-22T15:47:33Z</time></trkpt>
<trkpt lat="46.17365235" lon="6.04084273"><ele>444.74707</ele><time>2009-08-22T15:47:34Z</time></trkpt>
<trkpt lat="46.17364565" lon="6.04081046"><ele>444.74707</ele><time>2009-08-22T15:47:35Z</time></trkpt>
<trkpt lat="46.17363534" lon="6.04077274"><ele>445.227661</ele><time>2009-08-22T15:47:36Z</time></trkpt>
<trkpt lat="46.17362235" lon="6.04073334"><ele>445.227661</ele><time>2009-08-22T15:47:37Z</time></trkpt>
<trkpt lat="46.17360248" lon="6.04068833"><ele>445.708374</ele><time>2009-08-22T15:47:38Z</time></trkpt>
<trkpt lat="46.17357910" lon="6.04064148"><ele>445.708374</ele><time>2009-08-22T15:47:39Z</time></trkpt>
<trkpt lat="46.17355429" lon="6.04059136"><ele>445.708374</ele><time>2009-08-22T15:47:40Z</time></trkpt>
<trkpt lat="46.17352948" lon="6.04053830"><ele>445.708374</ele><time>2009-08-22T15:47:41Z</time></trkpt>
<trkpt lat="46.17350450" lon="6.04048122"><ele>445.708374</ele><time>2009-08-22T15:47:42Z</time></trkpt>
<trkpt lat="46.17347826" lon="6.04042196"><ele>445.708374</ele><time>2009-08-22T15:47:43Z</time></trkpt>
<trkpt lat="46.17345253" lon="6.04035943"><ele>445.708374</ele><time>2009-08-22T15:47:44Z</time></trkpt>
<trkpt lat="46.17342764" lon="6.04029313"><ele>445.708374</ele><time>2009-08-22T15:47:45Z</time></trkpt>
<trkpt lat="46.17340425" lon="6.04022708"><ele>445.227661</ele><time>2009-08-22T15:47:46Z</time></trkpt>
<trkpt lat="46.17338112" lon="6.04015952"><ele>445.227661</ele><time>2009-08-22T15:47:47Z</time></trkpt>
<trkpt lat="46.17336025" lon="6.04008894"><ele>445.227661</ele><time>2009-08-22T15:47:48Z</time></trkpt>
<trkpt lat="46.17334038" lon="6.04001778"><ele>445.708374</ele><time>2009-08-22T15:47:49Z</time></trkpt>
<trkpt lat="46.17332395" lon="6.03994369"><ele>445.227661</ele><time>2009-08-22T15:47:50Z</time></trkpt>
<trkpt lat="46.17331046" lon="6.03986733"><ele>444.74707</ele><time>2009-08-22T15:47:51Z</time></trkpt>
<trkpt lat="46.17329855" lon="6.03979164"><ele>444.74707</ele><time>2009-08-22T15:47:52Z</time></trkpt>
<trkpt lat="46.17328799" lon="6.03971645"><ele>444.74707</ele><time>2009-08-22T15:47:53Z</time></trkpt>
<trkpt lat="46.17327827" lon="6.03963783"><ele>444.74707</ele><time>2009-08-22T15:47:54Z</time></trkpt>
<trkpt lat="46.17326813" lon="6.03956072"><ele>444.74707</ele><time>2009-08-22T15:47:55Z</time></trkpt>
<trkpt lat="46.17325614" lon="6.03948369"><ele>444.74707</ele><time>2009-08-22T15:47:56Z</time></trkpt>
<trkpt lat="46.17323988" lon="6.03940967"><ele>444.74707</ele><time>2009-08-22T15:47:57Z</time></trkpt>
<trkpt lat="46.17322245" lon="6.03933684"><ele>444.74707</ele><time>2009-08-22T15:47:58Z</time></trkpt>
<trkpt lat="46.17321054" lon="6.03926316"><ele>444.266479</ele><time>2009-08-22T15:47:59Z</time></trkpt>
<trkpt lat="46.17320258" lon="6.03918755"><ele>444.266479</ele><time>2009-08-22T15:48:00Z</time></trkpt>
<trkpt lat="46.17319713" lon="6.03911136"><ele>444.266479</ele><time>2009-08-22T15:48:01Z</time></trkpt>
<trkpt lat="46.17319462" lon="6.03903752"><ele>444.266479</ele><time>2009-08-22T15:48:02Z</time></trkpt>
<trkpt lat="46.17319286" lon="6.03896778"><ele>444.266479</ele><time>2009-08-22T15:48:03Z</time></trkpt>
<trkpt lat="46.17318272" lon="6.03890383"><ele>443.785767</ele><time>2009-08-22T15:48:04Z</time></trkpt>
<trkpt lat="46.17315455" lon="6.03885706"><ele>443.785767</ele><time>2009-08-22T15:48:05Z</time></trkpt>
<trkpt lat="46.17311139" lon="6.03883677"><ele>443.785767</ele><time>2009-08-22T15:48:06Z</time></trkpt>
<trkpt lat="46.17306336" lon="6.03884398"><ele>443.785767</ele><time>2009-08-22T15:48:07Z</time></trkpt>
<trkpt lat="46.17301458" lon="6.03887005"><ele>443.785767</ele><time>2009-08-22T15:48:08Z</time></trkpt>
<trkpt lat="46.17296428" lon="6.03890383"><ele>444.266479</ele><time>2009-08-22T15:48:09Z</time></trkpt>
<trkpt lat="46.17291198" lon="6.03894012"><ele>444.266479</ele><time>2009-08-22T15:48:10Z</time></trkpt>
<trkpt lat="46.17285792" lon="6.03897683"><ele>444.266479</ele><time>2009-08-22T15:48:11Z</time></trkpt>
<trkpt lat="46.17280268" lon="6.03901346"><ele>444.266479</ele><time>2009-08-22T15:48:12Z</time></trkpt>
<trkpt lat="46.17274669" lon="6.03905068"><ele>444.266479</ele><time>2009-08-22T15:48:13Z</time></trkpt>
<trkpt lat="46.17268994" lon="6.03908706"><ele>444.74707</ele><time>2009-08-22T15:48:14Z</time></trkpt>
<trkpt lat="46.17263328" lon="6.03912352"><ele>444.74707</ele><time>2009-08-22T15:48:15Z</time></trkpt>
<trkpt lat="46.17257738" lon="6.03916073"><ele>444.74707</ele><time>2009-08-22T15:48:16Z</time></trkpt>
<trkpt lat="46.17252247" lon="6.03919736"><ele>445.227661</ele><time>2009-08-22T15:48:17Z</time></trkpt>
<trkpt lat="46.17246782" lon="6.03923298"><ele>445.227661</ele><time>2009-08-22T15:48:18Z</time></trkpt>
<trkpt lat="46.17241376" lon="6.03926819"><ele>445.708374</ele><time>2009-08-22T15:48:19Z</time></trkpt>
<trkpt lat="46.17235978" lon="6.03930289"><ele>445.708374</ele><time>2009-08-22T15:48:20Z</time></trkpt>
<trkpt lat="46.17230605" lon="6.03933709"><ele>445.708374</ele><time>2009-08-22T15:48:21Z</time></trkpt>
<trkpt lat="46.17225233" lon="6.03937162"><ele>445.708374</ele><time>2009-08-22T15:48:22Z</time></trkpt>
<trkpt lat="46.17219885" lon="6.03940682"><ele>446.189087</ele><time>2009-08-22T15:48:23Z</time></trkpt>
<trkpt lat="46.17214537" lon="6.03944169"><ele>446.189087</ele><time>2009-08-22T15:48:24Z</time></trkpt>
<trkpt lat="46.17209240" lon="6.03947564"><ele>446.189087</ele><time>2009-08-22T15:48:25Z</time></trkpt>
<trkpt lat="46.17203976" lon="6.03950917"><ele>446.669678</ele><time>2009-08-22T15:48:26Z</time></trkpt>
<trkpt lat="46.17198746" lon="6.03954278"><ele>446.669678</ele><time>2009-08-22T15:48:27Z</time></trkpt>
<trkpt lat="46.17193566" lon="6.03957622"><ele>446.669678</ele><time>2009-08-22T15:48:28Z</time></trkpt>
<trkpt lat="46.17188377" lon="6.03960782"><ele>446.669678</ele><time>2009-08-22T15:48:29Z</time></trkpt>
<trkpt lat="46.17183273" lon="6.03963808"><ele>446.669678</ele><time>2009-08-22T15:48:30Z</time></trkpt>
<trkpt lat="46.17178445" lon="6.03966960"><ele>446.669678</ele><time>2009-08-22T15:48:31Z</time></trkpt>
<trkpt lat="46.17173902" lon="6.03970053"><ele>447.150269</ele><time>2009-08-22T15:48:32Z</time></trkpt>
<trkpt lat="46.17169719" lon="6.03973364"><ele>447.150269</ele><time>2009-08-22T15:48:33Z</time></trkpt>
<trkpt lat="46.17165830" lon="6.03976976"><ele>447.150269</ele><time>2009-08-22T15:48:34Z</time></trkpt>
<trkpt lat="46.17161958" lon="6.03980153"><ele>447.150269</ele><time>2009-08-22T15:48:35Z</time></trkpt>
<trkpt lat="46.17158077" lon="6.03982768"><ele>447.150269</ele><time>2009-08-22T15:48:36Z</time></trkpt>
<trkpt lat="46.17154456" lon="6.03985174"><ele>447.150269</ele><time>2009-08-22T15:48:37Z</time></trkpt>
<trkpt lat="46.17150986" lon="6.03986858"><ele>447.150269</ele><time>2009-08-22T15:48:38Z</time></trkpt>
<trkpt lat="46.17147448" lon="6.03986439"><ele>447.150269</ele><time>2009-08-22T15:48:39Z</time></trkpt>
<trkpt lat="46.17144205" lon="6.03983380"><ele>447.150269</ele><time>2009-08-22T15:48:40Z</time></trkpt>
<trkpt lat="46.17141606" lon="6.03978108"><ele>447.150269</ele><time>2009-08-22T15:48:41Z</time></trkpt>
<trkpt lat="46.17139117" lon="6.03972022"><ele>447.150269</ele><time>2009-08-22T15:48:42Z</time></trkpt>
<trkpt lat="46.17136342" lon="6.03965669"><ele>447.150269</ele><time>2009-08-22T15:48:43Z</time></trkpt>
<trkpt lat="46.17133518" lon="6.03959098"><ele>447.150269</ele><time>2009-08-22T15:48:44Z</time></trkpt>
<trkpt lat="46.17130660" lon="6.03952375"><ele>447.150269</ele><time>2009-08-22T15:48:45Z</time></trkpt>
<trkpt lat="46.17127667" lon="6.03945670"><ele>447.150269</ele><time>2009-08-22T15:48:46Z</time></trkpt>
<trkpt lat="46.17124608" lon="6.03938847"><ele>447.150269</ele><time>2009-08-22T15:48:47Z</time></trkpt>
<trkpt lat="46.17121490" lon="6.03932024"><ele>447.150269</ele><time>2009-08-22T15:48:48Z</time></trkpt>
<trkpt lat="46.17118196" lon="6.03925168"><ele>447.630981</ele><time>2009-08-22T15:48:49Z</time></trkpt>
<trkpt lat="46.17114868" lon="6.03918102"><ele>447.630981</ele><time>2009-08-22T15:48:50Z</time></trkpt>
<trkpt lat="46.17111532" lon="6.03910876"><ele>447.630981</ele><time>2009-08-22T15:48:51Z</time></trkpt>
<trkpt lat="46.17108146" lon="6.03903685"><ele>447.630981</ele><time>2009-08-22T15:48:52Z</time></trkpt>
<trkpt lat="46.17104550" lon="6.03896409"><ele>447.630981</ele><time>2009-08-22T15:48:53Z</time></trkpt>
<trkpt lat="46.17100937" lon="6.03888958"><ele>447.630981</ele><time>2009-08-22T15:48:54Z</time></trkpt>
<trkpt lat="46.17097459" lon="6.03881263"><ele>447.630981</ele><time>2009-08-22T15:48:55Z</time></trkpt>
<trkpt lat="46.17094257" lon="6.03873334"><ele>447.630981</ele><time>2009-08-22T15:48:56Z</time></trkpt>
<trkpt lat="46.17091784" lon="6.03865094"><ele>447.630981</ele><time>2009-08-22T15:48:57Z</time></trkpt>
<trkpt lat="46.17090527" lon="6.03856545"><ele>447.150269</ele><time>2009-08-22T15:48:58Z</time></trkpt>
<trkpt lat="46.17090477" lon="6.03848130"><ele>447.150269</ele><time>2009-08-22T15:48:59Z</time></trkpt>
<trkpt lat="46.17090485" lon="6.03840653"><ele>447.150269</ele><time>2009-08-22T15:49:00Z</time></trkpt>
<trkpt lat="46.17089496" lon="6.03834769"><ele>447.150269</ele><time>2009-08-22T15:49:01Z</time></trkpt>
<trkpt lat="46.17087526" lon="6.03829614"><ele>447.150269</ele><time>2009-08-22T15:49:02Z</time></trkpt>
<trkpt lat="46.17084643" lon="6.03824727"><ele>447.150269</ele><time>2009-08-22T15:49:03Z</time></trkpt>
<trkpt lat="46.17080670" lon="6.03820846"><ele>447.630981</ele><time>2009-08-22T15:49:04Z</time></trkpt>
<trkpt lat="46.17075817" lon="6.03818022"><ele>447.630981</ele><time>2009-08-22T15:49:05Z</time></trkpt>
<trkpt lat="46.17070712" lon="6.03814627"><ele>447.630981</ele><time>2009-08-22T15:49:06Z</time></trkpt>
<trkpt lat="46.17066052" lon="6.03809229"><ele>447.630981</ele><time>2009-08-22T15:49:07Z</time></trkpt>
<trkpt lat="46.17061894" lon="6.03802079"><ele>447.630981</ele><time>2009-08-22T15:49:08Z</time></trkpt>
<trkpt lat="46.17058014" lon="6.03793924"><ele>448.111816</ele><time>2009-08-22T15:49:09Z</time></trkpt>
<trkpt lat="46.17054166" lon="6.03785299"><ele>448.111816</ele><time>2009-08-22T15:49:10Z</time></trkpt>
<trkpt lat="46.17050109" lon="6.03776632"><ele>448.111816</ele><time>2009-08-22T15:49:11Z</time></trkpt>
<trkpt lat="46.17045918" lon="6.03767906"><ele>448.111816</ele><time>2009-08-22T15:49:12Z</time></trkpt>
<trkpt lat="46.17041853" lon="6.03758996"><ele>448.111816</ele><time>2009-08-22T15:49:13Z</time></trkpt>
<trkpt lat="46.17037838" lon="6.03750003"><ele>448.111816</ele><time>2009-08-22T15:49:14Z</time></trkpt>
<trkpt lat="46.17033798" lon="6.03741017"><ele>448.111816</ele><time>2009-08-22T15:49:15Z</time></trkpt>
<trkpt lat="46.17029750" lon="6.03732015"><ele>448.111816</ele><time>2009-08-22T15:49:16Z</time></trkpt>
<trkpt lat="46.17025676" lon="6.03722988"><ele>448.111816</ele><time>2009-08-22T15:49:17Z</time></trkpt>
<trkpt lat="46.17021519" lon="6.03713927"><ele>448.111816</ele><time>2009-08-22T15:49:18Z</time></trkpt>
<trkpt lat="46.17017328" lon="6.03704900"><ele>448.111816</ele><time>2009-08-22T15:49:19Z</time></trkpt>
<trkpt lat="46.17013145" lon="6.03695847"><ele>448.111816</ele><time>2009-08-22T15:49:20Z</time></trkpt>
<trkpt lat="46.17008996" lon="6.03686769"><ele>448.592407</ele><time>2009-08-22T15:49:21Z</time></trkpt>
<trkpt lat="46.17004914" lon="6.03677675"><ele>448.592407</ele><time>2009-08-22T15:49:22Z</time></trkpt>
<trkpt lat="46.17000924" lon="6.03668623"><ele>448.592407</ele><time>2009-08-22T15:49:23Z</time></trkpt>
<trkpt lat="46.16996935" lon="6.03659612"><ele>448.592407</ele><time>2009-08-22T15:49:24Z</time></trkpt>
<trkpt lat="46.16992869" lon="6.03650593"><ele>448.592407</ele><time>2009-08-22T15:49:25Z</time></trkpt>
<trkpt lat="46.16988838" lon="6.03641507"><ele>448.592407</ele><time>2009-08-22T15:49:26Z</time></trkpt>
<trkpt lat="46.16984823" lon="6.03632379"><ele>448.592407</ele><time>2009-08-22T15:49:27Z</time></trkpt>
<trkpt lat="46.16980816" lon="6.03623226"><ele>448.592407</ele><time>2009-08-22T15:49:28Z</time></trkpt>
<trkpt lat="46.16976868" lon="6.03613989"><ele>448.592407</ele><time>2009-08-22T15:49:29Z</time></trkpt>
<trkpt lat="46.16972929" lon="6.03604686"><ele>448.592407</ele><time>2009-08-22T15:49:30Z</time></trkpt>
<trkpt lat="46.16968998" lon="6.03595365"><ele>448.592407</ele><time>2009-08-22T15:49:31Z</time></trkpt>
<trkpt lat="46.16965134" lon="6.03586078"><ele>448.592407</ele><time>2009-08-22T15:49:32Z</time></trkpt>
<trkpt lat="46.16961295" lon="6.03576765"><ele>448.592407</ele><time>2009-08-22T15:49:33Z</time></trkpt>
<trkpt lat="46.16957439" lon="6.03567436"><ele>448.592407</ele><time>2009-08-22T15:49:34Z</time></trkpt>
<trkpt lat="46.16953525" lon="6.03558107"><ele>448.592407</ele><time>2009-08-22T15:49:35Z</time></trkpt>
<trkpt lat="46.16949602" lon="6.03548770"><ele>448.592407</ele><time>2009-08-22T15:49:36Z</time></trkpt>
<trkpt lat="46.16945738" lon="6.03539374"><ele>448.592407</ele><time>2009-08-22T15:49:37Z</time></trkpt>
<trkpt lat="46.16941958" lon="6.03529894"><ele>448.592407</ele><time>2009-08-22T15:49:38Z</time></trkpt>
<trkpt lat="46.16938186" lon="6.03520422"><ele>448.592407</ele><time>2009-08-22T15:49:39Z</time></trkpt>
<trkpt lat="46.16934297" lon="6.03511009"><ele>448.592407</ele><time>2009-08-22T15:49:40Z</time></trkpt>
<trkpt lat="46.16930416" lon="6.03501496"><ele>448.592407</ele><time>2009-08-22T15:49:41Z</time></trkpt>
<trkpt lat="46.16926594" lon="6.03491865"><ele>448.592407</ele><time>2009-08-22T15:49:42Z</time></trkpt>
<trkpt lat="46.16922872" lon="6.03482142"><ele>448.592407</ele><time>2009-08-22T15:49:43Z</time></trkpt>
<trkpt lat="46.16919184" lon="6.03472377"><ele>448.592407</ele><time>2009-08-22T15:49:44Z</time></trkpt>
<trkpt lat="46.16915446" lon="6.03462629"><ele>448.592407</ele><time>2009-08-22T15:49:45Z</time></trkpt>
<trkpt lat="46.16911733" lon="6.03452872"><ele>448.592407</ele><time>2009-08-22T15:49:46Z</time></trkpt>
<trkpt lat="46.16908086" lon="6.03443099"><ele>448.592407</ele><time>2009-08-22T15:49:47Z</time></trkpt>
<trkpt lat="46.16904432" lon="6.03433326"><ele>448.592407</ele><time>2009-08-22T15:49:48Z</time></trkpt>
<trkpt lat="46.16900803" lon="6.03423553"><ele>448.592407</ele><time>2009-08-22T15:49:49Z</time></trkpt>
<trkpt lat="46.16897257" lon="6.03413712"><ele>448.592407</ele><time>2009-08-22T15:49:50Z</time></trkpt>
<trkpt lat="46.16893745" lon="6.03403855"><ele>448.592407</ele><time>2009-08-22T15:49:51Z</time></trkpt>
<trkpt lat="46.16890233" lon="6.03394107"><ele>448.592407</ele><time>2009-08-22T15:49:52Z</time></trkpt>
<trkpt lat="46.16886763" lon="6.03384342"><ele>448.592407</ele><time>2009-08-22T15:49:53Z</time></trkpt>
<trkpt lat="46.16883293" lon="6.03374577"><ele>448.592407</ele><time>2009-08-22T15:49:54Z</time></trkpt>
<trkpt lat="46.16879806" lon="6.03364846"><ele>448.592407</ele><time>2009-08-22T15:49:55Z</time></trkpt>
<trkpt lat="46.16876386" lon="6.03355098"><ele>448.592407</ele><time>2009-08-22T15:49:56Z</time></trkpt>
<trkpt lat="46.16873033" lon="6.03345324"><ele>448.592407</ele><time>2009-08-22T15:49:57Z</time></trkpt>
<trkpt lat="46.16869697" lon="6.03335576"><ele>448.592407</ele><time>2009-08-22T15:49:58Z</time></trkpt>
<trkpt lat="46.16866370" lon="6.03325778"><ele>448.592407</ele><time>2009-08-22T15:49:59Z</time></trkpt>
<trkpt lat="46.16863009" lon="6.03315996"><ele>448.592407</ele><time>2009-08-22T15:50:00Z</time></trkpt>
<trkpt lat="46.16859673" lon="6.03306239"><ele>448.592407</ele><time>2009-08-22T15:50:01Z</time></trkpt>
<trkpt lat="46.16856362" lon="6.03296416"><ele>448.592407</ele><time>2009-08-22T15:50:02Z</time></trkpt>
<trkpt lat="46.16853034" lon="6.03286567"><ele>448.592407</ele><time>2009-08-22T15:50:03Z</time></trkpt>
<trkpt lat="46.16849698" lon="6.03276735"><ele>448.592407</ele><time>2009-08-22T15:50:04Z</time></trkpt>
<trkpt lat="46.16846345" lon="6.03266903"><ele>448.592407</ele><time>2009-08-22T15:50:05Z</time></trkpt>
<trkpt lat="46.16843018" lon="6.03257088"><ele>448.592407</ele><time>2009-08-22T15:50:06Z</time></trkpt>
<trkpt lat="46.16839732" lon="6.03247264"><ele>448.592407</ele><time>2009-08-22T15:50:07Z</time></trkpt>
<trkpt lat="46.16836480" lon="6.03237458"><ele>448.592407</ele><time>2009-08-22T15:50:08Z</time></trkpt>
<trkpt lat="46.16833194" lon="6.03227684"><ele>448.592407</ele><time>2009-08-22T15:50:09Z</time></trkpt>
<trkpt lat="46.16829875" lon="6.03217945"><ele>448.592407</ele><time>2009-08-22T15:50:10Z</time></trkpt>
<trkpt lat="46.16826673" lon="6.03208163"><ele>448.592407</ele><time>2009-08-22T15:50:11Z</time></trkpt>
<trkpt lat="46.16823672" lon="6.03198255"><ele>448.592407</ele><time>2009-08-22T15:50:12Z</time></trkpt>
<trkpt lat="46.16820588" lon="6.03188356"><ele>448.592407</ele><time>2009-08-22T15:50:13Z</time></trkpt>
<trkpt lat="46.16817419" lon="6.03178483"><ele>448.592407</ele><time>2009-08-22T15:50:14Z</time></trkpt>
<trkpt lat="46.16814218" lon="6.03168634"><ele>448.592407</ele><time>2009-08-22T15:50:15Z</time></trkpt>
<trkpt lat="46.16810965" lon="6.03158852"><ele>448.592407</ele><time>2009-08-22T15:50:16Z</time></trkpt>
<trkpt lat="46.16807763" lon="6.03149028"><ele>448.111816</ele><time>2009-08-22T15:50:17Z</time></trkpt>
<trkpt lat="46.16804578" lon="6.03139146"><ele>448.592407</ele><time>2009-08-22T15:50:18Z</time></trkpt>
<trkpt lat="46.16801385" lon="6.03129247"><ele>448.111816</ele><time>2009-08-22T15:50:19Z</time></trkpt>
<trkpt lat="46.16798149" lon="6.03119348"><ele>448.592407</ele><time>2009-08-22T15:50:20Z</time></trkpt>
<trkpt lat="46.16794872" lon="6.03109432"><ele>448.592407</ele><time>2009-08-22T15:50:21Z</time></trkpt>
<trkpt lat="46.16791603" lon="6.03099483"><ele>448.111816</ele><time>2009-08-22T15:50:22Z</time></trkpt>
<trkpt lat="46.16788368" lon="6.03089483"><ele>448.111816</ele><time>2009-08-22T15:50:23Z</time></trkpt>
<trkpt lat="46.16785149" lon="6.03079408"><ele>448.111816</ele><time>2009-08-22T15:50:24Z</time></trkpt>
<trkpt lat="46.16781855" lon="6.03069275"><ele>448.111816</ele><time>2009-08-22T15:50:25Z</time></trkpt>
<trkpt lat="46.16778544" lon="6.03059107"><ele>448.111816</ele><time>2009-08-22T15:50:26Z</time></trkpt>
<trkpt lat="46.16775267" lon="6.03048907"><ele>448.111816</ele><time>2009-08-22T15:50:27Z</time></trkpt>
<trkpt lat="46.16771973" lon="6.03038698"><ele>448.111816</ele><time>2009-08-22T15:50:28Z</time></trkpt>
<trkpt lat="46.16768687" lon="6.03028522"><ele>448.111816</ele><time>2009-08-22T15:50:29Z</time></trkpt>
<trkpt lat="46.16765410" lon="6.03018363"><ele>448.111816</ele><time>2009-08-22T15:50:30Z</time></trkpt>
<trkpt lat="46.16762124" lon="6.03008196"><ele>448.111816</ele><time>2009-08-22T15:50:31Z</time></trkpt>
<trkpt lat="46.16758796" lon="6.02998037"><ele>448.111816</ele><time>2009-08-22T15:50:32Z</time></trkpt>
<trkpt lat="46.16755435" lon="6.02987878"><ele>448.111816</ele><time>2009-08-22T15:50:33Z</time></trkpt>
<trkpt lat="46.16752099" lon="6.02977728"><ele>448.111816</ele><time>2009-08-22T15:50:34Z</time></trkpt>
<trkpt lat="46.16748797" lon="6.02967594"><ele>448.111816</ele><time>2009-08-22T15:50:35Z</time></trkpt>
<trkpt lat="46.16745494" lon="6.02957443"><ele>448.111816</ele><time>2009-08-22T15:50:36Z</time></trkpt>
<trkpt lat="46.16742116" lon="6.02947335"><ele>448.111816</ele><time>2009-08-22T15:50:37Z</time></trkpt>
<trkpt lat="46.16738713" lon="6.02937235"><ele>448.111816</ele><time>2009-08-22T15:50:38Z</time></trkpt>
<trkpt lat="46.16735327" lon="6.02927067"><ele>448.111816</ele><time>2009-08-22T15:50:39Z</time></trkpt>
<trkpt lat="46.16731958" lon="6.02916883"><ele>448.111816</ele><time>2009-08-22T15:50:40Z</time></trkpt>
<trkpt lat="46.16728563" lon="6.02906733"><ele>448.111816</ele><time>2009-08-22T15:50:41Z</time></trkpt>
<trkpt lat="46.16725126" lon="6.02896599"><ele>448.111816</ele><time>2009-08-22T15:50:42Z</time></trkpt>
<trkpt lat="46.16721690" lon="6.02886373"><ele>448.111816</ele><time>2009-08-22T15:50:43Z</time></trkpt>
<trkpt lat="46.16718303" lon="6.02876147"><ele>448.111816</ele><time>2009-08-22T15:50:44Z</time></trkpt>
<trkpt lat="46.16714959" lon="6.02865946"><ele>448.111816</ele><time>2009-08-22T15:50:45Z</time></trkpt>
<trkpt lat="46.16711598" lon="6.02855779"><ele>448.111816</ele><time>2009-08-22T15:50:46Z</time></trkpt>
<trkpt lat="46.16708228" lon="6.02845629"><ele>448.111816</ele><time>2009-08-22T15:50:47Z</time></trkpt>
<trkpt lat="46.16704809" lon="6.02835529"><ele>448.111816</ele><time>2009-08-22T15:50:48Z</time></trkpt>
<trkpt lat="46.16701338" lon="6.02825495"><ele>448.111816</ele><time>2009-08-22T15:50:49Z</time></trkpt>
<trkpt lat="46.16697935" lon="6.02815479"><ele>448.111816</ele><time>2009-08-22T15:50:50Z</time></trkpt>
<trkpt lat="46.16694549" lon="6.02805446"><ele>448.111816</ele><time>2009-08-22T15:50:51Z</time></trkpt>
<trkpt lat="46.16691129" lon="6.02795463"><ele>448.111816</ele><time>2009-08-22T15:50:52Z</time></trkpt>
<trkpt lat="46.16687735" lon="6.02785463"><ele>448.111816</ele><time>2009-08-22T15:50:53Z</time></trkpt>
<trkpt lat="46.16684357" lon="6.02775447"><ele>448.111816</ele><time>2009-08-22T15:50:54Z</time></trkpt>
<trkpt lat="46.16680912" lon="6.02765447"><ele>448.111816</ele><time>2009-08-22T15:50:55Z</time></trkpt>
<trkpt lat="46.16677458" lon="6.02755490"><ele>448.111816</ele><time>2009-08-22T15:50:56Z</time></trkpt>
<trkpt lat="46.16674013" lon="6.02745515"><ele>448.111816</ele><time>2009-08-22T15:50:57Z</time></trkpt>
<trkpt lat="46.16670577" lon="6.02735558"><ele>447.630981</ele><time>2009-08-22T15:50:58Z</time></trkpt>
<trkpt lat="46.16667107" lon="6.02725608"><ele>447.630981</ele><time>2009-08-22T15:50:59Z</time></trkpt>
<trkpt lat="46.16663637" lon="6.02715584"><ele>447.630981</ele><time>2009-08-22T15:51:00Z</time></trkpt>
<trkpt lat="46.16660192" lon="6.02705576"><ele>447.630981</ele><time>2009-08-22T15:51:01Z</time></trkpt>
<trkpt lat="46.16656680" lon="6.02695559"><ele>447.630981</ele><time>2009-08-22T15:51:02Z</time></trkpt>
<trkpt lat="46.16653092" lon="6.02685543"><ele>447.630981</ele><time>2009-08-22T15:51:03Z</time></trkpt>
<trkpt lat="46.16649513" lon="6.02675635"><ele>447.630981</ele><time>2009-08-22T15:51:04Z</time></trkpt>
<trkpt lat="46.16645976" lon="6.02666080"><ele>447.630981</ele><time>2009-08-22T15:51:05Z</time></trkpt>
<trkpt lat="46.16642456" lon="6.02656499"><ele>447.630981</ele><time>2009-08-22T15:51:06Z</time></trkpt>
<trkpt lat="46.16638977" lon="6.02647003"><ele>447.630981</ele><time>2009-08-22T15:51:07Z</time></trkpt>
<trkpt lat="46.16635482" lon="6.02637565"><ele>447.630981</ele><time>2009-08-22T15:51:08Z</time></trkpt>
<trkpt lat="46.16632012" lon="6.02628202"><ele>447.630981</ele><time>2009-08-22T15:51:09Z</time></trkpt>
<trkpt lat="46.16628617" lon="6.02619083"><ele>447.630981</ele><time>2009-08-22T15:51:10Z</time></trkpt>
<trkpt lat="46.16625340" lon="6.02610139"><ele>447.630981</ele><time>2009-08-22T15:51:11Z</time></trkpt>
<trkpt lat="46.16622096" lon="6.02601372"><ele>447.630981</ele><time>2009-08-22T15:51:12Z</time></trkpt>
<trkpt lat="46.16618894" lon="6.02592839"><ele>447.630981</ele><time>2009-08-22T15:51:13Z</time></trkpt>
<trkpt lat="46.16615717" lon="6.02584566"><ele>447.630981</ele><time>2009-08-22T15:51:14Z</time></trkpt>
<trkpt lat="46.16612650" lon="6.02576494"><ele>447.630981</ele><time>2009-08-22T15:51:15Z</time></trkpt>
<trkpt lat="46.16609624" lon="6.02568506"><ele>447.630981</ele><time>2009-08-22T15:51:16Z</time></trkpt>
<trkpt lat="46.16606648" lon="6.02560745"><ele>447.630981</ele><time>2009-08-22T15:51:17Z</time></trkpt>
<trkpt lat="46.16604326" lon="6.02552782"><ele>447.150269</ele><time>2009-08-22T15:51:18Z</time></trkpt>
<trkpt lat="46.16603832" lon="6.02544442"><ele>447.150269</ele><time>2009-08-22T15:51:19Z</time></trkpt>
<trkpt lat="46.16604896" lon="6.02536169"><ele>447.150269</ele><time>2009-08-22T15:51:20Z</time></trkpt>
<trkpt lat="46.16605299" lon="6.02527913"><ele>446.669678</ele><time>2009-08-22T15:51:21Z</time></trkpt>
<trkpt lat="46.16603513" lon="6.02520285"><ele>446.669678</ele><time>2009-08-22T15:51:22Z</time></trkpt>
<trkpt lat="46.16599876" lon="6.02513999"><ele>446.669678</ele><time>2009-08-22T15:51:23Z</time></trkpt>
<trkpt lat="46.16594888" lon="6.02509615"><ele>446.669678</ele><time>2009-08-22T15:51:24Z</time></trkpt>
<trkpt lat="46.16589138" lon="6.02506254"><ele>446.189087</ele><time>2009-08-22T15:51:25Z</time></trkpt>
<trkpt lat="46.16583807" lon="6.02500722"><ele>446.189087</ele><time>2009-08-22T15:51:26Z</time></trkpt>
<trkpt lat="46.16579918" lon="6.02492357"><ele>446.189087</ele><time>2009-08-22T15:51:27Z</time></trkpt>
<trkpt lat="46.16576683" lon="6.02483120"><ele>446.189087</ele><time>2009-08-22T15:51:28Z</time></trkpt>
<trkpt lat="46.16573355" lon="6.02473699"><ele>445.708374</ele><time>2009-08-22T15:51:29Z</time></trkpt>
<trkpt lat="46.16569499" lon="6.02464110"><ele>445.708374</ele><time>2009-08-22T15:51:30Z</time></trkpt>
<trkpt lat="46.16565526" lon="6.02454512"><ele>445.708374</ele><time>2009-08-22T15:51:31Z</time></trkpt>
<trkpt lat="46.16561780" lon="6.02444965"><ele>445.227661</ele><time>2009-08-22T15:51:32Z</time></trkpt>
<trkpt lat="46.16557882" lon="6.02435284"><ele>445.227661</ele><time>2009-08-22T15:51:33Z</time></trkpt>
<trkpt lat="46.16553976" lon="6.02425519"><ele>445.227661</ele><time>2009-08-22T15:51:34Z</time></trkpt>
<trkpt lat="46.16549970" lon="6.02415629"><ele>444.74707</ele><time>2009-08-22T15:51:35Z</time></trkpt>
<trkpt lat="46.16545888" lon="6.02405679"><ele>444.74707</ele><time>2009-08-22T15:51:36Z</time></trkpt>
<trkpt lat="46.16541722" lon="6.02395722"><ele>444.74707</ele><time>2009-08-22T15:51:37Z</time></trkpt>
<trkpt lat="46.16537556" lon="6.02385672"><ele>444.266479</ele><time>2009-08-22T15:51:38Z</time></trkpt>
<trkpt lat="46.16533382" lon="6.02375463"><ele>444.266479</ele><time>2009-08-22T15:51:39Z</time></trkpt>
<trkpt lat="46.16529048" lon="6.02365086"><ele>443.785767</ele><time>2009-08-22T15:51:40Z</time></trkpt>
<trkpt lat="46.16524715" lon="6.02354424"><ele>443.785767</ele><time>2009-08-22T15:51:41Z</time></trkpt>
<trkpt lat="46.16520407" lon="6.02343494"><ele>443.305054</ele><time>2009-08-22T15:51:42Z</time></trkpt>
<trkpt lat="46.16515939" lon="6.02332539"><ele>443.305054</ele><time>2009-08-22T15:51:43Z</time></trkpt>
<trkpt lat="46.16511379" lon="6.02321592"><ele>442.824463</ele><time>2009-08-22T15:51:44Z</time></trkpt>
<trkpt lat="46.16506719" lon="6.02310637"><ele>442.824463</ele><time>2009-08-22T15:51:45Z</time></trkpt>
<trkpt lat="46.16502084" lon="6.02299665"><ele>442.343872</ele><time>2009-08-22T15:51:46Z</time></trkpt>
<trkpt lat="46.16497507" lon="6.02288643"><ele>442.343872</ele><time>2009-08-22T15:51:47Z</time></trkpt>
<trkpt lat="46.16492839" lon="6.02277604"><ele>441.863159</ele><time>2009-08-22T15:51:48Z</time></trkpt>
<trkpt lat="46.16488170" lon="6.02266607"><ele>441.863159</ele><time>2009-08-22T15:51:49Z</time></trkpt>
<trkpt lat="46.16483568" lon="6.02255719"><ele>441.382446</ele><time>2009-08-22T15:51:50Z</time></trkpt>
<trkpt lat="46.16478958" lon="6.02244990"><ele>441.382446</ele><time>2009-08-22T15:51:51Z</time></trkpt>
<trkpt lat="46.16474315" lon="6.02234479"><ele>440.901855</ele><time>2009-08-22T15:51:52Z</time></trkpt>
<trkpt lat="46.16469855" lon="6.02223993"><ele>440.901855</ele><time>2009-08-22T15:51:53Z</time></trkpt>
<trkpt lat="46.16465514" lon="6.02213549"><ele>440.421265</ele><time>2009-08-22T15:51:54Z</time></trkpt>
<trkpt lat="46.16461147" lon="6.02203256"><ele>440.421265</ele><time>2009-08-22T15:51:55Z</time></trkpt>
<trkpt lat="46.16456805" lon="6.02193022"><ele>440.421265</ele><time>2009-08-22T15:51:56Z</time></trkpt>
<trkpt lat="46.16452396" lon="6.02182914"><ele>440.421265</ele><time>2009-08-22T15:51:57Z</time></trkpt>
<trkpt lat="46.16447987" lon="6.02172906"><ele>439.94043</ele><time>2009-08-22T15:51:58Z</time></trkpt>
<trkpt lat="46.16443746" lon="6.02162856"><ele>439.94043</ele><time>2009-08-22T15:51:59Z</time></trkpt>
<trkpt lat="46.16439597" lon="6.02152982"><ele>439.94043</ele><time>2009-08-22T15:52:00Z</time></trkpt>
<trkpt lat="46.16435498" lon="6.02143493"><ele>439.94043</ele><time>2009-08-22T15:52:01Z</time></trkpt>
<trkpt lat="46.16431508" lon="6.02134458"><ele>439.94043</ele><time>2009-08-22T15:52:02Z</time></trkpt>
<trkpt lat="46.16427728" lon="6.02125967"><ele>439.94043</ele><time>2009-08-22T15:52:03Z</time></trkpt>
<trkpt lat="46.16424182" lon="6.02118163"><ele>439.94043</ele><time>2009-08-22T15:52:04Z</time></trkpt>
<trkpt lat="46.16420587" lon="6.02110838"><ele>439.94043</ele><time>2009-08-22T15:52:05Z</time></trkpt>
<trkpt lat="46.16416907" lon="6.02102992"><ele>439.94043</ele><time>2009-08-22T15:52:06Z</time></trkpt>
<trkpt lat="46.16413563" lon="6.02093956"><ele>439.94043</ele><time>2009-08-22T15:52:07Z</time></trkpt>
<trkpt lat="46.16410218" lon="6.02084208"><ele>439.94043</ele><time>2009-08-22T15:52:08Z</time></trkpt>
<trkpt lat="46.16406463" lon="6.02074368"><ele>440.421265</ele><time>2009-08-22T15:52:09Z</time></trkpt>
<trkpt lat="46.16402406" lon="6.02064494"><ele>440.421265</ele><time>2009-08-22T15:52:10Z</time></trkpt>
<trkpt lat="46.16398157" lon="6.02054595"><ele>440.421265</ele><time>2009-08-22T15:52:11Z</time></trkpt>
<trkpt lat="46.16393848" lon="6.02044679"><ele>440.901855</ele><time>2009-08-22T15:52:12Z</time></trkpt>
<trkpt lat="46.16389548" lon="6.02034596"><ele>440.901855</ele><time>2009-08-22T15:52:13Z</time></trkpt>
<trkpt lat="46.16385190" lon="6.02024378"><ele>441.382446</ele><time>2009-08-22T15:52:14Z</time></trkpt>
<trkpt lat="46.16380764" lon="6.02014043"><ele>441.863159</ele><time>2009-08-22T15:52:15Z</time></trkpt>
<trkpt lat="46.16376280" lon="6.02003776"><ele>441.863159</ele><time>2009-08-22T15:52:16Z</time></trkpt>
<trkpt lat="46.16371754" lon="6.01993466"><ele>441.863159</ele><time>2009-08-22T15:52:17Z</time></trkpt>
<trkpt lat="46.16367269" lon="6.01982997"><ele>441.863159</ele><time>2009-08-22T15:52:18Z</time></trkpt>
<trkpt lat="46.16362819" lon="6.01972494"><ele>442.343872</ele><time>2009-08-22T15:52:19Z</time></trkpt>
<trkpt lat="46.16358326" lon="6.01962176"><ele>442.343872</ele><time>2009-08-22T15:52:20Z</time></trkpt>
<trkpt lat="46.16353892" lon="6.01951766"><ele>442.824463</ele><time>2009-08-22T15:52:21Z</time></trkpt>
<trkpt lat="46.16349500" lon="6.01941247"><ele>442.824463</ele><time>2009-08-22T15:52:22Z</time></trkpt>
<trkpt lat="46.16345066" lon="6.01930744"><ele>443.305054</ele><time>2009-08-22T15:52:23Z</time></trkpt>
<trkpt lat="46.16340715" lon="6.01920216"><ele>443.305054</ele><time>2009-08-22T15:52:24Z</time></trkpt>
<trkpt lat="46.16336558" lon="6.01909647"><ele>443.785767</ele><time>2009-08-22T15:52:25Z</time></trkpt>
<trkpt lat="46.16332510" lon="6.01899220"><ele>443.785767</ele><time>2009-08-22T15:52:26Z</time></trkpt>
<trkpt lat="46.16328377" lon="6.01889019"><ele>443.785767</ele><time>2009-08-22T15:52:27Z</time></trkpt>
<trkpt lat="46.16324178" lon="6.01879019"><ele>444.266479</ele><time>2009-08-22T15:52:28Z</time></trkpt>
<trkpt lat="46.16320012" lon="6.01869137"><ele>444.266479</ele><time>2009-08-22T15:52:29Z</time></trkpt>
<trkpt lat="46.16315922" lon="6.01859372"><ele>444.266479</ele><time>2009-08-22T15:52:30Z</time></trkpt>
<trkpt lat="46.16311898" lon="6.01849984"><ele>444.266479</ele><time>2009-08-22T15:52:31Z</time></trkpt>
<trkpt lat="46.16308076" lon="6.01840798"><ele>444.266479</ele><time>2009-08-22T15:52:32Z</time></trkpt>
<trkpt lat="46.16304388" lon="6.01831762"><ele>444.266479</ele><time>2009-08-22T15:52:33Z</time></trkpt>
<trkpt lat="46.16300767" lon="6.01823037"><ele>444.266479</ele><time>2009-08-22T15:52:34Z</time></trkpt>
<trkpt lat="46.16297373" lon="6.01814370"><ele>444.266479</ele><time>2009-08-22T15:52:35Z</time></trkpt>
<trkpt lat="46.16294933" lon="6.01805175"><ele>443.785767</ele><time>2009-08-22T15:52:36Z</time></trkpt>
<trkpt lat="46.16294154" lon="6.01795485"><ele>443.785767</ele><time>2009-08-22T15:52:37Z</time></trkpt>
<trkpt lat="46.16293718" lon="6.01785628"><ele>443.785767</ele><time>2009-08-22T15:52:38Z</time></trkpt>
<trkpt lat="46.16291673" lon="6.01776307"><ele>443.785767</ele><time>2009-08-22T15:52:39Z</time></trkpt>
<trkpt lat="46.16287415" lon="6.01768697"><ele>443.785767</ele><time>2009-08-22T15:52:40Z</time></trkpt>
<trkpt lat="46.16281447" lon="6.01763466"><ele>443.785767</ele><time>2009-08-22T15:52:41Z</time></trkpt>
<trkpt lat="46.16275194" lon="6.01758739"><ele>443.785767</ele><time>2009-08-22T15:52:42Z</time></trkpt>
<trkpt lat="46.16272185" lon="6.01752184"><ele>443.785767</ele><time>2009-08-22T15:52:43Z</time></trkpt>
<trkpt lat="46.16268866" lon="6.01743576"><ele>444.266479</ele><time>2009-08-22T15:52:44Z</time></trkpt>
<trkpt lat="46.16265169" lon="6.01734473"><ele>444.266479</ele><time>2009-08-22T15:52:45Z</time></trkpt>
<trkpt lat="46.16261272" lon="6.01725128"><ele>444.266479</ele><time>2009-08-22T15:52:46Z</time></trkpt>
<trkpt lat="46.16257257" lon="6.01715589"><ele>444.266479</ele><time>2009-08-22T15:52:47Z</time></trkpt>
<trkpt lat="46.16253158" lon="6.01706017"><ele>444.266479</ele><time>2009-08-22T15:52:48Z</time></trkpt>
<trkpt lat="46.16249084" lon="6.01696235"><ele>444.74707</ele><time>2009-08-22T15:52:49Z</time></trkpt>
<trkpt lat="46.16244919" lon="6.01686479"><ele>444.266479</ele><time>2009-08-22T15:52:50Z</time></trkpt>
<trkpt lat="46.16240677" lon="6.01676714"><ele>444.266479</ele><time>2009-08-22T15:52:51Z</time></trkpt>
<trkpt lat="46.16236369" lon="6.01666873"><ele>444.74707</ele><time>2009-08-22T15:52:52Z</time></trkpt>
<trkpt lat="46.16232027" lon="6.01657033"><ele>444.266479</ele><time>2009-08-22T15:52:53Z</time></trkpt>
<trkpt lat="46.16227635" lon="6.01647218"><ele>444.266479</ele><time>2009-08-22T15:52:54Z</time></trkpt>
<trkpt lat="46.16223277" lon="6.01637319"><ele>444.266479</ele><time>2009-08-22T15:52:55Z</time></trkpt>
<trkpt lat="46.16218926" lon="6.01627353"><ele>444.266479</ele><time>2009-08-22T15:52:56Z</time></trkpt>
<trkpt lat="46.16214559" lon="6.01617345"><ele>444.266479</ele><time>2009-08-22T15:52:57Z</time></trkpt>
<trkpt lat="46.16210184" lon="6.01607270"><ele>444.266479</ele><time>2009-08-22T15:52:58Z</time></trkpt>
<trkpt lat="46.16205809" lon="6.01597128"><ele>444.266479</ele><time>2009-08-22T15:52:59Z</time></trkpt>
<trkpt lat="46.16201383" lon="6.01586935"><ele>444.266479</ele><time>2009-08-22T15:53:00Z</time></trkpt>
<trkpt lat="46.16196949" lon="6.01576676"><ele>444.266479</ele><time>2009-08-22T15:53:01Z</time></trkpt>
<trkpt lat="46.16192456" lon="6.01566399"><ele>444.266479</ele><time>2009-08-22T15:53:02Z</time></trkpt>
<trkpt lat="46.16187955" lon="6.01556073"><ele>444.266479</ele><time>2009-08-22T15:53:03Z</time></trkpt>
<trkpt lat="46.16183488" lon="6.01545688"><ele>444.266479</ele><time>2009-08-22T15:53:04Z</time></trkpt>
<trkpt lat="46.16179003" lon="6.01535286"><ele>444.266479</ele><time>2009-08-22T15:53:05Z</time></trkpt>
<trkpt lat="46.16174519" lon="6.01524875"><ele>444.266479</ele><time>2009-08-22T15:53:06Z</time></trkpt>
<trkpt lat="46.16170026" lon="6.01514448"><ele>444.266479</ele><time>2009-08-22T15:53:07Z</time></trkpt>
<trkpt lat="46.16165525" lon="6.01503996"><ele>444.266479</ele><time>2009-08-22T15:53:08Z</time></trkpt>
<trkpt lat="46.16160999" lon="6.01493502"><ele>444.266479</ele><time>2009-08-22T15:53:09Z</time></trkpt>
<trkpt lat="46.16156448" lon="6.01482983"><ele>444.266479</ele><time>2009-08-22T15:53:10Z</time></trkpt>
<trkpt lat="46.16151880" lon="6.01472430"><ele>444.266479</ele><time>2009-08-22T15:53:11Z</time></trkpt>
<trkpt lat="46.16147244" lon="6.01461894"><ele>444.266479</ele><time>2009-08-22T15:53:12Z</time></trkpt>
<trkpt lat="46.16142618" lon="6.01451349"><ele>444.266479</ele><time>2009-08-22T15:53:13Z</time></trkpt>
<trkpt lat="46.16138033" lon="6.01440688"><ele>444.266479</ele><time>2009-08-22T15:53:14Z</time></trkpt>
<trkpt lat="46.16133414" lon="6.01429976"><ele>444.266479</ele><time>2009-08-22T15:53:15Z</time></trkpt>
<trkpt lat="46.16128779" lon="6.01419205"><ele>444.266479</ele><time>2009-08-22T15:53:16Z</time></trkpt>
<trkpt lat="46.16124135" lon="6.01408300"><ele>443.785767</ele><time>2009-08-22T15:53:17Z</time></trkpt>
<trkpt lat="46.16119450" lon="6.01397295"><ele>443.785767</ele><time>2009-08-22T15:53:18Z</time></trkpt>
<trkpt lat="46.16114614" lon="6.01386289"><ele>443.785767</ele><time>2009-08-22T15:53:19Z</time></trkpt>
<trkpt lat="46.16109727" lon="6.01375267"><ele>443.785767</ele><time>2009-08-22T15:53:20Z</time></trkpt>
<trkpt lat="46.16104899" lon="6.01364102"><ele>443.785767</ele><time>2009-08-22T15:53:21Z</time></trkpt>
<trkpt lat="46.16100046" lon="6.01352862"><ele>443.785767</ele><time>2009-08-22T15:53:22Z</time></trkpt>
<trkpt lat="46.16095235" lon="6.01341572"><ele>443.785767</ele><time>2009-08-22T15:53:23Z</time></trkpt>
<trkpt lat="46.16090465" lon="6.01330197"><ele>443.785767</ele><time>2009-08-22T15:53:24Z</time></trkpt>
<trkpt lat="46.16085663" lon="6.01318840"><ele>443.785767</ele><time>2009-08-22T15:53:25Z</time></trkpt>
<trkpt lat="46.16080784" lon="6.01307533"><ele>443.785767</ele><time>2009-08-22T15:53:26Z</time></trkpt>
<trkpt lat="46.16075898" lon="6.01296226"><ele>443.785767</ele><time>2009-08-22T15:53:27Z</time></trkpt>
<trkpt lat="46.16071019" lon="6.01284843"><ele>443.785767</ele><time>2009-08-22T15:53:28Z</time></trkpt>
<trkpt lat="46.16066066" lon="6.01273427"><ele>443.785767</ele><time>2009-08-22T15:53:29Z</time></trkpt>
<trkpt lat="46.16061104" lon="6.01261994"><ele>443.305054</ele><time>2009-08-22T15:53:30Z</time></trkpt>
<trkpt lat="46.16056158" lon="6.01250553"><ele>443.305054</ele><time>2009-08-22T15:53:31Z</time></trkpt>
<trkpt lat="46.16051213" lon="6.01239120"><ele>443.305054</ele><time>2009-08-22T15:53:32Z</time></trkpt>
<trkpt lat="46.16046318" lon="6.01227712"><ele>443.305054</ele><time>2009-08-22T15:53:33Z</time></trkpt>
<trkpt lat="46.16041423" lon="6.01216363"><ele>443.305054</ele><time>2009-08-22T15:53:34Z</time></trkpt>
<trkpt lat="46.16036570" lon="6.01204972"><ele>443.305054</ele><time>2009-08-22T15:53:35Z</time></trkpt>
<trkpt lat="46.16031708" lon="6.01193589"><ele>443.305054</ele><time>2009-08-22T15:53:36Z</time></trkpt>
<trkpt lat="46.16026847" lon="6.01182232"><ele>443.305054</ele><time>2009-08-22T15:53:37Z</time></trkpt>
<trkpt lat="46.16021994" lon="6.01170916"><ele>443.305054</ele><time>2009-08-22T15:53:38Z</time></trkpt>
<trkpt lat="46.16017166" lon="6.01159626"><ele>443.305054</ele><time>2009-08-22T15:53:39Z</time></trkpt>
<trkpt lat="46.16012312" lon="6.01148293"><ele>443.305054</ele><time>2009-08-22T15:53:40Z</time></trkpt>
<trkpt lat="46.16007409" lon="6.01136936"><ele>443.305054</ele><time>2009-08-22T15:53:41Z</time></trkpt>
<trkpt lat="46.16002556" lon="6.01125528"><ele>443.305054</ele><time>2009-08-22T15:53:42Z</time></trkpt>
<trkpt lat="46.15997703" lon="6.01114154"><ele>443.305054</ele><time>2009-08-22T15:53:43Z</time></trkpt>
<trkpt lat="46.15992766" lon="6.01102855"><ele>442.824463</ele><time>2009-08-22T15:53:44Z</time></trkpt>
<trkpt lat="46.15987762" lon="6.01091573"><ele>442.824463</ele><time>2009-08-22T15:53:45Z</time></trkpt>
<trkpt lat="46.15982808" lon="6.01080274"><ele>442.824463</ele><time>2009-08-22T15:53:46Z</time></trkpt>
<trkpt lat="46.15978014" lon="6.01068908"><ele>442.824463</ele><time>2009-08-22T15:53:47Z</time></trkpt>
<trkpt lat="46.15973270" lon="6.01057534"><ele>442.824463</ele><time>2009-08-22T15:53:48Z</time></trkpt>
<trkpt lat="46.15968450" lon="6.01046202"><ele>442.824463</ele><time>2009-08-22T15:53:49Z</time></trkpt>
<trkpt lat="46.15963597" lon="6.01034878"><ele>442.824463</ele><time>2009-08-22T15:53:50Z</time></trkpt>
<trkpt lat="46.15958702" lon="6.01023613"><ele>442.824463</ele><time>2009-08-22T15:53:51Z</time></trkpt>
<trkpt lat="46.15953849" lon="6.01012372"><ele>442.824463</ele><time>2009-08-22T15:53:52Z</time></trkpt>
<trkpt lat="46.15949046" lon="6.01001116"><ele>442.824463</ele><time>2009-08-22T15:53:53Z</time></trkpt>
<trkpt lat="46.15944260" lon="6.00989833"><ele>442.824463</ele><time>2009-08-22T15:53:54Z</time></trkpt>
<trkpt lat="46.15939407" lon="6.00978560"><ele>442.824463</ele><time>2009-08-22T15:53:55Z</time></trkpt>
<trkpt lat="46.15934554" lon="6.00967278"><ele>442.824463</ele><time>2009-08-22T15:53:56Z</time></trkpt>
<trkpt lat="46.15929726" lon="6.00955987"><ele>442.343872</ele><time>2009-08-22T15:53:57Z</time></trkpt>
<trkpt lat="46.15924889" lon="6.00944697"><ele>442.343872</ele><time>2009-08-22T15:53:58Z</time></trkpt>
<trkpt lat="46.15920019" lon="6.00933398"><ele>442.343872</ele><time>2009-08-22T15:53:59Z</time></trkpt>
<trkpt lat="46.15915149" lon="6.00922108"><ele>442.343872</ele><time>2009-08-22T15:54:00Z</time></trkpt>
<trkpt lat="46.15910296" lon="6.00910817"><ele>442.343872</ele><time>2009-08-22T15:54:01Z</time></trkpt>
<trkpt lat="46.15905418" lon="6.00899485"><ele>442.343872</ele><time>2009-08-22T15:54:02Z</time></trkpt>
<trkpt lat="46.15900515" lon="6.00888102"><ele>442.343872</ele><time>2009-08-22T15:54:03Z</time></trkpt>
<trkpt lat="46.15895628" lon="6.00876653"><ele>442.343872</ele><time>2009-08-22T15:54:04Z</time></trkpt>
<trkpt lat="46.15890699" lon="6.00865203"><ele>442.343872</ele><time>2009-08-22T15:54:05Z</time></trkpt>
<trkpt lat="46.15885762" lon="6.00853753"><ele>442.343872</ele><time>2009-08-22T15:54:06Z</time></trkpt>
<trkpt lat="46.15880867" lon="6.00842262"><ele>442.343872</ele><time>2009-08-22T15:54:07Z</time></trkpt>
<trkpt lat="46.15875914" lon="6.00830778"><ele>442.343872</ele><time>2009-08-22T15:54:08Z</time></trkpt>
<trkpt lat="46.15870968" lon="6.00819262"><ele>442.343872</ele><time>2009-08-22T15:54:09Z</time></trkpt>
<trkpt lat="46.15866023" lon="6.00807728"><ele>442.343872</ele><time>2009-08-22T15:54:10Z</time></trkpt>
<trkpt lat="46.15861086" lon="6.00796195"><ele>441.863159</ele><time>2009-08-22T15:54:11Z</time></trkpt>
<trkpt lat="46.15856116" lon="6.00784670"><ele>441.863159</ele><time>2009-08-22T15:54:12Z</time></trkpt>
<trkpt lat="46.15851128" lon="6.00773103"><ele>441.863159</ele><time>2009-08-22T15:54:13Z</time></trkpt>
<trkpt lat="46.15846116" lon="6.00761544"><ele>441.863159</ele><time>2009-08-22T15:54:14Z</time></trkpt>
<trkpt lat="46.15841137" lon="6.00749952"><ele>441.863159</ele><time>2009-08-22T15:54:15Z</time></trkpt>
<trkpt lat="46.15836167" lon="6.00738376"><ele>441.863159</ele><time>2009-08-22T15:54:16Z</time></trkpt>
<trkpt lat="46.15831163" lon="6.00726910"><ele>441.863159</ele><time>2009-08-22T15:54:17Z</time></trkpt>
<trkpt lat="46.15826209" lon="6.00715469"><ele>441.863159</ele><time>2009-08-22T15:54:18Z</time></trkpt>
<trkpt lat="46.15821306" lon="6.00704019"><ele>441.863159</ele><time>2009-08-22T15:54:19Z</time></trkpt>
<trkpt lat="46.15816402" lon="6.00692594"><ele>441.863159</ele><time>2009-08-22T15:54:20Z</time></trkpt>
<trkpt lat="46.15811549" lon="6.00681178"><ele>441.863159</ele><time>2009-08-22T15:54:21Z</time></trkpt>
<trkpt lat="46.15806704" lon="6.00669729"><ele>441.382446</ele><time>2009-08-22T15:54:22Z</time></trkpt>
<trkpt lat="46.15801826" lon="6.00658329"><ele>441.382446</ele><time>2009-08-22T15:54:23Z</time></trkpt>
<trkpt lat="46.15796872" lon="6.00647014"><ele>441.382446</ele><time>2009-08-22T15:54:24Z</time></trkpt>
<trkpt lat="46.15792003" lon="6.00635690"><ele>441.382446</ele><time>2009-08-22T15:54:25Z</time></trkpt>
<trkpt lat="46.15787183" lon="6.00624324"><ele>441.382446</ele><time>2009-08-22T15:54:26Z</time></trkpt>
<trkpt lat="46.15782280" lon="6.00613084"><ele>441.382446</ele><time>2009-08-22T15:54:27Z</time></trkpt>
<trkpt lat="46.15777334" lon="6.00601852"><ele>441.382446</ele><time>2009-08-22T15:54:28Z</time></trkpt>
<trkpt lat="46.15772473" lon="6.00590578"><ele>441.382446</ele><time>2009-08-22T15:54:29Z</time></trkpt>
<trkpt lat="46.15767620" lon="6.00579296"><ele>441.382446</ele><time>2009-08-22T15:54:30Z</time></trkpt>
<trkpt lat="46.15762758" lon="6.00568006"><ele>441.382446</ele><time>2009-08-22T15:54:31Z</time></trkpt>
<trkpt lat="46.15757955" lon="6.00556665"><ele>441.382446</ele><time>2009-08-22T15:54:32Z</time></trkpt>
<trkpt lat="46.15753194" lon="6.00545299"><ele>441.382446</ele><time>2009-08-22T15:54:33Z</time></trkpt>
<trkpt lat="46.15748442" lon="6.00533925"><ele>441.382446</ele><time>2009-08-22T15:54:34Z</time></trkpt>
<trkpt lat="46.15743714" lon="6.00522576"><ele>441.382446</ele><time>2009-08-22T15:54:35Z</time></trkpt>
<trkpt lat="46.15738903" lon="6.00511285"><ele>440.901855</ele><time>2009-08-22T15:54:36Z</time></trkpt>
<trkpt lat="46.15734042" lon="6.00500045"><ele>440.901855</ele><time>2009-08-22T15:54:37Z</time></trkpt>
<trkpt lat="46.15729205" lon="6.00488772"><ele>440.901855</ele><time>2009-08-22T15:54:38Z</time></trkpt>
<trkpt lat="46.15724327" lon="6.00477498"><ele>440.901855</ele><time>2009-08-22T15:54:39Z</time></trkpt>
<trkpt lat="46.15719466" lon="6.00466216"><ele>440.901855</ele><time>2009-08-22T15:54:40Z</time></trkpt>
<trkpt lat="46.15714654" lon="6.00454909"><ele>440.901855</ele><time>2009-08-22T15:54:41Z</time></trkpt>
<trkpt lat="46.15709793" lon="6.00443644"><ele>440.901855</ele><time>2009-08-22T15:54:42Z</time></trkpt>
<trkpt lat="46.15704864" lon="6.00432445"><ele>440.901855</ele><time>2009-08-22T15:54:43Z</time></trkpt>
<trkpt lat="46.15699986" lon="6.00421205"><ele>440.901855</ele><time>2009-08-22T15:54:44Z</time></trkpt>
<trkpt lat="46.15695175" lon="6.00409948"><ele>440.901855</ele><time>2009-08-22T15:54:45Z</time></trkpt>
<trkpt lat="46.15690364" lon="6.00398742"><ele>440.421265</ele><time>2009-08-22T15:54:46Z</time></trkpt>
<trkpt lat="46.15685619" lon="6.00387585"><ele>440.421265</ele><time>2009-08-22T15:54:47Z</time></trkpt>
<trkpt lat="46.15680959" lon="6.00376446"><ele>440.421265</ele><time>2009-08-22T15:54:48Z</time></trkpt>
<trkpt lat="46.15676274" lon="6.00365457"><ele>440.421265</ele><time>2009-08-22T15:54:49Z</time></trkpt>
<trkpt lat="46.15671580" lon="6.00354636"><ele>440.421265</ele><time>2009-08-22T15:54:50Z</time></trkpt>
<trkpt lat="46.15666919" lon="6.00343899"><ele>440.421265</ele><time>2009-08-22T15:54:51Z</time></trkpt>
<trkpt lat="46.15662293" lon="6.00333162"><ele>440.421265</ele><time>2009-08-22T15:54:52Z</time></trkpt>
<trkpt lat="46.15657750" lon="6.00322424"><ele>440.421265</ele><time>2009-08-22T15:54:53Z</time></trkpt>
<trkpt lat="46.15653265" lon="6.00311738"><ele>440.421265</ele><time>2009-08-22T15:54:54Z</time></trkpt>
<trkpt lat="46.15648965" lon="6.00301067"><ele>440.421265</ele><time>2009-08-22T15:54:55Z</time></trkpt>
<trkpt lat="46.15645160" lon="6.00290288"><ele>440.421265</ele><time>2009-08-22T15:54:56Z</time></trkpt>
<trkpt lat="46.15641589" lon="6.00279534"><ele>439.94043</ele><time>2009-08-22T15:54:57Z</time></trkpt>
<trkpt lat="46.15637315" lon="6.00269367"><ele>439.94043</ele><time>2009-08-22T15:54:58Z</time></trkpt>
<trkpt lat="46.15632369" lon="6.00259460"><ele>439.94043</ele><time>2009-08-22T15:54:59Z</time></trkpt>
<trkpt lat="46.15627709" lon="6.00248982"><ele>439.94043</ele><time>2009-08-22T15:55:00Z</time></trkpt>
<trkpt lat="46.15623417" lon="6.00238086"><ele>439.94043</ele><time>2009-08-22T15:55:01Z</time></trkpt>
<trkpt lat="46.15619117" lon="6.00227164"><ele>439.94043</ele><time>2009-08-22T15:55:02Z</time></trkpt>
<trkpt lat="46.15614734" lon="6.00216184"><ele>439.459717</ele><time>2009-08-22T15:55:03Z</time></trkpt>
<trkpt lat="46.15610392" lon="6.00205036"><ele>439.459717</ele><time>2009-08-22T15:55:04Z</time></trkpt>
<trkpt lat="46.15606117" lon="6.00193754"><ele>439.459717</ele><time>2009-08-22T15:55:05Z</time></trkpt>
<trkpt lat="46.15601842" lon="6.00182447"><ele>439.459717</ele><time>2009-08-22T15:55:06Z</time></trkpt>
<trkpt lat="46.15597568" lon="6.00171190"><ele>438.979126</ele><time>2009-08-22T15:55:07Z</time></trkpt>
<trkpt lat="46.15593226" lon="6.00159958"><ele>438.979126</ele><time>2009-08-22T15:55:08Z</time></trkpt>
<trkpt lat="46.15588926" lon="6.00148768"><ele>438.979126</ele><time>2009-08-22T15:55:09Z</time></trkpt>
<trkpt lat="46.15584718" lon="6.00137528"><ele>438.979126</ele><time>2009-08-22T15:55:10Z</time></trkpt>
<trkpt lat="46.15580603" lon="6.00126212"><ele>438.498535</ele><time>2009-08-22T15:55:11Z</time></trkpt>
<trkpt lat="46.15576537" lon="6.00114897"><ele>438.498535</ele><time>2009-08-22T15:55:12Z</time></trkpt>
<trkpt lat="46.15572447" lon="6.00103565"><ele>438.498535</ele><time>2009-08-22T15:55:13Z</time></trkpt>
<trkpt lat="46.15568415" lon="6.00092165"><ele>438.498535</ele><time>2009-08-22T15:55:14Z</time></trkpt>
<trkpt lat="46.15564425" lon="6.00080724"><ele>438.017822</ele><time>2009-08-22T15:55:15Z</time></trkpt>
<trkpt lat="46.15560469" lon="6.00069274"><ele>438.017822</ele><time>2009-08-22T15:55:16Z</time></trkpt>
<trkpt lat="46.15556546" lon="6.00057833"><ele>438.017822</ele><time>2009-08-22T15:55:17Z</time></trkpt>
<trkpt lat="46.15552657" lon="6.00046383"><ele>438.017822</ele><time>2009-08-22T15:55:18Z</time></trkpt>
<trkpt lat="46.15548827" lon="6.00034858"><ele>437.537109</ele><time>2009-08-22T15:55:19Z</time></trkpt>
<trkpt lat="46.15544996" lon="6.00023266"><ele>437.537109</ele><time>2009-08-22T15:55:20Z</time></trkpt>
<trkpt lat="46.15541166" lon="6.00011623"><ele>437.537109</ele><time>2009-08-22T15:55:21Z</time></trkpt>
<trkpt lat="46.15537352" lon="5.99999956"><ele>437.537109</ele><time>2009-08-22T15:55:22Z</time></trkpt>
<trkpt lat="46.15533605" lon="5.99988204"><ele>437.056519</ele><time>2009-08-22T15:55:23Z</time></trkpt>
<trkpt lat="46.15529867" lon="5.99976378"><ele>437.056519</ele><time>2009-08-22T15:55:24Z</time></trkpt>
<trkpt lat="46.15526103" lon="5.99964534"><ele>437.056519</ele><time>2009-08-22T15:55:25Z</time></trkpt>
<trkpt lat="46.15522239" lon="5.99952715"><ele>437.056519</ele><time>2009-08-22T15:55:26Z</time></trkpt>
<trkpt lat="46.15518250" lon="5.99940897"><ele>436.575928</ele><time>2009-08-22T15:55:27Z</time></trkpt>
<trkpt lat="46.15514486" lon="5.99928894"><ele>436.575928</ele><time>2009-08-22T15:55:28Z</time></trkpt>
<trkpt lat="46.15511100" lon="5.99916598"><ele>436.575928</ele><time>2009-08-22T15:55:29Z</time></trkpt>
<trkpt lat="46.15507848" lon="5.99904209"><ele>436.575928</ele><time>2009-08-22T15:55:30Z</time></trkpt>
<trkpt lat="46.15504470" lon="5.99891829"><ele>436.095215</ele><time>2009-08-22T15:55:31Z</time></trkpt>
<trkpt lat="46.15500933" lon="5.99879483"><ele>436.095215</ele><time>2009-08-22T15:55:32Z</time></trkpt>
<trkpt lat="46.15497320" lon="5.99867136"><ele>436.095215</ele><time>2009-08-22T15:55:33Z</time></trkpt>
<trkpt lat="46.15493565" lon="5.99854765"><ele>435.614502</ele><time>2009-08-22T15:55:34Z</time></trkpt>
<trkpt lat="46.15489868" lon="5.99842343"><ele>435.614502</ele><time>2009-08-22T15:55:35Z</time></trkpt>
<trkpt lat="46.15486256" lon="5.99829879"><ele>435.614502</ele><time>2009-08-22T15:55:36Z</time></trkpt>
<trkpt lat="46.15482702" lon="5.99817364"><ele>435.614502</ele><time>2009-08-22T15:55:37Z</time></trkpt>
<trkpt lat="46.15479173" lon="5.99804825"><ele>435.614502</ele><time>2009-08-22T15:55:38Z</time></trkpt>
<trkpt lat="46.15475586" lon="5.99792370"><ele>435.133911</ele><time>2009-08-22T15:55:39Z</time></trkpt>
<trkpt lat="46.15471965" lon="5.99779956"><ele>435.133911</ele><time>2009-08-22T15:55:40Z</time></trkpt>
<trkpt lat="46.15468377" lon="5.99767534"><ele>435.133911</ele><time>2009-08-22T15:55:41Z</time></trkpt>
<trkpt lat="46.15464865" lon="5.99755062"><ele>434.65332</ele><time>2009-08-22T15:55:42Z</time></trkpt>
<trkpt lat="46.15461429" lon="5.99742564"><ele>434.65332</ele><time>2009-08-22T15:55:43Z</time></trkpt>
<trkpt lat="46.15458252" lon="5.99729924"><ele>434.172607</ele><time>2009-08-22T15:55:44Z</time></trkpt>
<trkpt lat="46.15455637" lon="5.99716958"><ele>434.172607</ele><time>2009-08-22T15:55:45Z</time></trkpt>
<trkpt lat="46.15453675" lon="5.99703748"><ele>433.691895</ele><time>2009-08-22T15:55:46Z</time></trkpt>
<trkpt lat="46.15452125" lon="5.99690362"><ele>433.691895</ele><time>2009-08-22T15:55:47Z</time></trkpt>
<trkpt lat="46.15451010" lon="5.99676859"><ele>433.211304</ele><time>2009-08-22T15:55:48Z</time></trkpt>
<trkpt lat="46.15450557" lon="5.99663238"><ele>433.211304</ele><time>2009-08-22T15:55:49Z</time></trkpt>
<trkpt lat="46.15450884" lon="5.99649559"><ele>432.730713</ele><time>2009-08-22T15:55:50Z</time></trkpt>
<trkpt lat="46.15451815" lon="5.99635905"><ele>432.25</ele><time>2009-08-22T15:55:51Z</time></trkpt>
<trkpt lat="46.15453240" lon="5.99622192"><ele>432.25</ele><time>2009-08-22T15:55:52Z</time></trkpt>
<trkpt lat="46.15455176" lon="5.99608714"><ele>431.769165</ele><time>2009-08-22T15:55:53Z</time></trkpt>
<trkpt lat="46.15457565" lon="5.99595127"><ele>431.769165</ele><time>2009-08-22T15:55:54Z</time></trkpt>
<trkpt lat="46.15459987" lon="5.99581623"><ele>431.288574</ele><time>2009-08-22T15:55:55Z</time></trkpt>
<trkpt lat="46.15462569" lon="5.99568263"><ele>431.769165</ele><time>2009-08-22T15:55:56Z</time></trkpt>
<trkpt lat="46.15465603" lon="5.99554617"><ele>430.807983</ele><time>2009-08-22T15:55:57Z</time></trkpt>
<trkpt lat="46.15468419" lon="5.99541223"><ele>430.807983</ele><time>2009-08-22T15:55:58Z</time></trkpt>
<trkpt lat="46.15471168" lon="5.99527518"><ele>430.327271</ele><time>2009-08-22T15:55:59Z</time></trkpt>
<trkpt lat="46.15474152" lon="5.99513529"><ele>430.327271</ele><time>2009-08-22T15:56:00Z</time></trkpt>
<trkpt lat="46.15477178" lon="5.99499883"><ele>430.327271</ele><time>2009-08-22T15:56:01Z</time></trkpt>
<trkpt lat="46.15480372" lon="5.99485978"><ele>429.365967</ele><time>2009-08-22T15:56:02Z</time></trkpt>
<trkpt lat="46.15483347" lon="5.99472499"><ele>428.404663</ele><time>2009-08-22T15:56:03Z</time></trkpt>
<trkpt lat="46.15486398" lon="5.99458217"><ele>427.443359</ele><time>2009-08-22T15:56:04Z</time></trkpt>
<trkpt lat="46.15489667" lon="5.99443364"><ele>426.482056</ele><time>2009-08-22T15:56:05Z</time></trkpt>
<trkpt lat="46.15493313" lon="5.99429308"><ele>425.040161</ele><time>2009-08-22T15:56:06Z</time></trkpt>
<trkpt lat="46.15497588" lon="5.99415905"><ele>424.078735</ele><time>2009-08-22T15:56:07Z</time></trkpt>
<trkpt lat="46.15501570" lon="5.99400708"><ele>423.117432</ele><time>2009-08-22T15:56:08Z</time></trkpt>
<trkpt lat="46.15505383" lon="5.99387239"><ele>421.675415</ele><time>2009-08-22T15:56:09Z</time></trkpt>
<trkpt lat="46.15509633" lon="5.99372344"><ele>420.233398</ele><time>2009-08-22T15:56:10Z</time></trkpt>
<trkpt lat="46.15514243" lon="5.99358799"><ele>417.8302</ele><time>2009-08-22T15:56:11Z</time></trkpt>
<trkpt lat="46.15518300" lon="5.99344349"><ele>417.349609</ele><time>2009-08-22T15:56:12Z</time></trkpt>
<trkpt lat="46.15523094" lon="5.99330342"><ele>417.349609</ele><time>2009-08-22T15:56:13Z</time></trkpt>
<trkpt lat="46.15528903" lon="5.99317510"><ele>416.388184</ele><time>2009-08-22T15:56:14Z</time></trkpt>
<trkpt lat="46.15535365" lon="5.99305104"><ele>415.907471</ele><time>2009-08-22T15:56:15Z</time></trkpt>
<trkpt lat="46.15542306" lon="5.99293085"><ele>415.42688</ele><time>2009-08-22T15:56:16Z</time></trkpt>
<trkpt lat="46.15549623" lon="5.99281535"><ele>414.946167</ele><time>2009-08-22T15:56:17Z</time></trkpt>
<trkpt lat="46.15557066" lon="5.99270303"><ele>414.946167</ele><time>2009-08-22T15:56:18Z</time></trkpt>
<trkpt lat="46.15564526" lon="5.99259289"><ele>414.465454</ele><time>2009-08-22T15:56:19Z</time></trkpt>
<trkpt lat="46.15572053" lon="5.99248426"><ele>414.465454</ele><time>2009-08-22T15:56:20Z</time></trkpt>
<trkpt lat="46.15579513" lon="5.99237354"><ele>413.984863</ele><time>2009-08-22T15:56:21Z</time></trkpt>
<trkpt lat="46.15586956" lon="5.99226373"><ele>413.984863</ele><time>2009-08-22T15:56:22Z</time></trkpt>
<trkpt lat="46.15594449" lon="5.99215443"><ele>413.984863</ele><time>2009-08-22T15:56:23Z</time></trkpt>
<trkpt lat="46.15601918" lon="5.99204555"><ele>413.504272</ele><time>2009-08-22T15:56:24Z</time></trkpt>
<trkpt lat="46.15609344" lon="5.99193558"><ele>413.504272</ele><time>2009-08-22T15:56:25Z</time></trkpt>
<trkpt lat="46.15616636" lon="5.99182469"><ele>413.02356</ele><time>2009-08-22T15:56:26Z</time></trkpt>
<trkpt lat="46.15623510" lon="5.99170902"><ele>412.542847</ele><time>2009-08-22T15:56:27Z</time></trkpt>
<trkpt lat="46.15630064" lon="5.99159000"><ele>412.062256</ele><time>2009-08-22T15:56:28Z</time></trkpt>
<trkpt lat="46.15636183" lon="5.99147466"><ele>411.581665</ele><time>2009-08-22T15:56:29Z</time></trkpt>
<trkpt lat="46.15641723" lon="5.99134549"><ele>411.581665</ele><time>2009-08-22T15:56:30Z</time></trkpt>
<trkpt lat="46.15646736" lon="5.99120568"><ele>411.100952</ele><time>2009-08-22T15:56:31Z</time></trkpt>
<trkpt lat="46.15651446" lon="5.99105976"><ele>410.620239</ele><time>2009-08-22T15:56:32Z</time></trkpt>
<trkpt lat="46.15655654" lon="5.99090880"><ele>410.139648</ele><time>2009-08-22T15:56:33Z</time></trkpt>
<trkpt lat="46.15659342" lon="5.99075373"><ele>409.659058</ele><time>2009-08-22T15:56:34Z</time></trkpt>
<trkpt lat="46.15662393" lon="5.99059506"><ele>409.178345</ele><time>2009-08-22T15:56:35Z</time></trkpt>
<trkpt lat="46.15664748" lon="5.99043329"><ele>408.217041</ele><time>2009-08-22T15:56:36Z</time></trkpt>
<trkpt lat="46.15666383" lon="5.99026825"><ele>407.736328</ele><time>2009-08-22T15:56:37Z</time></trkpt>
<trkpt lat="46.15667799" lon="5.99010070"><ele>407.255615</ele><time>2009-08-22T15:56:38Z</time></trkpt>
<trkpt lat="46.15668663" lon="5.98992677"><ele>407.255615</ele><time>2009-08-22T15:56:39Z</time></trkpt>
<trkpt lat="46.15668663" lon="5.98975293"><ele>407.736328</ele><time>2009-08-22T15:56:40Z</time></trkpt>
<trkpt lat="46.15668428" lon="5.98957943"><ele>407.255615</ele><time>2009-08-22T15:56:41Z</time></trkpt>
<trkpt lat="46.15668009" lon="5.98940659"><ele>407.255615</ele><time>2009-08-22T15:56:42Z</time></trkpt>
<trkpt lat="46.15667665" lon="5.98923426"><ele>406.774902</ele><time>2009-08-22T15:56:43Z</time></trkpt>
<trkpt lat="46.15667456" lon="5.98906143"><ele>406.294312</ele><time>2009-08-22T15:56:44Z</time></trkpt>
<trkpt lat="46.15667263" lon="5.98888809"><ele>406.294312</ele><time>2009-08-22T15:56:45Z</time></trkpt>
<trkpt lat="46.15666928" lon="5.98871534"><ele>405.813721</ele><time>2009-08-22T15:56:46Z</time></trkpt>
<trkpt lat="46.15666542" lon="5.98854334"><ele>405.813721</ele><time>2009-08-22T15:56:47Z</time></trkpt>
<trkpt lat="46.15666249" lon="5.98837042"><ele>405.333008</ele><time>2009-08-22T15:56:48Z</time></trkpt>
<trkpt lat="46.15665955" lon="5.98819960"><ele>404.371704</ele><time>2009-08-22T15:56:49Z</time></trkpt>
<trkpt lat="46.15665578" lon="5.98802794"><ele>403.891113</ele><time>2009-08-22T15:56:50Z</time></trkpt>
<trkpt lat="46.15665268" lon="5.98785988"><ele>403.4104</ele><time>2009-08-22T15:56:51Z</time></trkpt>
<trkpt lat="46.15665059" lon="5.98769417"><ele>402.929688</ele><time>2009-08-22T15:56:52Z</time></trkpt>
<trkpt lat="46.15664832" lon="5.98752779"><ele>401.968506</ele><time>2009-08-22T15:56:53Z</time></trkpt>
<trkpt lat="46.15664648" lon="5.98736074"><ele>401.487793</ele><time>2009-08-22T15:56:54Z</time></trkpt>
<trkpt lat="46.15664455" lon="5.98719302"><ele>401.00708</ele><time>2009-08-22T15:56:55Z</time></trkpt>
<trkpt lat="46.15664237" lon="5.98702488"><ele>400.526489</ele><time>2009-08-22T15:56:56Z</time></trkpt>
<trkpt lat="46.15663977" lon="5.98685606"><ele>400.045898</ele><time>2009-08-22T15:56:57Z</time></trkpt>
<trkpt lat="46.15663743" lon="5.98668608"><ele>399.084351</ele><time>2009-08-22T15:56:58Z</time></trkpt>
<trkpt lat="46.15663500" lon="5.98651584"><ele>398.60376</ele><time>2009-08-22T15:56:59Z</time></trkpt>
<trkpt lat="46.15663298" lon="5.98634552"><ele>398.123169</ele><time>2009-08-22T15:57:00Z</time></trkpt>
<trkpt lat="46.15663106" lon="5.98617495"><ele>397.642456</ele><time>2009-08-22T15:57:01Z</time></trkpt>
<trkpt lat="46.15662888" lon="5.98600455"><ele>397.161743</ele><time>2009-08-22T15:57:02Z</time></trkpt>
<trkpt lat="46.15662687" lon="5.98583439"><ele>396.681152</ele><time>2009-08-22T15:57:03Z</time></trkpt>
<trkpt lat="46.15662427" lon="5.98566424"><ele>396.200562</ele><time>2009-08-22T15:57:04Z</time></trkpt>
<trkpt lat="46.15662158" lon="5.98549426"><ele>395.719849</ele><time>2009-08-22T15:57:05Z</time></trkpt>
<trkpt lat="46.15661966" lon="5.98532427"><ele>394.758545</ele><time>2009-08-22T15:57:06Z</time></trkpt>
<trkpt lat="46.15661723" lon="5.98515336"><ele>394.758545</ele><time>2009-08-22T15:57:07Z</time></trkpt>
<trkpt lat="46.15661480" lon="5.98498095"><ele>394.277954</ele><time>2009-08-22T15:57:08Z</time></trkpt>
<trkpt lat="46.15661245" lon="5.98480803"><ele>393.797241</ele><time>2009-08-22T15:57:09Z</time></trkpt>
<trkpt lat="46.15660977" lon="5.98463494"><ele>393.316528</ele><time>2009-08-22T15:57:10Z</time></trkpt>
<trkpt lat="46.15660717" lon="5.98446286"><ele>392.835938</ele><time>2009-08-22T15:57:11Z</time></trkpt>
<trkpt lat="46.15660465" lon="5.98429179"><ele>392.355347</ele><time>2009-08-22T15:57:12Z</time></trkpt>
<trkpt lat="46.15660264" lon="5.98411937"><ele>391.874512</ele><time>2009-08-22T15:57:13Z</time></trkpt>
<trkpt lat="46.15660029" lon="5.98394637"><ele>391.393799</ele><time>2009-08-22T15:57:14Z</time></trkpt>
<trkpt lat="46.15659795" lon="5.98377462"><ele>390.913208</ele><time>2009-08-22T15:57:15Z</time></trkpt>
<trkpt lat="46.15659594" lon="5.98360389"><ele>390.432617</ele><time>2009-08-22T15:57:16Z</time></trkpt>
<trkpt lat="46.15659384" lon="5.98343340"><ele>389.951904</ele><time>2009-08-22T15:57:17Z</time></trkpt>
<trkpt lat="46.15658915" lon="5.98326417"><ele>389.471191</ele><time>2009-08-22T15:57:18Z</time></trkpt>
<trkpt lat="46.15658009" lon="5.98309502"><ele>388.990601</ele><time>2009-08-22T15:57:19Z</time></trkpt>
<trkpt lat="46.15656367" lon="5.98292436"><ele>388.51001</ele><time>2009-08-22T15:57:20Z</time></trkpt>
<trkpt lat="46.15653844" lon="5.98275522"><ele>388.51001</ele><time>2009-08-22T15:57:21Z</time></trkpt>
<trkpt lat="46.15650265" lon="5.98259026"><ele>388.029297</ele><time>2009-08-22T15:57:22Z</time></trkpt>
<trkpt lat="46.15645587" lon="5.98243210"><ele>388.029297</ele><time>2009-08-22T15:57:23Z</time></trkpt>
<trkpt lat="46.15640039" lon="5.98228030"><ele>387.548584</ele><time>2009-08-22T15:57:24Z</time></trkpt>
<trkpt lat="46.15633635" lon="5.98213512"><ele>387.548584</ele><time>2009-08-22T15:57:25Z</time></trkpt>
<trkpt lat="46.15626628" lon="5.98199523"><ele>387.067993</ele><time>2009-08-22T15:57:26Z</time></trkpt>
<trkpt lat="46.15619536" lon="5.98185676"><ele>386.587402</ele><time>2009-08-22T15:57:27Z</time></trkpt>
<trkpt lat="46.15612529" lon="5.98171838"><ele>386.587402</ele><time>2009-08-22T15:57:28Z</time></trkpt>
<trkpt lat="46.15605522" lon="5.98157999"><ele>386.106689</ele><time>2009-08-22T15:57:29Z</time></trkpt>
<trkpt lat="46.15598490" lon="5.98144119"><ele>385.625977</ele><time>2009-08-22T15:57:30Z</time></trkpt>
<trkpt lat="46.15591365" lon="5.98130188"><ele>385.145386</ele><time>2009-08-22T15:57:31Z</time></trkpt>
<trkpt lat="46.15584140" lon="5.98116232"><ele>384.664795</ele><time>2009-08-22T15:57:32Z</time></trkpt>
<trkpt lat="46.15576956" lon="5.98102176"><ele>384.184082</ele><time>2009-08-22T15:57:33Z</time></trkpt>
<trkpt lat="46.15569832" lon="5.98088102"><ele>383.703247</ele><time>2009-08-22T15:57:34Z</time></trkpt>
<trkpt lat="46.15562724" lon="5.98074088"><ele>383.222656</ele><time>2009-08-22T15:57:35Z</time></trkpt>
<trkpt lat="46.15555616" lon="5.98060107"><ele>382.742065</ele><time>2009-08-22T15:57:36Z</time></trkpt>
<trkpt lat="46.15548517" lon="5.98046185"><ele>382.261353</ele><time>2009-08-22T15:57:37Z</time></trkpt>
<trkpt lat="46.15541417" lon="5.98032338"><ele>381.78064</ele><time>2009-08-22T15:57:38Z</time></trkpt>
<trkpt lat="46.15534259" lon="5.98018499"><ele>381.300049</ele><time>2009-08-22T15:57:39Z</time></trkpt>
<trkpt lat="46.15526984" lon="5.98004602"><ele>380.819458</ele><time>2009-08-22T15:57:40Z</time></trkpt>
<trkpt lat="46.15519649" lon="5.97990713"><ele>380.338745</ele><time>2009-08-22T15:57:41Z</time></trkpt>
<trkpt lat="46.15512148" lon="5.97976916"><ele>379.858032</ele><time>2009-08-22T15:57:42Z</time></trkpt>
<trkpt lat="46.15504319" lon="5.97963380"><ele>379.377441</ele><time>2009-08-22T15:57:43Z</time></trkpt>
<trkpt lat="46.15496088" lon="5.97950212"><ele>378.896851</ele><time>2009-08-22T15:57:44Z</time></trkpt>
<trkpt lat="46.15487530" lon="5.97937404"><ele>378.896851</ele><time>2009-08-22T15:57:45Z</time></trkpt>
<trkpt lat="46.15478704" lon="5.97924932"><ele>378.416138</ele><time>2009-08-22T15:57:46Z</time></trkpt>
<trkpt lat="46.15469626" lon="5.97912812"><ele>377.935425</ele><time>2009-08-22T15:57:47Z</time></trkpt>
<trkpt lat="46.15460364" lon="5.97901018"><ele>377.454834</ele><time>2009-08-22T15:57:48Z</time></trkpt>
<trkpt lat="46.15450918" lon="5.97889544"><ele>376.974243</ele><time>2009-08-22T15:57:49Z</time></trkpt>
<trkpt lat="46.15441228" lon="5.97878555"><ele>376.49353</ele><time>2009-08-22T15:57:50Z</time></trkpt>
<trkpt lat="46.15431296" lon="5.97868178"><ele>376.012817</ele><time>2009-08-22T15:57:51Z</time></trkpt>
<trkpt lat="46.15421229" lon="5.97858354"><ele>376.012817</ele><time>2009-08-22T15:57:52Z</time></trkpt>
<trkpt lat="46.15411188" lon="5.97848799"><ele>375.532104</ele><time>2009-08-22T15:57:53Z</time></trkpt>
<trkpt lat="46.15401305" lon="5.97839252"><ele>375.532104</ele><time>2009-08-22T15:57:54Z</time></trkpt>
<trkpt lat="46.15391666" lon="5.97829739"><ele>375.051514</ele><time>2009-08-22T15:57:55Z</time></trkpt>
<trkpt lat="46.15382220" lon="5.97820460"><ele>375.051514</ele><time>2009-08-22T15:57:56Z</time></trkpt>
<trkpt lat="46.15372983" lon="5.97811466"><ele>375.051514</ele><time>2009-08-22T15:57:57Z</time></trkpt>
<trkpt lat="46.15363964" lon="5.97802749"><ele>375.051514</ele><time>2009-08-22T15:57:58Z</time></trkpt>
<trkpt lat="46.15355113" lon="5.97794342"><ele>374.570801</ele><time>2009-08-22T15:57:59Z</time></trkpt>
<trkpt lat="46.15346513" lon="5.97786069"><ele>374.570801</ele><time>2009-08-22T15:58:00Z</time></trkpt>
<trkpt lat="46.15338122" lon="5.97777938"><ele>374.570801</ele><time>2009-08-22T15:58:01Z</time></trkpt>
<trkpt lat="46.15329858" lon="5.97769959"><ele>374.570801</ele><time>2009-08-22T15:58:02Z</time></trkpt>
<trkpt lat="46.15321686" lon="5.97761912"><ele>374.570801</ele><time>2009-08-22T15:58:03Z</time></trkpt>
<trkpt lat="46.15313538" lon="5.97754000"><ele>374.090088</ele><time>2009-08-22T15:58:04Z</time></trkpt>
<trkpt lat="46.15305374" lon="5.97746205"><ele>374.090088</ele><time>2009-08-22T15:58:05Z</time></trkpt>
<trkpt lat="46.15297370" lon="5.97738217"><ele>374.090088</ele><time>2009-08-22T15:58:06Z</time></trkpt>
<trkpt lat="46.15289583" lon="5.97729969"><ele>374.090088</ele><time>2009-08-22T15:58:07Z</time></trkpt>
<trkpt lat="46.15281913" lon="5.97721612"><ele>374.090088</ele><time>2009-08-22T15:58:08Z</time></trkpt>
<trkpt lat="46.15274412" lon="5.97713113"><ele>374.090088</ele><time>2009-08-22T15:58:09Z</time></trkpt>
<trkpt lat="46.15267077" lon="5.97704479"><ele>374.090088</ele><time>2009-08-22T15:58:10Z</time></trkpt>
<trkpt lat="46.15259886" lon="5.97695712"><ele>374.090088</ele><time>2009-08-22T15:58:11Z</time></trkpt>
<trkpt lat="46.15252828" lon="5.97686794"><ele>374.090088</ele><time>2009-08-22T15:58:12Z</time></trkpt>
<trkpt lat="46.15245947" lon="5.97677657"><ele>374.090088</ele><time>2009-08-22T15:58:13Z</time></trkpt>
<trkpt lat="46.15239233" lon="5.97668345"><ele>374.090088</ele><time>2009-08-22T15:58:14Z</time></trkpt>
<trkpt lat="46.15232527" lon="5.97659117"><ele>374.090088</ele><time>2009-08-22T15:58:15Z</time></trkpt>
<trkpt lat="46.15225797" lon="5.97649964"><ele>373.609497</ele><time>2009-08-22T15:58:16Z</time></trkpt>
<trkpt lat="46.15219116" lon="5.97640802"><ele>373.609497</ele><time>2009-08-22T15:58:17Z</time></trkpt>
<trkpt lat="46.15212495" lon="5.97631657"><ele>373.609497</ele><time>2009-08-22T15:58:18Z</time></trkpt>
<trkpt lat="46.15205940" lon="5.97622454"><ele>373.609497</ele><time>2009-08-22T15:58:19Z</time></trkpt>
<trkpt lat="46.15199402" lon="5.97613284"><ele>373.609497</ele><time>2009-08-22T15:58:20Z</time></trkpt>
<trkpt lat="46.15192923" lon="5.97604115"><ele>373.609497</ele><time>2009-08-22T15:58:21Z</time></trkpt>
<trkpt lat="46.15186452" lon="5.97594970"><ele>373.609497</ele><time>2009-08-22T15:58:22Z</time></trkpt>
<trkpt lat="46.15179998" lon="5.97585834"><ele>373.609497</ele><time>2009-08-22T15:58:23Z</time></trkpt>
<trkpt lat="46.15173602" lon="5.97576714"><ele>373.609497</ele><time>2009-08-22T15:58:24Z</time></trkpt>
<trkpt lat="46.15167274" lon="5.97567653"><ele>373.609497</ele><time>2009-08-22T15:58:25Z</time></trkpt>
<trkpt lat="46.15161004" lon="5.97558609"><ele>373.609497</ele><time>2009-08-22T15:58:26Z</time></trkpt>
<trkpt lat="46.15154793" lon="5.97549506"><ele>373.609497</ele><time>2009-08-22T15:58:27Z</time></trkpt>
<trkpt lat="46.15148549" lon="5.97540379"><ele>373.609497</ele><time>2009-08-22T15:58:28Z</time></trkpt>
<trkpt lat="46.15142162" lon="5.97531334"><ele>373.128906</ele><time>2009-08-22T15:58:29Z</time></trkpt>
<trkpt lat="46.15135674" lon="5.97522140"><ele>373.128906</ele><time>2009-08-22T15:58:30Z</time></trkpt>
<trkpt lat="46.15129128" lon="5.97512777"><ele>373.609497</ele><time>2009-08-22T15:58:31Z</time></trkpt>
<trkpt lat="46.15122523" lon="5.97503238"><ele>373.609497</ele><time>2009-08-22T15:58:32Z</time></trkpt>
<trkpt lat="46.15115927" lon="5.97493683"><ele>373.128906</ele><time>2009-08-22T15:58:33Z</time></trkpt>
<trkpt lat="46.15109280" lon="5.97484144"><ele>373.128906</ele><time>2009-08-22T15:58:34Z</time></trkpt>
<trkpt lat="46.15102549" lon="5.97474606"><ele>373.128906</ele><time>2009-08-22T15:58:35Z</time></trkpt>
<trkpt lat="46.15095785" lon="5.97465126"><ele>373.128906</ele><time>2009-08-22T15:58:36Z</time></trkpt>
<trkpt lat="46.15089105" lon="5.97455855"><ele>373.128906</ele><time>2009-08-22T15:58:37Z</time></trkpt>
<trkpt lat="46.15082927" lon="5.97447197"><ele>373.128906</ele><time>2009-08-22T15:58:38Z</time></trkpt>
<trkpt lat="46.15077269" lon="5.97438647"><ele>373.128906</ele><time>2009-08-22T15:58:39Z</time></trkpt>
<trkpt lat="46.15072098" lon="5.97430953"><ele>373.128906</ele><time>2009-08-22T15:58:40Z</time></trkpt>
<trkpt lat="46.15067027" lon="5.97423837"><ele>373.128906</ele><time>2009-08-22T15:58:41Z</time></trkpt>
<trkpt lat="46.15062115" lon="5.97417592"><ele>373.128906</ele><time>2009-08-22T15:58:42Z</time></trkpt>
<trkpt lat="46.15057287" lon="5.97411825"><ele>372.648193</ele><time>2009-08-22T15:58:43Z</time></trkpt>
<trkpt lat="46.15052610" lon="5.97405857"><ele>372.16748</ele><time>2009-08-22T15:58:44Z</time></trkpt>
<trkpt lat="46.15047832" lon="5.97399269"><ele>372.16748</ele><time>2009-08-22T15:58:45Z</time></trkpt>
<trkpt lat="46.15042686" lon="5.97391868"><ele>371.68689</ele><time>2009-08-22T15:58:46Z</time></trkpt>
<trkpt lat="46.15037103" lon="5.97384232"><ele>372.16748</ele><time>2009-08-22T15:58:47Z</time></trkpt>
<trkpt lat="46.15031320" lon="5.97376194"><ele>372.16748</ele><time>2009-08-22T15:58:48Z</time></trkpt>
<trkpt lat="46.15025192" lon="5.97367980"><ele>372.16748</ele><time>2009-08-22T15:58:49Z</time></trkpt>
<trkpt lat="46.15018965" lon="5.97359665"><ele>372.16748</ele><time>2009-08-22T15:58:50Z</time></trkpt>
<trkpt lat="46.15012896" lon="5.97351115"><ele>372.16748</ele><time>2009-08-22T15:58:51Z</time></trkpt>
<trkpt lat="46.15006744" lon="5.97343018"><ele>372.16748</ele><time>2009-08-22T15:58:52Z</time></trkpt>
<trkpt lat="46.15000449" lon="5.97335022"><ele>372.16748</ele><time>2009-08-22T15:58:53Z</time></trkpt>
<trkpt lat="46.14994012" lon="5.97327285"><ele>372.16748</ele><time>2009-08-22T15:58:54Z</time></trkpt>
<trkpt lat="46.14987625" lon="5.97319935"><ele>372.16748</ele><time>2009-08-22T15:58:55Z</time></trkpt>
<trkpt lat="46.14981447" lon="5.97312273"><ele>372.648193</ele><time>2009-08-22T15:58:56Z</time></trkpt>
<trkpt lat="46.14975706" lon="5.97304009"><ele>372.16748</ele><time>2009-08-22T15:58:57Z</time></trkpt>
<trkpt lat="46.14970107" lon="5.97295602"><ele>372.16748</ele><time>2009-08-22T15:58:58Z</time></trkpt>
<trkpt lat="46.14964784" lon="5.97287505"><ele>372.16748</ele><time>2009-08-22T15:58:59Z</time></trkpt>
<trkpt lat="46.14959789" lon="5.97280028"><ele>372.16748</ele><time>2009-08-22T15:59:00Z</time></trkpt>
<trkpt lat="46.14955069" lon="5.97273432"><ele>372.16748</ele><time>2009-08-22T15:59:01Z</time></trkpt>
<trkpt lat="46.14950283" lon="5.97266919"><ele>372.16748</ele><time>2009-08-22T15:59:02Z</time></trkpt>
<trkpt lat="46.14945036" lon="5.97260440"><ele>372.16748</ele><time>2009-08-22T15:59:03Z</time></trkpt>
<trkpt lat="46.14939278" lon="5.97253894"><ele>373.128906</ele><time>2009-08-22T15:59:04Z</time></trkpt>
<trkpt lat="46.14933444" lon="5.97246886"><ele>373.128906</ele><time>2009-08-22T15:59:05Z</time></trkpt>
<trkpt lat="46.14927359" lon="5.97239887"><ele>373.609497</ele><time>2009-08-22T15:59:06Z</time></trkpt>
<trkpt lat="46.14920922" lon="5.97232964"><ele>374.570801</ele><time>2009-08-22T15:59:07Z</time></trkpt>
<trkpt lat="46.14914878" lon="5.97225378"><ele>374.570801</ele><time>2009-08-22T15:59:08Z</time></trkpt>
<trkpt lat="46.14908768" lon="5.97217717"><ele>374.090088</ele><time>2009-08-22T15:59:09Z</time></trkpt>
<trkpt lat="46.14902465" lon="5.97209997"><ele>374.570801</ele><time>2009-08-22T15:59:10Z</time></trkpt>
<trkpt lat="46.14896229" lon="5.97202529"><ele>374.570801</ele><time>2009-08-22T15:59:11Z</time></trkpt>
<trkpt lat="46.14889892" lon="5.97195379"><ele>374.570801</ele><time>2009-08-22T15:59:12Z</time></trkpt>
<trkpt lat="46.14883647" lon="5.97187886"><ele>374.570801</ele><time>2009-08-22T15:59:13Z</time></trkpt>
<trkpt lat="46.14876799" lon="5.97180108"><ele>374.570801</ele><time>2009-08-22T15:59:14Z</time></trkpt>
<trkpt lat="46.14871066" lon="5.97171407"><ele>374.570801</ele><time>2009-08-22T15:59:15Z</time></trkpt>
<trkpt lat="46.14864838" lon="5.97163746"><ele>375.532104</ele><time>2009-08-22T15:59:16Z</time></trkpt>
<trkpt lat="46.14859466" lon="5.97155012"><ele>375.532104</ele><time>2009-08-22T15:59:17Z</time></trkpt>
<trkpt lat="46.14853900" lon="5.97146312"><ele>375.532104</ele><time>2009-08-22T15:59:18Z</time></trkpt>
<trkpt lat="46.14848217" lon="5.97137905"><ele>375.051514</ele><time>2009-08-22T15:59:19Z</time></trkpt>
<trkpt lat="46.14842727" lon="5.97129540"><ele>375.051514</ele><time>2009-08-22T15:59:20Z</time></trkpt>
<trkpt lat="46.14837765" lon="5.97120554"><ele>374.570801</ele><time>2009-08-22T15:59:21Z</time></trkpt>
<trkpt lat="46.14832467" lon="5.97112105"><ele>374.090088</ele><time>2009-08-22T15:59:22Z</time></trkpt>
<trkpt lat="46.14827430" lon="5.97104134"><ele>374.090088</ele><time>2009-08-22T15:59:23Z</time></trkpt>
<trkpt lat="46.14821655" lon="5.97096766"><ele>374.570801</ele><time>2009-08-22T15:59:24Z</time></trkpt>
<trkpt lat="46.14816500" lon="5.97089273"><ele>374.570801</ele><time>2009-08-22T15:59:25Z</time></trkpt>
<trkpt lat="46.14811613" lon="5.97081637"><ele>374.090088</ele><time>2009-08-22T15:59:26Z</time></trkpt>
<trkpt lat="46.14807095" lon="5.97073683"><ele>373.609497</ele><time>2009-08-22T15:59:27Z</time></trkpt>
<trkpt lat="46.14802795" lon="5.97065862"><ele>373.128906</ele><time>2009-08-22T15:59:28Z</time></trkpt>
<trkpt lat="46.14798747" lon="5.97058763"><ele>372.648193</ele><time>2009-08-22T15:59:29Z</time></trkpt>
<trkpt lat="46.14794673" lon="5.97052468"><ele>372.16748</ele><time>2009-08-22T15:59:30Z</time></trkpt>
<trkpt lat="46.14790667" lon="5.97046634"><ele>371.68689</ele><time>2009-08-22T15:59:31Z</time></trkpt>
<trkpt lat="46.14786266" lon="5.97041354"><ele>371.68689</ele><time>2009-08-22T15:59:32Z</time></trkpt>
<trkpt lat="46.14781832" lon="5.97035956"><ele>371.68689</ele><time>2009-08-22T15:59:33Z</time></trkpt>
<trkpt lat="46.14777683" lon="5.97030306"><ele>371.206299</ele><time>2009-08-22T15:59:34Z</time></trkpt>
<trkpt lat="46.14773828" lon="5.97024665"><ele>371.206299</ele><time>2009-08-22T15:59:35Z</time></trkpt>
<trkpt lat="46.14769712" lon="5.97018756"><ele>371.68689</ele><time>2009-08-22T15:59:36Z</time></trkpt>
<trkpt lat="46.14766192" lon="5.97012503"><ele>371.68689</ele><time>2009-08-22T15:59:37Z</time></trkpt>
<trkpt lat="46.14763149" lon="5.97005999"><ele>371.68689</ele><time>2009-08-22T15:59:38Z</time></trkpt>
<trkpt lat="46.14759696" lon="5.97000123"><ele>371.68689</ele><time>2009-08-22T15:59:39Z</time></trkpt>
<trkpt lat="46.14754826" lon="5.96994708"><ele>372.16748</ele><time>2009-08-22T15:59:40Z</time></trkpt>
<trkpt lat="46.14748992" lon="5.96993669"><ele>371.68689</ele><time>2009-08-22T15:59:41Z</time></trkpt>
<trkpt lat="46.14742580" lon="5.96998396"><ele>372.16748</ele><time>2009-08-22T15:59:42Z</time></trkpt>
<trkpt lat="46.14739789" lon="5.97001456"><ele>372.648193</ele><time>2009-08-22T15:59:43Z</time></trkpt>
<trkpt lat="46.14739068" lon="5.97002788"><ele>372.648193</ele><time>2009-08-22T15:59:44Z</time></trkpt>
</trkseg></trk></gpx>